<?xml version="1.0" encoding="UTF-8" standalone="no" ?>
<gpx xmlns="http://www.topografix.com/GPX/1/1" xmlns:xsi="http://www.w3.org/2001/XMLSchema-instance" xsi:schemaLocation="http://www.topografix.com/GPX/1/1 http://www.topografix.com/GPX/1/1/gpx.xsd" version="1.1" creator="VisuGPX - https://www.visugpx.com">
  <metadata>
    <name>Tour du Ferrouillet</name>
    <desc><![CDATA[Prabert>Cime de la Jasse>Pas de la Coche>Col du Sifflet>Pointe du Sciallet>Col de la Mine de Fer>Lac de Crop>Prabert]]></desc>
  </metadata>
  <trk>
    <name><![CDATA[Untitled]]></name>
    <trkseg>
      <trkpt lat="45.22728" lon="5.99372">
        <ele>1278</ele>
        <time>2013-04-13T05:19:35Z</time>
      </trkpt>
      <trkpt lat="45.22728" lon="5.99372">
        <ele>1278</ele>
        <time>2013-04-13T05:19:38Z</time>
      </trkpt>
      <trkpt lat="45.22728" lon="5.99372">
        <ele>1279.8000488</ele>
        <time>2013-04-13T05:19:41Z</time>
      </trkpt>
      <trkpt lat="45.22728" lon="5.99372">
        <ele>1279.8000488</ele>
        <time>2013-04-13T05:19:44Z</time>
      </trkpt>
      <trkpt lat="45.22729" lon="5.99372">
        <ele>1279.8000488</ele>
        <time>2013-04-13T05:19:47Z</time>
      </trkpt>
      <trkpt lat="45.22729" lon="5.9937">
        <ele>1279.8000488</ele>
        <time>2013-04-13T05:19:50Z</time>
      </trkpt>
      <trkpt lat="45.22729" lon="5.9937">
        <ele>1279.8000488</ele>
        <time>2013-04-13T05:19:53Z</time>
      </trkpt>
      <trkpt lat="45.22729" lon="5.9937">
        <ele>1279.8000488</ele>
        <time>2013-04-13T05:19:56Z</time>
      </trkpt>
      <trkpt lat="45.22728" lon="5.9937">
        <ele>1279.8000488</ele>
        <time>2013-04-13T05:19:59Z</time>
      </trkpt>
      <trkpt lat="45.22728" lon="5.9937">
        <ele>1279.8000488</ele>
        <time>2013-04-13T05:20:02Z</time>
      </trkpt>
      <trkpt lat="45.22728" lon="5.9937">
        <ele>1279.8000488</ele>
        <time>2013-04-13T05:20:05Z</time>
      </trkpt>
      <trkpt lat="45.22728" lon="5.99369">
        <ele>1279.8000488</ele>
        <time>2013-04-13T05:20:08Z</time>
      </trkpt>
      <trkpt lat="45.22728" lon="5.9937">
        <ele>1279.8000488</ele>
        <time>2013-04-13T05:20:11Z</time>
      </trkpt>
      <trkpt lat="45.22728" lon="5.9937">
        <ele>1279.8000488</ele>
        <time>2013-04-13T05:20:14Z</time>
      </trkpt>
      <trkpt lat="45.22729" lon="5.99374">
        <ele>1279.8000488</ele>
        <time>2013-04-13T05:20:17Z</time>
      </trkpt>
      <trkpt lat="45.22726" lon="5.99377">
        <ele>1279.8000488</ele>
        <time>2013-04-13T05:20:20Z</time>
      </trkpt>
      <trkpt lat="45.22723" lon="5.99381">
        <ele>1279.8000488</ele>
        <time>2013-04-13T05:20:23Z</time>
      </trkpt>
      <trkpt lat="45.2272" lon="5.99385">
        <ele>1279.8000488</ele>
        <time>2013-04-13T05:20:26Z</time>
      </trkpt>
      <trkpt lat="45.22717" lon="5.99389">
        <ele>1279.8000488</ele>
        <time>2013-04-13T05:20:29Z</time>
      </trkpt>
      <trkpt lat="45.22714" lon="5.99392">
        <ele>1279.8000488</ele>
        <time>2013-04-13T05:20:32Z</time>
      </trkpt>
      <trkpt lat="45.2271" lon="5.99394">
        <ele>1279.8000488</ele>
        <time>2013-04-13T05:20:35Z</time>
      </trkpt>
      <trkpt lat="45.22707" lon="5.99396">
        <ele>1279.8000488</ele>
        <time>2013-04-13T05:20:38Z</time>
      </trkpt>
      <trkpt lat="45.22703" lon="5.99399">
        <ele>1279.8000488</ele>
        <time>2013-04-13T05:20:41Z</time>
      </trkpt>
      <trkpt lat="45.227" lon="5.99401">
        <ele>1280</ele>
        <time>2013-04-13T05:20:44Z</time>
      </trkpt>
      <trkpt lat="45.22698" lon="5.99404">
        <ele>1281</ele>
        <time>2013-04-13T05:20:47Z</time>
      </trkpt>
      <trkpt lat="45.22695" lon="5.99406">
        <ele>1281.8000488</ele>
        <time>2013-04-13T05:20:50Z</time>
      </trkpt>
      <trkpt lat="45.22692" lon="5.99408">
        <ele>1281.8000488</ele>
        <time>2013-04-13T05:20:53Z</time>
      </trkpt>
      <trkpt lat="45.22689" lon="5.99411">
        <ele>1281.8000488</ele>
        <time>2013-04-13T05:20:56Z</time>
      </trkpt>
      <trkpt lat="45.22688" lon="5.99413">
        <ele>1281.8000488</ele>
        <time>2013-04-13T05:20:59Z</time>
      </trkpt>
      <trkpt lat="45.22688" lon="5.99413">
        <ele>1283</ele>
        <time>2013-04-13T05:21:02Z</time>
      </trkpt>
      <trkpt lat="45.22688" lon="5.99413">
        <ele>1283.8000488</ele>
        <time>2013-04-13T05:21:05Z</time>
      </trkpt>
      <trkpt lat="45.22687" lon="5.99413">
        <ele>1283.8000488</ele>
        <time>2013-04-13T05:21:08Z</time>
      </trkpt>
      <trkpt lat="45.22687" lon="5.99413">
        <ele>1283.8000488</ele>
        <time>2013-04-13T05:21:11Z</time>
      </trkpt>
      <trkpt lat="45.22687" lon="5.99413">
        <ele>1283.8000488</ele>
        <time>2013-04-13T05:21:14Z</time>
      </trkpt>
      <trkpt lat="45.22686" lon="5.99415">
        <ele>1283.8000488</ele>
        <time>2013-04-13T05:21:17Z</time>
      </trkpt>
      <trkpt lat="45.22684" lon="5.99417">
        <ele>1283.8000488</ele>
        <time>2013-04-13T05:21:20Z</time>
      </trkpt>
      <trkpt lat="45.22682" lon="5.99419">
        <ele>1283.8000488</ele>
        <time>2013-04-13T05:21:23Z</time>
      </trkpt>
      <trkpt lat="45.22679" lon="5.99421">
        <ele>1283.8000488</ele>
        <time>2013-04-13T05:21:26Z</time>
      </trkpt>
      <trkpt lat="45.22675" lon="5.99424">
        <ele>1283.8000488</ele>
        <time>2013-04-13T05:21:29Z</time>
      </trkpt>
      <trkpt lat="45.22672" lon="5.99427">
        <ele>1283.8000488</ele>
        <time>2013-04-13T05:21:32Z</time>
      </trkpt>
      <trkpt lat="45.22668" lon="5.9943">
        <ele>1284.4000244</ele>
        <time>2013-04-13T05:21:35Z</time>
      </trkpt>
      <trkpt lat="45.22664" lon="5.99433">
        <ele>1285.8000488</ele>
        <time>2013-04-13T05:21:38Z</time>
      </trkpt>
      <trkpt lat="45.22659" lon="5.99434">
        <ele>1286</ele>
        <time>2013-04-13T05:21:41Z</time>
      </trkpt>
      <trkpt lat="45.22654" lon="5.99436">
        <ele>1286</ele>
        <time>2013-04-13T05:21:44Z</time>
      </trkpt>
      <trkpt lat="45.2265" lon="5.99439">
        <ele>1286</ele>
        <time>2013-04-13T05:21:47Z</time>
      </trkpt>
      <trkpt lat="45.22646" lon="5.9944">
        <ele>1286.4000244</ele>
        <time>2013-04-13T05:21:50Z</time>
      </trkpt>
      <trkpt lat="45.22642" lon="5.99444">
        <ele>1288</ele>
        <time>2013-04-13T05:21:53Z</time>
      </trkpt>
      <trkpt lat="45.22638" lon="5.99447">
        <ele>1288</ele>
        <time>2013-04-13T05:21:56Z</time>
      </trkpt>
      <trkpt lat="45.22635" lon="5.99451">
        <ele>1288</ele>
        <time>2013-04-13T05:21:59Z</time>
      </trkpt>
      <trkpt lat="45.22632" lon="5.99454">
        <ele>1288</ele>
        <time>2013-04-13T05:22:02Z</time>
      </trkpt>
      <trkpt lat="45.22631" lon="5.99456">
        <ele>1289</ele>
        <time>2013-04-13T05:22:05Z</time>
      </trkpt>
      <trkpt lat="45.22628" lon="5.99458">
        <ele>1290</ele>
        <time>2013-04-13T05:22:08Z</time>
      </trkpt>
      <trkpt lat="45.22627" lon="5.9946">
        <ele>1290</ele>
        <time>2013-04-13T05:22:11Z</time>
      </trkpt>
      <trkpt lat="45.22626" lon="5.9946">
        <ele>1290</ele>
        <time>2013-04-13T05:22:14Z</time>
      </trkpt>
      <trkpt lat="45.22624" lon="5.99463">
        <ele>1290</ele>
        <time>2013-04-13T05:22:17Z</time>
      </trkpt>
      <trkpt lat="45.22622" lon="5.99466">
        <ele>1290</ele>
        <time>2013-04-13T05:22:20Z</time>
      </trkpt>
      <trkpt lat="45.22619" lon="5.9947">
        <ele>1290</ele>
        <time>2013-04-13T05:22:23Z</time>
      </trkpt>
      <trkpt lat="45.22617" lon="5.99474">
        <ele>1290.8000488</ele>
        <time>2013-04-13T05:22:26Z</time>
      </trkpt>
      <trkpt lat="45.22614" lon="5.99479">
        <ele>1292</ele>
        <time>2013-04-13T05:22:29Z</time>
      </trkpt>
      <trkpt lat="45.22612" lon="5.99481">
        <ele>1292</ele>
        <time>2013-04-13T05:22:32Z</time>
      </trkpt>
      <trkpt lat="45.2261" lon="5.99487">
        <ele>1292</ele>
        <time>2013-04-13T05:22:35Z</time>
      </trkpt>
      <trkpt lat="45.22606" lon="5.99492">
        <ele>1292</ele>
        <time>2013-04-13T05:22:38Z</time>
      </trkpt>
      <trkpt lat="45.22602" lon="5.99496">
        <ele>1293</ele>
        <time>2013-04-13T05:22:41Z</time>
      </trkpt>
      <trkpt lat="45.22599" lon="5.99501">
        <ele>1294</ele>
        <time>2013-04-13T05:22:44Z</time>
      </trkpt>
      <trkpt lat="45.22595" lon="5.99505">
        <ele>1294</ele>
        <time>2013-04-13T05:22:47Z</time>
      </trkpt>
      <trkpt lat="45.22592" lon="5.9951">
        <ele>1294</ele>
        <time>2013-04-13T05:22:50Z</time>
      </trkpt>
      <trkpt lat="45.2259" lon="5.99512">
        <ele>1294.8000488</ele>
        <time>2013-04-13T05:22:53Z</time>
      </trkpt>
      <trkpt lat="45.22589" lon="5.99514">
        <ele>1296</ele>
        <time>2013-04-13T05:22:56Z</time>
      </trkpt>
      <trkpt lat="45.22587" lon="5.99516">
        <ele>1296</ele>
        <time>2013-04-13T05:22:59Z</time>
      </trkpt>
      <trkpt lat="45.22587" lon="5.99516">
        <ele>1296</ele>
        <time>2013-04-13T05:23:02Z</time>
      </trkpt>
      <trkpt lat="45.22587" lon="5.99516">
        <ele>1296</ele>
        <time>2013-04-13T05:23:05Z</time>
      </trkpt>
      <trkpt lat="45.22587" lon="5.99516">
        <ele>1296</ele>
        <time>2013-04-13T05:23:08Z</time>
      </trkpt>
      <trkpt lat="45.22587" lon="5.99516">
        <ele>1296</ele>
        <time>2013-04-13T05:23:11Z</time>
      </trkpt>
      <trkpt lat="45.22586" lon="5.99515">
        <ele>1296</ele>
        <time>2013-04-13T05:23:14Z</time>
      </trkpt>
      <trkpt lat="45.22586" lon="5.99515">
        <ele>1296</ele>
        <time>2013-04-13T05:23:17Z</time>
      </trkpt>
      <trkpt lat="45.22585" lon="5.99515">
        <ele>1296</ele>
        <time>2013-04-13T05:23:20Z</time>
      </trkpt>
      <trkpt lat="45.22584" lon="5.99516">
        <ele>1296</ele>
        <time>2013-04-13T05:23:23Z</time>
      </trkpt>
      <trkpt lat="45.22581" lon="5.99519">
        <ele>1296</ele>
        <time>2013-04-13T05:23:26Z</time>
      </trkpt>
      <trkpt lat="45.22578" lon="5.99522">
        <ele>1296</ele>
        <time>2013-04-13T05:23:29Z</time>
      </trkpt>
      <trkpt lat="45.22576" lon="5.99524">
        <ele>1296</ele>
        <time>2013-04-13T05:23:32Z</time>
      </trkpt>
      <trkpt lat="45.22573" lon="5.99526">
        <ele>1296.4000244</ele>
        <time>2013-04-13T05:23:35Z</time>
      </trkpt>
      <trkpt lat="45.22573" lon="5.99525">
        <ele>1297.4000244</ele>
        <time>2013-04-13T05:23:38Z</time>
      </trkpt>
      <trkpt lat="45.22573" lon="5.99525">
        <ele>1298</ele>
        <time>2013-04-13T05:23:41Z</time>
      </trkpt>
      <trkpt lat="45.22572" lon="5.99525">
        <ele>1298</ele>
        <time>2013-04-13T05:23:44Z</time>
      </trkpt>
      <trkpt lat="45.22572" lon="5.99525">
        <ele>1298</ele>
        <time>2013-04-13T05:23:47Z</time>
      </trkpt>
      <trkpt lat="45.22572" lon="5.99525">
        <ele>1298</ele>
        <time>2013-04-13T05:23:50Z</time>
      </trkpt>
      <trkpt lat="45.2257" lon="5.99527">
        <ele>1298</ele>
        <time>2013-04-13T05:23:53Z</time>
      </trkpt>
      <trkpt lat="45.22567" lon="5.9953">
        <ele>1298</ele>
        <time>2013-04-13T05:23:56Z</time>
      </trkpt>
      <trkpt lat="45.22564" lon="5.99532">
        <ele>1298</ele>
        <time>2013-04-13T05:23:59Z</time>
      </trkpt>
      <trkpt lat="45.22564" lon="5.99532">
        <ele>1298</ele>
        <time>2013-04-13T05:24:02Z</time>
      </trkpt>
      <trkpt lat="45.22561" lon="5.99537">
        <ele>1298</ele>
        <time>2013-04-13T05:24:05Z</time>
      </trkpt>
      <trkpt lat="45.22558" lon="5.99541">
        <ele>1298</ele>
        <time>2013-04-13T05:24:08Z</time>
      </trkpt>
      <trkpt lat="45.22556" lon="5.99546">
        <ele>1299</ele>
        <time>2013-04-13T05:24:11Z</time>
      </trkpt>
      <trkpt lat="45.22552" lon="5.9955">
        <ele>1300</ele>
        <time>2013-04-13T05:24:14Z</time>
      </trkpt>
      <trkpt lat="45.22548" lon="5.99554">
        <ele>1300</ele>
        <time>2013-04-13T05:24:17Z</time>
      </trkpt>
      <trkpt lat="45.22545" lon="5.99559">
        <ele>1300</ele>
        <time>2013-04-13T05:24:20Z</time>
      </trkpt>
      <trkpt lat="45.2254" lon="5.99564">
        <ele>1301</ele>
        <time>2013-04-13T05:24:23Z</time>
      </trkpt>
      <trkpt lat="45.22538" lon="5.99566">
        <ele>1302</ele>
        <time>2013-04-13T05:24:26Z</time>
      </trkpt>
      <trkpt lat="45.22536" lon="5.99568">
        <ele>1302</ele>
        <time>2013-04-13T05:24:29Z</time>
      </trkpt>
      <trkpt lat="45.22532" lon="5.99572">
        <ele>1302.4000244</ele>
        <time>2013-04-13T05:24:32Z</time>
      </trkpt>
      <trkpt lat="45.22529" lon="5.99577">
        <ele>1304</ele>
        <time>2013-04-13T05:24:35Z</time>
      </trkpt>
      <trkpt lat="45.22526" lon="5.99583">
        <ele>1304.4000244</ele>
        <time>2013-04-13T05:24:38Z</time>
      </trkpt>
      <trkpt lat="45.22523" lon="5.99589">
        <ele>1304.4000244</ele>
        <time>2013-04-13T05:24:41Z</time>
      </trkpt>
      <trkpt lat="45.2252" lon="5.99594">
        <ele>1304.4000244</ele>
        <time>2013-04-13T05:24:44Z</time>
      </trkpt>
      <trkpt lat="45.22518" lon="5.99598">
        <ele>1304.4000244</ele>
        <time>2013-04-13T05:24:47Z</time>
      </trkpt>
      <trkpt lat="45.22518" lon="5.99602">
        <ele>1304.4000244</ele>
        <time>2013-04-13T05:24:50Z</time>
      </trkpt>
      <trkpt lat="45.22517" lon="5.99608">
        <ele>1305</ele>
        <time>2013-04-13T05:24:53Z</time>
      </trkpt>
      <trkpt lat="45.22517" lon="5.99614">
        <ele>1306.4000244</ele>
        <time>2013-04-13T05:24:56Z</time>
      </trkpt>
      <trkpt lat="45.22515" lon="5.9962">
        <ele>1306.4000244</ele>
        <time>2013-04-13T05:24:59Z</time>
      </trkpt>
      <trkpt lat="45.22514" lon="5.99625">
        <ele>1306.4000244</ele>
        <time>2013-04-13T05:25:02Z</time>
      </trkpt>
      <trkpt lat="45.22514" lon="5.99633">
        <ele>1306.4000244</ele>
        <time>2013-04-13T05:25:05Z</time>
      </trkpt>
      <trkpt lat="45.22514" lon="5.99641">
        <ele>1307.4000244</ele>
        <time>2013-04-13T05:25:08Z</time>
      </trkpt>
      <trkpt lat="45.22514" lon="5.99647">
        <ele>1308.4000244</ele>
        <time>2013-04-13T05:25:11Z</time>
      </trkpt>
      <trkpt lat="45.22515" lon="5.99653">
        <ele>1308.4000244</ele>
        <time>2013-04-13T05:25:14Z</time>
      </trkpt>
      <trkpt lat="45.22516" lon="5.9966">
        <ele>1308.4000244</ele>
        <time>2013-04-13T05:25:17Z</time>
      </trkpt>
      <trkpt lat="45.22518" lon="5.99666">
        <ele>1309.4000244</ele>
        <time>2013-04-13T05:25:20Z</time>
      </trkpt>
      <trkpt lat="45.22518" lon="5.99673">
        <ele>1310.4000244</ele>
        <time>2013-04-13T05:25:23Z</time>
      </trkpt>
      <trkpt lat="45.22518" lon="5.9968">
        <ele>1310.4000244</ele>
        <time>2013-04-13T05:25:26Z</time>
      </trkpt>
      <trkpt lat="45.22518" lon="5.99687">
        <ele>1311.4000244</ele>
        <time>2013-04-13T05:25:29Z</time>
      </trkpt>
      <trkpt lat="45.22517" lon="5.99691">
        <ele>1312.4000244</ele>
        <time>2013-04-13T05:25:32Z</time>
      </trkpt>
      <trkpt lat="45.22516" lon="5.99697">
        <ele>1312.4000244</ele>
        <time>2013-04-13T05:25:35Z</time>
      </trkpt>
      <trkpt lat="45.22515" lon="5.99702">
        <ele>1312.4000244</ele>
        <time>2013-04-13T05:25:38Z</time>
      </trkpt>
      <trkpt lat="45.22514" lon="5.99708">
        <ele>1312.4000244</ele>
        <time>2013-04-13T05:25:41Z</time>
      </trkpt>
      <trkpt lat="45.22513" lon="5.99714">
        <ele>1312.4000244</ele>
        <time>2013-04-13T05:25:44Z</time>
      </trkpt>
      <trkpt lat="45.22511" lon="5.9972">
        <ele>1312.8000488</ele>
        <time>2013-04-13T05:25:47Z</time>
      </trkpt>
      <trkpt lat="45.22509" lon="5.99727">
        <ele>1313.8000488</ele>
        <time>2013-04-13T05:25:50Z</time>
      </trkpt>
      <trkpt lat="45.22507" lon="5.99735">
        <ele>1314.4000244</ele>
        <time>2013-04-13T05:25:53Z</time>
      </trkpt>
      <trkpt lat="45.22505" lon="5.99742">
        <ele>1314.4000244</ele>
        <time>2013-04-13T05:25:56Z</time>
      </trkpt>
      <trkpt lat="45.22503" lon="5.99749">
        <ele>1314.8000488</ele>
        <time>2013-04-13T05:25:59Z</time>
      </trkpt>
      <trkpt lat="45.22502" lon="5.99757">
        <ele>1316</ele>
        <time>2013-04-13T05:26:02Z</time>
      </trkpt>
      <trkpt lat="45.22501" lon="5.99764">
        <ele>1316.4000244</ele>
        <time>2013-04-13T05:26:05Z</time>
      </trkpt>
      <trkpt lat="45.225" lon="5.9977">
        <ele>1316.4000244</ele>
        <time>2013-04-13T05:26:08Z</time>
      </trkpt>
      <trkpt lat="45.22498" lon="5.99777">
        <ele>1316.4000244</ele>
        <time>2013-04-13T05:26:11Z</time>
      </trkpt>
      <trkpt lat="45.22497" lon="5.99785">
        <ele>1316.4000244</ele>
        <time>2013-04-13T05:26:14Z</time>
      </trkpt>
      <trkpt lat="45.22495" lon="5.99792">
        <ele>1316.4000244</ele>
        <time>2013-04-13T05:26:17Z</time>
      </trkpt>
      <trkpt lat="45.22494" lon="5.99796">
        <ele>1317.4000244</ele>
        <time>2013-04-13T05:26:20Z</time>
      </trkpt>
      <trkpt lat="45.22491" lon="5.99804">
        <ele>1318.4000244</ele>
        <time>2013-04-13T05:26:23Z</time>
      </trkpt>
      <trkpt lat="45.22489" lon="5.9981">
        <ele>1318.4000244</ele>
        <time>2013-04-13T05:26:26Z</time>
      </trkpt>
      <trkpt lat="45.22486" lon="5.99815">
        <ele>1318.4000244</ele>
        <time>2013-04-13T05:26:29Z</time>
      </trkpt>
      <trkpt lat="45.22483" lon="5.99821">
        <ele>1318.4000244</ele>
        <time>2013-04-13T05:26:32Z</time>
      </trkpt>
      <trkpt lat="45.22479" lon="5.99826">
        <ele>1318.4000244</ele>
        <time>2013-04-13T05:26:35Z</time>
      </trkpt>
      <trkpt lat="45.22475" lon="5.9983">
        <ele>1318.4000244</ele>
        <time>2013-04-13T05:26:38Z</time>
      </trkpt>
      <trkpt lat="45.22472" lon="5.99834">
        <ele>1318.8000488</ele>
        <time>2013-04-13T05:26:41Z</time>
      </trkpt>
      <trkpt lat="45.22468" lon="5.99838">
        <ele>1320</ele>
        <time>2013-04-13T05:26:44Z</time>
      </trkpt>
      <trkpt lat="45.22464" lon="5.99841">
        <ele>1320.4000244</ele>
        <time>2013-04-13T05:26:47Z</time>
      </trkpt>
      <trkpt lat="45.22461" lon="5.99845">
        <ele>1320.4000244</ele>
        <time>2013-04-13T05:26:50Z</time>
      </trkpt>
      <trkpt lat="45.22456" lon="5.9985">
        <ele>1320.4000244</ele>
        <time>2013-04-13T05:26:53Z</time>
      </trkpt>
      <trkpt lat="45.22453" lon="5.99855">
        <ele>1321.4000244</ele>
        <time>2013-04-13T05:26:56Z</time>
      </trkpt>
      <trkpt lat="45.2245" lon="5.9986">
        <ele>1322.4000244</ele>
        <time>2013-04-13T05:26:59Z</time>
      </trkpt>
      <trkpt lat="45.22449" lon="5.99867">
        <ele>1322.8000488</ele>
        <time>2013-04-13T05:27:02Z</time>
      </trkpt>
      <trkpt lat="45.22449" lon="5.99873">
        <ele>1322.8000488</ele>
        <time>2013-04-13T05:27:05Z</time>
      </trkpt>
      <trkpt lat="45.22449" lon="5.9988">
        <ele>1322.8000488</ele>
        <time>2013-04-13T05:27:08Z</time>
      </trkpt>
      <trkpt lat="45.22449" lon="5.99885">
        <ele>1322.8000488</ele>
        <time>2013-04-13T05:27:11Z</time>
      </trkpt>
      <trkpt lat="45.22449" lon="5.99889">
        <ele>1322.8000488</ele>
        <time>2013-04-13T05:27:14Z</time>
      </trkpt>
      <trkpt lat="45.2245" lon="5.99891">
        <ele>1323.4000244</ele>
        <time>2013-04-13T05:27:17Z</time>
      </trkpt>
      <trkpt lat="45.2245" lon="5.99893">
        <ele>1324.8000488</ele>
        <time>2013-04-13T05:27:20Z</time>
      </trkpt>
      <trkpt lat="45.2245" lon="5.99895">
        <ele>1324.8000488</ele>
        <time>2013-04-13T05:27:23Z</time>
      </trkpt>
      <trkpt lat="45.2245" lon="5.99896">
        <ele>1324.8000488</ele>
        <time>2013-04-13T05:27:26Z</time>
      </trkpt>
      <trkpt lat="45.2245" lon="5.99896">
        <ele>1324.8000488</ele>
        <time>2013-04-13T05:27:29Z</time>
      </trkpt>
      <trkpt lat="45.2245" lon="5.99897">
        <ele>1324.8000488</ele>
        <time>2013-04-13T05:27:32Z</time>
      </trkpt>
      <trkpt lat="45.2245" lon="5.99898">
        <ele>1324.8000488</ele>
        <time>2013-04-13T05:27:35Z</time>
      </trkpt>
      <trkpt lat="45.2245" lon="5.99901">
        <ele>1324.8000488</ele>
        <time>2013-04-13T05:27:38Z</time>
      </trkpt>
      <trkpt lat="45.22452" lon="5.99906">
        <ele>1324.8000488</ele>
        <time>2013-04-13T05:27:41Z</time>
      </trkpt>
      <trkpt lat="45.22453" lon="5.99909">
        <ele>1325</ele>
        <time>2013-04-13T05:27:44Z</time>
      </trkpt>
      <trkpt lat="45.22454" lon="5.99912">
        <ele>1326</ele>
        <time>2013-04-13T05:27:47Z</time>
      </trkpt>
      <trkpt lat="45.22456" lon="5.99916">
        <ele>1326.8000488</ele>
        <time>2013-04-13T05:27:50Z</time>
      </trkpt>
      <trkpt lat="45.22457" lon="5.9992">
        <ele>1326.8000488</ele>
        <time>2013-04-13T05:27:53Z</time>
      </trkpt>
      <trkpt lat="45.22458" lon="5.99923">
        <ele>1328</ele>
        <time>2013-04-13T05:27:56Z</time>
      </trkpt>
      <trkpt lat="45.22459" lon="5.99928">
        <ele>1329</ele>
        <time>2013-04-13T05:27:59Z</time>
      </trkpt>
      <trkpt lat="45.22459" lon="5.99933">
        <ele>1329.8000488</ele>
        <time>2013-04-13T05:28:02Z</time>
      </trkpt>
      <trkpt lat="45.22457" lon="5.99935">
        <ele>1331</ele>
        <time>2013-04-13T05:28:05Z</time>
      </trkpt>
      <trkpt lat="45.22455" lon="5.99939">
        <ele>1331.8000488</ele>
        <time>2013-04-13T05:28:08Z</time>
      </trkpt>
      <trkpt lat="45.22455" lon="5.99944">
        <ele>1333</ele>
        <time>2013-04-13T05:28:11Z</time>
      </trkpt>
      <trkpt lat="45.22456" lon="5.99949">
        <ele>1334</ele>
        <time>2013-04-13T05:28:14Z</time>
      </trkpt>
      <trkpt lat="45.22456" lon="5.99953">
        <ele>1335</ele>
        <time>2013-04-13T05:28:17Z</time>
      </trkpt>
      <trkpt lat="45.22456" lon="5.99958">
        <ele>1335</ele>
        <time>2013-04-13T05:28:20Z</time>
      </trkpt>
      <trkpt lat="45.22456" lon="5.99962">
        <ele>1336</ele>
        <time>2013-04-13T05:28:23Z</time>
      </trkpt>
      <trkpt lat="45.22454" lon="5.99966">
        <ele>1337</ele>
        <time>2013-04-13T05:28:26Z</time>
      </trkpt>
      <trkpt lat="45.22454" lon="5.99967">
        <ele>1337</ele>
        <time>2013-04-13T05:28:29Z</time>
      </trkpt>
      <trkpt lat="45.22453" lon="5.9997">
        <ele>1337</ele>
        <time>2013-04-13T05:28:32Z</time>
      </trkpt>
      <trkpt lat="45.22454" lon="5.99977">
        <ele>1337</ele>
        <time>2013-04-13T05:28:35Z</time>
      </trkpt>
      <trkpt lat="45.22454" lon="5.99982">
        <ele>1338</ele>
        <time>2013-04-13T05:28:38Z</time>
      </trkpt>
      <trkpt lat="45.22453" lon="5.99987">
        <ele>1339</ele>
        <time>2013-04-13T05:28:41Z</time>
      </trkpt>
      <trkpt lat="45.22451" lon="5.9999">
        <ele>1339.4000244</ele>
        <time>2013-04-13T05:28:44Z</time>
      </trkpt>
      <trkpt lat="45.2245" lon="5.99994">
        <ele>1339.4000244</ele>
        <time>2013-04-13T05:28:47Z</time>
      </trkpt>
      <trkpt lat="45.22449" lon="5.99997">
        <ele>1339.8000488</ele>
        <time>2013-04-13T05:28:50Z</time>
      </trkpt>
      <trkpt lat="45.22448" lon="5.99997">
        <ele>1341</ele>
        <time>2013-04-13T05:28:53Z</time>
      </trkpt>
      <trkpt lat="45.22447" lon="5.99999">
        <ele>1341.4000244</ele>
        <time>2013-04-13T05:28:56Z</time>
      </trkpt>
      <trkpt lat="45.22445" lon="6.00002">
        <ele>1341.4000244</ele>
        <time>2013-04-13T05:28:59Z</time>
      </trkpt>
      <trkpt lat="45.22444" lon="6.00005">
        <ele>1341.4000244</ele>
        <time>2013-04-13T05:29:02Z</time>
      </trkpt>
      <trkpt lat="45.22443" lon="6.00007">
        <ele>1342</ele>
        <time>2013-04-13T05:29:05Z</time>
      </trkpt>
      <trkpt lat="45.22442" lon="6.0001">
        <ele>1343</ele>
        <time>2013-04-13T05:29:08Z</time>
      </trkpt>
      <trkpt lat="45.2244" lon="6.00013">
        <ele>1343.4000244</ele>
        <time>2013-04-13T05:29:11Z</time>
      </trkpt>
      <trkpt lat="45.22439" lon="6.00014">
        <ele>1343.4000244</ele>
        <time>2013-04-13T05:29:14Z</time>
      </trkpt>
      <trkpt lat="45.22439" lon="6.00016">
        <ele>1344.8000488</ele>
        <time>2013-04-13T05:29:17Z</time>
      </trkpt>
      <trkpt lat="45.22438" lon="6.00016">
        <ele>1345.4000244</ele>
        <time>2013-04-13T05:29:20Z</time>
      </trkpt>
      <trkpt lat="45.22438" lon="6.00016">
        <ele>1345.4000244</ele>
        <time>2013-04-13T05:29:23Z</time>
      </trkpt>
      <trkpt lat="45.22438" lon="6.00016">
        <ele>1345.4000244</ele>
        <time>2013-04-13T05:29:26Z</time>
      </trkpt>
      <trkpt lat="45.22438" lon="6.00018">
        <ele>1345.4000244</ele>
        <time>2013-04-13T05:29:29Z</time>
      </trkpt>
      <trkpt lat="45.22438" lon="6.00021">
        <ele>1345.4000244</ele>
        <time>2013-04-13T05:29:32Z</time>
      </trkpt>
      <trkpt lat="45.22438" lon="6.00024">
        <ele>1345.4000244</ele>
        <time>2013-04-13T05:29:35Z</time>
      </trkpt>
      <trkpt lat="45.22438" lon="6.00026">
        <ele>1345.4000244</ele>
        <time>2013-04-13T05:29:38Z</time>
      </trkpt>
      <trkpt lat="45.22438" lon="6.00028">
        <ele>1346</ele>
        <time>2013-04-13T05:29:41Z</time>
      </trkpt>
      <trkpt lat="45.22437" lon="6.00029">
        <ele>1347.4000244</ele>
        <time>2013-04-13T05:29:44Z</time>
      </trkpt>
      <trkpt lat="45.22437" lon="6.00033">
        <ele>1347.8000488</ele>
        <time>2013-04-13T05:29:47Z</time>
      </trkpt>
      <trkpt lat="45.22437" lon="6.00035">
        <ele>1347.8000488</ele>
        <time>2013-04-13T05:29:50Z</time>
      </trkpt>
      <trkpt lat="45.22436" lon="6.00038">
        <ele>1348</ele>
        <time>2013-04-13T05:29:53Z</time>
      </trkpt>
      <trkpt lat="45.22436" lon="6.0004">
        <ele>1349</ele>
        <time>2013-04-13T05:29:56Z</time>
      </trkpt>
      <trkpt lat="45.22434" lon="6.00041">
        <ele>1350</ele>
        <time>2013-04-13T05:29:59Z</time>
      </trkpt>
      <trkpt lat="45.22433" lon="6.00044">
        <ele>1351.4000244</ele>
        <time>2013-04-13T05:30:02Z</time>
      </trkpt>
      <trkpt lat="45.22432" lon="6.00047">
        <ele>1351.8000488</ele>
        <time>2013-04-13T05:30:05Z</time>
      </trkpt>
      <trkpt lat="45.22431" lon="6.0005">
        <ele>1352.4000244</ele>
        <time>2013-04-13T05:30:08Z</time>
      </trkpt>
      <trkpt lat="45.22431" lon="6.00053">
        <ele>1353.8000488</ele>
        <time>2013-04-13T05:30:11Z</time>
      </trkpt>
      <trkpt lat="45.22431" lon="6.00055">
        <ele>1353.8000488</ele>
        <time>2013-04-13T05:30:14Z</time>
      </trkpt>
      <trkpt lat="45.2243" lon="6.00058">
        <ele>1354</ele>
        <time>2013-04-13T05:30:17Z</time>
      </trkpt>
      <trkpt lat="45.22429" lon="6.0006">
        <ele>1355.4000244</ele>
        <time>2013-04-13T05:30:20Z</time>
      </trkpt>
      <trkpt lat="45.22428" lon="6.00064">
        <ele>1356</ele>
        <time>2013-04-13T05:30:23Z</time>
      </trkpt>
      <trkpt lat="45.22428" lon="6.00066">
        <ele>1356</ele>
        <time>2013-04-13T05:30:26Z</time>
      </trkpt>
      <trkpt lat="45.22427" lon="6.0007">
        <ele>1357</ele>
        <time>2013-04-13T05:30:29Z</time>
      </trkpt>
      <trkpt lat="45.22427" lon="6.00073">
        <ele>1358</ele>
        <time>2013-04-13T05:30:32Z</time>
      </trkpt>
      <trkpt lat="45.22426" lon="6.00075">
        <ele>1358.4000244</ele>
        <time>2013-04-13T05:30:35Z</time>
      </trkpt>
      <trkpt lat="45.22425" lon="6.00077">
        <ele>1359.8000488</ele>
        <time>2013-04-13T05:30:38Z</time>
      </trkpt>
      <trkpt lat="45.22424" lon="6.00081">
        <ele>1360</ele>
        <time>2013-04-13T05:30:41Z</time>
      </trkpt>
      <trkpt lat="45.22423" lon="6.00083">
        <ele>1361</ele>
        <time>2013-04-13T05:30:44Z</time>
      </trkpt>
      <trkpt lat="45.22421" lon="6.00086">
        <ele>1362</ele>
        <time>2013-04-13T05:30:47Z</time>
      </trkpt>
      <trkpt lat="45.2242" lon="6.00089">
        <ele>1362</ele>
        <time>2013-04-13T05:30:50Z</time>
      </trkpt>
      <trkpt lat="45.22418" lon="6.00093">
        <ele>1362</ele>
        <time>2013-04-13T05:30:53Z</time>
      </trkpt>
      <trkpt lat="45.22417" lon="6.00095">
        <ele>1363.4000244</ele>
        <time>2013-04-13T05:30:56Z</time>
      </trkpt>
      <trkpt lat="45.22416" lon="6.00098">
        <ele>1364</ele>
        <time>2013-04-13T05:30:59Z</time>
      </trkpt>
      <trkpt lat="45.22415" lon="6.00099">
        <ele>1365</ele>
        <time>2013-04-13T05:31:02Z</time>
      </trkpt>
      <trkpt lat="45.22413" lon="6.00102">
        <ele>1366</ele>
        <time>2013-04-13T05:31:05Z</time>
      </trkpt>
      <trkpt lat="45.22411" lon="6.00103">
        <ele>1366.4000244</ele>
        <time>2013-04-13T05:31:08Z</time>
      </trkpt>
      <trkpt lat="45.2241" lon="6.00106">
        <ele>1367</ele>
        <time>2013-04-13T05:31:11Z</time>
      </trkpt>
      <trkpt lat="45.22408" lon="6.00107">
        <ele>1368.4000244</ele>
        <time>2013-04-13T05:31:14Z</time>
      </trkpt>
      <trkpt lat="45.22406" lon="6.00109">
        <ele>1368.4000244</ele>
        <time>2013-04-13T05:31:17Z</time>
      </trkpt>
      <trkpt lat="45.22404" lon="6.00109">
        <ele>1369.4000244</ele>
        <time>2013-04-13T05:31:20Z</time>
      </trkpt>
      <trkpt lat="45.22402" lon="6.00112">
        <ele>1370.4000244</ele>
        <time>2013-04-13T05:31:23Z</time>
      </trkpt>
      <trkpt lat="45.22401" lon="6.00115">
        <ele>1370.4000244</ele>
        <time>2013-04-13T05:31:26Z</time>
      </trkpt>
      <trkpt lat="45.22398" lon="6.00116">
        <ele>1371.4000244</ele>
        <time>2013-04-13T05:31:29Z</time>
      </trkpt>
      <trkpt lat="45.22396" lon="6.00117">
        <ele>1372.4000244</ele>
        <time>2013-04-13T05:31:32Z</time>
      </trkpt>
      <trkpt lat="45.22393" lon="6.00119">
        <ele>1372.4000244</ele>
        <time>2013-04-13T05:31:35Z</time>
      </trkpt>
      <trkpt lat="45.22391" lon="6.0012">
        <ele>1373.8000488</ele>
        <time>2013-04-13T05:31:38Z</time>
      </trkpt>
      <trkpt lat="45.22388" lon="6.0012">
        <ele>1374.4000244</ele>
        <time>2013-04-13T05:31:41Z</time>
      </trkpt>
      <trkpt lat="45.22385" lon="6.00123">
        <ele>1375</ele>
        <time>2013-04-13T05:31:44Z</time>
      </trkpt>
      <trkpt lat="45.22383" lon="6.00124">
        <ele>1376.4000244</ele>
        <time>2013-04-13T05:31:47Z</time>
      </trkpt>
      <trkpt lat="45.22381" lon="6.00127">
        <ele>1376.4000244</ele>
        <time>2013-04-13T05:31:50Z</time>
      </trkpt>
      <trkpt lat="45.22379" lon="6.00129">
        <ele>1377</ele>
        <time>2013-04-13T05:31:53Z</time>
      </trkpt>
      <trkpt lat="45.22377" lon="6.00131">
        <ele>1378.4000244</ele>
        <time>2013-04-13T05:31:56Z</time>
      </trkpt>
      <trkpt lat="45.22377" lon="6.00133">
        <ele>1379</ele>
        <time>2013-04-13T05:31:59Z</time>
      </trkpt>
      <trkpt lat="45.22377" lon="6.00137">
        <ele>1380.4000244</ele>
        <time>2013-04-13T05:32:02Z</time>
      </trkpt>
      <trkpt lat="45.22378" lon="6.0014">
        <ele>1380.4000244</ele>
        <time>2013-04-13T05:32:05Z</time>
      </trkpt>
      <trkpt lat="45.22377" lon="6.00139">
        <ele>1380.4000244</ele>
        <time>2013-04-13T05:32:08Z</time>
      </trkpt>
      <trkpt lat="45.22377" lon="6.00139">
        <ele>1380.4000244</ele>
        <time>2013-04-13T05:32:11Z</time>
      </trkpt>
      <trkpt lat="45.22375" lon="6.00142">
        <ele>1380.4000244</ele>
        <time>2013-04-13T05:32:14Z</time>
      </trkpt>
      <trkpt lat="45.22375" lon="6.00143">
        <ele>1380.4000244</ele>
        <time>2013-04-13T05:32:17Z</time>
      </trkpt>
      <trkpt lat="45.22375" lon="6.00142">
        <ele>1380.4000244</ele>
        <time>2013-04-13T05:32:20Z</time>
      </trkpt>
      <trkpt lat="45.22373" lon="6.00148">
        <ele>1380.4000244</ele>
        <time>2013-04-13T05:32:23Z</time>
      </trkpt>
      <trkpt lat="45.22372" lon="6.00152">
        <ele>1380.4000244</ele>
        <time>2013-04-13T05:32:26Z</time>
      </trkpt>
      <trkpt lat="45.2237" lon="6.00155">
        <ele>1380.4000244</ele>
        <time>2013-04-13T05:32:29Z</time>
      </trkpt>
      <trkpt lat="45.22368" lon="6.00159">
        <ele>1380.4000244</ele>
        <time>2013-04-13T05:32:32Z</time>
      </trkpt>
      <trkpt lat="45.22366" lon="6.00164">
        <ele>1381.4000244</ele>
        <time>2013-04-13T05:32:35Z</time>
      </trkpt>
      <trkpt lat="45.22364" lon="6.00168">
        <ele>1382.8000488</ele>
        <time>2013-04-13T05:32:38Z</time>
      </trkpt>
      <trkpt lat="45.22362" lon="6.00172">
        <ele>1382.8000488</ele>
        <time>2013-04-13T05:32:41Z</time>
      </trkpt>
      <trkpt lat="45.22361" lon="6.00174">
        <ele>1382.8000488</ele>
        <time>2013-04-13T05:32:44Z</time>
      </trkpt>
      <trkpt lat="45.22359" lon="6.00176">
        <ele>1382.8000488</ele>
        <time>2013-04-13T05:32:47Z</time>
      </trkpt>
      <trkpt lat="45.22357" lon="6.00178">
        <ele>1383.4000244</ele>
        <time>2013-04-13T05:32:50Z</time>
      </trkpt>
      <trkpt lat="45.22355" lon="6.00181">
        <ele>1384.4000244</ele>
        <time>2013-04-13T05:32:53Z</time>
      </trkpt>
      <trkpt lat="45.22352" lon="6.00183">
        <ele>1384.8000488</ele>
        <time>2013-04-13T05:32:56Z</time>
      </trkpt>
      <trkpt lat="45.2235" lon="6.00186">
        <ele>1384.8000488</ele>
        <time>2013-04-13T05:32:59Z</time>
      </trkpt>
      <trkpt lat="45.22348" lon="6.00188">
        <ele>1384.8000488</ele>
        <time>2013-04-13T05:33:02Z</time>
      </trkpt>
      <trkpt lat="45.22345" lon="6.00191">
        <ele>1384.8000488</ele>
        <time>2013-04-13T05:33:05Z</time>
      </trkpt>
      <trkpt lat="45.22342" lon="6.00195">
        <ele>1384.8000488</ele>
        <time>2013-04-13T05:33:08Z</time>
      </trkpt>
      <trkpt lat="45.22339" lon="6.00198">
        <ele>1384.8000488</ele>
        <time>2013-04-13T05:33:11Z</time>
      </trkpt>
      <trkpt lat="45.22337" lon="6.00202">
        <ele>1386</ele>
        <time>2013-04-13T05:33:14Z</time>
      </trkpt>
      <trkpt lat="45.22334" lon="6.00205">
        <ele>1386.8000488</ele>
        <time>2013-04-13T05:33:17Z</time>
      </trkpt>
      <trkpt lat="45.22333" lon="6.00208">
        <ele>1386.8000488</ele>
        <time>2013-04-13T05:33:20Z</time>
      </trkpt>
      <trkpt lat="45.22329" lon="6.0021">
        <ele>1386.8000488</ele>
        <time>2013-04-13T05:33:23Z</time>
      </trkpt>
      <trkpt lat="45.22325" lon="6.00211">
        <ele>1387.4000244</ele>
        <time>2013-04-13T05:33:26Z</time>
      </trkpt>
      <trkpt lat="45.22322" lon="6.00213">
        <ele>1388.8000488</ele>
        <time>2013-04-13T05:33:29Z</time>
      </trkpt>
      <trkpt lat="45.22319" lon="6.00215">
        <ele>1389</ele>
        <time>2013-04-13T05:33:32Z</time>
      </trkpt>
      <trkpt lat="45.22318" lon="6.00215">
        <ele>1389</ele>
        <time>2013-04-13T05:33:35Z</time>
      </trkpt>
      <trkpt lat="45.22318" lon="6.00215">
        <ele>1389</ele>
        <time>2013-04-13T05:33:38Z</time>
      </trkpt>
      <trkpt lat="45.22318" lon="6.00215">
        <ele>1389</ele>
        <time>2013-04-13T05:33:41Z</time>
      </trkpt>
      <trkpt lat="45.22317" lon="6.00214">
        <ele>1389</ele>
        <time>2013-04-13T05:33:44Z</time>
      </trkpt>
      <trkpt lat="45.22317" lon="6.00215">
        <ele>1389.4000244</ele>
        <time>2013-04-13T05:33:47Z</time>
      </trkpt>
      <trkpt lat="45.22317" lon="6.00214">
        <ele>1390.4000244</ele>
        <time>2013-04-13T05:33:50Z</time>
      </trkpt>
      <trkpt lat="45.22317" lon="6.00215">
        <ele>1391</ele>
        <time>2013-04-13T05:33:53Z</time>
      </trkpt>
      <trkpt lat="45.22317" lon="6.00215">
        <ele>1391</ele>
        <time>2013-04-13T05:33:56Z</time>
      </trkpt>
      <trkpt lat="45.22317" lon="6.00215">
        <ele>1391</ele>
        <time>2013-04-13T05:33:59Z</time>
      </trkpt>
      <trkpt lat="45.22317" lon="6.00215">
        <ele>1391</ele>
        <time>2013-04-13T05:34:02Z</time>
      </trkpt>
      <trkpt lat="45.22317" lon="6.00215">
        <ele>1391</ele>
        <time>2013-04-13T05:34:05Z</time>
      </trkpt>
      <trkpt lat="45.22316" lon="6.00215">
        <ele>1391</ele>
        <time>2013-04-13T05:34:08Z</time>
      </trkpt>
      <trkpt lat="45.22316" lon="6.00215">
        <ele>1391</ele>
        <time>2013-04-13T05:34:11Z</time>
      </trkpt>
      <trkpt lat="45.22314" lon="6.00217">
        <ele>1391</ele>
        <time>2013-04-13T05:34:14Z</time>
      </trkpt>
      <trkpt lat="45.22311" lon="6.0022">
        <ele>1391</ele>
        <time>2013-04-13T05:34:17Z</time>
      </trkpt>
      <trkpt lat="45.22309" lon="6.00223">
        <ele>1391</ele>
        <time>2013-04-13T05:34:20Z</time>
      </trkpt>
      <trkpt lat="45.22307" lon="6.00228">
        <ele>1391.4000244</ele>
        <time>2013-04-13T05:34:23Z</time>
      </trkpt>
      <trkpt lat="45.22307" lon="6.00233">
        <ele>1392.4000244</ele>
        <time>2013-04-13T05:34:26Z</time>
      </trkpt>
      <trkpt lat="45.22307" lon="6.00237">
        <ele>1393.8000488</ele>
        <time>2013-04-13T05:34:29Z</time>
      </trkpt>
      <trkpt lat="45.22306" lon="6.0024">
        <ele>1395</ele>
        <time>2013-04-13T05:34:32Z</time>
      </trkpt>
      <trkpt lat="45.22306" lon="6.00245">
        <ele>1395</ele>
        <time>2013-04-13T05:34:35Z</time>
      </trkpt>
      <trkpt lat="45.22306" lon="6.00249">
        <ele>1396.8000488</ele>
        <time>2013-04-13T05:34:38Z</time>
      </trkpt>
      <trkpt lat="45.22306" lon="6.00252">
        <ele>1397.4000244</ele>
        <time>2013-04-13T05:34:41Z</time>
      </trkpt>
      <trkpt lat="45.22307" lon="6.00256">
        <ele>1398</ele>
        <time>2013-04-13T05:34:44Z</time>
      </trkpt>
      <trkpt lat="45.22308" lon="6.00259">
        <ele>1399</ele>
        <time>2013-04-13T05:34:47Z</time>
      </trkpt>
      <trkpt lat="45.2231" lon="6.00261">
        <ele>1399.4000244</ele>
        <time>2013-04-13T05:34:50Z</time>
      </trkpt>
      <trkpt lat="45.22313" lon="6.00263">
        <ele>1399.4000244</ele>
        <time>2013-04-13T05:34:53Z</time>
      </trkpt>
      <trkpt lat="45.22315" lon="6.00267">
        <ele>1401</ele>
        <time>2013-04-13T05:34:56Z</time>
      </trkpt>
      <trkpt lat="45.22316" lon="6.0027">
        <ele>1402</ele>
        <time>2013-04-13T05:34:59Z</time>
      </trkpt>
      <trkpt lat="45.22317" lon="6.00274">
        <ele>1403</ele>
        <time>2013-04-13T05:35:02Z</time>
      </trkpt>
      <trkpt lat="45.22318" lon="6.00278">
        <ele>1403.4000244</ele>
        <time>2013-04-13T05:35:05Z</time>
      </trkpt>
      <trkpt lat="45.22319" lon="6.00282">
        <ele>1404</ele>
        <time>2013-04-13T05:35:08Z</time>
      </trkpt>
      <trkpt lat="45.2232" lon="6.00287">
        <ele>1405.4000244</ele>
        <time>2013-04-13T05:35:11Z</time>
      </trkpt>
      <trkpt lat="45.2232" lon="6.00292">
        <ele>1405.4000244</ele>
        <time>2013-04-13T05:35:14Z</time>
      </trkpt>
      <trkpt lat="45.22321" lon="6.00297">
        <ele>1406.8000488</ele>
        <time>2013-04-13T05:35:17Z</time>
      </trkpt>
      <trkpt lat="45.2232" lon="6.003">
        <ele>1407.8000488</ele>
        <time>2013-04-13T05:35:20Z</time>
      </trkpt>
      <trkpt lat="45.22319" lon="6.00306">
        <ele>1407.8000488</ele>
        <time>2013-04-13T05:35:23Z</time>
      </trkpt>
      <trkpt lat="45.22319" lon="6.00312">
        <ele>1409.4000244</ele>
        <time>2013-04-13T05:35:26Z</time>
      </trkpt>
      <trkpt lat="45.2232" lon="6.00318">
        <ele>1410</ele>
        <time>2013-04-13T05:35:29Z</time>
      </trkpt>
      <trkpt lat="45.22319" lon="6.00323">
        <ele>1410.4000244</ele>
        <time>2013-04-13T05:35:32Z</time>
      </trkpt>
      <trkpt lat="45.22319" lon="6.00328">
        <ele>1411.4000244</ele>
        <time>2013-04-13T05:35:35Z</time>
      </trkpt>
      <trkpt lat="45.22319" lon="6.00332">
        <ele>1412</ele>
        <time>2013-04-13T05:35:38Z</time>
      </trkpt>
      <trkpt lat="45.22318" lon="6.00335">
        <ele>1412</ele>
        <time>2013-04-13T05:35:41Z</time>
      </trkpt>
      <trkpt lat="45.22317" lon="6.0034">
        <ele>1412</ele>
        <time>2013-04-13T05:35:44Z</time>
      </trkpt>
      <trkpt lat="45.22316" lon="6.00345">
        <ele>1412</ele>
        <time>2013-04-13T05:35:47Z</time>
      </trkpt>
      <trkpt lat="45.22316" lon="6.0035">
        <ele>1413</ele>
        <time>2013-04-13T05:35:50Z</time>
      </trkpt>
      <trkpt lat="45.22315" lon="6.00355">
        <ele>1414</ele>
        <time>2013-04-13T05:35:53Z</time>
      </trkpt>
      <trkpt lat="45.22313" lon="6.00359">
        <ele>1414.4000244</ele>
        <time>2013-04-13T05:35:56Z</time>
      </trkpt>
      <trkpt lat="45.22311" lon="6.00364">
        <ele>1415.8000488</ele>
        <time>2013-04-13T05:35:59Z</time>
      </trkpt>
      <trkpt lat="45.22311" lon="6.00369">
        <ele>1416</ele>
        <time>2013-04-13T05:36:02Z</time>
      </trkpt>
      <trkpt lat="45.22308" lon="6.00373">
        <ele>1417.4000244</ele>
        <time>2013-04-13T05:36:05Z</time>
      </trkpt>
      <trkpt lat="45.22307" lon="6.00376">
        <ele>1418</ele>
        <time>2013-04-13T05:36:08Z</time>
      </trkpt>
      <trkpt lat="45.22305" lon="6.0038">
        <ele>1418</ele>
        <time>2013-04-13T05:36:11Z</time>
      </trkpt>
      <trkpt lat="45.22303" lon="6.00383">
        <ele>1419.8000488</ele>
        <time>2013-04-13T05:36:14Z</time>
      </trkpt>
      <trkpt lat="45.22301" lon="6.00386">
        <ele>1420.4000244</ele>
        <time>2013-04-13T05:36:17Z</time>
      </trkpt>
      <trkpt lat="45.22299" lon="6.0039">
        <ele>1421</ele>
        <time>2013-04-13T05:36:20Z</time>
      </trkpt>
      <trkpt lat="45.22296" lon="6.00392">
        <ele>1422.4000244</ele>
        <time>2013-04-13T05:36:23Z</time>
      </trkpt>
      <trkpt lat="45.22294" lon="6.00394">
        <ele>1423</ele>
        <time>2013-04-13T05:36:26Z</time>
      </trkpt>
      <trkpt lat="45.22291" lon="6.00395">
        <ele>1424.4000244</ele>
        <time>2013-04-13T05:36:29Z</time>
      </trkpt>
      <trkpt lat="45.22289" lon="6.00397">
        <ele>1424.4000244</ele>
        <time>2013-04-13T05:36:32Z</time>
      </trkpt>
      <trkpt lat="45.22286" lon="6.00399">
        <ele>1425.4000244</ele>
        <time>2013-04-13T05:36:35Z</time>
      </trkpt>
      <trkpt lat="45.22283" lon="6.00401">
        <ele>1426.4000244</ele>
        <time>2013-04-13T05:36:38Z</time>
      </trkpt>
      <trkpt lat="45.22281" lon="6.00403">
        <ele>1427</ele>
        <time>2013-04-13T05:36:41Z</time>
      </trkpt>
      <trkpt lat="45.22279" lon="6.00404">
        <ele>1428.4000244</ele>
        <time>2013-04-13T05:36:44Z</time>
      </trkpt>
      <trkpt lat="45.22276" lon="6.00406">
        <ele>1428.8000488</ele>
        <time>2013-04-13T05:36:47Z</time>
      </trkpt>
      <trkpt lat="45.22274" lon="6.00408">
        <ele>1430</ele>
        <time>2013-04-13T05:36:50Z</time>
      </trkpt>
      <trkpt lat="45.22272" lon="6.0041">
        <ele>1430.8000488</ele>
        <time>2013-04-13T05:36:53Z</time>
      </trkpt>
      <trkpt lat="45.22271" lon="6.00414">
        <ele>1431</ele>
        <time>2013-04-13T05:36:56Z</time>
      </trkpt>
      <trkpt lat="45.22269" lon="6.00415">
        <ele>1432</ele>
        <time>2013-04-13T05:36:59Z</time>
      </trkpt>
      <trkpt lat="45.22266" lon="6.00415">
        <ele>1433</ele>
        <time>2013-04-13T05:37:02Z</time>
      </trkpt>
      <trkpt lat="45.22265" lon="6.00415">
        <ele>1434.4000244</ele>
        <time>2013-04-13T05:37:05Z</time>
      </trkpt>
      <trkpt lat="45.22262" lon="6.00416">
        <ele>1434.8000488</ele>
        <time>2013-04-13T05:37:08Z</time>
      </trkpt>
      <trkpt lat="45.2226" lon="6.00417">
        <ele>1435.4000244</ele>
        <time>2013-04-13T05:37:11Z</time>
      </trkpt>
      <trkpt lat="45.22258" lon="6.00417">
        <ele>1436.4000244</ele>
        <time>2013-04-13T05:37:14Z</time>
      </trkpt>
      <trkpt lat="45.22256" lon="6.00417">
        <ele>1436.8000488</ele>
        <time>2013-04-13T05:37:17Z</time>
      </trkpt>
      <trkpt lat="45.22253" lon="6.00418">
        <ele>1437.8000488</ele>
        <time>2013-04-13T05:37:20Z</time>
      </trkpt>
      <trkpt lat="45.22251" lon="6.0042">
        <ele>1439</ele>
        <time>2013-04-13T05:37:23Z</time>
      </trkpt>
      <trkpt lat="45.22251" lon="6.00422">
        <ele>1439.8000488</ele>
        <time>2013-04-13T05:37:26Z</time>
      </trkpt>
      <trkpt lat="45.2225" lon="6.00426">
        <ele>1441</ele>
        <time>2013-04-13T05:37:29Z</time>
      </trkpt>
      <trkpt lat="45.22251" lon="6.00429">
        <ele>1441</ele>
        <time>2013-04-13T05:37:32Z</time>
      </trkpt>
      <trkpt lat="45.22252" lon="6.00432">
        <ele>1442</ele>
        <time>2013-04-13T05:37:35Z</time>
      </trkpt>
      <trkpt lat="45.22254" lon="6.00436">
        <ele>1443</ele>
        <time>2013-04-13T05:37:38Z</time>
      </trkpt>
      <trkpt lat="45.22254" lon="6.00437">
        <ele>1443</ele>
        <time>2013-04-13T05:37:41Z</time>
      </trkpt>
      <trkpt lat="45.22255" lon="6.00439">
        <ele>1443.8000488</ele>
        <time>2013-04-13T05:37:44Z</time>
      </trkpt>
      <trkpt lat="45.22255" lon="6.00442">
        <ele>1444.8000488</ele>
        <time>2013-04-13T05:37:47Z</time>
      </trkpt>
      <trkpt lat="45.22254" lon="6.00446">
        <ele>1445</ele>
        <time>2013-04-13T05:37:50Z</time>
      </trkpt>
      <trkpt lat="45.22254" lon="6.00451">
        <ele>1446</ele>
        <time>2013-04-13T05:37:53Z</time>
      </trkpt>
      <trkpt lat="45.22254" lon="6.00454">
        <ele>1447</ele>
        <time>2013-04-13T05:37:56Z</time>
      </trkpt>
      <trkpt lat="45.22253" lon="6.00459">
        <ele>1447</ele>
        <time>2013-04-13T05:37:59Z</time>
      </trkpt>
      <trkpt lat="45.22253" lon="6.00463">
        <ele>1448</ele>
        <time>2013-04-13T05:38:02Z</time>
      </trkpt>
      <trkpt lat="45.22253" lon="6.00463">
        <ele>1449</ele>
        <time>2013-04-13T05:38:05Z</time>
      </trkpt>
      <trkpt lat="45.22253" lon="6.00463">
        <ele>1449.4000244</ele>
        <time>2013-04-13T05:38:08Z</time>
      </trkpt>
      <trkpt lat="45.22253" lon="6.00463">
        <ele>1449.4000244</ele>
        <time>2013-04-13T05:38:11Z</time>
      </trkpt>
      <trkpt lat="45.22253" lon="6.00462">
        <ele>1449.4000244</ele>
        <time>2013-04-13T05:38:14Z</time>
      </trkpt>
      <trkpt lat="45.22252" lon="6.00466">
        <ele>1449.4000244</ele>
        <time>2013-04-13T05:38:17Z</time>
      </trkpt>
      <trkpt lat="45.22252" lon="6.00469">
        <ele>1449.4000244</ele>
        <time>2013-04-13T05:38:20Z</time>
      </trkpt>
      <trkpt lat="45.22251" lon="6.00473">
        <ele>1450</ele>
        <time>2013-04-13T05:38:23Z</time>
      </trkpt>
      <trkpt lat="45.22252" lon="6.00477">
        <ele>1451</ele>
        <time>2013-04-13T05:38:26Z</time>
      </trkpt>
      <trkpt lat="45.22253" lon="6.00481">
        <ele>1451.8000488</ele>
        <time>2013-04-13T05:38:29Z</time>
      </trkpt>
      <trkpt lat="45.22254" lon="6.00484">
        <ele>1453</ele>
        <time>2013-04-13T05:38:32Z</time>
      </trkpt>
      <trkpt lat="45.22254" lon="6.00488">
        <ele>1453.4000244</ele>
        <time>2013-04-13T05:38:35Z</time>
      </trkpt>
      <trkpt lat="45.22253" lon="6.00491">
        <ele>1455</ele>
        <time>2013-04-13T05:38:38Z</time>
      </trkpt>
      <trkpt lat="45.2225" lon="6.00493">
        <ele>1455.4000244</ele>
        <time>2013-04-13T05:38:41Z</time>
      </trkpt>
      <trkpt lat="45.22248" lon="6.00496">
        <ele>1456.4000244</ele>
        <time>2013-04-13T05:38:44Z</time>
      </trkpt>
      <trkpt lat="45.22246" lon="6.00498">
        <ele>1457.4000244</ele>
        <time>2013-04-13T05:38:47Z</time>
      </trkpt>
      <trkpt lat="45.22244" lon="6.00498">
        <ele>1458.4000244</ele>
        <time>2013-04-13T05:38:50Z</time>
      </trkpt>
      <trkpt lat="45.2224" lon="6.00497">
        <ele>1459.4000244</ele>
        <time>2013-04-13T05:38:53Z</time>
      </trkpt>
      <trkpt lat="45.22238" lon="6.00499">
        <ele>1460</ele>
        <time>2013-04-13T05:38:56Z</time>
      </trkpt>
      <trkpt lat="45.22238" lon="6.00504">
        <ele>1461</ele>
        <time>2013-04-13T05:38:59Z</time>
      </trkpt>
      <trkpt lat="45.22239" lon="6.00508">
        <ele>1461.4000244</ele>
        <time>2013-04-13T05:39:02Z</time>
      </trkpt>
      <trkpt lat="45.2224" lon="6.00512">
        <ele>1462.8000488</ele>
        <time>2013-04-13T05:39:05Z</time>
      </trkpt>
      <trkpt lat="45.2224" lon="6.00515">
        <ele>1463.4000244</ele>
        <time>2013-04-13T05:39:08Z</time>
      </trkpt>
      <trkpt lat="45.22241" lon="6.00519">
        <ele>1464.8000488</ele>
        <time>2013-04-13T05:39:11Z</time>
      </trkpt>
      <trkpt lat="45.22242" lon="6.00522">
        <ele>1466</ele>
        <time>2013-04-13T05:39:14Z</time>
      </trkpt>
      <trkpt lat="45.22243" lon="6.00526">
        <ele>1466</ele>
        <time>2013-04-13T05:39:17Z</time>
      </trkpt>
      <trkpt lat="45.22243" lon="6.00528">
        <ele>1467.4000244</ele>
        <time>2013-04-13T05:39:20Z</time>
      </trkpt>
      <trkpt lat="45.22244" lon="6.00532">
        <ele>1468</ele>
        <time>2013-04-13T05:39:23Z</time>
      </trkpt>
      <trkpt lat="45.22243" lon="6.00534">
        <ele>1469</ele>
        <time>2013-04-13T05:39:26Z</time>
      </trkpt>
      <trkpt lat="45.22241" lon="6.00536">
        <ele>1470</ele>
        <time>2013-04-13T05:39:29Z</time>
      </trkpt>
      <trkpt lat="45.2224" lon="6.0054">
        <ele>1470</ele>
        <time>2013-04-13T05:39:32Z</time>
      </trkpt>
      <trkpt lat="45.2224" lon="6.00544">
        <ele>1471.4000244</ele>
        <time>2013-04-13T05:39:35Z</time>
      </trkpt>
      <trkpt lat="45.2224" lon="6.00547">
        <ele>1472</ele>
        <time>2013-04-13T05:39:38Z</time>
      </trkpt>
      <trkpt lat="45.2224" lon="6.00551">
        <ele>1473</ele>
        <time>2013-04-13T05:39:41Z</time>
      </trkpt>
      <trkpt lat="45.22241" lon="6.00554">
        <ele>1474</ele>
        <time>2013-04-13T05:39:44Z</time>
      </trkpt>
      <trkpt lat="45.22242" lon="6.00557">
        <ele>1475</ele>
        <time>2013-04-13T05:39:47Z</time>
      </trkpt>
      <trkpt lat="45.22244" lon="6.00561">
        <ele>1476</ele>
        <time>2013-04-13T05:39:50Z</time>
      </trkpt>
      <trkpt lat="45.22246" lon="6.00564">
        <ele>1476</ele>
        <time>2013-04-13T05:39:53Z</time>
      </trkpt>
      <trkpt lat="45.22247" lon="6.00567">
        <ele>1477</ele>
        <time>2013-04-13T05:39:56Z</time>
      </trkpt>
      <trkpt lat="45.22249" lon="6.0057">
        <ele>1478.4000244</ele>
        <time>2013-04-13T05:39:59Z</time>
      </trkpt>
      <trkpt lat="45.22251" lon="6.00574">
        <ele>1479.8000488</ele>
        <time>2013-04-13T05:40:02Z</time>
      </trkpt>
      <trkpt lat="45.22253" lon="6.00577">
        <ele>1480</ele>
        <time>2013-04-13T05:40:05Z</time>
      </trkpt>
      <trkpt lat="45.22253" lon="6.00579">
        <ele>1481.4000244</ele>
        <time>2013-04-13T05:40:08Z</time>
      </trkpt>
      <trkpt lat="45.22251" lon="6.00583">
        <ele>1482.4000244</ele>
        <time>2013-04-13T05:40:11Z</time>
      </trkpt>
      <trkpt lat="45.22251" lon="6.00586">
        <ele>1482.4000244</ele>
        <time>2013-04-13T05:40:14Z</time>
      </trkpt>
      <trkpt lat="45.2225" lon="6.00588">
        <ele>1484</ele>
        <time>2013-04-13T05:40:17Z</time>
      </trkpt>
      <trkpt lat="45.2225" lon="6.00592">
        <ele>1484.8000488</ele>
        <time>2013-04-13T05:40:20Z</time>
      </trkpt>
      <trkpt lat="45.2225" lon="6.00595">
        <ele>1486</ele>
        <time>2013-04-13T05:40:23Z</time>
      </trkpt>
      <trkpt lat="45.2225" lon="6.00598">
        <ele>1486.4000244</ele>
        <time>2013-04-13T05:40:26Z</time>
      </trkpt>
      <trkpt lat="45.2225" lon="6.00603">
        <ele>1487</ele>
        <time>2013-04-13T05:40:29Z</time>
      </trkpt>
      <trkpt lat="45.22249" lon="6.00606">
        <ele>1488.4000244</ele>
        <time>2013-04-13T05:40:32Z</time>
      </trkpt>
      <trkpt lat="45.2225" lon="6.00609">
        <ele>1488.4000244</ele>
        <time>2013-04-13T05:40:35Z</time>
      </trkpt>
      <trkpt lat="45.22251" lon="6.00612">
        <ele>1489.8000488</ele>
        <time>2013-04-13T05:40:38Z</time>
      </trkpt>
      <trkpt lat="45.22252" lon="6.00615">
        <ele>1490.4000244</ele>
        <time>2013-04-13T05:40:41Z</time>
      </trkpt>
      <trkpt lat="45.22251" lon="6.00618">
        <ele>1491</ele>
        <time>2013-04-13T05:40:44Z</time>
      </trkpt>
      <trkpt lat="45.2225" lon="6.00621">
        <ele>1492.4000244</ele>
        <time>2013-04-13T05:40:47Z</time>
      </trkpt>
      <trkpt lat="45.22249" lon="6.00624">
        <ele>1492.8000488</ele>
        <time>2013-04-13T05:40:50Z</time>
      </trkpt>
      <trkpt lat="45.22249" lon="6.00626">
        <ele>1493</ele>
        <time>2013-04-13T05:40:53Z</time>
      </trkpt>
      <trkpt lat="45.22249" lon="6.00626">
        <ele>1494</ele>
        <time>2013-04-13T05:40:56Z</time>
      </trkpt>
      <trkpt lat="45.22249" lon="6.00627">
        <ele>1494.8000488</ele>
        <time>2013-04-13T05:40:59Z</time>
      </trkpt>
      <trkpt lat="45.22249" lon="6.0063">
        <ele>1494.8000488</ele>
        <time>2013-04-13T05:41:02Z</time>
      </trkpt>
      <trkpt lat="45.22249" lon="6.00634">
        <ele>1494.8000488</ele>
        <time>2013-04-13T05:41:05Z</time>
      </trkpt>
      <trkpt lat="45.22249" lon="6.0064">
        <ele>1495.4000244</ele>
        <time>2013-04-13T05:41:08Z</time>
      </trkpt>
      <trkpt lat="45.22249" lon="6.00643">
        <ele>1496.4000244</ele>
        <time>2013-04-13T05:41:11Z</time>
      </trkpt>
      <trkpt lat="45.22249" lon="6.00647">
        <ele>1497</ele>
        <time>2013-04-13T05:41:14Z</time>
      </trkpt>
      <trkpt lat="45.22249" lon="6.0065">
        <ele>1498</ele>
        <time>2013-04-13T05:41:17Z</time>
      </trkpt>
      <trkpt lat="45.2225" lon="6.00654">
        <ele>1499</ele>
        <time>2013-04-13T05:41:20Z</time>
      </trkpt>
      <trkpt lat="45.22251" lon="6.00658">
        <ele>1499.4000244</ele>
        <time>2013-04-13T05:41:23Z</time>
      </trkpt>
      <trkpt lat="45.22251" lon="6.00661">
        <ele>1500.8000488</ele>
        <time>2013-04-13T05:41:26Z</time>
      </trkpt>
      <trkpt lat="45.22252" lon="6.00665">
        <ele>1501</ele>
        <time>2013-04-13T05:41:29Z</time>
      </trkpt>
      <trkpt lat="45.22252" lon="6.0067">
        <ele>1502.4000244</ele>
        <time>2013-04-13T05:41:32Z</time>
      </trkpt>
      <trkpt lat="45.22253" lon="6.00676">
        <ele>1503</ele>
        <time>2013-04-13T05:41:35Z</time>
      </trkpt>
      <trkpt lat="45.22252" lon="6.00684">
        <ele>1504</ele>
        <time>2013-04-13T05:41:38Z</time>
      </trkpt>
      <trkpt lat="45.22251" lon="6.00691">
        <ele>1505</ele>
        <time>2013-04-13T05:41:41Z</time>
      </trkpt>
      <trkpt lat="45.22251" lon="6.00698">
        <ele>1505</ele>
        <time>2013-04-13T05:41:44Z</time>
      </trkpt>
      <trkpt lat="45.2225" lon="6.00706">
        <ele>1506.4000244</ele>
        <time>2013-04-13T05:41:47Z</time>
      </trkpt>
      <trkpt lat="45.22249" lon="6.00714">
        <ele>1507.4000244</ele>
        <time>2013-04-13T05:41:50Z</time>
      </trkpt>
      <trkpt lat="45.22248" lon="6.00722">
        <ele>1508.4000244</ele>
        <time>2013-04-13T05:41:53Z</time>
      </trkpt>
      <trkpt lat="45.22247" lon="6.00729">
        <ele>1509.4000244</ele>
        <time>2013-04-13T05:41:56Z</time>
      </trkpt>
      <trkpt lat="45.22246" lon="6.00736">
        <ele>1509.4000244</ele>
        <time>2013-04-13T05:41:59Z</time>
      </trkpt>
      <trkpt lat="45.22244" lon="6.00743">
        <ele>1509.8000488</ele>
        <time>2013-04-13T05:42:02Z</time>
      </trkpt>
      <trkpt lat="45.22242" lon="6.00751">
        <ele>1511</ele>
        <time>2013-04-13T05:42:05Z</time>
      </trkpt>
      <trkpt lat="45.2224" lon="6.00758">
        <ele>1511.4000244</ele>
        <time>2013-04-13T05:42:08Z</time>
      </trkpt>
      <trkpt lat="45.22238" lon="6.00762">
        <ele>1512.8000488</ele>
        <time>2013-04-13T05:42:11Z</time>
      </trkpt>
      <trkpt lat="45.22238" lon="6.00766">
        <ele>1513.8000488</ele>
        <time>2013-04-13T05:42:14Z</time>
      </trkpt>
      <trkpt lat="45.22238" lon="6.00769">
        <ele>1514.8000488</ele>
        <time>2013-04-13T05:42:17Z</time>
      </trkpt>
      <trkpt lat="45.2224" lon="6.00772">
        <ele>1515.4000244</ele>
        <time>2013-04-13T05:42:20Z</time>
      </trkpt>
      <trkpt lat="45.2224" lon="6.00775">
        <ele>1516</ele>
        <time>2013-04-13T05:42:23Z</time>
      </trkpt>
      <trkpt lat="45.2224" lon="6.00779">
        <ele>1517</ele>
        <time>2013-04-13T05:42:26Z</time>
      </trkpt>
      <trkpt lat="45.2224" lon="6.00782">
        <ele>1517.4000244</ele>
        <time>2013-04-13T05:42:29Z</time>
      </trkpt>
      <trkpt lat="45.2224" lon="6.00786">
        <ele>1518</ele>
        <time>2013-04-13T05:42:32Z</time>
      </trkpt>
      <trkpt lat="45.2224" lon="6.00792">
        <ele>1519.4000244</ele>
        <time>2013-04-13T05:42:35Z</time>
      </trkpt>
      <trkpt lat="45.2224" lon="6.008">
        <ele>1519.4000244</ele>
        <time>2013-04-13T05:42:38Z</time>
      </trkpt>
      <trkpt lat="45.2224" lon="6.00806">
        <ele>1520.4000244</ele>
        <time>2013-04-13T05:42:41Z</time>
      </trkpt>
      <trkpt lat="45.22239" lon="6.0081">
        <ele>1521.4000244</ele>
        <time>2013-04-13T05:42:44Z</time>
      </trkpt>
      <trkpt lat="45.22238" lon="6.00814">
        <ele>1522.8000488</ele>
        <time>2013-04-13T05:42:47Z</time>
      </trkpt>
      <trkpt lat="45.22237" lon="6.00816">
        <ele>1523.8000488</ele>
        <time>2013-04-13T05:42:50Z</time>
      </trkpt>
      <trkpt lat="45.22236" lon="6.0082">
        <ele>1525</ele>
        <time>2013-04-13T05:42:53Z</time>
      </trkpt>
      <trkpt lat="45.22234" lon="6.00825">
        <ele>1526</ele>
        <time>2013-04-13T05:42:56Z</time>
      </trkpt>
      <trkpt lat="45.22232" lon="6.00828">
        <ele>1527.4000244</ele>
        <time>2013-04-13T05:42:59Z</time>
      </trkpt>
      <trkpt lat="45.22233" lon="6.00832">
        <ele>1528.8000488</ele>
        <time>2013-04-13T05:43:02Z</time>
      </trkpt>
      <trkpt lat="45.22234" lon="6.00837">
        <ele>1529.8000488</ele>
        <time>2013-04-13T05:43:05Z</time>
      </trkpt>
      <trkpt lat="45.22234" lon="6.00841">
        <ele>1531.4000244</ele>
        <time>2013-04-13T05:43:08Z</time>
      </trkpt>
      <trkpt lat="45.22235" lon="6.00843">
        <ele>1532.4000244</ele>
        <time>2013-04-13T05:43:11Z</time>
      </trkpt>
      <trkpt lat="45.22235" lon="6.00846">
        <ele>1532.4000244</ele>
        <time>2013-04-13T05:43:14Z</time>
      </trkpt>
      <trkpt lat="45.22237" lon="6.00849">
        <ele>1533</ele>
        <time>2013-04-13T05:43:17Z</time>
      </trkpt>
      <trkpt lat="45.22238" lon="6.00851">
        <ele>1534.4000244</ele>
        <time>2013-04-13T05:43:20Z</time>
      </trkpt>
      <trkpt lat="45.22238" lon="6.00854">
        <ele>1534.4000244</ele>
        <time>2013-04-13T05:43:23Z</time>
      </trkpt>
      <trkpt lat="45.22239" lon="6.00857">
        <ele>1535.4000244</ele>
        <time>2013-04-13T05:43:26Z</time>
      </trkpt>
      <trkpt lat="45.2224" lon="6.00859">
        <ele>1536.4000244</ele>
        <time>2013-04-13T05:43:29Z</time>
      </trkpt>
      <trkpt lat="45.22242" lon="6.00864">
        <ele>1536.4000244</ele>
        <time>2013-04-13T05:43:32Z</time>
      </trkpt>
      <trkpt lat="45.22244" lon="6.00869">
        <ele>1536.8000488</ele>
        <time>2013-04-13T05:43:35Z</time>
      </trkpt>
      <trkpt lat="45.22246" lon="6.00875">
        <ele>1538</ele>
        <time>2013-04-13T05:43:38Z</time>
      </trkpt>
      <trkpt lat="45.2225" lon="6.00879">
        <ele>1538.4000244</ele>
        <time>2013-04-13T05:43:41Z</time>
      </trkpt>
      <trkpt lat="45.22251" lon="6.00885">
        <ele>1540</ele>
        <time>2013-04-13T05:43:44Z</time>
      </trkpt>
      <trkpt lat="45.22251" lon="6.00891">
        <ele>1541</ele>
        <time>2013-04-13T05:43:47Z</time>
      </trkpt>
      <trkpt lat="45.22251" lon="6.00896">
        <ele>1542</ele>
        <time>2013-04-13T05:43:50Z</time>
      </trkpt>
      <trkpt lat="45.22251" lon="6.00901">
        <ele>1543.4000244</ele>
        <time>2013-04-13T05:43:53Z</time>
      </trkpt>
      <trkpt lat="45.22252" lon="6.00907">
        <ele>1544.4000244</ele>
        <time>2013-04-13T05:43:56Z</time>
      </trkpt>
      <trkpt lat="45.22252" lon="6.00912">
        <ele>1545.8000488</ele>
        <time>2013-04-13T05:43:59Z</time>
      </trkpt>
      <trkpt lat="45.22252" lon="6.00916">
        <ele>1547</ele>
        <time>2013-04-13T05:44:02Z</time>
      </trkpt>
      <trkpt lat="45.22251" lon="6.00921">
        <ele>1548.4000244</ele>
        <time>2013-04-13T05:44:05Z</time>
      </trkpt>
      <trkpt lat="45.2225" lon="6.00923">
        <ele>1549.8000488</ele>
        <time>2013-04-13T05:44:08Z</time>
      </trkpt>
      <trkpt lat="45.22251" lon="6.00925">
        <ele>1551</ele>
        <time>2013-04-13T05:44:11Z</time>
      </trkpt>
      <trkpt lat="45.22251" lon="6.00927">
        <ele>1551.4000244</ele>
        <time>2013-04-13T05:44:14Z</time>
      </trkpt>
      <trkpt lat="45.22252" lon="6.00929">
        <ele>1552.8000488</ele>
        <time>2013-04-13T05:44:17Z</time>
      </trkpt>
      <trkpt lat="45.22252" lon="6.00932">
        <ele>1553</ele>
        <time>2013-04-13T05:44:20Z</time>
      </trkpt>
      <trkpt lat="45.22251" lon="6.00935">
        <ele>1553</ele>
        <time>2013-04-13T05:44:23Z</time>
      </trkpt>
      <trkpt lat="45.22249" lon="6.00936">
        <ele>1554.4000244</ele>
        <time>2013-04-13T05:44:26Z</time>
      </trkpt>
      <trkpt lat="45.22248" lon="6.00937">
        <ele>1555</ele>
        <time>2013-04-13T05:44:29Z</time>
      </trkpt>
      <trkpt lat="45.22245" lon="6.00936">
        <ele>1555</ele>
        <time>2013-04-13T05:44:32Z</time>
      </trkpt>
      <trkpt lat="45.22241" lon="6.00935">
        <ele>1555.8000488</ele>
        <time>2013-04-13T05:44:35Z</time>
      </trkpt>
      <trkpt lat="45.22236" lon="6.00935">
        <ele>1557</ele>
        <time>2013-04-13T05:44:38Z</time>
      </trkpt>
      <trkpt lat="45.22237" lon="6.00942">
        <ele>1558</ele>
        <time>2013-04-13T05:44:41Z</time>
      </trkpt>
      <trkpt lat="45.22238" lon="6.00946">
        <ele>1559</ele>
        <time>2013-04-13T05:44:44Z</time>
      </trkpt>
      <trkpt lat="45.2224" lon="6.00952">
        <ele>1560.4000244</ele>
        <time>2013-04-13T05:44:47Z</time>
      </trkpt>
      <trkpt lat="45.2224" lon="6.00957">
        <ele>1561.4000244</ele>
        <time>2013-04-13T05:44:50Z</time>
      </trkpt>
      <trkpt lat="45.2224" lon="6.00962">
        <ele>1562.4000244</ele>
        <time>2013-04-13T05:44:53Z</time>
      </trkpt>
      <trkpt lat="45.2224" lon="6.00968">
        <ele>1564</ele>
        <time>2013-04-13T05:44:56Z</time>
      </trkpt>
      <trkpt lat="45.2224" lon="6.00974">
        <ele>1565.4000244</ele>
        <time>2013-04-13T05:44:59Z</time>
      </trkpt>
      <trkpt lat="45.2224" lon="6.0098">
        <ele>1566</ele>
        <time>2013-04-13T05:45:02Z</time>
      </trkpt>
      <trkpt lat="45.2224" lon="6.00986">
        <ele>1567.4000244</ele>
        <time>2013-04-13T05:45:05Z</time>
      </trkpt>
      <trkpt lat="45.2224" lon="6.00988">
        <ele>1567.8000488</ele>
        <time>2013-04-13T05:45:08Z</time>
      </trkpt>
      <trkpt lat="45.22239" lon="6.0099">
        <ele>1569</ele>
        <time>2013-04-13T05:45:11Z</time>
      </trkpt>
      <trkpt lat="45.22238" lon="6.00994">
        <ele>1570</ele>
        <time>2013-04-13T05:45:14Z</time>
      </trkpt>
      <trkpt lat="45.22237" lon="6.00996">
        <ele>1570</ele>
        <time>2013-04-13T05:45:17Z</time>
      </trkpt>
      <trkpt lat="45.22236" lon="6.00999">
        <ele>1571</ele>
        <time>2013-04-13T05:45:20Z</time>
      </trkpt>
      <trkpt lat="45.22237" lon="6.01002">
        <ele>1572</ele>
        <time>2013-04-13T05:45:23Z</time>
      </trkpt>
      <trkpt lat="45.22238" lon="6.01006">
        <ele>1572</ele>
        <time>2013-04-13T05:45:26Z</time>
      </trkpt>
      <trkpt lat="45.22238" lon="6.0101">
        <ele>1572</ele>
        <time>2013-04-13T05:45:29Z</time>
      </trkpt>
      <trkpt lat="45.22239" lon="6.01015">
        <ele>1573</ele>
        <time>2013-04-13T05:45:32Z</time>
      </trkpt>
      <trkpt lat="45.22241" lon="6.01021">
        <ele>1574</ele>
        <time>2013-04-13T05:45:35Z</time>
      </trkpt>
      <trkpt lat="45.22243" lon="6.01028">
        <ele>1574</ele>
        <time>2013-04-13T05:45:38Z</time>
      </trkpt>
      <trkpt lat="45.22241" lon="6.01034">
        <ele>1574</ele>
        <time>2013-04-13T05:45:41Z</time>
      </trkpt>
      <trkpt lat="45.22239" lon="6.01039">
        <ele>1575</ele>
        <time>2013-04-13T05:45:44Z</time>
      </trkpt>
      <trkpt lat="45.22238" lon="6.01045">
        <ele>1576</ele>
        <time>2013-04-13T05:45:47Z</time>
      </trkpt>
      <trkpt lat="45.22239" lon="6.0105">
        <ele>1576.4000244</ele>
        <time>2013-04-13T05:45:50Z</time>
      </trkpt>
      <trkpt lat="45.2224" lon="6.01057">
        <ele>1577.8000488</ele>
        <time>2013-04-13T05:45:53Z</time>
      </trkpt>
      <trkpt lat="45.22241" lon="6.01063">
        <ele>1579.4000244</ele>
        <time>2013-04-13T05:45:56Z</time>
      </trkpt>
      <trkpt lat="45.2224" lon="6.0107">
        <ele>1580.4000244</ele>
        <time>2013-04-13T05:45:59Z</time>
      </trkpt>
      <trkpt lat="45.22241" lon="6.01076">
        <ele>1580.8000488</ele>
        <time>2013-04-13T05:46:02Z</time>
      </trkpt>
      <trkpt lat="45.22242" lon="6.01081">
        <ele>1581.4000244</ele>
        <time>2013-04-13T05:46:05Z</time>
      </trkpt>
      <trkpt lat="45.22242" lon="6.01086">
        <ele>1582.4000244</ele>
        <time>2013-04-13T05:46:08Z</time>
      </trkpt>
      <trkpt lat="45.22241" lon="6.01089">
        <ele>1583.8000488</ele>
        <time>2013-04-13T05:46:11Z</time>
      </trkpt>
      <trkpt lat="45.22241" lon="6.01093">
        <ele>1584.4000244</ele>
        <time>2013-04-13T05:46:14Z</time>
      </trkpt>
      <trkpt lat="45.22242" lon="6.01097">
        <ele>1584.4000244</ele>
        <time>2013-04-13T05:46:17Z</time>
      </trkpt>
      <trkpt lat="45.22242" lon="6.011">
        <ele>1584.4000244</ele>
        <time>2013-04-13T05:46:20Z</time>
      </trkpt>
      <trkpt lat="45.22244" lon="6.01103">
        <ele>1585.4000244</ele>
        <time>2013-04-13T05:46:23Z</time>
      </trkpt>
      <trkpt lat="45.22244" lon="6.01106">
        <ele>1586.4000244</ele>
        <time>2013-04-13T05:46:26Z</time>
      </trkpt>
      <trkpt lat="45.22244" lon="6.01109">
        <ele>1586.4000244</ele>
        <time>2013-04-13T05:46:29Z</time>
      </trkpt>
      <trkpt lat="45.22244" lon="6.01112">
        <ele>1587.4000244</ele>
        <time>2013-04-13T05:46:32Z</time>
      </trkpt>
      <trkpt lat="45.22244" lon="6.01116">
        <ele>1589.4000244</ele>
        <time>2013-04-13T05:46:35Z</time>
      </trkpt>
      <trkpt lat="45.22244" lon="6.01124">
        <ele>1589.4000244</ele>
        <time>2013-04-13T05:46:38Z</time>
      </trkpt>
      <trkpt lat="45.22245" lon="6.01131">
        <ele>1589.4000244</ele>
        <time>2013-04-13T05:46:41Z</time>
      </trkpt>
      <trkpt lat="45.22244" lon="6.01139">
        <ele>1589.8000488</ele>
        <time>2013-04-13T05:46:44Z</time>
      </trkpt>
      <trkpt lat="45.22242" lon="6.01146">
        <ele>1590.8000488</ele>
        <time>2013-04-13T05:46:47Z</time>
      </trkpt>
      <trkpt lat="45.22241" lon="6.01154">
        <ele>1591.4000244</ele>
        <time>2013-04-13T05:46:50Z</time>
      </trkpt>
      <trkpt lat="45.22242" lon="6.01163">
        <ele>1591.8000488</ele>
        <time>2013-04-13T05:46:53Z</time>
      </trkpt>
      <trkpt lat="45.22244" lon="6.0117">
        <ele>1593</ele>
        <time>2013-04-13T05:46:56Z</time>
      </trkpt>
      <trkpt lat="45.22247" lon="6.01176">
        <ele>1593.4000244</ele>
        <time>2013-04-13T05:46:59Z</time>
      </trkpt>
      <trkpt lat="45.2225" lon="6.01184">
        <ele>1594.4000244</ele>
        <time>2013-04-13T05:47:02Z</time>
      </trkpt>
      <trkpt lat="45.22252" lon="6.01191">
        <ele>1595.4000244</ele>
        <time>2013-04-13T05:47:05Z</time>
      </trkpt>
      <trkpt lat="45.22252" lon="6.01197">
        <ele>1596.8000488</ele>
        <time>2013-04-13T05:47:08Z</time>
      </trkpt>
      <trkpt lat="45.22252" lon="6.012">
        <ele>1597.4000244</ele>
        <time>2013-04-13T05:47:11Z</time>
      </trkpt>
      <trkpt lat="45.22252" lon="6.01203">
        <ele>1597.4000244</ele>
        <time>2013-04-13T05:47:14Z</time>
      </trkpt>
      <trkpt lat="45.22252" lon="6.01205">
        <ele>1598</ele>
        <time>2013-04-13T05:47:17Z</time>
      </trkpt>
      <trkpt lat="45.22252" lon="6.01205">
        <ele>1599.4000244</ele>
        <time>2013-04-13T05:47:20Z</time>
      </trkpt>
      <trkpt lat="45.22252" lon="6.01205">
        <ele>1599.4000244</ele>
        <time>2013-04-13T05:47:23Z</time>
      </trkpt>
      <trkpt lat="45.22251" lon="6.01207">
        <ele>1599.4000244</ele>
        <time>2013-04-13T05:47:26Z</time>
      </trkpt>
      <trkpt lat="45.2225" lon="6.01208">
        <ele>1599.4000244</ele>
        <time>2013-04-13T05:47:29Z</time>
      </trkpt>
      <trkpt lat="45.22248" lon="6.01211">
        <ele>1599.4000244</ele>
        <time>2013-04-13T05:47:32Z</time>
      </trkpt>
      <trkpt lat="45.22247" lon="6.01215">
        <ele>1599.8000488</ele>
        <time>2013-04-13T05:47:35Z</time>
      </trkpt>
      <trkpt lat="45.22247" lon="6.01217">
        <ele>1601</ele>
        <time>2013-04-13T05:47:38Z</time>
      </trkpt>
      <trkpt lat="45.22246" lon="6.01219">
        <ele>1601.4000244</ele>
        <time>2013-04-13T05:47:41Z</time>
      </trkpt>
      <trkpt lat="45.22247" lon="6.01222">
        <ele>1601.8000488</ele>
        <time>2013-04-13T05:47:44Z</time>
      </trkpt>
      <trkpt lat="45.22247" lon="6.01225">
        <ele>1603</ele>
        <time>2013-04-13T05:47:47Z</time>
      </trkpt>
      <trkpt lat="45.22246" lon="6.01227">
        <ele>1603.4000244</ele>
        <time>2013-04-13T05:47:50Z</time>
      </trkpt>
      <trkpt lat="45.22245" lon="6.01229">
        <ele>1604</ele>
        <time>2013-04-13T05:47:53Z</time>
      </trkpt>
      <trkpt lat="45.22246" lon="6.01232">
        <ele>1605</ele>
        <time>2013-04-13T05:47:56Z</time>
      </trkpt>
      <trkpt lat="45.22247" lon="6.01234">
        <ele>1605.4000244</ele>
        <time>2013-04-13T05:47:59Z</time>
      </trkpt>
      <trkpt lat="45.22248" lon="6.01234">
        <ele>1606.4000244</ele>
        <time>2013-04-13T05:48:02Z</time>
      </trkpt>
      <trkpt lat="45.22247" lon="6.01234">
        <ele>1607.8000488</ele>
        <time>2013-04-13T05:48:05Z</time>
      </trkpt>
      <trkpt lat="45.22247" lon="6.01236">
        <ele>1607.8000488</ele>
        <time>2013-04-13T05:48:08Z</time>
      </trkpt>
      <trkpt lat="45.22246" lon="6.01239">
        <ele>1607.8000488</ele>
        <time>2013-04-13T05:48:11Z</time>
      </trkpt>
      <trkpt lat="45.22246" lon="6.01241">
        <ele>1608</ele>
        <time>2013-04-13T05:48:14Z</time>
      </trkpt>
      <trkpt lat="45.22246" lon="6.01245">
        <ele>1609</ele>
        <time>2013-04-13T05:48:17Z</time>
      </trkpt>
      <trkpt lat="45.22244" lon="6.01248">
        <ele>1609.8000488</ele>
        <time>2013-04-13T05:48:20Z</time>
      </trkpt>
      <trkpt lat="45.22243" lon="6.01252">
        <ele>1609.8000488</ele>
        <time>2013-04-13T05:48:23Z</time>
      </trkpt>
      <trkpt lat="45.22243" lon="6.01256">
        <ele>1610.8000488</ele>
        <time>2013-04-13T05:48:26Z</time>
      </trkpt>
      <trkpt lat="45.22244" lon="6.01259">
        <ele>1611.8000488</ele>
        <time>2013-04-13T05:48:29Z</time>
      </trkpt>
      <trkpt lat="45.22246" lon="6.01261">
        <ele>1612</ele>
        <time>2013-04-13T05:48:32Z</time>
      </trkpt>
      <trkpt lat="45.22246" lon="6.01264">
        <ele>1613</ele>
        <time>2013-04-13T05:48:35Z</time>
      </trkpt>
      <trkpt lat="45.22244" lon="6.01265">
        <ele>1613.8000488</ele>
        <time>2013-04-13T05:48:38Z</time>
      </trkpt>
      <trkpt lat="45.22241" lon="6.01267">
        <ele>1613.8000488</ele>
        <time>2013-04-13T05:48:41Z</time>
      </trkpt>
      <trkpt lat="45.2224" lon="6.01269">
        <ele>1615</ele>
        <time>2013-04-13T05:48:44Z</time>
      </trkpt>
      <trkpt lat="45.22238" lon="6.01275">
        <ele>1616</ele>
        <time>2013-04-13T05:48:47Z</time>
      </trkpt>
      <trkpt lat="45.22237" lon="6.01278">
        <ele>1616</ele>
        <time>2013-04-13T05:48:50Z</time>
      </trkpt>
      <trkpt lat="45.22236" lon="6.01283">
        <ele>1617</ele>
        <time>2013-04-13T05:48:53Z</time>
      </trkpt>
      <trkpt lat="45.22236" lon="6.01288">
        <ele>1618</ele>
        <time>2013-04-13T05:48:56Z</time>
      </trkpt>
      <trkpt lat="45.22237" lon="6.01291">
        <ele>1618</ele>
        <time>2013-04-13T05:48:59Z</time>
      </trkpt>
      <trkpt lat="45.22237" lon="6.01295">
        <ele>1619.4000244</ele>
        <time>2013-04-13T05:49:02Z</time>
      </trkpt>
      <trkpt lat="45.22237" lon="6.01299">
        <ele>1620</ele>
        <time>2013-04-13T05:49:05Z</time>
      </trkpt>
      <trkpt lat="45.22238" lon="6.01302">
        <ele>1620.4000244</ele>
        <time>2013-04-13T05:49:08Z</time>
      </trkpt>
      <trkpt lat="45.22239" lon="6.01306">
        <ele>1621.8000488</ele>
        <time>2013-04-13T05:49:11Z</time>
      </trkpt>
      <trkpt lat="45.22242" lon="6.01307">
        <ele>1622</ele>
        <time>2013-04-13T05:49:14Z</time>
      </trkpt>
      <trkpt lat="45.22244" lon="6.01308">
        <ele>1623</ele>
        <time>2013-04-13T05:49:17Z</time>
      </trkpt>
      <trkpt lat="45.22246" lon="6.0131">
        <ele>1624</ele>
        <time>2013-04-13T05:49:20Z</time>
      </trkpt>
      <trkpt lat="45.22248" lon="6.01313">
        <ele>1624</ele>
        <time>2013-04-13T05:49:23Z</time>
      </trkpt>
      <trkpt lat="45.22251" lon="6.01315">
        <ele>1625.4000244</ele>
        <time>2013-04-13T05:49:26Z</time>
      </trkpt>
      <trkpt lat="45.22254" lon="6.01316">
        <ele>1626</ele>
        <time>2013-04-13T05:49:29Z</time>
      </trkpt>
      <trkpt lat="45.22257" lon="6.01316">
        <ele>1626.4000244</ele>
        <time>2013-04-13T05:49:32Z</time>
      </trkpt>
      <trkpt lat="45.2226" lon="6.01317">
        <ele>1627.8000488</ele>
        <time>2013-04-13T05:49:35Z</time>
      </trkpt>
      <trkpt lat="45.22262" lon="6.01318">
        <ele>1628</ele>
        <time>2013-04-13T05:49:38Z</time>
      </trkpt>
      <trkpt lat="45.22264" lon="6.01321">
        <ele>1629</ele>
        <time>2013-04-13T05:49:41Z</time>
      </trkpt>
      <trkpt lat="45.22266" lon="6.01324">
        <ele>1630</ele>
        <time>2013-04-13T05:49:44Z</time>
      </trkpt>
      <trkpt lat="45.22268" lon="6.01324">
        <ele>1631</ele>
        <time>2013-04-13T05:49:47Z</time>
      </trkpt>
      <trkpt lat="45.2227" lon="6.01325">
        <ele>1632</ele>
        <time>2013-04-13T05:49:50Z</time>
      </trkpt>
      <trkpt lat="45.22272" lon="6.01328">
        <ele>1633.4000244</ele>
        <time>2013-04-13T05:49:53Z</time>
      </trkpt>
      <trkpt lat="45.22273" lon="6.01331">
        <ele>1634.4000244</ele>
        <time>2013-04-13T05:49:56Z</time>
      </trkpt>
      <trkpt lat="45.22275" lon="6.01333">
        <ele>1635.4000244</ele>
        <time>2013-04-13T05:49:59Z</time>
      </trkpt>
      <trkpt lat="45.22277" lon="6.01333">
        <ele>1636.8000488</ele>
        <time>2013-04-13T05:50:02Z</time>
      </trkpt>
      <trkpt lat="45.22278" lon="6.01335">
        <ele>1637.8000488</ele>
        <time>2013-04-13T05:50:05Z</time>
      </trkpt>
      <trkpt lat="45.22278" lon="6.01339">
        <ele>1638.4000244</ele>
        <time>2013-04-13T05:50:08Z</time>
      </trkpt>
      <trkpt lat="45.22278" lon="6.01344">
        <ele>1639.4000244</ele>
        <time>2013-04-13T05:50:11Z</time>
      </trkpt>
      <trkpt lat="45.22279" lon="6.01348">
        <ele>1640.4000244</ele>
        <time>2013-04-13T05:50:14Z</time>
      </trkpt>
      <trkpt lat="45.22277" lon="6.01353">
        <ele>1640.4000244</ele>
        <time>2013-04-13T05:50:17Z</time>
      </trkpt>
      <trkpt lat="45.22278" lon="6.01357">
        <ele>1640.4000244</ele>
        <time>2013-04-13T05:50:20Z</time>
      </trkpt>
      <trkpt lat="45.22278" lon="6.01362">
        <ele>1641.4000244</ele>
        <time>2013-04-13T05:50:23Z</time>
      </trkpt>
      <trkpt lat="45.22275" lon="6.01365">
        <ele>1642.4000244</ele>
        <time>2013-04-13T05:50:26Z</time>
      </trkpt>
      <trkpt lat="45.22271" lon="6.01365">
        <ele>1642.4000244</ele>
        <time>2013-04-13T05:50:29Z</time>
      </trkpt>
      <trkpt lat="45.22268" lon="6.0137">
        <ele>1642.4000244</ele>
        <time>2013-04-13T05:50:32Z</time>
      </trkpt>
      <trkpt lat="45.22265" lon="6.01374">
        <ele>1643.8000488</ele>
        <time>2013-04-13T05:50:35Z</time>
      </trkpt>
      <trkpt lat="45.22262" lon="6.01377">
        <ele>1644.8000488</ele>
        <time>2013-04-13T05:50:38Z</time>
      </trkpt>
      <trkpt lat="45.2226" lon="6.01381">
        <ele>1645.4000244</ele>
        <time>2013-04-13T05:50:41Z</time>
      </trkpt>
      <trkpt lat="45.22256" lon="6.01382">
        <ele>1646.4000244</ele>
        <time>2013-04-13T05:50:44Z</time>
      </trkpt>
      <trkpt lat="45.22252" lon="6.01384">
        <ele>1647.4000244</ele>
        <time>2013-04-13T05:50:47Z</time>
      </trkpt>
      <trkpt lat="45.22249" lon="6.01387">
        <ele>1649</ele>
        <time>2013-04-13T05:50:50Z</time>
      </trkpt>
      <trkpt lat="45.22246" lon="6.01391">
        <ele>1649</ele>
        <time>2013-04-13T05:50:53Z</time>
      </trkpt>
      <trkpt lat="45.22243" lon="6.01395">
        <ele>1649</ele>
        <time>2013-04-13T05:50:56Z</time>
      </trkpt>
      <trkpt lat="45.22241" lon="6.01398">
        <ele>1649</ele>
        <time>2013-04-13T05:50:59Z</time>
      </trkpt>
      <trkpt lat="45.2224" lon="6.01403">
        <ele>1650</ele>
        <time>2013-04-13T05:51:02Z</time>
      </trkpt>
      <trkpt lat="45.22239" lon="6.01407">
        <ele>1651</ele>
        <time>2013-04-13T05:51:05Z</time>
      </trkpt>
      <trkpt lat="45.22237" lon="6.01412">
        <ele>1651</ele>
        <time>2013-04-13T05:51:08Z</time>
      </trkpt>
      <trkpt lat="45.22237" lon="6.01416">
        <ele>1652</ele>
        <time>2013-04-13T05:51:11Z</time>
      </trkpt>
      <trkpt lat="45.22236" lon="6.0142">
        <ele>1653</ele>
        <time>2013-04-13T05:51:14Z</time>
      </trkpt>
      <trkpt lat="45.22235" lon="6.01424">
        <ele>1653.4000244</ele>
        <time>2013-04-13T05:51:17Z</time>
      </trkpt>
      <trkpt lat="45.22233" lon="6.01428">
        <ele>1654.8000488</ele>
        <time>2013-04-13T05:51:20Z</time>
      </trkpt>
      <trkpt lat="45.22232" lon="6.01433">
        <ele>1655</ele>
        <time>2013-04-13T05:51:23Z</time>
      </trkpt>
      <trkpt lat="45.22233" lon="6.01438">
        <ele>1656</ele>
        <time>2013-04-13T05:51:26Z</time>
      </trkpt>
      <trkpt lat="45.22235" lon="6.01444">
        <ele>1657</ele>
        <time>2013-04-13T05:51:29Z</time>
      </trkpt>
      <trkpt lat="45.22237" lon="6.01449">
        <ele>1657</ele>
        <time>2013-04-13T05:51:32Z</time>
      </trkpt>
      <trkpt lat="45.22238" lon="6.01454">
        <ele>1657</ele>
        <time>2013-04-13T05:51:35Z</time>
      </trkpt>
      <trkpt lat="45.22239" lon="6.01459">
        <ele>1657</ele>
        <time>2013-04-13T05:51:38Z</time>
      </trkpt>
      <trkpt lat="45.22239" lon="6.01465">
        <ele>1657</ele>
        <time>2013-04-13T05:51:41Z</time>
      </trkpt>
      <trkpt lat="45.2224" lon="6.01468">
        <ele>1658</ele>
        <time>2013-04-13T05:51:44Z</time>
      </trkpt>
      <trkpt lat="45.22241" lon="6.01474">
        <ele>1659</ele>
        <time>2013-04-13T05:51:47Z</time>
      </trkpt>
      <trkpt lat="45.22242" lon="6.0148">
        <ele>1659</ele>
        <time>2013-04-13T05:51:50Z</time>
      </trkpt>
      <trkpt lat="45.22242" lon="6.01487">
        <ele>1659</ele>
        <time>2013-04-13T05:51:53Z</time>
      </trkpt>
      <trkpt lat="45.22243" lon="6.01493">
        <ele>1659</ele>
        <time>2013-04-13T05:51:56Z</time>
      </trkpt>
      <trkpt lat="45.22243" lon="6.01498">
        <ele>1659</ele>
        <time>2013-04-13T05:51:59Z</time>
      </trkpt>
      <trkpt lat="45.22244" lon="6.01505">
        <ele>1659.4000244</ele>
        <time>2013-04-13T05:52:02Z</time>
      </trkpt>
      <trkpt lat="45.22245" lon="6.01512">
        <ele>1660.4000244</ele>
        <time>2013-04-13T05:52:05Z</time>
      </trkpt>
      <trkpt lat="45.22246" lon="6.01521">
        <ele>1661.4000244</ele>
        <time>2013-04-13T05:52:08Z</time>
      </trkpt>
      <trkpt lat="45.22247" lon="6.01527">
        <ele>1661.4000244</ele>
        <time>2013-04-13T05:52:11Z</time>
      </trkpt>
      <trkpt lat="45.22248" lon="6.01532">
        <ele>1661.4000244</ele>
        <time>2013-04-13T05:52:14Z</time>
      </trkpt>
      <trkpt lat="45.22249" lon="6.01538">
        <ele>1661.4000244</ele>
        <time>2013-04-13T05:52:17Z</time>
      </trkpt>
      <trkpt lat="45.2225" lon="6.01545">
        <ele>1661.4000244</ele>
        <time>2013-04-13T05:52:20Z</time>
      </trkpt>
      <trkpt lat="45.22251" lon="6.01552">
        <ele>1661.4000244</ele>
        <time>2013-04-13T05:52:23Z</time>
      </trkpt>
      <trkpt lat="45.22252" lon="6.01557">
        <ele>1661.4000244</ele>
        <time>2013-04-13T05:52:26Z</time>
      </trkpt>
      <trkpt lat="45.22253" lon="6.01561">
        <ele>1661.4000244</ele>
        <time>2013-04-13T05:52:29Z</time>
      </trkpt>
      <trkpt lat="45.22254" lon="6.01567">
        <ele>1661.4000244</ele>
        <time>2013-04-13T05:52:32Z</time>
      </trkpt>
      <trkpt lat="45.22255" lon="6.01573">
        <ele>1661.4000244</ele>
        <time>2013-04-13T05:52:35Z</time>
      </trkpt>
      <trkpt lat="45.22256" lon="6.0158">
        <ele>1661.4000244</ele>
        <time>2013-04-13T05:52:38Z</time>
      </trkpt>
      <trkpt lat="45.22257" lon="6.01588">
        <ele>1661.4000244</ele>
        <time>2013-04-13T05:52:41Z</time>
      </trkpt>
      <trkpt lat="45.22258" lon="6.01593">
        <ele>1661.4000244</ele>
        <time>2013-04-13T05:52:44Z</time>
      </trkpt>
      <trkpt lat="45.22259" lon="6.016">
        <ele>1661.4000244</ele>
        <time>2013-04-13T05:52:47Z</time>
      </trkpt>
      <trkpt lat="45.22259" lon="6.01606">
        <ele>1661.4000244</ele>
        <time>2013-04-13T05:52:50Z</time>
      </trkpt>
      <trkpt lat="45.2226" lon="6.01612">
        <ele>1661.4000244</ele>
        <time>2013-04-13T05:52:53Z</time>
      </trkpt>
      <trkpt lat="45.22261" lon="6.01619">
        <ele>1661.4000244</ele>
        <time>2013-04-13T05:52:56Z</time>
      </trkpt>
      <trkpt lat="45.22262" lon="6.01628">
        <ele>1661.4000244</ele>
        <time>2013-04-13T05:52:59Z</time>
      </trkpt>
      <trkpt lat="45.22262" lon="6.01635">
        <ele>1661.4000244</ele>
        <time>2013-04-13T05:53:02Z</time>
      </trkpt>
      <trkpt lat="45.22263" lon="6.01645">
        <ele>1661.4000244</ele>
        <time>2013-04-13T05:53:05Z</time>
      </trkpt>
      <trkpt lat="45.22263" lon="6.01651">
        <ele>1661.4000244</ele>
        <time>2013-04-13T05:53:08Z</time>
      </trkpt>
      <trkpt lat="45.22264" lon="6.01659">
        <ele>1661.4000244</ele>
        <time>2013-04-13T05:53:11Z</time>
      </trkpt>
      <trkpt lat="45.22265" lon="6.01667">
        <ele>1661.4000244</ele>
        <time>2013-04-13T05:53:14Z</time>
      </trkpt>
      <trkpt lat="45.22265" lon="6.01674">
        <ele>1661.4000244</ele>
        <time>2013-04-13T05:53:17Z</time>
      </trkpt>
      <trkpt lat="45.22265" lon="6.01681">
        <ele>1661</ele>
        <time>2013-04-13T05:53:20Z</time>
      </trkpt>
      <trkpt lat="45.22264" lon="6.01688">
        <ele>1660</ele>
        <time>2013-04-13T05:53:23Z</time>
      </trkpt>
      <trkpt lat="45.22264" lon="6.01694">
        <ele>1659.4000244</ele>
        <time>2013-04-13T05:53:26Z</time>
      </trkpt>
      <trkpt lat="45.22264" lon="6.01702">
        <ele>1659.4000244</ele>
        <time>2013-04-13T05:53:29Z</time>
      </trkpt>
      <trkpt lat="45.22264" lon="6.01708">
        <ele>1659.4000244</ele>
        <time>2013-04-13T05:53:32Z</time>
      </trkpt>
      <trkpt lat="45.22264" lon="6.01713">
        <ele>1659.4000244</ele>
        <time>2013-04-13T05:53:35Z</time>
      </trkpt>
      <trkpt lat="45.22264" lon="6.0172">
        <ele>1659.4000244</ele>
        <time>2013-04-13T05:53:38Z</time>
      </trkpt>
      <trkpt lat="45.22264" lon="6.01726">
        <ele>1659.4000244</ele>
        <time>2013-04-13T05:53:41Z</time>
      </trkpt>
      <trkpt lat="45.22264" lon="6.01732">
        <ele>1659.4000244</ele>
        <time>2013-04-13T05:53:44Z</time>
      </trkpt>
      <trkpt lat="45.22264" lon="6.01738">
        <ele>1659.4000244</ele>
        <time>2013-04-13T05:53:47Z</time>
      </trkpt>
      <trkpt lat="45.22265" lon="6.01743">
        <ele>1659.4000244</ele>
        <time>2013-04-13T05:53:50Z</time>
      </trkpt>
      <trkpt lat="45.22265" lon="6.01749">
        <ele>1659.4000244</ele>
        <time>2013-04-13T05:53:53Z</time>
      </trkpt>
      <trkpt lat="45.22265" lon="6.01755">
        <ele>1659.4000244</ele>
        <time>2013-04-13T05:53:56Z</time>
      </trkpt>
      <trkpt lat="45.22266" lon="6.0176">
        <ele>1659.4000244</ele>
        <time>2013-04-13T05:53:59Z</time>
      </trkpt>
      <trkpt lat="45.22266" lon="6.01766">
        <ele>1659.4000244</ele>
        <time>2013-04-13T05:54:02Z</time>
      </trkpt>
      <trkpt lat="45.22266" lon="6.01771">
        <ele>1659.4000244</ele>
        <time>2013-04-13T05:54:05Z</time>
      </trkpt>
      <trkpt lat="45.22266" lon="6.01776">
        <ele>1659.4000244</ele>
        <time>2013-04-13T05:54:08Z</time>
      </trkpt>
      <trkpt lat="45.22267" lon="6.01781">
        <ele>1659.4000244</ele>
        <time>2013-04-13T05:54:11Z</time>
      </trkpt>
      <trkpt lat="45.22268" lon="6.01785">
        <ele>1659.8000488</ele>
        <time>2013-04-13T05:54:14Z</time>
      </trkpt>
      <trkpt lat="45.22269" lon="6.01789">
        <ele>1661</ele>
        <time>2013-04-13T05:54:17Z</time>
      </trkpt>
      <trkpt lat="45.2227" lon="6.01792">
        <ele>1661.4000244</ele>
        <time>2013-04-13T05:54:20Z</time>
      </trkpt>
      <trkpt lat="45.2227" lon="6.01796">
        <ele>1662</ele>
        <time>2013-04-13T05:54:23Z</time>
      </trkpt>
      <trkpt lat="45.22271" lon="6.018">
        <ele>1663</ele>
        <time>2013-04-13T05:54:26Z</time>
      </trkpt>
      <trkpt lat="45.22272" lon="6.01805">
        <ele>1664</ele>
        <time>2013-04-13T05:54:29Z</time>
      </trkpt>
      <trkpt lat="45.22271" lon="6.01809">
        <ele>1665.4000244</ele>
        <time>2013-04-13T05:54:32Z</time>
      </trkpt>
      <trkpt lat="45.22271" lon="6.01812">
        <ele>1665.8000488</ele>
        <time>2013-04-13T05:54:35Z</time>
      </trkpt>
      <trkpt lat="45.22272" lon="6.01816">
        <ele>1666.8000488</ele>
        <time>2013-04-13T05:54:38Z</time>
      </trkpt>
      <trkpt lat="45.22272" lon="6.0182">
        <ele>1667.8000488</ele>
        <time>2013-04-13T05:54:41Z</time>
      </trkpt>
      <trkpt lat="45.22271" lon="6.01823">
        <ele>1668</ele>
        <time>2013-04-13T05:54:44Z</time>
      </trkpt>
      <trkpt lat="45.22269" lon="6.01824">
        <ele>1669</ele>
        <time>2013-04-13T05:54:47Z</time>
      </trkpt>
      <trkpt lat="45.22267" lon="6.01825">
        <ele>1669.8000488</ele>
        <time>2013-04-13T05:54:50Z</time>
      </trkpt>
      <trkpt lat="45.22264" lon="6.01825">
        <ele>1670</ele>
        <time>2013-04-13T05:54:53Z</time>
      </trkpt>
      <trkpt lat="45.22262" lon="6.01829">
        <ele>1671</ele>
        <time>2013-04-13T05:54:56Z</time>
      </trkpt>
      <trkpt lat="45.22261" lon="6.01832">
        <ele>1672</ele>
        <time>2013-04-13T05:54:59Z</time>
      </trkpt>
      <trkpt lat="45.2226" lon="6.01837">
        <ele>1673</ele>
        <time>2013-04-13T05:55:02Z</time>
      </trkpt>
      <trkpt lat="45.22259" lon="6.01841">
        <ele>1674</ele>
        <time>2013-04-13T05:55:05Z</time>
      </trkpt>
      <trkpt lat="45.22258" lon="6.01846">
        <ele>1674</ele>
        <time>2013-04-13T05:55:08Z</time>
      </trkpt>
      <trkpt lat="45.22257" lon="6.01851">
        <ele>1674</ele>
        <time>2013-04-13T05:55:11Z</time>
      </trkpt>
      <trkpt lat="45.22256" lon="6.01856">
        <ele>1674.4000244</ele>
        <time>2013-04-13T05:55:14Z</time>
      </trkpt>
      <trkpt lat="45.22256" lon="6.01861">
        <ele>1675.8000488</ele>
        <time>2013-04-13T05:55:17Z</time>
      </trkpt>
      <trkpt lat="45.22256" lon="6.01867">
        <ele>1676</ele>
        <time>2013-04-13T05:55:20Z</time>
      </trkpt>
      <trkpt lat="45.22256" lon="6.01872">
        <ele>1676</ele>
        <time>2013-04-13T05:55:23Z</time>
      </trkpt>
      <trkpt lat="45.22257" lon="6.01876">
        <ele>1676</ele>
        <time>2013-04-13T05:55:26Z</time>
      </trkpt>
      <trkpt lat="45.22257" lon="6.01879">
        <ele>1676</ele>
        <time>2013-04-13T05:55:29Z</time>
      </trkpt>
      <trkpt lat="45.22257" lon="6.01879">
        <ele>1676</ele>
        <time>2013-04-13T05:55:32Z</time>
      </trkpt>
      <trkpt lat="45.22257" lon="6.0188">
        <ele>1676</ele>
        <time>2013-04-13T05:55:35Z</time>
      </trkpt>
      <trkpt lat="45.22257" lon="6.0188">
        <ele>1676</ele>
        <time>2013-04-13T05:55:38Z</time>
      </trkpt>
      <trkpt lat="45.22257" lon="6.0188">
        <ele>1676</ele>
        <time>2013-04-13T05:55:41Z</time>
      </trkpt>
      <trkpt lat="45.22257" lon="6.0188">
        <ele>1676</ele>
        <time>2013-04-13T05:55:44Z</time>
      </trkpt>
      <trkpt lat="45.22257" lon="6.0188">
        <ele>1676</ele>
        <time>2013-04-13T05:55:47Z</time>
      </trkpt>
      <trkpt lat="45.22257" lon="6.01883">
        <ele>1676</ele>
        <time>2013-04-13T05:55:50Z</time>
      </trkpt>
      <trkpt lat="45.22257" lon="6.01887">
        <ele>1676</ele>
        <time>2013-04-13T05:55:53Z</time>
      </trkpt>
      <trkpt lat="45.22256" lon="6.01891">
        <ele>1676</ele>
        <time>2013-04-13T05:55:56Z</time>
      </trkpt>
      <trkpt lat="45.22256" lon="6.01896">
        <ele>1676</ele>
        <time>2013-04-13T05:55:59Z</time>
      </trkpt>
      <trkpt lat="45.22256" lon="6.01901">
        <ele>1677</ele>
        <time>2013-04-13T05:56:02Z</time>
      </trkpt>
      <trkpt lat="45.22257" lon="6.01907">
        <ele>1678</ele>
        <time>2013-04-13T05:56:05Z</time>
      </trkpt>
      <trkpt lat="45.22257" lon="6.01912">
        <ele>1678</ele>
        <time>2013-04-13T05:56:08Z</time>
      </trkpt>
      <trkpt lat="45.22257" lon="6.01917">
        <ele>1678</ele>
        <time>2013-04-13T05:56:11Z</time>
      </trkpt>
      <trkpt lat="45.22258" lon="6.01923">
        <ele>1679</ele>
        <time>2013-04-13T05:56:14Z</time>
      </trkpt>
      <trkpt lat="45.22259" lon="6.01928">
        <ele>1680</ele>
        <time>2013-04-13T05:56:17Z</time>
      </trkpt>
      <trkpt lat="45.22259" lon="6.01931">
        <ele>1680.4000244</ele>
        <time>2013-04-13T05:56:20Z</time>
      </trkpt>
      <trkpt lat="45.2226" lon="6.01937">
        <ele>1680.4000244</ele>
        <time>2013-04-13T05:56:23Z</time>
      </trkpt>
      <trkpt lat="45.2226" lon="6.01941">
        <ele>1681.8000488</ele>
        <time>2013-04-13T05:56:26Z</time>
      </trkpt>
      <trkpt lat="45.2226" lon="6.01945">
        <ele>1682.4000244</ele>
        <time>2013-04-13T05:56:29Z</time>
      </trkpt>
      <trkpt lat="45.22259" lon="6.01951">
        <ele>1682.8000488</ele>
        <time>2013-04-13T05:56:32Z</time>
      </trkpt>
      <trkpt lat="45.22258" lon="6.01957">
        <ele>1684</ele>
        <time>2013-04-13T05:56:35Z</time>
      </trkpt>
      <trkpt lat="45.22259" lon="6.01962">
        <ele>1684.8000488</ele>
        <time>2013-04-13T05:56:38Z</time>
      </trkpt>
      <trkpt lat="45.2226" lon="6.01968">
        <ele>1684.8000488</ele>
        <time>2013-04-13T05:56:41Z</time>
      </trkpt>
      <trkpt lat="45.2226" lon="6.01973">
        <ele>1684.8000488</ele>
        <time>2013-04-13T05:56:44Z</time>
      </trkpt>
      <trkpt lat="45.2226" lon="6.0198">
        <ele>1684.8000488</ele>
        <time>2013-04-13T05:56:47Z</time>
      </trkpt>
      <trkpt lat="45.22259" lon="6.01985">
        <ele>1684.8000488</ele>
        <time>2013-04-13T05:56:50Z</time>
      </trkpt>
      <trkpt lat="45.22258" lon="6.01991">
        <ele>1684.8000488</ele>
        <time>2013-04-13T05:56:53Z</time>
      </trkpt>
      <trkpt lat="45.22257" lon="6.01995">
        <ele>1684.8000488</ele>
        <time>2013-04-13T05:56:56Z</time>
      </trkpt>
      <trkpt lat="45.22256" lon="6.02">
        <ele>1684.8000488</ele>
        <time>2013-04-13T05:56:59Z</time>
      </trkpt>
      <trkpt lat="45.22255" lon="6.02004">
        <ele>1684.8000488</ele>
        <time>2013-04-13T05:57:02Z</time>
      </trkpt>
      <trkpt lat="45.22254" lon="6.02008">
        <ele>1685</ele>
        <time>2013-04-13T05:57:05Z</time>
      </trkpt>
      <trkpt lat="45.22253" lon="6.02012">
        <ele>1686.4000244</ele>
        <time>2013-04-13T05:57:08Z</time>
      </trkpt>
      <trkpt lat="45.22253" lon="6.02017">
        <ele>1686.8000488</ele>
        <time>2013-04-13T05:57:11Z</time>
      </trkpt>
      <trkpt lat="45.22252" lon="6.0202">
        <ele>1686.8000488</ele>
        <time>2013-04-13T05:57:14Z</time>
      </trkpt>
      <trkpt lat="45.22252" lon="6.02025">
        <ele>1688</ele>
        <time>2013-04-13T05:57:17Z</time>
      </trkpt>
      <trkpt lat="45.22252" lon="6.02029">
        <ele>1689</ele>
        <time>2013-04-13T05:57:20Z</time>
      </trkpt>
      <trkpt lat="45.22252" lon="6.02033">
        <ele>1689</ele>
        <time>2013-04-13T05:57:23Z</time>
      </trkpt>
      <trkpt lat="45.22252" lon="6.02037">
        <ele>1689</ele>
        <time>2013-04-13T05:57:26Z</time>
      </trkpt>
      <trkpt lat="45.22253" lon="6.02041">
        <ele>1690.4000244</ele>
        <time>2013-04-13T05:57:29Z</time>
      </trkpt>
      <trkpt lat="45.22252" lon="6.02041">
        <ele>1691</ele>
        <time>2013-04-13T05:57:32Z</time>
      </trkpt>
      <trkpt lat="45.22253" lon="6.02045">
        <ele>1691</ele>
        <time>2013-04-13T05:57:35Z</time>
      </trkpt>
      <trkpt lat="45.22253" lon="6.02049">
        <ele>1691</ele>
        <time>2013-04-13T05:57:38Z</time>
      </trkpt>
      <trkpt lat="45.22254" lon="6.02053">
        <ele>1692</ele>
        <time>2013-04-13T05:57:41Z</time>
      </trkpt>
      <trkpt lat="45.22255" lon="6.02057">
        <ele>1693</ele>
        <time>2013-04-13T05:57:44Z</time>
      </trkpt>
      <trkpt lat="45.22256" lon="6.02061">
        <ele>1693.4000244</ele>
        <time>2013-04-13T05:57:47Z</time>
      </trkpt>
      <trkpt lat="45.22257" lon="6.02065">
        <ele>1694.8000488</ele>
        <time>2013-04-13T05:57:50Z</time>
      </trkpt>
      <trkpt lat="45.22258" lon="6.02069">
        <ele>1695</ele>
        <time>2013-04-13T05:57:53Z</time>
      </trkpt>
      <trkpt lat="45.22259" lon="6.02072">
        <ele>1696.4000244</ele>
        <time>2013-04-13T05:57:56Z</time>
      </trkpt>
      <trkpt lat="45.2226" lon="6.02076">
        <ele>1697</ele>
        <time>2013-04-13T05:57:59Z</time>
      </trkpt>
      <trkpt lat="45.22261" lon="6.02079">
        <ele>1697.8000488</ele>
        <time>2013-04-13T05:58:02Z</time>
      </trkpt>
      <trkpt lat="45.22262" lon="6.02083">
        <ele>1699</ele>
        <time>2013-04-13T05:58:05Z</time>
      </trkpt>
      <trkpt lat="45.22264" lon="6.02087">
        <ele>1699</ele>
        <time>2013-04-13T05:58:08Z</time>
      </trkpt>
      <trkpt lat="45.22265" lon="6.02091">
        <ele>1700</ele>
        <time>2013-04-13T05:58:11Z</time>
      </trkpt>
      <trkpt lat="45.22266" lon="6.02094">
        <ele>1701</ele>
        <time>2013-04-13T05:58:14Z</time>
      </trkpt>
      <trkpt lat="45.22268" lon="6.02098">
        <ele>1701</ele>
        <time>2013-04-13T05:58:17Z</time>
      </trkpt>
      <trkpt lat="45.2227" lon="6.02102">
        <ele>1701</ele>
        <time>2013-04-13T05:58:20Z</time>
      </trkpt>
      <trkpt lat="45.22271" lon="6.02106">
        <ele>1702</ele>
        <time>2013-04-13T05:58:23Z</time>
      </trkpt>
      <trkpt lat="45.22273" lon="6.02111">
        <ele>1703</ele>
        <time>2013-04-13T05:58:26Z</time>
      </trkpt>
      <trkpt lat="45.22274" lon="6.02115">
        <ele>1703.4000244</ele>
        <time>2013-04-13T05:58:29Z</time>
      </trkpt>
      <trkpt lat="45.22276" lon="6.02119">
        <ele>1704.8000488</ele>
        <time>2013-04-13T05:58:32Z</time>
      </trkpt>
      <trkpt lat="45.22277" lon="6.02123">
        <ele>1705.4000244</ele>
        <time>2013-04-13T05:58:35Z</time>
      </trkpt>
      <trkpt lat="45.22278" lon="6.02127">
        <ele>1705.4000244</ele>
        <time>2013-04-13T05:58:38Z</time>
      </trkpt>
      <trkpt lat="45.22279" lon="6.02131">
        <ele>1705.4000244</ele>
        <time>2013-04-13T05:58:41Z</time>
      </trkpt>
      <trkpt lat="45.2228" lon="6.02134">
        <ele>1706.4000244</ele>
        <time>2013-04-13T05:58:44Z</time>
      </trkpt>
      <trkpt lat="45.22282" lon="6.02138">
        <ele>1707.4000244</ele>
        <time>2013-04-13T05:58:47Z</time>
      </trkpt>
      <trkpt lat="45.22282" lon="6.02139">
        <ele>1707.4000244</ele>
        <time>2013-04-13T05:58:50Z</time>
      </trkpt>
      <trkpt lat="45.22282" lon="6.02139">
        <ele>1708.8000488</ele>
        <time>2013-04-13T05:58:53Z</time>
      </trkpt>
      <trkpt lat="45.22282" lon="6.02139">
        <ele>1709.4000244</ele>
        <time>2013-04-13T05:58:56Z</time>
      </trkpt>
      <trkpt lat="45.22282" lon="6.02139">
        <ele>1709.4000244</ele>
        <time>2013-04-13T05:58:59Z</time>
      </trkpt>
      <trkpt lat="45.22282" lon="6.02139">
        <ele>1709.4000244</ele>
        <time>2013-04-13T05:59:02Z</time>
      </trkpt>
      <trkpt lat="45.22282" lon="6.02139">
        <ele>1709.4000244</ele>
        <time>2013-04-13T05:59:05Z</time>
      </trkpt>
      <trkpt lat="45.22282" lon="6.02139">
        <ele>1709.4000244</ele>
        <time>2013-04-13T05:59:08Z</time>
      </trkpt>
      <trkpt lat="45.22282" lon="6.02139">
        <ele>1709.4000244</ele>
        <time>2013-04-13T05:59:11Z</time>
      </trkpt>
      <trkpt lat="45.22282" lon="6.02139">
        <ele>1709.4000244</ele>
        <time>2013-04-13T05:59:14Z</time>
      </trkpt>
      <trkpt lat="45.22282" lon="6.02139">
        <ele>1709.4000244</ele>
        <time>2013-04-13T05:59:17Z</time>
      </trkpt>
      <trkpt lat="45.22282" lon="6.02141">
        <ele>1709.4000244</ele>
        <time>2013-04-13T05:59:20Z</time>
      </trkpt>
      <trkpt lat="45.22283" lon="6.02146">
        <ele>1709.4000244</ele>
        <time>2013-04-13T05:59:23Z</time>
      </trkpt>
      <trkpt lat="45.22284" lon="6.0215">
        <ele>1709.4000244</ele>
        <time>2013-04-13T05:59:26Z</time>
      </trkpt>
      <trkpt lat="45.22286" lon="6.02154">
        <ele>1709.4000244</ele>
        <time>2013-04-13T05:59:29Z</time>
      </trkpt>
      <trkpt lat="45.22287" lon="6.02158">
        <ele>1711</ele>
        <time>2013-04-13T05:59:32Z</time>
      </trkpt>
      <trkpt lat="45.22288" lon="6.02162">
        <ele>1711.4000244</ele>
        <time>2013-04-13T05:59:35Z</time>
      </trkpt>
      <trkpt lat="45.2229" lon="6.02167">
        <ele>1712</ele>
        <time>2013-04-13T05:59:38Z</time>
      </trkpt>
      <trkpt lat="45.22292" lon="6.02171">
        <ele>1713</ele>
        <time>2013-04-13T05:59:41Z</time>
      </trkpt>
      <trkpt lat="45.22293" lon="6.02174">
        <ele>1714</ele>
        <time>2013-04-13T05:59:44Z</time>
      </trkpt>
      <trkpt lat="45.22294" lon="6.02178">
        <ele>1715</ele>
        <time>2013-04-13T05:59:47Z</time>
      </trkpt>
      <trkpt lat="45.22293" lon="6.02181">
        <ele>1715.4000244</ele>
        <time>2013-04-13T05:59:50Z</time>
      </trkpt>
      <trkpt lat="45.22292" lon="6.02185">
        <ele>1715.8000488</ele>
        <time>2013-04-13T05:59:53Z</time>
      </trkpt>
      <trkpt lat="45.22291" lon="6.02188">
        <ele>1717</ele>
        <time>2013-04-13T05:59:56Z</time>
      </trkpt>
      <trkpt lat="45.22289" lon="6.02191">
        <ele>1718</ele>
        <time>2013-04-13T05:59:59Z</time>
      </trkpt>
      <trkpt lat="45.22291" lon="6.02193">
        <ele>1719.4000244</ele>
        <time>2013-04-13T06:00:02Z</time>
      </trkpt>
      <trkpt lat="45.22294" lon="6.02195">
        <ele>1719.8000488</ele>
        <time>2013-04-13T06:00:05Z</time>
      </trkpt>
      <trkpt lat="45.22297" lon="6.02195">
        <ele>1721</ele>
        <time>2013-04-13T06:00:08Z</time>
      </trkpt>
      <trkpt lat="45.223" lon="6.02197">
        <ele>1721.8000488</ele>
        <time>2013-04-13T06:00:11Z</time>
      </trkpt>
      <trkpt lat="45.22302" lon="6.02198">
        <ele>1721.8000488</ele>
        <time>2013-04-13T06:00:14Z</time>
      </trkpt>
      <trkpt lat="45.22304" lon="6.02201">
        <ele>1722.4000244</ele>
        <time>2013-04-13T06:00:17Z</time>
      </trkpt>
      <trkpt lat="45.22306" lon="6.02203">
        <ele>1723.8000488</ele>
        <time>2013-04-13T06:00:20Z</time>
      </trkpt>
      <trkpt lat="45.22307" lon="6.02206">
        <ele>1724</ele>
        <time>2013-04-13T06:00:23Z</time>
      </trkpt>
      <trkpt lat="45.22309" lon="6.02209">
        <ele>1725.4000244</ele>
        <time>2013-04-13T06:00:26Z</time>
      </trkpt>
      <trkpt lat="45.22311" lon="6.02213">
        <ele>1726</ele>
        <time>2013-04-13T06:00:29Z</time>
      </trkpt>
      <trkpt lat="45.22312" lon="6.02216">
        <ele>1726.4000244</ele>
        <time>2013-04-13T06:00:32Z</time>
      </trkpt>
      <trkpt lat="45.22314" lon="6.02219">
        <ele>1727</ele>
        <time>2013-04-13T06:00:35Z</time>
      </trkpt>
      <trkpt lat="45.22315" lon="6.0222">
        <ele>1727.4000244</ele>
        <time>2013-04-13T06:00:38Z</time>
      </trkpt>
      <trkpt lat="45.22318" lon="6.02225">
        <ele>1728</ele>
        <time>2013-04-13T06:00:41Z</time>
      </trkpt>
      <trkpt lat="45.22319" lon="6.02229">
        <ele>1729</ele>
        <time>2013-04-13T06:00:44Z</time>
      </trkpt>
      <trkpt lat="45.22321" lon="6.02232">
        <ele>1730</ele>
        <time>2013-04-13T06:00:47Z</time>
      </trkpt>
      <trkpt lat="45.22323" lon="6.02235">
        <ele>1731</ele>
        <time>2013-04-13T06:00:50Z</time>
      </trkpt>
      <trkpt lat="45.22325" lon="6.02238">
        <ele>1732</ele>
        <time>2013-04-13T06:00:53Z</time>
      </trkpt>
      <trkpt lat="45.22328" lon="6.02241">
        <ele>1732</ele>
        <time>2013-04-13T06:00:56Z</time>
      </trkpt>
      <trkpt lat="45.22329" lon="6.02243">
        <ele>1732.4000244</ele>
        <time>2013-04-13T06:00:59Z</time>
      </trkpt>
      <trkpt lat="45.22332" lon="6.02246">
        <ele>1733.4000244</ele>
        <time>2013-04-13T06:01:02Z</time>
      </trkpt>
      <trkpt lat="45.22333" lon="6.02248">
        <ele>1734</ele>
        <time>2013-04-13T06:01:05Z</time>
      </trkpt>
      <trkpt lat="45.22336" lon="6.02252">
        <ele>1734.4000244</ele>
        <time>2013-04-13T06:01:08Z</time>
      </trkpt>
      <trkpt lat="45.22338" lon="6.02254">
        <ele>1735.8000488</ele>
        <time>2013-04-13T06:01:11Z</time>
      </trkpt>
      <trkpt lat="45.2234" lon="6.02257">
        <ele>1736</ele>
        <time>2013-04-13T06:01:14Z</time>
      </trkpt>
      <trkpt lat="45.22342" lon="6.0226">
        <ele>1736.4000244</ele>
        <time>2013-04-13T06:01:17Z</time>
      </trkpt>
      <trkpt lat="45.22345" lon="6.02263">
        <ele>1737.4000244</ele>
        <time>2013-04-13T06:01:20Z</time>
      </trkpt>
      <trkpt lat="45.22347" lon="6.02266">
        <ele>1738.4000244</ele>
        <time>2013-04-13T06:01:23Z</time>
      </trkpt>
      <trkpt lat="45.22349" lon="6.02269">
        <ele>1738.4000244</ele>
        <time>2013-04-13T06:01:26Z</time>
      </trkpt>
      <trkpt lat="45.22351" lon="6.02272">
        <ele>1739</ele>
        <time>2013-04-13T06:01:29Z</time>
      </trkpt>
      <trkpt lat="45.22353" lon="6.02275">
        <ele>1740</ele>
        <time>2013-04-13T06:01:32Z</time>
      </trkpt>
      <trkpt lat="45.22354" lon="6.02278">
        <ele>1740.4000244</ele>
        <time>2013-04-13T06:01:35Z</time>
      </trkpt>
      <trkpt lat="45.22356" lon="6.02281">
        <ele>1741.4000244</ele>
        <time>2013-04-13T06:01:38Z</time>
      </trkpt>
      <trkpt lat="45.22358" lon="6.02284">
        <ele>1742.4000244</ele>
        <time>2013-04-13T06:01:41Z</time>
      </trkpt>
      <trkpt lat="45.22359" lon="6.02287">
        <ele>1742.4000244</ele>
        <time>2013-04-13T06:01:44Z</time>
      </trkpt>
      <trkpt lat="45.2236" lon="6.0229">
        <ele>1743</ele>
        <time>2013-04-13T06:01:47Z</time>
      </trkpt>
      <trkpt lat="45.22361" lon="6.02292">
        <ele>1744.4000244</ele>
        <time>2013-04-13T06:01:50Z</time>
      </trkpt>
      <trkpt lat="45.22362" lon="6.02295">
        <ele>1745</ele>
        <time>2013-04-13T06:01:53Z</time>
      </trkpt>
      <trkpt lat="45.22363" lon="6.02298">
        <ele>1746.4000244</ele>
        <time>2013-04-13T06:01:56Z</time>
      </trkpt>
      <trkpt lat="45.22365" lon="6.02301">
        <ele>1746.8000488</ele>
        <time>2013-04-13T06:01:59Z</time>
      </trkpt>
      <trkpt lat="45.22366" lon="6.02305">
        <ele>1747.4000244</ele>
        <time>2013-04-13T06:02:02Z</time>
      </trkpt>
      <trkpt lat="45.22367" lon="6.02308">
        <ele>1748.8000488</ele>
        <time>2013-04-13T06:02:05Z</time>
      </trkpt>
      <trkpt lat="45.22368" lon="6.02311">
        <ele>1749</ele>
        <time>2013-04-13T06:02:08Z</time>
      </trkpt>
      <trkpt lat="45.22369" lon="6.02314">
        <ele>1749</ele>
        <time>2013-04-13T06:02:11Z</time>
      </trkpt>
      <trkpt lat="45.22371" lon="6.02317">
        <ele>1749.4000244</ele>
        <time>2013-04-13T06:02:14Z</time>
      </trkpt>
      <trkpt lat="45.22372" lon="6.0232">
        <ele>1750.4000244</ele>
        <time>2013-04-13T06:02:17Z</time>
      </trkpt>
      <trkpt lat="45.22373" lon="6.02323">
        <ele>1751.4000244</ele>
        <time>2013-04-13T06:02:20Z</time>
      </trkpt>
      <trkpt lat="45.22375" lon="6.02326">
        <ele>1751.4000244</ele>
        <time>2013-04-13T06:02:23Z</time>
      </trkpt>
      <trkpt lat="45.22376" lon="6.02329">
        <ele>1752.8000488</ele>
        <time>2013-04-13T06:02:26Z</time>
      </trkpt>
      <trkpt lat="45.22378" lon="6.02333">
        <ele>1753.4000244</ele>
        <time>2013-04-13T06:02:29Z</time>
      </trkpt>
      <trkpt lat="45.2238" lon="6.02336">
        <ele>1753.4000244</ele>
        <time>2013-04-13T06:02:32Z</time>
      </trkpt>
      <trkpt lat="45.22382" lon="6.02339">
        <ele>1754.8000488</ele>
        <time>2013-04-13T06:02:35Z</time>
      </trkpt>
      <trkpt lat="45.22383" lon="6.02342">
        <ele>1755.4000244</ele>
        <time>2013-04-13T06:02:38Z</time>
      </trkpt>
      <trkpt lat="45.22384" lon="6.02345">
        <ele>1755.4000244</ele>
        <time>2013-04-13T06:02:41Z</time>
      </trkpt>
      <trkpt lat="45.22385" lon="6.02349">
        <ele>1756.8000488</ele>
        <time>2013-04-13T06:02:44Z</time>
      </trkpt>
      <trkpt lat="45.22386" lon="6.02351">
        <ele>1757.4000244</ele>
        <time>2013-04-13T06:02:47Z</time>
      </trkpt>
      <trkpt lat="45.22387" lon="6.02354">
        <ele>1757.8000488</ele>
        <time>2013-04-13T06:02:50Z</time>
      </trkpt>
      <trkpt lat="45.22388" lon="6.02357">
        <ele>1759</ele>
        <time>2013-04-13T06:02:53Z</time>
      </trkpt>
      <trkpt lat="45.22389" lon="6.0236">
        <ele>1759.4000244</ele>
        <time>2013-04-13T06:02:56Z</time>
      </trkpt>
      <trkpt lat="45.2239" lon="6.02364">
        <ele>1760</ele>
        <time>2013-04-13T06:02:59Z</time>
      </trkpt>
      <trkpt lat="45.22391" lon="6.02367">
        <ele>1761</ele>
        <time>2013-04-13T06:03:02Z</time>
      </trkpt>
      <trkpt lat="45.22391" lon="6.0237">
        <ele>1761.4000244</ele>
        <time>2013-04-13T06:03:05Z</time>
      </trkpt>
      <trkpt lat="45.22392" lon="6.02373">
        <ele>1762.8000488</ele>
        <time>2013-04-13T06:03:08Z</time>
      </trkpt>
      <trkpt lat="45.22394" lon="6.02375">
        <ele>1763.8000488</ele>
        <time>2013-04-13T06:03:11Z</time>
      </trkpt>
      <trkpt lat="45.22397" lon="6.02374">
        <ele>1763.8000488</ele>
        <time>2013-04-13T06:03:14Z</time>
      </trkpt>
      <trkpt lat="45.224" lon="6.02373">
        <ele>1765</ele>
        <time>2013-04-13T06:03:17Z</time>
      </trkpt>
      <trkpt lat="45.22402" lon="6.02373">
        <ele>1766</ele>
        <time>2013-04-13T06:03:20Z</time>
      </trkpt>
      <trkpt lat="45.22405" lon="6.02372">
        <ele>1766.4000244</ele>
        <time>2013-04-13T06:03:23Z</time>
      </trkpt>
      <trkpt lat="45.22406" lon="6.02372">
        <ele>1767</ele>
        <time>2013-04-13T06:03:26Z</time>
      </trkpt>
      <trkpt lat="45.22409" lon="6.02372">
        <ele>1768</ele>
        <time>2013-04-13T06:03:29Z</time>
      </trkpt>
      <trkpt lat="45.22412" lon="6.02372">
        <ele>1769</ele>
        <time>2013-04-13T06:03:32Z</time>
      </trkpt>
      <trkpt lat="45.22414" lon="6.02372">
        <ele>1770</ele>
        <time>2013-04-13T06:03:35Z</time>
      </trkpt>
      <trkpt lat="45.22416" lon="6.02372">
        <ele>1770.4000244</ele>
        <time>2013-04-13T06:03:38Z</time>
      </trkpt>
      <trkpt lat="45.22418" lon="6.02372">
        <ele>1771.8000488</ele>
        <time>2013-04-13T06:03:41Z</time>
      </trkpt>
      <trkpt lat="45.2242" lon="6.02371">
        <ele>1772</ele>
        <time>2013-04-13T06:03:44Z</time>
      </trkpt>
      <trkpt lat="45.22422" lon="6.02372">
        <ele>1772</ele>
        <time>2013-04-13T06:03:47Z</time>
      </trkpt>
      <trkpt lat="45.22423" lon="6.02374">
        <ele>1773</ele>
        <time>2013-04-13T06:03:50Z</time>
      </trkpt>
      <trkpt lat="45.22424" lon="6.02378">
        <ele>1774</ele>
        <time>2013-04-13T06:03:53Z</time>
      </trkpt>
      <trkpt lat="45.22425" lon="6.0238">
        <ele>1774.4000244</ele>
        <time>2013-04-13T06:03:56Z</time>
      </trkpt>
      <trkpt lat="45.22426" lon="6.02383">
        <ele>1775.8000488</ele>
        <time>2013-04-13T06:03:59Z</time>
      </trkpt>
      <trkpt lat="45.22427" lon="6.02387">
        <ele>1776.4000244</ele>
        <time>2013-04-13T06:04:02Z</time>
      </trkpt>
      <trkpt lat="45.22428" lon="6.02391">
        <ele>1776.4000244</ele>
        <time>2013-04-13T06:04:05Z</time>
      </trkpt>
      <trkpt lat="45.22428" lon="6.02395">
        <ele>1777</ele>
        <time>2013-04-13T06:04:08Z</time>
      </trkpt>
      <trkpt lat="45.22429" lon="6.02399">
        <ele>1778</ele>
        <time>2013-04-13T06:04:11Z</time>
      </trkpt>
      <trkpt lat="45.2243" lon="6.02401">
        <ele>1779</ele>
        <time>2013-04-13T06:04:14Z</time>
      </trkpt>
      <trkpt lat="45.2243" lon="6.02405">
        <ele>1780</ele>
        <time>2013-04-13T06:04:17Z</time>
      </trkpt>
      <trkpt lat="45.2243" lon="6.02408">
        <ele>1780.4000244</ele>
        <time>2013-04-13T06:04:20Z</time>
      </trkpt>
      <trkpt lat="45.2243" lon="6.02412">
        <ele>1781</ele>
        <time>2013-04-13T06:04:23Z</time>
      </trkpt>
      <trkpt lat="45.2243" lon="6.02414">
        <ele>1782</ele>
        <time>2013-04-13T06:04:26Z</time>
      </trkpt>
      <trkpt lat="45.22432" lon="6.02418">
        <ele>1782.8000488</ele>
        <time>2013-04-13T06:04:29Z</time>
      </trkpt>
      <trkpt lat="45.22433" lon="6.02421">
        <ele>1782.8000488</ele>
        <time>2013-04-13T06:04:32Z</time>
      </trkpt>
      <trkpt lat="45.22435" lon="6.02424">
        <ele>1784</ele>
        <time>2013-04-13T06:04:35Z</time>
      </trkpt>
      <trkpt lat="45.22436" lon="6.02427">
        <ele>1785</ele>
        <time>2013-04-13T06:04:38Z</time>
      </trkpt>
      <trkpt lat="45.22436" lon="6.0243">
        <ele>1785.8000488</ele>
        <time>2013-04-13T06:04:41Z</time>
      </trkpt>
      <trkpt lat="45.22437" lon="6.02434">
        <ele>1787</ele>
        <time>2013-04-13T06:04:44Z</time>
      </trkpt>
      <trkpt lat="45.22438" lon="6.02436">
        <ele>1787</ele>
        <time>2013-04-13T06:04:47Z</time>
      </trkpt>
      <trkpt lat="45.22439" lon="6.02439">
        <ele>1788.4000244</ele>
        <time>2013-04-13T06:04:50Z</time>
      </trkpt>
      <trkpt lat="45.2244" lon="6.02442">
        <ele>1789</ele>
        <time>2013-04-13T06:04:53Z</time>
      </trkpt>
      <trkpt lat="45.2244" lon="6.02446">
        <ele>1789.8000488</ele>
        <time>2013-04-13T06:04:56Z</time>
      </trkpt>
      <trkpt lat="45.22441" lon="6.02448">
        <ele>1791</ele>
        <time>2013-04-13T06:04:59Z</time>
      </trkpt>
      <trkpt lat="45.22442" lon="6.02452">
        <ele>1791</ele>
        <time>2013-04-13T06:05:02Z</time>
      </trkpt>
      <trkpt lat="45.22442" lon="6.02455">
        <ele>1792.4000244</ele>
        <time>2013-04-13T06:05:05Z</time>
      </trkpt>
      <trkpt lat="45.22442" lon="6.02458">
        <ele>1793</ele>
        <time>2013-04-13T06:05:08Z</time>
      </trkpt>
      <trkpt lat="45.22443" lon="6.0246">
        <ele>1793.4000244</ele>
        <time>2013-04-13T06:05:11Z</time>
      </trkpt>
      <trkpt lat="45.22443" lon="6.02463">
        <ele>1794.4000244</ele>
        <time>2013-04-13T06:05:14Z</time>
      </trkpt>
      <trkpt lat="45.22444" lon="6.02466">
        <ele>1795</ele>
        <time>2013-04-13T06:05:17Z</time>
      </trkpt>
      <trkpt lat="45.22445" lon="6.02468">
        <ele>1795.8000488</ele>
        <time>2013-04-13T06:05:20Z</time>
      </trkpt>
      <trkpt lat="45.22447" lon="6.02471">
        <ele>1797</ele>
        <time>2013-04-13T06:05:23Z</time>
      </trkpt>
      <trkpt lat="45.2245" lon="6.02472">
        <ele>1797</ele>
        <time>2013-04-13T06:05:26Z</time>
      </trkpt>
      <trkpt lat="45.22452" lon="6.02473">
        <ele>1798</ele>
        <time>2013-04-13T06:05:29Z</time>
      </trkpt>
      <trkpt lat="45.22454" lon="6.02473">
        <ele>1799</ele>
        <time>2013-04-13T06:05:32Z</time>
      </trkpt>
      <trkpt lat="45.22456" lon="6.02472">
        <ele>1799.4000244</ele>
        <time>2013-04-13T06:05:35Z</time>
      </trkpt>
      <trkpt lat="45.22458" lon="6.02472">
        <ele>1800.4000244</ele>
        <time>2013-04-13T06:05:38Z</time>
      </trkpt>
      <trkpt lat="45.22461" lon="6.02472">
        <ele>1801.4000244</ele>
        <time>2013-04-13T06:05:41Z</time>
      </trkpt>
      <trkpt lat="45.22463" lon="6.02472">
        <ele>1802.8000488</ele>
        <time>2013-04-13T06:05:44Z</time>
      </trkpt>
      <trkpt lat="45.22465" lon="6.02472">
        <ele>1803.4000244</ele>
        <time>2013-04-13T06:05:47Z</time>
      </trkpt>
      <trkpt lat="45.22468" lon="6.02472">
        <ele>1803.8000488</ele>
        <time>2013-04-13T06:05:50Z</time>
      </trkpt>
      <trkpt lat="45.2247" lon="6.02472">
        <ele>1804.8000488</ele>
        <time>2013-04-13T06:05:53Z</time>
      </trkpt>
      <trkpt lat="45.22472" lon="6.02473">
        <ele>1805.4000244</ele>
        <time>2013-04-13T06:05:56Z</time>
      </trkpt>
      <trkpt lat="45.22473" lon="6.02474">
        <ele>1805.4000244</ele>
        <time>2013-04-13T06:05:59Z</time>
      </trkpt>
      <trkpt lat="45.22474" lon="6.02476">
        <ele>1806</ele>
        <time>2013-04-13T06:06:02Z</time>
      </trkpt>
      <trkpt lat="45.22475" lon="6.02479">
        <ele>1807</ele>
        <time>2013-04-13T06:06:05Z</time>
      </trkpt>
      <trkpt lat="45.22477" lon="6.02481">
        <ele>1808</ele>
        <time>2013-04-13T06:06:08Z</time>
      </trkpt>
      <trkpt lat="45.22479" lon="6.02481">
        <ele>1809</ele>
        <time>2013-04-13T06:06:11Z</time>
      </trkpt>
      <trkpt lat="45.22482" lon="6.0248">
        <ele>1810</ele>
        <time>2013-04-13T06:06:14Z</time>
      </trkpt>
      <trkpt lat="45.22483" lon="6.0248">
        <ele>1811.4000244</ele>
        <time>2013-04-13T06:06:17Z</time>
      </trkpt>
      <trkpt lat="45.22485" lon="6.02479">
        <ele>1811.4000244</ele>
        <time>2013-04-13T06:06:20Z</time>
      </trkpt>
      <trkpt lat="45.22487" lon="6.02479">
        <ele>1812</ele>
        <time>2013-04-13T06:06:23Z</time>
      </trkpt>
      <trkpt lat="45.22487" lon="6.02479">
        <ele>1813</ele>
        <time>2013-04-13T06:06:26Z</time>
      </trkpt>
      <trkpt lat="45.22487" lon="6.02478">
        <ele>1813.4000244</ele>
        <time>2013-04-13T06:06:29Z</time>
      </trkpt>
      <trkpt lat="45.22487" lon="6.02478">
        <ele>1813.4000244</ele>
        <time>2013-04-13T06:06:32Z</time>
      </trkpt>
      <trkpt lat="45.22487" lon="6.02478">
        <ele>1813.4000244</ele>
        <time>2013-04-13T06:06:35Z</time>
      </trkpt>
      <trkpt lat="45.22487" lon="6.02478">
        <ele>1813.4000244</ele>
        <time>2013-04-13T06:06:38Z</time>
      </trkpt>
      <trkpt lat="45.22487" lon="6.02478">
        <ele>1813.4000244</ele>
        <time>2013-04-13T06:06:41Z</time>
      </trkpt>
      <trkpt lat="45.22489" lon="6.02478">
        <ele>1813.4000244</ele>
        <time>2013-04-13T06:06:44Z</time>
      </trkpt>
      <trkpt lat="45.22491" lon="6.02479">
        <ele>1813.4000244</ele>
        <time>2013-04-13T06:06:47Z</time>
      </trkpt>
      <trkpt lat="45.22494" lon="6.02481">
        <ele>1813.4000244</ele>
        <time>2013-04-13T06:06:50Z</time>
      </trkpt>
      <trkpt lat="45.22497" lon="6.02482">
        <ele>1814.8000488</ele>
        <time>2013-04-13T06:06:53Z</time>
      </trkpt>
      <trkpt lat="45.22499" lon="6.02484">
        <ele>1815.4000244</ele>
        <time>2013-04-13T06:06:56Z</time>
      </trkpt>
      <trkpt lat="45.22501" lon="6.02486">
        <ele>1816.4000244</ele>
        <time>2013-04-13T06:06:59Z</time>
      </trkpt>
      <trkpt lat="45.22504" lon="6.02489">
        <ele>1817.8000488</ele>
        <time>2013-04-13T06:07:02Z</time>
      </trkpt>
      <trkpt lat="45.22506" lon="6.0249">
        <ele>1817.8000488</ele>
        <time>2013-04-13T06:07:05Z</time>
      </trkpt>
      <trkpt lat="45.22509" lon="6.02492">
        <ele>1818.8000488</ele>
        <time>2013-04-13T06:07:08Z</time>
      </trkpt>
      <trkpt lat="45.22512" lon="6.02493">
        <ele>1819.8000488</ele>
        <time>2013-04-13T06:07:11Z</time>
      </trkpt>
      <trkpt lat="45.22514" lon="6.02496">
        <ele>1819.8000488</ele>
        <time>2013-04-13T06:07:14Z</time>
      </trkpt>
      <trkpt lat="45.22516" lon="6.02498">
        <ele>1821</ele>
        <time>2013-04-13T06:07:17Z</time>
      </trkpt>
      <trkpt lat="45.22519" lon="6.025">
        <ele>1821.8000488</ele>
        <time>2013-04-13T06:07:20Z</time>
      </trkpt>
      <trkpt lat="45.22522" lon="6.02502">
        <ele>1821.8000488</ele>
        <time>2013-04-13T06:07:23Z</time>
      </trkpt>
      <trkpt lat="45.22525" lon="6.02505">
        <ele>1822</ele>
        <time>2013-04-13T06:07:26Z</time>
      </trkpt>
      <trkpt lat="45.22528" lon="6.02508">
        <ele>1823</ele>
        <time>2013-04-13T06:07:29Z</time>
      </trkpt>
      <trkpt lat="45.22532" lon="6.02511">
        <ele>1823.8000488</ele>
        <time>2013-04-13T06:07:32Z</time>
      </trkpt>
      <trkpt lat="45.22534" lon="6.02513">
        <ele>1823.8000488</ele>
        <time>2013-04-13T06:07:35Z</time>
      </trkpt>
      <trkpt lat="45.22537" lon="6.02517">
        <ele>1823.8000488</ele>
        <time>2013-04-13T06:07:38Z</time>
      </trkpt>
      <trkpt lat="45.2254" lon="6.0252">
        <ele>1823.8000488</ele>
        <time>2013-04-13T06:07:41Z</time>
      </trkpt>
      <trkpt lat="45.22541" lon="6.02522">
        <ele>1824.8000488</ele>
        <time>2013-04-13T06:07:44Z</time>
      </trkpt>
      <trkpt lat="45.22544" lon="6.02525">
        <ele>1825.8000488</ele>
        <time>2013-04-13T06:07:47Z</time>
      </trkpt>
      <trkpt lat="45.22546" lon="6.02529">
        <ele>1826.4000244</ele>
        <time>2013-04-13T06:07:50Z</time>
      </trkpt>
      <trkpt lat="45.22548" lon="6.02531">
        <ele>1827.4000244</ele>
        <time>2013-04-13T06:07:53Z</time>
      </trkpt>
      <trkpt lat="45.2255" lon="6.02534">
        <ele>1828</ele>
        <time>2013-04-13T06:07:56Z</time>
      </trkpt>
      <trkpt lat="45.22553" lon="6.02537">
        <ele>1828</ele>
        <time>2013-04-13T06:07:59Z</time>
      </trkpt>
      <trkpt lat="45.22554" lon="6.0254">
        <ele>1829</ele>
        <time>2013-04-13T06:08:02Z</time>
      </trkpt>
      <trkpt lat="45.22556" lon="6.02542">
        <ele>1830</ele>
        <time>2013-04-13T06:08:05Z</time>
      </trkpt>
      <trkpt lat="45.22558" lon="6.02545">
        <ele>1830.8000488</ele>
        <time>2013-04-13T06:08:08Z</time>
      </trkpt>
      <trkpt lat="45.2256" lon="6.02547">
        <ele>1831.8000488</ele>
        <time>2013-04-13T06:08:11Z</time>
      </trkpt>
      <trkpt lat="45.22563" lon="6.02549">
        <ele>1832</ele>
        <time>2013-04-13T06:08:14Z</time>
      </trkpt>
      <trkpt lat="45.22564" lon="6.02549">
        <ele>1832.4000244</ele>
        <time>2013-04-13T06:08:17Z</time>
      </trkpt>
      <trkpt lat="45.22567" lon="6.02551">
        <ele>1833.8000488</ele>
        <time>2013-04-13T06:08:20Z</time>
      </trkpt>
      <trkpt lat="45.22568" lon="6.02552">
        <ele>1834</ele>
        <time>2013-04-13T06:08:23Z</time>
      </trkpt>
      <trkpt lat="45.2257" lon="6.02553">
        <ele>1835</ele>
        <time>2013-04-13T06:08:26Z</time>
      </trkpt>
      <trkpt lat="45.22572" lon="6.02555">
        <ele>1836</ele>
        <time>2013-04-13T06:08:29Z</time>
      </trkpt>
      <trkpt lat="45.22575" lon="6.02557">
        <ele>1836</ele>
        <time>2013-04-13T06:08:32Z</time>
      </trkpt>
      <trkpt lat="45.22577" lon="6.02559">
        <ele>1836.4000244</ele>
        <time>2013-04-13T06:08:35Z</time>
      </trkpt>
      <trkpt lat="45.22579" lon="6.02561">
        <ele>1837.8000488</ele>
        <time>2013-04-13T06:08:38Z</time>
      </trkpt>
      <trkpt lat="45.22581" lon="6.02563">
        <ele>1838</ele>
        <time>2013-04-13T06:08:41Z</time>
      </trkpt>
      <trkpt lat="45.22583" lon="6.02564">
        <ele>1838.8000488</ele>
        <time>2013-04-13T06:08:44Z</time>
      </trkpt>
      <trkpt lat="45.22585" lon="6.02566">
        <ele>1840</ele>
        <time>2013-04-13T06:08:47Z</time>
      </trkpt>
      <trkpt lat="45.22587" lon="6.02568">
        <ele>1840.4000244</ele>
        <time>2013-04-13T06:08:50Z</time>
      </trkpt>
      <trkpt lat="45.22589" lon="6.02569">
        <ele>1840.8000488</ele>
        <time>2013-04-13T06:08:53Z</time>
      </trkpt>
      <trkpt lat="45.22591" lon="6.02571">
        <ele>1841.8000488</ele>
        <time>2013-04-13T06:08:56Z</time>
      </trkpt>
      <trkpt lat="45.22593" lon="6.02573">
        <ele>1842.4000244</ele>
        <time>2013-04-13T06:08:59Z</time>
      </trkpt>
      <trkpt lat="45.22596" lon="6.02574">
        <ele>1842.4000244</ele>
        <time>2013-04-13T06:09:02Z</time>
      </trkpt>
      <trkpt lat="45.22598" lon="6.02576">
        <ele>1843.8000488</ele>
        <time>2013-04-13T06:09:05Z</time>
      </trkpt>
      <trkpt lat="45.22601" lon="6.02577">
        <ele>1844.4000244</ele>
        <time>2013-04-13T06:09:08Z</time>
      </trkpt>
      <trkpt lat="45.22603" lon="6.02578">
        <ele>1844.4000244</ele>
        <time>2013-04-13T06:09:11Z</time>
      </trkpt>
      <trkpt lat="45.22605" lon="6.02578">
        <ele>1845.8000488</ele>
        <time>2013-04-13T06:09:14Z</time>
      </trkpt>
      <trkpt lat="45.22607" lon="6.02579">
        <ele>1846.4000244</ele>
        <time>2013-04-13T06:09:17Z</time>
      </trkpt>
      <trkpt lat="45.22609" lon="6.02578">
        <ele>1847</ele>
        <time>2013-04-13T06:09:20Z</time>
      </trkpt>
      <trkpt lat="45.22611" lon="6.02579">
        <ele>1848</ele>
        <time>2013-04-13T06:09:23Z</time>
      </trkpt>
      <trkpt lat="45.22614" lon="6.02578">
        <ele>1848.4000244</ele>
        <time>2013-04-13T06:09:26Z</time>
      </trkpt>
      <trkpt lat="45.22617" lon="6.02577">
        <ele>1848.4000244</ele>
        <time>2013-04-13T06:09:29Z</time>
      </trkpt>
      <trkpt lat="45.2262" lon="6.02576">
        <ele>1849</ele>
        <time>2013-04-13T06:09:32Z</time>
      </trkpt>
      <trkpt lat="45.22623" lon="6.02575">
        <ele>1850.4000244</ele>
        <time>2013-04-13T06:09:35Z</time>
      </trkpt>
      <trkpt lat="45.22626" lon="6.02573">
        <ele>1850.8000488</ele>
        <time>2013-04-13T06:09:38Z</time>
      </trkpt>
      <trkpt lat="45.22629" lon="6.02573">
        <ele>1850.8000488</ele>
        <time>2013-04-13T06:09:41Z</time>
      </trkpt>
      <trkpt lat="45.22631" lon="6.02572">
        <ele>1850.8000488</ele>
        <time>2013-04-13T06:09:44Z</time>
      </trkpt>
      <trkpt lat="45.22634" lon="6.02572">
        <ele>1851</ele>
        <time>2013-04-13T06:09:47Z</time>
      </trkpt>
      <trkpt lat="45.22637" lon="6.02571">
        <ele>1852.4000244</ele>
        <time>2013-04-13T06:09:50Z</time>
      </trkpt>
      <trkpt lat="45.22639" lon="6.02571">
        <ele>1852.8000488</ele>
        <time>2013-04-13T06:09:53Z</time>
      </trkpt>
      <trkpt lat="45.22642" lon="6.0257">
        <ele>1852.8000488</ele>
        <time>2013-04-13T06:09:56Z</time>
      </trkpt>
      <trkpt lat="45.22645" lon="6.0257">
        <ele>1853.8000488</ele>
        <time>2013-04-13T06:09:59Z</time>
      </trkpt>
      <trkpt lat="45.22648" lon="6.02569">
        <ele>1854.8000488</ele>
        <time>2013-04-13T06:10:02Z</time>
      </trkpt>
      <trkpt lat="45.22651" lon="6.02569">
        <ele>1854.8000488</ele>
        <time>2013-04-13T06:10:05Z</time>
      </trkpt>
      <trkpt lat="45.22654" lon="6.02569">
        <ele>1855</ele>
        <time>2013-04-13T06:10:08Z</time>
      </trkpt>
      <trkpt lat="45.22656" lon="6.02569">
        <ele>1856</ele>
        <time>2013-04-13T06:10:11Z</time>
      </trkpt>
      <trkpt lat="45.22658" lon="6.02569">
        <ele>1856.8000488</ele>
        <time>2013-04-13T06:10:14Z</time>
      </trkpt>
      <trkpt lat="45.22661" lon="6.02569">
        <ele>1857</ele>
        <time>2013-04-13T06:10:17Z</time>
      </trkpt>
      <trkpt lat="45.22663" lon="6.02569">
        <ele>1858.4000244</ele>
        <time>2013-04-13T06:10:20Z</time>
      </trkpt>
      <trkpt lat="45.22665" lon="6.02569">
        <ele>1858.8000488</ele>
        <time>2013-04-13T06:10:23Z</time>
      </trkpt>
      <trkpt lat="45.22668" lon="6.02569">
        <ele>1859.4000244</ele>
        <time>2013-04-13T06:10:26Z</time>
      </trkpt>
      <trkpt lat="45.22669" lon="6.02568">
        <ele>1860.4000244</ele>
        <time>2013-04-13T06:10:29Z</time>
      </trkpt>
      <trkpt lat="45.22671" lon="6.02568">
        <ele>1861</ele>
        <time>2013-04-13T06:10:32Z</time>
      </trkpt>
      <trkpt lat="45.22674" lon="6.02568">
        <ele>1861</ele>
        <time>2013-04-13T06:10:35Z</time>
      </trkpt>
      <trkpt lat="45.22676" lon="6.02568">
        <ele>1861.4000244</ele>
        <time>2013-04-13T06:10:38Z</time>
      </trkpt>
      <trkpt lat="45.22678" lon="6.02568">
        <ele>1862.4000244</ele>
        <time>2013-04-13T06:10:41Z</time>
      </trkpt>
      <trkpt lat="45.22681" lon="6.02568">
        <ele>1863</ele>
        <time>2013-04-13T06:10:44Z</time>
      </trkpt>
      <trkpt lat="45.22683" lon="6.02567">
        <ele>1863</ele>
        <time>2013-04-13T06:10:47Z</time>
      </trkpt>
      <trkpt lat="45.22685" lon="6.02567">
        <ele>1864.4000244</ele>
        <time>2013-04-13T06:10:50Z</time>
      </trkpt>
      <trkpt lat="45.22687" lon="6.02567">
        <ele>1865</ele>
        <time>2013-04-13T06:10:53Z</time>
      </trkpt>
      <trkpt lat="45.2269" lon="6.02567">
        <ele>1866</ele>
        <time>2013-04-13T06:10:56Z</time>
      </trkpt>
      <trkpt lat="45.22692" lon="6.02567">
        <ele>1867</ele>
        <time>2013-04-13T06:10:59Z</time>
      </trkpt>
      <trkpt lat="45.22695" lon="6.02567">
        <ele>1867</ele>
        <time>2013-04-13T06:11:02Z</time>
      </trkpt>
      <trkpt lat="45.22697" lon="6.02567">
        <ele>1867</ele>
        <time>2013-04-13T06:11:05Z</time>
      </trkpt>
      <trkpt lat="45.22699" lon="6.02568">
        <ele>1868.4000244</ele>
        <time>2013-04-13T06:11:08Z</time>
      </trkpt>
      <trkpt lat="45.22702" lon="6.02568">
        <ele>1869</ele>
        <time>2013-04-13T06:11:11Z</time>
      </trkpt>
      <trkpt lat="45.22703" lon="6.02568">
        <ele>1869</ele>
        <time>2013-04-13T06:11:14Z</time>
      </trkpt>
      <trkpt lat="45.22703" lon="6.02568">
        <ele>1870</ele>
        <time>2013-04-13T06:11:17Z</time>
      </trkpt>
      <trkpt lat="45.22703" lon="6.02568">
        <ele>1871</ele>
        <time>2013-04-13T06:11:20Z</time>
      </trkpt>
      <trkpt lat="45.22703" lon="6.02568">
        <ele>1871</ele>
        <time>2013-04-13T06:11:23Z</time>
      </trkpt>
      <trkpt lat="45.22705" lon="6.02567">
        <ele>1871</ele>
        <time>2013-04-13T06:11:26Z</time>
      </trkpt>
      <trkpt lat="45.22706" lon="6.02567">
        <ele>1871</ele>
        <time>2013-04-13T06:11:29Z</time>
      </trkpt>
      <trkpt lat="45.2271" lon="6.02567">
        <ele>1871</ele>
        <time>2013-04-13T06:11:32Z</time>
      </trkpt>
      <trkpt lat="45.22712" lon="6.02567">
        <ele>1871</ele>
        <time>2013-04-13T06:11:35Z</time>
      </trkpt>
      <trkpt lat="45.22716" lon="6.02566">
        <ele>1871.4000244</ele>
        <time>2013-04-13T06:11:38Z</time>
      </trkpt>
      <trkpt lat="45.22718" lon="6.02566">
        <ele>1872.8000488</ele>
        <time>2013-04-13T06:11:41Z</time>
      </trkpt>
      <trkpt lat="45.22721" lon="6.02566">
        <ele>1873.4000244</ele>
        <time>2013-04-13T06:11:44Z</time>
      </trkpt>
      <trkpt lat="45.22724" lon="6.02566">
        <ele>1873.4000244</ele>
        <time>2013-04-13T06:11:47Z</time>
      </trkpt>
      <trkpt lat="45.22728" lon="6.02566">
        <ele>1873.4000244</ele>
        <time>2013-04-13T06:11:50Z</time>
      </trkpt>
      <trkpt lat="45.22731" lon="6.02566">
        <ele>1873.4000244</ele>
        <time>2013-04-13T06:11:53Z</time>
      </trkpt>
      <trkpt lat="45.22735" lon="6.02566">
        <ele>1874.4000244</ele>
        <time>2013-04-13T06:11:56Z</time>
      </trkpt>
      <trkpt lat="45.22738" lon="6.02566">
        <ele>1875.4000244</ele>
        <time>2013-04-13T06:11:59Z</time>
      </trkpt>
      <trkpt lat="45.22741" lon="6.02565">
        <ele>1875.4000244</ele>
        <time>2013-04-13T06:12:02Z</time>
      </trkpt>
      <trkpt lat="45.22743" lon="6.02566">
        <ele>1875.4000244</ele>
        <time>2013-04-13T06:12:05Z</time>
      </trkpt>
      <trkpt lat="45.22743" lon="6.02565">
        <ele>1875.4000244</ele>
        <time>2013-04-13T06:12:08Z</time>
      </trkpt>
      <trkpt lat="45.22746" lon="6.02565">
        <ele>1875.4000244</ele>
        <time>2013-04-13T06:12:11Z</time>
      </trkpt>
      <trkpt lat="45.22749" lon="6.02566">
        <ele>1876</ele>
        <time>2013-04-13T06:12:14Z</time>
      </trkpt>
      <trkpt lat="45.22752" lon="6.02566">
        <ele>1877</ele>
        <time>2013-04-13T06:12:17Z</time>
      </trkpt>
      <trkpt lat="45.22755" lon="6.02567">
        <ele>1877.4000244</ele>
        <time>2013-04-13T06:12:20Z</time>
      </trkpt>
      <trkpt lat="45.22758" lon="6.02568">
        <ele>1877.4000244</ele>
        <time>2013-04-13T06:12:23Z</time>
      </trkpt>
      <trkpt lat="45.22761" lon="6.02569">
        <ele>1878.8000488</ele>
        <time>2013-04-13T06:12:26Z</time>
      </trkpt>
      <trkpt lat="45.22763" lon="6.0257">
        <ele>1879.4000244</ele>
        <time>2013-04-13T06:12:29Z</time>
      </trkpt>
      <trkpt lat="45.22766" lon="6.02571">
        <ele>1879.8000488</ele>
        <time>2013-04-13T06:12:32Z</time>
      </trkpt>
      <trkpt lat="45.22767" lon="6.02572">
        <ele>1880.8000488</ele>
        <time>2013-04-13T06:12:35Z</time>
      </trkpt>
      <trkpt lat="45.22771" lon="6.02573">
        <ele>1881.4000244</ele>
        <time>2013-04-13T06:12:38Z</time>
      </trkpt>
      <trkpt lat="45.22773" lon="6.02574">
        <ele>1881.4000244</ele>
        <time>2013-04-13T06:12:41Z</time>
      </trkpt>
      <trkpt lat="45.22776" lon="6.02576">
        <ele>1881.4000244</ele>
        <time>2013-04-13T06:12:44Z</time>
      </trkpt>
      <trkpt lat="45.22778" lon="6.02578">
        <ele>1881.4000244</ele>
        <time>2013-04-13T06:12:47Z</time>
      </trkpt>
      <trkpt lat="45.22781" lon="6.02579">
        <ele>1882.4000244</ele>
        <time>2013-04-13T06:12:50Z</time>
      </trkpt>
      <trkpt lat="45.22783" lon="6.02581">
        <ele>1883.4000244</ele>
        <time>2013-04-13T06:12:53Z</time>
      </trkpt>
      <trkpt lat="45.22786" lon="6.02582">
        <ele>1883.4000244</ele>
        <time>2013-04-13T06:12:56Z</time>
      </trkpt>
      <trkpt lat="45.22788" lon="6.02584">
        <ele>1884</ele>
        <time>2013-04-13T06:12:59Z</time>
      </trkpt>
      <trkpt lat="45.22791" lon="6.02585">
        <ele>1885.4000244</ele>
        <time>2013-04-13T06:13:02Z</time>
      </trkpt>
      <trkpt lat="45.22792" lon="6.02587">
        <ele>1885.4000244</ele>
        <time>2013-04-13T06:13:05Z</time>
      </trkpt>
      <trkpt lat="45.22795" lon="6.02589">
        <ele>1885.4000244</ele>
        <time>2013-04-13T06:13:08Z</time>
      </trkpt>
      <trkpt lat="45.22797" lon="6.0259">
        <ele>1886.4000244</ele>
        <time>2013-04-13T06:13:11Z</time>
      </trkpt>
      <trkpt lat="45.228" lon="6.02592">
        <ele>1887.4000244</ele>
        <time>2013-04-13T06:13:14Z</time>
      </trkpt>
      <trkpt lat="45.22801" lon="6.02593">
        <ele>1888</ele>
        <time>2013-04-13T06:13:17Z</time>
      </trkpt>
      <trkpt lat="45.22804" lon="6.02595">
        <ele>1889</ele>
        <time>2013-04-13T06:13:20Z</time>
      </trkpt>
      <trkpt lat="45.22806" lon="6.02596">
        <ele>1889.4000244</ele>
        <time>2013-04-13T06:13:23Z</time>
      </trkpt>
      <trkpt lat="45.22808" lon="6.02598">
        <ele>1889.4000244</ele>
        <time>2013-04-13T06:13:26Z</time>
      </trkpt>
      <trkpt lat="45.22809" lon="6.02599">
        <ele>1890.4000244</ele>
        <time>2013-04-13T06:13:29Z</time>
      </trkpt>
      <trkpt lat="45.22812" lon="6.02601">
        <ele>1891.4000244</ele>
        <time>2013-04-13T06:13:32Z</time>
      </trkpt>
      <trkpt lat="45.22814" lon="6.02603">
        <ele>1891.4000244</ele>
        <time>2013-04-13T06:13:35Z</time>
      </trkpt>
      <trkpt lat="45.22816" lon="6.02605">
        <ele>1892.4000244</ele>
        <time>2013-04-13T06:13:38Z</time>
      </trkpt>
      <trkpt lat="45.22817" lon="6.02606">
        <ele>1893.4000244</ele>
        <time>2013-04-13T06:13:41Z</time>
      </trkpt>
      <trkpt lat="45.22819" lon="6.02609">
        <ele>1893.4000244</ele>
        <time>2013-04-13T06:13:44Z</time>
      </trkpt>
      <trkpt lat="45.22821" lon="6.0261">
        <ele>1894</ele>
        <time>2013-04-13T06:13:47Z</time>
      </trkpt>
      <trkpt lat="45.22823" lon="6.02613">
        <ele>1895</ele>
        <time>2013-04-13T06:13:50Z</time>
      </trkpt>
      <trkpt lat="45.22824" lon="6.02615">
        <ele>1895.4000244</ele>
        <time>2013-04-13T06:13:53Z</time>
      </trkpt>
      <trkpt lat="45.22826" lon="6.02617">
        <ele>1896</ele>
        <time>2013-04-13T06:13:56Z</time>
      </trkpt>
      <trkpt lat="45.22827" lon="6.02619">
        <ele>1897</ele>
        <time>2013-04-13T06:13:59Z</time>
      </trkpt>
      <trkpt lat="45.22828" lon="6.02622">
        <ele>1897.8000488</ele>
        <time>2013-04-13T06:14:02Z</time>
      </trkpt>
      <trkpt lat="45.2283" lon="6.02624">
        <ele>1898</ele>
        <time>2013-04-13T06:14:05Z</time>
      </trkpt>
      <trkpt lat="45.22832" lon="6.02627">
        <ele>1899</ele>
        <time>2013-04-13T06:14:08Z</time>
      </trkpt>
      <trkpt lat="45.22833" lon="6.02629">
        <ele>1899.8000488</ele>
        <time>2013-04-13T06:14:11Z</time>
      </trkpt>
      <trkpt lat="45.22835" lon="6.0263">
        <ele>1899.8000488</ele>
        <time>2013-04-13T06:14:14Z</time>
      </trkpt>
      <trkpt lat="45.22837" lon="6.02632">
        <ele>1900.8000488</ele>
        <time>2013-04-13T06:14:17Z</time>
      </trkpt>
      <trkpt lat="45.22838" lon="6.02633">
        <ele>1901.8000488</ele>
        <time>2013-04-13T06:14:20Z</time>
      </trkpt>
      <trkpt lat="45.22838" lon="6.02634">
        <ele>1901.8000488</ele>
        <time>2013-04-13T06:14:23Z</time>
      </trkpt>
      <trkpt lat="45.2284" lon="6.02635">
        <ele>1901.8000488</ele>
        <time>2013-04-13T06:14:26Z</time>
      </trkpt>
      <trkpt lat="45.22841" lon="6.02637">
        <ele>1902.4000244</ele>
        <time>2013-04-13T06:14:29Z</time>
      </trkpt>
      <trkpt lat="45.22843" lon="6.02639">
        <ele>1903.4000244</ele>
        <time>2013-04-13T06:14:32Z</time>
      </trkpt>
      <trkpt lat="45.22843" lon="6.0264">
        <ele>1903.8000488</ele>
        <time>2013-04-13T06:14:35Z</time>
      </trkpt>
      <trkpt lat="45.22845" lon="6.02643">
        <ele>1904</ele>
        <time>2013-04-13T06:14:38Z</time>
      </trkpt>
      <trkpt lat="45.22847" lon="6.02645">
        <ele>1905.4000244</ele>
        <time>2013-04-13T06:14:41Z</time>
      </trkpt>
      <trkpt lat="45.22849" lon="6.02647">
        <ele>1905.8000488</ele>
        <time>2013-04-13T06:14:44Z</time>
      </trkpt>
      <trkpt lat="45.2285" lon="6.0265">
        <ele>1906</ele>
        <time>2013-04-13T06:14:47Z</time>
      </trkpt>
      <trkpt lat="45.22852" lon="6.02652">
        <ele>1907.4000244</ele>
        <time>2013-04-13T06:14:50Z</time>
      </trkpt>
      <trkpt lat="45.22854" lon="6.02653">
        <ele>1907.8000488</ele>
        <time>2013-04-13T06:14:53Z</time>
      </trkpt>
      <trkpt lat="45.22857" lon="6.02652">
        <ele>1907.8000488</ele>
        <time>2013-04-13T06:14:56Z</time>
      </trkpt>
      <trkpt lat="45.22858" lon="6.02651">
        <ele>1908.8000488</ele>
        <time>2013-04-13T06:14:59Z</time>
      </trkpt>
      <trkpt lat="45.2286" lon="6.02649">
        <ele>1909.8000488</ele>
        <time>2013-04-13T06:15:02Z</time>
      </trkpt>
      <trkpt lat="45.22862" lon="6.02648">
        <ele>1909.8000488</ele>
        <time>2013-04-13T06:15:05Z</time>
      </trkpt>
      <trkpt lat="45.22864" lon="6.02646">
        <ele>1911</ele>
        <time>2013-04-13T06:15:08Z</time>
      </trkpt>
      <trkpt lat="45.22866" lon="6.02643">
        <ele>1912</ele>
        <time>2013-04-13T06:15:11Z</time>
      </trkpt>
      <trkpt lat="45.22867" lon="6.02641">
        <ele>1912</ele>
        <time>2013-04-13T06:15:14Z</time>
      </trkpt>
      <trkpt lat="45.22868" lon="6.02641">
        <ele>1912.4000244</ele>
        <time>2013-04-13T06:15:17Z</time>
      </trkpt>
      <trkpt lat="45.22869" lon="6.02642">
        <ele>1913.4000244</ele>
        <time>2013-04-13T06:15:20Z</time>
      </trkpt>
      <trkpt lat="45.2287" lon="6.02644">
        <ele>1914</ele>
        <time>2013-04-13T06:15:23Z</time>
      </trkpt>
      <trkpt lat="45.22872" lon="6.02645">
        <ele>1914</ele>
        <time>2013-04-13T06:15:26Z</time>
      </trkpt>
      <trkpt lat="45.22873" lon="6.02647">
        <ele>1915.4000244</ele>
        <time>2013-04-13T06:15:29Z</time>
      </trkpt>
      <trkpt lat="45.22875" lon="6.0265">
        <ele>1916</ele>
        <time>2013-04-13T06:15:32Z</time>
      </trkpt>
      <trkpt lat="45.22876" lon="6.02652">
        <ele>1916</ele>
        <time>2013-04-13T06:15:35Z</time>
      </trkpt>
      <trkpt lat="45.22877" lon="6.02655">
        <ele>1917</ele>
        <time>2013-04-13T06:15:38Z</time>
      </trkpt>
      <trkpt lat="45.22878" lon="6.02657">
        <ele>1918</ele>
        <time>2013-04-13T06:15:41Z</time>
      </trkpt>
      <trkpt lat="45.22879" lon="6.0266">
        <ele>1919</ele>
        <time>2013-04-13T06:15:44Z</time>
      </trkpt>
      <trkpt lat="45.2288" lon="6.02662">
        <ele>1920</ele>
        <time>2013-04-13T06:15:47Z</time>
      </trkpt>
      <trkpt lat="45.22882" lon="6.02661">
        <ele>1920</ele>
        <time>2013-04-13T06:15:50Z</time>
      </trkpt>
      <trkpt lat="45.22883" lon="6.02659">
        <ele>1920</ele>
        <time>2013-04-13T06:15:53Z</time>
      </trkpt>
      <trkpt lat="45.22886" lon="6.02658">
        <ele>1920.8000488</ele>
        <time>2013-04-13T06:15:56Z</time>
      </trkpt>
      <trkpt lat="45.22888" lon="6.02656">
        <ele>1922</ele>
        <time>2013-04-13T06:15:59Z</time>
      </trkpt>
      <trkpt lat="45.2289" lon="6.02655">
        <ele>1922.4000244</ele>
        <time>2013-04-13T06:16:02Z</time>
      </trkpt>
      <trkpt lat="45.22891" lon="6.02653">
        <ele>1922.8000488</ele>
        <time>2013-04-13T06:16:05Z</time>
      </trkpt>
      <trkpt lat="45.22893" lon="6.0265">
        <ele>1924</ele>
        <time>2013-04-13T06:16:08Z</time>
      </trkpt>
      <trkpt lat="45.22895" lon="6.02647">
        <ele>1924.4000244</ele>
        <time>2013-04-13T06:16:11Z</time>
      </trkpt>
      <trkpt lat="45.22897" lon="6.02644">
        <ele>1924.4000244</ele>
        <time>2013-04-13T06:16:14Z</time>
      </trkpt>
      <trkpt lat="45.22897" lon="6.02644">
        <ele>1925.4000244</ele>
        <time>2013-04-13T06:16:17Z</time>
      </trkpt>
      <trkpt lat="45.22898" lon="6.02645">
        <ele>1926.4000244</ele>
        <time>2013-04-13T06:16:20Z</time>
      </trkpt>
      <trkpt lat="45.22899" lon="6.02647">
        <ele>1926.4000244</ele>
        <time>2013-04-13T06:16:23Z</time>
      </trkpt>
      <trkpt lat="45.229" lon="6.02648">
        <ele>1926.4000244</ele>
        <time>2013-04-13T06:16:26Z</time>
      </trkpt>
      <trkpt lat="45.229" lon="6.02648">
        <ele>1926.4000244</ele>
        <time>2013-04-13T06:16:29Z</time>
      </trkpt>
      <trkpt lat="45.229" lon="6.02649">
        <ele>1927.8000488</ele>
        <time>2013-04-13T06:16:32Z</time>
      </trkpt>
      <trkpt lat="45.229" lon="6.0265">
        <ele>1928.4000244</ele>
        <time>2013-04-13T06:16:35Z</time>
      </trkpt>
      <trkpt lat="45.22902" lon="6.02653">
        <ele>1928.4000244</ele>
        <time>2013-04-13T06:16:38Z</time>
      </trkpt>
      <trkpt lat="45.22903" lon="6.02655">
        <ele>1928.4000244</ele>
        <time>2013-04-13T06:16:41Z</time>
      </trkpt>
      <trkpt lat="45.22904" lon="6.02658">
        <ele>1928.4000244</ele>
        <time>2013-04-13T06:16:44Z</time>
      </trkpt>
      <trkpt lat="45.22905" lon="6.0266">
        <ele>1929.4000244</ele>
        <time>2013-04-13T06:16:47Z</time>
      </trkpt>
      <trkpt lat="45.22905" lon="6.02662">
        <ele>1930.4000244</ele>
        <time>2013-04-13T06:16:50Z</time>
      </trkpt>
      <trkpt lat="45.22905" lon="6.02666">
        <ele>1930.4000244</ele>
        <time>2013-04-13T06:16:53Z</time>
      </trkpt>
      <trkpt lat="45.22906" lon="6.02669">
        <ele>1931.8000488</ele>
        <time>2013-04-13T06:16:56Z</time>
      </trkpt>
      <trkpt lat="45.22906" lon="6.02673">
        <ele>1932.4000244</ele>
        <time>2013-04-13T06:16:59Z</time>
      </trkpt>
      <trkpt lat="45.22907" lon="6.02676">
        <ele>1932.4000244</ele>
        <time>2013-04-13T06:17:02Z</time>
      </trkpt>
      <trkpt lat="45.22907" lon="6.02678">
        <ele>1932.8000488</ele>
        <time>2013-04-13T06:17:05Z</time>
      </trkpt>
      <trkpt lat="45.22908" lon="6.02681">
        <ele>1934</ele>
        <time>2013-04-13T06:17:08Z</time>
      </trkpt>
      <trkpt lat="45.22908" lon="6.02684">
        <ele>1934.4000244</ele>
        <time>2013-04-13T06:17:11Z</time>
      </trkpt>
      <trkpt lat="45.22909" lon="6.02683">
        <ele>1934.8000488</ele>
        <time>2013-04-13T06:17:14Z</time>
      </trkpt>
      <trkpt lat="45.22911" lon="6.02682">
        <ele>1936</ele>
        <time>2013-04-13T06:17:17Z</time>
      </trkpt>
      <trkpt lat="45.22913" lon="6.0268">
        <ele>1936.8000488</ele>
        <time>2013-04-13T06:17:20Z</time>
      </trkpt>
      <trkpt lat="45.22915" lon="6.02679">
        <ele>1936.8000488</ele>
        <time>2013-04-13T06:17:23Z</time>
      </trkpt>
      <trkpt lat="45.22917" lon="6.02677">
        <ele>1937.8000488</ele>
        <time>2013-04-13T06:17:26Z</time>
      </trkpt>
      <trkpt lat="45.22919" lon="6.02676">
        <ele>1938.8000488</ele>
        <time>2013-04-13T06:17:29Z</time>
      </trkpt>
      <trkpt lat="45.22921" lon="6.02674">
        <ele>1938.8000488</ele>
        <time>2013-04-13T06:17:32Z</time>
      </trkpt>
      <trkpt lat="45.22923" lon="6.02673">
        <ele>1939.4000244</ele>
        <time>2013-04-13T06:17:35Z</time>
      </trkpt>
      <trkpt lat="45.22925" lon="6.02671">
        <ele>1940.8000488</ele>
        <time>2013-04-13T06:17:38Z</time>
      </trkpt>
      <trkpt lat="45.22927" lon="6.0267">
        <ele>1941</ele>
        <time>2013-04-13T06:17:41Z</time>
      </trkpt>
      <trkpt lat="45.22928" lon="6.02668">
        <ele>1942.4000244</ele>
        <time>2013-04-13T06:17:44Z</time>
      </trkpt>
      <trkpt lat="45.22929" lon="6.02666">
        <ele>1943</ele>
        <time>2013-04-13T06:17:47Z</time>
      </trkpt>
      <trkpt lat="45.2293" lon="6.02664">
        <ele>1943.4000244</ele>
        <time>2013-04-13T06:17:50Z</time>
      </trkpt>
      <trkpt lat="45.22932" lon="6.02662">
        <ele>1944.4000244</ele>
        <time>2013-04-13T06:17:53Z</time>
      </trkpt>
      <trkpt lat="45.22933" lon="6.0266">
        <ele>1945</ele>
        <time>2013-04-13T06:17:56Z</time>
      </trkpt>
      <trkpt lat="45.22935" lon="6.02657">
        <ele>1945</ele>
        <time>2013-04-13T06:17:59Z</time>
      </trkpt>
      <trkpt lat="45.22937" lon="6.02655">
        <ele>1946.4000244</ele>
        <time>2013-04-13T06:18:02Z</time>
      </trkpt>
      <trkpt lat="45.22939" lon="6.02653">
        <ele>1947</ele>
        <time>2013-04-13T06:18:05Z</time>
      </trkpt>
      <trkpt lat="45.2294" lon="6.02652">
        <ele>1947</ele>
        <time>2013-04-13T06:18:08Z</time>
      </trkpt>
      <trkpt lat="45.2294" lon="6.02651">
        <ele>1948</ele>
        <time>2013-04-13T06:18:11Z</time>
      </trkpt>
      <trkpt lat="45.22941" lon="6.02653">
        <ele>1949</ele>
        <time>2013-04-13T06:18:14Z</time>
      </trkpt>
      <trkpt lat="45.22943" lon="6.02656">
        <ele>1949</ele>
        <time>2013-04-13T06:18:17Z</time>
      </trkpt>
      <trkpt lat="45.22945" lon="6.02659">
        <ele>1949</ele>
        <time>2013-04-13T06:18:20Z</time>
      </trkpt>
      <trkpt lat="45.22946" lon="6.02661">
        <ele>1949</ele>
        <time>2013-04-13T06:18:23Z</time>
      </trkpt>
      <trkpt lat="45.22948" lon="6.02663">
        <ele>1950</ele>
        <time>2013-04-13T06:18:26Z</time>
      </trkpt>
      <trkpt lat="45.22949" lon="6.02665">
        <ele>1951</ele>
        <time>2013-04-13T06:18:29Z</time>
      </trkpt>
      <trkpt lat="45.22951" lon="6.02668">
        <ele>1951.4000244</ele>
        <time>2013-04-13T06:18:32Z</time>
      </trkpt>
      <trkpt lat="45.22951" lon="6.0267">
        <ele>1952.4000244</ele>
        <time>2013-04-13T06:18:35Z</time>
      </trkpt>
      <trkpt lat="45.22952" lon="6.02672">
        <ele>1953.4000244</ele>
        <time>2013-04-13T06:18:38Z</time>
      </trkpt>
      <trkpt lat="45.22953" lon="6.02675">
        <ele>1953.4000244</ele>
        <time>2013-04-13T06:18:41Z</time>
      </trkpt>
      <trkpt lat="45.22954" lon="6.02677">
        <ele>1954</ele>
        <time>2013-04-13T06:18:44Z</time>
      </trkpt>
      <trkpt lat="45.22955" lon="6.0268">
        <ele>1955.4000244</ele>
        <time>2013-04-13T06:18:47Z</time>
      </trkpt>
      <trkpt lat="45.22955" lon="6.02682">
        <ele>1955.4000244</ele>
        <time>2013-04-13T06:18:50Z</time>
      </trkpt>
      <trkpt lat="45.22956" lon="6.02684">
        <ele>1956.4000244</ele>
        <time>2013-04-13T06:18:53Z</time>
      </trkpt>
      <trkpt lat="45.22957" lon="6.02686">
        <ele>1957.4000244</ele>
        <time>2013-04-13T06:18:56Z</time>
      </trkpt>
      <trkpt lat="45.22957" lon="6.02689">
        <ele>1957.4000244</ele>
        <time>2013-04-13T06:18:59Z</time>
      </trkpt>
      <trkpt lat="45.22958" lon="6.02692">
        <ele>1958</ele>
        <time>2013-04-13T06:19:02Z</time>
      </trkpt>
      <trkpt lat="45.22958" lon="6.02694">
        <ele>1959</ele>
        <time>2013-04-13T06:19:05Z</time>
      </trkpt>
      <trkpt lat="45.22959" lon="6.02697">
        <ele>1959.8000488</ele>
        <time>2013-04-13T06:19:08Z</time>
      </trkpt>
      <trkpt lat="45.2296" lon="6.027">
        <ele>1960.4000244</ele>
        <time>2013-04-13T06:19:11Z</time>
      </trkpt>
      <trkpt lat="45.2296" lon="6.02702">
        <ele>1961.8000488</ele>
        <time>2013-04-13T06:19:14Z</time>
      </trkpt>
      <trkpt lat="45.2296" lon="6.02704">
        <ele>1961.8000488</ele>
        <time>2013-04-13T06:19:17Z</time>
      </trkpt>
      <trkpt lat="45.22961" lon="6.02705">
        <ele>1962.4000244</ele>
        <time>2013-04-13T06:19:20Z</time>
      </trkpt>
      <trkpt lat="45.22963" lon="6.02704">
        <ele>1963.4000244</ele>
        <time>2013-04-13T06:19:23Z</time>
      </trkpt>
      <trkpt lat="45.22965" lon="6.02702">
        <ele>1964</ele>
        <time>2013-04-13T06:19:26Z</time>
      </trkpt>
      <trkpt lat="45.22967" lon="6.02701">
        <ele>1964</ele>
        <time>2013-04-13T06:19:29Z</time>
      </trkpt>
      <trkpt lat="45.22969" lon="6.02699">
        <ele>1965</ele>
        <time>2013-04-13T06:19:32Z</time>
      </trkpt>
      <trkpt lat="45.2297" lon="6.02697">
        <ele>1966</ele>
        <time>2013-04-13T06:19:35Z</time>
      </trkpt>
      <trkpt lat="45.22972" lon="6.02695">
        <ele>1966</ele>
        <time>2013-04-13T06:19:38Z</time>
      </trkpt>
      <trkpt lat="45.22973" lon="6.02693">
        <ele>1966.8000488</ele>
        <time>2013-04-13T06:19:41Z</time>
      </trkpt>
      <trkpt lat="45.22975" lon="6.02691">
        <ele>1967.8000488</ele>
        <time>2013-04-13T06:19:44Z</time>
      </trkpt>
      <trkpt lat="45.22977" lon="6.0269">
        <ele>1968</ele>
        <time>2013-04-13T06:19:47Z</time>
      </trkpt>
      <trkpt lat="45.22978" lon="6.02689">
        <ele>1968.4000244</ele>
        <time>2013-04-13T06:19:50Z</time>
      </trkpt>
      <trkpt lat="45.2298" lon="6.02687">
        <ele>1969.4000244</ele>
        <time>2013-04-13T06:19:53Z</time>
      </trkpt>
      <trkpt lat="45.22982" lon="6.02684">
        <ele>1970</ele>
        <time>2013-04-13T06:19:56Z</time>
      </trkpt>
      <trkpt lat="45.22983" lon="6.02683">
        <ele>1970</ele>
        <time>2013-04-13T06:19:59Z</time>
      </trkpt>
      <trkpt lat="45.22985" lon="6.0268">
        <ele>1970.4000244</ele>
        <time>2013-04-13T06:20:02Z</time>
      </trkpt>
      <trkpt lat="45.22986" lon="6.02678">
        <ele>1971.4000244</ele>
        <time>2013-04-13T06:20:05Z</time>
      </trkpt>
      <trkpt lat="45.22987" lon="6.02675">
        <ele>1972</ele>
        <time>2013-04-13T06:20:08Z</time>
      </trkpt>
      <trkpt lat="45.22987" lon="6.02676">
        <ele>1972.4000244</ele>
        <time>2013-04-13T06:20:11Z</time>
      </trkpt>
      <trkpt lat="45.22987" lon="6.02675">
        <ele>1973.8000488</ele>
        <time>2013-04-13T06:20:14Z</time>
      </trkpt>
      <trkpt lat="45.22986" lon="6.02675">
        <ele>1974</ele>
        <time>2013-04-13T06:20:17Z</time>
      </trkpt>
      <trkpt lat="45.22986" lon="6.02675">
        <ele>1974</ele>
        <time>2013-04-13T06:20:20Z</time>
      </trkpt>
      <trkpt lat="45.22986" lon="6.02675">
        <ele>1974</ele>
        <time>2013-04-13T06:20:23Z</time>
      </trkpt>
      <trkpt lat="45.22987" lon="6.02675">
        <ele>1974</ele>
        <time>2013-04-13T06:20:26Z</time>
      </trkpt>
      <trkpt lat="45.22987" lon="6.02673">
        <ele>1974</ele>
        <time>2013-04-13T06:20:29Z</time>
      </trkpt>
      <trkpt lat="45.22988" lon="6.02673">
        <ele>1974</ele>
        <time>2013-04-13T06:20:32Z</time>
      </trkpt>
      <trkpt lat="45.22988" lon="6.02674">
        <ele>1974</ele>
        <time>2013-04-13T06:20:35Z</time>
      </trkpt>
      <trkpt lat="45.2299" lon="6.02676">
        <ele>1974</ele>
        <time>2013-04-13T06:20:38Z</time>
      </trkpt>
      <trkpt lat="45.22991" lon="6.02678">
        <ele>1974.8000488</ele>
        <time>2013-04-13T06:20:41Z</time>
      </trkpt>
      <trkpt lat="45.22992" lon="6.02681">
        <ele>1976</ele>
        <time>2013-04-13T06:20:44Z</time>
      </trkpt>
      <trkpt lat="45.22993" lon="6.02683">
        <ele>1976</ele>
        <time>2013-04-13T06:20:47Z</time>
      </trkpt>
      <trkpt lat="45.22994" lon="6.02686">
        <ele>1976.8000488</ele>
        <time>2013-04-13T06:20:50Z</time>
      </trkpt>
      <trkpt lat="45.22994" lon="6.02689">
        <ele>1977.8000488</ele>
        <time>2013-04-13T06:20:53Z</time>
      </trkpt>
      <trkpt lat="45.22995" lon="6.02692">
        <ele>1978.4000244</ele>
        <time>2013-04-13T06:20:56Z</time>
      </trkpt>
      <trkpt lat="45.22995" lon="6.02694">
        <ele>1979</ele>
        <time>2013-04-13T06:20:59Z</time>
      </trkpt>
      <trkpt lat="45.22995" lon="6.02697">
        <ele>1980.4000244</ele>
        <time>2013-04-13T06:21:02Z</time>
      </trkpt>
      <trkpt lat="45.22995" lon="6.027">
        <ele>1980.4000244</ele>
        <time>2013-04-13T06:21:05Z</time>
      </trkpt>
      <trkpt lat="45.22995" lon="6.02704">
        <ele>1981.4000244</ele>
        <time>2013-04-13T06:21:08Z</time>
      </trkpt>
      <trkpt lat="45.22994" lon="6.02706">
        <ele>1982.4000244</ele>
        <time>2013-04-13T06:21:11Z</time>
      </trkpt>
      <trkpt lat="45.22994" lon="6.02709">
        <ele>1982.4000244</ele>
        <time>2013-04-13T06:21:14Z</time>
      </trkpt>
      <trkpt lat="45.22994" lon="6.02712">
        <ele>1983</ele>
        <time>2013-04-13T06:21:17Z</time>
      </trkpt>
      <trkpt lat="45.22994" lon="6.02715">
        <ele>1984.4000244</ele>
        <time>2013-04-13T06:21:20Z</time>
      </trkpt>
      <trkpt lat="45.22994" lon="6.02717">
        <ele>1984.4000244</ele>
        <time>2013-04-13T06:21:23Z</time>
      </trkpt>
      <trkpt lat="45.22995" lon="6.02718">
        <ele>1984.4000244</ele>
        <time>2013-04-13T06:21:26Z</time>
      </trkpt>
      <trkpt lat="45.22997" lon="6.02717">
        <ele>1985.8000488</ele>
        <time>2013-04-13T06:21:29Z</time>
      </trkpt>
      <trkpt lat="45.22999" lon="6.02714">
        <ele>1986.4000244</ele>
        <time>2013-04-13T06:21:32Z</time>
      </trkpt>
      <trkpt lat="45.23" lon="6.02713">
        <ele>1986.4000244</ele>
        <time>2013-04-13T06:21:35Z</time>
      </trkpt>
      <trkpt lat="45.23002" lon="6.02711">
        <ele>1987</ele>
        <time>2013-04-13T06:21:38Z</time>
      </trkpt>
      <trkpt lat="45.23004" lon="6.0271">
        <ele>1988</ele>
        <time>2013-04-13T06:21:41Z</time>
      </trkpt>
      <trkpt lat="45.23006" lon="6.02708">
        <ele>1988.4000244</ele>
        <time>2013-04-13T06:21:44Z</time>
      </trkpt>
      <trkpt lat="45.23008" lon="6.02707">
        <ele>1988.4000244</ele>
        <time>2013-04-13T06:21:47Z</time>
      </trkpt>
      <trkpt lat="45.2301" lon="6.02705">
        <ele>1989.8000488</ele>
        <time>2013-04-13T06:21:50Z</time>
      </trkpt>
      <trkpt lat="45.23012" lon="6.02703">
        <ele>1990.8000488</ele>
        <time>2013-04-13T06:21:53Z</time>
      </trkpt>
      <trkpt lat="45.23014" lon="6.02701">
        <ele>1990.8000488</ele>
        <time>2013-04-13T06:21:56Z</time>
      </trkpt>
      <trkpt lat="45.23016" lon="6.027">
        <ele>1991</ele>
        <time>2013-04-13T06:21:59Z</time>
      </trkpt>
      <trkpt lat="45.23018" lon="6.02698">
        <ele>1992.4000244</ele>
        <time>2013-04-13T06:22:02Z</time>
      </trkpt>
      <trkpt lat="45.23019" lon="6.02697">
        <ele>1993</ele>
        <time>2013-04-13T06:22:05Z</time>
      </trkpt>
      <trkpt lat="45.23022" lon="6.02695">
        <ele>1993</ele>
        <time>2013-04-13T06:22:08Z</time>
      </trkpt>
      <trkpt lat="45.23023" lon="6.02694">
        <ele>1994</ele>
        <time>2013-04-13T06:22:11Z</time>
      </trkpt>
      <trkpt lat="45.23025" lon="6.02691">
        <ele>1995</ele>
        <time>2013-04-13T06:22:14Z</time>
      </trkpt>
      <trkpt lat="45.23026" lon="6.0269">
        <ele>1995</ele>
        <time>2013-04-13T06:22:17Z</time>
      </trkpt>
      <trkpt lat="45.23025" lon="6.0269">
        <ele>1995.8000488</ele>
        <time>2013-04-13T06:22:20Z</time>
      </trkpt>
      <trkpt lat="45.23026" lon="6.02689">
        <ele>1996.8000488</ele>
        <time>2013-04-13T06:22:23Z</time>
      </trkpt>
      <trkpt lat="45.23026" lon="6.02689">
        <ele>1997</ele>
        <time>2013-04-13T06:22:26Z</time>
      </trkpt>
      <trkpt lat="45.23027" lon="6.02688">
        <ele>1997</ele>
        <time>2013-04-13T06:22:29Z</time>
      </trkpt>
      <trkpt lat="45.23028" lon="6.02685">
        <ele>1997</ele>
        <time>2013-04-13T06:22:32Z</time>
      </trkpt>
      <trkpt lat="45.23029" lon="6.02682">
        <ele>1997</ele>
        <time>2013-04-13T06:22:35Z</time>
      </trkpt>
      <trkpt lat="45.23029" lon="6.02681">
        <ele>1998</ele>
        <time>2013-04-13T06:22:38Z</time>
      </trkpt>
      <trkpt lat="45.23029" lon="6.02681">
        <ele>1999</ele>
        <time>2013-04-13T06:22:41Z</time>
      </trkpt>
      <trkpt lat="45.23032" lon="6.02684">
        <ele>1999</ele>
        <time>2013-04-13T06:22:44Z</time>
      </trkpt>
      <trkpt lat="45.23033" lon="6.02686">
        <ele>1999</ele>
        <time>2013-04-13T06:22:47Z</time>
      </trkpt>
      <trkpt lat="45.23035" lon="6.02689">
        <ele>1999.8000488</ele>
        <time>2013-04-13T06:22:50Z</time>
      </trkpt>
      <trkpt lat="45.23037" lon="6.0269">
        <ele>2000.8000488</ele>
        <time>2013-04-13T06:22:53Z</time>
      </trkpt>
      <trkpt lat="45.23038" lon="6.02693">
        <ele>2001</ele>
        <time>2013-04-13T06:22:56Z</time>
      </trkpt>
      <trkpt lat="45.2304" lon="6.02696">
        <ele>2002</ele>
        <time>2013-04-13T06:22:59Z</time>
      </trkpt>
      <trkpt lat="45.23041" lon="6.02699">
        <ele>2003.4000244</ele>
        <time>2013-04-13T06:23:02Z</time>
      </trkpt>
      <trkpt lat="45.23042" lon="6.02701">
        <ele>2003.4000244</ele>
        <time>2013-04-13T06:23:05Z</time>
      </trkpt>
      <trkpt lat="45.23043" lon="6.02705">
        <ele>2004.4000244</ele>
        <time>2013-04-13T06:23:08Z</time>
      </trkpt>
      <trkpt lat="45.23044" lon="6.02707">
        <ele>2005</ele>
        <time>2013-04-13T06:23:11Z</time>
      </trkpt>
      <trkpt lat="45.23044" lon="6.0271">
        <ele>2005.8000488</ele>
        <time>2013-04-13T06:23:14Z</time>
      </trkpt>
      <trkpt lat="45.23044" lon="6.02713">
        <ele>2007</ele>
        <time>2013-04-13T06:23:17Z</time>
      </trkpt>
      <trkpt lat="45.23045" lon="6.02716">
        <ele>2007.8000488</ele>
        <time>2013-04-13T06:23:20Z</time>
      </trkpt>
      <trkpt lat="45.23047" lon="6.02714">
        <ele>2008.4000244</ele>
        <time>2013-04-13T06:23:23Z</time>
      </trkpt>
      <trkpt lat="45.23049" lon="6.02712">
        <ele>2009.4000244</ele>
        <time>2013-04-13T06:23:26Z</time>
      </trkpt>
      <trkpt lat="45.23051" lon="6.02711">
        <ele>2010</ele>
        <time>2013-04-13T06:23:29Z</time>
      </trkpt>
      <trkpt lat="45.23054" lon="6.02709">
        <ele>2010</ele>
        <time>2013-04-13T06:23:32Z</time>
      </trkpt>
      <trkpt lat="45.23055" lon="6.02707">
        <ele>2010.4000244</ele>
        <time>2013-04-13T06:23:35Z</time>
      </trkpt>
      <trkpt lat="45.23057" lon="6.02706">
        <ele>2012</ele>
        <time>2013-04-13T06:23:38Z</time>
      </trkpt>
      <trkpt lat="45.23059" lon="6.02705">
        <ele>2012</ele>
        <time>2013-04-13T06:23:41Z</time>
      </trkpt>
      <trkpt lat="45.2306" lon="6.02703">
        <ele>2012.4000244</ele>
        <time>2013-04-13T06:23:44Z</time>
      </trkpt>
      <trkpt lat="45.23062" lon="6.02702">
        <ele>2013.4000244</ele>
        <time>2013-04-13T06:23:47Z</time>
      </trkpt>
      <trkpt lat="45.23063" lon="6.02699">
        <ele>2014</ele>
        <time>2013-04-13T06:23:50Z</time>
      </trkpt>
      <trkpt lat="45.23064" lon="6.02697">
        <ele>2014</ele>
        <time>2013-04-13T06:23:53Z</time>
      </trkpt>
      <trkpt lat="45.23065" lon="6.02693">
        <ele>2015.4000244</ele>
        <time>2013-04-13T06:23:56Z</time>
      </trkpt>
      <trkpt lat="45.23066" lon="6.02691">
        <ele>2016.4000244</ele>
        <time>2013-04-13T06:23:59Z</time>
      </trkpt>
      <trkpt lat="45.23067" lon="6.02689">
        <ele>2018</ele>
        <time>2013-04-13T06:24:02Z</time>
      </trkpt>
      <trkpt lat="45.23067" lon="6.02687">
        <ele>2018.4000244</ele>
        <time>2013-04-13T06:24:05Z</time>
      </trkpt>
      <trkpt lat="45.23069" lon="6.02684">
        <ele>2018.4000244</ele>
        <time>2013-04-13T06:24:08Z</time>
      </trkpt>
      <trkpt lat="45.23069" lon="6.02682">
        <ele>2019.8000488</ele>
        <time>2013-04-13T06:24:11Z</time>
      </trkpt>
      <trkpt lat="45.2307" lon="6.02679">
        <ele>2020.4000244</ele>
        <time>2013-04-13T06:24:14Z</time>
      </trkpt>
      <trkpt lat="45.23071" lon="6.02678">
        <ele>2020.4000244</ele>
        <time>2013-04-13T06:24:17Z</time>
      </trkpt>
      <trkpt lat="45.23072" lon="6.02675">
        <ele>2021.4000244</ele>
        <time>2013-04-13T06:24:20Z</time>
      </trkpt>
      <trkpt lat="45.23073" lon="6.02672">
        <ele>2022.4000244</ele>
        <time>2013-04-13T06:24:23Z</time>
      </trkpt>
      <trkpt lat="45.23074" lon="6.0267">
        <ele>2022.8000488</ele>
        <time>2013-04-13T06:24:26Z</time>
      </trkpt>
      <trkpt lat="45.23075" lon="6.02669">
        <ele>2023.8000488</ele>
        <time>2013-04-13T06:24:29Z</time>
      </trkpt>
      <trkpt lat="45.23076" lon="6.02666">
        <ele>2024.4000244</ele>
        <time>2013-04-13T06:24:32Z</time>
      </trkpt>
      <trkpt lat="45.23077" lon="6.02666">
        <ele>2024.4000244</ele>
        <time>2013-04-13T06:24:35Z</time>
      </trkpt>
      <trkpt lat="45.23077" lon="6.02666">
        <ele>2025.4000244</ele>
        <time>2013-04-13T06:24:38Z</time>
      </trkpt>
      <trkpt lat="45.23079" lon="6.02667">
        <ele>2026.4000244</ele>
        <time>2013-04-13T06:24:41Z</time>
      </trkpt>
      <trkpt lat="45.23081" lon="6.02669">
        <ele>2026.4000244</ele>
        <time>2013-04-13T06:24:44Z</time>
      </trkpt>
      <trkpt lat="45.23083" lon="6.02671">
        <ele>2027.4000244</ele>
        <time>2013-04-13T06:24:47Z</time>
      </trkpt>
      <trkpt lat="45.23084" lon="6.02673">
        <ele>2028.4000244</ele>
        <time>2013-04-13T06:24:50Z</time>
      </trkpt>
      <trkpt lat="45.23086" lon="6.02675">
        <ele>2028.4000244</ele>
        <time>2013-04-13T06:24:53Z</time>
      </trkpt>
      <trkpt lat="45.23087" lon="6.02677">
        <ele>2029.4000244</ele>
        <time>2013-04-13T06:24:56Z</time>
      </trkpt>
      <trkpt lat="45.23088" lon="6.0268">
        <ele>2030.4000244</ele>
        <time>2013-04-13T06:24:59Z</time>
      </trkpt>
      <trkpt lat="45.2309" lon="6.02683">
        <ele>2030.4000244</ele>
        <time>2013-04-13T06:25:02Z</time>
      </trkpt>
      <trkpt lat="45.23091" lon="6.02685">
        <ele>2030.8000488</ele>
        <time>2013-04-13T06:25:05Z</time>
      </trkpt>
      <trkpt lat="45.23092" lon="6.02687">
        <ele>2032</ele>
        <time>2013-04-13T06:25:08Z</time>
      </trkpt>
      <trkpt lat="45.23093" lon="6.02688">
        <ele>2032.8000488</ele>
        <time>2013-04-13T06:25:11Z</time>
      </trkpt>
      <trkpt lat="45.23095" lon="6.02691">
        <ele>2032.8000488</ele>
        <time>2013-04-13T06:25:14Z</time>
      </trkpt>
      <trkpt lat="45.23096" lon="6.02693">
        <ele>2034</ele>
        <time>2013-04-13T06:25:17Z</time>
      </trkpt>
      <trkpt lat="45.23097" lon="6.02695">
        <ele>2034.8000488</ele>
        <time>2013-04-13T06:25:20Z</time>
      </trkpt>
      <trkpt lat="45.23098" lon="6.02697">
        <ele>2034.8000488</ele>
        <time>2013-04-13T06:25:23Z</time>
      </trkpt>
      <trkpt lat="45.231" lon="6.027">
        <ele>2035.4000244</ele>
        <time>2013-04-13T06:25:26Z</time>
      </trkpt>
      <trkpt lat="45.23101" lon="6.02701">
        <ele>2036.4000244</ele>
        <time>2013-04-13T06:25:29Z</time>
      </trkpt>
      <trkpt lat="45.23102" lon="6.02705">
        <ele>2036.8000488</ele>
        <time>2013-04-13T06:25:32Z</time>
      </trkpt>
      <trkpt lat="45.23103" lon="6.02707">
        <ele>2036.8000488</ele>
        <time>2013-04-13T06:25:35Z</time>
      </trkpt>
      <trkpt lat="45.23104" lon="6.0271">
        <ele>2038</ele>
        <time>2013-04-13T06:25:38Z</time>
      </trkpt>
      <trkpt lat="45.23105" lon="6.02712">
        <ele>2039</ele>
        <time>2013-04-13T06:25:41Z</time>
      </trkpt>
      <trkpt lat="45.23105" lon="6.02715">
        <ele>2039</ele>
        <time>2013-04-13T06:25:44Z</time>
      </trkpt>
      <trkpt lat="45.23105" lon="6.02718">
        <ele>2039.4000244</ele>
        <time>2013-04-13T06:25:47Z</time>
      </trkpt>
      <trkpt lat="45.23105" lon="6.02721">
        <ele>2040.4000244</ele>
        <time>2013-04-13T06:25:50Z</time>
      </trkpt>
      <trkpt lat="45.23105" lon="6.02724">
        <ele>2041</ele>
        <time>2013-04-13T06:25:53Z</time>
      </trkpt>
      <trkpt lat="45.23106" lon="6.02727">
        <ele>2041.8000488</ele>
        <time>2013-04-13T06:25:56Z</time>
      </trkpt>
      <trkpt lat="45.23106" lon="6.02727">
        <ele>2042.8000488</ele>
        <time>2013-04-13T06:25:59Z</time>
      </trkpt>
      <trkpt lat="45.23108" lon="6.02725">
        <ele>2043.4000244</ele>
        <time>2013-04-13T06:26:02Z</time>
      </trkpt>
      <trkpt lat="45.23109" lon="6.02724">
        <ele>2044.8000488</ele>
        <time>2013-04-13T06:26:05Z</time>
      </trkpt>
      <trkpt lat="45.23112" lon="6.02722">
        <ele>2045</ele>
        <time>2013-04-13T06:26:08Z</time>
      </trkpt>
      <trkpt lat="45.23113" lon="6.0272">
        <ele>2045</ele>
        <time>2013-04-13T06:26:11Z</time>
      </trkpt>
      <trkpt lat="45.23115" lon="6.02719">
        <ele>2045.4000244</ele>
        <time>2013-04-13T06:26:14Z</time>
      </trkpt>
      <trkpt lat="45.23116" lon="6.02718">
        <ele>2046.4000244</ele>
        <time>2013-04-13T06:26:17Z</time>
      </trkpt>
      <trkpt lat="45.23117" lon="6.02717">
        <ele>2047</ele>
        <time>2013-04-13T06:26:20Z</time>
      </trkpt>
      <trkpt lat="45.23118" lon="6.02716">
        <ele>2047</ele>
        <time>2013-04-13T06:26:23Z</time>
      </trkpt>
      <trkpt lat="45.2312" lon="6.02714">
        <ele>2047.4000244</ele>
        <time>2013-04-13T06:26:26Z</time>
      </trkpt>
      <trkpt lat="45.23122" lon="6.02712">
        <ele>2048.8000488</ele>
        <time>2013-04-13T06:26:29Z</time>
      </trkpt>
      <trkpt lat="45.23123" lon="6.0271">
        <ele>2049</ele>
        <time>2013-04-13T06:26:32Z</time>
      </trkpt>
      <trkpt lat="45.23125" lon="6.02708">
        <ele>2049</ele>
        <time>2013-04-13T06:26:35Z</time>
      </trkpt>
      <trkpt lat="45.23127" lon="6.02706">
        <ele>2050</ele>
        <time>2013-04-13T06:26:38Z</time>
      </trkpt>
      <trkpt lat="45.23128" lon="6.02704">
        <ele>2051</ele>
        <time>2013-04-13T06:26:41Z</time>
      </trkpt>
      <trkpt lat="45.2313" lon="6.02701">
        <ele>2051.6000977</ele>
        <time>2013-04-13T06:26:44Z</time>
      </trkpt>
      <trkpt lat="45.23131" lon="6.02698">
        <ele>2053</ele>
        <time>2013-04-13T06:26:47Z</time>
      </trkpt>
      <trkpt lat="45.23131" lon="6.02696">
        <ele>2053.1999512</ele>
        <time>2013-04-13T06:26:50Z</time>
      </trkpt>
      <trkpt lat="45.23132" lon="6.02696">
        <ele>2053.1999512</ele>
        <time>2013-04-13T06:26:53Z</time>
      </trkpt>
      <trkpt lat="45.23131" lon="6.02696">
        <ele>2054.1999512</ele>
        <time>2013-04-13T06:26:56Z</time>
      </trkpt>
      <trkpt lat="45.23131" lon="6.02696">
        <ele>2055.1999512</ele>
        <time>2013-04-13T06:26:59Z</time>
      </trkpt>
      <trkpt lat="45.23131" lon="6.02696">
        <ele>2055.1999512</ele>
        <time>2013-04-13T06:27:02Z</time>
      </trkpt>
      <trkpt lat="45.23131" lon="6.02696">
        <ele>2055.1999512</ele>
        <time>2013-04-13T06:27:05Z</time>
      </trkpt>
      <trkpt lat="45.23131" lon="6.02697">
        <ele>2055.1999512</ele>
        <time>2013-04-13T06:27:08Z</time>
      </trkpt>
      <trkpt lat="45.23133" lon="6.02699">
        <ele>2055.1999512</ele>
        <time>2013-04-13T06:27:11Z</time>
      </trkpt>
      <trkpt lat="45.23133" lon="6.02702">
        <ele>2055.1999512</ele>
        <time>2013-04-13T06:27:14Z</time>
      </trkpt>
      <trkpt lat="45.23134" lon="6.02705">
        <ele>2055.1999512</ele>
        <time>2013-04-13T06:27:17Z</time>
      </trkpt>
      <trkpt lat="45.23136" lon="6.02708">
        <ele>2056</ele>
        <time>2013-04-13T06:27:20Z</time>
      </trkpt>
      <trkpt lat="45.23136" lon="6.0271">
        <ele>2057</ele>
        <time>2013-04-13T06:27:23Z</time>
      </trkpt>
      <trkpt lat="45.23138" lon="6.02713">
        <ele>2057.1999512</ele>
        <time>2013-04-13T06:27:26Z</time>
      </trkpt>
      <trkpt lat="45.23138" lon="6.02716">
        <ele>2058.1999512</ele>
        <time>2013-04-13T06:27:29Z</time>
      </trkpt>
      <trkpt lat="45.23139" lon="6.02718">
        <ele>2059.6000977</ele>
        <time>2013-04-13T06:27:32Z</time>
      </trkpt>
      <trkpt lat="45.2314" lon="6.02721">
        <ele>2059.6000977</ele>
        <time>2013-04-13T06:27:35Z</time>
      </trkpt>
      <trkpt lat="45.2314" lon="6.02724">
        <ele>2060.6000977</ele>
        <time>2013-04-13T06:27:38Z</time>
      </trkpt>
      <trkpt lat="45.23141" lon="6.02727">
        <ele>2061.6000977</ele>
        <time>2013-04-13T06:27:41Z</time>
      </trkpt>
      <trkpt lat="45.23141" lon="6.0273">
        <ele>2061.6000977</ele>
        <time>2013-04-13T06:27:44Z</time>
      </trkpt>
      <trkpt lat="45.23141" lon="6.02733">
        <ele>2062</ele>
        <time>2013-04-13T06:27:47Z</time>
      </trkpt>
      <trkpt lat="45.23141" lon="6.02735">
        <ele>2063.1999512</ele>
        <time>2013-04-13T06:27:50Z</time>
      </trkpt>
      <trkpt lat="45.23141" lon="6.02738">
        <ele>2063.8000488</ele>
        <time>2013-04-13T06:27:53Z</time>
      </trkpt>
      <trkpt lat="45.23141" lon="6.0274">
        <ele>2064.6000977</ele>
        <time>2013-04-13T06:27:56Z</time>
      </trkpt>
      <trkpt lat="45.23143" lon="6.02739">
        <ele>2065.6000977</ele>
        <time>2013-04-13T06:27:59Z</time>
      </trkpt>
      <trkpt lat="45.23145" lon="6.02737">
        <ele>2065.8000488</ele>
        <time>2013-04-13T06:28:02Z</time>
      </trkpt>
      <trkpt lat="45.23147" lon="6.02737">
        <ele>2065.8000488</ele>
        <time>2013-04-13T06:28:05Z</time>
      </trkpt>
      <trkpt lat="45.2315" lon="6.02735">
        <ele>2066.8000488</ele>
        <time>2013-04-13T06:28:08Z</time>
      </trkpt>
      <trkpt lat="45.23151" lon="6.02735">
        <ele>2067.6000977</ele>
        <time>2013-04-13T06:28:11Z</time>
      </trkpt>
      <trkpt lat="45.23154" lon="6.02734">
        <ele>2068</ele>
        <time>2013-04-13T06:28:14Z</time>
      </trkpt>
      <trkpt lat="45.23156" lon="6.02733">
        <ele>2069.1999512</ele>
        <time>2013-04-13T06:28:17Z</time>
      </trkpt>
      <trkpt lat="45.23158" lon="6.02732">
        <ele>2069.8000488</ele>
        <time>2013-04-13T06:28:20Z</time>
      </trkpt>
      <trkpt lat="45.23161" lon="6.02731">
        <ele>2069.8000488</ele>
        <time>2013-04-13T06:28:23Z</time>
      </trkpt>
      <trkpt lat="45.23163" lon="6.02732">
        <ele>2070</ele>
        <time>2013-04-13T06:28:26Z</time>
      </trkpt>
      <trkpt lat="45.23165" lon="6.02732">
        <ele>2071</ele>
        <time>2013-04-13T06:28:29Z</time>
      </trkpt>
      <trkpt lat="45.23168" lon="6.02732">
        <ele>2071.8000488</ele>
        <time>2013-04-13T06:28:32Z</time>
      </trkpt>
      <trkpt lat="45.2317" lon="6.02732">
        <ele>2072.1999512</ele>
        <time>2013-04-13T06:28:35Z</time>
      </trkpt>
      <trkpt lat="45.23172" lon="6.02732">
        <ele>2073.8000488</ele>
        <time>2013-04-13T06:28:38Z</time>
      </trkpt>
      <trkpt lat="45.23174" lon="6.02732">
        <ele>2075</ele>
        <time>2013-04-13T06:28:41Z</time>
      </trkpt>
      <trkpt lat="45.23176" lon="6.02733">
        <ele>2076.6000977</ele>
        <time>2013-04-13T06:28:44Z</time>
      </trkpt>
      <trkpt lat="45.23179" lon="6.02732">
        <ele>2076.6000977</ele>
        <time>2013-04-13T06:28:47Z</time>
      </trkpt>
      <trkpt lat="45.23181" lon="6.02732">
        <ele>2076.6000977</ele>
        <time>2013-04-13T06:28:50Z</time>
      </trkpt>
      <trkpt lat="45.23183" lon="6.02732">
        <ele>2076.6000977</ele>
        <time>2013-04-13T06:28:53Z</time>
      </trkpt>
      <trkpt lat="45.23185" lon="6.02731">
        <ele>2077.1999512</ele>
        <time>2013-04-13T06:28:56Z</time>
      </trkpt>
      <trkpt lat="45.23187" lon="6.0273">
        <ele>2078.6000977</ele>
        <time>2013-04-13T06:28:59Z</time>
      </trkpt>
      <trkpt lat="45.23189" lon="6.02729">
        <ele>2078.6000977</ele>
        <time>2013-04-13T06:29:02Z</time>
      </trkpt>
      <trkpt lat="45.23191" lon="6.02728">
        <ele>2079.6000977</ele>
        <time>2013-04-13T06:29:05Z</time>
      </trkpt>
      <trkpt lat="45.23194" lon="6.02726">
        <ele>2080.6000977</ele>
        <time>2013-04-13T06:29:08Z</time>
      </trkpt>
      <trkpt lat="45.23196" lon="6.02725">
        <ele>2080.6000977</ele>
        <time>2013-04-13T06:29:11Z</time>
      </trkpt>
      <trkpt lat="45.23198" lon="6.02723">
        <ele>2081.6000977</ele>
        <time>2013-04-13T06:29:14Z</time>
      </trkpt>
      <trkpt lat="45.23198" lon="6.02723">
        <ele>2082.8000488</ele>
        <time>2013-04-13T06:29:17Z</time>
      </trkpt>
      <trkpt lat="45.23198" lon="6.02723">
        <ele>2082.8000488</ele>
        <time>2013-04-13T06:29:20Z</time>
      </trkpt>
      <trkpt lat="45.23198" lon="6.02723">
        <ele>2082.8000488</ele>
        <time>2013-04-13T06:29:23Z</time>
      </trkpt>
      <trkpt lat="45.23198" lon="6.02723">
        <ele>2082.8000488</ele>
        <time>2013-04-13T06:29:26Z</time>
      </trkpt>
      <trkpt lat="45.23198" lon="6.02722">
        <ele>2082.8000488</ele>
        <time>2013-04-13T06:29:29Z</time>
      </trkpt>
      <trkpt lat="45.23198" lon="6.02722">
        <ele>2082.8000488</ele>
        <time>2013-04-13T06:29:32Z</time>
      </trkpt>
      <trkpt lat="45.23198" lon="6.02722">
        <ele>2082.8000488</ele>
        <time>2013-04-13T06:29:35Z</time>
      </trkpt>
      <trkpt lat="45.23198" lon="6.02722">
        <ele>2082.8000488</ele>
        <time>2013-04-13T06:29:38Z</time>
      </trkpt>
      <trkpt lat="45.23198" lon="6.02722">
        <ele>2082.8000488</ele>
        <time>2013-04-13T06:29:41Z</time>
      </trkpt>
      <trkpt lat="45.23198" lon="6.02722">
        <ele>2082.8000488</ele>
        <time>2013-04-13T06:29:44Z</time>
      </trkpt>
      <trkpt lat="45.23198" lon="6.02722">
        <ele>2082.8000488</ele>
        <time>2013-04-13T06:29:47Z</time>
      </trkpt>
      <trkpt lat="45.23198" lon="6.02723">
        <ele>2082.8000488</ele>
        <time>2013-04-13T06:29:50Z</time>
      </trkpt>
      <trkpt lat="45.23198" lon="6.02723">
        <ele>2082.8000488</ele>
        <time>2013-04-13T06:29:53Z</time>
      </trkpt>
      <trkpt lat="45.232" lon="6.02721">
        <ele>2082.8000488</ele>
        <time>2013-04-13T06:29:56Z</time>
      </trkpt>
      <trkpt lat="45.23201" lon="6.0272">
        <ele>2083.1999512</ele>
        <time>2013-04-13T06:29:59Z</time>
      </trkpt>
      <trkpt lat="45.23203" lon="6.02718">
        <ele>2084.6000977</ele>
        <time>2013-04-13T06:30:02Z</time>
      </trkpt>
      <trkpt lat="45.23204" lon="6.02717">
        <ele>2084.8000488</ele>
        <time>2013-04-13T06:30:05Z</time>
      </trkpt>
      <trkpt lat="45.23207" lon="6.02715">
        <ele>2085</ele>
        <time>2013-04-13T06:30:08Z</time>
      </trkpt>
      <trkpt lat="45.23207" lon="6.02714">
        <ele>2086.1999512</ele>
        <time>2013-04-13T06:30:11Z</time>
      </trkpt>
      <trkpt lat="45.23208" lon="6.02713">
        <ele>2086.8000488</ele>
        <time>2013-04-13T06:30:14Z</time>
      </trkpt>
      <trkpt lat="45.23209" lon="6.02711">
        <ele>2086.8000488</ele>
        <time>2013-04-13T06:30:17Z</time>
      </trkpt>
      <trkpt lat="45.23211" lon="6.02709">
        <ele>2087.1999512</ele>
        <time>2013-04-13T06:30:20Z</time>
      </trkpt>
      <trkpt lat="45.23211" lon="6.02707">
        <ele>2088.1999512</ele>
        <time>2013-04-13T06:30:23Z</time>
      </trkpt>
      <trkpt lat="45.23212" lon="6.02708">
        <ele>2088.8000488</ele>
        <time>2013-04-13T06:30:26Z</time>
      </trkpt>
      <trkpt lat="45.23213" lon="6.02711">
        <ele>2088.8000488</ele>
        <time>2013-04-13T06:30:29Z</time>
      </trkpt>
      <trkpt lat="45.23214" lon="6.02714">
        <ele>2089</ele>
        <time>2013-04-13T06:30:32Z</time>
      </trkpt>
      <trkpt lat="45.23215" lon="6.02716">
        <ele>2090.1999512</ele>
        <time>2013-04-13T06:30:35Z</time>
      </trkpt>
      <trkpt lat="45.23216" lon="6.0272">
        <ele>2090.8000488</ele>
        <time>2013-04-13T06:30:38Z</time>
      </trkpt>
      <trkpt lat="45.23217" lon="6.02722">
        <ele>2090.8000488</ele>
        <time>2013-04-13T06:30:41Z</time>
      </trkpt>
      <trkpt lat="45.23217" lon="6.02722">
        <ele>2091.8000488</ele>
        <time>2013-04-13T06:30:44Z</time>
      </trkpt>
      <trkpt lat="45.23217" lon="6.02722">
        <ele>2093</ele>
        <time>2013-04-13T06:30:47Z</time>
      </trkpt>
      <trkpt lat="45.23217" lon="6.02723">
        <ele>2093</ele>
        <time>2013-04-13T06:30:50Z</time>
      </trkpt>
      <trkpt lat="45.23217" lon="6.02723">
        <ele>2093</ele>
        <time>2013-04-13T06:30:53Z</time>
      </trkpt>
      <trkpt lat="45.23217" lon="6.02725">
        <ele>2093</ele>
        <time>2013-04-13T06:30:56Z</time>
      </trkpt>
      <trkpt lat="45.23218" lon="6.02727">
        <ele>2093</ele>
        <time>2013-04-13T06:30:59Z</time>
      </trkpt>
      <trkpt lat="45.23219" lon="6.02731">
        <ele>2093</ele>
        <time>2013-04-13T06:31:02Z</time>
      </trkpt>
      <trkpt lat="45.2322" lon="6.02733">
        <ele>2093.1999512</ele>
        <time>2013-04-13T06:31:05Z</time>
      </trkpt>
      <trkpt lat="45.2322" lon="6.02737">
        <ele>2094.6000977</ele>
        <time>2013-04-13T06:31:08Z</time>
      </trkpt>
      <trkpt lat="45.2322" lon="6.02739">
        <ele>2095</ele>
        <time>2013-04-13T06:31:11Z</time>
      </trkpt>
      <trkpt lat="45.2322" lon="6.02742">
        <ele>2096.6000977</ele>
        <time>2013-04-13T06:31:14Z</time>
      </trkpt>
      <trkpt lat="45.2322" lon="6.02744">
        <ele>2097</ele>
        <time>2013-04-13T06:31:17Z</time>
      </trkpt>
      <trkpt lat="45.2322" lon="6.02746">
        <ele>2097</ele>
        <time>2013-04-13T06:31:20Z</time>
      </trkpt>
      <trkpt lat="45.2322" lon="6.02747">
        <ele>2098</ele>
        <time>2013-04-13T06:31:23Z</time>
      </trkpt>
      <trkpt lat="45.2322" lon="6.02747">
        <ele>2099</ele>
        <time>2013-04-13T06:31:26Z</time>
      </trkpt>
      <trkpt lat="45.2322" lon="6.02747">
        <ele>2099</ele>
        <time>2013-04-13T06:31:29Z</time>
      </trkpt>
      <trkpt lat="45.2322" lon="6.02747">
        <ele>2099</ele>
        <time>2013-04-13T06:31:32Z</time>
      </trkpt>
      <trkpt lat="45.23219" lon="6.02747">
        <ele>2099</ele>
        <time>2013-04-13T06:31:35Z</time>
      </trkpt>
      <trkpt lat="45.23219" lon="6.02747">
        <ele>2099</ele>
        <time>2013-04-13T06:31:38Z</time>
      </trkpt>
      <trkpt lat="45.23219" lon="6.02748">
        <ele>2099</ele>
        <time>2013-04-13T06:31:41Z</time>
      </trkpt>
      <trkpt lat="45.23219" lon="6.02747">
        <ele>2099</ele>
        <time>2013-04-13T06:31:44Z</time>
      </trkpt>
      <trkpt lat="45.23219" lon="6.02748">
        <ele>2099</ele>
        <time>2013-04-13T06:31:47Z</time>
      </trkpt>
      <trkpt lat="45.23219" lon="6.02748">
        <ele>2099</ele>
        <time>2013-04-13T06:31:50Z</time>
      </trkpt>
      <trkpt lat="45.23219" lon="6.02748">
        <ele>2099</ele>
        <time>2013-04-13T06:31:53Z</time>
      </trkpt>
      <trkpt lat="45.23219" lon="6.02748">
        <ele>2099</ele>
        <time>2013-04-13T06:31:56Z</time>
      </trkpt>
      <trkpt lat="45.23219" lon="6.02748">
        <ele>2099</ele>
        <time>2013-04-13T06:31:59Z</time>
      </trkpt>
      <trkpt lat="45.23219" lon="6.02748">
        <ele>2099</ele>
        <time>2013-04-13T06:32:02Z</time>
      </trkpt>
      <trkpt lat="45.23219" lon="6.02748">
        <ele>2099</ele>
        <time>2013-04-13T06:32:05Z</time>
      </trkpt>
      <trkpt lat="45.23218" lon="6.02748">
        <ele>2099</ele>
        <time>2013-04-13T06:32:08Z</time>
      </trkpt>
      <trkpt lat="45.23218" lon="6.02748">
        <ele>2099</ele>
        <time>2013-04-13T06:32:11Z</time>
      </trkpt>
      <trkpt lat="45.23219" lon="6.02749">
        <ele>2099</ele>
        <time>2013-04-13T06:32:14Z</time>
      </trkpt>
      <trkpt lat="45.23216" lon="6.02748">
        <ele>2099</ele>
        <time>2013-04-13T06:32:17Z</time>
      </trkpt>
      <trkpt lat="45.23216" lon="6.02747">
        <ele>2099</ele>
        <time>2013-04-13T06:32:20Z</time>
      </trkpt>
      <trkpt lat="45.23216" lon="6.02747">
        <ele>2099</ele>
        <time>2013-04-13T06:32:23Z</time>
      </trkpt>
      <trkpt lat="45.23216" lon="6.02747">
        <ele>2099</ele>
        <time>2013-04-13T06:32:26Z</time>
      </trkpt>
      <trkpt lat="45.23216" lon="6.02747">
        <ele>2099</ele>
        <time>2013-04-13T06:32:29Z</time>
      </trkpt>
      <trkpt lat="45.23216" lon="6.02747">
        <ele>2099</ele>
        <time>2013-04-13T06:32:32Z</time>
      </trkpt>
      <trkpt lat="45.23216" lon="6.02747">
        <ele>2099</ele>
        <time>2013-04-13T06:32:35Z</time>
      </trkpt>
      <trkpt lat="45.23216" lon="6.02747">
        <ele>2099</ele>
        <time>2013-04-13T06:32:38Z</time>
      </trkpt>
      <trkpt lat="45.23216" lon="6.02747">
        <ele>2099</ele>
        <time>2013-04-13T06:32:41Z</time>
      </trkpt>
      <trkpt lat="45.23216" lon="6.02748">
        <ele>2099</ele>
        <time>2013-04-13T06:32:44Z</time>
      </trkpt>
      <trkpt lat="45.23216" lon="6.02751">
        <ele>2099</ele>
        <time>2013-04-13T06:32:47Z</time>
      </trkpt>
      <trkpt lat="45.23218" lon="6.02751">
        <ele>2099</ele>
        <time>2013-04-13T06:32:50Z</time>
      </trkpt>
      <trkpt lat="45.2322" lon="6.02749">
        <ele>2099.1999512</ele>
        <time>2013-04-13T06:32:53Z</time>
      </trkpt>
      <trkpt lat="45.23223" lon="6.02748">
        <ele>2100.6000977</ele>
        <time>2013-04-13T06:32:56Z</time>
      </trkpt>
      <trkpt lat="45.23223" lon="6.02746">
        <ele>2101</ele>
        <time>2013-04-13T06:32:59Z</time>
      </trkpt>
      <trkpt lat="45.23224" lon="6.02746">
        <ele>2101</ele>
        <time>2013-04-13T06:33:02Z</time>
      </trkpt>
      <trkpt lat="45.23225" lon="6.02745">
        <ele>2101</ele>
        <time>2013-04-13T06:33:05Z</time>
      </trkpt>
      <trkpt lat="45.23225" lon="6.02745">
        <ele>2101</ele>
        <time>2013-04-13T06:33:08Z</time>
      </trkpt>
      <trkpt lat="45.23225" lon="6.02745">
        <ele>2101</ele>
        <time>2013-04-13T06:33:11Z</time>
      </trkpt>
      <trkpt lat="45.23225" lon="6.02745">
        <ele>2101</ele>
        <time>2013-04-13T06:33:14Z</time>
      </trkpt>
      <trkpt lat="45.23226" lon="6.02745">
        <ele>2101</ele>
        <time>2013-04-13T06:33:17Z</time>
      </trkpt>
      <trkpt lat="45.23228" lon="6.02744">
        <ele>2101</ele>
        <time>2013-04-13T06:33:20Z</time>
      </trkpt>
      <trkpt lat="45.23229" lon="6.02743">
        <ele>2102.1999512</ele>
        <time>2013-04-13T06:33:23Z</time>
      </trkpt>
      <trkpt lat="45.23232" lon="6.02741">
        <ele>2103</ele>
        <time>2013-04-13T06:33:26Z</time>
      </trkpt>
      <trkpt lat="45.23234" lon="6.0274">
        <ele>2103</ele>
        <time>2013-04-13T06:33:29Z</time>
      </trkpt>
      <trkpt lat="45.23236" lon="6.02738">
        <ele>2104</ele>
        <time>2013-04-13T06:33:32Z</time>
      </trkpt>
      <trkpt lat="45.23238" lon="6.02736">
        <ele>2105</ele>
        <time>2013-04-13T06:33:35Z</time>
      </trkpt>
      <trkpt lat="45.23241" lon="6.02734">
        <ele>2105.1999512</ele>
        <time>2013-04-13T06:33:38Z</time>
      </trkpt>
      <trkpt lat="45.23242" lon="6.02732">
        <ele>2106.1999512</ele>
        <time>2013-04-13T06:33:41Z</time>
      </trkpt>
      <trkpt lat="45.23243" lon="6.0273">
        <ele>2107.1999512</ele>
        <time>2013-04-13T06:33:44Z</time>
      </trkpt>
      <trkpt lat="45.23244" lon="6.02727">
        <ele>2107.6000977</ele>
        <time>2013-04-13T06:33:47Z</time>
      </trkpt>
      <trkpt lat="45.23245" lon="6.02725">
        <ele>2108.6000977</ele>
        <time>2013-04-13T06:33:50Z</time>
      </trkpt>
      <trkpt lat="45.23245" lon="6.02726">
        <ele>2109.1999512</ele>
        <time>2013-04-13T06:33:53Z</time>
      </trkpt>
      <trkpt lat="45.23246" lon="6.02722">
        <ele>2109.1999512</ele>
        <time>2013-04-13T06:33:56Z</time>
      </trkpt>
      <trkpt lat="45.23246" lon="6.0272">
        <ele>2109.1999512</ele>
        <time>2013-04-13T06:33:59Z</time>
      </trkpt>
      <trkpt lat="45.23247" lon="6.02717">
        <ele>2109.8000488</ele>
        <time>2013-04-13T06:34:02Z</time>
      </trkpt>
      <trkpt lat="45.23247" lon="6.02714">
        <ele>2111</ele>
        <time>2013-04-13T06:34:05Z</time>
      </trkpt>
      <trkpt lat="45.23248" lon="6.02712">
        <ele>2111.6000977</ele>
        <time>2013-04-13T06:34:08Z</time>
      </trkpt>
      <trkpt lat="45.23248" lon="6.02712">
        <ele>2112.6000977</ele>
        <time>2013-04-13T06:34:11Z</time>
      </trkpt>
      <trkpt lat="45.23249" lon="6.02715">
        <ele>2113.6000977</ele>
        <time>2013-04-13T06:34:14Z</time>
      </trkpt>
      <trkpt lat="45.2325" lon="6.02717">
        <ele>2113.6000977</ele>
        <time>2013-04-13T06:34:17Z</time>
      </trkpt>
      <trkpt lat="45.23252" lon="6.02719">
        <ele>2113.6000977</ele>
        <time>2013-04-13T06:34:20Z</time>
      </trkpt>
      <trkpt lat="45.23253" lon="6.02721">
        <ele>2114</ele>
        <time>2013-04-13T06:34:23Z</time>
      </trkpt>
      <trkpt lat="45.23255" lon="6.02724">
        <ele>2115</ele>
        <time>2013-04-13T06:34:26Z</time>
      </trkpt>
      <trkpt lat="45.23256" lon="6.02726">
        <ele>2115.6000977</ele>
        <time>2013-04-13T06:34:29Z</time>
      </trkpt>
      <trkpt lat="45.23257" lon="6.02728">
        <ele>2115.6000977</ele>
        <time>2013-04-13T06:34:32Z</time>
      </trkpt>
      <trkpt lat="45.23258" lon="6.0273">
        <ele>2116.6000977</ele>
        <time>2013-04-13T06:34:35Z</time>
      </trkpt>
      <trkpt lat="45.2326" lon="6.02732">
        <ele>2117.6000977</ele>
        <time>2013-04-13T06:34:38Z</time>
      </trkpt>
      <trkpt lat="45.23261" lon="6.02735">
        <ele>2117.6000977</ele>
        <time>2013-04-13T06:34:41Z</time>
      </trkpt>
      <trkpt lat="45.23262" lon="6.02737">
        <ele>2118.1999512</ele>
        <time>2013-04-13T06:34:44Z</time>
      </trkpt>
      <trkpt lat="45.23262" lon="6.0274">
        <ele>2119</ele>
        <time>2013-04-13T06:34:47Z</time>
      </trkpt>
      <trkpt lat="45.23263" lon="6.02742">
        <ele>2119.8000488</ele>
        <time>2013-04-13T06:34:50Z</time>
      </trkpt>
      <trkpt lat="45.23264" lon="6.02745">
        <ele>2119.8000488</ele>
        <time>2013-04-13T06:34:53Z</time>
      </trkpt>
      <trkpt lat="45.23265" lon="6.02748">
        <ele>2121</ele>
        <time>2013-04-13T06:34:56Z</time>
      </trkpt>
      <trkpt lat="45.23265" lon="6.02751">
        <ele>2121.8000488</ele>
        <time>2013-04-13T06:34:59Z</time>
      </trkpt>
      <trkpt lat="45.23266" lon="6.02754">
        <ele>2121.8000488</ele>
        <time>2013-04-13T06:35:02Z</time>
      </trkpt>
      <trkpt lat="45.23266" lon="6.02756">
        <ele>2122.6000977</ele>
        <time>2013-04-13T06:35:05Z</time>
      </trkpt>
      <trkpt lat="45.23267" lon="6.02759">
        <ele>2123.8000488</ele>
        <time>2013-04-13T06:35:08Z</time>
      </trkpt>
      <trkpt lat="45.23267" lon="6.02761">
        <ele>2124</ele>
        <time>2013-04-13T06:35:11Z</time>
      </trkpt>
      <trkpt lat="45.23267" lon="6.02764">
        <ele>2124.6000977</ele>
        <time>2013-04-13T06:35:14Z</time>
      </trkpt>
      <trkpt lat="45.23267" lon="6.02767">
        <ele>2126</ele>
        <time>2013-04-13T06:35:17Z</time>
      </trkpt>
      <trkpt lat="45.23267" lon="6.02768">
        <ele>2126</ele>
        <time>2013-04-13T06:35:20Z</time>
      </trkpt>
      <trkpt lat="45.23267" lon="6.02771">
        <ele>2126.1999512</ele>
        <time>2013-04-13T06:35:23Z</time>
      </trkpt>
      <trkpt lat="45.23267" lon="6.02771">
        <ele>2127.6000977</ele>
        <time>2013-04-13T06:35:26Z</time>
      </trkpt>
      <trkpt lat="45.23266" lon="6.02771">
        <ele>2128</ele>
        <time>2013-04-13T06:35:29Z</time>
      </trkpt>
      <trkpt lat="45.23266" lon="6.02772">
        <ele>2128</ele>
        <time>2013-04-13T06:35:32Z</time>
      </trkpt>
      <trkpt lat="45.23267" lon="6.02773">
        <ele>2128</ele>
        <time>2013-04-13T06:35:35Z</time>
      </trkpt>
      <trkpt lat="45.23269" lon="6.02773">
        <ele>2128</ele>
        <time>2013-04-13T06:35:38Z</time>
      </trkpt>
      <trkpt lat="45.23271" lon="6.02773">
        <ele>2128.6000977</ele>
        <time>2013-04-13T06:35:41Z</time>
      </trkpt>
      <trkpt lat="45.23274" lon="6.02772">
        <ele>2129.6000977</ele>
        <time>2013-04-13T06:35:44Z</time>
      </trkpt>
      <trkpt lat="45.23276" lon="6.02772">
        <ele>2130</ele>
        <time>2013-04-13T06:35:47Z</time>
      </trkpt>
      <trkpt lat="45.23279" lon="6.02772">
        <ele>2130</ele>
        <time>2013-04-13T06:35:50Z</time>
      </trkpt>
      <trkpt lat="45.23281" lon="6.02771">
        <ele>2131</ele>
        <time>2013-04-13T06:35:53Z</time>
      </trkpt>
      <trkpt lat="45.23284" lon="6.0277">
        <ele>2132</ele>
        <time>2013-04-13T06:35:56Z</time>
      </trkpt>
      <trkpt lat="45.23285" lon="6.0277">
        <ele>2132.6000977</ele>
        <time>2013-04-13T06:35:59Z</time>
      </trkpt>
      <trkpt lat="45.23288" lon="6.02769">
        <ele>2133.8000488</ele>
        <time>2013-04-13T06:36:02Z</time>
      </trkpt>
      <trkpt lat="45.23289" lon="6.02769">
        <ele>2134</ele>
        <time>2013-04-13T06:36:05Z</time>
      </trkpt>
      <trkpt lat="45.23292" lon="6.02769">
        <ele>2134</ele>
        <time>2013-04-13T06:36:08Z</time>
      </trkpt>
      <trkpt lat="45.23294" lon="6.02769">
        <ele>2135</ele>
        <time>2013-04-13T06:36:11Z</time>
      </trkpt>
      <trkpt lat="45.23297" lon="6.0277">
        <ele>2136.1999512</ele>
        <time>2013-04-13T06:36:14Z</time>
      </trkpt>
      <trkpt lat="45.23299" lon="6.0277">
        <ele>2136.1999512</ele>
        <time>2013-04-13T06:36:17Z</time>
      </trkpt>
      <trkpt lat="45.23302" lon="6.0277">
        <ele>2137.6000977</ele>
        <time>2013-04-13T06:36:20Z</time>
      </trkpt>
      <trkpt lat="45.23304" lon="6.02771">
        <ele>2138.1999512</ele>
        <time>2013-04-13T06:36:23Z</time>
      </trkpt>
      <trkpt lat="45.23307" lon="6.02772">
        <ele>2138.1999512</ele>
        <time>2013-04-13T06:36:26Z</time>
      </trkpt>
      <trkpt lat="45.2331" lon="6.02773">
        <ele>2138.6000977</ele>
        <time>2013-04-13T06:36:29Z</time>
      </trkpt>
      <trkpt lat="45.23313" lon="6.02774">
        <ele>2139.8000488</ele>
        <time>2013-04-13T06:36:32Z</time>
      </trkpt>
      <trkpt lat="45.23316" lon="6.02776">
        <ele>2140.1999512</ele>
        <time>2013-04-13T06:36:35Z</time>
      </trkpt>
      <trkpt lat="45.23319" lon="6.02778">
        <ele>2140.1999512</ele>
        <time>2013-04-13T06:36:38Z</time>
      </trkpt>
      <trkpt lat="45.23322" lon="6.02779">
        <ele>2140.1999512</ele>
        <time>2013-04-13T06:36:41Z</time>
      </trkpt>
      <trkpt lat="45.23325" lon="6.02781">
        <ele>2140.1999512</ele>
        <time>2013-04-13T06:36:44Z</time>
      </trkpt>
      <trkpt lat="45.23329" lon="6.02783">
        <ele>2140.1999512</ele>
        <time>2013-04-13T06:36:47Z</time>
      </trkpt>
      <trkpt lat="45.23332" lon="6.02785">
        <ele>2140.1999512</ele>
        <time>2013-04-13T06:36:50Z</time>
      </trkpt>
      <trkpt lat="45.23336" lon="6.02788">
        <ele>2140.1999512</ele>
        <time>2013-04-13T06:36:53Z</time>
      </trkpt>
      <trkpt lat="45.23339" lon="6.0279">
        <ele>2140.1999512</ele>
        <time>2013-04-13T06:36:56Z</time>
      </trkpt>
      <trkpt lat="45.23342" lon="6.02792">
        <ele>2140.1999512</ele>
        <time>2013-04-13T06:36:59Z</time>
      </trkpt>
      <trkpt lat="45.23345" lon="6.02794">
        <ele>2140.1999512</ele>
        <time>2013-04-13T06:37:02Z</time>
      </trkpt>
      <trkpt lat="45.23347" lon="6.02795">
        <ele>2140.6000977</ele>
        <time>2013-04-13T06:37:05Z</time>
      </trkpt>
      <trkpt lat="45.23351" lon="6.02797">
        <ele>2141.8000488</ele>
        <time>2013-04-13T06:37:08Z</time>
      </trkpt>
      <trkpt lat="45.23353" lon="6.02798">
        <ele>2142.1999512</ele>
        <time>2013-04-13T06:37:11Z</time>
      </trkpt>
      <trkpt lat="45.23356" lon="6.028">
        <ele>2142.1999512</ele>
        <time>2013-04-13T06:37:14Z</time>
      </trkpt>
      <trkpt lat="45.23358" lon="6.02801">
        <ele>2142.1999512</ele>
        <time>2013-04-13T06:37:17Z</time>
      </trkpt>
      <trkpt lat="45.23361" lon="6.02802">
        <ele>2142.1999512</ele>
        <time>2013-04-13T06:37:20Z</time>
      </trkpt>
      <trkpt lat="45.23364" lon="6.02804">
        <ele>2143</ele>
        <time>2013-04-13T06:37:23Z</time>
      </trkpt>
      <trkpt lat="45.23367" lon="6.02806">
        <ele>2144</ele>
        <time>2013-04-13T06:37:26Z</time>
      </trkpt>
      <trkpt lat="45.23369" lon="6.02808">
        <ele>2144.1999512</ele>
        <time>2013-04-13T06:37:29Z</time>
      </trkpt>
      <trkpt lat="45.23373" lon="6.02809">
        <ele>2144.1999512</ele>
        <time>2013-04-13T06:37:32Z</time>
      </trkpt>
      <trkpt lat="45.23375" lon="6.02811">
        <ele>2144.1999512</ele>
        <time>2013-04-13T06:37:35Z</time>
      </trkpt>
      <trkpt lat="45.23379" lon="6.02814">
        <ele>2144.1999512</ele>
        <time>2013-04-13T06:37:38Z</time>
      </trkpt>
      <trkpt lat="45.23382" lon="6.02815">
        <ele>2144.1999512</ele>
        <time>2013-04-13T06:37:41Z</time>
      </trkpt>
      <trkpt lat="45.23386" lon="6.02817">
        <ele>2144.1999512</ele>
        <time>2013-04-13T06:37:44Z</time>
      </trkpt>
      <trkpt lat="45.23389" lon="6.02819">
        <ele>2144.1999512</ele>
        <time>2013-04-13T06:37:47Z</time>
      </trkpt>
      <trkpt lat="45.23393" lon="6.02821">
        <ele>2144.1999512</ele>
        <time>2013-04-13T06:37:50Z</time>
      </trkpt>
      <trkpt lat="45.23396" lon="6.02822">
        <ele>2144.1999512</ele>
        <time>2013-04-13T06:37:53Z</time>
      </trkpt>
      <trkpt lat="45.234" lon="6.02824">
        <ele>2144.1999512</ele>
        <time>2013-04-13T06:37:56Z</time>
      </trkpt>
      <trkpt lat="45.23404" lon="6.02825">
        <ele>2144.1999512</ele>
        <time>2013-04-13T06:37:59Z</time>
      </trkpt>
      <trkpt lat="45.23409" lon="6.02826">
        <ele>2144.1999512</ele>
        <time>2013-04-13T06:38:02Z</time>
      </trkpt>
      <trkpt lat="45.23412" lon="6.02826">
        <ele>2144.1999512</ele>
        <time>2013-04-13T06:38:05Z</time>
      </trkpt>
      <trkpt lat="45.23418" lon="6.02823">
        <ele>2144.1999512</ele>
        <time>2013-04-13T06:38:08Z</time>
      </trkpt>
      <trkpt lat="45.23421" lon="6.02824">
        <ele>2143.8000488</ele>
        <time>2013-04-13T06:38:11Z</time>
      </trkpt>
      <trkpt lat="45.23426" lon="6.02825">
        <ele>2142.1999512</ele>
        <time>2013-04-13T06:38:14Z</time>
      </trkpt>
      <trkpt lat="45.23429" lon="6.02826">
        <ele>2142</ele>
        <time>2013-04-13T06:38:17Z</time>
      </trkpt>
      <trkpt lat="45.23432" lon="6.02828">
        <ele>2142</ele>
        <time>2013-04-13T06:38:20Z</time>
      </trkpt>
      <trkpt lat="45.23436" lon="6.0283">
        <ele>2142</ele>
        <time>2013-04-13T06:38:23Z</time>
      </trkpt>
      <trkpt lat="45.23439" lon="6.02832">
        <ele>2142</ele>
        <time>2013-04-13T06:38:26Z</time>
      </trkpt>
      <trkpt lat="45.23441" lon="6.02834">
        <ele>2142</ele>
        <time>2013-04-13T06:38:29Z</time>
      </trkpt>
      <trkpt lat="45.23444" lon="6.02837">
        <ele>2142</ele>
        <time>2013-04-13T06:38:32Z</time>
      </trkpt>
      <trkpt lat="45.23446" lon="6.02839">
        <ele>2142</ele>
        <time>2013-04-13T06:38:35Z</time>
      </trkpt>
      <trkpt lat="45.23447" lon="6.0284">
        <ele>2142</ele>
        <time>2013-04-13T06:38:38Z</time>
      </trkpt>
      <trkpt lat="45.23449" lon="6.02842">
        <ele>2142</ele>
        <time>2013-04-13T06:38:41Z</time>
      </trkpt>
      <trkpt lat="45.23451" lon="6.02844">
        <ele>2142</ele>
        <time>2013-04-13T06:38:44Z</time>
      </trkpt>
      <trkpt lat="45.23453" lon="6.02846">
        <ele>2143</ele>
        <time>2013-04-13T06:38:47Z</time>
      </trkpt>
      <trkpt lat="45.23456" lon="6.02849">
        <ele>2144</ele>
        <time>2013-04-13T06:38:50Z</time>
      </trkpt>
      <trkpt lat="45.23458" lon="6.02851">
        <ele>2144</ele>
        <time>2013-04-13T06:38:53Z</time>
      </trkpt>
      <trkpt lat="45.2346" lon="6.02854">
        <ele>2145</ele>
        <time>2013-04-13T06:38:56Z</time>
      </trkpt>
      <trkpt lat="45.23462" lon="6.02857">
        <ele>2146</ele>
        <time>2013-04-13T06:38:59Z</time>
      </trkpt>
      <trkpt lat="45.23465" lon="6.02859">
        <ele>2146.1999512</ele>
        <time>2013-04-13T06:39:02Z</time>
      </trkpt>
      <trkpt lat="45.23467" lon="6.02862">
        <ele>2146.1999512</ele>
        <time>2013-04-13T06:39:05Z</time>
      </trkpt>
      <trkpt lat="45.2347" lon="6.02865">
        <ele>2146.1999512</ele>
        <time>2013-04-13T06:39:08Z</time>
      </trkpt>
      <trkpt lat="45.23473" lon="6.02868">
        <ele>2146.1999512</ele>
        <time>2013-04-13T06:39:11Z</time>
      </trkpt>
      <trkpt lat="45.23476" lon="6.02873">
        <ele>2146.8000488</ele>
        <time>2013-04-13T06:39:14Z</time>
      </trkpt>
      <trkpt lat="45.23478" lon="6.02877">
        <ele>2148</ele>
        <time>2013-04-13T06:39:17Z</time>
      </trkpt>
      <trkpt lat="45.23482" lon="6.02881">
        <ele>2148.1999512</ele>
        <time>2013-04-13T06:39:20Z</time>
      </trkpt>
      <trkpt lat="45.23484" lon="6.02885">
        <ele>2148.1999512</ele>
        <time>2013-04-13T06:39:23Z</time>
      </trkpt>
      <trkpt lat="45.23487" lon="6.02889">
        <ele>2148.1999512</ele>
        <time>2013-04-13T06:39:26Z</time>
      </trkpt>
      <trkpt lat="45.2349" lon="6.02893">
        <ele>2148.1999512</ele>
        <time>2013-04-13T06:39:29Z</time>
      </trkpt>
      <trkpt lat="45.23493" lon="6.02896">
        <ele>2148.1999512</ele>
        <time>2013-04-13T06:39:32Z</time>
      </trkpt>
      <trkpt lat="45.23495" lon="6.02898">
        <ele>2148.1999512</ele>
        <time>2013-04-13T06:39:35Z</time>
      </trkpt>
      <trkpt lat="45.23499" lon="6.02901">
        <ele>2148.1999512</ele>
        <time>2013-04-13T06:39:38Z</time>
      </trkpt>
      <trkpt lat="45.23501" lon="6.02902">
        <ele>2148.1999512</ele>
        <time>2013-04-13T06:39:41Z</time>
      </trkpt>
      <trkpt lat="45.23504" lon="6.02904">
        <ele>2148.1999512</ele>
        <time>2013-04-13T06:39:44Z</time>
      </trkpt>
      <trkpt lat="45.23507" lon="6.02905">
        <ele>2148.1999512</ele>
        <time>2013-04-13T06:39:47Z</time>
      </trkpt>
      <trkpt lat="45.2351" lon="6.02907">
        <ele>2149</ele>
        <time>2013-04-13T06:39:50Z</time>
      </trkpt>
      <trkpt lat="45.23513" lon="6.02908">
        <ele>2150</ele>
        <time>2013-04-13T06:39:53Z</time>
      </trkpt>
      <trkpt lat="45.23516" lon="6.0291">
        <ele>2150.1999512</ele>
        <time>2013-04-13T06:39:56Z</time>
      </trkpt>
      <trkpt lat="45.23518" lon="6.02912">
        <ele>2151</ele>
        <time>2013-04-13T06:39:59Z</time>
      </trkpt>
      <trkpt lat="45.23521" lon="6.02914">
        <ele>2152.1999512</ele>
        <time>2013-04-13T06:40:02Z</time>
      </trkpt>
      <trkpt lat="45.23523" lon="6.02915">
        <ele>2152.6000977</ele>
        <time>2013-04-13T06:40:05Z</time>
      </trkpt>
      <trkpt lat="45.23526" lon="6.02918">
        <ele>2153.1999512</ele>
        <time>2013-04-13T06:40:08Z</time>
      </trkpt>
      <trkpt lat="45.23528" lon="6.02919">
        <ele>2154.1999512</ele>
        <time>2013-04-13T06:40:11Z</time>
      </trkpt>
      <trkpt lat="45.23532" lon="6.02921">
        <ele>2154.6000977</ele>
        <time>2013-04-13T06:40:14Z</time>
      </trkpt>
      <trkpt lat="45.23534" lon="6.02923">
        <ele>2154.6000977</ele>
        <time>2013-04-13T06:40:17Z</time>
      </trkpt>
      <trkpt lat="45.23536" lon="6.02925">
        <ele>2155.8000488</ele>
        <time>2013-04-13T06:40:20Z</time>
      </trkpt>
      <trkpt lat="45.23538" lon="6.02927">
        <ele>2156.6000977</ele>
        <time>2013-04-13T06:40:23Z</time>
      </trkpt>
      <trkpt lat="45.23541" lon="6.02928">
        <ele>2157</ele>
        <time>2013-04-13T06:40:26Z</time>
      </trkpt>
      <trkpt lat="45.23543" lon="6.0293">
        <ele>2158</ele>
        <time>2013-04-13T06:40:29Z</time>
      </trkpt>
      <trkpt lat="45.23546" lon="6.02932">
        <ele>2158.8000488</ele>
        <time>2013-04-13T06:40:32Z</time>
      </trkpt>
      <trkpt lat="45.23545" lon="6.02931">
        <ele>2158.8000488</ele>
        <time>2013-04-13T06:40:35Z</time>
      </trkpt>
      <trkpt lat="45.23545" lon="6.02931">
        <ele>2158.8000488</ele>
        <time>2013-04-13T06:40:38Z</time>
      </trkpt>
      <trkpt lat="45.23547" lon="6.02933">
        <ele>2158.8000488</ele>
        <time>2013-04-13T06:40:41Z</time>
      </trkpt>
      <trkpt lat="45.2355" lon="6.02935">
        <ele>2159</ele>
        <time>2013-04-13T06:40:44Z</time>
      </trkpt>
      <trkpt lat="45.23552" lon="6.02937">
        <ele>2160.1999512</ele>
        <time>2013-04-13T06:40:47Z</time>
      </trkpt>
      <trkpt lat="45.23555" lon="6.02938">
        <ele>2160.8000488</ele>
        <time>2013-04-13T06:40:50Z</time>
      </trkpt>
      <trkpt lat="45.23556" lon="6.02938">
        <ele>2160.8000488</ele>
        <time>2013-04-13T06:40:53Z</time>
      </trkpt>
      <trkpt lat="45.23556" lon="6.02938">
        <ele>2160.8000488</ele>
        <time>2013-04-13T06:40:56Z</time>
      </trkpt>
      <trkpt lat="45.23556" lon="6.02938">
        <ele>2160.8000488</ele>
        <time>2013-04-13T06:40:59Z</time>
      </trkpt>
      <trkpt lat="45.23556" lon="6.02938">
        <ele>2160.8000488</ele>
        <time>2013-04-13T06:41:02Z</time>
      </trkpt>
      <trkpt lat="45.23555" lon="6.02938">
        <ele>2160.8000488</ele>
        <time>2013-04-13T06:41:05Z</time>
      </trkpt>
      <trkpt lat="45.23555" lon="6.02938">
        <ele>2160.8000488</ele>
        <time>2013-04-13T06:41:08Z</time>
      </trkpt>
      <trkpt lat="45.23555" lon="6.02937">
        <ele>2160.8000488</ele>
        <time>2013-04-13T06:41:11Z</time>
      </trkpt>
      <trkpt lat="45.23555" lon="6.02937">
        <ele>2160.8000488</ele>
        <time>2013-04-13T06:41:14Z</time>
      </trkpt>
      <trkpt lat="45.23554" lon="6.02936">
        <ele>2160.8000488</ele>
        <time>2013-04-13T06:41:17Z</time>
      </trkpt>
      <trkpt lat="45.23553" lon="6.02936">
        <ele>2160.8000488</ele>
        <time>2013-04-13T06:41:20Z</time>
      </trkpt>
      <trkpt lat="45.23553" lon="6.02937">
        <ele>2160.8000488</ele>
        <time>2013-04-13T06:41:23Z</time>
      </trkpt>
      <trkpt lat="45.23554" lon="6.02937">
        <ele>2160.8000488</ele>
        <time>2013-04-13T06:41:26Z</time>
      </trkpt>
      <trkpt lat="45.23554" lon="6.02938">
        <ele>2160.8000488</ele>
        <time>2013-04-13T06:41:29Z</time>
      </trkpt>
      <trkpt lat="45.23557" lon="6.0294">
        <ele>2160.8000488</ele>
        <time>2013-04-13T06:41:32Z</time>
      </trkpt>
      <trkpt lat="45.23559" lon="6.02942">
        <ele>2161.1999512</ele>
        <time>2013-04-13T06:41:35Z</time>
      </trkpt>
      <trkpt lat="45.23563" lon="6.02944">
        <ele>2162.6000977</ele>
        <time>2013-04-13T06:41:38Z</time>
      </trkpt>
      <trkpt lat="45.23566" lon="6.02947">
        <ele>2162.8000488</ele>
        <time>2013-04-13T06:41:41Z</time>
      </trkpt>
      <trkpt lat="45.23569" lon="6.02949">
        <ele>2162.8000488</ele>
        <time>2013-04-13T06:41:44Z</time>
      </trkpt>
      <trkpt lat="45.23571" lon="6.02951">
        <ele>2162.8000488</ele>
        <time>2013-04-13T06:41:47Z</time>
      </trkpt>
      <trkpt lat="45.23574" lon="6.02953">
        <ele>2164</ele>
        <time>2013-04-13T06:41:50Z</time>
      </trkpt>
      <trkpt lat="45.23577" lon="6.02955">
        <ele>2165</ele>
        <time>2013-04-13T06:41:53Z</time>
      </trkpt>
      <trkpt lat="45.2358" lon="6.02957">
        <ele>2165</ele>
        <time>2013-04-13T06:41:56Z</time>
      </trkpt>
      <trkpt lat="45.23582" lon="6.0296">
        <ele>2165.8000488</ele>
        <time>2013-04-13T06:41:59Z</time>
      </trkpt>
      <trkpt lat="45.23585" lon="6.02962">
        <ele>2167</ele>
        <time>2013-04-13T06:42:02Z</time>
      </trkpt>
      <trkpt lat="45.23588" lon="6.02964">
        <ele>2167</ele>
        <time>2013-04-13T06:42:05Z</time>
      </trkpt>
      <trkpt lat="45.23592" lon="6.02966">
        <ele>2167</ele>
        <time>2013-04-13T06:42:08Z</time>
      </trkpt>
      <trkpt lat="45.23594" lon="6.02968">
        <ele>2167</ele>
        <time>2013-04-13T06:42:11Z</time>
      </trkpt>
      <trkpt lat="45.23598" lon="6.0297">
        <ele>2168.6000977</ele>
        <time>2013-04-13T06:42:14Z</time>
      </trkpt>
      <trkpt lat="45.236" lon="6.02972">
        <ele>2169</ele>
        <time>2013-04-13T06:42:17Z</time>
      </trkpt>
      <trkpt lat="45.23604" lon="6.02974">
        <ele>2169</ele>
        <time>2013-04-13T06:42:20Z</time>
      </trkpt>
      <trkpt lat="45.23606" lon="6.02976">
        <ele>2169</ele>
        <time>2013-04-13T06:42:23Z</time>
      </trkpt>
      <trkpt lat="45.23609" lon="6.02978">
        <ele>2169</ele>
        <time>2013-04-13T06:42:26Z</time>
      </trkpt>
      <trkpt lat="45.23612" lon="6.0298">
        <ele>2170</ele>
        <time>2013-04-13T06:42:29Z</time>
      </trkpt>
      <trkpt lat="45.23612" lon="6.0298">
        <ele>2171</ele>
        <time>2013-04-13T06:42:32Z</time>
      </trkpt>
      <trkpt lat="45.23614" lon="6.02981">
        <ele>2171</ele>
        <time>2013-04-13T06:42:35Z</time>
      </trkpt>
      <trkpt lat="45.23617" lon="6.02983">
        <ele>2171</ele>
        <time>2013-04-13T06:42:38Z</time>
      </trkpt>
      <trkpt lat="45.23619" lon="6.02985">
        <ele>2171</ele>
        <time>2013-04-13T06:42:41Z</time>
      </trkpt>
      <trkpt lat="45.23622" lon="6.02987">
        <ele>2171</ele>
        <time>2013-04-13T06:42:44Z</time>
      </trkpt>
      <trkpt lat="45.23624" lon="6.02988">
        <ele>2171</ele>
        <time>2013-04-13T06:42:47Z</time>
      </trkpt>
      <trkpt lat="45.23626" lon="6.0299">
        <ele>2172</ele>
        <time>2013-04-13T06:42:50Z</time>
      </trkpt>
      <trkpt lat="45.23628" lon="6.02992">
        <ele>2173</ele>
        <time>2013-04-13T06:42:53Z</time>
      </trkpt>
      <trkpt lat="45.2363" lon="6.02994">
        <ele>2173</ele>
        <time>2013-04-13T06:42:56Z</time>
      </trkpt>
      <trkpt lat="45.23632" lon="6.02995">
        <ele>2173</ele>
        <time>2013-04-13T06:42:59Z</time>
      </trkpt>
      <trkpt lat="45.23635" lon="6.02997">
        <ele>2173</ele>
        <time>2013-04-13T06:43:02Z</time>
      </trkpt>
      <trkpt lat="45.23638" lon="6.02999">
        <ele>2173.8000488</ele>
        <time>2013-04-13T06:43:05Z</time>
      </trkpt>
      <trkpt lat="45.23641" lon="6.03001">
        <ele>2175</ele>
        <time>2013-04-13T06:43:08Z</time>
      </trkpt>
      <trkpt lat="45.23643" lon="6.03003">
        <ele>2175</ele>
        <time>2013-04-13T06:43:11Z</time>
      </trkpt>
      <trkpt lat="45.23646" lon="6.03004">
        <ele>2175</ele>
        <time>2013-04-13T06:43:14Z</time>
      </trkpt>
      <trkpt lat="45.23647" lon="6.03005">
        <ele>2175</ele>
        <time>2013-04-13T06:43:17Z</time>
      </trkpt>
      <trkpt lat="45.23647" lon="6.03006">
        <ele>2176</ele>
        <time>2013-04-13T06:43:20Z</time>
      </trkpt>
      <trkpt lat="45.23647" lon="6.03006">
        <ele>2177</ele>
        <time>2013-04-13T06:43:23Z</time>
      </trkpt>
      <trkpt lat="45.23647" lon="6.03006">
        <ele>2177</ele>
        <time>2013-04-13T06:43:26Z</time>
      </trkpt>
      <trkpt lat="45.23648" lon="6.03007">
        <ele>2177</ele>
        <time>2013-04-13T06:43:29Z</time>
      </trkpt>
      <trkpt lat="45.2365" lon="6.03009">
        <ele>2177</ele>
        <time>2013-04-13T06:43:32Z</time>
      </trkpt>
      <trkpt lat="45.23652" lon="6.03012">
        <ele>2177</ele>
        <time>2013-04-13T06:43:35Z</time>
      </trkpt>
      <trkpt lat="45.23655" lon="6.03015">
        <ele>2177</ele>
        <time>2013-04-13T06:43:38Z</time>
      </trkpt>
      <trkpt lat="45.23657" lon="6.03017">
        <ele>2177</ele>
        <time>2013-04-13T06:43:41Z</time>
      </trkpt>
      <trkpt lat="45.2366" lon="6.03019">
        <ele>2177</ele>
        <time>2013-04-13T06:43:44Z</time>
      </trkpt>
      <trkpt lat="45.23663" lon="6.03021">
        <ele>2177.1999512</ele>
        <time>2013-04-13T06:43:47Z</time>
      </trkpt>
      <trkpt lat="45.23665" lon="6.03024">
        <ele>2178.6000977</ele>
        <time>2013-04-13T06:43:50Z</time>
      </trkpt>
      <trkpt lat="45.23667" lon="6.03026">
        <ele>2179.1999512</ele>
        <time>2013-04-13T06:43:53Z</time>
      </trkpt>
      <trkpt lat="45.23669" lon="6.03029">
        <ele>2179.1999512</ele>
        <time>2013-04-13T06:43:56Z</time>
      </trkpt>
      <trkpt lat="45.23671" lon="6.03032">
        <ele>2179.1999512</ele>
        <time>2013-04-13T06:43:59Z</time>
      </trkpt>
      <trkpt lat="45.23673" lon="6.03035">
        <ele>2179.8000488</ele>
        <time>2013-04-13T06:44:02Z</time>
      </trkpt>
      <trkpt lat="45.23673" lon="6.03038">
        <ele>2180.8000488</ele>
        <time>2013-04-13T06:44:05Z</time>
      </trkpt>
      <trkpt lat="45.23675" lon="6.03042">
        <ele>2181.1999512</ele>
        <time>2013-04-13T06:44:08Z</time>
      </trkpt>
      <trkpt lat="45.23675" lon="6.03045">
        <ele>2182.6000977</ele>
        <time>2013-04-13T06:44:11Z</time>
      </trkpt>
      <trkpt lat="45.23677" lon="6.03049">
        <ele>2183.6000977</ele>
        <time>2013-04-13T06:44:14Z</time>
      </trkpt>
      <trkpt lat="45.23678" lon="6.03052">
        <ele>2183.6000977</ele>
        <time>2013-04-13T06:44:17Z</time>
      </trkpt>
      <trkpt lat="45.23679" lon="6.03055">
        <ele>2183.6000977</ele>
        <time>2013-04-13T06:44:20Z</time>
      </trkpt>
      <trkpt lat="45.2368" lon="6.03059">
        <ele>2184</ele>
        <time>2013-04-13T06:44:23Z</time>
      </trkpt>
      <trkpt lat="45.2368" lon="6.03063">
        <ele>2185.1999512</ele>
        <time>2013-04-13T06:44:26Z</time>
      </trkpt>
      <trkpt lat="45.2368" lon="6.03066">
        <ele>2185.6000977</ele>
        <time>2013-04-13T06:44:29Z</time>
      </trkpt>
      <trkpt lat="45.2368" lon="6.03069">
        <ele>2186.1999512</ele>
        <time>2013-04-13T06:44:32Z</time>
      </trkpt>
      <trkpt lat="45.23678" lon="6.0307">
        <ele>2187.1999512</ele>
        <time>2013-04-13T06:44:35Z</time>
      </trkpt>
      <trkpt lat="45.23678" lon="6.03071">
        <ele>2187.6000977</ele>
        <time>2013-04-13T06:44:38Z</time>
      </trkpt>
      <trkpt lat="45.23677" lon="6.03072">
        <ele>2187.6000977</ele>
        <time>2013-04-13T06:44:41Z</time>
      </trkpt>
      <trkpt lat="45.23677" lon="6.03072">
        <ele>2188.8000488</ele>
        <time>2013-04-13T06:44:44Z</time>
      </trkpt>
      <trkpt lat="45.23677" lon="6.03072">
        <ele>2189.8000488</ele>
        <time>2013-04-13T06:44:47Z</time>
      </trkpt>
      <trkpt lat="45.23677" lon="6.03072">
        <ele>2189.8000488</ele>
        <time>2013-04-13T06:44:50Z</time>
      </trkpt>
      <trkpt lat="45.23677" lon="6.03071">
        <ele>2189.8000488</ele>
        <time>2013-04-13T06:44:53Z</time>
      </trkpt>
      <trkpt lat="45.23676" lon="6.03073">
        <ele>2189.8000488</ele>
        <time>2013-04-13T06:44:56Z</time>
      </trkpt>
      <trkpt lat="45.23675" lon="6.03075">
        <ele>2189.8000488</ele>
        <time>2013-04-13T06:44:59Z</time>
      </trkpt>
      <trkpt lat="45.23675" lon="6.03079">
        <ele>2189.8000488</ele>
        <time>2013-04-13T06:45:02Z</time>
      </trkpt>
      <trkpt lat="45.23676" lon="6.03081">
        <ele>2189.8000488</ele>
        <time>2013-04-13T06:45:05Z</time>
      </trkpt>
      <trkpt lat="45.23677" lon="6.03085">
        <ele>2190.6000977</ele>
        <time>2013-04-13T06:45:08Z</time>
      </trkpt>
      <trkpt lat="45.23678" lon="6.03087">
        <ele>2191.6000977</ele>
        <time>2013-04-13T06:45:11Z</time>
      </trkpt>
      <trkpt lat="45.2368" lon="6.03091">
        <ele>2192</ele>
        <time>2013-04-13T06:45:14Z</time>
      </trkpt>
      <trkpt lat="45.23681" lon="6.03093">
        <ele>2193</ele>
        <time>2013-04-13T06:45:17Z</time>
      </trkpt>
      <trkpt lat="45.23683" lon="6.03097">
        <ele>2193.8000488</ele>
        <time>2013-04-13T06:45:20Z</time>
      </trkpt>
      <trkpt lat="45.23684" lon="6.031">
        <ele>2194</ele>
        <time>2013-04-13T06:45:23Z</time>
      </trkpt>
      <trkpt lat="45.23686" lon="6.03104">
        <ele>2195</ele>
        <time>2013-04-13T06:45:26Z</time>
      </trkpt>
      <trkpt lat="45.23687" lon="6.03106">
        <ele>2196</ele>
        <time>2013-04-13T06:45:29Z</time>
      </trkpt>
      <trkpt lat="45.23689" lon="6.03111">
        <ele>2196</ele>
        <time>2013-04-13T06:45:32Z</time>
      </trkpt>
      <trkpt lat="45.2369" lon="6.03114">
        <ele>2196.6000977</ele>
        <time>2013-04-13T06:45:35Z</time>
      </trkpt>
      <trkpt lat="45.23692" lon="6.03118">
        <ele>2198</ele>
        <time>2013-04-13T06:45:38Z</time>
      </trkpt>
      <trkpt lat="45.23693" lon="6.0312">
        <ele>2198</ele>
        <time>2013-04-13T06:45:41Z</time>
      </trkpt>
      <trkpt lat="45.23695" lon="6.03123">
        <ele>2198.6000977</ele>
        <time>2013-04-13T06:45:44Z</time>
      </trkpt>
      <trkpt lat="45.23696" lon="6.03126">
        <ele>2199.8000488</ele>
        <time>2013-04-13T06:45:47Z</time>
      </trkpt>
      <trkpt lat="45.23697" lon="6.03129">
        <ele>2200</ele>
        <time>2013-04-13T06:45:50Z</time>
      </trkpt>
      <trkpt lat="45.23698" lon="6.03132">
        <ele>2200</ele>
        <time>2013-04-13T06:45:53Z</time>
      </trkpt>
      <trkpt lat="45.237" lon="6.03136">
        <ele>2201</ele>
        <time>2013-04-13T06:45:56Z</time>
      </trkpt>
      <trkpt lat="45.237" lon="6.03139">
        <ele>2202</ele>
        <time>2013-04-13T06:45:59Z</time>
      </trkpt>
      <trkpt lat="45.23701" lon="6.03142">
        <ele>2202</ele>
        <time>2013-04-13T06:46:02Z</time>
      </trkpt>
      <trkpt lat="45.23702" lon="6.03145">
        <ele>2203.1999512</ele>
        <time>2013-04-13T06:46:05Z</time>
      </trkpt>
      <trkpt lat="45.23703" lon="6.03149">
        <ele>2204</ele>
        <time>2013-04-13T06:46:08Z</time>
      </trkpt>
      <trkpt lat="45.23704" lon="6.03152">
        <ele>2204</ele>
        <time>2013-04-13T06:46:11Z</time>
      </trkpt>
      <trkpt lat="45.23705" lon="6.03155">
        <ele>2204.6000977</ele>
        <time>2013-04-13T06:46:14Z</time>
      </trkpt>
      <trkpt lat="45.23705" lon="6.03158">
        <ele>2205.6000977</ele>
        <time>2013-04-13T06:46:17Z</time>
      </trkpt>
      <trkpt lat="45.23706" lon="6.03161">
        <ele>2206</ele>
        <time>2013-04-13T06:46:20Z</time>
      </trkpt>
      <trkpt lat="45.23706" lon="6.03164">
        <ele>2206</ele>
        <time>2013-04-13T06:46:23Z</time>
      </trkpt>
      <trkpt lat="45.23707" lon="6.03166">
        <ele>2207</ele>
        <time>2013-04-13T06:46:26Z</time>
      </trkpt>
      <trkpt lat="45.23707" lon="6.03169">
        <ele>2208</ele>
        <time>2013-04-13T06:46:29Z</time>
      </trkpt>
      <trkpt lat="45.23707" lon="6.03172">
        <ele>2208</ele>
        <time>2013-04-13T06:46:32Z</time>
      </trkpt>
      <trkpt lat="45.23707" lon="6.03171">
        <ele>2208.6000977</ele>
        <time>2013-04-13T06:46:35Z</time>
      </trkpt>
      <trkpt lat="45.23706" lon="6.03173">
        <ele>2209.8000488</ele>
        <time>2013-04-13T06:46:38Z</time>
      </trkpt>
      <trkpt lat="45.23707" lon="6.03176">
        <ele>2210</ele>
        <time>2013-04-13T06:46:41Z</time>
      </trkpt>
      <trkpt lat="45.23708" lon="6.0318">
        <ele>2210</ele>
        <time>2013-04-13T06:46:44Z</time>
      </trkpt>
      <trkpt lat="45.23709" lon="6.03183">
        <ele>2210</ele>
        <time>2013-04-13T06:46:47Z</time>
      </trkpt>
      <trkpt lat="45.2371" lon="6.03186">
        <ele>2210.6000977</ele>
        <time>2013-04-13T06:46:50Z</time>
      </trkpt>
      <trkpt lat="45.23711" lon="6.03188">
        <ele>2211.8000488</ele>
        <time>2013-04-13T06:46:53Z</time>
      </trkpt>
      <trkpt lat="45.23712" lon="6.03192">
        <ele>2212</ele>
        <time>2013-04-13T06:46:56Z</time>
      </trkpt>
      <trkpt lat="45.23713" lon="6.03194">
        <ele>2212.6000977</ele>
        <time>2013-04-13T06:46:59Z</time>
      </trkpt>
      <trkpt lat="45.23715" lon="6.03197">
        <ele>2213.8000488</ele>
        <time>2013-04-13T06:47:02Z</time>
      </trkpt>
      <trkpt lat="45.23716" lon="6.032">
        <ele>2214.1999512</ele>
        <time>2013-04-13T06:47:05Z</time>
      </trkpt>
      <trkpt lat="45.23718" lon="6.03202">
        <ele>2214.6000977</ele>
        <time>2013-04-13T06:47:08Z</time>
      </trkpt>
      <trkpt lat="45.23719" lon="6.03205">
        <ele>2215.6000977</ele>
        <time>2013-04-13T06:47:11Z</time>
      </trkpt>
      <trkpt lat="45.23721" lon="6.03208">
        <ele>2216.1999512</ele>
        <time>2013-04-13T06:47:14Z</time>
      </trkpt>
      <trkpt lat="45.23722" lon="6.03211">
        <ele>2216.1999512</ele>
        <time>2013-04-13T06:47:17Z</time>
      </trkpt>
      <trkpt lat="45.23724" lon="6.03214">
        <ele>2217.1999512</ele>
        <time>2013-04-13T06:47:20Z</time>
      </trkpt>
      <trkpt lat="45.23726" lon="6.03216">
        <ele>2218.1999512</ele>
        <time>2013-04-13T06:47:23Z</time>
      </trkpt>
      <trkpt lat="45.23728" lon="6.03219">
        <ele>2218.1999512</ele>
        <time>2013-04-13T06:47:26Z</time>
      </trkpt>
      <trkpt lat="45.23729" lon="6.03221">
        <ele>2218.6000977</ele>
        <time>2013-04-13T06:47:29Z</time>
      </trkpt>
      <trkpt lat="45.2373" lon="6.03224">
        <ele>2219.8000488</ele>
        <time>2013-04-13T06:47:32Z</time>
      </trkpt>
      <trkpt lat="45.23731" lon="6.03227">
        <ele>2220.6000977</ele>
        <time>2013-04-13T06:47:35Z</time>
      </trkpt>
      <trkpt lat="45.23732" lon="6.0323">
        <ele>2220.8000488</ele>
        <time>2013-04-13T06:47:38Z</time>
      </trkpt>
      <trkpt lat="45.23732" lon="6.03232">
        <ele>2221.8000488</ele>
        <time>2013-04-13T06:47:41Z</time>
      </trkpt>
      <trkpt lat="45.23733" lon="6.03233">
        <ele>2222.8000488</ele>
        <time>2013-04-13T06:47:44Z</time>
      </trkpt>
      <trkpt lat="45.23733" lon="6.03234">
        <ele>2223</ele>
        <time>2013-04-13T06:47:47Z</time>
      </trkpt>
      <trkpt lat="45.23733" lon="6.03233">
        <ele>2224.6000977</ele>
        <time>2013-04-13T06:47:50Z</time>
      </trkpt>
      <trkpt lat="45.23732" lon="6.03234">
        <ele>2225</ele>
        <time>2013-04-13T06:47:53Z</time>
      </trkpt>
      <trkpt lat="45.23732" lon="6.03236">
        <ele>2225</ele>
        <time>2013-04-13T06:47:56Z</time>
      </trkpt>
      <trkpt lat="45.23731" lon="6.03238">
        <ele>2225</ele>
        <time>2013-04-13T06:47:59Z</time>
      </trkpt>
      <trkpt lat="45.23731" lon="6.03241">
        <ele>2225</ele>
        <time>2013-04-13T06:48:02Z</time>
      </trkpt>
      <trkpt lat="45.23732" lon="6.03241">
        <ele>2225.1999512</ele>
        <time>2013-04-13T06:48:05Z</time>
      </trkpt>
      <trkpt lat="45.23735" lon="6.0324">
        <ele>2226.6000977</ele>
        <time>2013-04-13T06:48:08Z</time>
      </trkpt>
      <trkpt lat="45.23737" lon="6.0324">
        <ele>2227</ele>
        <time>2013-04-13T06:48:11Z</time>
      </trkpt>
      <trkpt lat="45.23739" lon="6.0324">
        <ele>2227</ele>
        <time>2013-04-13T06:48:14Z</time>
      </trkpt>
      <trkpt lat="45.23741" lon="6.03239">
        <ele>2228</ele>
        <time>2013-04-13T06:48:17Z</time>
      </trkpt>
      <trkpt lat="45.23743" lon="6.03238">
        <ele>2229</ele>
        <time>2013-04-13T06:48:20Z</time>
      </trkpt>
      <trkpt lat="45.23744" lon="6.03237">
        <ele>2229.1999512</ele>
        <time>2013-04-13T06:48:23Z</time>
      </trkpt>
      <trkpt lat="45.23746" lon="6.03235">
        <ele>2230.8000488</ele>
        <time>2013-04-13T06:48:26Z</time>
      </trkpt>
      <trkpt lat="45.23748" lon="6.03233">
        <ele>2231</ele>
        <time>2013-04-13T06:48:29Z</time>
      </trkpt>
      <trkpt lat="45.2375" lon="6.03232">
        <ele>2232.1999512</ele>
        <time>2013-04-13T06:48:32Z</time>
      </trkpt>
      <trkpt lat="45.23752" lon="6.0323">
        <ele>2233.1999512</ele>
        <time>2013-04-13T06:48:35Z</time>
      </trkpt>
      <trkpt lat="45.23753" lon="6.03228">
        <ele>2233.1999512</ele>
        <time>2013-04-13T06:48:38Z</time>
      </trkpt>
      <trkpt lat="45.23755" lon="6.03225">
        <ele>2233.1999512</ele>
        <time>2013-04-13T06:48:41Z</time>
      </trkpt>
      <trkpt lat="45.23755" lon="6.03222">
        <ele>2234.1999512</ele>
        <time>2013-04-13T06:48:44Z</time>
      </trkpt>
      <trkpt lat="45.23755" lon="6.03221">
        <ele>2235.1999512</ele>
        <time>2013-04-13T06:48:47Z</time>
      </trkpt>
      <trkpt lat="45.23756" lon="6.03221">
        <ele>2235.1999512</ele>
        <time>2013-04-13T06:48:50Z</time>
      </trkpt>
      <trkpt lat="45.23756" lon="6.03224">
        <ele>2235.8000488</ele>
        <time>2013-04-13T06:48:53Z</time>
      </trkpt>
      <trkpt lat="45.23757" lon="6.03227">
        <ele>2236.8000488</ele>
        <time>2013-04-13T06:48:56Z</time>
      </trkpt>
      <trkpt lat="45.23759" lon="6.03229">
        <ele>2237.1999512</ele>
        <time>2013-04-13T06:48:59Z</time>
      </trkpt>
      <trkpt lat="45.2376" lon="6.03232">
        <ele>2237.1999512</ele>
        <time>2013-04-13T06:49:02Z</time>
      </trkpt>
      <trkpt lat="45.2376" lon="6.03234">
        <ele>2238.1999512</ele>
        <time>2013-04-13T06:49:05Z</time>
      </trkpt>
      <trkpt lat="45.23762" lon="6.03237">
        <ele>2239.1999512</ele>
        <time>2013-04-13T06:49:08Z</time>
      </trkpt>
      <trkpt lat="45.23762" lon="6.03239">
        <ele>2239.8000488</ele>
        <time>2013-04-13T06:49:11Z</time>
      </trkpt>
      <trkpt lat="45.23764" lon="6.03242">
        <ele>2241</ele>
        <time>2013-04-13T06:49:14Z</time>
      </trkpt>
      <trkpt lat="45.23765" lon="6.03245">
        <ele>2241.6000977</ele>
        <time>2013-04-13T06:49:17Z</time>
      </trkpt>
      <trkpt lat="45.23766" lon="6.03248">
        <ele>2241.6000977</ele>
        <time>2013-04-13T06:49:20Z</time>
      </trkpt>
      <trkpt lat="45.23768" lon="6.0325">
        <ele>2242.6000977</ele>
        <time>2013-04-13T06:49:23Z</time>
      </trkpt>
      <trkpt lat="45.2377" lon="6.03251">
        <ele>2243.6000977</ele>
        <time>2013-04-13T06:49:26Z</time>
      </trkpt>
      <trkpt lat="45.23772" lon="6.03252">
        <ele>2244</ele>
        <time>2013-04-13T06:49:29Z</time>
      </trkpt>
      <trkpt lat="45.23774" lon="6.03253">
        <ele>2245.1999512</ele>
        <time>2013-04-13T06:49:32Z</time>
      </trkpt>
      <trkpt lat="45.23776" lon="6.03255">
        <ele>2245.8000488</ele>
        <time>2013-04-13T06:49:35Z</time>
      </trkpt>
      <trkpt lat="45.23777" lon="6.03258">
        <ele>2245.8000488</ele>
        <time>2013-04-13T06:49:38Z</time>
      </trkpt>
      <trkpt lat="45.23779" lon="6.0326">
        <ele>2247</ele>
        <time>2013-04-13T06:49:41Z</time>
      </trkpt>
      <trkpt lat="45.23782" lon="6.03263">
        <ele>2247.8000488</ele>
        <time>2013-04-13T06:49:44Z</time>
      </trkpt>
      <trkpt lat="45.23784" lon="6.03266">
        <ele>2247.8000488</ele>
        <time>2013-04-13T06:49:47Z</time>
      </trkpt>
      <trkpt lat="45.23786" lon="6.03268">
        <ele>2247.8000488</ele>
        <time>2013-04-13T06:49:50Z</time>
      </trkpt>
      <trkpt lat="45.23789" lon="6.03271">
        <ele>2248.6000977</ele>
        <time>2013-04-13T06:49:53Z</time>
      </trkpt>
      <trkpt lat="45.23791" lon="6.03275">
        <ele>2249.8000488</ele>
        <time>2013-04-13T06:49:56Z</time>
      </trkpt>
      <trkpt lat="45.23793" lon="6.03279">
        <ele>2249.8000488</ele>
        <time>2013-04-13T06:49:59Z</time>
      </trkpt>
      <trkpt lat="45.23796" lon="6.03282">
        <ele>2249.8000488</ele>
        <time>2013-04-13T06:50:02Z</time>
      </trkpt>
      <trkpt lat="45.23798" lon="6.03286">
        <ele>2249.8000488</ele>
        <time>2013-04-13T06:50:05Z</time>
      </trkpt>
      <trkpt lat="45.23801" lon="6.03289">
        <ele>2249.8000488</ele>
        <time>2013-04-13T06:50:08Z</time>
      </trkpt>
      <trkpt lat="45.23802" lon="6.03291">
        <ele>2249.8000488</ele>
        <time>2013-04-13T06:50:11Z</time>
      </trkpt>
      <trkpt lat="45.23804" lon="6.03294">
        <ele>2249.8000488</ele>
        <time>2013-04-13T06:50:14Z</time>
      </trkpt>
      <trkpt lat="45.23806" lon="6.03296">
        <ele>2250.1999512</ele>
        <time>2013-04-13T06:50:17Z</time>
      </trkpt>
      <trkpt lat="45.23808" lon="6.033">
        <ele>2251.6000977</ele>
        <time>2013-04-13T06:50:20Z</time>
      </trkpt>
      <trkpt lat="45.2381" lon="6.03302">
        <ele>2252</ele>
        <time>2013-04-13T06:50:23Z</time>
      </trkpt>
      <trkpt lat="45.23811" lon="6.03305">
        <ele>2252</ele>
        <time>2013-04-13T06:50:26Z</time>
      </trkpt>
      <trkpt lat="45.23812" lon="6.03308">
        <ele>2253</ele>
        <time>2013-04-13T06:50:29Z</time>
      </trkpt>
      <trkpt lat="45.23814" lon="6.03311">
        <ele>2254</ele>
        <time>2013-04-13T06:50:32Z</time>
      </trkpt>
      <trkpt lat="45.23816" lon="6.03313">
        <ele>2254.6000977</ele>
        <time>2013-04-13T06:50:35Z</time>
      </trkpt>
      <trkpt lat="45.23818" lon="6.03316">
        <ele>2255.8000488</ele>
        <time>2013-04-13T06:50:38Z</time>
      </trkpt>
      <trkpt lat="45.23819" lon="6.03318">
        <ele>2256</ele>
        <time>2013-04-13T06:50:41Z</time>
      </trkpt>
      <trkpt lat="45.23821" lon="6.03321">
        <ele>2257</ele>
        <time>2013-04-13T06:50:44Z</time>
      </trkpt>
      <trkpt lat="45.23823" lon="6.03325">
        <ele>2258</ele>
        <time>2013-04-13T06:50:47Z</time>
      </trkpt>
      <trkpt lat="45.23824" lon="6.03328">
        <ele>2258</ele>
        <time>2013-04-13T06:50:50Z</time>
      </trkpt>
      <trkpt lat="45.23825" lon="6.0333">
        <ele>2258.6000977</ele>
        <time>2013-04-13T06:50:53Z</time>
      </trkpt>
      <trkpt lat="45.23827" lon="6.03333">
        <ele>2259.6000977</ele>
        <time>2013-04-13T06:50:56Z</time>
      </trkpt>
      <trkpt lat="45.23828" lon="6.03336">
        <ele>2260</ele>
        <time>2013-04-13T06:50:59Z</time>
      </trkpt>
      <trkpt lat="45.23829" lon="6.03339">
        <ele>2261.1999512</ele>
        <time>2013-04-13T06:51:02Z</time>
      </trkpt>
      <trkpt lat="45.23829" lon="6.03341">
        <ele>2262</ele>
        <time>2013-04-13T06:51:05Z</time>
      </trkpt>
      <trkpt lat="45.2383" lon="6.03344">
        <ele>2262.6000977</ele>
        <time>2013-04-13T06:51:08Z</time>
      </trkpt>
      <trkpt lat="45.23831" lon="6.03347">
        <ele>2263.6000977</ele>
        <time>2013-04-13T06:51:11Z</time>
      </trkpt>
      <trkpt lat="45.23831" lon="6.0335">
        <ele>2264.1999512</ele>
        <time>2013-04-13T06:51:14Z</time>
      </trkpt>
      <trkpt lat="45.23831" lon="6.03352">
        <ele>2265</ele>
        <time>2013-04-13T06:51:17Z</time>
      </trkpt>
      <trkpt lat="45.23832" lon="6.03356">
        <ele>2266.1999512</ele>
        <time>2013-04-13T06:51:20Z</time>
      </trkpt>
      <trkpt lat="45.23832" lon="6.03359">
        <ele>2266.1999512</ele>
        <time>2013-04-13T06:51:23Z</time>
      </trkpt>
      <trkpt lat="45.23832" lon="6.03362">
        <ele>2267.1999512</ele>
        <time>2013-04-13T06:51:26Z</time>
      </trkpt>
      <trkpt lat="45.23832" lon="6.03364">
        <ele>2268.1999512</ele>
        <time>2013-04-13T06:51:29Z</time>
      </trkpt>
      <trkpt lat="45.23831" lon="6.03368">
        <ele>2269</ele>
        <time>2013-04-13T06:51:32Z</time>
      </trkpt>
      <trkpt lat="45.23831" lon="6.03368">
        <ele>2270</ele>
        <time>2013-04-13T06:51:35Z</time>
      </trkpt>
      <trkpt lat="45.23831" lon="6.03368">
        <ele>2270.6000977</ele>
        <time>2013-04-13T06:51:38Z</time>
      </trkpt>
      <trkpt lat="45.23831" lon="6.03368">
        <ele>2270.6000977</ele>
        <time>2013-04-13T06:51:41Z</time>
      </trkpt>
      <trkpt lat="45.23832" lon="6.0337">
        <ele>2270.6000977</ele>
        <time>2013-04-13T06:51:44Z</time>
      </trkpt>
      <trkpt lat="45.23834" lon="6.0337">
        <ele>2271</ele>
        <time>2013-04-13T06:51:47Z</time>
      </trkpt>
      <trkpt lat="45.23836" lon="6.0337">
        <ele>2272</ele>
        <time>2013-04-13T06:51:50Z</time>
      </trkpt>
      <trkpt lat="45.23838" lon="6.0337">
        <ele>2272.6000977</ele>
        <time>2013-04-13T06:51:53Z</time>
      </trkpt>
      <trkpt lat="45.23841" lon="6.0337">
        <ele>2272.6000977</ele>
        <time>2013-04-13T06:51:56Z</time>
      </trkpt>
      <trkpt lat="45.23843" lon="6.0337">
        <ele>2273</ele>
        <time>2013-04-13T06:51:59Z</time>
      </trkpt>
      <trkpt lat="45.23845" lon="6.03371">
        <ele>2274.1999512</ele>
        <time>2013-04-13T06:52:02Z</time>
      </trkpt>
      <trkpt lat="45.23848" lon="6.03371">
        <ele>2274.6000977</ele>
        <time>2013-04-13T06:52:05Z</time>
      </trkpt>
      <trkpt lat="45.2385" lon="6.03371">
        <ele>2275</ele>
        <time>2013-04-13T06:52:08Z</time>
      </trkpt>
      <trkpt lat="45.23853" lon="6.03371">
        <ele>2276</ele>
        <time>2013-04-13T06:52:11Z</time>
      </trkpt>
      <trkpt lat="45.23855" lon="6.03371">
        <ele>2276.8000488</ele>
        <time>2013-04-13T06:52:14Z</time>
      </trkpt>
      <trkpt lat="45.23857" lon="6.03371">
        <ele>2277.1999512</ele>
        <time>2013-04-13T06:52:17Z</time>
      </trkpt>
      <trkpt lat="45.23859" lon="6.0337">
        <ele>2278.8000488</ele>
        <time>2013-04-13T06:52:20Z</time>
      </trkpt>
      <trkpt lat="45.23861" lon="6.03369">
        <ele>2279</ele>
        <time>2013-04-13T06:52:23Z</time>
      </trkpt>
      <trkpt lat="45.23863" lon="6.03368">
        <ele>2279.6000977</ele>
        <time>2013-04-13T06:52:26Z</time>
      </trkpt>
      <trkpt lat="45.23864" lon="6.03367">
        <ele>2280.8000488</ele>
        <time>2013-04-13T06:52:29Z</time>
      </trkpt>
      <trkpt lat="45.23866" lon="6.03365">
        <ele>2281</ele>
        <time>2013-04-13T06:52:32Z</time>
      </trkpt>
      <trkpt lat="45.23868" lon="6.03364">
        <ele>2281.8000488</ele>
        <time>2013-04-13T06:52:35Z</time>
      </trkpt>
      <trkpt lat="45.2387" lon="6.03363">
        <ele>2283</ele>
        <time>2013-04-13T06:52:38Z</time>
      </trkpt>
      <trkpt lat="45.23872" lon="6.03361">
        <ele>2283</ele>
        <time>2013-04-13T06:52:41Z</time>
      </trkpt>
      <trkpt lat="45.23874" lon="6.0336">
        <ele>2283.8000488</ele>
        <time>2013-04-13T06:52:44Z</time>
      </trkpt>
      <trkpt lat="45.23876" lon="6.03358">
        <ele>2284.8000488</ele>
        <time>2013-04-13T06:52:47Z</time>
      </trkpt>
      <trkpt lat="45.23879" lon="6.03356">
        <ele>2285.8000488</ele>
        <time>2013-04-13T06:52:50Z</time>
      </trkpt>
      <trkpt lat="45.2388" lon="6.03355">
        <ele>2287</ele>
        <time>2013-04-13T06:52:53Z</time>
      </trkpt>
      <trkpt lat="45.23883" lon="6.03353">
        <ele>2287</ele>
        <time>2013-04-13T06:52:56Z</time>
      </trkpt>
      <trkpt lat="45.23885" lon="6.03351">
        <ele>2287</ele>
        <time>2013-04-13T06:52:59Z</time>
      </trkpt>
      <trkpt lat="45.23888" lon="6.03349">
        <ele>2287.8000488</ele>
        <time>2013-04-13T06:53:02Z</time>
      </trkpt>
      <trkpt lat="45.2389" lon="6.03346">
        <ele>2288.8000488</ele>
        <time>2013-04-13T06:53:05Z</time>
      </trkpt>
      <trkpt lat="45.23891" lon="6.03344">
        <ele>2289.1999512</ele>
        <time>2013-04-13T06:53:08Z</time>
      </trkpt>
      <trkpt lat="45.23892" lon="6.03342">
        <ele>2289.8000488</ele>
        <time>2013-04-13T06:53:11Z</time>
      </trkpt>
      <trkpt lat="45.23892" lon="6.03342">
        <ele>2291</ele>
        <time>2013-04-13T06:53:14Z</time>
      </trkpt>
      <trkpt lat="45.23892" lon="6.03342">
        <ele>2291.1999512</ele>
        <time>2013-04-13T06:53:17Z</time>
      </trkpt>
      <trkpt lat="45.23893" lon="6.03341">
        <ele>2291.1999512</ele>
        <time>2013-04-13T06:53:20Z</time>
      </trkpt>
      <trkpt lat="45.23894" lon="6.03341">
        <ele>2291.1999512</ele>
        <time>2013-04-13T06:53:23Z</time>
      </trkpt>
      <trkpt lat="45.23894" lon="6.03342">
        <ele>2291.1999512</ele>
        <time>2013-04-13T06:53:26Z</time>
      </trkpt>
      <trkpt lat="45.23895" lon="6.03345">
        <ele>2292</ele>
        <time>2013-04-13T06:53:29Z</time>
      </trkpt>
      <trkpt lat="45.23896" lon="6.03349">
        <ele>2293</ele>
        <time>2013-04-13T06:53:32Z</time>
      </trkpt>
      <trkpt lat="45.23897" lon="6.03352">
        <ele>2293.1999512</ele>
        <time>2013-04-13T06:53:35Z</time>
      </trkpt>
      <trkpt lat="45.23898" lon="6.03355">
        <ele>2293.6000977</ele>
        <time>2013-04-13T06:53:38Z</time>
      </trkpt>
      <trkpt lat="45.23898" lon="6.03358">
        <ele>2294.6000977</ele>
        <time>2013-04-13T06:53:41Z</time>
      </trkpt>
      <trkpt lat="45.23898" lon="6.03358">
        <ele>2295.1999512</ele>
        <time>2013-04-13T06:53:44Z</time>
      </trkpt>
      <trkpt lat="45.23899" lon="6.0336">
        <ele>2296.1999512</ele>
        <time>2013-04-13T06:53:47Z</time>
      </trkpt>
      <trkpt lat="45.23899" lon="6.03363">
        <ele>2297.6000977</ele>
        <time>2013-04-13T06:53:50Z</time>
      </trkpt>
      <trkpt lat="45.239" lon="6.03364">
        <ele>2297.6000977</ele>
        <time>2013-04-13T06:53:53Z</time>
      </trkpt>
      <trkpt lat="45.23903" lon="6.03363">
        <ele>2297.8000488</ele>
        <time>2013-04-13T06:53:56Z</time>
      </trkpt>
      <trkpt lat="45.23905" lon="6.0336">
        <ele>2299</ele>
        <time>2013-04-13T06:53:59Z</time>
      </trkpt>
      <trkpt lat="45.23906" lon="6.03358">
        <ele>2300.6000977</ele>
        <time>2013-04-13T06:54:02Z</time>
      </trkpt>
      <trkpt lat="45.23907" lon="6.03356">
        <ele>2302</ele>
        <time>2013-04-13T06:54:05Z</time>
      </trkpt>
      <trkpt lat="45.23908" lon="6.03354">
        <ele>2302</ele>
        <time>2013-04-13T06:54:08Z</time>
      </trkpt>
      <trkpt lat="45.23909" lon="6.03351">
        <ele>2302</ele>
        <time>2013-04-13T06:54:11Z</time>
      </trkpt>
      <trkpt lat="45.23909" lon="6.03349">
        <ele>2302</ele>
        <time>2013-04-13T06:54:14Z</time>
      </trkpt>
      <trkpt lat="45.2391" lon="6.03346">
        <ele>2302</ele>
        <time>2013-04-13T06:54:17Z</time>
      </trkpt>
      <trkpt lat="45.2391" lon="6.03344">
        <ele>2302.8000488</ele>
        <time>2013-04-13T06:54:20Z</time>
      </trkpt>
      <trkpt lat="45.2391" lon="6.03342">
        <ele>2304</ele>
        <time>2013-04-13T06:54:23Z</time>
      </trkpt>
      <trkpt lat="45.23911" lon="6.03339">
        <ele>2304</ele>
        <time>2013-04-13T06:54:26Z</time>
      </trkpt>
      <trkpt lat="45.23911" lon="6.03337">
        <ele>2304.8000488</ele>
        <time>2013-04-13T06:54:29Z</time>
      </trkpt>
      <trkpt lat="45.23911" lon="6.03334">
        <ele>2306</ele>
        <time>2013-04-13T06:54:32Z</time>
      </trkpt>
      <trkpt lat="45.23912" lon="6.03333">
        <ele>2306</ele>
        <time>2013-04-13T06:54:35Z</time>
      </trkpt>
      <trkpt lat="45.23912" lon="6.03329">
        <ele>2306</ele>
        <time>2013-04-13T06:54:38Z</time>
      </trkpt>
      <trkpt lat="45.23912" lon="6.03328">
        <ele>2307</ele>
        <time>2013-04-13T06:54:41Z</time>
      </trkpt>
      <trkpt lat="45.23912" lon="6.03326">
        <ele>2308</ele>
        <time>2013-04-13T06:54:44Z</time>
      </trkpt>
      <trkpt lat="45.23913" lon="6.03324">
        <ele>2308</ele>
        <time>2013-04-13T06:54:47Z</time>
      </trkpt>
      <trkpt lat="45.23913" lon="6.03322">
        <ele>2308</ele>
        <time>2013-04-13T06:54:50Z</time>
      </trkpt>
      <trkpt lat="45.23914" lon="6.0332">
        <ele>2308.8000488</ele>
        <time>2013-04-13T06:54:53Z</time>
      </trkpt>
      <trkpt lat="45.23914" lon="6.03318">
        <ele>2309.8000488</ele>
        <time>2013-04-13T06:54:56Z</time>
      </trkpt>
      <trkpt lat="45.23915" lon="6.03315">
        <ele>2310</ele>
        <time>2013-04-13T06:54:59Z</time>
      </trkpt>
      <trkpt lat="45.23915" lon="6.03312">
        <ele>2310</ele>
        <time>2013-04-13T06:55:02Z</time>
      </trkpt>
      <trkpt lat="45.23915" lon="6.0331">
        <ele>2310</ele>
        <time>2013-04-13T06:55:05Z</time>
      </trkpt>
      <trkpt lat="45.23915" lon="6.03307">
        <ele>2310.6000977</ele>
        <time>2013-04-13T06:55:08Z</time>
      </trkpt>
      <trkpt lat="45.23916" lon="6.03304">
        <ele>2311.6000977</ele>
        <time>2013-04-13T06:55:11Z</time>
      </trkpt>
      <trkpt lat="45.23917" lon="6.03302">
        <ele>2312</ele>
        <time>2013-04-13T06:55:14Z</time>
      </trkpt>
      <trkpt lat="45.23917" lon="6.03301">
        <ele>2312</ele>
        <time>2013-04-13T06:55:17Z</time>
      </trkpt>
      <trkpt lat="45.23917" lon="6.03299">
        <ele>2312.8000488</ele>
        <time>2013-04-13T06:55:20Z</time>
      </trkpt>
      <trkpt lat="45.23918" lon="6.03296">
        <ele>2314</ele>
        <time>2013-04-13T06:55:23Z</time>
      </trkpt>
      <trkpt lat="45.23918" lon="6.03294">
        <ele>2314.1999512</ele>
        <time>2013-04-13T06:55:26Z</time>
      </trkpt>
      <trkpt lat="45.23919" lon="6.03292">
        <ele>2314.1999512</ele>
        <time>2013-04-13T06:55:29Z</time>
      </trkpt>
      <trkpt lat="45.2392" lon="6.0329">
        <ele>2315</ele>
        <time>2013-04-13T06:55:32Z</time>
      </trkpt>
      <trkpt lat="45.2392" lon="6.03288">
        <ele>2316.1999512</ele>
        <time>2013-04-13T06:55:35Z</time>
      </trkpt>
      <trkpt lat="45.23921" lon="6.03285">
        <ele>2316.1999512</ele>
        <time>2013-04-13T06:55:38Z</time>
      </trkpt>
      <trkpt lat="45.23921" lon="6.03283">
        <ele>2316.1999512</ele>
        <time>2013-04-13T06:55:41Z</time>
      </trkpt>
      <trkpt lat="45.23921" lon="6.03281">
        <ele>2317</ele>
        <time>2013-04-13T06:55:44Z</time>
      </trkpt>
      <trkpt lat="45.23922" lon="6.03279">
        <ele>2318.1999512</ele>
        <time>2013-04-13T06:55:47Z</time>
      </trkpt>
      <trkpt lat="45.23922" lon="6.03277">
        <ele>2318.6000977</ele>
        <time>2013-04-13T06:55:50Z</time>
      </trkpt>
      <trkpt lat="45.23923" lon="6.03275">
        <ele>2318.6000977</ele>
        <time>2013-04-13T06:55:53Z</time>
      </trkpt>
      <trkpt lat="45.23923" lon="6.03275">
        <ele>2319.1999512</ele>
        <time>2013-04-13T06:55:56Z</time>
      </trkpt>
      <trkpt lat="45.23924" lon="6.03273">
        <ele>2320.6000977</ele>
        <time>2013-04-13T06:55:59Z</time>
      </trkpt>
      <trkpt lat="45.23924" lon="6.03271">
        <ele>2320.6000977</ele>
        <time>2013-04-13T06:56:02Z</time>
      </trkpt>
      <trkpt lat="45.23924" lon="6.0327">
        <ele>2320.6000977</ele>
        <time>2013-04-13T06:56:05Z</time>
      </trkpt>
      <trkpt lat="45.23925" lon="6.03268">
        <ele>2320.6000977</ele>
        <time>2013-04-13T06:56:08Z</time>
      </trkpt>
      <trkpt lat="45.23925" lon="6.03266">
        <ele>2321.1999512</ele>
        <time>2013-04-13T06:56:11Z</time>
      </trkpt>
      <trkpt lat="45.23926" lon="6.03263">
        <ele>2322.1999512</ele>
        <time>2013-04-13T06:56:14Z</time>
      </trkpt>
      <trkpt lat="45.23926" lon="6.03263">
        <ele>2322.6000977</ele>
        <time>2013-04-13T06:56:17Z</time>
      </trkpt>
      <trkpt lat="45.23927" lon="6.03261">
        <ele>2322.6000977</ele>
        <time>2013-04-13T06:56:20Z</time>
      </trkpt>
      <trkpt lat="45.23927" lon="6.03259">
        <ele>2322.6000977</ele>
        <time>2013-04-13T06:56:23Z</time>
      </trkpt>
      <trkpt lat="45.23927" lon="6.03257">
        <ele>2323</ele>
        <time>2013-04-13T06:56:26Z</time>
      </trkpt>
      <trkpt lat="45.23928" lon="6.03255">
        <ele>2324</ele>
        <time>2013-04-13T06:56:29Z</time>
      </trkpt>
      <trkpt lat="45.23928" lon="6.03253">
        <ele>2324.8000488</ele>
        <time>2013-04-13T06:56:32Z</time>
      </trkpt>
      <trkpt lat="45.23928" lon="6.03251">
        <ele>2324.8000488</ele>
        <time>2013-04-13T06:56:35Z</time>
      </trkpt>
      <trkpt lat="45.23929" lon="6.03249">
        <ele>2325.8000488</ele>
        <time>2013-04-13T06:56:38Z</time>
      </trkpt>
      <trkpt lat="45.23929" lon="6.03246">
        <ele>2326.8000488</ele>
        <time>2013-04-13T06:56:41Z</time>
      </trkpt>
      <trkpt lat="45.2393" lon="6.03244">
        <ele>2326.8000488</ele>
        <time>2013-04-13T06:56:44Z</time>
      </trkpt>
      <trkpt lat="45.2393" lon="6.03242">
        <ele>2327.1999512</ele>
        <time>2013-04-13T06:56:47Z</time>
      </trkpt>
      <trkpt lat="45.23931" lon="6.03239">
        <ele>2328</ele>
        <time>2013-04-13T06:56:50Z</time>
      </trkpt>
      <trkpt lat="45.23931" lon="6.03237">
        <ele>2328.8000488</ele>
        <time>2013-04-13T06:56:53Z</time>
      </trkpt>
      <trkpt lat="45.23932" lon="6.03235">
        <ele>2328.8000488</ele>
        <time>2013-04-13T06:56:56Z</time>
      </trkpt>
      <trkpt lat="45.23933" lon="6.03233">
        <ele>2330</ele>
        <time>2013-04-13T06:56:59Z</time>
      </trkpt>
      <trkpt lat="45.23934" lon="6.03231">
        <ele>2331</ele>
        <time>2013-04-13T06:57:02Z</time>
      </trkpt>
      <trkpt lat="45.23935" lon="6.03229">
        <ele>2331</ele>
        <time>2013-04-13T06:57:05Z</time>
      </trkpt>
      <trkpt lat="45.23937" lon="6.03227">
        <ele>2331</ele>
        <time>2013-04-13T06:57:08Z</time>
      </trkpt>
      <trkpt lat="45.23938" lon="6.03225">
        <ele>2332.1999512</ele>
        <time>2013-04-13T06:57:11Z</time>
      </trkpt>
      <trkpt lat="45.23938" lon="6.03223">
        <ele>2333</ele>
        <time>2013-04-13T06:57:14Z</time>
      </trkpt>
      <trkpt lat="45.23939" lon="6.0322">
        <ele>2333</ele>
        <time>2013-04-13T06:57:17Z</time>
      </trkpt>
      <trkpt lat="45.2394" lon="6.03219">
        <ele>2333.6000977</ele>
        <time>2013-04-13T06:57:20Z</time>
      </trkpt>
      <trkpt lat="45.23941" lon="6.03216">
        <ele>2335</ele>
        <time>2013-04-13T06:57:23Z</time>
      </trkpt>
      <trkpt lat="45.23941" lon="6.03215">
        <ele>2335</ele>
        <time>2013-04-13T06:57:26Z</time>
      </trkpt>
      <trkpt lat="45.23942" lon="6.03212">
        <ele>2335</ele>
        <time>2013-04-13T06:57:29Z</time>
      </trkpt>
      <trkpt lat="45.23943" lon="6.0321">
        <ele>2336</ele>
        <time>2013-04-13T06:57:32Z</time>
      </trkpt>
      <trkpt lat="45.23943" lon="6.03208">
        <ele>2337</ele>
        <time>2013-04-13T06:57:35Z</time>
      </trkpt>
      <trkpt lat="45.23944" lon="6.03206">
        <ele>2337</ele>
        <time>2013-04-13T06:57:38Z</time>
      </trkpt>
      <trkpt lat="45.23944" lon="6.03203">
        <ele>2337</ele>
        <time>2013-04-13T06:57:41Z</time>
      </trkpt>
      <trkpt lat="45.23945" lon="6.03202">
        <ele>2338.1999512</ele>
        <time>2013-04-13T06:57:44Z</time>
      </trkpt>
      <trkpt lat="45.23945" lon="6.03199">
        <ele>2339</ele>
        <time>2013-04-13T06:57:47Z</time>
      </trkpt>
      <trkpt lat="45.23946" lon="6.03196">
        <ele>2339</ele>
        <time>2013-04-13T06:57:50Z</time>
      </trkpt>
      <trkpt lat="45.23946" lon="6.03195">
        <ele>2339</ele>
        <time>2013-04-13T06:57:53Z</time>
      </trkpt>
      <trkpt lat="45.23946" lon="6.03195">
        <ele>2340.1999512</ele>
        <time>2013-04-13T06:57:56Z</time>
      </trkpt>
      <trkpt lat="45.23946" lon="6.03196">
        <ele>2341</ele>
        <time>2013-04-13T06:57:59Z</time>
      </trkpt>
      <trkpt lat="45.23946" lon="6.03197">
        <ele>2341</ele>
        <time>2013-04-13T06:58:02Z</time>
      </trkpt>
      <trkpt lat="45.23947" lon="6.03198">
        <ele>2341</ele>
        <time>2013-04-13T06:58:05Z</time>
      </trkpt>
      <trkpt lat="45.23947" lon="6.032">
        <ele>2341</ele>
        <time>2013-04-13T06:58:08Z</time>
      </trkpt>
      <trkpt lat="45.23949" lon="6.03202">
        <ele>2341</ele>
        <time>2013-04-13T06:58:11Z</time>
      </trkpt>
      <trkpt lat="45.2395" lon="6.03205">
        <ele>2341</ele>
        <time>2013-04-13T06:58:14Z</time>
      </trkpt>
      <trkpt lat="45.2395" lon="6.03205">
        <ele>2341.6000977</ele>
        <time>2013-04-13T06:58:17Z</time>
      </trkpt>
      <trkpt lat="45.23952" lon="6.03208">
        <ele>2342.6000977</ele>
        <time>2013-04-13T06:58:20Z</time>
      </trkpt>
      <trkpt lat="45.23952" lon="6.03209">
        <ele>2343</ele>
        <time>2013-04-13T06:58:23Z</time>
      </trkpt>
      <trkpt lat="45.23952" lon="6.03209">
        <ele>2343</ele>
        <time>2013-04-13T06:58:26Z</time>
      </trkpt>
      <trkpt lat="45.23952" lon="6.03209">
        <ele>2343</ele>
        <time>2013-04-13T06:58:29Z</time>
      </trkpt>
      <trkpt lat="45.23952" lon="6.03209">
        <ele>2343</ele>
        <time>2013-04-13T06:58:32Z</time>
      </trkpt>
      <trkpt lat="45.23952" lon="6.03209">
        <ele>2343</ele>
        <time>2013-04-13T06:58:35Z</time>
      </trkpt>
      <trkpt lat="45.23952" lon="6.03209">
        <ele>2343</ele>
        <time>2013-04-13T06:58:38Z</time>
      </trkpt>
      <trkpt lat="45.23952" lon="6.03209">
        <ele>2343</ele>
        <time>2013-04-13T06:58:41Z</time>
      </trkpt>
      <trkpt lat="45.23952" lon="6.03209">
        <ele>2343</ele>
        <time>2013-04-13T06:58:44Z</time>
      </trkpt>
      <trkpt lat="45.23953" lon="6.03211">
        <ele>2343</ele>
        <time>2013-04-13T06:58:47Z</time>
      </trkpt>
      <trkpt lat="45.23954" lon="6.03213">
        <ele>2343</ele>
        <time>2013-04-13T06:58:50Z</time>
      </trkpt>
      <trkpt lat="45.23956" lon="6.03215">
        <ele>2344</ele>
        <time>2013-04-13T06:58:53Z</time>
      </trkpt>
      <trkpt lat="45.23958" lon="6.03215">
        <ele>2345</ele>
        <time>2013-04-13T06:58:56Z</time>
      </trkpt>
      <trkpt lat="45.23958" lon="6.03212">
        <ele>2346</ele>
        <time>2013-04-13T06:58:59Z</time>
      </trkpt>
      <trkpt lat="45.23959" lon="6.0321">
        <ele>2347.1999512</ele>
        <time>2013-04-13T06:59:02Z</time>
      </trkpt>
      <trkpt lat="45.23959" lon="6.03207">
        <ele>2348</ele>
        <time>2013-04-13T06:59:05Z</time>
      </trkpt>
      <trkpt lat="45.2396" lon="6.03205">
        <ele>2348</ele>
        <time>2013-04-13T06:59:08Z</time>
      </trkpt>
      <trkpt lat="45.23961" lon="6.03202">
        <ele>2348</ele>
        <time>2013-04-13T06:59:11Z</time>
      </trkpt>
      <trkpt lat="45.23961" lon="6.032">
        <ele>2348</ele>
        <time>2013-04-13T06:59:14Z</time>
      </trkpt>
      <trkpt lat="45.23962" lon="6.03197">
        <ele>2349.6000977</ele>
        <time>2013-04-13T06:59:17Z</time>
      </trkpt>
      <trkpt lat="45.23962" lon="6.03196">
        <ele>2350</ele>
        <time>2013-04-13T06:59:20Z</time>
      </trkpt>
      <trkpt lat="45.23962" lon="6.03194">
        <ele>2350</ele>
        <time>2013-04-13T06:59:23Z</time>
      </trkpt>
      <trkpt lat="45.23963" lon="6.03191">
        <ele>2350</ele>
        <time>2013-04-13T06:59:26Z</time>
      </trkpt>
      <trkpt lat="45.23963" lon="6.0319">
        <ele>2351.1999512</ele>
        <time>2013-04-13T06:59:29Z</time>
      </trkpt>
      <trkpt lat="45.23963" lon="6.0319">
        <ele>2352</ele>
        <time>2013-04-13T06:59:32Z</time>
      </trkpt>
      <trkpt lat="45.23962" lon="6.0319">
        <ele>2352</ele>
        <time>2013-04-13T06:59:35Z</time>
      </trkpt>
      <trkpt lat="45.23963" lon="6.03192">
        <ele>2352</ele>
        <time>2013-04-13T06:59:38Z</time>
      </trkpt>
      <trkpt lat="45.23964" lon="6.03195">
        <ele>2352</ele>
        <time>2013-04-13T06:59:41Z</time>
      </trkpt>
      <trkpt lat="45.23964" lon="6.03197">
        <ele>2352</ele>
        <time>2013-04-13T06:59:44Z</time>
      </trkpt>
      <trkpt lat="45.23965" lon="6.03198">
        <ele>2352</ele>
        <time>2013-04-13T06:59:47Z</time>
      </trkpt>
      <trkpt lat="45.23965" lon="6.032">
        <ele>2353</ele>
        <time>2013-04-13T06:59:50Z</time>
      </trkpt>
      <trkpt lat="45.23965" lon="6.032">
        <ele>2354</ele>
        <time>2013-04-13T06:59:53Z</time>
      </trkpt>
      <trkpt lat="45.23965" lon="6.03201">
        <ele>2354</ele>
        <time>2013-04-13T06:59:56Z</time>
      </trkpt>
      <trkpt lat="45.23966" lon="6.03202">
        <ele>2354</ele>
        <time>2013-04-13T06:59:59Z</time>
      </trkpt>
      <trkpt lat="45.23968" lon="6.03205">
        <ele>2354</ele>
        <time>2013-04-13T07:00:02Z</time>
      </trkpt>
      <trkpt lat="45.23968" lon="6.03207">
        <ele>2354</ele>
        <time>2013-04-13T07:00:05Z</time>
      </trkpt>
      <trkpt lat="45.23969" lon="6.03207">
        <ele>2354.6000977</ele>
        <time>2013-04-13T07:00:08Z</time>
      </trkpt>
      <trkpt lat="45.2397" lon="6.03209">
        <ele>2355.6000977</ele>
        <time>2013-04-13T07:00:11Z</time>
      </trkpt>
      <trkpt lat="45.23971" lon="6.03211">
        <ele>2356</ele>
        <time>2013-04-13T07:00:14Z</time>
      </trkpt>
      <trkpt lat="45.23972" lon="6.03213">
        <ele>2356</ele>
        <time>2013-04-13T07:00:17Z</time>
      </trkpt>
      <trkpt lat="45.23973" lon="6.03214">
        <ele>2357</ele>
        <time>2013-04-13T07:00:20Z</time>
      </trkpt>
      <trkpt lat="45.23974" lon="6.03217">
        <ele>2358.1999512</ele>
        <time>2013-04-13T07:00:23Z</time>
      </trkpt>
      <trkpt lat="45.23974" lon="6.03218">
        <ele>2358.1999512</ele>
        <time>2013-04-13T07:00:26Z</time>
      </trkpt>
      <trkpt lat="45.23975" lon="6.0322">
        <ele>2358.1999512</ele>
        <time>2013-04-13T07:00:29Z</time>
      </trkpt>
      <trkpt lat="45.23976" lon="6.03222">
        <ele>2358.8000488</ele>
        <time>2013-04-13T07:00:32Z</time>
      </trkpt>
      <trkpt lat="45.23977" lon="6.03223">
        <ele>2359.8000488</ele>
        <time>2013-04-13T07:00:35Z</time>
      </trkpt>
      <trkpt lat="45.23978" lon="6.03226">
        <ele>2360.1999512</ele>
        <time>2013-04-13T07:00:38Z</time>
      </trkpt>
      <trkpt lat="45.23979" lon="6.03227">
        <ele>2361</ele>
        <time>2013-04-13T07:00:41Z</time>
      </trkpt>
      <trkpt lat="45.23979" lon="6.03228">
        <ele>2362</ele>
        <time>2013-04-13T07:00:44Z</time>
      </trkpt>
      <trkpt lat="45.23981" lon="6.03228">
        <ele>2362.1999512</ele>
        <time>2013-04-13T07:00:47Z</time>
      </trkpt>
      <trkpt lat="45.23981" lon="6.03226">
        <ele>2363</ele>
        <time>2013-04-13T07:00:50Z</time>
      </trkpt>
      <trkpt lat="45.23982" lon="6.03223">
        <ele>2364</ele>
        <time>2013-04-13T07:00:53Z</time>
      </trkpt>
      <trkpt lat="45.23983" lon="6.03221">
        <ele>2364.6000977</ele>
        <time>2013-04-13T07:00:56Z</time>
      </trkpt>
      <trkpt lat="45.23984" lon="6.03219">
        <ele>2364.6000977</ele>
        <time>2013-04-13T07:00:59Z</time>
      </trkpt>
      <trkpt lat="45.23984" lon="6.03217">
        <ele>2365.1999512</ele>
        <time>2013-04-13T07:01:02Z</time>
      </trkpt>
      <trkpt lat="45.23985" lon="6.03214">
        <ele>2366.8000488</ele>
        <time>2013-04-13T07:01:05Z</time>
      </trkpt>
      <trkpt lat="45.23986" lon="6.03212">
        <ele>2366.8000488</ele>
        <time>2013-04-13T07:01:08Z</time>
      </trkpt>
      <trkpt lat="45.23986" lon="6.03209">
        <ele>2366.8000488</ele>
        <time>2013-04-13T07:01:11Z</time>
      </trkpt>
      <trkpt lat="45.23987" lon="6.03207">
        <ele>2367</ele>
        <time>2013-04-13T07:01:14Z</time>
      </trkpt>
      <trkpt lat="45.23987" lon="6.03205">
        <ele>2368.1999512</ele>
        <time>2013-04-13T07:01:17Z</time>
      </trkpt>
      <trkpt lat="45.23988" lon="6.03202">
        <ele>2368.8000488</ele>
        <time>2013-04-13T07:01:20Z</time>
      </trkpt>
      <trkpt lat="45.23988" lon="6.032">
        <ele>2369.6000977</ele>
        <time>2013-04-13T07:01:23Z</time>
      </trkpt>
      <trkpt lat="45.23988" lon="6.03198">
        <ele>2370.8000488</ele>
        <time>2013-04-13T07:01:26Z</time>
      </trkpt>
      <trkpt lat="45.23988" lon="6.03196">
        <ele>2370.8000488</ele>
        <time>2013-04-13T07:01:29Z</time>
      </trkpt>
      <trkpt lat="45.23988" lon="6.03194">
        <ele>2371</ele>
        <time>2013-04-13T07:01:32Z</time>
      </trkpt>
      <trkpt lat="45.23989" lon="6.03192">
        <ele>2372</ele>
        <time>2013-04-13T07:01:35Z</time>
      </trkpt>
      <trkpt lat="45.23989" lon="6.03189">
        <ele>2373</ele>
        <time>2013-04-13T07:01:38Z</time>
      </trkpt>
      <trkpt lat="45.23989" lon="6.03186">
        <ele>2373</ele>
        <time>2013-04-13T07:01:41Z</time>
      </trkpt>
      <trkpt lat="45.23988" lon="6.03187">
        <ele>2374.1999512</ele>
        <time>2013-04-13T07:01:44Z</time>
      </trkpt>
      <trkpt lat="45.2399" lon="6.03186">
        <ele>2375</ele>
        <time>2013-04-13T07:01:47Z</time>
      </trkpt>
      <trkpt lat="45.23992" lon="6.03187">
        <ele>2375</ele>
        <time>2013-04-13T07:01:50Z</time>
      </trkpt>
      <trkpt lat="45.23993" lon="6.03188">
        <ele>2375</ele>
        <time>2013-04-13T07:01:53Z</time>
      </trkpt>
      <trkpt lat="45.23993" lon="6.03188">
        <ele>2376</ele>
        <time>2013-04-13T07:01:56Z</time>
      </trkpt>
      <trkpt lat="45.23993" lon="6.03188">
        <ele>2377</ele>
        <time>2013-04-13T07:01:59Z</time>
      </trkpt>
      <trkpt lat="45.23994" lon="6.03189">
        <ele>2377</ele>
        <time>2013-04-13T07:02:02Z</time>
      </trkpt>
      <trkpt lat="45.23995" lon="6.03189">
        <ele>2377</ele>
        <time>2013-04-13T07:02:05Z</time>
      </trkpt>
      <trkpt lat="45.23997" lon="6.03191">
        <ele>2377</ele>
        <time>2013-04-13T07:02:08Z</time>
      </trkpt>
      <trkpt lat="45.23998" lon="6.03192">
        <ele>2377</ele>
        <time>2013-04-13T07:02:11Z</time>
      </trkpt>
      <trkpt lat="45.24" lon="6.03193">
        <ele>2377.1999512</ele>
        <time>2013-04-13T07:02:14Z</time>
      </trkpt>
      <trkpt lat="45.24002" lon="6.03195">
        <ele>2378.1999512</ele>
        <time>2013-04-13T07:02:17Z</time>
      </trkpt>
      <trkpt lat="45.24004" lon="6.03195">
        <ele>2379</ele>
        <time>2013-04-13T07:02:20Z</time>
      </trkpt>
      <trkpt lat="45.24005" lon="6.03197">
        <ele>2379</ele>
        <time>2013-04-13T07:02:23Z</time>
      </trkpt>
      <trkpt lat="45.24007" lon="6.03199">
        <ele>2380</ele>
        <time>2013-04-13T07:02:26Z</time>
      </trkpt>
      <trkpt lat="45.24009" lon="6.03201">
        <ele>2381</ele>
        <time>2013-04-13T07:02:29Z</time>
      </trkpt>
      <trkpt lat="45.24009" lon="6.03202">
        <ele>2381</ele>
        <time>2013-04-13T07:02:32Z</time>
      </trkpt>
      <trkpt lat="45.24009" lon="6.03202">
        <ele>2382.1999512</ele>
        <time>2013-04-13T07:02:35Z</time>
      </trkpt>
      <trkpt lat="45.24009" lon="6.03202">
        <ele>2383</ele>
        <time>2013-04-13T07:02:38Z</time>
      </trkpt>
      <trkpt lat="45.24009" lon="6.03202">
        <ele>2383</ele>
        <time>2013-04-13T07:02:41Z</time>
      </trkpt>
      <trkpt lat="45.24009" lon="6.03202">
        <ele>2383</ele>
        <time>2013-04-13T07:02:44Z</time>
      </trkpt>
      <trkpt lat="45.24009" lon="6.03202">
        <ele>2383</ele>
        <time>2013-04-13T07:02:47Z</time>
      </trkpt>
      <trkpt lat="45.24011" lon="6.03204">
        <ele>2383</ele>
        <time>2013-04-13T07:02:50Z</time>
      </trkpt>
      <trkpt lat="45.24011" lon="6.03205">
        <ele>2383</ele>
        <time>2013-04-13T07:02:53Z</time>
      </trkpt>
      <trkpt lat="45.24013" lon="6.03206">
        <ele>2383</ele>
        <time>2013-04-13T07:02:56Z</time>
      </trkpt>
      <trkpt lat="45.24014" lon="6.03203">
        <ele>2384.1999512</ele>
        <time>2013-04-13T07:02:59Z</time>
      </trkpt>
      <trkpt lat="45.24015" lon="6.032">
        <ele>2385</ele>
        <time>2013-04-13T07:03:02Z</time>
      </trkpt>
      <trkpt lat="45.24016" lon="6.03197">
        <ele>2385.1999512</ele>
        <time>2013-04-13T07:03:05Z</time>
      </trkpt>
      <trkpt lat="45.24017" lon="6.03194">
        <ele>2386.1999512</ele>
        <time>2013-04-13T07:03:08Z</time>
      </trkpt>
      <trkpt lat="45.24017" lon="6.03191">
        <ele>2387.1999512</ele>
        <time>2013-04-13T07:03:11Z</time>
      </trkpt>
      <trkpt lat="45.24018" lon="6.03188">
        <ele>2387.1999512</ele>
        <time>2013-04-13T07:03:14Z</time>
      </trkpt>
      <trkpt lat="45.24018" lon="6.03186">
        <ele>2388.1999512</ele>
        <time>2013-04-13T07:03:17Z</time>
      </trkpt>
      <trkpt lat="45.24019" lon="6.03183">
        <ele>2389.1999512</ele>
        <time>2013-04-13T07:03:20Z</time>
      </trkpt>
      <trkpt lat="45.24019" lon="6.03184">
        <ele>2389.1999512</ele>
        <time>2013-04-13T07:03:23Z</time>
      </trkpt>
      <trkpt lat="45.2402" lon="6.03184">
        <ele>2389.1999512</ele>
        <time>2013-04-13T07:03:26Z</time>
      </trkpt>
      <trkpt lat="45.24021" lon="6.03187">
        <ele>2390</ele>
        <time>2013-04-13T07:03:29Z</time>
      </trkpt>
      <trkpt lat="45.24023" lon="6.03189">
        <ele>2391</ele>
        <time>2013-04-13T07:03:32Z</time>
      </trkpt>
      <trkpt lat="45.24024" lon="6.0319">
        <ele>2391.1999512</ele>
        <time>2013-04-13T07:03:35Z</time>
      </trkpt>
      <trkpt lat="45.24025" lon="6.03192">
        <ele>2391.6000977</ele>
        <time>2013-04-13T07:03:38Z</time>
      </trkpt>
      <trkpt lat="45.24027" lon="6.03194">
        <ele>2392.6000977</ele>
        <time>2013-04-13T07:03:41Z</time>
      </trkpt>
      <trkpt lat="45.24028" lon="6.03196">
        <ele>2393.1999512</ele>
        <time>2013-04-13T07:03:44Z</time>
      </trkpt>
      <trkpt lat="45.24029" lon="6.03199">
        <ele>2393.1999512</ele>
        <time>2013-04-13T07:03:47Z</time>
      </trkpt>
      <trkpt lat="45.24029" lon="6.03198">
        <ele>2394.1999512</ele>
        <time>2013-04-13T07:03:50Z</time>
      </trkpt>
      <trkpt lat="45.24029" lon="6.03198">
        <ele>2395.1999512</ele>
        <time>2013-04-13T07:03:53Z</time>
      </trkpt>
      <trkpt lat="45.2403" lon="6.032">
        <ele>2395.6000977</ele>
        <time>2013-04-13T07:03:56Z</time>
      </trkpt>
      <trkpt lat="45.24031" lon="6.03203">
        <ele>2395.6000977</ele>
        <time>2013-04-13T07:03:59Z</time>
      </trkpt>
      <trkpt lat="45.24032" lon="6.03205">
        <ele>2395.6000977</ele>
        <time>2013-04-13T07:04:02Z</time>
      </trkpt>
      <trkpt lat="45.24033" lon="6.03206">
        <ele>2395.6000977</ele>
        <time>2013-04-13T07:04:05Z</time>
      </trkpt>
      <trkpt lat="45.24034" lon="6.03209">
        <ele>2396</ele>
        <time>2013-04-13T07:04:08Z</time>
      </trkpt>
      <trkpt lat="45.24035" lon="6.03212">
        <ele>2396.8000488</ele>
        <time>2013-04-13T07:04:11Z</time>
      </trkpt>
      <trkpt lat="45.24036" lon="6.03214">
        <ele>2397.6000977</ele>
        <time>2013-04-13T07:04:14Z</time>
      </trkpt>
      <trkpt lat="45.24037" lon="6.03216">
        <ele>2397.6000977</ele>
        <time>2013-04-13T07:04:17Z</time>
      </trkpt>
      <trkpt lat="45.24038" lon="6.03219">
        <ele>2398.6000977</ele>
        <time>2013-04-13T07:04:20Z</time>
      </trkpt>
      <trkpt lat="45.24039" lon="6.03222">
        <ele>2399.6000977</ele>
        <time>2013-04-13T07:04:23Z</time>
      </trkpt>
      <trkpt lat="45.2404" lon="6.03224">
        <ele>2399.6000977</ele>
        <time>2013-04-13T07:04:26Z</time>
      </trkpt>
      <trkpt lat="45.24041" lon="6.03227">
        <ele>2400.1999512</ele>
        <time>2013-04-13T07:04:29Z</time>
      </trkpt>
      <trkpt lat="45.24043" lon="6.03228">
        <ele>2401</ele>
        <time>2013-04-13T07:04:32Z</time>
      </trkpt>
      <trkpt lat="45.24045" lon="6.03227">
        <ele>2401.6000977</ele>
        <time>2013-04-13T07:04:35Z</time>
      </trkpt>
      <trkpt lat="45.24046" lon="6.03225">
        <ele>2402.6000977</ele>
        <time>2013-04-13T07:04:38Z</time>
      </trkpt>
      <trkpt lat="45.24048" lon="6.03223">
        <ele>2403.8000488</ele>
        <time>2013-04-13T07:04:41Z</time>
      </trkpt>
      <trkpt lat="45.2405" lon="6.03222">
        <ele>2403.8000488</ele>
        <time>2013-04-13T07:04:44Z</time>
      </trkpt>
      <trkpt lat="45.24051" lon="6.03221">
        <ele>2404.6000977</ele>
        <time>2013-04-13T07:04:47Z</time>
      </trkpt>
      <trkpt lat="45.24053" lon="6.0322">
        <ele>2405.1999512</ele>
        <time>2013-04-13T07:04:50Z</time>
      </trkpt>
      <trkpt lat="45.24055" lon="6.0322">
        <ele>2405.8000488</ele>
        <time>2013-04-13T07:04:53Z</time>
      </trkpt>
      <trkpt lat="45.24057" lon="6.03221">
        <ele>2406</ele>
        <time>2013-04-13T07:04:56Z</time>
      </trkpt>
      <trkpt lat="45.24058" lon="6.03222">
        <ele>2407</ele>
        <time>2013-04-13T07:04:59Z</time>
      </trkpt>
      <trkpt lat="45.2406" lon="6.03223">
        <ele>2407.8000488</ele>
        <time>2013-04-13T07:05:02Z</time>
      </trkpt>
      <trkpt lat="45.24062" lon="6.03224">
        <ele>2407.8000488</ele>
        <time>2013-04-13T07:05:05Z</time>
      </trkpt>
      <trkpt lat="45.24064" lon="6.03226">
        <ele>2408.1999512</ele>
        <time>2013-04-13T07:05:08Z</time>
      </trkpt>
      <trkpt lat="45.24065" lon="6.03227">
        <ele>2409.6000977</ele>
        <time>2013-04-13T07:05:11Z</time>
      </trkpt>
      <trkpt lat="45.24066" lon="6.0323">
        <ele>2410</ele>
        <time>2013-04-13T07:05:14Z</time>
      </trkpt>
      <trkpt lat="45.24067" lon="6.03231">
        <ele>2410.6000977</ele>
        <time>2013-04-13T07:05:17Z</time>
      </trkpt>
      <trkpt lat="45.24067" lon="6.03231">
        <ele>2411.6000977</ele>
        <time>2013-04-13T07:05:20Z</time>
      </trkpt>
      <trkpt lat="45.24067" lon="6.03231">
        <ele>2412</ele>
        <time>2013-04-13T07:05:23Z</time>
      </trkpt>
      <trkpt lat="45.24067" lon="6.03231">
        <ele>2412</ele>
        <time>2013-04-13T07:05:26Z</time>
      </trkpt>
      <trkpt lat="45.24068" lon="6.03233">
        <ele>2412</ele>
        <time>2013-04-13T07:05:29Z</time>
      </trkpt>
      <trkpt lat="45.24068" lon="6.03235">
        <ele>2412</ele>
        <time>2013-04-13T07:05:32Z</time>
      </trkpt>
      <trkpt lat="45.24069" lon="6.03237">
        <ele>2412</ele>
        <time>2013-04-13T07:05:35Z</time>
      </trkpt>
      <trkpt lat="45.2407" lon="6.0324">
        <ele>2412.8000488</ele>
        <time>2013-04-13T07:05:38Z</time>
      </trkpt>
      <trkpt lat="45.24071" lon="6.03242">
        <ele>2413.8000488</ele>
        <time>2013-04-13T07:05:41Z</time>
      </trkpt>
      <trkpt lat="45.24072" lon="6.03244">
        <ele>2414</ele>
        <time>2013-04-13T07:05:44Z</time>
      </trkpt>
      <trkpt lat="45.24073" lon="6.03247">
        <ele>2414</ele>
        <time>2013-04-13T07:05:47Z</time>
      </trkpt>
      <trkpt lat="45.24073" lon="6.0325">
        <ele>2415.1999512</ele>
        <time>2013-04-13T07:05:50Z</time>
      </trkpt>
      <trkpt lat="45.24074" lon="6.03252">
        <ele>2417</ele>
        <time>2013-04-13T07:05:53Z</time>
      </trkpt>
      <trkpt lat="45.24075" lon="6.03255">
        <ele>2417</ele>
        <time>2013-04-13T07:05:56Z</time>
      </trkpt>
      <trkpt lat="45.24078" lon="6.03255">
        <ele>2417.1999512</ele>
        <time>2013-04-13T07:05:59Z</time>
      </trkpt>
      <trkpt lat="45.24079" lon="6.03254">
        <ele>2418</ele>
        <time>2013-04-13T07:06:02Z</time>
      </trkpt>
      <trkpt lat="45.24081" lon="6.03252">
        <ele>2419</ele>
        <time>2013-04-13T07:06:05Z</time>
      </trkpt>
      <trkpt lat="45.24082" lon="6.03251">
        <ele>2419</ele>
        <time>2013-04-13T07:06:08Z</time>
      </trkpt>
      <trkpt lat="45.24084" lon="6.03251">
        <ele>2420</ele>
        <time>2013-04-13T07:06:11Z</time>
      </trkpt>
      <trkpt lat="45.24086" lon="6.0325">
        <ele>2421</ele>
        <time>2013-04-13T07:06:14Z</time>
      </trkpt>
      <trkpt lat="45.24088" lon="6.03251">
        <ele>2421</ele>
        <time>2013-04-13T07:06:17Z</time>
      </trkpt>
      <trkpt lat="45.24089" lon="6.03251">
        <ele>2422</ele>
        <time>2013-04-13T07:06:20Z</time>
      </trkpt>
      <trkpt lat="45.24091" lon="6.03252">
        <ele>2423</ele>
        <time>2013-04-13T07:06:23Z</time>
      </trkpt>
      <trkpt lat="45.24092" lon="6.03253">
        <ele>2423</ele>
        <time>2013-04-13T07:06:26Z</time>
      </trkpt>
      <trkpt lat="45.24093" lon="6.03254">
        <ele>2423.8000488</ele>
        <time>2013-04-13T07:06:29Z</time>
      </trkpt>
      <trkpt lat="45.24095" lon="6.03255">
        <ele>2424.8000488</ele>
        <time>2013-04-13T07:06:32Z</time>
      </trkpt>
      <trkpt lat="45.24096" lon="6.03257">
        <ele>2425</ele>
        <time>2013-04-13T07:06:35Z</time>
      </trkpt>
      <trkpt lat="45.24096" lon="6.03257">
        <ele>2426.1999512</ele>
        <time>2013-04-13T07:06:38Z</time>
      </trkpt>
      <trkpt lat="45.24097" lon="6.03257">
        <ele>2427</ele>
        <time>2013-04-13T07:06:41Z</time>
      </trkpt>
      <trkpt lat="45.24097" lon="6.03258">
        <ele>2427</ele>
        <time>2013-04-13T07:06:44Z</time>
      </trkpt>
      <trkpt lat="45.24098" lon="6.03259">
        <ele>2427</ele>
        <time>2013-04-13T07:06:47Z</time>
      </trkpt>
      <trkpt lat="45.241" lon="6.0326">
        <ele>2427</ele>
        <time>2013-04-13T07:06:50Z</time>
      </trkpt>
      <trkpt lat="45.24101" lon="6.03261">
        <ele>2427</ele>
        <time>2013-04-13T07:06:53Z</time>
      </trkpt>
      <trkpt lat="45.24103" lon="6.03262">
        <ele>2427.8000488</ele>
        <time>2013-04-13T07:06:56Z</time>
      </trkpt>
      <trkpt lat="45.24105" lon="6.03264">
        <ele>2429</ele>
        <time>2013-04-13T07:06:59Z</time>
      </trkpt>
      <trkpt lat="45.24106" lon="6.03265">
        <ele>2429</ele>
        <time>2013-04-13T07:07:02Z</time>
      </trkpt>
      <trkpt lat="45.24107" lon="6.03267">
        <ele>2429.1999512</ele>
        <time>2013-04-13T07:07:05Z</time>
      </trkpt>
      <trkpt lat="45.24108" lon="6.03269">
        <ele>2430</ele>
        <time>2013-04-13T07:07:08Z</time>
      </trkpt>
      <trkpt lat="45.24109" lon="6.03271">
        <ele>2431</ele>
        <time>2013-04-13T07:07:11Z</time>
      </trkpt>
      <trkpt lat="45.2411" lon="6.03272">
        <ele>2431</ele>
        <time>2013-04-13T07:07:14Z</time>
      </trkpt>
      <trkpt lat="45.24112" lon="6.03274">
        <ele>2432</ele>
        <time>2013-04-13T07:07:17Z</time>
      </trkpt>
      <trkpt lat="45.24113" lon="6.03275">
        <ele>2433</ele>
        <time>2013-04-13T07:07:20Z</time>
      </trkpt>
      <trkpt lat="45.24115" lon="6.03277">
        <ele>2433.8000488</ele>
        <time>2013-04-13T07:07:23Z</time>
      </trkpt>
      <trkpt lat="45.24116" lon="6.03278">
        <ele>2434.6000977</ele>
        <time>2013-04-13T07:07:26Z</time>
      </trkpt>
      <trkpt lat="45.24117" lon="6.03279">
        <ele>2435.1999512</ele>
        <time>2013-04-13T07:07:29Z</time>
      </trkpt>
      <trkpt lat="45.24119" lon="6.0328">
        <ele>2435.1999512</ele>
        <time>2013-04-13T07:07:32Z</time>
      </trkpt>
      <trkpt lat="45.24121" lon="6.03281">
        <ele>2436.1999512</ele>
        <time>2013-04-13T07:07:35Z</time>
      </trkpt>
      <trkpt lat="45.24122" lon="6.03283">
        <ele>2437.1999512</ele>
        <time>2013-04-13T07:07:38Z</time>
      </trkpt>
      <trkpt lat="45.24124" lon="6.03284">
        <ele>2437.1999512</ele>
        <time>2013-04-13T07:07:41Z</time>
      </trkpt>
      <trkpt lat="45.24124" lon="6.03285">
        <ele>2438.1999512</ele>
        <time>2013-04-13T07:07:44Z</time>
      </trkpt>
      <trkpt lat="45.24125" lon="6.03286">
        <ele>2439.1999512</ele>
        <time>2013-04-13T07:07:47Z</time>
      </trkpt>
      <trkpt lat="45.24125" lon="6.03286">
        <ele>2439.1999512</ele>
        <time>2013-04-13T07:07:50Z</time>
      </trkpt>
      <trkpt lat="45.24125" lon="6.03288">
        <ele>2439.1999512</ele>
        <time>2013-04-13T07:07:53Z</time>
      </trkpt>
      <trkpt lat="45.24127" lon="6.03289">
        <ele>2439.1999512</ele>
        <time>2013-04-13T07:07:56Z</time>
      </trkpt>
      <trkpt lat="45.24128" lon="6.03292">
        <ele>2440</ele>
        <time>2013-04-13T07:07:59Z</time>
      </trkpt>
      <trkpt lat="45.2413" lon="6.03294">
        <ele>2441</ele>
        <time>2013-04-13T07:08:02Z</time>
      </trkpt>
      <trkpt lat="45.24131" lon="6.03296">
        <ele>2441.1999512</ele>
        <time>2013-04-13T07:08:05Z</time>
      </trkpt>
      <trkpt lat="45.24133" lon="6.03298">
        <ele>2442.1999512</ele>
        <time>2013-04-13T07:08:08Z</time>
      </trkpt>
      <trkpt lat="45.24134" lon="6.033">
        <ele>2443.1999512</ele>
        <time>2013-04-13T07:08:11Z</time>
      </trkpt>
      <trkpt lat="45.24136" lon="6.03302">
        <ele>2443.1999512</ele>
        <time>2013-04-13T07:08:14Z</time>
      </trkpt>
      <trkpt lat="45.24138" lon="6.03303">
        <ele>2444.6000977</ele>
        <time>2013-04-13T07:08:17Z</time>
      </trkpt>
      <trkpt lat="45.2414" lon="6.03302">
        <ele>2445.6000977</ele>
        <time>2013-04-13T07:08:20Z</time>
      </trkpt>
      <trkpt lat="45.24141" lon="6.033">
        <ele>2446</ele>
        <time>2013-04-13T07:08:23Z</time>
      </trkpt>
      <trkpt lat="45.24142" lon="6.03297">
        <ele>2447</ele>
        <time>2013-04-13T07:08:26Z</time>
      </trkpt>
      <trkpt lat="45.24143" lon="6.03294">
        <ele>2448.8000488</ele>
        <time>2013-04-13T07:08:29Z</time>
      </trkpt>
      <trkpt lat="45.24144" lon="6.03293">
        <ele>2449.8000488</ele>
        <time>2013-04-13T07:08:32Z</time>
      </trkpt>
      <trkpt lat="45.24145" lon="6.03293">
        <ele>2449.8000488</ele>
        <time>2013-04-13T07:08:35Z</time>
      </trkpt>
      <trkpt lat="45.24145" lon="6.03294">
        <ele>2449.8000488</ele>
        <time>2013-04-13T07:08:38Z</time>
      </trkpt>
      <trkpt lat="45.24146" lon="6.03295">
        <ele>2449.8000488</ele>
        <time>2013-04-13T07:08:41Z</time>
      </trkpt>
      <trkpt lat="45.24148" lon="6.03297">
        <ele>2450.1999512</ele>
        <time>2013-04-13T07:08:44Z</time>
      </trkpt>
      <trkpt lat="45.2415" lon="6.03299">
        <ele>2451.1999512</ele>
        <time>2013-04-13T07:08:47Z</time>
      </trkpt>
      <trkpt lat="45.24151" lon="6.03299">
        <ele>2452</ele>
        <time>2013-04-13T07:08:50Z</time>
      </trkpt>
      <trkpt lat="45.24151" lon="6.033">
        <ele>2453.8000488</ele>
        <time>2013-04-13T07:08:53Z</time>
      </trkpt>
      <trkpt lat="45.24152" lon="6.033">
        <ele>2453.8000488</ele>
        <time>2013-04-13T07:08:56Z</time>
      </trkpt>
      <trkpt lat="45.24152" lon="6.033">
        <ele>2453.8000488</ele>
        <time>2013-04-13T07:08:59Z</time>
      </trkpt>
      <trkpt lat="45.24152" lon="6.033">
        <ele>2453.8000488</ele>
        <time>2013-04-13T07:09:02Z</time>
      </trkpt>
      <trkpt lat="45.24152" lon="6.03301">
        <ele>2453.8000488</ele>
        <time>2013-04-13T07:09:05Z</time>
      </trkpt>
      <trkpt lat="45.24154" lon="6.03302">
        <ele>2453.8000488</ele>
        <time>2013-04-13T07:09:08Z</time>
      </trkpt>
      <trkpt lat="45.24156" lon="6.03303">
        <ele>2453.8000488</ele>
        <time>2013-04-13T07:09:11Z</time>
      </trkpt>
      <trkpt lat="45.24158" lon="6.03304">
        <ele>2454</ele>
        <time>2013-04-13T07:09:14Z</time>
      </trkpt>
      <trkpt lat="45.2416" lon="6.03305">
        <ele>2455</ele>
        <time>2013-04-13T07:09:17Z</time>
      </trkpt>
      <trkpt lat="45.24161" lon="6.03304">
        <ele>2456</ele>
        <time>2013-04-13T07:09:20Z</time>
      </trkpt>
      <trkpt lat="45.24162" lon="6.03301">
        <ele>2456</ele>
        <time>2013-04-13T07:09:23Z</time>
      </trkpt>
      <trkpt lat="45.24162" lon="6.03299">
        <ele>2457</ele>
        <time>2013-04-13T07:09:26Z</time>
      </trkpt>
      <trkpt lat="45.24162" lon="6.03297">
        <ele>2457.8000488</ele>
        <time>2013-04-13T07:09:29Z</time>
      </trkpt>
      <trkpt lat="45.24162" lon="6.03295">
        <ele>2458</ele>
        <time>2013-04-13T07:09:32Z</time>
      </trkpt>
      <trkpt lat="45.24162" lon="6.03295">
        <ele>2458</ele>
        <time>2013-04-13T07:09:35Z</time>
      </trkpt>
      <trkpt lat="45.2416" lon="6.03293">
        <ele>2458.6000977</ele>
        <time>2013-04-13T07:09:38Z</time>
      </trkpt>
      <trkpt lat="45.2416" lon="6.03296">
        <ele>2460.1999512</ele>
        <time>2013-04-13T07:09:41Z</time>
      </trkpt>
      <trkpt lat="45.24161" lon="6.03295">
        <ele>2460.1999512</ele>
        <time>2013-04-13T07:09:44Z</time>
      </trkpt>
      <trkpt lat="45.24161" lon="6.03295">
        <ele>2460.1999512</ele>
        <time>2013-04-13T07:09:47Z</time>
      </trkpt>
      <trkpt lat="45.2416" lon="6.03293">
        <ele>2460.1999512</ele>
        <time>2013-04-13T07:09:50Z</time>
      </trkpt>
      <trkpt lat="45.2416" lon="6.03293">
        <ele>2460.1999512</ele>
        <time>2013-04-13T07:09:53Z</time>
      </trkpt>
      <trkpt lat="45.2416" lon="6.03293">
        <ele>2460.1999512</ele>
        <time>2013-04-13T07:09:56Z</time>
      </trkpt>
      <trkpt lat="45.2416" lon="6.03293">
        <ele>2460.1999512</ele>
        <time>2013-04-13T07:09:59Z</time>
      </trkpt>
      <trkpt lat="45.24159" lon="6.03293">
        <ele>2460.1999512</ele>
        <time>2013-04-13T07:10:02Z</time>
      </trkpt>
      <trkpt lat="45.24159" lon="6.03294">
        <ele>2460.1999512</ele>
        <time>2013-04-13T07:10:05Z</time>
      </trkpt>
      <trkpt lat="45.2416" lon="6.03295">
        <ele>2460.1999512</ele>
        <time>2013-04-13T07:10:08Z</time>
      </trkpt>
      <trkpt lat="45.24159" lon="6.03295">
        <ele>2460.1999512</ele>
        <time>2013-04-13T07:10:11Z</time>
      </trkpt>
      <trkpt lat="45.24159" lon="6.03295">
        <ele>2460.1999512</ele>
        <time>2013-04-13T07:10:14Z</time>
      </trkpt>
      <trkpt lat="45.24159" lon="6.03295">
        <ele>2460.1999512</ele>
        <time>2013-04-13T07:10:17Z</time>
      </trkpt>
      <trkpt lat="45.2416" lon="6.03295">
        <ele>2460.1999512</ele>
        <time>2013-04-13T07:10:20Z</time>
      </trkpt>
      <trkpt lat="45.2416" lon="6.03294">
        <ele>2460.1999512</ele>
        <time>2013-04-13T07:10:23Z</time>
      </trkpt>
      <trkpt lat="45.2416" lon="6.03294">
        <ele>2460.1999512</ele>
        <time>2013-04-13T07:10:26Z</time>
      </trkpt>
      <trkpt lat="45.2416" lon="6.03294">
        <ele>2460.1999512</ele>
        <time>2013-04-13T07:10:29Z</time>
      </trkpt>
      <trkpt lat="45.2416" lon="6.03294">
        <ele>2460.1999512</ele>
        <time>2013-04-13T07:10:32Z</time>
      </trkpt>
      <trkpt lat="45.2416" lon="6.03294">
        <ele>2460.1999512</ele>
        <time>2013-04-13T07:10:35Z</time>
      </trkpt>
      <trkpt lat="45.24159" lon="6.03294">
        <ele>2460.1999512</ele>
        <time>2013-04-13T07:10:38Z</time>
      </trkpt>
      <trkpt lat="45.24159" lon="6.03296">
        <ele>2460.1999512</ele>
        <time>2013-04-13T07:10:41Z</time>
      </trkpt>
      <trkpt lat="45.2416" lon="6.03296">
        <ele>2460.1999512</ele>
        <time>2013-04-13T07:10:44Z</time>
      </trkpt>
      <trkpt lat="45.24159" lon="6.03297">
        <ele>2460.1999512</ele>
        <time>2013-04-13T07:10:47Z</time>
      </trkpt>
      <trkpt lat="45.24159" lon="6.03297">
        <ele>2460.1999512</ele>
        <time>2013-04-13T07:10:50Z</time>
      </trkpt>
      <trkpt lat="45.24159" lon="6.03297">
        <ele>2460.1999512</ele>
        <time>2013-04-13T07:10:53Z</time>
      </trkpt>
      <trkpt lat="45.24159" lon="6.03297">
        <ele>2460.1999512</ele>
        <time>2013-04-13T07:10:56Z</time>
      </trkpt>
      <trkpt lat="45.24159" lon="6.03297">
        <ele>2460.1999512</ele>
        <time>2013-04-13T07:10:59Z</time>
      </trkpt>
      <trkpt lat="45.24159" lon="6.03297">
        <ele>2459.6000977</ele>
        <time>2013-04-13T07:11:02Z</time>
      </trkpt>
      <trkpt lat="45.24159" lon="6.03297">
        <ele>2458.8000488</ele>
        <time>2013-04-13T07:11:05Z</time>
      </trkpt>
      <trkpt lat="45.2416" lon="6.03296">
        <ele>2459.8000488</ele>
        <time>2013-04-13T07:11:08Z</time>
      </trkpt>
      <trkpt lat="45.2416" lon="6.03296">
        <ele>2460.6000977</ele>
        <time>2013-04-13T07:11:11Z</time>
      </trkpt>
      <trkpt lat="45.2416" lon="6.03296">
        <ele>2460.6000977</ele>
        <time>2013-04-13T07:11:14Z</time>
      </trkpt>
      <trkpt lat="45.2416" lon="6.03296">
        <ele>2460.6000977</ele>
        <time>2013-04-13T07:11:17Z</time>
      </trkpt>
      <trkpt lat="45.2416" lon="6.03296">
        <ele>2460.6000977</ele>
        <time>2013-04-13T07:11:20Z</time>
      </trkpt>
      <trkpt lat="45.2416" lon="6.03296">
        <ele>2460.6000977</ele>
        <time>2013-04-13T07:11:23Z</time>
      </trkpt>
      <trkpt lat="45.2416" lon="6.03296">
        <ele>2460.6000977</ele>
        <time>2013-04-13T07:11:26Z</time>
      </trkpt>
      <trkpt lat="45.2416" lon="6.03297">
        <ele>2460.6000977</ele>
        <time>2013-04-13T07:11:29Z</time>
      </trkpt>
      <trkpt lat="45.2416" lon="6.03297">
        <ele>2460.6000977</ele>
        <time>2013-04-13T07:11:32Z</time>
      </trkpt>
      <trkpt lat="45.2416" lon="6.03297">
        <ele>2460.6000977</ele>
        <time>2013-04-13T07:11:35Z</time>
      </trkpt>
      <trkpt lat="45.2416" lon="6.03296">
        <ele>2460.6000977</ele>
        <time>2013-04-13T07:11:38Z</time>
      </trkpt>
      <trkpt lat="45.2416" lon="6.03297">
        <ele>2460.6000977</ele>
        <time>2013-04-13T07:11:41Z</time>
      </trkpt>
      <trkpt lat="45.2416" lon="6.03297">
        <ele>2460.6000977</ele>
        <time>2013-04-13T07:11:44Z</time>
      </trkpt>
      <trkpt lat="45.2416" lon="6.03296">
        <ele>2460.6000977</ele>
        <time>2013-04-13T07:11:47Z</time>
      </trkpt>
      <trkpt lat="45.2416" lon="6.03296">
        <ele>2460.6000977</ele>
        <time>2013-04-13T07:11:50Z</time>
      </trkpt>
      <trkpt lat="45.2416" lon="6.03296">
        <ele>2460.6000977</ele>
        <time>2013-04-13T07:11:53Z</time>
      </trkpt>
      <trkpt lat="45.2416" lon="6.03296">
        <ele>2460</ele>
        <time>2013-04-13T07:11:56Z</time>
      </trkpt>
      <trkpt lat="45.24159" lon="6.03297">
        <ele>2459.8000488</ele>
        <time>2013-04-13T07:11:59Z</time>
      </trkpt>
      <trkpt lat="45.24159" lon="6.03297">
        <ele>2460</ele>
        <time>2013-04-13T07:12:02Z</time>
      </trkpt>
      <trkpt lat="45.24159" lon="6.03296">
        <ele>2461</ele>
        <time>2013-04-13T07:12:05Z</time>
      </trkpt>
      <trkpt lat="45.24159" lon="6.03296">
        <ele>2462</ele>
        <time>2013-04-13T07:12:08Z</time>
      </trkpt>
      <trkpt lat="45.24159" lon="6.03296">
        <ele>2462.1999512</ele>
        <time>2013-04-13T07:12:11Z</time>
      </trkpt>
      <trkpt lat="45.2416" lon="6.03296">
        <ele>2462.1999512</ele>
        <time>2013-04-13T07:12:14Z</time>
      </trkpt>
      <trkpt lat="45.2416" lon="6.03296">
        <ele>2462.1999512</ele>
        <time>2013-04-13T07:12:17Z</time>
      </trkpt>
      <trkpt lat="45.24159" lon="6.03296">
        <ele>2462.1999512</ele>
        <time>2013-04-13T07:12:20Z</time>
      </trkpt>
      <trkpt lat="45.24159" lon="6.03297">
        <ele>2462.1999512</ele>
        <time>2013-04-13T07:12:23Z</time>
      </trkpt>
      <trkpt lat="45.24159" lon="6.03296">
        <ele>2462.1999512</ele>
        <time>2013-04-13T07:12:26Z</time>
      </trkpt>
      <trkpt lat="45.24159" lon="6.03297">
        <ele>2462.1999512</ele>
        <time>2013-04-13T07:12:29Z</time>
      </trkpt>
      <trkpt lat="45.24159" lon="6.03296">
        <ele>2462.1999512</ele>
        <time>2013-04-13T07:12:32Z</time>
      </trkpt>
      <trkpt lat="45.24159" lon="6.03297">
        <ele>2462.1999512</ele>
        <time>2013-04-13T07:12:35Z</time>
      </trkpt>
      <trkpt lat="45.24159" lon="6.03296">
        <ele>2462.1999512</ele>
        <time>2013-04-13T07:12:38Z</time>
      </trkpt>
      <trkpt lat="45.24159" lon="6.03297">
        <ele>2461.8000488</ele>
        <time>2013-04-13T07:12:41Z</time>
      </trkpt>
      <trkpt lat="45.24159" lon="6.03297">
        <ele>2460.6000977</ele>
        <time>2013-04-13T07:12:44Z</time>
      </trkpt>
      <trkpt lat="45.24159" lon="6.03297">
        <ele>2460</ele>
        <time>2013-04-13T07:12:47Z</time>
      </trkpt>
      <trkpt lat="45.24159" lon="6.03297">
        <ele>2460</ele>
        <time>2013-04-13T07:12:50Z</time>
      </trkpt>
      <trkpt lat="45.24159" lon="6.03297">
        <ele>2460</ele>
        <time>2013-04-13T07:12:53Z</time>
      </trkpt>
      <trkpt lat="45.24159" lon="6.03297">
        <ele>2460</ele>
        <time>2013-04-13T07:12:56Z</time>
      </trkpt>
      <trkpt lat="45.24159" lon="6.03297">
        <ele>2460</ele>
        <time>2013-04-13T07:12:59Z</time>
      </trkpt>
      <trkpt lat="45.24159" lon="6.03297">
        <ele>2460</ele>
        <time>2013-04-13T07:13:02Z</time>
      </trkpt>
      <trkpt lat="45.24159" lon="6.03297">
        <ele>2460</ele>
        <time>2013-04-13T07:13:05Z</time>
      </trkpt>
      <trkpt lat="45.24159" lon="6.03296">
        <ele>2460</ele>
        <time>2013-04-13T07:13:08Z</time>
      </trkpt>
      <trkpt lat="45.24159" lon="6.03296">
        <ele>2460</ele>
        <time>2013-04-13T07:13:11Z</time>
      </trkpt>
      <trkpt lat="45.24159" lon="6.03296">
        <ele>2460</ele>
        <time>2013-04-13T07:13:14Z</time>
      </trkpt>
      <trkpt lat="45.24159" lon="6.03296">
        <ele>2460</ele>
        <time>2013-04-13T07:13:17Z</time>
      </trkpt>
      <trkpt lat="45.24159" lon="6.03296">
        <ele>2460</ele>
        <time>2013-04-13T07:13:20Z</time>
      </trkpt>
      <trkpt lat="45.24159" lon="6.03296">
        <ele>2460</ele>
        <time>2013-04-13T07:13:23Z</time>
      </trkpt>
      <trkpt lat="45.24159" lon="6.03296">
        <ele>2460</ele>
        <time>2013-04-13T07:13:26Z</time>
      </trkpt>
      <trkpt lat="45.24159" lon="6.03296">
        <ele>2460</ele>
        <time>2013-04-13T07:13:29Z</time>
      </trkpt>
      <trkpt lat="45.24159" lon="6.03296">
        <ele>2460</ele>
        <time>2013-04-13T07:13:32Z</time>
      </trkpt>
      <trkpt lat="45.24159" lon="6.03296">
        <ele>2460</ele>
        <time>2013-04-13T07:13:35Z</time>
      </trkpt>
      <trkpt lat="45.24159" lon="6.03297">
        <ele>2460</ele>
        <time>2013-04-13T07:13:38Z</time>
      </trkpt>
      <trkpt lat="45.24159" lon="6.03297">
        <ele>2460</ele>
        <time>2013-04-13T07:13:41Z</time>
      </trkpt>
      <trkpt lat="45.24159" lon="6.03297">
        <ele>2460</ele>
        <time>2013-04-13T07:13:44Z</time>
      </trkpt>
      <trkpt lat="45.24159" lon="6.03296">
        <ele>2460</ele>
        <time>2013-04-13T07:13:47Z</time>
      </trkpt>
      <trkpt lat="45.24159" lon="6.03296">
        <ele>2460</ele>
        <time>2013-04-13T07:13:50Z</time>
      </trkpt>
      <trkpt lat="45.24158" lon="6.03297">
        <ele>2460</ele>
        <time>2013-04-13T07:13:53Z</time>
      </trkpt>
      <trkpt lat="45.24159" lon="6.03296">
        <ele>2460</ele>
        <time>2013-04-13T07:13:56Z</time>
      </trkpt>
      <trkpt lat="45.24159" lon="6.03297">
        <ele>2460</ele>
        <time>2013-04-13T07:13:59Z</time>
      </trkpt>
      <trkpt lat="45.24159" lon="6.03296">
        <ele>2460</ele>
        <time>2013-04-13T07:14:02Z</time>
      </trkpt>
      <trkpt lat="45.24159" lon="6.03297">
        <ele>2460</ele>
        <time>2013-04-13T07:14:05Z</time>
      </trkpt>
      <trkpt lat="45.24159" lon="6.03296">
        <ele>2460</ele>
        <time>2013-04-13T07:14:08Z</time>
      </trkpt>
      <trkpt lat="45.24159" lon="6.03297">
        <ele>2460</ele>
        <time>2013-04-13T07:14:11Z</time>
      </trkpt>
      <trkpt lat="45.24159" lon="6.03297">
        <ele>2460</ele>
        <time>2013-04-13T07:14:14Z</time>
      </trkpt>
      <trkpt lat="45.24159" lon="6.03297">
        <ele>2460</ele>
        <time>2013-04-13T07:14:17Z</time>
      </trkpt>
      <trkpt lat="45.24159" lon="6.03296">
        <ele>2460</ele>
        <time>2013-04-13T07:14:20Z</time>
      </trkpt>
      <trkpt lat="45.24159" lon="6.03297">
        <ele>2460</ele>
        <time>2013-04-13T07:14:23Z</time>
      </trkpt>
      <trkpt lat="45.24159" lon="6.03297">
        <ele>2460</ele>
        <time>2013-04-13T07:14:26Z</time>
      </trkpt>
      <trkpt lat="45.24159" lon="6.03297">
        <ele>2460</ele>
        <time>2013-04-13T07:14:29Z</time>
      </trkpt>
      <trkpt lat="45.24159" lon="6.03297">
        <ele>2460</ele>
        <time>2013-04-13T07:14:32Z</time>
      </trkpt>
      <trkpt lat="45.24159" lon="6.03299">
        <ele>2460</ele>
        <time>2013-04-13T07:14:35Z</time>
      </trkpt>
      <trkpt lat="45.2416" lon="6.033">
        <ele>2460</ele>
        <time>2013-04-13T07:14:38Z</time>
      </trkpt>
      <trkpt lat="45.24161" lon="6.033">
        <ele>2460</ele>
        <time>2013-04-13T07:14:41Z</time>
      </trkpt>
      <trkpt lat="45.24161" lon="6.03303">
        <ele>2460</ele>
        <time>2013-04-13T07:14:44Z</time>
      </trkpt>
      <trkpt lat="45.24164" lon="6.03302">
        <ele>2460</ele>
        <time>2013-04-13T07:14:47Z</time>
      </trkpt>
      <trkpt lat="45.24164" lon="6.03303">
        <ele>2460</ele>
        <time>2013-04-13T07:14:50Z</time>
      </trkpt>
      <trkpt lat="45.24164" lon="6.03303">
        <ele>2460</ele>
        <time>2013-04-13T07:14:53Z</time>
      </trkpt>
      <trkpt lat="45.24165" lon="6.03304">
        <ele>2460</ele>
        <time>2013-04-13T07:14:56Z</time>
      </trkpt>
      <trkpt lat="45.24168" lon="6.03308">
        <ele>2460</ele>
        <time>2013-04-13T07:14:59Z</time>
      </trkpt>
      <trkpt lat="45.24163" lon="6.03315">
        <ele>2459.1999512</ele>
        <time>2013-04-13T07:15:02Z</time>
      </trkpt>
      <trkpt lat="45.24149" lon="6.03332">
        <ele>2458</ele>
        <time>2013-04-13T07:15:05Z</time>
      </trkpt>
      <trkpt lat="45.2414" lon="6.03342">
        <ele>2455.1999512</ele>
        <time>2013-04-13T07:15:08Z</time>
      </trkpt>
      <trkpt lat="45.24139" lon="6.03344">
        <ele>2451.6000977</ele>
        <time>2013-04-13T07:15:11Z</time>
      </trkpt>
      <trkpt lat="45.24137" lon="6.03344">
        <ele>2449.8000488</ele>
        <time>2013-04-13T07:15:14Z</time>
      </trkpt>
      <trkpt lat="45.24135" lon="6.03346">
        <ele>2449.8000488</ele>
        <time>2013-04-13T07:15:17Z</time>
      </trkpt>
      <trkpt lat="45.24133" lon="6.03347">
        <ele>2449.8000488</ele>
        <time>2013-04-13T07:15:20Z</time>
      </trkpt>
      <trkpt lat="45.24131" lon="6.03349">
        <ele>2449.8000488</ele>
        <time>2013-04-13T07:15:23Z</time>
      </trkpt>
      <trkpt lat="45.24129" lon="6.03351">
        <ele>2449.8000488</ele>
        <time>2013-04-13T07:15:26Z</time>
      </trkpt>
      <trkpt lat="45.24127" lon="6.03353">
        <ele>2449.8000488</ele>
        <time>2013-04-13T07:15:29Z</time>
      </trkpt>
      <trkpt lat="45.24124" lon="6.03355">
        <ele>2449.8000488</ele>
        <time>2013-04-13T07:15:32Z</time>
      </trkpt>
      <trkpt lat="45.24122" lon="6.03358">
        <ele>2449.8000488</ele>
        <time>2013-04-13T07:15:35Z</time>
      </trkpt>
      <trkpt lat="45.2412" lon="6.03361">
        <ele>2449.8000488</ele>
        <time>2013-04-13T07:15:38Z</time>
      </trkpt>
      <trkpt lat="45.24118" lon="6.03365">
        <ele>2449.8000488</ele>
        <time>2013-04-13T07:15:41Z</time>
      </trkpt>
      <trkpt lat="45.24116" lon="6.03369">
        <ele>2449.8000488</ele>
        <time>2013-04-13T07:15:44Z</time>
      </trkpt>
      <trkpt lat="45.24114" lon="6.03373">
        <ele>2449.8000488</ele>
        <time>2013-04-13T07:15:47Z</time>
      </trkpt>
      <trkpt lat="45.24111" lon="6.03378">
        <ele>2449.8000488</ele>
        <time>2013-04-13T07:15:50Z</time>
      </trkpt>
      <trkpt lat="45.24107" lon="6.03385">
        <ele>2449.6000977</ele>
        <time>2013-04-13T07:15:53Z</time>
      </trkpt>
      <trkpt lat="45.24104" lon="6.03392">
        <ele>2448.6000977</ele>
        <time>2013-04-13T07:15:56Z</time>
      </trkpt>
      <trkpt lat="45.24101" lon="6.03403">
        <ele>2447.8000488</ele>
        <time>2013-04-13T07:15:59Z</time>
      </trkpt>
      <trkpt lat="45.24098" lon="6.03411">
        <ele>2447.6000977</ele>
        <time>2013-04-13T07:16:02Z</time>
      </trkpt>
      <trkpt lat="45.24096" lon="6.03419">
        <ele>2446.1999512</ele>
        <time>2013-04-13T07:16:05Z</time>
      </trkpt>
      <trkpt lat="45.24093" lon="6.03426">
        <ele>2445.6000977</ele>
        <time>2013-04-13T07:16:08Z</time>
      </trkpt>
      <trkpt lat="45.2409" lon="6.03434">
        <ele>2444.8000488</ele>
        <time>2013-04-13T07:16:11Z</time>
      </trkpt>
      <trkpt lat="45.24085" lon="6.03449">
        <ele>2443.8000488</ele>
        <time>2013-04-13T07:16:14Z</time>
      </trkpt>
      <trkpt lat="45.24081" lon="6.03468">
        <ele>2442.1999512</ele>
        <time>2013-04-13T07:16:17Z</time>
      </trkpt>
      <trkpt lat="45.2408" lon="6.03473">
        <ele>2440</ele>
        <time>2013-04-13T07:16:20Z</time>
      </trkpt>
      <trkpt lat="45.2408" lon="6.03474">
        <ele>2438.6000977</ele>
        <time>2013-04-13T07:16:23Z</time>
      </trkpt>
      <trkpt lat="45.24079" lon="6.03474">
        <ele>2437.1999512</ele>
        <time>2013-04-13T07:16:26Z</time>
      </trkpt>
      <trkpt lat="45.24079" lon="6.03474">
        <ele>2437.1999512</ele>
        <time>2013-04-13T07:16:29Z</time>
      </trkpt>
      <trkpt lat="45.24079" lon="6.03474">
        <ele>2437.1999512</ele>
        <time>2013-04-13T07:16:32Z</time>
      </trkpt>
      <trkpt lat="45.24079" lon="6.03474">
        <ele>2437.1999512</ele>
        <time>2013-04-13T07:16:35Z</time>
      </trkpt>
      <trkpt lat="45.24079" lon="6.03473">
        <ele>2437.1999512</ele>
        <time>2013-04-13T07:16:38Z</time>
      </trkpt>
      <trkpt lat="45.24079" lon="6.03473">
        <ele>2437.1999512</ele>
        <time>2013-04-13T07:16:41Z</time>
      </trkpt>
      <trkpt lat="45.24079" lon="6.03473">
        <ele>2437.1999512</ele>
        <time>2013-04-13T07:16:44Z</time>
      </trkpt>
      <trkpt lat="45.24079" lon="6.03473">
        <ele>2437.1999512</ele>
        <time>2013-04-13T07:16:47Z</time>
      </trkpt>
      <trkpt lat="45.24079" lon="6.03473">
        <ele>2437.1999512</ele>
        <time>2013-04-13T07:16:50Z</time>
      </trkpt>
      <trkpt lat="45.24077" lon="6.03475">
        <ele>2437.1999512</ele>
        <time>2013-04-13T07:16:53Z</time>
      </trkpt>
      <trkpt lat="45.24078" lon="6.03475">
        <ele>2437.1999512</ele>
        <time>2013-04-13T07:16:56Z</time>
      </trkpt>
      <trkpt lat="45.24073" lon="6.03469">
        <ele>2436.6000977</ele>
        <time>2013-04-13T07:16:59Z</time>
      </trkpt>
      <trkpt lat="45.24067" lon="6.03462">
        <ele>2435.1999512</ele>
        <time>2013-04-13T07:17:02Z</time>
      </trkpt>
      <trkpt lat="45.2406" lon="6.0346">
        <ele>2434</ele>
        <time>2013-04-13T07:17:05Z</time>
      </trkpt>
      <trkpt lat="45.24054" lon="6.03457">
        <ele>2431</ele>
        <time>2013-04-13T07:17:08Z</time>
      </trkpt>
      <trkpt lat="45.24049" lon="6.0345">
        <ele>2427</ele>
        <time>2013-04-13T07:17:11Z</time>
      </trkpt>
      <trkpt lat="45.24048" lon="6.0344">
        <ele>2422</ele>
        <time>2013-04-13T07:17:14Z</time>
      </trkpt>
      <trkpt lat="45.24048" lon="6.0344">
        <ele>2417</ele>
        <time>2013-04-13T07:17:17Z</time>
      </trkpt>
      <trkpt lat="45.24043" lon="6.03447">
        <ele>2414.1999512</ele>
        <time>2013-04-13T07:17:20Z</time>
      </trkpt>
      <trkpt lat="45.24037" lon="6.03459">
        <ele>2413.1999512</ele>
        <time>2013-04-13T07:17:23Z</time>
      </trkpt>
      <trkpt lat="45.24032" lon="6.03463">
        <ele>2411.8000488</ele>
        <time>2013-04-13T07:17:26Z</time>
      </trkpt>
      <trkpt lat="45.2402" lon="6.0346">
        <ele>2410</ele>
        <time>2013-04-13T07:17:29Z</time>
      </trkpt>
      <trkpt lat="45.24007" lon="6.03463">
        <ele>2407.6000977</ele>
        <time>2013-04-13T07:17:32Z</time>
      </trkpt>
      <trkpt lat="45.23993" lon="6.03462">
        <ele>2402</ele>
        <time>2013-04-13T07:17:35Z</time>
      </trkpt>
      <trkpt lat="45.23981" lon="6.0346">
        <ele>2394.1999512</ele>
        <time>2013-04-13T07:17:38Z</time>
      </trkpt>
      <trkpt lat="45.23969" lon="6.03456">
        <ele>2385.8000488</ele>
        <time>2013-04-13T07:17:41Z</time>
      </trkpt>
      <trkpt lat="45.23969" lon="6.03456">
        <ele>2377.6000977</ele>
        <time>2013-04-13T07:17:44Z</time>
      </trkpt>
      <trkpt lat="45.23969" lon="6.03456">
        <ele>2372</ele>
        <time>2013-04-13T07:17:47Z</time>
      </trkpt>
      <trkpt lat="45.23968" lon="6.03455">
        <ele>2368</ele>
        <time>2013-04-13T07:17:50Z</time>
      </trkpt>
      <trkpt lat="45.23968" lon="6.03454">
        <ele>2368</ele>
        <time>2013-04-13T07:17:53Z</time>
      </trkpt>
      <trkpt lat="45.23967" lon="6.03448">
        <ele>2368</ele>
        <time>2013-04-13T07:17:56Z</time>
      </trkpt>
      <trkpt lat="45.23961" lon="6.03436">
        <ele>2367.8000488</ele>
        <time>2013-04-13T07:17:59Z</time>
      </trkpt>
      <trkpt lat="45.2395" lon="6.0343">
        <ele>2364</ele>
        <time>2013-04-13T07:18:02Z</time>
      </trkpt>
      <trkpt lat="45.23935" lon="6.03417">
        <ele>2358.8000488</ele>
        <time>2013-04-13T07:18:05Z</time>
      </trkpt>
      <trkpt lat="45.23919" lon="6.03419">
        <ele>2351.6000977</ele>
        <time>2013-04-13T07:18:08Z</time>
      </trkpt>
      <trkpt lat="45.23917" lon="6.03412">
        <ele>2344</ele>
        <time>2013-04-13T07:18:11Z</time>
      </trkpt>
      <trkpt lat="45.23917" lon="6.03413">
        <ele>2337.1999512</ele>
        <time>2013-04-13T07:18:14Z</time>
      </trkpt>
      <trkpt lat="45.23916" lon="6.03413">
        <ele>2330</ele>
        <time>2013-04-13T07:18:17Z</time>
      </trkpt>
      <trkpt lat="45.23917" lon="6.03413">
        <ele>2326</ele>
        <time>2013-04-13T07:18:20Z</time>
      </trkpt>
      <trkpt lat="45.23917" lon="6.03408">
        <ele>2326</ele>
        <time>2013-04-13T07:18:23Z</time>
      </trkpt>
      <trkpt lat="45.23907" lon="6.03397">
        <ele>2325.1999512</ele>
        <time>2013-04-13T07:18:26Z</time>
      </trkpt>
      <trkpt lat="45.23897" lon="6.0339">
        <ele>2322</ele>
        <time>2013-04-13T07:18:29Z</time>
      </trkpt>
      <trkpt lat="45.23894" lon="6.03374">
        <ele>2317</ele>
        <time>2013-04-13T07:18:32Z</time>
      </trkpt>
      <trkpt lat="45.23889" lon="6.03355">
        <ele>2310</ele>
        <time>2013-04-13T07:18:35Z</time>
      </trkpt>
      <trkpt lat="45.23877" lon="6.03343">
        <ele>2301</ele>
        <time>2013-04-13T07:18:38Z</time>
      </trkpt>
      <trkpt lat="45.23851" lon="6.03349">
        <ele>2298.8000488</ele>
        <time>2013-04-13T07:18:41Z</time>
      </trkpt>
      <trkpt lat="45.23831" lon="6.03328">
        <ele>2293.8000488</ele>
        <time>2013-04-13T07:18:44Z</time>
      </trkpt>
      <trkpt lat="45.23808" lon="6.03298">
        <ele>2286.8000488</ele>
        <time>2013-04-13T07:18:47Z</time>
      </trkpt>
      <trkpt lat="45.2379" lon="6.03268">
        <ele>2278</ele>
        <time>2013-04-13T07:18:50Z</time>
      </trkpt>
      <trkpt lat="45.23787" lon="6.03243">
        <ele>2268</ele>
        <time>2013-04-13T07:18:53Z</time>
      </trkpt>
      <trkpt lat="45.23786" lon="6.03236">
        <ele>2258.1999512</ele>
        <time>2013-04-13T07:18:56Z</time>
      </trkpt>
      <trkpt lat="45.23788" lon="6.03237">
        <ele>2256</ele>
        <time>2013-04-13T07:18:59Z</time>
      </trkpt>
      <trkpt lat="45.23786" lon="6.03238">
        <ele>2255.6000977</ele>
        <time>2013-04-13T07:19:02Z</time>
      </trkpt>
      <trkpt lat="45.23786" lon="6.0324">
        <ele>2254.6000977</ele>
        <time>2013-04-13T07:19:05Z</time>
      </trkpt>
      <trkpt lat="45.23786" lon="6.03239">
        <ele>2254</ele>
        <time>2013-04-13T07:19:08Z</time>
      </trkpt>
      <trkpt lat="45.23786" lon="6.03239">
        <ele>2253</ele>
        <time>2013-04-13T07:19:11Z</time>
      </trkpt>
      <trkpt lat="45.23785" lon="6.03241">
        <ele>2251.8000488</ele>
        <time>2013-04-13T07:19:14Z</time>
      </trkpt>
      <trkpt lat="45.23784" lon="6.03241">
        <ele>2251.8000488</ele>
        <time>2013-04-13T07:19:17Z</time>
      </trkpt>
      <trkpt lat="45.23778" lon="6.03245">
        <ele>2251.8000488</ele>
        <time>2013-04-13T07:19:20Z</time>
      </trkpt>
      <trkpt lat="45.23762" lon="6.03243">
        <ele>2249.6000977</ele>
        <time>2013-04-13T07:19:23Z</time>
      </trkpt>
      <trkpt lat="45.23748" lon="6.0323">
        <ele>2249.6000977</ele>
        <time>2013-04-13T07:19:26Z</time>
      </trkpt>
      <trkpt lat="45.23736" lon="6.03203">
        <ele>2249</ele>
        <time>2013-04-13T07:19:29Z</time>
      </trkpt>
      <trkpt lat="45.23728" lon="6.03184">
        <ele>2245.6000977</ele>
        <time>2013-04-13T07:19:32Z</time>
      </trkpt>
      <trkpt lat="45.23724" lon="6.03169">
        <ele>2240.1999512</ele>
        <time>2013-04-13T07:19:35Z</time>
      </trkpt>
      <trkpt lat="45.2372" lon="6.03153">
        <ele>2235.8000488</ele>
        <time>2013-04-13T07:19:38Z</time>
      </trkpt>
      <trkpt lat="45.23716" lon="6.03122">
        <ele>2233</ele>
        <time>2013-04-13T07:19:41Z</time>
      </trkpt>
      <trkpt lat="45.23713" lon="6.03097">
        <ele>2231.1999512</ele>
        <time>2013-04-13T07:19:44Z</time>
      </trkpt>
      <trkpt lat="45.23703" lon="6.03081">
        <ele>2228.8000488</ele>
        <time>2013-04-13T07:19:47Z</time>
      </trkpt>
      <trkpt lat="45.2369" lon="6.03067">
        <ele>2225</ele>
        <time>2013-04-13T07:19:50Z</time>
      </trkpt>
      <trkpt lat="45.23674" lon="6.03044">
        <ele>2217.8000488</ele>
        <time>2013-04-13T07:19:53Z</time>
      </trkpt>
      <trkpt lat="45.23659" lon="6.03016">
        <ele>2208.6000977</ele>
        <time>2013-04-13T07:19:56Z</time>
      </trkpt>
      <trkpt lat="45.23634" lon="6.02995">
        <ele>2199</ele>
        <time>2013-04-13T07:19:59Z</time>
      </trkpt>
      <trkpt lat="45.23612" lon="6.02979">
        <ele>2191.8000488</ele>
        <time>2013-04-13T07:20:02Z</time>
      </trkpt>
      <trkpt lat="45.23591" lon="6.02963">
        <ele>2186</ele>
        <time>2013-04-13T07:20:05Z</time>
      </trkpt>
      <trkpt lat="45.23573" lon="6.02949">
        <ele>2182</ele>
        <time>2013-04-13T07:20:08Z</time>
      </trkpt>
      <trkpt lat="45.2355" lon="6.02934">
        <ele>2179</ele>
        <time>2013-04-13T07:20:11Z</time>
      </trkpt>
      <trkpt lat="45.23527" lon="6.02919">
        <ele>2176.1999512</ele>
        <time>2013-04-13T07:20:14Z</time>
      </trkpt>
      <trkpt lat="45.23498" lon="6.02898">
        <ele>2172.1999512</ele>
        <time>2013-04-13T07:20:17Z</time>
      </trkpt>
      <trkpt lat="45.23474" lon="6.02872">
        <ele>2166</ele>
        <time>2013-04-13T07:20:20Z</time>
      </trkpt>
      <trkpt lat="45.23456" lon="6.0285">
        <ele>2159.8000488</ele>
        <time>2013-04-13T07:20:23Z</time>
      </trkpt>
      <trkpt lat="45.2344" lon="6.02832">
        <ele>2154</ele>
        <time>2013-04-13T07:20:26Z</time>
      </trkpt>
      <trkpt lat="45.23419" lon="6.02819">
        <ele>2153.1999512</ele>
        <time>2013-04-13T07:20:29Z</time>
      </trkpt>
      <trkpt lat="45.23405" lon="6.02824">
        <ele>2152</ele>
        <time>2013-04-13T07:20:32Z</time>
      </trkpt>
      <trkpt lat="45.23405" lon="6.02824">
        <ele>2150</ele>
        <time>2013-04-13T07:20:35Z</time>
      </trkpt>
      <trkpt lat="45.23405" lon="6.02826">
        <ele>2149.8000488</ele>
        <time>2013-04-13T07:20:38Z</time>
      </trkpt>
      <trkpt lat="45.23404" lon="6.02826">
        <ele>2149.8000488</ele>
        <time>2013-04-13T07:20:41Z</time>
      </trkpt>
      <trkpt lat="45.23403" lon="6.02827">
        <ele>2149.8000488</ele>
        <time>2013-04-13T07:20:44Z</time>
      </trkpt>
      <trkpt lat="45.23401" lon="6.02828">
        <ele>2149.8000488</ele>
        <time>2013-04-13T07:20:47Z</time>
      </trkpt>
      <trkpt lat="45.23401" lon="6.02828">
        <ele>2149.8000488</ele>
        <time>2013-04-13T07:20:50Z</time>
      </trkpt>
      <trkpt lat="45.234" lon="6.02828">
        <ele>2149.8000488</ele>
        <time>2013-04-13T07:20:53Z</time>
      </trkpt>
      <trkpt lat="45.23399" lon="6.02827">
        <ele>2148.8000488</ele>
        <time>2013-04-13T07:20:56Z</time>
      </trkpt>
      <trkpt lat="45.234" lon="6.02829">
        <ele>2147.8000488</ele>
        <time>2013-04-13T07:20:59Z</time>
      </trkpt>
      <trkpt lat="45.23399" lon="6.02828">
        <ele>2147.8000488</ele>
        <time>2013-04-13T07:21:02Z</time>
      </trkpt>
      <trkpt lat="45.234" lon="6.02829">
        <ele>2147.8000488</ele>
        <time>2013-04-13T07:21:05Z</time>
      </trkpt>
      <trkpt lat="45.234" lon="6.02829">
        <ele>2147.8000488</ele>
        <time>2013-04-13T07:21:08Z</time>
      </trkpt>
      <trkpt lat="45.234" lon="6.02829">
        <ele>2146.8000488</ele>
        <time>2013-04-13T07:21:11Z</time>
      </trkpt>
      <trkpt lat="45.23401" lon="6.02829">
        <ele>2145.8000488</ele>
        <time>2013-04-13T07:21:14Z</time>
      </trkpt>
      <trkpt lat="45.23401" lon="6.02829">
        <ele>2145.8000488</ele>
        <time>2013-04-13T07:21:17Z</time>
      </trkpt>
      <trkpt lat="45.23401" lon="6.02829">
        <ele>2145.8000488</ele>
        <time>2013-04-13T07:21:20Z</time>
      </trkpt>
      <trkpt lat="45.23401" lon="6.02829">
        <ele>2145.8000488</ele>
        <time>2013-04-13T07:21:23Z</time>
      </trkpt>
      <trkpt lat="45.23401" lon="6.02829">
        <ele>2145</ele>
        <time>2013-04-13T07:21:26Z</time>
      </trkpt>
      <trkpt lat="45.23401" lon="6.02829">
        <ele>2143.8000488</ele>
        <time>2013-04-13T07:21:29Z</time>
      </trkpt>
      <trkpt lat="45.23401" lon="6.02829">
        <ele>2143.8000488</ele>
        <time>2013-04-13T07:21:32Z</time>
      </trkpt>
      <trkpt lat="45.23401" lon="6.02829">
        <ele>2143.8000488</ele>
        <time>2013-04-13T07:21:35Z</time>
      </trkpt>
      <trkpt lat="45.23401" lon="6.02829">
        <ele>2143.8000488</ele>
        <time>2013-04-13T07:21:38Z</time>
      </trkpt>
      <trkpt lat="45.23401" lon="6.02829">
        <ele>2143.6000977</ele>
        <time>2013-04-13T07:21:41Z</time>
      </trkpt>
      <trkpt lat="45.23401" lon="6.02829">
        <ele>2142.6000977</ele>
        <time>2013-04-13T07:21:44Z</time>
      </trkpt>
      <trkpt lat="45.23402" lon="6.02829">
        <ele>2141.8000488</ele>
        <time>2013-04-13T07:21:47Z</time>
      </trkpt>
      <trkpt lat="45.23402" lon="6.02829">
        <ele>2141.8000488</ele>
        <time>2013-04-13T07:21:50Z</time>
      </trkpt>
      <trkpt lat="45.23402" lon="6.02829">
        <ele>2141.8000488</ele>
        <time>2013-04-13T07:21:53Z</time>
      </trkpt>
      <trkpt lat="45.23402" lon="6.02829">
        <ele>2141.8000488</ele>
        <time>2013-04-13T07:21:56Z</time>
      </trkpt>
      <trkpt lat="45.23402" lon="6.02829">
        <ele>2141.8000488</ele>
        <time>2013-04-13T07:21:59Z</time>
      </trkpt>
      <trkpt lat="45.23402" lon="6.02829">
        <ele>2141.6000977</ele>
        <time>2013-04-13T07:22:02Z</time>
      </trkpt>
      <trkpt lat="45.23402" lon="6.02829">
        <ele>2140.6000977</ele>
        <time>2013-04-13T07:22:05Z</time>
      </trkpt>
      <trkpt lat="45.23402" lon="6.02829">
        <ele>2139.6000977</ele>
        <time>2013-04-13T07:22:08Z</time>
      </trkpt>
      <trkpt lat="45.23402" lon="6.02829">
        <ele>2139.6000977</ele>
        <time>2013-04-13T07:22:11Z</time>
      </trkpt>
      <trkpt lat="45.23402" lon="6.02829">
        <ele>2139.6000977</ele>
        <time>2013-04-13T07:22:14Z</time>
      </trkpt>
      <trkpt lat="45.23402" lon="6.02829">
        <ele>2139.6000977</ele>
        <time>2013-04-13T07:22:17Z</time>
      </trkpt>
      <trkpt lat="45.234" lon="6.02828">
        <ele>2139.6000977</ele>
        <time>2013-04-13T07:22:20Z</time>
      </trkpt>
      <trkpt lat="45.23398" lon="6.02827">
        <ele>2139.6000977</ele>
        <time>2013-04-13T07:22:23Z</time>
      </trkpt>
      <trkpt lat="45.23396" lon="6.02826">
        <ele>2139.6000977</ele>
        <time>2013-04-13T07:22:26Z</time>
      </trkpt>
      <trkpt lat="45.23393" lon="6.02826">
        <ele>2140.6000977</ele>
        <time>2013-04-13T07:22:29Z</time>
      </trkpt>
      <trkpt lat="45.23388" lon="6.02825">
        <ele>2141.8000488</ele>
        <time>2013-04-13T07:22:32Z</time>
      </trkpt>
      <trkpt lat="45.23384" lon="6.02823">
        <ele>2141.8000488</ele>
        <time>2013-04-13T07:22:35Z</time>
      </trkpt>
      <trkpt lat="45.23379" lon="6.0282">
        <ele>2141.8000488</ele>
        <time>2013-04-13T07:22:38Z</time>
      </trkpt>
      <trkpt lat="45.23375" lon="6.02818">
        <ele>2141.8000488</ele>
        <time>2013-04-13T07:22:41Z</time>
      </trkpt>
      <trkpt lat="45.23372" lon="6.02815">
        <ele>2141.8000488</ele>
        <time>2013-04-13T07:22:44Z</time>
      </trkpt>
      <trkpt lat="45.23368" lon="6.02812">
        <ele>2141.8000488</ele>
        <time>2013-04-13T07:22:47Z</time>
      </trkpt>
      <trkpt lat="45.23364" lon="6.0281">
        <ele>2141.8000488</ele>
        <time>2013-04-13T07:22:50Z</time>
      </trkpt>
      <trkpt lat="45.2336" lon="6.02807">
        <ele>2141.8000488</ele>
        <time>2013-04-13T07:22:53Z</time>
      </trkpt>
      <trkpt lat="45.23357" lon="6.02804">
        <ele>2141.8000488</ele>
        <time>2013-04-13T07:22:56Z</time>
      </trkpt>
      <trkpt lat="45.23353" lon="6.02802">
        <ele>2140.1999512</ele>
        <time>2013-04-13T07:22:59Z</time>
      </trkpt>
      <trkpt lat="45.2335" lon="6.02799">
        <ele>2139.6000977</ele>
        <time>2013-04-13T07:23:02Z</time>
      </trkpt>
      <trkpt lat="45.23346" lon="6.02797">
        <ele>2139.6000977</ele>
        <time>2013-04-13T07:23:05Z</time>
      </trkpt>
      <trkpt lat="45.23343" lon="6.02794">
        <ele>2139.6000977</ele>
        <time>2013-04-13T07:23:08Z</time>
      </trkpt>
      <trkpt lat="45.23337" lon="6.0279">
        <ele>2139.1999512</ele>
        <time>2013-04-13T07:23:11Z</time>
      </trkpt>
      <trkpt lat="45.23335" lon="6.02788">
        <ele>2139.1999512</ele>
        <time>2013-04-13T07:23:14Z</time>
      </trkpt>
      <trkpt lat="45.23331" lon="6.02786">
        <ele>2139.1999512</ele>
        <time>2013-04-13T07:23:17Z</time>
      </trkpt>
      <trkpt lat="45.23327" lon="6.02784">
        <ele>2139.1999512</ele>
        <time>2013-04-13T07:23:20Z</time>
      </trkpt>
      <trkpt lat="45.23324" lon="6.02782">
        <ele>2139.1999512</ele>
        <time>2013-04-13T07:23:23Z</time>
      </trkpt>
      <trkpt lat="45.2332" lon="6.0278">
        <ele>2138</ele>
        <time>2013-04-13T07:23:26Z</time>
      </trkpt>
      <trkpt lat="45.23316" lon="6.02778">
        <ele>2137.1999512</ele>
        <time>2013-04-13T07:23:29Z</time>
      </trkpt>
      <trkpt lat="45.2331" lon="6.02775">
        <ele>2137.1999512</ele>
        <time>2013-04-13T07:23:32Z</time>
      </trkpt>
      <trkpt lat="45.23302" lon="6.0277">
        <ele>2137.1999512</ele>
        <time>2013-04-13T07:23:35Z</time>
      </trkpt>
      <trkpt lat="45.2329" lon="6.02766">
        <ele>2137</ele>
        <time>2013-04-13T07:23:38Z</time>
      </trkpt>
      <trkpt lat="45.23276" lon="6.02762">
        <ele>2135.6000977</ele>
        <time>2013-04-13T07:23:41Z</time>
      </trkpt>
      <trkpt lat="45.23257" lon="6.02757">
        <ele>2132.8000488</ele>
        <time>2013-04-13T07:23:44Z</time>
      </trkpt>
      <trkpt lat="45.23232" lon="6.02754">
        <ele>2127.1999512</ele>
        <time>2013-04-13T07:23:47Z</time>
      </trkpt>
      <trkpt lat="45.23207" lon="6.02754">
        <ele>2120</ele>
        <time>2013-04-13T07:23:50Z</time>
      </trkpt>
      <trkpt lat="45.23178" lon="6.02745">
        <ele>2109.6000977</ele>
        <time>2013-04-13T07:23:53Z</time>
      </trkpt>
      <trkpt lat="45.23153" lon="6.02739">
        <ele>2098.6000977</ele>
        <time>2013-04-13T07:23:56Z</time>
      </trkpt>
      <trkpt lat="45.23137" lon="6.02731">
        <ele>2087</ele>
        <time>2013-04-13T07:23:59Z</time>
      </trkpt>
      <trkpt lat="45.23121" lon="6.02731">
        <ele>2076</ele>
        <time>2013-04-13T07:24:02Z</time>
      </trkpt>
      <trkpt lat="45.23094" lon="6.02732">
        <ele>2063.6000977</ele>
        <time>2013-04-13T07:24:05Z</time>
      </trkpt>
      <trkpt lat="45.23066" lon="6.02729">
        <ele>2052.6000977</ele>
        <time>2013-04-13T07:24:08Z</time>
      </trkpt>
      <trkpt lat="45.23037" lon="6.02732">
        <ele>2039.8000488</ele>
        <time>2013-04-13T07:24:11Z</time>
      </trkpt>
      <trkpt lat="45.23019" lon="6.02705">
        <ele>2027.4000244</ele>
        <time>2013-04-13T07:24:14Z</time>
      </trkpt>
      <trkpt lat="45.23002" lon="6.02672">
        <ele>2014.8000488</ele>
        <time>2013-04-13T07:24:17Z</time>
      </trkpt>
      <trkpt lat="45.22984" lon="6.02664">
        <ele>2003</ele>
        <time>2013-04-13T07:24:20Z</time>
      </trkpt>
      <trkpt lat="45.22958" lon="6.02684">
        <ele>1992.4000244</ele>
        <time>2013-04-13T07:24:23Z</time>
      </trkpt>
      <trkpt lat="45.22931" lon="6.02702">
        <ele>1979</ele>
        <time>2013-04-13T07:24:26Z</time>
      </trkpt>
      <trkpt lat="45.22903" lon="6.027">
        <ele>1964.4000244</ele>
        <time>2013-04-13T07:24:29Z</time>
      </trkpt>
      <trkpt lat="45.22881" lon="6.02708">
        <ele>1953.4000244</ele>
        <time>2013-04-13T07:24:32Z</time>
      </trkpt>
      <trkpt lat="45.22861" lon="6.02713">
        <ele>1943.4000244</ele>
        <time>2013-04-13T07:24:35Z</time>
      </trkpt>
      <trkpt lat="45.22845" lon="6.02698">
        <ele>1937.4000244</ele>
        <time>2013-04-13T07:24:38Z</time>
      </trkpt>
      <trkpt lat="45.22829" lon="6.02672">
        <ele>1930.4000244</ele>
        <time>2013-04-13T07:24:41Z</time>
      </trkpt>
      <trkpt lat="45.2282" lon="6.02632">
        <ele>1918.8000488</ele>
        <time>2013-04-13T07:24:44Z</time>
      </trkpt>
      <trkpt lat="45.22797" lon="6.02611">
        <ele>1906.4000244</ele>
        <time>2013-04-13T07:24:47Z</time>
      </trkpt>
      <trkpt lat="45.22779" lon="6.02582">
        <ele>1897</ele>
        <time>2013-04-13T07:24:50Z</time>
      </trkpt>
      <trkpt lat="45.22766" lon="6.02567">
        <ele>1888.8000488</ele>
        <time>2013-04-13T07:24:53Z</time>
      </trkpt>
      <trkpt lat="45.22767" lon="6.02568">
        <ele>1882.8000488</ele>
        <time>2013-04-13T07:24:56Z</time>
      </trkpt>
      <trkpt lat="45.22767" lon="6.02568">
        <ele>1878.8000488</ele>
        <time>2013-04-13T07:24:59Z</time>
      </trkpt>
      <trkpt lat="45.22767" lon="6.02568">
        <ele>1878.8000488</ele>
        <time>2013-04-13T07:25:02Z</time>
      </trkpt>
      <trkpt lat="45.22768" lon="6.02568">
        <ele>1878.8000488</ele>
        <time>2013-04-13T07:25:05Z</time>
      </trkpt>
      <trkpt lat="45.22768" lon="6.02568">
        <ele>1878.8000488</ele>
        <time>2013-04-13T07:25:08Z</time>
      </trkpt>
      <trkpt lat="45.22768" lon="6.02568">
        <ele>1878.8000488</ele>
        <time>2013-04-13T07:25:11Z</time>
      </trkpt>
      <trkpt lat="45.22769" lon="6.02568">
        <ele>1878.8000488</ele>
        <time>2013-04-13T07:25:14Z</time>
      </trkpt>
      <trkpt lat="45.22769" lon="6.02567">
        <ele>1878.8000488</ele>
        <time>2013-04-13T07:25:17Z</time>
      </trkpt>
      <trkpt lat="45.22769" lon="6.02567">
        <ele>1878.8000488</ele>
        <time>2013-04-13T07:25:20Z</time>
      </trkpt>
      <trkpt lat="45.2277" lon="6.02567">
        <ele>1878.8000488</ele>
        <time>2013-04-13T07:25:23Z</time>
      </trkpt>
      <trkpt lat="45.2277" lon="6.02567">
        <ele>1878.8000488</ele>
        <time>2013-04-13T07:25:26Z</time>
      </trkpt>
      <trkpt lat="45.2277" lon="6.02567">
        <ele>1877</ele>
        <time>2013-04-13T07:25:29Z</time>
      </trkpt>
      <trkpt lat="45.2277" lon="6.02567">
        <ele>1877</ele>
        <time>2013-04-13T07:25:32Z</time>
      </trkpt>
      <trkpt lat="45.2277" lon="6.02567">
        <ele>1877</ele>
        <time>2013-04-13T07:25:35Z</time>
      </trkpt>
      <trkpt lat="45.2277" lon="6.02567">
        <ele>1877</ele>
        <time>2013-04-13T07:25:38Z</time>
      </trkpt>
      <trkpt lat="45.2277" lon="6.02567">
        <ele>1877</ele>
        <time>2013-04-13T07:25:41Z</time>
      </trkpt>
      <trkpt lat="45.2277" lon="6.02567">
        <ele>1877</ele>
        <time>2013-04-13T07:25:44Z</time>
      </trkpt>
      <trkpt lat="45.2277" lon="6.02567">
        <ele>1878</ele>
        <time>2013-04-13T07:25:47Z</time>
      </trkpt>
      <trkpt lat="45.2277" lon="6.02567">
        <ele>1879</ele>
        <time>2013-04-13T07:25:50Z</time>
      </trkpt>
      <trkpt lat="45.22771" lon="6.02567">
        <ele>1879</ele>
        <time>2013-04-13T07:25:53Z</time>
      </trkpt>
      <trkpt lat="45.22771" lon="6.02567">
        <ele>1879</ele>
        <time>2013-04-13T07:25:56Z</time>
      </trkpt>
      <trkpt lat="45.22771" lon="6.02567">
        <ele>1879</ele>
        <time>2013-04-13T07:25:59Z</time>
      </trkpt>
      <trkpt lat="45.2277" lon="6.02569">
        <ele>1879</ele>
        <time>2013-04-13T07:26:02Z</time>
      </trkpt>
      <trkpt lat="45.22764" lon="6.02572">
        <ele>1879</ele>
        <time>2013-04-13T07:26:05Z</time>
      </trkpt>
      <trkpt lat="45.22757" lon="6.02567">
        <ele>1879</ele>
        <time>2013-04-13T07:26:08Z</time>
      </trkpt>
      <trkpt lat="45.22741" lon="6.02562">
        <ele>1877.8000488</ele>
        <time>2013-04-13T07:26:11Z</time>
      </trkpt>
      <trkpt lat="45.2272" lon="6.02563">
        <ele>1876.4000244</ele>
        <time>2013-04-13T07:26:14Z</time>
      </trkpt>
      <trkpt lat="45.22701" lon="6.02559">
        <ele>1874</ele>
        <time>2013-04-13T07:26:17Z</time>
      </trkpt>
      <trkpt lat="45.22687" lon="6.02554">
        <ele>1871</ele>
        <time>2013-04-13T07:26:20Z</time>
      </trkpt>
      <trkpt lat="45.22669" lon="6.02554">
        <ele>1868.4000244</ele>
        <time>2013-04-13T07:26:23Z</time>
      </trkpt>
      <trkpt lat="45.22649" lon="6.02545">
        <ele>1865.8000488</ele>
        <time>2013-04-13T07:26:26Z</time>
      </trkpt>
      <trkpt lat="45.22624" lon="6.02543">
        <ele>1862.4000244</ele>
        <time>2013-04-13T07:26:29Z</time>
      </trkpt>
      <trkpt lat="45.22601" lon="6.02543">
        <ele>1858.4000244</ele>
        <time>2013-04-13T07:26:32Z</time>
      </trkpt>
      <trkpt lat="45.22574" lon="6.02539">
        <ele>1851</ele>
        <time>2013-04-13T07:26:35Z</time>
      </trkpt>
      <trkpt lat="45.22551" lon="6.02527">
        <ele>1843</ele>
        <time>2013-04-13T07:26:38Z</time>
      </trkpt>
      <trkpt lat="45.22528" lon="6.02508">
        <ele>1835.4000244</ele>
        <time>2013-04-13T07:26:41Z</time>
      </trkpt>
      <trkpt lat="45.22512" lon="6.02493">
        <ele>1829</ele>
        <time>2013-04-13T07:26:44Z</time>
      </trkpt>
      <trkpt lat="45.22505" lon="6.0249">
        <ele>1823.4000244</ele>
        <time>2013-04-13T07:26:47Z</time>
      </trkpt>
      <trkpt lat="45.22505" lon="6.0249">
        <ele>1820.4000244</ele>
        <time>2013-04-13T07:26:50Z</time>
      </trkpt>
      <trkpt lat="45.22505" lon="6.0249">
        <ele>1817.4000244</ele>
        <time>2013-04-13T07:26:53Z</time>
      </trkpt>
      <trkpt lat="45.22505" lon="6.0249">
        <ele>1817.4000244</ele>
        <time>2013-04-13T07:26:56Z</time>
      </trkpt>
      <trkpt lat="45.22505" lon="6.0249">
        <ele>1817.4000244</ele>
        <time>2013-04-13T07:26:59Z</time>
      </trkpt>
      <trkpt lat="45.22505" lon="6.02491">
        <ele>1817.4000244</ele>
        <time>2013-04-13T07:27:02Z</time>
      </trkpt>
      <trkpt lat="45.22505" lon="6.02491">
        <ele>1817.4000244</ele>
        <time>2013-04-13T07:27:05Z</time>
      </trkpt>
      <trkpt lat="45.22505" lon="6.02491">
        <ele>1817.4000244</ele>
        <time>2013-04-13T07:27:08Z</time>
      </trkpt>
      <trkpt lat="45.22506" lon="6.02491">
        <ele>1817.4000244</ele>
        <time>2013-04-13T07:27:11Z</time>
      </trkpt>
      <trkpt lat="45.22506" lon="6.02491">
        <ele>1817.4000244</ele>
        <time>2013-04-13T07:27:14Z</time>
      </trkpt>
      <trkpt lat="45.22506" lon="6.02491">
        <ele>1817.4000244</ele>
        <time>2013-04-13T07:27:17Z</time>
      </trkpt>
      <trkpt lat="45.22506" lon="6.02491">
        <ele>1817.4000244</ele>
        <time>2013-04-13T07:27:20Z</time>
      </trkpt>
      <trkpt lat="45.22506" lon="6.02491">
        <ele>1817.4000244</ele>
        <time>2013-04-13T07:27:23Z</time>
      </trkpt>
      <trkpt lat="45.22506" lon="6.02491">
        <ele>1817.4000244</ele>
        <time>2013-04-13T07:27:26Z</time>
      </trkpt>
      <trkpt lat="45.22506" lon="6.02491">
        <ele>1817.4000244</ele>
        <time>2013-04-13T07:27:29Z</time>
      </trkpt>
      <trkpt lat="45.22506" lon="6.02491">
        <ele>1817.4000244</ele>
        <time>2013-04-13T07:27:32Z</time>
      </trkpt>
      <trkpt lat="45.225" lon="6.02485">
        <ele>1817.4000244</ele>
        <time>2013-04-13T07:27:35Z</time>
      </trkpt>
      <trkpt lat="45.22488" lon="6.02473">
        <ele>1817</ele>
        <time>2013-04-13T07:27:38Z</time>
      </trkpt>
      <trkpt lat="45.22474" lon="6.02461">
        <ele>1815.4000244</ele>
        <time>2013-04-13T07:27:41Z</time>
      </trkpt>
      <trkpt lat="45.2246" lon="6.02445">
        <ele>1813</ele>
        <time>2013-04-13T07:27:44Z</time>
      </trkpt>
      <trkpt lat="45.22437" lon="6.02422">
        <ele>1808</ele>
        <time>2013-04-13T07:27:47Z</time>
      </trkpt>
      <trkpt lat="45.22419" lon="6.02397">
        <ele>1799.4000244</ele>
        <time>2013-04-13T07:27:50Z</time>
      </trkpt>
      <trkpt lat="45.22403" lon="6.02372">
        <ele>1790</ele>
        <time>2013-04-13T07:27:53Z</time>
      </trkpt>
      <trkpt lat="45.22388" lon="6.02351">
        <ele>1780.4000244</ele>
        <time>2013-04-13T07:27:56Z</time>
      </trkpt>
      <trkpt lat="45.22372" lon="6.02323">
        <ele>1773</ele>
        <time>2013-04-13T07:27:59Z</time>
      </trkpt>
      <trkpt lat="45.22361" lon="6.02292">
        <ele>1766.4000244</ele>
        <time>2013-04-13T07:28:02Z</time>
      </trkpt>
      <trkpt lat="45.22345" lon="6.0226">
        <ele>1756.4000244</ele>
        <time>2013-04-13T07:28:05Z</time>
      </trkpt>
      <trkpt lat="45.22324" lon="6.02229">
        <ele>1748</ele>
        <time>2013-04-13T07:28:08Z</time>
      </trkpt>
      <trkpt lat="45.22304" lon="6.02199">
        <ele>1740</ele>
        <time>2013-04-13T07:28:11Z</time>
      </trkpt>
      <trkpt lat="45.22293" lon="6.02164">
        <ele>1730</ele>
        <time>2013-04-13T07:28:14Z</time>
      </trkpt>
      <trkpt lat="45.22279" lon="6.02123">
        <ele>1726</ele>
        <time>2013-04-13T07:28:17Z</time>
      </trkpt>
      <trkpt lat="45.22268" lon="6.02103">
        <ele>1720.4000244</ele>
        <time>2013-04-13T07:28:20Z</time>
      </trkpt>
      <trkpt lat="45.22267" lon="6.02106">
        <ele>1714.8000488</ele>
        <time>2013-04-13T07:28:23Z</time>
      </trkpt>
      <trkpt lat="45.22267" lon="6.02106">
        <ele>1708.8000488</ele>
        <time>2013-04-13T07:28:26Z</time>
      </trkpt>
      <trkpt lat="45.22267" lon="6.02106">
        <ele>1706.8000488</ele>
        <time>2013-04-13T07:28:29Z</time>
      </trkpt>
      <trkpt lat="45.22267" lon="6.02107">
        <ele>1706.8000488</ele>
        <time>2013-04-13T07:28:32Z</time>
      </trkpt>
      <trkpt lat="45.22267" lon="6.02107">
        <ele>1706.8000488</ele>
        <time>2013-04-13T07:28:35Z</time>
      </trkpt>
      <trkpt lat="45.22266" lon="6.02107">
        <ele>1706.8000488</ele>
        <time>2013-04-13T07:28:38Z</time>
      </trkpt>
      <trkpt lat="45.22266" lon="6.02108">
        <ele>1706.8000488</ele>
        <time>2013-04-13T07:28:41Z</time>
      </trkpt>
      <trkpt lat="45.22265" lon="6.02108">
        <ele>1706.8000488</ele>
        <time>2013-04-13T07:28:44Z</time>
      </trkpt>
      <trkpt lat="45.22265" lon="6.02109">
        <ele>1706.8000488</ele>
        <time>2013-04-13T07:28:47Z</time>
      </trkpt>
      <trkpt lat="45.22265" lon="6.02109">
        <ele>1705.4000244</ele>
        <time>2013-04-13T07:28:50Z</time>
      </trkpt>
      <trkpt lat="45.22265" lon="6.02109">
        <ele>1704.8000488</ele>
        <time>2013-04-13T07:28:53Z</time>
      </trkpt>
      <trkpt lat="45.22265" lon="6.02109">
        <ele>1704.4000244</ele>
        <time>2013-04-13T07:28:56Z</time>
      </trkpt>
      <trkpt lat="45.22265" lon="6.02109">
        <ele>1704.4000244</ele>
        <time>2013-04-13T07:28:59Z</time>
      </trkpt>
      <trkpt lat="45.22265" lon="6.02109">
        <ele>1704.4000244</ele>
        <time>2013-04-13T07:29:02Z</time>
      </trkpt>
      <trkpt lat="45.22265" lon="6.02109">
        <ele>1704.4000244</ele>
        <time>2013-04-13T07:29:05Z</time>
      </trkpt>
      <trkpt lat="45.22265" lon="6.02109">
        <ele>1704.4000244</ele>
        <time>2013-04-13T07:29:08Z</time>
      </trkpt>
      <trkpt lat="45.22265" lon="6.02109">
        <ele>1704.4000244</ele>
        <time>2013-04-13T07:29:11Z</time>
      </trkpt>
      <trkpt lat="45.22265" lon="6.02109">
        <ele>1702.8000488</ele>
        <time>2013-04-13T07:29:14Z</time>
      </trkpt>
      <trkpt lat="45.22266" lon="6.02109">
        <ele>1702</ele>
        <time>2013-04-13T07:29:17Z</time>
      </trkpt>
      <trkpt lat="45.22266" lon="6.02109">
        <ele>1702</ele>
        <time>2013-04-13T07:29:20Z</time>
      </trkpt>
      <trkpt lat="45.22266" lon="6.02109">
        <ele>1702</ele>
        <time>2013-04-13T07:29:23Z</time>
      </trkpt>
      <trkpt lat="45.22266" lon="6.02109">
        <ele>1702</ele>
        <time>2013-04-13T07:29:26Z</time>
      </trkpt>
      <trkpt lat="45.22266" lon="6.02109">
        <ele>1702</ele>
        <time>2013-04-13T07:29:29Z</time>
      </trkpt>
      <trkpt lat="45.22266" lon="6.02109">
        <ele>1701</ele>
        <time>2013-04-13T07:29:32Z</time>
      </trkpt>
      <trkpt lat="45.22266" lon="6.02109">
        <ele>1700</ele>
        <time>2013-04-13T07:29:35Z</time>
      </trkpt>
      <trkpt lat="45.22266" lon="6.02109">
        <ele>1700</ele>
        <time>2013-04-13T07:29:38Z</time>
      </trkpt>
      <trkpt lat="45.22266" lon="6.02109">
        <ele>1700</ele>
        <time>2013-04-13T07:29:41Z</time>
      </trkpt>
      <trkpt lat="45.22267" lon="6.0211">
        <ele>1700</ele>
        <time>2013-04-13T07:29:44Z</time>
      </trkpt>
      <trkpt lat="45.22267" lon="6.0211">
        <ele>1700</ele>
        <time>2013-04-13T07:29:47Z</time>
      </trkpt>
      <trkpt lat="45.22267" lon="6.0211">
        <ele>1700</ele>
        <time>2013-04-13T07:29:50Z</time>
      </trkpt>
      <trkpt lat="45.22266" lon="6.0211">
        <ele>1700</ele>
        <time>2013-04-13T07:29:53Z</time>
      </trkpt>
      <trkpt lat="45.22267" lon="6.0211">
        <ele>1700</ele>
        <time>2013-04-13T07:29:56Z</time>
      </trkpt>
      <trkpt lat="45.22267" lon="6.0211">
        <ele>1700</ele>
        <time>2013-04-13T07:29:59Z</time>
      </trkpt>
      <trkpt lat="45.22267" lon="6.0211">
        <ele>1700</ele>
        <time>2013-04-13T07:30:02Z</time>
      </trkpt>
      <trkpt lat="45.22266" lon="6.0211">
        <ele>1700</ele>
        <time>2013-04-13T07:30:05Z</time>
      </trkpt>
      <trkpt lat="45.22267" lon="6.0211">
        <ele>1700</ele>
        <time>2013-04-13T07:30:08Z</time>
      </trkpt>
      <trkpt lat="45.22266" lon="6.02111">
        <ele>1700</ele>
        <time>2013-04-13T07:30:11Z</time>
      </trkpt>
      <trkpt lat="45.22266" lon="6.0211">
        <ele>1700</ele>
        <time>2013-04-13T07:30:14Z</time>
      </trkpt>
      <trkpt lat="45.22265" lon="6.02111">
        <ele>1700</ele>
        <time>2013-04-13T07:30:17Z</time>
      </trkpt>
      <trkpt lat="45.22265" lon="6.02111">
        <ele>1700</ele>
        <time>2013-04-13T07:30:20Z</time>
      </trkpt>
      <trkpt lat="45.22265" lon="6.02111">
        <ele>1700</ele>
        <time>2013-04-13T07:30:23Z</time>
      </trkpt>
      <trkpt lat="45.22265" lon="6.02111">
        <ele>1700</ele>
        <time>2013-04-13T07:30:26Z</time>
      </trkpt>
      <trkpt lat="45.22265" lon="6.02111">
        <ele>1700</ele>
        <time>2013-04-13T07:30:29Z</time>
      </trkpt>
      <trkpt lat="45.22265" lon="6.02111">
        <ele>1700</ele>
        <time>2013-04-13T07:30:32Z</time>
      </trkpt>
      <trkpt lat="45.22265" lon="6.02111">
        <ele>1700</ele>
        <time>2013-04-13T07:30:35Z</time>
      </trkpt>
      <trkpt lat="45.22265" lon="6.02111">
        <ele>1700</ele>
        <time>2013-04-13T07:30:38Z</time>
      </trkpt>
      <trkpt lat="45.22265" lon="6.02112">
        <ele>1700</ele>
        <time>2013-04-13T07:30:41Z</time>
      </trkpt>
      <trkpt lat="45.22265" lon="6.02112">
        <ele>1700</ele>
        <time>2013-04-13T07:30:44Z</time>
      </trkpt>
      <trkpt lat="45.22265" lon="6.02112">
        <ele>1700</ele>
        <time>2013-04-13T07:30:47Z</time>
      </trkpt>
      <trkpt lat="45.22265" lon="6.02113">
        <ele>1700</ele>
        <time>2013-04-13T07:30:50Z</time>
      </trkpt>
      <trkpt lat="45.22265" lon="6.02113">
        <ele>1700</ele>
        <time>2013-04-13T07:30:53Z</time>
      </trkpt>
      <trkpt lat="45.22265" lon="6.02114">
        <ele>1700</ele>
        <time>2013-04-13T07:30:56Z</time>
      </trkpt>
      <trkpt lat="45.22265" lon="6.02113">
        <ele>1700</ele>
        <time>2013-04-13T07:30:59Z</time>
      </trkpt>
      <trkpt lat="45.22265" lon="6.02113">
        <ele>1700</ele>
        <time>2013-04-13T07:31:02Z</time>
      </trkpt>
      <trkpt lat="45.22265" lon="6.02113">
        <ele>1700</ele>
        <time>2013-04-13T07:31:05Z</time>
      </trkpt>
      <trkpt lat="45.22266" lon="6.02113">
        <ele>1700</ele>
        <time>2013-04-13T07:31:08Z</time>
      </trkpt>
      <trkpt lat="45.22266" lon="6.02113">
        <ele>1700</ele>
        <time>2013-04-13T07:31:11Z</time>
      </trkpt>
      <trkpt lat="45.22266" lon="6.02113">
        <ele>1700</ele>
        <time>2013-04-13T07:31:14Z</time>
      </trkpt>
      <trkpt lat="45.22266" lon="6.02113">
        <ele>1700</ele>
        <time>2013-04-13T07:31:17Z</time>
      </trkpt>
      <trkpt lat="45.22266" lon="6.02113">
        <ele>1700</ele>
        <time>2013-04-13T07:31:20Z</time>
      </trkpt>
      <trkpt lat="45.22266" lon="6.02113">
        <ele>1700</ele>
        <time>2013-04-13T07:31:23Z</time>
      </trkpt>
      <trkpt lat="45.22266" lon="6.02113">
        <ele>1700</ele>
        <time>2013-04-13T07:31:26Z</time>
      </trkpt>
      <trkpt lat="45.22266" lon="6.02113">
        <ele>1700</ele>
        <time>2013-04-13T07:31:29Z</time>
      </trkpt>
      <trkpt lat="45.22266" lon="6.02113">
        <ele>1700</ele>
        <time>2013-04-13T07:31:32Z</time>
      </trkpt>
      <trkpt lat="45.22266" lon="6.02113">
        <ele>1700</ele>
        <time>2013-04-13T07:31:35Z</time>
      </trkpt>
      <trkpt lat="45.22266" lon="6.02112">
        <ele>1700</ele>
        <time>2013-04-13T07:31:38Z</time>
      </trkpt>
      <trkpt lat="45.22266" lon="6.02112">
        <ele>1700</ele>
        <time>2013-04-13T07:31:41Z</time>
      </trkpt>
      <trkpt lat="45.22266" lon="6.02113">
        <ele>1700</ele>
        <time>2013-04-13T07:31:44Z</time>
      </trkpt>
      <trkpt lat="45.22266" lon="6.02112">
        <ele>1700</ele>
        <time>2013-04-13T07:31:47Z</time>
      </trkpt>
      <trkpt lat="45.22266" lon="6.02112">
        <ele>1700</ele>
        <time>2013-04-13T07:31:50Z</time>
      </trkpt>
      <trkpt lat="45.22266" lon="6.02112">
        <ele>1700</ele>
        <time>2013-04-13T07:31:53Z</time>
      </trkpt>
      <trkpt lat="45.22266" lon="6.02112">
        <ele>1700</ele>
        <time>2013-04-13T07:31:56Z</time>
      </trkpt>
      <trkpt lat="45.22266" lon="6.02112">
        <ele>1700</ele>
        <time>2013-04-13T07:31:59Z</time>
      </trkpt>
      <trkpt lat="45.22267" lon="6.02112">
        <ele>1700</ele>
        <time>2013-04-13T07:32:02Z</time>
      </trkpt>
      <trkpt lat="45.22267" lon="6.02112">
        <ele>1700</ele>
        <time>2013-04-13T07:32:05Z</time>
      </trkpt>
      <trkpt lat="45.22267" lon="6.02112">
        <ele>1700</ele>
        <time>2013-04-13T07:32:08Z</time>
      </trkpt>
      <trkpt lat="45.22267" lon="6.02112">
        <ele>1700</ele>
        <time>2013-04-13T07:32:11Z</time>
      </trkpt>
      <trkpt lat="45.22267" lon="6.02112">
        <ele>1700</ele>
        <time>2013-04-13T07:32:14Z</time>
      </trkpt>
      <trkpt lat="45.22267" lon="6.02112">
        <ele>1700</ele>
        <time>2013-04-13T07:32:17Z</time>
      </trkpt>
      <trkpt lat="45.22267" lon="6.02112">
        <ele>1700</ele>
        <time>2013-04-13T07:32:20Z</time>
      </trkpt>
      <trkpt lat="45.22267" lon="6.02112">
        <ele>1700</ele>
        <time>2013-04-13T07:32:23Z</time>
      </trkpt>
      <trkpt lat="45.22267" lon="6.02111">
        <ele>1700</ele>
        <time>2013-04-13T07:32:26Z</time>
      </trkpt>
      <trkpt lat="45.22267" lon="6.02112">
        <ele>1700</ele>
        <time>2013-04-13T07:32:29Z</time>
      </trkpt>
      <trkpt lat="45.22267" lon="6.02112">
        <ele>1700</ele>
        <time>2013-04-13T07:32:32Z</time>
      </trkpt>
      <trkpt lat="45.22267" lon="6.02112">
        <ele>1700</ele>
        <time>2013-04-13T07:32:35Z</time>
      </trkpt>
      <trkpt lat="45.22267" lon="6.02112">
        <ele>1700</ele>
        <time>2013-04-13T07:32:38Z</time>
      </trkpt>
      <trkpt lat="45.22267" lon="6.02112">
        <ele>1700</ele>
        <time>2013-04-13T07:32:41Z</time>
      </trkpt>
      <trkpt lat="45.22267" lon="6.02112">
        <ele>1700</ele>
        <time>2013-04-13T07:32:44Z</time>
      </trkpt>
      <trkpt lat="45.22267" lon="6.02112">
        <ele>1700</ele>
        <time>2013-04-13T07:32:47Z</time>
      </trkpt>
      <trkpt lat="45.22267" lon="6.02112">
        <ele>1700</ele>
        <time>2013-04-13T07:32:50Z</time>
      </trkpt>
      <trkpt lat="45.22267" lon="6.02112">
        <ele>1700</ele>
        <time>2013-04-13T07:32:53Z</time>
      </trkpt>
      <trkpt lat="45.22267" lon="6.02112">
        <ele>1700</ele>
        <time>2013-04-13T07:32:56Z</time>
      </trkpt>
      <trkpt lat="45.22267" lon="6.02112">
        <ele>1700</ele>
        <time>2013-04-13T07:32:59Z</time>
      </trkpt>
      <trkpt lat="45.22267" lon="6.02112">
        <ele>1700</ele>
        <time>2013-04-13T07:33:02Z</time>
      </trkpt>
      <trkpt lat="45.22267" lon="6.02112">
        <ele>1700</ele>
        <time>2013-04-13T07:33:05Z</time>
      </trkpt>
      <trkpt lat="45.22266" lon="6.02112">
        <ele>1700</ele>
        <time>2013-04-13T07:33:08Z</time>
      </trkpt>
      <trkpt lat="45.22266" lon="6.02112">
        <ele>1700</ele>
        <time>2013-04-13T07:33:11Z</time>
      </trkpt>
      <trkpt lat="45.22266" lon="6.02112">
        <ele>1700</ele>
        <time>2013-04-13T07:33:14Z</time>
      </trkpt>
      <trkpt lat="45.22266" lon="6.02112">
        <ele>1700</ele>
        <time>2013-04-13T07:33:17Z</time>
      </trkpt>
      <trkpt lat="45.22266" lon="6.02112">
        <ele>1700</ele>
        <time>2013-04-13T07:33:20Z</time>
      </trkpt>
      <trkpt lat="45.22266" lon="6.02112">
        <ele>1700</ele>
        <time>2013-04-13T07:33:23Z</time>
      </trkpt>
      <trkpt lat="45.22266" lon="6.02112">
        <ele>1700</ele>
        <time>2013-04-13T07:33:26Z</time>
      </trkpt>
      <trkpt lat="45.22266" lon="6.02112">
        <ele>1700</ele>
        <time>2013-04-13T07:33:29Z</time>
      </trkpt>
      <trkpt lat="45.22266" lon="6.02112">
        <ele>1700</ele>
        <time>2013-04-13T07:33:32Z</time>
      </trkpt>
      <trkpt lat="45.22267" lon="6.02112">
        <ele>1700</ele>
        <time>2013-04-13T07:33:35Z</time>
      </trkpt>
      <trkpt lat="45.22266" lon="6.02112">
        <ele>1700</ele>
        <time>2013-04-13T07:33:38Z</time>
      </trkpt>
      <trkpt lat="45.22267" lon="6.02113">
        <ele>1700</ele>
        <time>2013-04-13T07:33:41Z</time>
      </trkpt>
      <trkpt lat="45.22267" lon="6.02113">
        <ele>1700</ele>
        <time>2013-04-13T07:33:44Z</time>
      </trkpt>
      <trkpt lat="45.22268" lon="6.02114">
        <ele>1700</ele>
        <time>2013-04-13T07:33:47Z</time>
      </trkpt>
      <trkpt lat="45.22267" lon="6.02113">
        <ele>1700</ele>
        <time>2013-04-13T07:33:50Z</time>
      </trkpt>
      <trkpt lat="45.22267" lon="6.02112">
        <ele>1700</ele>
        <time>2013-04-13T07:33:53Z</time>
      </trkpt>
      <trkpt lat="45.22267" lon="6.02113">
        <ele>1700</ele>
        <time>2013-04-13T07:33:56Z</time>
      </trkpt>
      <trkpt lat="45.22267" lon="6.02112">
        <ele>1700</ele>
        <time>2013-04-13T07:33:59Z</time>
      </trkpt>
      <trkpt lat="45.22268" lon="6.02114">
        <ele>1700</ele>
        <time>2013-04-13T07:34:02Z</time>
      </trkpt>
      <trkpt lat="45.22269" lon="6.02118">
        <ele>1700</ele>
        <time>2013-04-13T07:34:05Z</time>
      </trkpt>
      <trkpt lat="45.2227" lon="6.0212">
        <ele>1700</ele>
        <time>2013-04-13T07:34:08Z</time>
      </trkpt>
      <trkpt lat="45.2227" lon="6.02122">
        <ele>1700</ele>
        <time>2013-04-13T07:34:11Z</time>
      </trkpt>
      <trkpt lat="45.22269" lon="6.02125">
        <ele>1700</ele>
        <time>2013-04-13T07:34:14Z</time>
      </trkpt>
      <trkpt lat="45.22268" lon="6.02126">
        <ele>1700</ele>
        <time>2013-04-13T07:34:17Z</time>
      </trkpt>
      <trkpt lat="45.22268" lon="6.02126">
        <ele>1700</ele>
        <time>2013-04-13T07:34:20Z</time>
      </trkpt>
      <trkpt lat="45.22268" lon="6.02126">
        <ele>1700</ele>
        <time>2013-04-13T07:34:23Z</time>
      </trkpt>
      <trkpt lat="45.22268" lon="6.02126">
        <ele>1700</ele>
        <time>2013-04-13T07:34:26Z</time>
      </trkpt>
      <trkpt lat="45.22269" lon="6.02126">
        <ele>1700</ele>
        <time>2013-04-13T07:34:29Z</time>
      </trkpt>
      <trkpt lat="45.22269" lon="6.02126">
        <ele>1700</ele>
        <time>2013-04-13T07:34:32Z</time>
      </trkpt>
      <trkpt lat="45.22267" lon="6.02127">
        <ele>1700</ele>
        <time>2013-04-13T07:34:35Z</time>
      </trkpt>
      <trkpt lat="45.22265" lon="6.02131">
        <ele>1700</ele>
        <time>2013-04-13T07:34:38Z</time>
      </trkpt>
      <trkpt lat="45.22262" lon="6.02134">
        <ele>1700</ele>
        <time>2013-04-13T07:34:41Z</time>
      </trkpt>
      <trkpt lat="45.22259" lon="6.02137">
        <ele>1700</ele>
        <time>2013-04-13T07:34:44Z</time>
      </trkpt>
      <trkpt lat="45.22255" lon="6.02139">
        <ele>1700</ele>
        <time>2013-04-13T07:34:47Z</time>
      </trkpt>
      <trkpt lat="45.22251" lon="6.02139">
        <ele>1700</ele>
        <time>2013-04-13T07:34:50Z</time>
      </trkpt>
      <trkpt lat="45.22247" lon="6.02141">
        <ele>1700</ele>
        <time>2013-04-13T07:34:53Z</time>
      </trkpt>
      <trkpt lat="45.22244" lon="6.02144">
        <ele>1700</ele>
        <time>2013-04-13T07:34:56Z</time>
      </trkpt>
      <trkpt lat="45.22243" lon="6.02148">
        <ele>1700</ele>
        <time>2013-04-13T07:34:59Z</time>
      </trkpt>
      <trkpt lat="45.22241" lon="6.02152">
        <ele>1700</ele>
        <time>2013-04-13T07:35:02Z</time>
      </trkpt>
      <trkpt lat="45.2224" lon="6.02154">
        <ele>1700</ele>
        <time>2013-04-13T07:35:05Z</time>
      </trkpt>
      <trkpt lat="45.22238" lon="6.02156">
        <ele>1701</ele>
        <time>2013-04-13T07:35:08Z</time>
      </trkpt>
      <trkpt lat="45.22236" lon="6.02159">
        <ele>1702</ele>
        <time>2013-04-13T07:35:11Z</time>
      </trkpt>
      <trkpt lat="45.22235" lon="6.02159">
        <ele>1703</ele>
        <time>2013-04-13T07:35:14Z</time>
      </trkpt>
      <trkpt lat="45.22235" lon="6.02159">
        <ele>1704.4000244</ele>
        <time>2013-04-13T07:35:17Z</time>
      </trkpt>
      <trkpt lat="45.22235" lon="6.0216">
        <ele>1704.4000244</ele>
        <time>2013-04-13T07:35:20Z</time>
      </trkpt>
      <trkpt lat="45.22235" lon="6.0216">
        <ele>1704.4000244</ele>
        <time>2013-04-13T07:35:23Z</time>
      </trkpt>
      <trkpt lat="45.22235" lon="6.0216">
        <ele>1704.4000244</ele>
        <time>2013-04-13T07:35:26Z</time>
      </trkpt>
      <trkpt lat="45.22234" lon="6.02161">
        <ele>1704.4000244</ele>
        <time>2013-04-13T07:35:29Z</time>
      </trkpt>
      <trkpt lat="45.22232" lon="6.02164">
        <ele>1704.4000244</ele>
        <time>2013-04-13T07:35:32Z</time>
      </trkpt>
      <trkpt lat="45.2223" lon="6.02169">
        <ele>1704.4000244</ele>
        <time>2013-04-13T07:35:35Z</time>
      </trkpt>
      <trkpt lat="45.22228" lon="6.02173">
        <ele>1704.4000244</ele>
        <time>2013-04-13T07:35:38Z</time>
      </trkpt>
      <trkpt lat="45.22227" lon="6.02177">
        <ele>1704.4000244</ele>
        <time>2013-04-13T07:35:41Z</time>
      </trkpt>
      <trkpt lat="45.22225" lon="6.02182">
        <ele>1704.4000244</ele>
        <time>2013-04-13T07:35:44Z</time>
      </trkpt>
      <trkpt lat="45.22224" lon="6.02185">
        <ele>1704.8000488</ele>
        <time>2013-04-13T07:35:47Z</time>
      </trkpt>
      <trkpt lat="45.22223" lon="6.02189">
        <ele>1706</ele>
        <time>2013-04-13T07:35:50Z</time>
      </trkpt>
      <trkpt lat="45.22221" lon="6.02193">
        <ele>1706.4000244</ele>
        <time>2013-04-13T07:35:53Z</time>
      </trkpt>
      <trkpt lat="45.22219" lon="6.02197">
        <ele>1706.4000244</ele>
        <time>2013-04-13T07:35:56Z</time>
      </trkpt>
      <trkpt lat="45.22217" lon="6.02198">
        <ele>1706.8000488</ele>
        <time>2013-04-13T07:35:59Z</time>
      </trkpt>
      <trkpt lat="45.22216" lon="6.02198">
        <ele>1708</ele>
        <time>2013-04-13T07:36:02Z</time>
      </trkpt>
      <trkpt lat="45.22215" lon="6.02199">
        <ele>1708.4000244</ele>
        <time>2013-04-13T07:36:05Z</time>
      </trkpt>
      <trkpt lat="45.2221" lon="6.02198">
        <ele>1708.4000244</ele>
        <time>2013-04-13T07:36:08Z</time>
      </trkpt>
      <trkpt lat="45.22205" lon="6.02202">
        <ele>1708.4000244</ele>
        <time>2013-04-13T07:36:11Z</time>
      </trkpt>
      <trkpt lat="45.22205" lon="6.02206">
        <ele>1708.4000244</ele>
        <time>2013-04-13T07:36:14Z</time>
      </trkpt>
      <trkpt lat="45.22205" lon="6.02211">
        <ele>1708.4000244</ele>
        <time>2013-04-13T07:36:17Z</time>
      </trkpt>
      <trkpt lat="45.22207" lon="6.02216">
        <ele>1708.4000244</ele>
        <time>2013-04-13T07:36:20Z</time>
      </trkpt>
      <trkpt lat="45.22207" lon="6.0222">
        <ele>1708.4000244</ele>
        <time>2013-04-13T07:36:23Z</time>
      </trkpt>
      <trkpt lat="45.22205" lon="6.02222">
        <ele>1708.4000244</ele>
        <time>2013-04-13T07:36:26Z</time>
      </trkpt>
      <trkpt lat="45.22206" lon="6.02226">
        <ele>1708.4000244</ele>
        <time>2013-04-13T07:36:29Z</time>
      </trkpt>
      <trkpt lat="45.22205" lon="6.0223">
        <ele>1708.8000488</ele>
        <time>2013-04-13T07:36:32Z</time>
      </trkpt>
      <trkpt lat="45.22204" lon="6.02233">
        <ele>1709.8000488</ele>
        <time>2013-04-13T07:36:35Z</time>
      </trkpt>
      <trkpt lat="45.22203" lon="6.02236">
        <ele>1710.4000244</ele>
        <time>2013-04-13T07:36:38Z</time>
      </trkpt>
      <trkpt lat="45.22201" lon="6.02238">
        <ele>1711.8000488</ele>
        <time>2013-04-13T07:36:41Z</time>
      </trkpt>
      <trkpt lat="45.22199" lon="6.0224">
        <ele>1712.8000488</ele>
        <time>2013-04-13T07:36:44Z</time>
      </trkpt>
      <trkpt lat="45.22197" lon="6.02242">
        <ele>1712.8000488</ele>
        <time>2013-04-13T07:36:47Z</time>
      </trkpt>
      <trkpt lat="45.22194" lon="6.02244">
        <ele>1714</ele>
        <time>2013-04-13T07:36:50Z</time>
      </trkpt>
      <trkpt lat="45.22192" lon="6.02247">
        <ele>1715</ele>
        <time>2013-04-13T07:36:53Z</time>
      </trkpt>
      <trkpt lat="45.2219" lon="6.02249">
        <ele>1715</ele>
        <time>2013-04-13T07:36:56Z</time>
      </trkpt>
      <trkpt lat="45.22188" lon="6.02251">
        <ele>1716</ele>
        <time>2013-04-13T07:36:59Z</time>
      </trkpt>
      <trkpt lat="45.22186" lon="6.02254">
        <ele>1717</ele>
        <time>2013-04-13T07:37:02Z</time>
      </trkpt>
      <trkpt lat="45.22183" lon="6.02256">
        <ele>1717</ele>
        <time>2013-04-13T07:37:05Z</time>
      </trkpt>
      <trkpt lat="45.22181" lon="6.02258">
        <ele>1717.4000244</ele>
        <time>2013-04-13T07:37:08Z</time>
      </trkpt>
      <trkpt lat="45.22178" lon="6.0226">
        <ele>1718.8000488</ele>
        <time>2013-04-13T07:37:11Z</time>
      </trkpt>
      <trkpt lat="45.22175" lon="6.02262">
        <ele>1719</ele>
        <time>2013-04-13T07:37:14Z</time>
      </trkpt>
      <trkpt lat="45.22172" lon="6.02263">
        <ele>1719.4000244</ele>
        <time>2013-04-13T07:37:17Z</time>
      </trkpt>
      <trkpt lat="45.22169" lon="6.02264">
        <ele>1720.4000244</ele>
        <time>2013-04-13T07:37:20Z</time>
      </trkpt>
      <trkpt lat="45.22166" lon="6.02264">
        <ele>1721</ele>
        <time>2013-04-13T07:37:23Z</time>
      </trkpt>
      <trkpt lat="45.22163" lon="6.02265">
        <ele>1722</ele>
        <time>2013-04-13T07:37:26Z</time>
      </trkpt>
      <trkpt lat="45.22161" lon="6.02266">
        <ele>1723</ele>
        <time>2013-04-13T07:37:29Z</time>
      </trkpt>
      <trkpt lat="45.22159" lon="6.02266">
        <ele>1723</ele>
        <time>2013-04-13T07:37:32Z</time>
      </trkpt>
      <trkpt lat="45.22157" lon="6.02268">
        <ele>1724</ele>
        <time>2013-04-13T07:37:35Z</time>
      </trkpt>
      <trkpt lat="45.22156" lon="6.02272">
        <ele>1725</ele>
        <time>2013-04-13T07:37:38Z</time>
      </trkpt>
      <trkpt lat="45.22155" lon="6.02274">
        <ele>1725</ele>
        <time>2013-04-13T07:37:41Z</time>
      </trkpt>
      <trkpt lat="45.22155" lon="6.02278">
        <ele>1725.4000244</ele>
        <time>2013-04-13T07:37:44Z</time>
      </trkpt>
      <trkpt lat="45.22154" lon="6.02281">
        <ele>1726.8000488</ele>
        <time>2013-04-13T07:37:47Z</time>
      </trkpt>
      <trkpt lat="45.22154" lon="6.02285">
        <ele>1727</ele>
        <time>2013-04-13T07:37:50Z</time>
      </trkpt>
      <trkpt lat="45.22153" lon="6.02288">
        <ele>1728</ele>
        <time>2013-04-13T07:37:53Z</time>
      </trkpt>
      <trkpt lat="45.22153" lon="6.02292">
        <ele>1729</ele>
        <time>2013-04-13T07:37:56Z</time>
      </trkpt>
      <trkpt lat="45.22152" lon="6.02295">
        <ele>1729</ele>
        <time>2013-04-13T07:37:59Z</time>
      </trkpt>
      <trkpt lat="45.22151" lon="6.02299">
        <ele>1729.8000488</ele>
        <time>2013-04-13T07:38:02Z</time>
      </trkpt>
      <trkpt lat="45.2215" lon="6.02302">
        <ele>1730.8000488</ele>
        <time>2013-04-13T07:38:05Z</time>
      </trkpt>
      <trkpt lat="45.22148" lon="6.02306">
        <ele>1731.4000244</ele>
        <time>2013-04-13T07:38:08Z</time>
      </trkpt>
      <trkpt lat="45.22147" lon="6.02309">
        <ele>1732.8000488</ele>
        <time>2013-04-13T07:38:11Z</time>
      </trkpt>
      <trkpt lat="45.22146" lon="6.02312">
        <ele>1733.4000244</ele>
        <time>2013-04-13T07:38:14Z</time>
      </trkpt>
      <trkpt lat="45.22144" lon="6.02316">
        <ele>1733.4000244</ele>
        <time>2013-04-13T07:38:17Z</time>
      </trkpt>
      <trkpt lat="45.22144" lon="6.02319">
        <ele>1734.8000488</ele>
        <time>2013-04-13T07:38:20Z</time>
      </trkpt>
      <trkpt lat="45.22144" lon="6.02322">
        <ele>1735.4000244</ele>
        <time>2013-04-13T07:38:23Z</time>
      </trkpt>
      <trkpt lat="45.22143" lon="6.02326">
        <ele>1735.8000488</ele>
        <time>2013-04-13T07:38:26Z</time>
      </trkpt>
      <trkpt lat="45.22142" lon="6.02329">
        <ele>1736.4000244</ele>
        <time>2013-04-13T07:38:29Z</time>
      </trkpt>
      <trkpt lat="45.22141" lon="6.02332">
        <ele>1737.4000244</ele>
        <time>2013-04-13T07:38:32Z</time>
      </trkpt>
      <trkpt lat="45.22141" lon="6.02333">
        <ele>1738</ele>
        <time>2013-04-13T07:38:35Z</time>
      </trkpt>
      <trkpt lat="45.22141" lon="6.02333">
        <ele>1739.4000244</ele>
        <time>2013-04-13T07:38:38Z</time>
      </trkpt>
      <trkpt lat="45.22141" lon="6.02333">
        <ele>1739.4000244</ele>
        <time>2013-04-13T07:38:41Z</time>
      </trkpt>
      <trkpt lat="45.22141" lon="6.02333">
        <ele>1739.4000244</ele>
        <time>2013-04-13T07:38:44Z</time>
      </trkpt>
      <trkpt lat="45.22141" lon="6.02333">
        <ele>1739.4000244</ele>
        <time>2013-04-13T07:38:47Z</time>
      </trkpt>
      <trkpt lat="45.2214" lon="6.02333">
        <ele>1739.4000244</ele>
        <time>2013-04-13T07:38:50Z</time>
      </trkpt>
      <trkpt lat="45.22141" lon="6.02333">
        <ele>1739.4000244</ele>
        <time>2013-04-13T07:38:53Z</time>
      </trkpt>
      <trkpt lat="45.22141" lon="6.02333">
        <ele>1739.4000244</ele>
        <time>2013-04-13T07:38:56Z</time>
      </trkpt>
      <trkpt lat="45.22141" lon="6.02332">
        <ele>1739.4000244</ele>
        <time>2013-04-13T07:38:59Z</time>
      </trkpt>
      <trkpt lat="45.22141" lon="6.02333">
        <ele>1739.4000244</ele>
        <time>2013-04-13T07:39:02Z</time>
      </trkpt>
      <trkpt lat="45.22141" lon="6.02333">
        <ele>1739.4000244</ele>
        <time>2013-04-13T07:39:05Z</time>
      </trkpt>
      <trkpt lat="45.22141" lon="6.02333">
        <ele>1739.4000244</ele>
        <time>2013-04-13T07:39:08Z</time>
      </trkpt>
      <trkpt lat="45.22141" lon="6.02333">
        <ele>1739.4000244</ele>
        <time>2013-04-13T07:39:11Z</time>
      </trkpt>
      <trkpt lat="45.22141" lon="6.02333">
        <ele>1739.4000244</ele>
        <time>2013-04-13T07:39:14Z</time>
      </trkpt>
      <trkpt lat="45.22141" lon="6.02333">
        <ele>1739.4000244</ele>
        <time>2013-04-13T07:39:17Z</time>
      </trkpt>
      <trkpt lat="45.22141" lon="6.02333">
        <ele>1739.4000244</ele>
        <time>2013-04-13T07:39:20Z</time>
      </trkpt>
      <trkpt lat="45.22141" lon="6.02332">
        <ele>1739.4000244</ele>
        <time>2013-04-13T07:39:23Z</time>
      </trkpt>
      <trkpt lat="45.2214" lon="6.02332">
        <ele>1739.4000244</ele>
        <time>2013-04-13T07:39:26Z</time>
      </trkpt>
      <trkpt lat="45.2214" lon="6.02333">
        <ele>1739.4000244</ele>
        <time>2013-04-13T07:39:29Z</time>
      </trkpt>
      <trkpt lat="45.22139" lon="6.02335">
        <ele>1739.4000244</ele>
        <time>2013-04-13T07:39:32Z</time>
      </trkpt>
      <trkpt lat="45.22137" lon="6.02334">
        <ele>1739.4000244</ele>
        <time>2013-04-13T07:39:35Z</time>
      </trkpt>
      <trkpt lat="45.22135" lon="6.02331">
        <ele>1740</ele>
        <time>2013-04-13T07:39:38Z</time>
      </trkpt>
      <trkpt lat="45.22133" lon="6.02329">
        <ele>1741</ele>
        <time>2013-04-13T07:39:41Z</time>
      </trkpt>
      <trkpt lat="45.2213" lon="6.02327">
        <ele>1741.8000488</ele>
        <time>2013-04-13T07:39:44Z</time>
      </trkpt>
      <trkpt lat="45.22127" lon="6.02326">
        <ele>1742.8000488</ele>
        <time>2013-04-13T07:39:47Z</time>
      </trkpt>
      <trkpt lat="45.22124" lon="6.02325">
        <ele>1743.8000488</ele>
        <time>2013-04-13T07:39:50Z</time>
      </trkpt>
      <trkpt lat="45.22122" lon="6.02324">
        <ele>1743.8000488</ele>
        <time>2013-04-13T07:39:53Z</time>
      </trkpt>
      <trkpt lat="45.22119" lon="6.02323">
        <ele>1744.8000488</ele>
        <time>2013-04-13T07:39:56Z</time>
      </trkpt>
      <trkpt lat="45.22117" lon="6.02323">
        <ele>1745.8000488</ele>
        <time>2013-04-13T07:39:59Z</time>
      </trkpt>
      <trkpt lat="45.22115" lon="6.02323">
        <ele>1745.8000488</ele>
        <time>2013-04-13T07:40:02Z</time>
      </trkpt>
      <trkpt lat="45.22113" lon="6.02322">
        <ele>1747</ele>
        <time>2013-04-13T07:40:05Z</time>
      </trkpt>
      <trkpt lat="45.2211" lon="6.02323">
        <ele>1748</ele>
        <time>2013-04-13T07:40:08Z</time>
      </trkpt>
      <trkpt lat="45.22108" lon="6.02322">
        <ele>1748</ele>
        <time>2013-04-13T07:40:11Z</time>
      </trkpt>
      <trkpt lat="45.22106" lon="6.02323">
        <ele>1748.4000244</ele>
        <time>2013-04-13T07:40:14Z</time>
      </trkpt>
      <trkpt lat="45.22104" lon="6.02323">
        <ele>1749.4000244</ele>
        <time>2013-04-13T07:40:17Z</time>
      </trkpt>
      <trkpt lat="45.22101" lon="6.02322">
        <ele>1750</ele>
        <time>2013-04-13T07:40:20Z</time>
      </trkpt>
      <trkpt lat="45.22098" lon="6.02322">
        <ele>1750.8000488</ele>
        <time>2013-04-13T07:40:23Z</time>
      </trkpt>
      <trkpt lat="45.22095" lon="6.02322">
        <ele>1752</ele>
        <time>2013-04-13T07:40:26Z</time>
      </trkpt>
      <trkpt lat="45.22092" lon="6.02322">
        <ele>1752</ele>
        <time>2013-04-13T07:40:29Z</time>
      </trkpt>
      <trkpt lat="45.22088" lon="6.02322">
        <ele>1753</ele>
        <time>2013-04-13T07:40:32Z</time>
      </trkpt>
      <trkpt lat="45.22085" lon="6.02325">
        <ele>1754</ele>
        <time>2013-04-13T07:40:35Z</time>
      </trkpt>
      <trkpt lat="45.22084" lon="6.02329">
        <ele>1754</ele>
        <time>2013-04-13T07:40:38Z</time>
      </trkpt>
      <trkpt lat="45.22083" lon="6.02332">
        <ele>1755</ele>
        <time>2013-04-13T07:40:41Z</time>
      </trkpt>
      <trkpt lat="45.22082" lon="6.02336">
        <ele>1756</ele>
        <time>2013-04-13T07:40:44Z</time>
      </trkpt>
      <trkpt lat="45.2208" lon="6.02339">
        <ele>1756</ele>
        <time>2013-04-13T07:40:47Z</time>
      </trkpt>
      <trkpt lat="45.22078" lon="6.02342">
        <ele>1757</ele>
        <time>2013-04-13T07:40:50Z</time>
      </trkpt>
      <trkpt lat="45.22076" lon="6.02344">
        <ele>1758.4000244</ele>
        <time>2013-04-13T07:40:53Z</time>
      </trkpt>
      <trkpt lat="45.22074" lon="6.02345">
        <ele>1758.4000244</ele>
        <time>2013-04-13T07:40:56Z</time>
      </trkpt>
      <trkpt lat="45.22071" lon="6.02347">
        <ele>1759.4000244</ele>
        <time>2013-04-13T07:40:59Z</time>
      </trkpt>
      <trkpt lat="45.22069" lon="6.02348">
        <ele>1760.4000244</ele>
        <time>2013-04-13T07:41:02Z</time>
      </trkpt>
      <trkpt lat="45.22067" lon="6.02349">
        <ele>1760.4000244</ele>
        <time>2013-04-13T07:41:05Z</time>
      </trkpt>
      <trkpt lat="45.22064" lon="6.0235">
        <ele>1761.4000244</ele>
        <time>2013-04-13T07:41:08Z</time>
      </trkpt>
      <trkpt lat="45.22061" lon="6.02351">
        <ele>1762.4000244</ele>
        <time>2013-04-13T07:41:11Z</time>
      </trkpt>
      <trkpt lat="45.22059" lon="6.02351">
        <ele>1763</ele>
        <time>2013-04-13T07:41:14Z</time>
      </trkpt>
      <trkpt lat="45.22057" lon="6.02351">
        <ele>1764</ele>
        <time>2013-04-13T07:41:17Z</time>
      </trkpt>
      <trkpt lat="45.22054" lon="6.0235">
        <ele>1764.4000244</ele>
        <time>2013-04-13T07:41:20Z</time>
      </trkpt>
      <trkpt lat="45.22052" lon="6.02349">
        <ele>1765</ele>
        <time>2013-04-13T07:41:23Z</time>
      </trkpt>
      <trkpt lat="45.2205" lon="6.02347">
        <ele>1766</ele>
        <time>2013-04-13T07:41:26Z</time>
      </trkpt>
      <trkpt lat="45.22048" lon="6.02346">
        <ele>1766.4000244</ele>
        <time>2013-04-13T07:41:29Z</time>
      </trkpt>
      <trkpt lat="45.22046" lon="6.02345">
        <ele>1767.4000244</ele>
        <time>2013-04-13T07:41:32Z</time>
      </trkpt>
      <trkpt lat="45.22043" lon="6.02344">
        <ele>1768.4000244</ele>
        <time>2013-04-13T07:41:35Z</time>
      </trkpt>
      <trkpt lat="45.2204" lon="6.02344">
        <ele>1768.8000488</ele>
        <time>2013-04-13T07:41:38Z</time>
      </trkpt>
      <trkpt lat="45.22038" lon="6.02343">
        <ele>1770</ele>
        <time>2013-04-13T07:41:41Z</time>
      </trkpt>
      <trkpt lat="45.22036" lon="6.02342">
        <ele>1770.8000488</ele>
        <time>2013-04-13T07:41:44Z</time>
      </trkpt>
      <trkpt lat="45.22033" lon="6.0234">
        <ele>1770.8000488</ele>
        <time>2013-04-13T07:41:47Z</time>
      </trkpt>
      <trkpt lat="45.22032" lon="6.02339">
        <ele>1771.4000244</ele>
        <time>2013-04-13T07:41:50Z</time>
      </trkpt>
      <trkpt lat="45.2203" lon="6.02337">
        <ele>1772.8000488</ele>
        <time>2013-04-13T07:41:53Z</time>
      </trkpt>
      <trkpt lat="45.22028" lon="6.02336">
        <ele>1772.8000488</ele>
        <time>2013-04-13T07:41:56Z</time>
      </trkpt>
      <trkpt lat="45.22026" lon="6.02334">
        <ele>1773</ele>
        <time>2013-04-13T07:41:59Z</time>
      </trkpt>
      <trkpt lat="45.22025" lon="6.02332">
        <ele>1774.4000244</ele>
        <time>2013-04-13T07:42:02Z</time>
      </trkpt>
      <trkpt lat="45.22023" lon="6.0233">
        <ele>1775</ele>
        <time>2013-04-13T07:42:05Z</time>
      </trkpt>
      <trkpt lat="45.22021" lon="6.02328">
        <ele>1776</ele>
        <time>2013-04-13T07:42:08Z</time>
      </trkpt>
      <trkpt lat="45.22019" lon="6.02326">
        <ele>1777</ele>
        <time>2013-04-13T07:42:11Z</time>
      </trkpt>
      <trkpt lat="45.22016" lon="6.02326">
        <ele>1777</ele>
        <time>2013-04-13T07:42:14Z</time>
      </trkpt>
      <trkpt lat="45.22014" lon="6.02328">
        <ele>1777</ele>
        <time>2013-04-13T07:42:17Z</time>
      </trkpt>
      <trkpt lat="45.22013" lon="6.02331">
        <ele>1777</ele>
        <time>2013-04-13T07:42:20Z</time>
      </trkpt>
      <trkpt lat="45.22011" lon="6.02333">
        <ele>1778</ele>
        <time>2013-04-13T07:42:23Z</time>
      </trkpt>
      <trkpt lat="45.2201" lon="6.02337">
        <ele>1779</ele>
        <time>2013-04-13T07:42:26Z</time>
      </trkpt>
      <trkpt lat="45.22009" lon="6.02339">
        <ele>1779</ele>
        <time>2013-04-13T07:42:29Z</time>
      </trkpt>
      <trkpt lat="45.22007" lon="6.02342">
        <ele>1780</ele>
        <time>2013-04-13T07:42:32Z</time>
      </trkpt>
      <trkpt lat="45.22006" lon="6.02345">
        <ele>1781</ele>
        <time>2013-04-13T07:42:35Z</time>
      </trkpt>
      <trkpt lat="45.22004" lon="6.02348">
        <ele>1782</ele>
        <time>2013-04-13T07:42:38Z</time>
      </trkpt>
      <trkpt lat="45.22002" lon="6.02352">
        <ele>1783</ele>
        <time>2013-04-13T07:42:41Z</time>
      </trkpt>
      <trkpt lat="45.22001" lon="6.02355">
        <ele>1783</ele>
        <time>2013-04-13T07:42:44Z</time>
      </trkpt>
      <trkpt lat="45.22" lon="6.02358">
        <ele>1783.8000488</ele>
        <time>2013-04-13T07:42:47Z</time>
      </trkpt>
      <trkpt lat="45.21999" lon="6.02362">
        <ele>1785</ele>
        <time>2013-04-13T07:42:50Z</time>
      </trkpt>
      <trkpt lat="45.21998" lon="6.02364">
        <ele>1785.4000244</ele>
        <time>2013-04-13T07:42:53Z</time>
      </trkpt>
      <trkpt lat="45.21996" lon="6.02366">
        <ele>1786.4000244</ele>
        <time>2013-04-13T07:42:56Z</time>
      </trkpt>
      <trkpt lat="45.21994" lon="6.02368">
        <ele>1787.4000244</ele>
        <time>2013-04-13T07:42:59Z</time>
      </trkpt>
      <trkpt lat="45.21992" lon="6.02371">
        <ele>1787.4000244</ele>
        <time>2013-04-13T07:43:02Z</time>
      </trkpt>
      <trkpt lat="45.21991" lon="6.02374">
        <ele>1789</ele>
        <time>2013-04-13T07:43:05Z</time>
      </trkpt>
      <trkpt lat="45.2199" lon="6.02377">
        <ele>1789.4000244</ele>
        <time>2013-04-13T07:43:08Z</time>
      </trkpt>
      <trkpt lat="45.21989" lon="6.02381">
        <ele>1789.4000244</ele>
        <time>2013-04-13T07:43:11Z</time>
      </trkpt>
      <trkpt lat="45.21989" lon="6.02384">
        <ele>1790.4000244</ele>
        <time>2013-04-13T07:43:14Z</time>
      </trkpt>
      <trkpt lat="45.21989" lon="6.02388">
        <ele>1791.4000244</ele>
        <time>2013-04-13T07:43:17Z</time>
      </trkpt>
      <trkpt lat="45.21988" lon="6.02391">
        <ele>1791.4000244</ele>
        <time>2013-04-13T07:43:20Z</time>
      </trkpt>
      <trkpt lat="45.21988" lon="6.02394">
        <ele>1792.8000488</ele>
        <time>2013-04-13T07:43:23Z</time>
      </trkpt>
      <trkpt lat="45.21988" lon="6.02396">
        <ele>1793.4000244</ele>
        <time>2013-04-13T07:43:26Z</time>
      </trkpt>
      <trkpt lat="45.21988" lon="6.02396">
        <ele>1793.4000244</ele>
        <time>2013-04-13T07:43:29Z</time>
      </trkpt>
      <trkpt lat="45.21989" lon="6.02396">
        <ele>1793.4000244</ele>
        <time>2013-04-13T07:43:32Z</time>
      </trkpt>
      <trkpt lat="45.21989" lon="6.02397">
        <ele>1793.4000244</ele>
        <time>2013-04-13T07:43:35Z</time>
      </trkpt>
      <trkpt lat="45.21989" lon="6.02396">
        <ele>1793.4000244</ele>
        <time>2013-04-13T07:43:38Z</time>
      </trkpt>
      <trkpt lat="45.21989" lon="6.02396">
        <ele>1793.4000244</ele>
        <time>2013-04-13T07:43:41Z</time>
      </trkpt>
      <trkpt lat="45.21989" lon="6.02396">
        <ele>1793.4000244</ele>
        <time>2013-04-13T07:43:44Z</time>
      </trkpt>
      <trkpt lat="45.21989" lon="6.02396">
        <ele>1793.8000488</ele>
        <time>2013-04-13T07:43:47Z</time>
      </trkpt>
      <trkpt lat="45.21989" lon="6.02396">
        <ele>1795</ele>
        <time>2013-04-13T07:43:50Z</time>
      </trkpt>
      <trkpt lat="45.21989" lon="6.02396">
        <ele>1795.8000488</ele>
        <time>2013-04-13T07:43:53Z</time>
      </trkpt>
      <trkpt lat="45.21989" lon="6.02396">
        <ele>1795.8000488</ele>
        <time>2013-04-13T07:43:56Z</time>
      </trkpt>
      <trkpt lat="45.2199" lon="6.02396">
        <ele>1795.8000488</ele>
        <time>2013-04-13T07:43:59Z</time>
      </trkpt>
      <trkpt lat="45.2199" lon="6.02396">
        <ele>1795.8000488</ele>
        <time>2013-04-13T07:44:02Z</time>
      </trkpt>
      <trkpt lat="45.2199" lon="6.02395">
        <ele>1795.8000488</ele>
        <time>2013-04-13T07:44:05Z</time>
      </trkpt>
      <trkpt lat="45.2199" lon="6.02396">
        <ele>1795.8000488</ele>
        <time>2013-04-13T07:44:08Z</time>
      </trkpt>
      <trkpt lat="45.2199" lon="6.02396">
        <ele>1795.8000488</ele>
        <time>2013-04-13T07:44:11Z</time>
      </trkpt>
      <trkpt lat="45.2199" lon="6.02396">
        <ele>1795.8000488</ele>
        <time>2013-04-13T07:44:14Z</time>
      </trkpt>
      <trkpt lat="45.2199" lon="6.02396">
        <ele>1795.8000488</ele>
        <time>2013-04-13T07:44:17Z</time>
      </trkpt>
      <trkpt lat="45.2199" lon="6.02396">
        <ele>1795.8000488</ele>
        <time>2013-04-13T07:44:20Z</time>
      </trkpt>
      <trkpt lat="45.2199" lon="6.02396">
        <ele>1795.8000488</ele>
        <time>2013-04-13T07:44:23Z</time>
      </trkpt>
      <trkpt lat="45.2199" lon="6.02396">
        <ele>1795.8000488</ele>
        <time>2013-04-13T07:44:26Z</time>
      </trkpt>
      <trkpt lat="45.2199" lon="6.02396">
        <ele>1795.8000488</ele>
        <time>2013-04-13T07:44:29Z</time>
      </trkpt>
      <trkpt lat="45.2199" lon="6.02397">
        <ele>1795.8000488</ele>
        <time>2013-04-13T07:44:32Z</time>
      </trkpt>
      <trkpt lat="45.2199" lon="6.02396">
        <ele>1795.8000488</ele>
        <time>2013-04-13T07:44:35Z</time>
      </trkpt>
      <trkpt lat="45.21988" lon="6.02398">
        <ele>1795.8000488</ele>
        <time>2013-04-13T07:44:38Z</time>
      </trkpt>
      <trkpt lat="45.21984" lon="6.02401">
        <ele>1795.8000488</ele>
        <time>2013-04-13T07:44:41Z</time>
      </trkpt>
      <trkpt lat="45.21979" lon="6.02402">
        <ele>1795.8000488</ele>
        <time>2013-04-13T07:44:44Z</time>
      </trkpt>
      <trkpt lat="45.21976" lon="6.02401">
        <ele>1795.8000488</ele>
        <time>2013-04-13T07:44:47Z</time>
      </trkpt>
      <trkpt lat="45.21973" lon="6.02399">
        <ele>1795.8000488</ele>
        <time>2013-04-13T07:44:50Z</time>
      </trkpt>
      <trkpt lat="45.2197" lon="6.02397">
        <ele>1796.8000488</ele>
        <time>2013-04-13T07:44:53Z</time>
      </trkpt>
      <trkpt lat="45.21968" lon="6.02394">
        <ele>1797.8000488</ele>
        <time>2013-04-13T07:44:56Z</time>
      </trkpt>
      <trkpt lat="45.21966" lon="6.02391">
        <ele>1798.4000244</ele>
        <time>2013-04-13T07:44:59Z</time>
      </trkpt>
      <trkpt lat="45.21963" lon="6.0239">
        <ele>1799.4000244</ele>
        <time>2013-04-13T07:45:02Z</time>
      </trkpt>
      <trkpt lat="45.21962" lon="6.0239">
        <ele>1800</ele>
        <time>2013-04-13T07:45:05Z</time>
      </trkpt>
      <trkpt lat="45.2196" lon="6.02389">
        <ele>1800.4000244</ele>
        <time>2013-04-13T07:45:08Z</time>
      </trkpt>
      <trkpt lat="45.21958" lon="6.02387">
        <ele>1801</ele>
        <time>2013-04-13T07:45:11Z</time>
      </trkpt>
      <trkpt lat="45.21955" lon="6.02385">
        <ele>1802</ele>
        <time>2013-04-13T07:45:14Z</time>
      </trkpt>
      <trkpt lat="45.21953" lon="6.02382">
        <ele>1802.8000488</ele>
        <time>2013-04-13T07:45:17Z</time>
      </trkpt>
      <trkpt lat="45.21951" lon="6.02379">
        <ele>1804</ele>
        <time>2013-04-13T07:45:20Z</time>
      </trkpt>
      <trkpt lat="45.21949" lon="6.02376">
        <ele>1804</ele>
        <time>2013-04-13T07:45:23Z</time>
      </trkpt>
      <trkpt lat="45.21947" lon="6.02372">
        <ele>1804</ele>
        <time>2013-04-13T07:45:26Z</time>
      </trkpt>
      <trkpt lat="45.21946" lon="6.02369">
        <ele>1804.4000244</ele>
        <time>2013-04-13T07:45:29Z</time>
      </trkpt>
      <trkpt lat="45.21945" lon="6.02365">
        <ele>1805.8000488</ele>
        <time>2013-04-13T07:45:32Z</time>
      </trkpt>
      <trkpt lat="45.21944" lon="6.02362">
        <ele>1806.4000244</ele>
        <time>2013-04-13T07:45:35Z</time>
      </trkpt>
      <trkpt lat="45.21943" lon="6.02358">
        <ele>1806.8000488</ele>
        <time>2013-04-13T07:45:38Z</time>
      </trkpt>
      <trkpt lat="45.21942" lon="6.02355">
        <ele>1808</ele>
        <time>2013-04-13T07:45:41Z</time>
      </trkpt>
      <trkpt lat="45.21942" lon="6.02351">
        <ele>1808.4000244</ele>
        <time>2013-04-13T07:45:44Z</time>
      </trkpt>
      <trkpt lat="45.21943" lon="6.02347">
        <ele>1809</ele>
        <time>2013-04-13T07:45:47Z</time>
      </trkpt>
      <trkpt lat="45.21943" lon="6.02344">
        <ele>1810.4000244</ele>
        <time>2013-04-13T07:45:50Z</time>
      </trkpt>
      <trkpt lat="45.21943" lon="6.02345">
        <ele>1811.4000244</ele>
        <time>2013-04-13T07:45:53Z</time>
      </trkpt>
      <trkpt lat="45.21942" lon="6.02345">
        <ele>1812.4000244</ele>
        <time>2013-04-13T07:45:56Z</time>
      </trkpt>
      <trkpt lat="45.21943" lon="6.02345">
        <ele>1812.4000244</ele>
        <time>2013-04-13T07:45:59Z</time>
      </trkpt>
      <trkpt lat="45.21943" lon="6.02345">
        <ele>1812.4000244</ele>
        <time>2013-04-13T07:46:02Z</time>
      </trkpt>
      <trkpt lat="45.21943" lon="6.02344">
        <ele>1812.4000244</ele>
        <time>2013-04-13T07:46:05Z</time>
      </trkpt>
      <trkpt lat="45.21943" lon="6.02343">
        <ele>1812.4000244</ele>
        <time>2013-04-13T07:46:08Z</time>
      </trkpt>
      <trkpt lat="45.21942" lon="6.0234">
        <ele>1812.4000244</ele>
        <time>2013-04-13T07:46:11Z</time>
      </trkpt>
      <trkpt lat="45.21941" lon="6.02337">
        <ele>1812.4000244</ele>
        <time>2013-04-13T07:46:14Z</time>
      </trkpt>
      <trkpt lat="45.2194" lon="6.02334">
        <ele>1813</ele>
        <time>2013-04-13T07:46:17Z</time>
      </trkpt>
      <trkpt lat="45.21939" lon="6.0233">
        <ele>1814</ele>
        <time>2013-04-13T07:46:20Z</time>
      </trkpt>
      <trkpt lat="45.21937" lon="6.02328">
        <ele>1814.8000488</ele>
        <time>2013-04-13T07:46:23Z</time>
      </trkpt>
      <trkpt lat="45.21936" lon="6.02325">
        <ele>1816</ele>
        <time>2013-04-13T07:46:26Z</time>
      </trkpt>
      <trkpt lat="45.21935" lon="6.02322">
        <ele>1816.4000244</ele>
        <time>2013-04-13T07:46:29Z</time>
      </trkpt>
      <trkpt lat="45.21934" lon="6.02319">
        <ele>1817.4000244</ele>
        <time>2013-04-13T07:46:32Z</time>
      </trkpt>
      <trkpt lat="45.21933" lon="6.02317">
        <ele>1818.4000244</ele>
        <time>2013-04-13T07:46:35Z</time>
      </trkpt>
      <trkpt lat="45.21931" lon="6.02315">
        <ele>1818.8000488</ele>
        <time>2013-04-13T07:46:38Z</time>
      </trkpt>
      <trkpt lat="45.2193" lon="6.02314">
        <ele>1818.8000488</ele>
        <time>2013-04-13T07:46:41Z</time>
      </trkpt>
      <trkpt lat="45.21928" lon="6.02311">
        <ele>1820</ele>
        <time>2013-04-13T07:46:44Z</time>
      </trkpt>
      <trkpt lat="45.21927" lon="6.02309">
        <ele>1821</ele>
        <time>2013-04-13T07:46:47Z</time>
      </trkpt>
      <trkpt lat="45.21926" lon="6.02306">
        <ele>1822</ele>
        <time>2013-04-13T07:46:50Z</time>
      </trkpt>
      <trkpt lat="45.21925" lon="6.02303">
        <ele>1822.8000488</ele>
        <time>2013-04-13T07:46:53Z</time>
      </trkpt>
      <trkpt lat="45.21923" lon="6.023">
        <ele>1823</ele>
        <time>2013-04-13T07:46:56Z</time>
      </trkpt>
      <trkpt lat="45.21922" lon="6.02298">
        <ele>1824</ele>
        <time>2013-04-13T07:46:59Z</time>
      </trkpt>
      <trkpt lat="45.2192" lon="6.02295">
        <ele>1824.8000488</ele>
        <time>2013-04-13T07:47:02Z</time>
      </trkpt>
      <trkpt lat="45.21919" lon="6.02292">
        <ele>1825</ele>
        <time>2013-04-13T07:47:05Z</time>
      </trkpt>
      <trkpt lat="45.21917" lon="6.02289">
        <ele>1826.4000244</ele>
        <time>2013-04-13T07:47:08Z</time>
      </trkpt>
      <trkpt lat="45.21916" lon="6.02289">
        <ele>1827</ele>
        <time>2013-04-13T07:47:11Z</time>
      </trkpt>
      <trkpt lat="45.21915" lon="6.02291">
        <ele>1828</ele>
        <time>2013-04-13T07:47:14Z</time>
      </trkpt>
      <trkpt lat="45.21914" lon="6.02293">
        <ele>1829</ele>
        <time>2013-04-13T07:47:17Z</time>
      </trkpt>
      <trkpt lat="45.21912" lon="6.02296">
        <ele>1829</ele>
        <time>2013-04-13T07:47:20Z</time>
      </trkpt>
      <trkpt lat="45.21911" lon="6.02298">
        <ele>1829.4000244</ele>
        <time>2013-04-13T07:47:23Z</time>
      </trkpt>
      <trkpt lat="45.2191" lon="6.023">
        <ele>1830.4000244</ele>
        <time>2013-04-13T07:47:26Z</time>
      </trkpt>
      <trkpt lat="45.21909" lon="6.02303">
        <ele>1831</ele>
        <time>2013-04-13T07:47:29Z</time>
      </trkpt>
      <trkpt lat="45.21908" lon="6.02305">
        <ele>1832.4000244</ele>
        <time>2013-04-13T07:47:32Z</time>
      </trkpt>
      <trkpt lat="45.21907" lon="6.02307">
        <ele>1833</ele>
        <time>2013-04-13T07:47:35Z</time>
      </trkpt>
      <trkpt lat="45.21906" lon="6.0231">
        <ele>1833.4000244</ele>
        <time>2013-04-13T07:47:38Z</time>
      </trkpt>
      <trkpt lat="45.21905" lon="6.02313">
        <ele>1834.4000244</ele>
        <time>2013-04-13T07:47:41Z</time>
      </trkpt>
      <trkpt lat="45.21903" lon="6.02317">
        <ele>1835</ele>
        <time>2013-04-13T07:47:44Z</time>
      </trkpt>
      <trkpt lat="45.21902" lon="6.02319">
        <ele>1836</ele>
        <time>2013-04-13T07:47:47Z</time>
      </trkpt>
      <trkpt lat="45.21901" lon="6.02322">
        <ele>1837</ele>
        <time>2013-04-13T07:47:50Z</time>
      </trkpt>
      <trkpt lat="45.219" lon="6.02325">
        <ele>1838.4000244</ele>
        <time>2013-04-13T07:47:53Z</time>
      </trkpt>
      <trkpt lat="45.21898" lon="6.02328">
        <ele>1839.4000244</ele>
        <time>2013-04-13T07:47:56Z</time>
      </trkpt>
      <trkpt lat="45.21896" lon="6.0233">
        <ele>1839.4000244</ele>
        <time>2013-04-13T07:47:59Z</time>
      </trkpt>
      <trkpt lat="45.21894" lon="6.02333">
        <ele>1839.4000244</ele>
        <time>2013-04-13T07:48:02Z</time>
      </trkpt>
      <trkpt lat="45.21892" lon="6.02335">
        <ele>1840.4000244</ele>
        <time>2013-04-13T07:48:05Z</time>
      </trkpt>
      <trkpt lat="45.2189" lon="6.02338">
        <ele>1841.4000244</ele>
        <time>2013-04-13T07:48:08Z</time>
      </trkpt>
      <trkpt lat="45.21888" lon="6.0234">
        <ele>1841.4000244</ele>
        <time>2013-04-13T07:48:11Z</time>
      </trkpt>
      <trkpt lat="45.21886" lon="6.02343">
        <ele>1842.8000488</ele>
        <time>2013-04-13T07:48:14Z</time>
      </trkpt>
      <trkpt lat="45.21884" lon="6.02345">
        <ele>1843.8000488</ele>
        <time>2013-04-13T07:48:17Z</time>
      </trkpt>
      <trkpt lat="45.21881" lon="6.02348">
        <ele>1843.8000488</ele>
        <time>2013-04-13T07:48:20Z</time>
      </trkpt>
      <trkpt lat="45.21879" lon="6.02351">
        <ele>1843.8000488</ele>
        <time>2013-04-13T07:48:23Z</time>
      </trkpt>
      <trkpt lat="45.21876" lon="6.02353">
        <ele>1844.4000244</ele>
        <time>2013-04-13T07:48:26Z</time>
      </trkpt>
      <trkpt lat="45.21875" lon="6.02357">
        <ele>1845.4000244</ele>
        <time>2013-04-13T07:48:29Z</time>
      </trkpt>
      <trkpt lat="45.21873" lon="6.0236">
        <ele>1845.8000488</ele>
        <time>2013-04-13T07:48:32Z</time>
      </trkpt>
      <trkpt lat="45.21872" lon="6.02363">
        <ele>1846.8000488</ele>
        <time>2013-04-13T07:48:35Z</time>
      </trkpt>
      <trkpt lat="45.2187" lon="6.02367">
        <ele>1847.8000488</ele>
        <time>2013-04-13T07:48:38Z</time>
      </trkpt>
      <trkpt lat="45.21869" lon="6.0237">
        <ele>1847.8000488</ele>
        <time>2013-04-13T07:48:41Z</time>
      </trkpt>
      <trkpt lat="45.21868" lon="6.02375">
        <ele>1848.4000244</ele>
        <time>2013-04-13T07:48:44Z</time>
      </trkpt>
      <trkpt lat="45.21868" lon="6.02378">
        <ele>1849.4000244</ele>
        <time>2013-04-13T07:48:47Z</time>
      </trkpt>
      <trkpt lat="45.21868" lon="6.02382">
        <ele>1850</ele>
        <time>2013-04-13T07:48:50Z</time>
      </trkpt>
      <trkpt lat="45.21867" lon="6.02386">
        <ele>1851</ele>
        <time>2013-04-13T07:48:53Z</time>
      </trkpt>
      <trkpt lat="45.21867" lon="6.0239">
        <ele>1852</ele>
        <time>2013-04-13T07:48:56Z</time>
      </trkpt>
      <trkpt lat="45.21868" lon="6.02393">
        <ele>1852</ele>
        <time>2013-04-13T07:48:59Z</time>
      </trkpt>
      <trkpt lat="45.21868" lon="6.02397">
        <ele>1853</ele>
        <time>2013-04-13T07:49:02Z</time>
      </trkpt>
      <trkpt lat="45.21868" lon="6.024">
        <ele>1854</ele>
        <time>2013-04-13T07:49:05Z</time>
      </trkpt>
      <trkpt lat="45.21869" lon="6.02404">
        <ele>1854</ele>
        <time>2013-04-13T07:49:08Z</time>
      </trkpt>
      <trkpt lat="45.21868" lon="6.02406">
        <ele>1854.4000244</ele>
        <time>2013-04-13T07:49:11Z</time>
      </trkpt>
      <trkpt lat="45.21868" lon="6.02411">
        <ele>1855.4000244</ele>
        <time>2013-04-13T07:49:14Z</time>
      </trkpt>
      <trkpt lat="45.21868" lon="6.02414">
        <ele>1856</ele>
        <time>2013-04-13T07:49:17Z</time>
      </trkpt>
      <trkpt lat="45.21868" lon="6.02418">
        <ele>1857</ele>
        <time>2013-04-13T07:49:20Z</time>
      </trkpt>
      <trkpt lat="45.21868" lon="6.02421">
        <ele>1858</ele>
        <time>2013-04-13T07:49:23Z</time>
      </trkpt>
      <trkpt lat="45.21868" lon="6.02422">
        <ele>1858.4000244</ele>
        <time>2013-04-13T07:49:26Z</time>
      </trkpt>
      <trkpt lat="45.21867" lon="6.02421">
        <ele>1859.4000244</ele>
        <time>2013-04-13T07:49:29Z</time>
      </trkpt>
      <trkpt lat="45.21865" lon="6.02418">
        <ele>1860</ele>
        <time>2013-04-13T07:49:32Z</time>
      </trkpt>
      <trkpt lat="45.21863" lon="6.02416">
        <ele>1860</ele>
        <time>2013-04-13T07:49:35Z</time>
      </trkpt>
      <trkpt lat="45.21861" lon="6.02414">
        <ele>1860.4000244</ele>
        <time>2013-04-13T07:49:38Z</time>
      </trkpt>
      <trkpt lat="45.2186" lon="6.02414">
        <ele>1861.8000488</ele>
        <time>2013-04-13T07:49:41Z</time>
      </trkpt>
      <trkpt lat="45.2186" lon="6.02418">
        <ele>1862</ele>
        <time>2013-04-13T07:49:44Z</time>
      </trkpt>
      <trkpt lat="45.21861" lon="6.02422">
        <ele>1862</ele>
        <time>2013-04-13T07:49:47Z</time>
      </trkpt>
      <trkpt lat="45.21862" lon="6.02425">
        <ele>1863.4000244</ele>
        <time>2013-04-13T07:49:50Z</time>
      </trkpt>
      <trkpt lat="45.21862" lon="6.02429">
        <ele>1864.4000244</ele>
        <time>2013-04-13T07:49:53Z</time>
      </trkpt>
      <trkpt lat="45.21862" lon="6.0243">
        <ele>1864.4000244</ele>
        <time>2013-04-13T07:49:56Z</time>
      </trkpt>
      <trkpt lat="45.21861" lon="6.02428">
        <ele>1864.4000244</ele>
        <time>2013-04-13T07:49:59Z</time>
      </trkpt>
      <trkpt lat="45.21859" lon="6.02425">
        <ele>1864.4000244</ele>
        <time>2013-04-13T07:50:02Z</time>
      </trkpt>
      <trkpt lat="45.21857" lon="6.02423">
        <ele>1865.8000488</ele>
        <time>2013-04-13T07:50:05Z</time>
      </trkpt>
      <trkpt lat="45.21855" lon="6.02421">
        <ele>1866.4000244</ele>
        <time>2013-04-13T07:50:08Z</time>
      </trkpt>
      <trkpt lat="45.21853" lon="6.02419">
        <ele>1866.4000244</ele>
        <time>2013-04-13T07:50:11Z</time>
      </trkpt>
      <trkpt lat="45.21851" lon="6.02417">
        <ele>1867</ele>
        <time>2013-04-13T07:50:14Z</time>
      </trkpt>
      <trkpt lat="45.21849" lon="6.02415">
        <ele>1868</ele>
        <time>2013-04-13T07:50:17Z</time>
      </trkpt>
      <trkpt lat="45.21847" lon="6.02412">
        <ele>1868.8000488</ele>
        <time>2013-04-13T07:50:20Z</time>
      </trkpt>
      <trkpt lat="45.21846" lon="6.02411">
        <ele>1868.8000488</ele>
        <time>2013-04-13T07:50:23Z</time>
      </trkpt>
      <trkpt lat="45.21845" lon="6.02412">
        <ele>1869.8000488</ele>
        <time>2013-04-13T07:50:26Z</time>
      </trkpt>
      <trkpt lat="45.21846" lon="6.02415">
        <ele>1870.8000488</ele>
        <time>2013-04-13T07:50:29Z</time>
      </trkpt>
      <trkpt lat="45.21847" lon="6.02418">
        <ele>1870.8000488</ele>
        <time>2013-04-13T07:50:32Z</time>
      </trkpt>
      <trkpt lat="45.21847" lon="6.02418">
        <ele>1871.8000488</ele>
        <time>2013-04-13T07:50:35Z</time>
      </trkpt>
      <trkpt lat="45.21848" lon="6.02419">
        <ele>1872.8000488</ele>
        <time>2013-04-13T07:50:38Z</time>
      </trkpt>
      <trkpt lat="45.21848" lon="6.02419">
        <ele>1872.8000488</ele>
        <time>2013-04-13T07:50:41Z</time>
      </trkpt>
      <trkpt lat="45.21848" lon="6.02421">
        <ele>1872.8000488</ele>
        <time>2013-04-13T07:50:44Z</time>
      </trkpt>
      <trkpt lat="45.21849" lon="6.02424">
        <ele>1872.8000488</ele>
        <time>2013-04-13T07:50:47Z</time>
      </trkpt>
      <trkpt lat="45.2185" lon="6.02429">
        <ele>1872.8000488</ele>
        <time>2013-04-13T07:50:50Z</time>
      </trkpt>
      <trkpt lat="45.2185" lon="6.02433">
        <ele>1872.8000488</ele>
        <time>2013-04-13T07:50:53Z</time>
      </trkpt>
      <trkpt lat="45.21851" lon="6.02436">
        <ele>1873.8000488</ele>
        <time>2013-04-13T07:50:56Z</time>
      </trkpt>
      <trkpt lat="45.21852" lon="6.0244">
        <ele>1874.8000488</ele>
        <time>2013-04-13T07:50:59Z</time>
      </trkpt>
      <trkpt lat="45.21853" lon="6.02444">
        <ele>1875</ele>
        <time>2013-04-13T07:51:02Z</time>
      </trkpt>
      <trkpt lat="45.21854" lon="6.02446">
        <ele>1875.8000488</ele>
        <time>2013-04-13T07:51:05Z</time>
      </trkpt>
      <trkpt lat="45.21855" lon="6.02451">
        <ele>1877</ele>
        <time>2013-04-13T07:51:08Z</time>
      </trkpt>
      <trkpt lat="45.21856" lon="6.02454">
        <ele>1877</ele>
        <time>2013-04-13T07:51:11Z</time>
      </trkpt>
      <trkpt lat="45.21857" lon="6.02457">
        <ele>1878</ele>
        <time>2013-04-13T07:51:14Z</time>
      </trkpt>
      <trkpt lat="45.21858" lon="6.02461">
        <ele>1879</ele>
        <time>2013-04-13T07:51:17Z</time>
      </trkpt>
      <trkpt lat="45.21859" lon="6.02464">
        <ele>1880</ele>
        <time>2013-04-13T07:51:20Z</time>
      </trkpt>
      <trkpt lat="45.2186" lon="6.02467">
        <ele>1881</ele>
        <time>2013-04-13T07:51:23Z</time>
      </trkpt>
      <trkpt lat="45.21861" lon="6.02471">
        <ele>1881</ele>
        <time>2013-04-13T07:51:26Z</time>
      </trkpt>
      <trkpt lat="45.21861" lon="6.02473">
        <ele>1881.4000244</ele>
        <time>2013-04-13T07:51:29Z</time>
      </trkpt>
      <trkpt lat="45.21862" lon="6.02476">
        <ele>1882.8000488</ele>
        <time>2013-04-13T07:51:32Z</time>
      </trkpt>
      <trkpt lat="45.21863" lon="6.02478">
        <ele>1883</ele>
        <time>2013-04-13T07:51:35Z</time>
      </trkpt>
      <trkpt lat="45.21864" lon="6.02482">
        <ele>1883.4000244</ele>
        <time>2013-04-13T07:51:38Z</time>
      </trkpt>
      <trkpt lat="45.21864" lon="6.02484">
        <ele>1884.4000244</ele>
        <time>2013-04-13T07:51:41Z</time>
      </trkpt>
      <trkpt lat="45.21865" lon="6.02487">
        <ele>1885.4000244</ele>
        <time>2013-04-13T07:51:44Z</time>
      </trkpt>
      <trkpt lat="45.21866" lon="6.02489">
        <ele>1885.8000488</ele>
        <time>2013-04-13T07:51:47Z</time>
      </trkpt>
      <trkpt lat="45.21866" lon="6.02492">
        <ele>1886.8000488</ele>
        <time>2013-04-13T07:51:50Z</time>
      </trkpt>
      <trkpt lat="45.21866" lon="6.02495">
        <ele>1887.4000244</ele>
        <time>2013-04-13T07:51:53Z</time>
      </trkpt>
      <trkpt lat="45.21866" lon="6.02495">
        <ele>1888</ele>
        <time>2013-04-13T07:51:56Z</time>
      </trkpt>
      <trkpt lat="45.21867" lon="6.02494">
        <ele>1889</ele>
        <time>2013-04-13T07:51:59Z</time>
      </trkpt>
      <trkpt lat="45.21866" lon="6.02494">
        <ele>1889.4000244</ele>
        <time>2013-04-13T07:52:02Z</time>
      </trkpt>
      <trkpt lat="45.21866" lon="6.02494">
        <ele>1889.4000244</ele>
        <time>2013-04-13T07:52:05Z</time>
      </trkpt>
      <trkpt lat="45.21866" lon="6.02495">
        <ele>1889.4000244</ele>
        <time>2013-04-13T07:52:08Z</time>
      </trkpt>
      <trkpt lat="45.21867" lon="6.02495">
        <ele>1889.4000244</ele>
        <time>2013-04-13T07:52:11Z</time>
      </trkpt>
      <trkpt lat="45.21867" lon="6.02495">
        <ele>1889.4000244</ele>
        <time>2013-04-13T07:52:14Z</time>
      </trkpt>
      <trkpt lat="45.21867" lon="6.02495">
        <ele>1889.4000244</ele>
        <time>2013-04-13T07:52:17Z</time>
      </trkpt>
      <trkpt lat="45.21867" lon="6.025">
        <ele>1889.4000244</ele>
        <time>2013-04-13T07:52:20Z</time>
      </trkpt>
      <trkpt lat="45.21867" lon="6.02503">
        <ele>1889.4000244</ele>
        <time>2013-04-13T07:52:23Z</time>
      </trkpt>
      <trkpt lat="45.21867" lon="6.02508">
        <ele>1889.4000244</ele>
        <time>2013-04-13T07:52:26Z</time>
      </trkpt>
      <trkpt lat="45.21867" lon="6.02511">
        <ele>1890.4000244</ele>
        <time>2013-04-13T07:52:29Z</time>
      </trkpt>
      <trkpt lat="45.21867" lon="6.02514">
        <ele>1891.4000244</ele>
        <time>2013-04-13T07:52:32Z</time>
      </trkpt>
      <trkpt lat="45.21868" lon="6.02517">
        <ele>1892</ele>
        <time>2013-04-13T07:52:35Z</time>
      </trkpt>
      <trkpt lat="45.21868" lon="6.02521">
        <ele>1893</ele>
        <time>2013-04-13T07:52:38Z</time>
      </trkpt>
      <trkpt lat="45.21868" lon="6.02524">
        <ele>1893.4000244</ele>
        <time>2013-04-13T07:52:41Z</time>
      </trkpt>
      <trkpt lat="45.21867" lon="6.02528">
        <ele>1894.4000244</ele>
        <time>2013-04-13T07:52:44Z</time>
      </trkpt>
      <trkpt lat="45.21867" lon="6.02531">
        <ele>1895.4000244</ele>
        <time>2013-04-13T07:52:47Z</time>
      </trkpt>
      <trkpt lat="45.21867" lon="6.02531">
        <ele>1896.4000244</ele>
        <time>2013-04-13T07:52:50Z</time>
      </trkpt>
      <trkpt lat="45.21866" lon="6.0253">
        <ele>1897.4000244</ele>
        <time>2013-04-13T07:52:53Z</time>
      </trkpt>
      <trkpt lat="45.21864" lon="6.02528">
        <ele>1897.8000488</ele>
        <time>2013-04-13T07:52:56Z</time>
      </trkpt>
      <trkpt lat="45.21862" lon="6.02526">
        <ele>1897.8000488</ele>
        <time>2013-04-13T07:52:59Z</time>
      </trkpt>
      <trkpt lat="45.2186" lon="6.02524">
        <ele>1898.4000244</ele>
        <time>2013-04-13T07:53:02Z</time>
      </trkpt>
      <trkpt lat="45.21858" lon="6.02522">
        <ele>1899</ele>
        <time>2013-04-13T07:53:05Z</time>
      </trkpt>
      <trkpt lat="45.21856" lon="6.02522">
        <ele>1899.8000488</ele>
        <time>2013-04-13T07:53:08Z</time>
      </trkpt>
      <trkpt lat="45.21856" lon="6.02524">
        <ele>1900.4000244</ele>
        <time>2013-04-13T07:53:11Z</time>
      </trkpt>
      <trkpt lat="45.21856" lon="6.02528">
        <ele>1901.8000488</ele>
        <time>2013-04-13T07:53:14Z</time>
      </trkpt>
      <trkpt lat="45.21856" lon="6.02531">
        <ele>1901.8000488</ele>
        <time>2013-04-13T07:53:17Z</time>
      </trkpt>
      <trkpt lat="45.21857" lon="6.02534">
        <ele>1901.8000488</ele>
        <time>2013-04-13T07:53:20Z</time>
      </trkpt>
      <trkpt lat="45.21857" lon="6.02537">
        <ele>1902.4000244</ele>
        <time>2013-04-13T07:53:23Z</time>
      </trkpt>
      <trkpt lat="45.21857" lon="6.02541">
        <ele>1903.4000244</ele>
        <time>2013-04-13T07:53:26Z</time>
      </trkpt>
      <trkpt lat="45.21857" lon="6.02544">
        <ele>1904</ele>
        <time>2013-04-13T07:53:29Z</time>
      </trkpt>
      <trkpt lat="45.21857" lon="6.02548">
        <ele>1905</ele>
        <time>2013-04-13T07:53:32Z</time>
      </trkpt>
      <trkpt lat="45.21857" lon="6.02551">
        <ele>1906</ele>
        <time>2013-04-13T07:53:35Z</time>
      </trkpt>
      <trkpt lat="45.21857" lon="6.0255">
        <ele>1906.4000244</ele>
        <time>2013-04-13T07:53:38Z</time>
      </trkpt>
      <trkpt lat="45.21857" lon="6.0255">
        <ele>1907.4000244</ele>
        <time>2013-04-13T07:53:41Z</time>
      </trkpt>
      <trkpt lat="45.21854" lon="6.02548">
        <ele>1908</ele>
        <time>2013-04-13T07:53:44Z</time>
      </trkpt>
      <trkpt lat="45.21852" lon="6.02546">
        <ele>1908</ele>
        <time>2013-04-13T07:53:47Z</time>
      </trkpt>
      <trkpt lat="45.2185" lon="6.02544">
        <ele>1908.4000244</ele>
        <time>2013-04-13T07:53:50Z</time>
      </trkpt>
      <trkpt lat="45.21848" lon="6.02543">
        <ele>1909.4000244</ele>
        <time>2013-04-13T07:53:53Z</time>
      </trkpt>
      <trkpt lat="45.21847" lon="6.02546">
        <ele>1910.4000244</ele>
        <time>2013-04-13T07:53:56Z</time>
      </trkpt>
      <trkpt lat="45.21847" lon="6.02549">
        <ele>1910.4000244</ele>
        <time>2013-04-13T07:53:59Z</time>
      </trkpt>
      <trkpt lat="45.21848" lon="6.02554">
        <ele>1910.8000488</ele>
        <time>2013-04-13T07:54:02Z</time>
      </trkpt>
      <trkpt lat="45.21849" lon="6.02556">
        <ele>1911.8000488</ele>
        <time>2013-04-13T07:54:05Z</time>
      </trkpt>
      <trkpt lat="45.21849" lon="6.02556">
        <ele>1912.4000244</ele>
        <time>2013-04-13T07:54:08Z</time>
      </trkpt>
      <trkpt lat="45.21847" lon="6.02554">
        <ele>1913</ele>
        <time>2013-04-13T07:54:11Z</time>
      </trkpt>
      <trkpt lat="45.21845" lon="6.02551">
        <ele>1914.4000244</ele>
        <time>2013-04-13T07:54:14Z</time>
      </trkpt>
      <trkpt lat="45.21844" lon="6.02552">
        <ele>1914.4000244</ele>
        <time>2013-04-13T07:54:17Z</time>
      </trkpt>
      <trkpt lat="45.21845" lon="6.02556">
        <ele>1914.4000244</ele>
        <time>2013-04-13T07:54:20Z</time>
      </trkpt>
      <trkpt lat="45.21847" lon="6.0256">
        <ele>1914.8000488</ele>
        <time>2013-04-13T07:54:23Z</time>
      </trkpt>
      <trkpt lat="45.21847" lon="6.02564">
        <ele>1916</ele>
        <time>2013-04-13T07:54:26Z</time>
      </trkpt>
      <trkpt lat="45.21848" lon="6.02567">
        <ele>1916.4000244</ele>
        <time>2013-04-13T07:54:29Z</time>
      </trkpt>
      <trkpt lat="45.21849" lon="6.0257">
        <ele>1916.4000244</ele>
        <time>2013-04-13T07:54:32Z</time>
      </trkpt>
      <trkpt lat="45.2185" lon="6.02572">
        <ele>1917</ele>
        <time>2013-04-13T07:54:35Z</time>
      </trkpt>
      <trkpt lat="45.2185" lon="6.02577">
        <ele>1918.4000244</ele>
        <time>2013-04-13T07:54:38Z</time>
      </trkpt>
      <trkpt lat="45.2185" lon="6.0258">
        <ele>1918.8000488</ele>
        <time>2013-04-13T07:54:41Z</time>
      </trkpt>
      <trkpt lat="45.2185" lon="6.02584">
        <ele>1918.8000488</ele>
        <time>2013-04-13T07:54:44Z</time>
      </trkpt>
      <trkpt lat="45.21849" lon="6.02588">
        <ele>1919.8000488</ele>
        <time>2013-04-13T07:54:47Z</time>
      </trkpt>
      <trkpt lat="45.21849" lon="6.02591">
        <ele>1920.8000488</ele>
        <time>2013-04-13T07:54:50Z</time>
      </trkpt>
      <trkpt lat="45.21849" lon="6.02591">
        <ele>1920.8000488</ele>
        <time>2013-04-13T07:54:53Z</time>
      </trkpt>
      <trkpt lat="45.21849" lon="6.02592">
        <ele>1920.8000488</ele>
        <time>2013-04-13T07:54:56Z</time>
      </trkpt>
      <trkpt lat="45.2185" lon="6.02592">
        <ele>1920.8000488</ele>
        <time>2013-04-13T07:54:59Z</time>
      </trkpt>
      <trkpt lat="45.2185" lon="6.02592">
        <ele>1920.8000488</ele>
        <time>2013-04-13T07:55:02Z</time>
      </trkpt>
      <trkpt lat="45.2185" lon="6.02592">
        <ele>1920.8000488</ele>
        <time>2013-04-13T07:55:05Z</time>
      </trkpt>
      <trkpt lat="45.2185" lon="6.02592">
        <ele>1920.8000488</ele>
        <time>2013-04-13T07:55:08Z</time>
      </trkpt>
      <trkpt lat="45.2185" lon="6.02592">
        <ele>1920.8000488</ele>
        <time>2013-04-13T07:55:11Z</time>
      </trkpt>
      <trkpt lat="45.2185" lon="6.02592">
        <ele>1920.8000488</ele>
        <time>2013-04-13T07:55:14Z</time>
      </trkpt>
      <trkpt lat="45.2185" lon="6.02592">
        <ele>1920.8000488</ele>
        <time>2013-04-13T07:55:17Z</time>
      </trkpt>
      <trkpt lat="45.2185" lon="6.02591">
        <ele>1920.8000488</ele>
        <time>2013-04-13T07:55:20Z</time>
      </trkpt>
      <trkpt lat="45.2185" lon="6.02591">
        <ele>1920.8000488</ele>
        <time>2013-04-13T07:55:23Z</time>
      </trkpt>
      <trkpt lat="45.21849" lon="6.02591">
        <ele>1920.8000488</ele>
        <time>2013-04-13T07:55:26Z</time>
      </trkpt>
      <trkpt lat="45.21849" lon="6.02591">
        <ele>1920.8000488</ele>
        <time>2013-04-13T07:55:29Z</time>
      </trkpt>
      <trkpt lat="45.21849" lon="6.02591">
        <ele>1920.8000488</ele>
        <time>2013-04-13T07:55:32Z</time>
      </trkpt>
      <trkpt lat="45.2185" lon="6.02591">
        <ele>1920.8000488</ele>
        <time>2013-04-13T07:55:35Z</time>
      </trkpt>
      <trkpt lat="45.21849" lon="6.02591">
        <ele>1920.8000488</ele>
        <time>2013-04-13T07:55:38Z</time>
      </trkpt>
      <trkpt lat="45.21849" lon="6.02591">
        <ele>1920.8000488</ele>
        <time>2013-04-13T07:55:41Z</time>
      </trkpt>
      <trkpt lat="45.2185" lon="6.02591">
        <ele>1920.8000488</ele>
        <time>2013-04-13T07:55:44Z</time>
      </trkpt>
      <trkpt lat="45.21849" lon="6.02591">
        <ele>1920.8000488</ele>
        <time>2013-04-13T07:55:47Z</time>
      </trkpt>
      <trkpt lat="45.21849" lon="6.02591">
        <ele>1920.8000488</ele>
        <time>2013-04-13T07:55:50Z</time>
      </trkpt>
      <trkpt lat="45.2185" lon="6.02591">
        <ele>1920.8000488</ele>
        <time>2013-04-13T07:55:53Z</time>
      </trkpt>
      <trkpt lat="45.21849" lon="6.02591">
        <ele>1920.8000488</ele>
        <time>2013-04-13T07:55:56Z</time>
      </trkpt>
      <trkpt lat="45.21849" lon="6.02591">
        <ele>1920.8000488</ele>
        <time>2013-04-13T07:55:59Z</time>
      </trkpt>
      <trkpt lat="45.21849" lon="6.02592">
        <ele>1920.8000488</ele>
        <time>2013-04-13T07:56:02Z</time>
      </trkpt>
      <trkpt lat="45.21848" lon="6.02594">
        <ele>1920.8000488</ele>
        <time>2013-04-13T07:56:05Z</time>
      </trkpt>
      <trkpt lat="45.21848" lon="6.02595">
        <ele>1920.8000488</ele>
        <time>2013-04-13T07:56:08Z</time>
      </trkpt>
      <trkpt lat="45.21847" lon="6.02597">
        <ele>1920.8000488</ele>
        <time>2013-04-13T07:56:11Z</time>
      </trkpt>
      <trkpt lat="45.21847" lon="6.026">
        <ele>1921.4000244</ele>
        <time>2013-04-13T07:56:14Z</time>
      </trkpt>
      <trkpt lat="45.21846" lon="6.02604">
        <ele>1922.4000244</ele>
        <time>2013-04-13T07:56:17Z</time>
      </trkpt>
      <trkpt lat="45.21846" lon="6.02607">
        <ele>1923</ele>
        <time>2013-04-13T07:56:20Z</time>
      </trkpt>
      <trkpt lat="45.21845" lon="6.02611">
        <ele>1924</ele>
        <time>2013-04-13T07:56:23Z</time>
      </trkpt>
      <trkpt lat="45.21844" lon="6.02614">
        <ele>1925</ele>
        <time>2013-04-13T07:56:26Z</time>
      </trkpt>
      <trkpt lat="45.21843" lon="6.02617">
        <ele>1925.4000244</ele>
        <time>2013-04-13T07:56:29Z</time>
      </trkpt>
      <trkpt lat="45.21842" lon="6.02621">
        <ele>1926.8000488</ele>
        <time>2013-04-13T07:56:32Z</time>
      </trkpt>
      <trkpt lat="45.21841" lon="6.02625">
        <ele>1927.8000488</ele>
        <time>2013-04-13T07:56:35Z</time>
      </trkpt>
      <trkpt lat="45.21841" lon="6.02628">
        <ele>1927.8000488</ele>
        <time>2013-04-13T07:56:38Z</time>
      </trkpt>
      <trkpt lat="45.2184" lon="6.0263">
        <ele>1927.8000488</ele>
        <time>2013-04-13T07:56:41Z</time>
      </trkpt>
      <trkpt lat="45.21839" lon="6.02635">
        <ele>1927.8000488</ele>
        <time>2013-04-13T07:56:44Z</time>
      </trkpt>
      <trkpt lat="45.21838" lon="6.02638">
        <ele>1928.8000488</ele>
        <time>2013-04-13T07:56:47Z</time>
      </trkpt>
      <trkpt lat="45.21836" lon="6.02642">
        <ele>1929.8000488</ele>
        <time>2013-04-13T07:56:50Z</time>
      </trkpt>
      <trkpt lat="45.21835" lon="6.02646">
        <ele>1929.8000488</ele>
        <time>2013-04-13T07:56:53Z</time>
      </trkpt>
      <trkpt lat="45.21834" lon="6.0265">
        <ele>1930</ele>
        <time>2013-04-13T07:56:56Z</time>
      </trkpt>
      <trkpt lat="45.21832" lon="6.02654">
        <ele>1931</ele>
        <time>2013-04-13T07:56:59Z</time>
      </trkpt>
      <trkpt lat="45.2183" lon="6.02659">
        <ele>1932</ele>
        <time>2013-04-13T07:57:02Z</time>
      </trkpt>
      <trkpt lat="45.2183" lon="6.02664">
        <ele>1932</ele>
        <time>2013-04-13T07:57:05Z</time>
      </trkpt>
      <trkpt lat="45.21828" lon="6.0267">
        <ele>1932</ele>
        <time>2013-04-13T07:57:08Z</time>
      </trkpt>
      <trkpt lat="45.21827" lon="6.02675">
        <ele>1932</ele>
        <time>2013-04-13T07:57:11Z</time>
      </trkpt>
      <trkpt lat="45.21826" lon="6.0268">
        <ele>1932</ele>
        <time>2013-04-13T07:57:14Z</time>
      </trkpt>
      <trkpt lat="45.21825" lon="6.02684">
        <ele>1932</ele>
        <time>2013-04-13T07:57:17Z</time>
      </trkpt>
      <trkpt lat="45.21823" lon="6.02689">
        <ele>1932</ele>
        <time>2013-04-13T07:57:20Z</time>
      </trkpt>
      <trkpt lat="45.21823" lon="6.02694">
        <ele>1933</ele>
        <time>2013-04-13T07:57:23Z</time>
      </trkpt>
      <trkpt lat="45.21822" lon="6.027">
        <ele>1934</ele>
        <time>2013-04-13T07:57:26Z</time>
      </trkpt>
      <trkpt lat="45.21821" lon="6.02705">
        <ele>1934</ele>
        <time>2013-04-13T07:57:29Z</time>
      </trkpt>
      <trkpt lat="45.2182" lon="6.02711">
        <ele>1934</ele>
        <time>2013-04-13T07:57:32Z</time>
      </trkpt>
      <trkpt lat="45.21818" lon="6.02716">
        <ele>1934</ele>
        <time>2013-04-13T07:57:35Z</time>
      </trkpt>
      <trkpt lat="45.21817" lon="6.02722">
        <ele>1934</ele>
        <time>2013-04-13T07:57:38Z</time>
      </trkpt>
      <trkpt lat="45.21816" lon="6.02727">
        <ele>1934</ele>
        <time>2013-04-13T07:57:41Z</time>
      </trkpt>
      <trkpt lat="45.21816" lon="6.02734">
        <ele>1934</ele>
        <time>2013-04-13T07:57:44Z</time>
      </trkpt>
      <trkpt lat="45.21815" lon="6.02738">
        <ele>1934</ele>
        <time>2013-04-13T07:57:47Z</time>
      </trkpt>
      <trkpt lat="45.21815" lon="6.02745">
        <ele>1935</ele>
        <time>2013-04-13T07:57:50Z</time>
      </trkpt>
      <trkpt lat="45.21816" lon="6.0275">
        <ele>1936</ele>
        <time>2013-04-13T07:57:53Z</time>
      </trkpt>
      <trkpt lat="45.21815" lon="6.02756">
        <ele>1936</ele>
        <time>2013-04-13T07:57:56Z</time>
      </trkpt>
      <trkpt lat="45.21814" lon="6.02761">
        <ele>1936</ele>
        <time>2013-04-13T07:57:59Z</time>
      </trkpt>
      <trkpt lat="45.21813" lon="6.02766">
        <ele>1936</ele>
        <time>2013-04-13T07:58:02Z</time>
      </trkpt>
      <trkpt lat="45.21813" lon="6.0277">
        <ele>1936</ele>
        <time>2013-04-13T07:58:05Z</time>
      </trkpt>
      <trkpt lat="45.21813" lon="6.02776">
        <ele>1936</ele>
        <time>2013-04-13T07:58:08Z</time>
      </trkpt>
      <trkpt lat="45.21812" lon="6.0278">
        <ele>1937</ele>
        <time>2013-04-13T07:58:11Z</time>
      </trkpt>
      <trkpt lat="45.21812" lon="6.02787">
        <ele>1938</ele>
        <time>2013-04-13T07:58:14Z</time>
      </trkpt>
      <trkpt lat="45.21812" lon="6.02792">
        <ele>1938</ele>
        <time>2013-04-13T07:58:17Z</time>
      </trkpt>
      <trkpt lat="45.21812" lon="6.02797">
        <ele>1938</ele>
        <time>2013-04-13T07:58:20Z</time>
      </trkpt>
      <trkpt lat="45.21811" lon="6.02801">
        <ele>1938.4000244</ele>
        <time>2013-04-13T07:58:23Z</time>
      </trkpt>
      <trkpt lat="45.2181" lon="6.02807">
        <ele>1939.4000244</ele>
        <time>2013-04-13T07:58:26Z</time>
      </trkpt>
      <trkpt lat="45.21809" lon="6.0281">
        <ele>1940</ele>
        <time>2013-04-13T07:58:29Z</time>
      </trkpt>
      <trkpt lat="45.21807" lon="6.02815">
        <ele>1940.4000244</ele>
        <time>2013-04-13T07:58:32Z</time>
      </trkpt>
      <trkpt lat="45.21806" lon="6.02819">
        <ele>1941.4000244</ele>
        <time>2013-04-13T07:58:35Z</time>
      </trkpt>
      <trkpt lat="45.21805" lon="6.02824">
        <ele>1942</ele>
        <time>2013-04-13T07:58:38Z</time>
      </trkpt>
      <trkpt lat="45.21805" lon="6.02828">
        <ele>1942</ele>
        <time>2013-04-13T07:58:41Z</time>
      </trkpt>
      <trkpt lat="45.21803" lon="6.02834">
        <ele>1943</ele>
        <time>2013-04-13T07:58:44Z</time>
      </trkpt>
      <trkpt lat="45.21802" lon="6.02837">
        <ele>1944</ele>
        <time>2013-04-13T07:58:47Z</time>
      </trkpt>
      <trkpt lat="45.21801" lon="6.02842">
        <ele>1944</ele>
        <time>2013-04-13T07:58:50Z</time>
      </trkpt>
      <trkpt lat="45.218" lon="6.02846">
        <ele>1944</ele>
        <time>2013-04-13T07:58:53Z</time>
      </trkpt>
      <trkpt lat="45.21798" lon="6.02851">
        <ele>1945</ele>
        <time>2013-04-13T07:58:56Z</time>
      </trkpt>
      <trkpt lat="45.21797" lon="6.02854">
        <ele>1946</ele>
        <time>2013-04-13T07:58:59Z</time>
      </trkpt>
      <trkpt lat="45.21795" lon="6.02859">
        <ele>1946</ele>
        <time>2013-04-13T07:59:02Z</time>
      </trkpt>
      <trkpt lat="45.21794" lon="6.02862">
        <ele>1946</ele>
        <time>2013-04-13T07:59:05Z</time>
      </trkpt>
      <trkpt lat="45.21792" lon="6.02866">
        <ele>1946</ele>
        <time>2013-04-13T07:59:08Z</time>
      </trkpt>
      <trkpt lat="45.2179" lon="6.02869">
        <ele>1947</ele>
        <time>2013-04-13T07:59:11Z</time>
      </trkpt>
      <trkpt lat="45.21788" lon="6.02873">
        <ele>1948</ele>
        <time>2013-04-13T07:59:14Z</time>
      </trkpt>
      <trkpt lat="45.21786" lon="6.02876">
        <ele>1948</ele>
        <time>2013-04-13T07:59:17Z</time>
      </trkpt>
      <trkpt lat="45.21784" lon="6.0288">
        <ele>1949</ele>
        <time>2013-04-13T07:59:20Z</time>
      </trkpt>
      <trkpt lat="45.21783" lon="6.02883">
        <ele>1949.8000488</ele>
        <time>2013-04-13T07:59:23Z</time>
      </trkpt>
      <trkpt lat="45.2178" lon="6.02886">
        <ele>1950.4000244</ele>
        <time>2013-04-13T07:59:26Z</time>
      </trkpt>
      <trkpt lat="45.21778" lon="6.02889">
        <ele>1950.4000244</ele>
        <time>2013-04-13T07:59:29Z</time>
      </trkpt>
      <trkpt lat="45.21776" lon="6.02893">
        <ele>1951.4000244</ele>
        <time>2013-04-13T07:59:32Z</time>
      </trkpt>
      <trkpt lat="45.21775" lon="6.02896">
        <ele>1952.4000244</ele>
        <time>2013-04-13T07:59:35Z</time>
      </trkpt>
      <trkpt lat="45.21774" lon="6.02901">
        <ele>1952.4000244</ele>
        <time>2013-04-13T07:59:38Z</time>
      </trkpt>
      <trkpt lat="45.21774" lon="6.02904">
        <ele>1953</ele>
        <time>2013-04-13T07:59:41Z</time>
      </trkpt>
      <trkpt lat="45.21773" lon="6.02908">
        <ele>1954</ele>
        <time>2013-04-13T07:59:44Z</time>
      </trkpt>
      <trkpt lat="45.21773" lon="6.0291">
        <ele>1954.4000244</ele>
        <time>2013-04-13T07:59:47Z</time>
      </trkpt>
      <trkpt lat="45.21773" lon="6.02914">
        <ele>1954.4000244</ele>
        <time>2013-04-13T07:59:50Z</time>
      </trkpt>
      <trkpt lat="45.21773" lon="6.02917">
        <ele>1955</ele>
        <time>2013-04-13T07:59:53Z</time>
      </trkpt>
      <trkpt lat="45.21772" lon="6.02921">
        <ele>1956.4000244</ele>
        <time>2013-04-13T07:59:56Z</time>
      </trkpt>
      <trkpt lat="45.21772" lon="6.02924">
        <ele>1956.4000244</ele>
        <time>2013-04-13T07:59:59Z</time>
      </trkpt>
      <trkpt lat="45.21772" lon="6.02928">
        <ele>1957.4000244</ele>
        <time>2013-04-13T08:00:02Z</time>
      </trkpt>
      <trkpt lat="45.21773" lon="6.02931">
        <ele>1958.4000244</ele>
        <time>2013-04-13T08:00:05Z</time>
      </trkpt>
      <trkpt lat="45.21772" lon="6.02935">
        <ele>1958.4000244</ele>
        <time>2013-04-13T08:00:08Z</time>
      </trkpt>
      <trkpt lat="45.21772" lon="6.02938">
        <ele>1959</ele>
        <time>2013-04-13T08:00:11Z</time>
      </trkpt>
      <trkpt lat="45.2177" lon="6.02941">
        <ele>1959.8000488</ele>
        <time>2013-04-13T08:00:14Z</time>
      </trkpt>
      <trkpt lat="45.21769" lon="6.02944">
        <ele>1960.4000244</ele>
        <time>2013-04-13T08:00:17Z</time>
      </trkpt>
      <trkpt lat="45.21769" lon="6.02948">
        <ele>1960.8000488</ele>
        <time>2013-04-13T08:00:20Z</time>
      </trkpt>
      <trkpt lat="45.2177" lon="6.02951">
        <ele>1961.4000244</ele>
        <time>2013-04-13T08:00:23Z</time>
      </trkpt>
      <trkpt lat="45.2177" lon="6.02955">
        <ele>1962.4000244</ele>
        <time>2013-04-13T08:00:26Z</time>
      </trkpt>
      <trkpt lat="45.21771" lon="6.02958">
        <ele>1962.4000244</ele>
        <time>2013-04-13T08:00:29Z</time>
      </trkpt>
      <trkpt lat="45.21771" lon="6.02958">
        <ele>1962.4000244</ele>
        <time>2013-04-13T08:00:32Z</time>
      </trkpt>
      <trkpt lat="45.21772" lon="6.0296">
        <ele>1962.4000244</ele>
        <time>2013-04-13T08:00:35Z</time>
      </trkpt>
      <trkpt lat="45.21772" lon="6.02959">
        <ele>1962.4000244</ele>
        <time>2013-04-13T08:00:38Z</time>
      </trkpt>
      <trkpt lat="45.21772" lon="6.02961">
        <ele>1962.4000244</ele>
        <time>2013-04-13T08:00:41Z</time>
      </trkpt>
      <trkpt lat="45.21773" lon="6.02961">
        <ele>1962.4000244</ele>
        <time>2013-04-13T08:00:44Z</time>
      </trkpt>
      <trkpt lat="45.21773" lon="6.02962">
        <ele>1962.4000244</ele>
        <time>2013-04-13T08:00:47Z</time>
      </trkpt>
      <trkpt lat="45.21773" lon="6.02962">
        <ele>1962.4000244</ele>
        <time>2013-04-13T08:00:50Z</time>
      </trkpt>
      <trkpt lat="45.21773" lon="6.02962">
        <ele>1962.4000244</ele>
        <time>2013-04-13T08:00:53Z</time>
      </trkpt>
      <trkpt lat="45.21773" lon="6.02962">
        <ele>1962.4000244</ele>
        <time>2013-04-13T08:00:56Z</time>
      </trkpt>
      <trkpt lat="45.21773" lon="6.02962">
        <ele>1962.4000244</ele>
        <time>2013-04-13T08:00:59Z</time>
      </trkpt>
      <trkpt lat="45.21773" lon="6.02962">
        <ele>1962.4000244</ele>
        <time>2013-04-13T08:01:02Z</time>
      </trkpt>
      <trkpt lat="45.21773" lon="6.02962">
        <ele>1962.4000244</ele>
        <time>2013-04-13T08:01:05Z</time>
      </trkpt>
      <trkpt lat="45.21773" lon="6.02962">
        <ele>1962.4000244</ele>
        <time>2013-04-13T08:01:08Z</time>
      </trkpt>
      <trkpt lat="45.21773" lon="6.02962">
        <ele>1962.4000244</ele>
        <time>2013-04-13T08:01:11Z</time>
      </trkpt>
      <trkpt lat="45.21773" lon="6.02962">
        <ele>1962.4000244</ele>
        <time>2013-04-13T08:01:14Z</time>
      </trkpt>
      <trkpt lat="45.21773" lon="6.02963">
        <ele>1962.4000244</ele>
        <time>2013-04-13T08:01:17Z</time>
      </trkpt>
      <trkpt lat="45.21773" lon="6.02962">
        <ele>1962.4000244</ele>
        <time>2013-04-13T08:01:20Z</time>
      </trkpt>
      <trkpt lat="45.21772" lon="6.02963">
        <ele>1962.4000244</ele>
        <time>2013-04-13T08:01:23Z</time>
      </trkpt>
      <trkpt lat="45.21769" lon="6.02962">
        <ele>1962.4000244</ele>
        <time>2013-04-13T08:01:26Z</time>
      </trkpt>
      <trkpt lat="45.21766" lon="6.02958">
        <ele>1962.4000244</ele>
        <time>2013-04-13T08:01:29Z</time>
      </trkpt>
      <trkpt lat="45.21761" lon="6.02952">
        <ele>1962.4000244</ele>
        <time>2013-04-13T08:01:32Z</time>
      </trkpt>
      <trkpt lat="45.21759" lon="6.02949">
        <ele>1962.4000244</ele>
        <time>2013-04-13T08:01:35Z</time>
      </trkpt>
      <trkpt lat="45.21755" lon="6.02939">
        <ele>1962.4000244</ele>
        <time>2013-04-13T08:01:39Z</time>
      </trkpt>
      <trkpt lat="45.21752" lon="6.02935">
        <ele>1962.4000244</ele>
        <time>2013-04-13T08:01:42Z</time>
      </trkpt>
      <trkpt lat="45.2175" lon="6.02932">
        <ele>1962.4000244</ele>
        <time>2013-04-13T08:01:45Z</time>
      </trkpt>
      <trkpt lat="45.21748" lon="6.02927">
        <ele>1962.4000244</ele>
        <time>2013-04-13T08:01:48Z</time>
      </trkpt>
      <trkpt lat="45.21746" lon="6.02923">
        <ele>1962.4000244</ele>
        <time>2013-04-13T08:01:51Z</time>
      </trkpt>
      <trkpt lat="45.21744" lon="6.0292">
        <ele>1962.4000244</ele>
        <time>2013-04-13T08:01:54Z</time>
      </trkpt>
      <trkpt lat="45.21743" lon="6.02918">
        <ele>1963.4000244</ele>
        <time>2013-04-13T08:01:57Z</time>
      </trkpt>
      <trkpt lat="45.21741" lon="6.02917">
        <ele>1964</ele>
        <time>2013-04-13T08:02:00Z</time>
      </trkpt>
      <trkpt lat="45.21739" lon="6.02917">
        <ele>1964.4000244</ele>
        <time>2013-04-13T08:02:03Z</time>
      </trkpt>
      <trkpt lat="45.21736" lon="6.02917">
        <ele>1965.4000244</ele>
        <time>2013-04-13T08:02:06Z</time>
      </trkpt>
      <trkpt lat="45.21734" lon="6.02917">
        <ele>1966.4000244</ele>
        <time>2013-04-13T08:02:09Z</time>
      </trkpt>
      <trkpt lat="45.21731" lon="6.02917">
        <ele>1967</ele>
        <time>2013-04-13T08:02:12Z</time>
      </trkpt>
      <trkpt lat="45.21731" lon="6.02917">
        <ele>1967.8000488</ele>
        <time>2013-04-13T08:02:15Z</time>
      </trkpt>
      <trkpt lat="45.2173" lon="6.02917">
        <ele>1968.4000244</ele>
        <time>2013-04-13T08:02:18Z</time>
      </trkpt>
      <trkpt lat="45.21728" lon="6.02917">
        <ele>1968.4000244</ele>
        <time>2013-04-13T08:02:21Z</time>
      </trkpt>
      <trkpt lat="45.21726" lon="6.02917">
        <ele>1968.4000244</ele>
        <time>2013-04-13T08:02:24Z</time>
      </trkpt>
      <trkpt lat="45.21726" lon="6.02917">
        <ele>1968.4000244</ele>
        <time>2013-04-13T08:02:27Z</time>
      </trkpt>
      <trkpt lat="45.21725" lon="6.02917">
        <ele>1969</ele>
        <time>2013-04-13T08:02:30Z</time>
      </trkpt>
      <trkpt lat="45.21724" lon="6.02917">
        <ele>1970</ele>
        <time>2013-04-13T08:02:33Z</time>
      </trkpt>
      <trkpt lat="45.21723" lon="6.02917">
        <ele>1970.8000488</ele>
        <time>2013-04-13T08:02:36Z</time>
      </trkpt>
      <trkpt lat="45.21723" lon="6.02917">
        <ele>1970.8000488</ele>
        <time>2013-04-13T08:02:39Z</time>
      </trkpt>
      <trkpt lat="45.21723" lon="6.02917">
        <ele>1970.8000488</ele>
        <time>2013-04-13T08:02:42Z</time>
      </trkpt>
      <trkpt lat="45.21722" lon="6.02917">
        <ele>1970.8000488</ele>
        <time>2013-04-13T08:02:45Z</time>
      </trkpt>
      <trkpt lat="45.2172" lon="6.02917">
        <ele>1970.8000488</ele>
        <time>2013-04-13T08:02:48Z</time>
      </trkpt>
      <trkpt lat="45.21718" lon="6.02917">
        <ele>1970.8000488</ele>
        <time>2013-04-13T08:02:51Z</time>
      </trkpt>
      <trkpt lat="45.21716" lon="6.02916">
        <ele>1971.8000488</ele>
        <time>2013-04-13T08:02:54Z</time>
      </trkpt>
      <trkpt lat="45.21716" lon="6.02917">
        <ele>1972.4000244</ele>
        <time>2013-04-13T08:02:57Z</time>
      </trkpt>
      <trkpt lat="45.21715" lon="6.02913">
        <ele>1972.8000488</ele>
        <time>2013-04-13T08:03:00Z</time>
      </trkpt>
      <trkpt lat="45.21714" lon="6.02914">
        <ele>1973.4000244</ele>
        <time>2013-04-13T08:03:03Z</time>
      </trkpt>
      <trkpt lat="45.21715" lon="6.02913">
        <ele>1974.8000488</ele>
        <time>2013-04-13T08:03:06Z</time>
      </trkpt>
      <trkpt lat="45.21715" lon="6.02913">
        <ele>1974.8000488</ele>
        <time>2013-04-13T08:03:09Z</time>
      </trkpt>
      <trkpt lat="45.21715" lon="6.02913">
        <ele>1974.8000488</ele>
        <time>2013-04-13T08:03:12Z</time>
      </trkpt>
      <trkpt lat="45.21715" lon="6.02913">
        <ele>1974.8000488</ele>
        <time>2013-04-13T08:03:15Z</time>
      </trkpt>
      <trkpt lat="45.21715" lon="6.02913">
        <ele>1974.8000488</ele>
        <time>2013-04-13T08:03:18Z</time>
      </trkpt>
      <trkpt lat="45.21715" lon="6.02913">
        <ele>1974.8000488</ele>
        <time>2013-04-13T08:03:21Z</time>
      </trkpt>
      <trkpt lat="45.21716" lon="6.02913">
        <ele>1974.8000488</ele>
        <time>2013-04-13T08:03:24Z</time>
      </trkpt>
      <trkpt lat="45.21716" lon="6.02913">
        <ele>1974.8000488</ele>
        <time>2013-04-13T08:03:27Z</time>
      </trkpt>
      <trkpt lat="45.21715" lon="6.02913">
        <ele>1974.8000488</ele>
        <time>2013-04-13T08:03:30Z</time>
      </trkpt>
      <trkpt lat="45.21715" lon="6.02913">
        <ele>1974.8000488</ele>
        <time>2013-04-13T08:03:33Z</time>
      </trkpt>
      <trkpt lat="45.21715" lon="6.02913">
        <ele>1974.8000488</ele>
        <time>2013-04-13T08:03:36Z</time>
      </trkpt>
      <trkpt lat="45.21715" lon="6.02913">
        <ele>1974.8000488</ele>
        <time>2013-04-13T08:03:39Z</time>
      </trkpt>
      <trkpt lat="45.21715" lon="6.02912">
        <ele>1974.8000488</ele>
        <time>2013-04-13T08:03:42Z</time>
      </trkpt>
      <trkpt lat="45.21715" lon="6.0291">
        <ele>1974.8000488</ele>
        <time>2013-04-13T08:03:45Z</time>
      </trkpt>
      <trkpt lat="45.21715" lon="6.02906">
        <ele>1974.8000488</ele>
        <time>2013-04-13T08:03:48Z</time>
      </trkpt>
      <trkpt lat="45.21715" lon="6.02902">
        <ele>1974.8000488</ele>
        <time>2013-04-13T08:03:51Z</time>
      </trkpt>
      <trkpt lat="45.21715" lon="6.02898">
        <ele>1975.4000244</ele>
        <time>2013-04-13T08:03:54Z</time>
      </trkpt>
      <trkpt lat="45.21715" lon="6.02895">
        <ele>1976.4000244</ele>
        <time>2013-04-13T08:03:57Z</time>
      </trkpt>
      <trkpt lat="45.21715" lon="6.02891">
        <ele>1977</ele>
        <time>2013-04-13T08:04:00Z</time>
      </trkpt>
      <trkpt lat="45.21715" lon="6.02888">
        <ele>1978</ele>
        <time>2013-04-13T08:04:03Z</time>
      </trkpt>
      <trkpt lat="45.21715" lon="6.02884">
        <ele>1979</ele>
        <time>2013-04-13T08:04:06Z</time>
      </trkpt>
      <trkpt lat="45.21715" lon="6.02881">
        <ele>1979.4000244</ele>
        <time>2013-04-13T08:04:09Z</time>
      </trkpt>
      <trkpt lat="45.21715" lon="6.02877">
        <ele>1980.4000244</ele>
        <time>2013-04-13T08:04:12Z</time>
      </trkpt>
      <trkpt lat="45.21715" lon="6.02874">
        <ele>1981</ele>
        <time>2013-04-13T08:04:15Z</time>
      </trkpt>
      <trkpt lat="45.21715" lon="6.0287">
        <ele>1981.4000244</ele>
        <time>2013-04-13T08:04:18Z</time>
      </trkpt>
      <trkpt lat="45.21713" lon="6.02869">
        <ele>1982</ele>
        <time>2013-04-13T08:04:21Z</time>
      </trkpt>
      <trkpt lat="45.2171" lon="6.0287">
        <ele>1983.4000244</ele>
        <time>2013-04-13T08:04:24Z</time>
      </trkpt>
      <trkpt lat="45.21708" lon="6.0287">
        <ele>1984.4000244</ele>
        <time>2013-04-13T08:04:27Z</time>
      </trkpt>
      <trkpt lat="45.21705" lon="6.02871">
        <ele>1986</ele>
        <time>2013-04-13T08:04:30Z</time>
      </trkpt>
      <trkpt lat="45.21703" lon="6.02871">
        <ele>1987</ele>
        <time>2013-04-13T08:04:33Z</time>
      </trkpt>
      <trkpt lat="45.21701" lon="6.0287">
        <ele>1987.4000244</ele>
        <time>2013-04-13T08:04:36Z</time>
      </trkpt>
      <trkpt lat="45.21699" lon="6.02869">
        <ele>1988</ele>
        <time>2013-04-13T08:04:39Z</time>
      </trkpt>
      <trkpt lat="45.21696" lon="6.02868">
        <ele>1989</ele>
        <time>2013-04-13T08:04:42Z</time>
      </trkpt>
      <trkpt lat="45.21695" lon="6.02867">
        <ele>1989.8000488</ele>
        <time>2013-04-13T08:04:45Z</time>
      </trkpt>
      <trkpt lat="45.21692" lon="6.02865">
        <ele>1991</ele>
        <time>2013-04-13T08:04:48Z</time>
      </trkpt>
      <trkpt lat="45.21692" lon="6.02864">
        <ele>1991.4000244</ele>
        <time>2013-04-13T08:04:51Z</time>
      </trkpt>
      <trkpt lat="45.21693" lon="6.0286">
        <ele>1992.8000488</ele>
        <time>2013-04-13T08:04:54Z</time>
      </trkpt>
      <trkpt lat="45.21693" lon="6.02857">
        <ele>1993</ele>
        <time>2013-04-13T08:04:57Z</time>
      </trkpt>
      <trkpt lat="45.21694" lon="6.02853">
        <ele>1993</ele>
        <time>2013-04-13T08:05:00Z</time>
      </trkpt>
      <trkpt lat="45.21694" lon="6.0285">
        <ele>1993.4000244</ele>
        <time>2013-04-13T08:05:03Z</time>
      </trkpt>
      <trkpt lat="45.21694" lon="6.02848">
        <ele>1994</ele>
        <time>2013-04-13T08:05:06Z</time>
      </trkpt>
      <trkpt lat="45.21693" lon="6.02844">
        <ele>1995</ele>
        <time>2013-04-13T08:05:09Z</time>
      </trkpt>
      <trkpt lat="45.21692" lon="6.02844">
        <ele>1996.4000244</ele>
        <time>2013-04-13T08:05:12Z</time>
      </trkpt>
      <trkpt lat="45.2169" lon="6.02844">
        <ele>1997</ele>
        <time>2013-04-13T08:05:15Z</time>
      </trkpt>
      <trkpt lat="45.21688" lon="6.02842">
        <ele>1998.4000244</ele>
        <time>2013-04-13T08:05:18Z</time>
      </trkpt>
      <trkpt lat="45.21688" lon="6.02839">
        <ele>1999</ele>
        <time>2013-04-13T08:05:21Z</time>
      </trkpt>
      <trkpt lat="45.21686" lon="6.02835">
        <ele>1999.4000244</ele>
        <time>2013-04-13T08:05:24Z</time>
      </trkpt>
      <trkpt lat="45.21684" lon="6.02834">
        <ele>1999.8000488</ele>
        <time>2013-04-13T08:05:27Z</time>
      </trkpt>
      <trkpt lat="45.21681" lon="6.02834">
        <ele>2001</ele>
        <time>2013-04-13T08:05:30Z</time>
      </trkpt>
      <trkpt lat="45.2168" lon="6.02833">
        <ele>2002.4000244</ele>
        <time>2013-04-13T08:05:33Z</time>
      </trkpt>
      <trkpt lat="45.21678" lon="6.02832">
        <ele>2003.8000488</ele>
        <time>2013-04-13T08:05:36Z</time>
      </trkpt>
      <trkpt lat="45.21677" lon="6.0283">
        <ele>2003.8000488</ele>
        <time>2013-04-13T08:05:39Z</time>
      </trkpt>
      <trkpt lat="45.21674" lon="6.02829">
        <ele>2004.4000244</ele>
        <time>2013-04-13T08:05:42Z</time>
      </trkpt>
      <trkpt lat="45.21674" lon="6.02827">
        <ele>2005.4000244</ele>
        <time>2013-04-13T08:05:45Z</time>
      </trkpt>
      <trkpt lat="45.21674" lon="6.02826">
        <ele>2005.8000488</ele>
        <time>2013-04-13T08:05:48Z</time>
      </trkpt>
      <trkpt lat="45.21674" lon="6.02822">
        <ele>2006.4000244</ele>
        <time>2013-04-13T08:05:51Z</time>
      </trkpt>
      <trkpt lat="45.21674" lon="6.02817">
        <ele>2007.4000244</ele>
        <time>2013-04-13T08:05:54Z</time>
      </trkpt>
      <trkpt lat="45.21674" lon="6.02814">
        <ele>2008.4000244</ele>
        <time>2013-04-13T08:05:57Z</time>
      </trkpt>
      <trkpt lat="45.21674" lon="6.02811">
        <ele>2009.8000488</ele>
        <time>2013-04-13T08:06:00Z</time>
      </trkpt>
      <trkpt lat="45.21674" lon="6.02809">
        <ele>2010</ele>
        <time>2013-04-13T08:06:03Z</time>
      </trkpt>
      <trkpt lat="45.21672" lon="6.02807">
        <ele>2011</ele>
        <time>2013-04-13T08:06:06Z</time>
      </trkpt>
      <trkpt lat="45.21671" lon="6.02804">
        <ele>2011.4000244</ele>
        <time>2013-04-13T08:06:09Z</time>
      </trkpt>
      <trkpt lat="45.2167" lon="6.02801">
        <ele>2012.4000244</ele>
        <time>2013-04-13T08:06:12Z</time>
      </trkpt>
      <trkpt lat="45.21669" lon="6.02798">
        <ele>2013</ele>
        <time>2013-04-13T08:06:15Z</time>
      </trkpt>
      <trkpt lat="45.21668" lon="6.02795">
        <ele>2014.4000244</ele>
        <time>2013-04-13T08:06:18Z</time>
      </trkpt>
      <trkpt lat="45.21667" lon="6.02791">
        <ele>2014.4000244</ele>
        <time>2013-04-13T08:06:21Z</time>
      </trkpt>
      <trkpt lat="45.21666" lon="6.02787">
        <ele>2015.8000488</ele>
        <time>2013-04-13T08:06:24Z</time>
      </trkpt>
      <trkpt lat="45.21666" lon="6.02784">
        <ele>2016.8000488</ele>
        <time>2013-04-13T08:06:27Z</time>
      </trkpt>
      <trkpt lat="45.21666" lon="6.0278">
        <ele>2016.8000488</ele>
        <time>2013-04-13T08:06:30Z</time>
      </trkpt>
      <trkpt lat="45.21664" lon="6.02777">
        <ele>2017.4000244</ele>
        <time>2013-04-13T08:06:33Z</time>
      </trkpt>
      <trkpt lat="45.21663" lon="6.02775">
        <ele>2018</ele>
        <time>2013-04-13T08:06:36Z</time>
      </trkpt>
      <trkpt lat="45.2166" lon="6.02772">
        <ele>2018.8000488</ele>
        <time>2013-04-13T08:06:39Z</time>
      </trkpt>
      <trkpt lat="45.21659" lon="6.0277">
        <ele>2019.4000244</ele>
        <time>2013-04-13T08:06:42Z</time>
      </trkpt>
      <trkpt lat="45.21658" lon="6.02767">
        <ele>2020.4000244</ele>
        <time>2013-04-13T08:06:45Z</time>
      </trkpt>
      <trkpt lat="45.21656" lon="6.02764">
        <ele>2021.4000244</ele>
        <time>2013-04-13T08:06:48Z</time>
      </trkpt>
      <trkpt lat="45.21655" lon="6.02761">
        <ele>2022.4000244</ele>
        <time>2013-04-13T08:06:51Z</time>
      </trkpt>
      <trkpt lat="45.21654" lon="6.02757">
        <ele>2022.8000488</ele>
        <time>2013-04-13T08:06:54Z</time>
      </trkpt>
      <trkpt lat="45.21654" lon="6.02755">
        <ele>2023.4000244</ele>
        <time>2013-04-13T08:06:57Z</time>
      </trkpt>
      <trkpt lat="45.21653" lon="6.02752">
        <ele>2024.4000244</ele>
        <time>2013-04-13T08:07:00Z</time>
      </trkpt>
      <trkpt lat="45.21653" lon="6.02749">
        <ele>2025</ele>
        <time>2013-04-13T08:07:03Z</time>
      </trkpt>
      <trkpt lat="45.21652" lon="6.02745">
        <ele>2026</ele>
        <time>2013-04-13T08:07:06Z</time>
      </trkpt>
      <trkpt lat="45.2165" lon="6.02743">
        <ele>2027</ele>
        <time>2013-04-13T08:07:09Z</time>
      </trkpt>
      <trkpt lat="45.21648" lon="6.0274">
        <ele>2028.4000244</ele>
        <time>2013-04-13T08:07:12Z</time>
      </trkpt>
      <trkpt lat="45.21646" lon="6.02738">
        <ele>2029.4000244</ele>
        <time>2013-04-13T08:07:15Z</time>
      </trkpt>
      <trkpt lat="45.21643" lon="6.02735">
        <ele>2029.4000244</ele>
        <time>2013-04-13T08:07:18Z</time>
      </trkpt>
      <trkpt lat="45.21642" lon="6.02735">
        <ele>2029.4000244</ele>
        <time>2013-04-13T08:07:21Z</time>
      </trkpt>
      <trkpt lat="45.21642" lon="6.02735">
        <ele>2030.4000244</ele>
        <time>2013-04-13T08:07:24Z</time>
      </trkpt>
      <trkpt lat="45.21642" lon="6.02735">
        <ele>2031</ele>
        <time>2013-04-13T08:07:27Z</time>
      </trkpt>
      <trkpt lat="45.21641" lon="6.02734">
        <ele>2031.4000244</ele>
        <time>2013-04-13T08:07:30Z</time>
      </trkpt>
      <trkpt lat="45.21641" lon="6.02734">
        <ele>2031.4000244</ele>
        <time>2013-04-13T08:07:33Z</time>
      </trkpt>
      <trkpt lat="45.21641" lon="6.02733">
        <ele>2031.4000244</ele>
        <time>2013-04-13T08:07:36Z</time>
      </trkpt>
      <trkpt lat="45.21638" lon="6.02731">
        <ele>2031.4000244</ele>
        <time>2013-04-13T08:07:39Z</time>
      </trkpt>
      <trkpt lat="45.21635" lon="6.02729">
        <ele>2031.4000244</ele>
        <time>2013-04-13T08:07:42Z</time>
      </trkpt>
      <trkpt lat="45.21634" lon="6.02728">
        <ele>2031.4000244</ele>
        <time>2013-04-13T08:07:45Z</time>
      </trkpt>
      <trkpt lat="45.21631" lon="6.02726">
        <ele>2031.4000244</ele>
        <time>2013-04-13T08:07:48Z</time>
      </trkpt>
      <trkpt lat="45.21628" lon="6.02724">
        <ele>2032.4000244</ele>
        <time>2013-04-13T08:07:51Z</time>
      </trkpt>
      <trkpt lat="45.21624" lon="6.02724">
        <ele>2033.4000244</ele>
        <time>2013-04-13T08:07:54Z</time>
      </trkpt>
      <trkpt lat="45.21623" lon="6.02724">
        <ele>2033.4000244</ele>
        <time>2013-04-13T08:07:57Z</time>
      </trkpt>
      <trkpt lat="45.2162" lon="6.02724">
        <ele>2034</ele>
        <time>2013-04-13T08:08:00Z</time>
      </trkpt>
      <trkpt lat="45.21617" lon="6.02724">
        <ele>2035</ele>
        <time>2013-04-13T08:08:03Z</time>
      </trkpt>
      <trkpt lat="45.21615" lon="6.02725">
        <ele>2035.4000244</ele>
        <time>2013-04-13T08:08:06Z</time>
      </trkpt>
      <trkpt lat="45.21613" lon="6.02724">
        <ele>2036</ele>
        <time>2013-04-13T08:08:09Z</time>
      </trkpt>
      <trkpt lat="45.21612" lon="6.02722">
        <ele>2037</ele>
        <time>2013-04-13T08:08:12Z</time>
      </trkpt>
      <trkpt lat="45.21612" lon="6.0272">
        <ele>2037.4000244</ele>
        <time>2013-04-13T08:08:15Z</time>
      </trkpt>
      <trkpt lat="45.21612" lon="6.02717">
        <ele>2038.8000488</ele>
        <time>2013-04-13T08:08:18Z</time>
      </trkpt>
      <trkpt lat="45.21612" lon="6.02717">
        <ele>2039.4000244</ele>
        <time>2013-04-13T08:08:21Z</time>
      </trkpt>
      <trkpt lat="45.21612" lon="6.02715">
        <ele>2039.4000244</ele>
        <time>2013-04-13T08:08:24Z</time>
      </trkpt>
      <trkpt lat="45.21613" lon="6.02712">
        <ele>2039.4000244</ele>
        <time>2013-04-13T08:08:27Z</time>
      </trkpt>
      <trkpt lat="45.21614" lon="6.02708">
        <ele>2039.4000244</ele>
        <time>2013-04-13T08:08:30Z</time>
      </trkpt>
      <trkpt lat="45.21614" lon="6.02706">
        <ele>2040.4000244</ele>
        <time>2013-04-13T08:08:33Z</time>
      </trkpt>
      <trkpt lat="45.21616" lon="6.02701">
        <ele>2041.4000244</ele>
        <time>2013-04-13T08:08:36Z</time>
      </trkpt>
      <trkpt lat="45.21617" lon="6.02697">
        <ele>2041.8000488</ele>
        <time>2013-04-13T08:08:39Z</time>
      </trkpt>
      <trkpt lat="45.21618" lon="6.02692">
        <ele>2042.4000244</ele>
        <time>2013-04-13T08:08:42Z</time>
      </trkpt>
      <trkpt lat="45.21619" lon="6.02689">
        <ele>2043</ele>
        <time>2013-04-13T08:08:45Z</time>
      </trkpt>
      <trkpt lat="45.21618" lon="6.02684">
        <ele>2043.8000488</ele>
        <time>2013-04-13T08:08:48Z</time>
      </trkpt>
      <trkpt lat="45.21616" lon="6.02685">
        <ele>2043.8000488</ele>
        <time>2013-04-13T08:08:51Z</time>
      </trkpt>
      <trkpt lat="45.21614" lon="6.02687">
        <ele>2044.4000244</ele>
        <time>2013-04-13T08:08:54Z</time>
      </trkpt>
      <trkpt lat="45.21612" lon="6.02689">
        <ele>2045.4000244</ele>
        <time>2013-04-13T08:08:57Z</time>
      </trkpt>
      <trkpt lat="45.21611" lon="6.02693">
        <ele>2046</ele>
        <time>2013-04-13T08:09:00Z</time>
      </trkpt>
      <trkpt lat="45.2161" lon="6.02695">
        <ele>2046.4000244</ele>
        <time>2013-04-13T08:09:03Z</time>
      </trkpt>
      <trkpt lat="45.21609" lon="6.02694">
        <ele>2047.8000488</ele>
        <time>2013-04-13T08:09:06Z</time>
      </trkpt>
      <trkpt lat="45.21609" lon="6.02692">
        <ele>2048</ele>
        <time>2013-04-13T08:09:09Z</time>
      </trkpt>
      <trkpt lat="45.2161" lon="6.02687">
        <ele>2048</ele>
        <time>2013-04-13T08:09:12Z</time>
      </trkpt>
      <trkpt lat="45.2161" lon="6.02684">
        <ele>2049</ele>
        <time>2013-04-13T08:09:15Z</time>
      </trkpt>
      <trkpt lat="45.21611" lon="6.02681">
        <ele>2049.8000488</ele>
        <time>2013-04-13T08:09:18Z</time>
      </trkpt>
      <trkpt lat="45.21611" lon="6.02678">
        <ele>2050.6000977</ele>
        <time>2013-04-13T08:09:21Z</time>
      </trkpt>
      <trkpt lat="45.2161" lon="6.02673">
        <ele>2051.8000488</ele>
        <time>2013-04-13T08:09:24Z</time>
      </trkpt>
      <trkpt lat="45.21608" lon="6.02671">
        <ele>2052</ele>
        <time>2013-04-13T08:09:27Z</time>
      </trkpt>
      <trkpt lat="45.21607" lon="6.02667">
        <ele>2052</ele>
        <time>2013-04-13T08:09:30Z</time>
      </trkpt>
      <trkpt lat="45.21605" lon="6.02668">
        <ele>2053</ele>
        <time>2013-04-13T08:09:33Z</time>
      </trkpt>
      <trkpt lat="45.21603" lon="6.02669">
        <ele>2054</ele>
        <time>2013-04-13T08:09:36Z</time>
      </trkpt>
      <trkpt lat="45.21602" lon="6.02669">
        <ele>2054.6000977</ele>
        <time>2013-04-13T08:09:39Z</time>
      </trkpt>
      <trkpt lat="45.21601" lon="6.02665">
        <ele>2055.8000488</ele>
        <time>2013-04-13T08:09:42Z</time>
      </trkpt>
      <trkpt lat="45.21601" lon="6.02664">
        <ele>2056.1999512</ele>
        <time>2013-04-13T08:09:45Z</time>
      </trkpt>
      <trkpt lat="45.21597" lon="6.02665">
        <ele>2057.6000977</ele>
        <time>2013-04-13T08:09:48Z</time>
      </trkpt>
      <trkpt lat="45.21597" lon="6.02667">
        <ele>2058.6000977</ele>
        <time>2013-04-13T08:09:51Z</time>
      </trkpt>
      <trkpt lat="45.21597" lon="6.02669">
        <ele>2058.6000977</ele>
        <time>2013-04-13T08:09:54Z</time>
      </trkpt>
      <trkpt lat="45.21596" lon="6.02669">
        <ele>2058.6000977</ele>
        <time>2013-04-13T08:09:57Z</time>
      </trkpt>
      <trkpt lat="45.21594" lon="6.02671">
        <ele>2059.1999512</ele>
        <time>2013-04-13T08:10:00Z</time>
      </trkpt>
      <trkpt lat="45.21593" lon="6.02671">
        <ele>2060.1999512</ele>
        <time>2013-04-13T08:10:03Z</time>
      </trkpt>
      <trkpt lat="45.21592" lon="6.02672">
        <ele>2061</ele>
        <time>2013-04-13T08:10:06Z</time>
      </trkpt>
      <trkpt lat="45.21592" lon="6.02674">
        <ele>2062</ele>
        <time>2013-04-13T08:10:09Z</time>
      </trkpt>
      <trkpt lat="45.2159" lon="6.02675">
        <ele>2062.6000977</ele>
        <time>2013-04-13T08:10:12Z</time>
      </trkpt>
      <trkpt lat="45.2159" lon="6.02674">
        <ele>2062.6000977</ele>
        <time>2013-04-13T08:10:15Z</time>
      </trkpt>
      <trkpt lat="45.21588" lon="6.02673">
        <ele>2063.8000488</ele>
        <time>2013-04-13T08:10:18Z</time>
      </trkpt>
      <trkpt lat="45.21588" lon="6.02673">
        <ele>2064.6000977</ele>
        <time>2013-04-13T08:10:21Z</time>
      </trkpt>
      <trkpt lat="45.21588" lon="6.02673">
        <ele>2064.6000977</ele>
        <time>2013-04-13T08:10:24Z</time>
      </trkpt>
      <trkpt lat="45.21588" lon="6.02672">
        <ele>2064.6000977</ele>
        <time>2013-04-13T08:10:27Z</time>
      </trkpt>
      <trkpt lat="45.21588" lon="6.0267">
        <ele>2064.6000977</ele>
        <time>2013-04-13T08:10:30Z</time>
      </trkpt>
      <trkpt lat="45.21587" lon="6.02669">
        <ele>2065.1999512</ele>
        <time>2013-04-13T08:10:33Z</time>
      </trkpt>
      <trkpt lat="45.21585" lon="6.02668">
        <ele>2066.1999512</ele>
        <time>2013-04-13T08:10:36Z</time>
      </trkpt>
      <trkpt lat="45.21585" lon="6.02665">
        <ele>2066.8000488</ele>
        <time>2013-04-13T08:10:39Z</time>
      </trkpt>
      <trkpt lat="45.21586" lon="6.02661">
        <ele>2067.8000488</ele>
        <time>2013-04-13T08:10:42Z</time>
      </trkpt>
      <trkpt lat="45.21585" lon="6.02659">
        <ele>2069</ele>
        <time>2013-04-13T08:10:45Z</time>
      </trkpt>
      <trkpt lat="45.21583" lon="6.02658">
        <ele>2069</ele>
        <time>2013-04-13T08:10:48Z</time>
      </trkpt>
      <trkpt lat="45.21581" lon="6.02658">
        <ele>2069</ele>
        <time>2013-04-13T08:10:51Z</time>
      </trkpt>
      <trkpt lat="45.2158" lon="6.02659">
        <ele>2070</ele>
        <time>2013-04-13T08:10:54Z</time>
      </trkpt>
      <trkpt lat="45.2158" lon="6.02658">
        <ele>2071</ele>
        <time>2013-04-13T08:10:57Z</time>
      </trkpt>
      <trkpt lat="45.2158" lon="6.02658">
        <ele>2071</ele>
        <time>2013-04-13T08:11:00Z</time>
      </trkpt>
      <trkpt lat="45.21581" lon="6.02657">
        <ele>2071</ele>
        <time>2013-04-13T08:11:03Z</time>
      </trkpt>
      <trkpt lat="45.2158" lon="6.02657">
        <ele>2071</ele>
        <time>2013-04-13T08:11:06Z</time>
      </trkpt>
      <trkpt lat="45.21581" lon="6.02657">
        <ele>2071.6000977</ele>
        <time>2013-04-13T08:11:09Z</time>
      </trkpt>
      <trkpt lat="45.21579" lon="6.02657">
        <ele>2072.6000977</ele>
        <time>2013-04-13T08:11:12Z</time>
      </trkpt>
      <trkpt lat="45.21579" lon="6.02657">
        <ele>2073</ele>
        <time>2013-04-13T08:11:15Z</time>
      </trkpt>
      <trkpt lat="45.21579" lon="6.02656">
        <ele>2073</ele>
        <time>2013-04-13T08:11:18Z</time>
      </trkpt>
      <trkpt lat="45.21578" lon="6.02656">
        <ele>2073</ele>
        <time>2013-04-13T08:11:21Z</time>
      </trkpt>
      <trkpt lat="45.21578" lon="6.02656">
        <ele>2073</ele>
        <time>2013-04-13T08:11:24Z</time>
      </trkpt>
      <trkpt lat="45.21578" lon="6.02656">
        <ele>2073</ele>
        <time>2013-04-13T08:11:27Z</time>
      </trkpt>
      <trkpt lat="45.2158" lon="6.02655">
        <ele>2073</ele>
        <time>2013-04-13T08:11:30Z</time>
      </trkpt>
      <trkpt lat="45.21581" lon="6.02654">
        <ele>2073</ele>
        <time>2013-04-13T08:11:33Z</time>
      </trkpt>
      <trkpt lat="45.2158" lon="6.02653">
        <ele>2073.8000488</ele>
        <time>2013-04-13T08:11:36Z</time>
      </trkpt>
      <trkpt lat="45.21581" lon="6.02652">
        <ele>2074.8000488</ele>
        <time>2013-04-13T08:11:39Z</time>
      </trkpt>
      <trkpt lat="45.21581" lon="6.02651">
        <ele>2075</ele>
        <time>2013-04-13T08:11:42Z</time>
      </trkpt>
      <trkpt lat="45.2158" lon="6.02649">
        <ele>2075</ele>
        <time>2013-04-13T08:11:45Z</time>
      </trkpt>
      <trkpt lat="45.21578" lon="6.02648">
        <ele>2075</ele>
        <time>2013-04-13T08:11:48Z</time>
      </trkpt>
      <trkpt lat="45.21578" lon="6.02648">
        <ele>2076</ele>
        <time>2013-04-13T08:11:51Z</time>
      </trkpt>
      <trkpt lat="45.21576" lon="6.02648">
        <ele>2076.8000488</ele>
        <time>2013-04-13T08:11:54Z</time>
      </trkpt>
      <trkpt lat="45.21575" lon="6.02649">
        <ele>2077.1999512</ele>
        <time>2013-04-13T08:11:57Z</time>
      </trkpt>
      <trkpt lat="45.21574" lon="6.02647">
        <ele>2078</ele>
        <time>2013-04-13T08:12:00Z</time>
      </trkpt>
      <trkpt lat="45.21573" lon="6.02644">
        <ele>2079.1999512</ele>
        <time>2013-04-13T08:12:03Z</time>
      </trkpt>
      <trkpt lat="45.21571" lon="6.02638">
        <ele>2079.6000977</ele>
        <time>2013-04-13T08:12:06Z</time>
      </trkpt>
      <trkpt lat="45.2157" lon="6.02634">
        <ele>2079.6000977</ele>
        <time>2013-04-13T08:12:09Z</time>
      </trkpt>
      <trkpt lat="45.21568" lon="6.02631">
        <ele>2079.6000977</ele>
        <time>2013-04-13T08:12:12Z</time>
      </trkpt>
      <trkpt lat="45.21567" lon="6.02628">
        <ele>2079.6000977</ele>
        <time>2013-04-13T08:12:15Z</time>
      </trkpt>
      <trkpt lat="45.21566" lon="6.02625">
        <ele>2079.6000977</ele>
        <time>2013-04-13T08:12:18Z</time>
      </trkpt>
      <trkpt lat="45.21566" lon="6.02623">
        <ele>2079.6000977</ele>
        <time>2013-04-13T08:12:21Z</time>
      </trkpt>
      <trkpt lat="45.21567" lon="6.0262">
        <ele>2079.6000977</ele>
        <time>2013-04-13T08:12:24Z</time>
      </trkpt>
      <trkpt lat="45.21566" lon="6.02618">
        <ele>2079.6000977</ele>
        <time>2013-04-13T08:12:27Z</time>
      </trkpt>
      <trkpt lat="45.21566" lon="6.02617">
        <ele>2080.1999512</ele>
        <time>2013-04-13T08:12:30Z</time>
      </trkpt>
      <trkpt lat="45.21565" lon="6.02618">
        <ele>2081</ele>
        <time>2013-04-13T08:12:33Z</time>
      </trkpt>
      <trkpt lat="45.21565" lon="6.0262">
        <ele>2081.6000977</ele>
        <time>2013-04-13T08:12:36Z</time>
      </trkpt>
      <trkpt lat="45.21565" lon="6.02619">
        <ele>2081.6000977</ele>
        <time>2013-04-13T08:12:39Z</time>
      </trkpt>
      <trkpt lat="45.21565" lon="6.02621">
        <ele>2081.6000977</ele>
        <time>2013-04-13T08:12:42Z</time>
      </trkpt>
      <trkpt lat="45.21565" lon="6.0262">
        <ele>2081.6000977</ele>
        <time>2013-04-13T08:12:45Z</time>
      </trkpt>
      <trkpt lat="45.21565" lon="6.02619">
        <ele>2081.6000977</ele>
        <time>2013-04-13T08:12:48Z</time>
      </trkpt>
      <trkpt lat="45.21565" lon="6.02619">
        <ele>2081.6000977</ele>
        <time>2013-04-13T08:12:51Z</time>
      </trkpt>
      <trkpt lat="45.21565" lon="6.02617">
        <ele>2081.6000977</ele>
        <time>2013-04-13T08:12:54Z</time>
      </trkpt>
      <trkpt lat="45.21564" lon="6.02616">
        <ele>2081.6000977</ele>
        <time>2013-04-13T08:12:57Z</time>
      </trkpt>
      <trkpt lat="45.21561" lon="6.02614">
        <ele>2082.6000977</ele>
        <time>2013-04-13T08:13:00Z</time>
      </trkpt>
      <trkpt lat="45.2156" lon="6.02614">
        <ele>2083.6000977</ele>
        <time>2013-04-13T08:13:03Z</time>
      </trkpt>
      <trkpt lat="45.2156" lon="6.02614">
        <ele>2083.6000977</ele>
        <time>2013-04-13T08:13:06Z</time>
      </trkpt>
      <trkpt lat="45.2156" lon="6.02614">
        <ele>2083.6000977</ele>
        <time>2013-04-13T08:13:09Z</time>
      </trkpt>
      <trkpt lat="45.2156" lon="6.02614">
        <ele>2083.6000977</ele>
        <time>2013-04-13T08:13:12Z</time>
      </trkpt>
      <trkpt lat="45.21561" lon="6.02614">
        <ele>2083.6000977</ele>
        <time>2013-04-13T08:13:15Z</time>
      </trkpt>
      <trkpt lat="45.2156" lon="6.02614">
        <ele>2083.6000977</ele>
        <time>2013-04-13T08:13:18Z</time>
      </trkpt>
      <trkpt lat="45.2156" lon="6.02614">
        <ele>2083.6000977</ele>
        <time>2013-04-13T08:13:21Z</time>
      </trkpt>
      <trkpt lat="45.21561" lon="6.02615">
        <ele>2083.6000977</ele>
        <time>2013-04-13T08:13:24Z</time>
      </trkpt>
      <trkpt lat="45.21561" lon="6.02615">
        <ele>2083.6000977</ele>
        <time>2013-04-13T08:13:27Z</time>
      </trkpt>
      <trkpt lat="45.21562" lon="6.02616">
        <ele>2083.6000977</ele>
        <time>2013-04-13T08:13:30Z</time>
      </trkpt>
      <trkpt lat="45.21562" lon="6.02616">
        <ele>2083.6000977</ele>
        <time>2013-04-13T08:13:33Z</time>
      </trkpt>
      <trkpt lat="45.21561" lon="6.02615">
        <ele>2083.6000977</ele>
        <time>2013-04-13T08:13:36Z</time>
      </trkpt>
      <trkpt lat="45.21561" lon="6.02615">
        <ele>2083.6000977</ele>
        <time>2013-04-13T08:13:39Z</time>
      </trkpt>
      <trkpt lat="45.21561" lon="6.02615">
        <ele>2083.6000977</ele>
        <time>2013-04-13T08:13:42Z</time>
      </trkpt>
      <trkpt lat="45.21561" lon="6.02615">
        <ele>2083.6000977</ele>
        <time>2013-04-13T08:13:45Z</time>
      </trkpt>
      <trkpt lat="45.21561" lon="6.02615">
        <ele>2083.6000977</ele>
        <time>2013-04-13T08:13:48Z</time>
      </trkpt>
      <trkpt lat="45.21561" lon="6.02615">
        <ele>2083.6000977</ele>
        <time>2013-04-13T08:13:51Z</time>
      </trkpt>
      <trkpt lat="45.21561" lon="6.02615">
        <ele>2083.6000977</ele>
        <time>2013-04-13T08:13:54Z</time>
      </trkpt>
      <trkpt lat="45.21561" lon="6.02615">
        <ele>2083.6000977</ele>
        <time>2013-04-13T08:13:57Z</time>
      </trkpt>
      <trkpt lat="45.21558" lon="6.02614">
        <ele>2083.6000977</ele>
        <time>2013-04-13T08:14:00Z</time>
      </trkpt>
      <trkpt lat="45.21555" lon="6.02611">
        <ele>2083.6000977</ele>
        <time>2013-04-13T08:14:03Z</time>
      </trkpt>
      <trkpt lat="45.21552" lon="6.0261">
        <ele>2083.6000977</ele>
        <time>2013-04-13T08:14:06Z</time>
      </trkpt>
      <trkpt lat="45.2155" lon="6.02611">
        <ele>2083.6000977</ele>
        <time>2013-04-13T08:14:09Z</time>
      </trkpt>
      <trkpt lat="45.21548" lon="6.02616">
        <ele>2083.6000977</ele>
        <time>2013-04-13T08:14:12Z</time>
      </trkpt>
      <trkpt lat="45.21546" lon="6.02622">
        <ele>2083.6000977</ele>
        <time>2013-04-13T08:14:15Z</time>
      </trkpt>
      <trkpt lat="45.21545" lon="6.02623">
        <ele>2083.6000977</ele>
        <time>2013-04-13T08:14:18Z</time>
      </trkpt>
      <trkpt lat="45.21543" lon="6.02627">
        <ele>2083.6000977</ele>
        <time>2013-04-13T08:14:21Z</time>
      </trkpt>
      <trkpt lat="45.21543" lon="6.02626">
        <ele>2083</ele>
        <time>2013-04-13T08:14:24Z</time>
      </trkpt>
      <trkpt lat="45.21541" lon="6.02624">
        <ele>2082.1999512</ele>
        <time>2013-04-13T08:14:27Z</time>
      </trkpt>
      <trkpt lat="45.21539" lon="6.02624">
        <ele>2081.6000977</ele>
        <time>2013-04-13T08:14:30Z</time>
      </trkpt>
      <trkpt lat="45.21538" lon="6.02622">
        <ele>2081.6000977</ele>
        <time>2013-04-13T08:14:33Z</time>
      </trkpt>
      <trkpt lat="45.21537" lon="6.02623">
        <ele>2081.1999512</ele>
        <time>2013-04-13T08:14:36Z</time>
      </trkpt>
      <trkpt lat="45.21536" lon="6.02621">
        <ele>2080.1999512</ele>
        <time>2013-04-13T08:14:39Z</time>
      </trkpt>
      <trkpt lat="45.21536" lon="6.0262">
        <ele>2079.6000977</ele>
        <time>2013-04-13T08:14:42Z</time>
      </trkpt>
      <trkpt lat="45.21536" lon="6.02619">
        <ele>2079.6000977</ele>
        <time>2013-04-13T08:14:45Z</time>
      </trkpt>
      <trkpt lat="45.21536" lon="6.02619">
        <ele>2079.6000977</ele>
        <time>2013-04-13T08:14:48Z</time>
      </trkpt>
      <trkpt lat="45.21535" lon="6.02618">
        <ele>2079.1999512</ele>
        <time>2013-04-13T08:14:51Z</time>
      </trkpt>
      <trkpt lat="45.21535" lon="6.02618">
        <ele>2078.1999512</ele>
        <time>2013-04-13T08:14:54Z</time>
      </trkpt>
      <trkpt lat="45.21535" lon="6.02618">
        <ele>2077.6000977</ele>
        <time>2013-04-13T08:14:57Z</time>
      </trkpt>
      <trkpt lat="45.21533" lon="6.02619">
        <ele>2077.6000977</ele>
        <time>2013-04-13T08:15:00Z</time>
      </trkpt>
      <trkpt lat="45.21534" lon="6.02618">
        <ele>2077.6000977</ele>
        <time>2013-04-13T08:15:03Z</time>
      </trkpt>
      <trkpt lat="45.21533" lon="6.02616">
        <ele>2077.6000977</ele>
        <time>2013-04-13T08:15:06Z</time>
      </trkpt>
      <trkpt lat="45.21533" lon="6.02617">
        <ele>2077.6000977</ele>
        <time>2013-04-13T08:15:09Z</time>
      </trkpt>
      <trkpt lat="45.21532" lon="6.02616">
        <ele>2077</ele>
        <time>2013-04-13T08:15:12Z</time>
      </trkpt>
      <trkpt lat="45.21532" lon="6.02616">
        <ele>2076</ele>
        <time>2013-04-13T08:15:15Z</time>
      </trkpt>
      <trkpt lat="45.2153" lon="6.02616">
        <ele>2075.1999512</ele>
        <time>2013-04-13T08:15:18Z</time>
      </trkpt>
      <trkpt lat="45.21522" lon="6.02606">
        <ele>2075.1999512</ele>
        <time>2013-04-13T08:15:21Z</time>
      </trkpt>
      <trkpt lat="45.21517" lon="6.02601">
        <ele>2074</ele>
        <time>2013-04-13T08:15:24Z</time>
      </trkpt>
      <trkpt lat="45.21517" lon="6.02601">
        <ele>2070</ele>
        <time>2013-04-13T08:15:27Z</time>
      </trkpt>
      <trkpt lat="45.21517" lon="6.02601">
        <ele>2067.8000488</ele>
        <time>2013-04-13T08:15:30Z</time>
      </trkpt>
      <trkpt lat="45.21516" lon="6.026">
        <ele>2067.8000488</ele>
        <time>2013-04-13T08:15:33Z</time>
      </trkpt>
      <trkpt lat="45.21515" lon="6.026">
        <ele>2067.8000488</ele>
        <time>2013-04-13T08:15:36Z</time>
      </trkpt>
      <trkpt lat="45.21513" lon="6.02598">
        <ele>2067.8000488</ele>
        <time>2013-04-13T08:15:39Z</time>
      </trkpt>
      <trkpt lat="45.21511" lon="6.02597">
        <ele>2067.8000488</ele>
        <time>2013-04-13T08:15:42Z</time>
      </trkpt>
      <trkpt lat="45.21507" lon="6.02595">
        <ele>2067.8000488</ele>
        <time>2013-04-13T08:15:45Z</time>
      </trkpt>
      <trkpt lat="45.21504" lon="6.02594">
        <ele>2068.1999512</ele>
        <time>2013-04-13T08:15:48Z</time>
      </trkpt>
      <trkpt lat="45.21501" lon="6.02592">
        <ele>2069.6000977</ele>
        <time>2013-04-13T08:15:51Z</time>
      </trkpt>
      <trkpt lat="45.21499" lon="6.02591">
        <ele>2069.8000488</ele>
        <time>2013-04-13T08:15:54Z</time>
      </trkpt>
      <trkpt lat="45.21496" lon="6.02589">
        <ele>2069.8000488</ele>
        <time>2013-04-13T08:15:57Z</time>
      </trkpt>
      <trkpt lat="45.21493" lon="6.02587">
        <ele>2069.8000488</ele>
        <time>2013-04-13T08:16:00Z</time>
      </trkpt>
      <trkpt lat="45.21489" lon="6.02584">
        <ele>2069.8000488</ele>
        <time>2013-04-13T08:16:03Z</time>
      </trkpt>
      <trkpt lat="45.21487" lon="6.02581">
        <ele>2069.8000488</ele>
        <time>2013-04-13T08:16:06Z</time>
      </trkpt>
      <trkpt lat="45.21483" lon="6.02574">
        <ele>2069.8000488</ele>
        <time>2013-04-13T08:16:09Z</time>
      </trkpt>
      <trkpt lat="45.21481" lon="6.0257">
        <ele>2069.8000488</ele>
        <time>2013-04-13T08:16:12Z</time>
      </trkpt>
      <trkpt lat="45.2148" lon="6.02565">
        <ele>2069.8000488</ele>
        <time>2013-04-13T08:16:15Z</time>
      </trkpt>
      <trkpt lat="45.21479" lon="6.02562">
        <ele>2069.8000488</ele>
        <time>2013-04-13T08:16:18Z</time>
      </trkpt>
      <trkpt lat="45.21479" lon="6.02563">
        <ele>2069.8000488</ele>
        <time>2013-04-13T08:16:21Z</time>
      </trkpt>
      <trkpt lat="45.21479" lon="6.02561">
        <ele>2069.8000488</ele>
        <time>2013-04-13T08:16:24Z</time>
      </trkpt>
      <trkpt lat="45.21479" lon="6.02561">
        <ele>2069.8000488</ele>
        <time>2013-04-13T08:16:27Z</time>
      </trkpt>
      <trkpt lat="45.21479" lon="6.02561">
        <ele>2069.8000488</ele>
        <time>2013-04-13T08:16:30Z</time>
      </trkpt>
      <trkpt lat="45.21479" lon="6.02561">
        <ele>2069.8000488</ele>
        <time>2013-04-13T08:16:33Z</time>
      </trkpt>
      <trkpt lat="45.21479" lon="6.02561">
        <ele>2069.8000488</ele>
        <time>2013-04-13T08:16:36Z</time>
      </trkpt>
      <trkpt lat="45.21479" lon="6.02562">
        <ele>2069.8000488</ele>
        <time>2013-04-13T08:16:39Z</time>
      </trkpt>
      <trkpt lat="45.2148" lon="6.02561">
        <ele>2069.8000488</ele>
        <time>2013-04-13T08:16:42Z</time>
      </trkpt>
      <trkpt lat="45.21479" lon="6.02557">
        <ele>2070.1999512</ele>
        <time>2013-04-13T08:16:45Z</time>
      </trkpt>
      <trkpt lat="45.21479" lon="6.02553">
        <ele>2071.6000977</ele>
        <time>2013-04-13T08:16:48Z</time>
      </trkpt>
      <trkpt lat="45.21478" lon="6.02549">
        <ele>2072</ele>
        <time>2013-04-13T08:16:51Z</time>
      </trkpt>
      <trkpt lat="45.21478" lon="6.02546">
        <ele>2072</ele>
        <time>2013-04-13T08:16:54Z</time>
      </trkpt>
      <trkpt lat="45.21476" lon="6.02543">
        <ele>2072</ele>
        <time>2013-04-13T08:16:57Z</time>
      </trkpt>
      <trkpt lat="45.21475" lon="6.02541">
        <ele>2072</ele>
        <time>2013-04-13T08:17:00Z</time>
      </trkpt>
      <trkpt lat="45.21473" lon="6.02538">
        <ele>2072.6000977</ele>
        <time>2013-04-13T08:17:03Z</time>
      </trkpt>
      <trkpt lat="45.21472" lon="6.02536">
        <ele>2073.6000977</ele>
        <time>2013-04-13T08:17:06Z</time>
      </trkpt>
      <trkpt lat="45.2147" lon="6.02533">
        <ele>2074</ele>
        <time>2013-04-13T08:17:09Z</time>
      </trkpt>
      <trkpt lat="45.21468" lon="6.0253">
        <ele>2074</ele>
        <time>2013-04-13T08:17:12Z</time>
      </trkpt>
      <trkpt lat="45.21466" lon="6.02525">
        <ele>2075.6000977</ele>
        <time>2013-04-13T08:17:15Z</time>
      </trkpt>
      <trkpt lat="45.21464" lon="6.02522">
        <ele>2076</ele>
        <time>2013-04-13T08:17:18Z</time>
      </trkpt>
      <trkpt lat="45.21462" lon="6.02518">
        <ele>2076</ele>
        <time>2013-04-13T08:17:21Z</time>
      </trkpt>
      <trkpt lat="45.2146" lon="6.02514">
        <ele>2076</ele>
        <time>2013-04-13T08:17:24Z</time>
      </trkpt>
      <trkpt lat="45.21458" lon="6.0251">
        <ele>2076</ele>
        <time>2013-04-13T08:17:27Z</time>
      </trkpt>
      <trkpt lat="45.21457" lon="6.02506">
        <ele>2077</ele>
        <time>2013-04-13T08:17:30Z</time>
      </trkpt>
      <trkpt lat="45.21455" lon="6.02501">
        <ele>2078.1999512</ele>
        <time>2013-04-13T08:17:33Z</time>
      </trkpt>
      <trkpt lat="45.21454" lon="6.02498">
        <ele>2078.6000977</ele>
        <time>2013-04-13T08:17:36Z</time>
      </trkpt>
      <trkpt lat="45.21453" lon="6.02494">
        <ele>2080</ele>
        <time>2013-04-13T08:17:39Z</time>
      </trkpt>
      <trkpt lat="45.21452" lon="6.02491">
        <ele>2080.6000977</ele>
        <time>2013-04-13T08:17:42Z</time>
      </trkpt>
      <trkpt lat="45.21451" lon="6.02488">
        <ele>2080.6000977</ele>
        <time>2013-04-13T08:17:45Z</time>
      </trkpt>
      <trkpt lat="45.2145" lon="6.02484">
        <ele>2080.8000488</ele>
        <time>2013-04-13T08:17:48Z</time>
      </trkpt>
      <trkpt lat="45.2145" lon="6.02481">
        <ele>2082</ele>
        <time>2013-04-13T08:17:51Z</time>
      </trkpt>
      <trkpt lat="45.21448" lon="6.02477">
        <ele>2083</ele>
        <time>2013-04-13T08:17:54Z</time>
      </trkpt>
      <trkpt lat="45.21447" lon="6.02474">
        <ele>2084.6000977</ele>
        <time>2013-04-13T08:17:57Z</time>
      </trkpt>
      <trkpt lat="45.21446" lon="6.02472">
        <ele>2085</ele>
        <time>2013-04-13T08:18:00Z</time>
      </trkpt>
      <trkpt lat="45.21444" lon="6.02469">
        <ele>2085</ele>
        <time>2013-04-13T08:18:03Z</time>
      </trkpt>
      <trkpt lat="45.21441" lon="6.02466">
        <ele>2085.8000488</ele>
        <time>2013-04-13T08:18:06Z</time>
      </trkpt>
      <trkpt lat="45.21439" lon="6.02463">
        <ele>2087</ele>
        <time>2013-04-13T08:18:09Z</time>
      </trkpt>
      <trkpt lat="45.21438" lon="6.02461">
        <ele>2087</ele>
        <time>2013-04-13T08:18:12Z</time>
      </trkpt>
      <trkpt lat="45.21435" lon="6.02457">
        <ele>2087</ele>
        <time>2013-04-13T08:18:15Z</time>
      </trkpt>
      <trkpt lat="45.21433" lon="6.02454">
        <ele>2087</ele>
        <time>2013-04-13T08:18:18Z</time>
      </trkpt>
      <trkpt lat="45.21431" lon="6.0245">
        <ele>2087</ele>
        <time>2013-04-13T08:18:21Z</time>
      </trkpt>
      <trkpt lat="45.21429" lon="6.02448">
        <ele>2087</ele>
        <time>2013-04-13T08:18:24Z</time>
      </trkpt>
      <trkpt lat="45.21426" lon="6.02445">
        <ele>2087.6000977</ele>
        <time>2013-04-13T08:18:27Z</time>
      </trkpt>
      <trkpt lat="45.21424" lon="6.02442">
        <ele>2088.6000977</ele>
        <time>2013-04-13T08:18:30Z</time>
      </trkpt>
      <trkpt lat="45.21421" lon="6.02439">
        <ele>2089</ele>
        <time>2013-04-13T08:18:33Z</time>
      </trkpt>
      <trkpt lat="45.21419" lon="6.02437">
        <ele>2089</ele>
        <time>2013-04-13T08:18:36Z</time>
      </trkpt>
      <trkpt lat="45.21417" lon="6.02434">
        <ele>2090</ele>
        <time>2013-04-13T08:18:39Z</time>
      </trkpt>
      <trkpt lat="45.21414" lon="6.02432">
        <ele>2091</ele>
        <time>2013-04-13T08:18:42Z</time>
      </trkpt>
      <trkpt lat="45.21412" lon="6.0243">
        <ele>2091.8000488</ele>
        <time>2013-04-13T08:18:45Z</time>
      </trkpt>
      <trkpt lat="45.21411" lon="6.02428">
        <ele>2092.8000488</ele>
        <time>2013-04-13T08:18:48Z</time>
      </trkpt>
      <trkpt lat="45.2141" lon="6.02427">
        <ele>2093</ele>
        <time>2013-04-13T08:18:51Z</time>
      </trkpt>
      <trkpt lat="45.2141" lon="6.02427">
        <ele>2093</ele>
        <time>2013-04-13T08:18:54Z</time>
      </trkpt>
      <trkpt lat="45.2141" lon="6.02427">
        <ele>2093</ele>
        <time>2013-04-13T08:18:57Z</time>
      </trkpt>
      <trkpt lat="45.2141" lon="6.02426">
        <ele>2094</ele>
        <time>2013-04-13T08:19:00Z</time>
      </trkpt>
      <trkpt lat="45.21408" lon="6.02424">
        <ele>2095.1999512</ele>
        <time>2013-04-13T08:19:03Z</time>
      </trkpt>
      <trkpt lat="45.21407" lon="6.02421">
        <ele>2096.6000977</ele>
        <time>2013-04-13T08:19:06Z</time>
      </trkpt>
      <trkpt lat="45.21405" lon="6.02418">
        <ele>2097.1999512</ele>
        <time>2013-04-13T08:19:09Z</time>
      </trkpt>
      <trkpt lat="45.21403" lon="6.02415">
        <ele>2097.1999512</ele>
        <time>2013-04-13T08:19:12Z</time>
      </trkpt>
      <trkpt lat="45.21401" lon="6.02413">
        <ele>2097.8000488</ele>
        <time>2013-04-13T08:19:15Z</time>
      </trkpt>
      <trkpt lat="45.21399" lon="6.02411">
        <ele>2098.8000488</ele>
        <time>2013-04-13T08:19:18Z</time>
      </trkpt>
      <trkpt lat="45.21397" lon="6.02409">
        <ele>2099.1999512</ele>
        <time>2013-04-13T08:19:21Z</time>
      </trkpt>
      <trkpt lat="45.21395" lon="6.02407">
        <ele>2099.1999512</ele>
        <time>2013-04-13T08:19:24Z</time>
      </trkpt>
      <trkpt lat="45.21393" lon="6.02406">
        <ele>2099.1999512</ele>
        <time>2013-04-13T08:19:27Z</time>
      </trkpt>
      <trkpt lat="45.21392" lon="6.02404">
        <ele>2099.1999512</ele>
        <time>2013-04-13T08:19:30Z</time>
      </trkpt>
      <trkpt lat="45.2139" lon="6.02402">
        <ele>2100</ele>
        <time>2013-04-13T08:19:33Z</time>
      </trkpt>
      <trkpt lat="45.21389" lon="6.024">
        <ele>2101</ele>
        <time>2013-04-13T08:19:36Z</time>
      </trkpt>
      <trkpt lat="45.21388" lon="6.02397">
        <ele>2101.1999512</ele>
        <time>2013-04-13T08:19:39Z</time>
      </trkpt>
      <trkpt lat="45.21387" lon="6.02393">
        <ele>2102</ele>
        <time>2013-04-13T08:19:42Z</time>
      </trkpt>
      <trkpt lat="45.21386" lon="6.02391">
        <ele>2103.1999512</ele>
        <time>2013-04-13T08:19:45Z</time>
      </trkpt>
      <trkpt lat="45.21385" lon="6.02388">
        <ele>2103.6000977</ele>
        <time>2013-04-13T08:19:48Z</time>
      </trkpt>
      <trkpt lat="45.21385" lon="6.02386">
        <ele>2104.8000488</ele>
        <time>2013-04-13T08:19:51Z</time>
      </trkpt>
      <trkpt lat="45.21384" lon="6.02384">
        <ele>2105.6000977</ele>
        <time>2013-04-13T08:19:54Z</time>
      </trkpt>
      <trkpt lat="45.21383" lon="6.02382">
        <ele>2105.6000977</ele>
        <time>2013-04-13T08:19:57Z</time>
      </trkpt>
      <trkpt lat="45.21382" lon="6.0238">
        <ele>2105.6000977</ele>
        <time>2013-04-13T08:20:00Z</time>
      </trkpt>
      <trkpt lat="45.21383" lon="6.0238">
        <ele>2105.6000977</ele>
        <time>2013-04-13T08:20:03Z</time>
      </trkpt>
      <trkpt lat="45.21385" lon="6.02379">
        <ele>2105.8000488</ele>
        <time>2013-04-13T08:20:06Z</time>
      </trkpt>
      <trkpt lat="45.21388" lon="6.02379">
        <ele>2107</ele>
        <time>2013-04-13T08:20:09Z</time>
      </trkpt>
      <trkpt lat="45.2139" lon="6.02378">
        <ele>2107.6000977</ele>
        <time>2013-04-13T08:20:12Z</time>
      </trkpt>
      <trkpt lat="45.21392" lon="6.02378">
        <ele>2107.8000488</ele>
        <time>2013-04-13T08:20:15Z</time>
      </trkpt>
      <trkpt lat="45.21392" lon="6.02378">
        <ele>2108.6000977</ele>
        <time>2013-04-13T08:20:18Z</time>
      </trkpt>
      <trkpt lat="45.21392" lon="6.02378">
        <ele>2109.6000977</ele>
        <time>2013-04-13T08:20:21Z</time>
      </trkpt>
      <trkpt lat="45.21392" lon="6.02378">
        <ele>2109.6000977</ele>
        <time>2013-04-13T08:20:24Z</time>
      </trkpt>
      <trkpt lat="45.21392" lon="6.02378">
        <ele>2109.6000977</ele>
        <time>2013-04-13T08:20:27Z</time>
      </trkpt>
      <trkpt lat="45.21393" lon="6.02378">
        <ele>2109.6000977</ele>
        <time>2013-04-13T08:20:30Z</time>
      </trkpt>
      <trkpt lat="45.21393" lon="6.02378">
        <ele>2109.6000977</ele>
        <time>2013-04-13T08:20:33Z</time>
      </trkpt>
      <trkpt lat="45.21393" lon="6.02378">
        <ele>2109.6000977</ele>
        <time>2013-04-13T08:20:36Z</time>
      </trkpt>
      <trkpt lat="45.21394" lon="6.02378">
        <ele>2109.6000977</ele>
        <time>2013-04-13T08:20:39Z</time>
      </trkpt>
      <trkpt lat="45.21394" lon="6.02375">
        <ele>2109.6000977</ele>
        <time>2013-04-13T08:20:42Z</time>
      </trkpt>
      <trkpt lat="45.21393" lon="6.02371">
        <ele>2109.8000488</ele>
        <time>2013-04-13T08:20:45Z</time>
      </trkpt>
      <trkpt lat="45.21391" lon="6.02369">
        <ele>2110.8000488</ele>
        <time>2013-04-13T08:20:48Z</time>
      </trkpt>
      <trkpt lat="45.21389" lon="6.02367">
        <ele>2111.6000977</ele>
        <time>2013-04-13T08:20:51Z</time>
      </trkpt>
      <trkpt lat="45.21388" lon="6.02365">
        <ele>2111.6000977</ele>
        <time>2013-04-13T08:20:54Z</time>
      </trkpt>
      <trkpt lat="45.21386" lon="6.02363">
        <ele>2112.6000977</ele>
        <time>2013-04-13T08:20:57Z</time>
      </trkpt>
      <trkpt lat="45.21385" lon="6.02362">
        <ele>2113.6000977</ele>
        <time>2013-04-13T08:21:00Z</time>
      </trkpt>
      <trkpt lat="45.21384" lon="6.0236">
        <ele>2114.6000977</ele>
        <time>2013-04-13T08:21:03Z</time>
      </trkpt>
      <trkpt lat="45.21383" lon="6.02358">
        <ele>2115</ele>
        <time>2013-04-13T08:21:06Z</time>
      </trkpt>
      <trkpt lat="45.21382" lon="6.02355">
        <ele>2116</ele>
        <time>2013-04-13T08:21:09Z</time>
      </trkpt>
      <trkpt lat="45.21382" lon="6.02352">
        <ele>2116.8000488</ele>
        <time>2013-04-13T08:21:12Z</time>
      </trkpt>
      <trkpt lat="45.21381" lon="6.02349">
        <ele>2117.8000488</ele>
        <time>2013-04-13T08:21:15Z</time>
      </trkpt>
      <trkpt lat="45.21381" lon="6.02347">
        <ele>2118.8000488</ele>
        <time>2013-04-13T08:21:18Z</time>
      </trkpt>
      <trkpt lat="45.2138" lon="6.02343">
        <ele>2120</ele>
        <time>2013-04-13T08:21:21Z</time>
      </trkpt>
      <trkpt lat="45.2138" lon="6.02341">
        <ele>2120</ele>
        <time>2013-04-13T08:21:24Z</time>
      </trkpt>
      <trkpt lat="45.21379" lon="6.02337">
        <ele>2120</ele>
        <time>2013-04-13T08:21:27Z</time>
      </trkpt>
      <trkpt lat="45.21379" lon="6.02335">
        <ele>2120</ele>
        <time>2013-04-13T08:21:30Z</time>
      </trkpt>
      <trkpt lat="45.21379" lon="6.02332">
        <ele>2120.6000977</ele>
        <time>2013-04-13T08:21:33Z</time>
      </trkpt>
      <trkpt lat="45.21378" lon="6.02329">
        <ele>2122</ele>
        <time>2013-04-13T08:21:36Z</time>
      </trkpt>
      <trkpt lat="45.21378" lon="6.02326">
        <ele>2122.6000977</ele>
        <time>2013-04-13T08:21:39Z</time>
      </trkpt>
      <trkpt lat="45.21377" lon="6.02323">
        <ele>2123.6000977</ele>
        <time>2013-04-13T08:21:42Z</time>
      </trkpt>
      <trkpt lat="45.21377" lon="6.02321">
        <ele>2124.1999512</ele>
        <time>2013-04-13T08:21:45Z</time>
      </trkpt>
      <trkpt lat="45.21377" lon="6.02319">
        <ele>2124.6000977</ele>
        <time>2013-04-13T08:21:48Z</time>
      </trkpt>
      <trkpt lat="45.21377" lon="6.02315">
        <ele>2125.6000977</ele>
        <time>2013-04-13T08:21:51Z</time>
      </trkpt>
      <trkpt lat="45.21377" lon="6.02312">
        <ele>2126.1999512</ele>
        <time>2013-04-13T08:21:54Z</time>
      </trkpt>
      <trkpt lat="45.21378" lon="6.0231">
        <ele>2126.6000977</ele>
        <time>2013-04-13T08:21:57Z</time>
      </trkpt>
      <trkpt lat="45.21377" lon="6.02307">
        <ele>2127.6000977</ele>
        <time>2013-04-13T08:22:00Z</time>
      </trkpt>
      <trkpt lat="45.21378" lon="6.02304">
        <ele>2128.1999512</ele>
        <time>2013-04-13T08:22:03Z</time>
      </trkpt>
      <trkpt lat="45.21378" lon="6.02302">
        <ele>2129</ele>
        <time>2013-04-13T08:22:06Z</time>
      </trkpt>
      <trkpt lat="45.21377" lon="6.02299">
        <ele>2130.6000977</ele>
        <time>2013-04-13T08:22:09Z</time>
      </trkpt>
      <trkpt lat="45.21377" lon="6.02296">
        <ele>2130.6000977</ele>
        <time>2013-04-13T08:22:12Z</time>
      </trkpt>
      <trkpt lat="45.21377" lon="6.02293">
        <ele>2130.8000488</ele>
        <time>2013-04-13T08:22:15Z</time>
      </trkpt>
      <trkpt lat="45.21377" lon="6.0229">
        <ele>2131.8000488</ele>
        <time>2013-04-13T08:22:18Z</time>
      </trkpt>
      <trkpt lat="45.21377" lon="6.02289">
        <ele>2132.8000488</ele>
        <time>2013-04-13T08:22:21Z</time>
      </trkpt>
      <trkpt lat="45.21377" lon="6.02288">
        <ele>2132.8000488</ele>
        <time>2013-04-13T08:22:24Z</time>
      </trkpt>
      <trkpt lat="45.21377" lon="6.02289">
        <ele>2132.8000488</ele>
        <time>2013-04-13T08:22:27Z</time>
      </trkpt>
      <trkpt lat="45.21377" lon="6.02289">
        <ele>2132.8000488</ele>
        <time>2013-04-13T08:22:30Z</time>
      </trkpt>
      <trkpt lat="45.21376" lon="6.02289">
        <ele>2132.8000488</ele>
        <time>2013-04-13T08:22:33Z</time>
      </trkpt>
      <trkpt lat="45.21376" lon="6.02289">
        <ele>2132.8000488</ele>
        <time>2013-04-13T08:22:36Z</time>
      </trkpt>
      <trkpt lat="45.21376" lon="6.02289">
        <ele>2132.8000488</ele>
        <time>2013-04-13T08:22:39Z</time>
      </trkpt>
      <trkpt lat="45.21376" lon="6.02289">
        <ele>2132.8000488</ele>
        <time>2013-04-13T08:22:42Z</time>
      </trkpt>
      <trkpt lat="45.21376" lon="6.02285">
        <ele>2132.8000488</ele>
        <time>2013-04-13T08:22:45Z</time>
      </trkpt>
      <trkpt lat="45.21377" lon="6.0228">
        <ele>2132.8000488</ele>
        <time>2013-04-13T08:22:48Z</time>
      </trkpt>
      <trkpt lat="45.21377" lon="6.02275">
        <ele>2132.8000488</ele>
        <time>2013-04-13T08:22:51Z</time>
      </trkpt>
      <trkpt lat="45.21378" lon="6.02272">
        <ele>2133.1999512</ele>
        <time>2013-04-13T08:22:54Z</time>
      </trkpt>
      <trkpt lat="45.21379" lon="6.02267">
        <ele>2134.8000488</ele>
        <time>2013-04-13T08:22:57Z</time>
      </trkpt>
      <trkpt lat="45.21379" lon="6.02264">
        <ele>2134.8000488</ele>
        <time>2013-04-13T08:23:00Z</time>
      </trkpt>
      <trkpt lat="45.21379" lon="6.02259">
        <ele>2135.1999512</ele>
        <time>2013-04-13T08:23:03Z</time>
      </trkpt>
      <trkpt lat="45.21379" lon="6.02255">
        <ele>2136</ele>
        <time>2013-04-13T08:23:06Z</time>
      </trkpt>
      <trkpt lat="45.2138" lon="6.02249">
        <ele>2136.8000488</ele>
        <time>2013-04-13T08:23:09Z</time>
      </trkpt>
      <trkpt lat="45.2138" lon="6.02244">
        <ele>2136.8000488</ele>
        <time>2013-04-13T08:23:12Z</time>
      </trkpt>
      <trkpt lat="45.2138" lon="6.02238">
        <ele>2136.8000488</ele>
        <time>2013-04-13T08:23:15Z</time>
      </trkpt>
      <trkpt lat="45.21379" lon="6.02233">
        <ele>2136.8000488</ele>
        <time>2013-04-13T08:23:18Z</time>
      </trkpt>
      <trkpt lat="45.21379" lon="6.02227">
        <ele>2136.8000488</ele>
        <time>2013-04-13T08:23:21Z</time>
      </trkpt>
      <trkpt lat="45.21379" lon="6.02223">
        <ele>2137.6000977</ele>
        <time>2013-04-13T08:23:24Z</time>
      </trkpt>
      <trkpt lat="45.21379" lon="6.02217">
        <ele>2138.6000977</ele>
        <time>2013-04-13T08:23:27Z</time>
      </trkpt>
      <trkpt lat="45.2138" lon="6.02214">
        <ele>2139</ele>
        <time>2013-04-13T08:23:30Z</time>
      </trkpt>
      <trkpt lat="45.21381" lon="6.02208">
        <ele>2139</ele>
        <time>2013-04-13T08:23:33Z</time>
      </trkpt>
      <trkpt lat="45.21382" lon="6.02203">
        <ele>2139</ele>
        <time>2013-04-13T08:23:36Z</time>
      </trkpt>
      <trkpt lat="45.21384" lon="6.02198">
        <ele>2139</ele>
        <time>2013-04-13T08:23:39Z</time>
      </trkpt>
      <trkpt lat="45.21385" lon="6.02193">
        <ele>2139</ele>
        <time>2013-04-13T08:23:42Z</time>
      </trkpt>
      <trkpt lat="45.21385" lon="6.02186">
        <ele>2139</ele>
        <time>2013-04-13T08:23:45Z</time>
      </trkpt>
      <trkpt lat="45.21385" lon="6.0218">
        <ele>2139</ele>
        <time>2013-04-13T08:23:48Z</time>
      </trkpt>
      <trkpt lat="45.21385" lon="6.02173">
        <ele>2139</ele>
        <time>2013-04-13T08:23:51Z</time>
      </trkpt>
      <trkpt lat="45.21384" lon="6.02168">
        <ele>2139</ele>
        <time>2013-04-13T08:23:54Z</time>
      </trkpt>
      <trkpt lat="45.21383" lon="6.02162">
        <ele>2139</ele>
        <time>2013-04-13T08:23:57Z</time>
      </trkpt>
      <trkpt lat="45.21382" lon="6.02158">
        <ele>2139</ele>
        <time>2013-04-13T08:24:00Z</time>
      </trkpt>
      <trkpt lat="45.21381" lon="6.02153">
        <ele>2139</ele>
        <time>2013-04-13T08:24:03Z</time>
      </trkpt>
      <trkpt lat="45.21381" lon="6.02149">
        <ele>2139</ele>
        <time>2013-04-13T08:24:06Z</time>
      </trkpt>
      <trkpt lat="45.2138" lon="6.02144">
        <ele>2139</ele>
        <time>2013-04-13T08:24:09Z</time>
      </trkpt>
      <trkpt lat="45.21379" lon="6.02141">
        <ele>2139</ele>
        <time>2013-04-13T08:24:12Z</time>
      </trkpt>
      <trkpt lat="45.21378" lon="6.02137">
        <ele>2139</ele>
        <time>2013-04-13T08:24:15Z</time>
      </trkpt>
      <trkpt lat="45.21377" lon="6.02133">
        <ele>2139.1999512</ele>
        <time>2013-04-13T08:24:18Z</time>
      </trkpt>
      <trkpt lat="45.21376" lon="6.0213">
        <ele>2140.6000977</ele>
        <time>2013-04-13T08:24:21Z</time>
      </trkpt>
      <trkpt lat="45.21375" lon="6.02126">
        <ele>2141</ele>
        <time>2013-04-13T08:24:24Z</time>
      </trkpt>
      <trkpt lat="45.21375" lon="6.02122">
        <ele>2142.1999512</ele>
        <time>2013-04-13T08:24:27Z</time>
      </trkpt>
      <trkpt lat="45.21375" lon="6.02119">
        <ele>2143</ele>
        <time>2013-04-13T08:24:30Z</time>
      </trkpt>
      <trkpt lat="45.21376" lon="6.02114">
        <ele>2143</ele>
        <time>2013-04-13T08:24:33Z</time>
      </trkpt>
      <trkpt lat="45.21376" lon="6.0211">
        <ele>2143</ele>
        <time>2013-04-13T08:24:36Z</time>
      </trkpt>
      <trkpt lat="45.21378" lon="6.02105">
        <ele>2144</ele>
        <time>2013-04-13T08:24:39Z</time>
      </trkpt>
      <trkpt lat="45.21378" lon="6.02101">
        <ele>2145</ele>
        <time>2013-04-13T08:24:42Z</time>
      </trkpt>
      <trkpt lat="45.21379" lon="6.02096">
        <ele>2145</ele>
        <time>2013-04-13T08:24:45Z</time>
      </trkpt>
      <trkpt lat="45.21379" lon="6.02092">
        <ele>2145</ele>
        <time>2013-04-13T08:24:48Z</time>
      </trkpt>
      <trkpt lat="45.21379" lon="6.02091">
        <ele>2145</ele>
        <time>2013-04-13T08:24:51Z</time>
      </trkpt>
      <trkpt lat="45.21379" lon="6.02089">
        <ele>2145</ele>
        <time>2013-04-13T08:24:54Z</time>
      </trkpt>
      <trkpt lat="45.21379" lon="6.02084">
        <ele>2145</ele>
        <time>2013-04-13T08:24:57Z</time>
      </trkpt>
      <trkpt lat="45.21379" lon="6.0208">
        <ele>2145</ele>
        <time>2013-04-13T08:25:00Z</time>
      </trkpt>
      <trkpt lat="45.21378" lon="6.02076">
        <ele>2146</ele>
        <time>2013-04-13T08:25:03Z</time>
      </trkpt>
      <trkpt lat="45.21379" lon="6.02076">
        <ele>2147</ele>
        <time>2013-04-13T08:25:06Z</time>
      </trkpt>
      <trkpt lat="45.21378" lon="6.02076">
        <ele>2147</ele>
        <time>2013-04-13T08:25:09Z</time>
      </trkpt>
      <trkpt lat="45.21378" lon="6.02076">
        <ele>2147</ele>
        <time>2013-04-13T08:25:12Z</time>
      </trkpt>
      <trkpt lat="45.21378" lon="6.02076">
        <ele>2147</ele>
        <time>2013-04-13T08:25:15Z</time>
      </trkpt>
      <trkpt lat="45.21379" lon="6.02075">
        <ele>2147</ele>
        <time>2013-04-13T08:25:18Z</time>
      </trkpt>
      <trkpt lat="45.21378" lon="6.0207">
        <ele>2147</ele>
        <time>2013-04-13T08:25:21Z</time>
      </trkpt>
      <trkpt lat="45.21378" lon="6.02066">
        <ele>2147.8000488</ele>
        <time>2013-04-13T08:25:24Z</time>
      </trkpt>
      <trkpt lat="45.21377" lon="6.02061">
        <ele>2149</ele>
        <time>2013-04-13T08:25:27Z</time>
      </trkpt>
      <trkpt lat="45.21377" lon="6.02058">
        <ele>2149.1999512</ele>
        <time>2013-04-13T08:25:30Z</time>
      </trkpt>
      <trkpt lat="45.21376" lon="6.02054">
        <ele>2150</ele>
        <time>2013-04-13T08:25:33Z</time>
      </trkpt>
      <trkpt lat="45.21376" lon="6.0205">
        <ele>2150.6000977</ele>
        <time>2013-04-13T08:25:36Z</time>
      </trkpt>
      <trkpt lat="45.21375" lon="6.02046">
        <ele>2151.1999512</ele>
        <time>2013-04-13T08:25:39Z</time>
      </trkpt>
      <trkpt lat="45.21374" lon="6.02044">
        <ele>2152.1999512</ele>
        <time>2013-04-13T08:25:42Z</time>
      </trkpt>
      <trkpt lat="45.21374" lon="6.0204">
        <ele>2153.1999512</ele>
        <time>2013-04-13T08:25:45Z</time>
      </trkpt>
      <trkpt lat="45.21374" lon="6.02036">
        <ele>2153.6000977</ele>
        <time>2013-04-13T08:25:48Z</time>
      </trkpt>
      <trkpt lat="45.21375" lon="6.02032">
        <ele>2154</ele>
        <time>2013-04-13T08:25:51Z</time>
      </trkpt>
      <trkpt lat="45.21375" lon="6.02028">
        <ele>2155.8000488</ele>
        <time>2013-04-13T08:25:54Z</time>
      </trkpt>
      <trkpt lat="45.21374" lon="6.02023">
        <ele>2156</ele>
        <time>2013-04-13T08:25:57Z</time>
      </trkpt>
      <trkpt lat="45.21374" lon="6.02019">
        <ele>2156</ele>
        <time>2013-04-13T08:26:00Z</time>
      </trkpt>
      <trkpt lat="45.21373" lon="6.02014">
        <ele>2156</ele>
        <time>2013-04-13T08:26:03Z</time>
      </trkpt>
      <trkpt lat="45.21373" lon="6.0201">
        <ele>2156</ele>
        <time>2013-04-13T08:26:06Z</time>
      </trkpt>
      <trkpt lat="45.21371" lon="6.02004">
        <ele>2156</ele>
        <time>2013-04-13T08:26:09Z</time>
      </trkpt>
      <trkpt lat="45.2137" lon="6.01999">
        <ele>2156.8000488</ele>
        <time>2013-04-13T08:26:12Z</time>
      </trkpt>
      <trkpt lat="45.21368" lon="6.01995">
        <ele>2158</ele>
        <time>2013-04-13T08:26:15Z</time>
      </trkpt>
      <trkpt lat="45.21367" lon="6.01989">
        <ele>2158</ele>
        <time>2013-04-13T08:26:18Z</time>
      </trkpt>
      <trkpt lat="45.21366" lon="6.01984">
        <ele>2158</ele>
        <time>2013-04-13T08:26:21Z</time>
      </trkpt>
      <trkpt lat="45.21366" lon="6.01979">
        <ele>2158</ele>
        <time>2013-04-13T08:26:24Z</time>
      </trkpt>
      <trkpt lat="45.21366" lon="6.01979">
        <ele>2158</ele>
        <time>2013-04-13T08:26:27Z</time>
      </trkpt>
      <trkpt lat="45.21366" lon="6.01975">
        <ele>2157</ele>
        <time>2013-04-13T08:26:30Z</time>
      </trkpt>
      <trkpt lat="45.21366" lon="6.01974">
        <ele>2155.8000488</ele>
        <time>2013-04-13T08:26:33Z</time>
      </trkpt>
      <trkpt lat="45.21366" lon="6.01974">
        <ele>2155.8000488</ele>
        <time>2013-04-13T08:26:36Z</time>
      </trkpt>
      <trkpt lat="45.21365" lon="6.01972">
        <ele>2155.8000488</ele>
        <time>2013-04-13T08:26:39Z</time>
      </trkpt>
      <trkpt lat="45.21364" lon="6.0197">
        <ele>2155.8000488</ele>
        <time>2013-04-13T08:26:42Z</time>
      </trkpt>
      <trkpt lat="45.21361" lon="6.01967">
        <ele>2155.8000488</ele>
        <time>2013-04-13T08:26:45Z</time>
      </trkpt>
      <trkpt lat="45.21358" lon="6.01963">
        <ele>2155.8000488</ele>
        <time>2013-04-13T08:26:48Z</time>
      </trkpt>
      <trkpt lat="45.21355" lon="6.0196">
        <ele>2155.8000488</ele>
        <time>2013-04-13T08:26:51Z</time>
      </trkpt>
      <trkpt lat="45.21353" lon="6.01957">
        <ele>2155.8000488</ele>
        <time>2013-04-13T08:26:54Z</time>
      </trkpt>
      <trkpt lat="45.21351" lon="6.01953">
        <ele>2155.8000488</ele>
        <time>2013-04-13T08:26:57Z</time>
      </trkpt>
      <trkpt lat="45.2135" lon="6.0195">
        <ele>2156</ele>
        <time>2013-04-13T08:27:00Z</time>
      </trkpt>
      <trkpt lat="45.21349" lon="6.01946">
        <ele>2157.6000977</ele>
        <time>2013-04-13T08:27:03Z</time>
      </trkpt>
      <trkpt lat="45.21348" lon="6.01942">
        <ele>2158</ele>
        <time>2013-04-13T08:27:06Z</time>
      </trkpt>
      <trkpt lat="45.21348" lon="6.01937">
        <ele>2158</ele>
        <time>2013-04-13T08:27:09Z</time>
      </trkpt>
      <trkpt lat="45.21347" lon="6.01933">
        <ele>2158</ele>
        <time>2013-04-13T08:27:12Z</time>
      </trkpt>
      <trkpt lat="45.21346" lon="6.01929">
        <ele>2158</ele>
        <time>2013-04-13T08:27:15Z</time>
      </trkpt>
      <trkpt lat="45.21345" lon="6.01927">
        <ele>2159</ele>
        <time>2013-04-13T08:27:18Z</time>
      </trkpt>
      <trkpt lat="45.21344" lon="6.01924">
        <ele>2160</ele>
        <time>2013-04-13T08:27:21Z</time>
      </trkpt>
      <trkpt lat="45.21344" lon="6.01923">
        <ele>2160</ele>
        <time>2013-04-13T08:27:24Z</time>
      </trkpt>
      <trkpt lat="45.21342" lon="6.0192">
        <ele>2160</ele>
        <time>2013-04-13T08:27:27Z</time>
      </trkpt>
      <trkpt lat="45.21341" lon="6.01917">
        <ele>2160</ele>
        <time>2013-04-13T08:27:30Z</time>
      </trkpt>
      <trkpt lat="45.21339" lon="6.01913">
        <ele>2160</ele>
        <time>2013-04-13T08:27:33Z</time>
      </trkpt>
      <trkpt lat="45.21338" lon="6.01908">
        <ele>2160</ele>
        <time>2013-04-13T08:27:36Z</time>
      </trkpt>
      <trkpt lat="45.21335" lon="6.01902">
        <ele>2160</ele>
        <time>2013-04-13T08:27:39Z</time>
      </trkpt>
      <trkpt lat="45.21334" lon="6.01896">
        <ele>2159</ele>
        <time>2013-04-13T08:27:42Z</time>
      </trkpt>
      <trkpt lat="45.21332" lon="6.0189">
        <ele>2157.6000977</ele>
        <time>2013-04-13T08:27:45Z</time>
      </trkpt>
      <trkpt lat="45.2133" lon="6.01885">
        <ele>2155.8000488</ele>
        <time>2013-04-13T08:27:48Z</time>
      </trkpt>
      <trkpt lat="45.21327" lon="6.01876">
        <ele>2154</ele>
        <time>2013-04-13T08:27:51Z</time>
      </trkpt>
      <trkpt lat="45.21326" lon="6.0187">
        <ele>2152.8000488</ele>
        <time>2013-04-13T08:27:54Z</time>
      </trkpt>
      <trkpt lat="45.21323" lon="6.0186">
        <ele>2151</ele>
        <time>2013-04-13T08:27:57Z</time>
      </trkpt>
      <trkpt lat="45.21321" lon="6.01853">
        <ele>2149.8000488</ele>
        <time>2013-04-13T08:28:00Z</time>
      </trkpt>
      <trkpt lat="45.21319" lon="6.01842">
        <ele>2147.6000977</ele>
        <time>2013-04-13T08:28:03Z</time>
      </trkpt>
      <trkpt lat="45.21316" lon="6.01832">
        <ele>2145.1999512</ele>
        <time>2013-04-13T08:28:06Z</time>
      </trkpt>
      <trkpt lat="45.21312" lon="6.01815">
        <ele>2142.1999512</ele>
        <time>2013-04-13T08:28:09Z</time>
      </trkpt>
      <trkpt lat="45.2131" lon="6.01802">
        <ele>2140.1999512</ele>
        <time>2013-04-13T08:28:12Z</time>
      </trkpt>
      <trkpt lat="45.21308" lon="6.01794">
        <ele>2137</ele>
        <time>2013-04-13T08:28:15Z</time>
      </trkpt>
      <trkpt lat="45.21309" lon="6.01793">
        <ele>2134.1999512</ele>
        <time>2013-04-13T08:28:18Z</time>
      </trkpt>
      <trkpt lat="45.21309" lon="6.01791">
        <ele>2132.6000977</ele>
        <time>2013-04-13T08:28:21Z</time>
      </trkpt>
      <trkpt lat="45.21308" lon="6.01786">
        <ele>2131.6000977</ele>
        <time>2013-04-13T08:28:24Z</time>
      </trkpt>
      <trkpt lat="45.21307" lon="6.01779">
        <ele>2131.1999512</ele>
        <time>2013-04-13T08:28:27Z</time>
      </trkpt>
      <trkpt lat="45.21307" lon="6.01777">
        <ele>2131.1999512</ele>
        <time>2013-04-13T08:28:30Z</time>
      </trkpt>
      <trkpt lat="45.21307" lon="6.01772">
        <ele>2131.1999512</ele>
        <time>2013-04-13T08:28:33Z</time>
      </trkpt>
      <trkpt lat="45.21306" lon="6.01769">
        <ele>2131.1999512</ele>
        <time>2013-04-13T08:28:36Z</time>
      </trkpt>
      <trkpt lat="45.21305" lon="6.01763">
        <ele>2132</ele>
        <time>2013-04-13T08:28:39Z</time>
      </trkpt>
      <trkpt lat="45.21304" lon="6.01759">
        <ele>2132.8000488</ele>
        <time>2013-04-13T08:28:42Z</time>
      </trkpt>
      <trkpt lat="45.21302" lon="6.01754">
        <ele>2133.6000977</ele>
        <time>2013-04-13T08:28:45Z</time>
      </trkpt>
      <trkpt lat="45.21301" lon="6.0175">
        <ele>2133.6000977</ele>
        <time>2013-04-13T08:28:48Z</time>
      </trkpt>
      <trkpt lat="45.21299" lon="6.01746">
        <ele>2133.6000977</ele>
        <time>2013-04-13T08:28:51Z</time>
      </trkpt>
      <trkpt lat="45.21297" lon="6.01742">
        <ele>2133.6000977</ele>
        <time>2013-04-13T08:28:54Z</time>
      </trkpt>
      <trkpt lat="45.21295" lon="6.01737">
        <ele>2133.6000977</ele>
        <time>2013-04-13T08:28:57Z</time>
      </trkpt>
      <trkpt lat="45.21294" lon="6.01734">
        <ele>2133.6000977</ele>
        <time>2013-04-13T08:29:00Z</time>
      </trkpt>
      <trkpt lat="45.21292" lon="6.01729">
        <ele>2133.6000977</ele>
        <time>2013-04-13T08:29:03Z</time>
      </trkpt>
      <trkpt lat="45.21292" lon="6.01726">
        <ele>2133.6000977</ele>
        <time>2013-04-13T08:29:06Z</time>
      </trkpt>
      <trkpt lat="45.2129" lon="6.01723">
        <ele>2134</ele>
        <time>2013-04-13T08:29:09Z</time>
      </trkpt>
      <trkpt lat="45.2129" lon="6.0172">
        <ele>2135</ele>
        <time>2013-04-13T08:29:12Z</time>
      </trkpt>
      <trkpt lat="45.21289" lon="6.01716">
        <ele>2136</ele>
        <time>2013-04-13T08:29:15Z</time>
      </trkpt>
      <trkpt lat="45.21288" lon="6.01712">
        <ele>2137.1999512</ele>
        <time>2013-04-13T08:29:18Z</time>
      </trkpt>
      <trkpt lat="45.21287" lon="6.01709">
        <ele>2137.6000977</ele>
        <time>2013-04-13T08:29:21Z</time>
      </trkpt>
      <trkpt lat="45.21287" lon="6.01706">
        <ele>2137.6000977</ele>
        <time>2013-04-13T08:29:24Z</time>
      </trkpt>
      <trkpt lat="45.21286" lon="6.01704">
        <ele>2138</ele>
        <time>2013-04-13T08:29:27Z</time>
      </trkpt>
      <trkpt lat="45.21287" lon="6.01704">
        <ele>2139.1999512</ele>
        <time>2013-04-13T08:29:30Z</time>
      </trkpt>
      <trkpt lat="45.21287" lon="6.01704">
        <ele>2140</ele>
        <time>2013-04-13T08:29:33Z</time>
      </trkpt>
      <trkpt lat="45.21287" lon="6.01704">
        <ele>2140</ele>
        <time>2013-04-13T08:29:36Z</time>
      </trkpt>
      <trkpt lat="45.21286" lon="6.017">
        <ele>2140</ele>
        <time>2013-04-13T08:29:39Z</time>
      </trkpt>
      <trkpt lat="45.21286" lon="6.01697">
        <ele>2140</ele>
        <time>2013-04-13T08:29:42Z</time>
      </trkpt>
      <trkpt lat="45.21285" lon="6.01692">
        <ele>2141.1999512</ele>
        <time>2013-04-13T08:29:45Z</time>
      </trkpt>
      <trkpt lat="45.21285" lon="6.01689">
        <ele>2142</ele>
        <time>2013-04-13T08:29:48Z</time>
      </trkpt>
      <trkpt lat="45.21284" lon="6.01684">
        <ele>2142</ele>
        <time>2013-04-13T08:29:51Z</time>
      </trkpt>
      <trkpt lat="45.21283" lon="6.01681">
        <ele>2142</ele>
        <time>2013-04-13T08:29:54Z</time>
      </trkpt>
      <trkpt lat="45.21283" lon="6.01677">
        <ele>2142.1999512</ele>
        <time>2013-04-13T08:29:57Z</time>
      </trkpt>
      <trkpt lat="45.21282" lon="6.01673">
        <ele>2143.6000977</ele>
        <time>2013-04-13T08:30:00Z</time>
      </trkpt>
      <trkpt lat="45.21281" lon="6.0167">
        <ele>2144</ele>
        <time>2013-04-13T08:30:03Z</time>
      </trkpt>
      <trkpt lat="45.21281" lon="6.01667">
        <ele>2144</ele>
        <time>2013-04-13T08:30:06Z</time>
      </trkpt>
      <trkpt lat="45.2128" lon="6.01665">
        <ele>2145.1999512</ele>
        <time>2013-04-13T08:30:09Z</time>
      </trkpt>
      <trkpt lat="45.21281" lon="6.01665">
        <ele>2146</ele>
        <time>2013-04-13T08:30:12Z</time>
      </trkpt>
      <trkpt lat="45.21281" lon="6.01665">
        <ele>2146</ele>
        <time>2013-04-13T08:30:15Z</time>
      </trkpt>
      <trkpt lat="45.2128" lon="6.01665">
        <ele>2146</ele>
        <time>2013-04-13T08:30:18Z</time>
      </trkpt>
      <trkpt lat="45.2128" lon="6.01665">
        <ele>2146</ele>
        <time>2013-04-13T08:30:21Z</time>
      </trkpt>
      <trkpt lat="45.2128" lon="6.01665">
        <ele>2146</ele>
        <time>2013-04-13T08:30:24Z</time>
      </trkpt>
      <trkpt lat="45.2128" lon="6.01665">
        <ele>2146</ele>
        <time>2013-04-13T08:30:27Z</time>
      </trkpt>
      <trkpt lat="45.2128" lon="6.01665">
        <ele>2146</ele>
        <time>2013-04-13T08:30:30Z</time>
      </trkpt>
      <trkpt lat="45.2128" lon="6.01665">
        <ele>2146</ele>
        <time>2013-04-13T08:30:33Z</time>
      </trkpt>
      <trkpt lat="45.2128" lon="6.01665">
        <ele>2146</ele>
        <time>2013-04-13T08:30:36Z</time>
      </trkpt>
      <trkpt lat="45.2128" lon="6.01661">
        <ele>2146</ele>
        <time>2013-04-13T08:30:39Z</time>
      </trkpt>
      <trkpt lat="45.21279" lon="6.01658">
        <ele>2146.8000488</ele>
        <time>2013-04-13T08:30:42Z</time>
      </trkpt>
      <trkpt lat="45.21278" lon="6.01655">
        <ele>2148</ele>
        <time>2013-04-13T08:30:45Z</time>
      </trkpt>
      <trkpt lat="45.21277" lon="6.01653">
        <ele>2148</ele>
        <time>2013-04-13T08:30:48Z</time>
      </trkpt>
      <trkpt lat="45.21276" lon="6.01649">
        <ele>2149</ele>
        <time>2013-04-13T08:30:51Z</time>
      </trkpt>
      <trkpt lat="45.21274" lon="6.01646">
        <ele>2149.8000488</ele>
        <time>2013-04-13T08:30:54Z</time>
      </trkpt>
      <trkpt lat="45.21273" lon="6.01643">
        <ele>2150.1999512</ele>
        <time>2013-04-13T08:30:57Z</time>
      </trkpt>
      <trkpt lat="45.21271" lon="6.0164">
        <ele>2151.1999512</ele>
        <time>2013-04-13T08:31:00Z</time>
      </trkpt>
      <trkpt lat="45.2127" lon="6.01636">
        <ele>2152.1999512</ele>
        <time>2013-04-13T08:31:03Z</time>
      </trkpt>
      <trkpt lat="45.21269" lon="6.01634">
        <ele>2152.1999512</ele>
        <time>2013-04-13T08:31:06Z</time>
      </trkpt>
      <trkpt lat="45.21267" lon="6.0163">
        <ele>2153.8000488</ele>
        <time>2013-04-13T08:31:09Z</time>
      </trkpt>
      <trkpt lat="45.21266" lon="6.01627">
        <ele>2154.1999512</ele>
        <time>2013-04-13T08:31:12Z</time>
      </trkpt>
      <trkpt lat="45.21265" lon="6.01624">
        <ele>2154.1999512</ele>
        <time>2013-04-13T08:31:15Z</time>
      </trkpt>
      <trkpt lat="45.21264" lon="6.01621">
        <ele>2155</ele>
        <time>2013-04-13T08:31:18Z</time>
      </trkpt>
      <trkpt lat="45.21262" lon="6.01618">
        <ele>2155.8000488</ele>
        <time>2013-04-13T08:31:21Z</time>
      </trkpt>
      <trkpt lat="45.21261" lon="6.01615">
        <ele>2156.1999512</ele>
        <time>2013-04-13T08:31:24Z</time>
      </trkpt>
      <trkpt lat="45.2126" lon="6.01613">
        <ele>2157</ele>
        <time>2013-04-13T08:31:27Z</time>
      </trkpt>
      <trkpt lat="45.21258" lon="6.01611">
        <ele>2158.1999512</ele>
        <time>2013-04-13T08:31:30Z</time>
      </trkpt>
      <trkpt lat="45.21257" lon="6.01608">
        <ele>2158.1999512</ele>
        <time>2013-04-13T08:31:33Z</time>
      </trkpt>
      <trkpt lat="45.21255" lon="6.01606">
        <ele>2159</ele>
        <time>2013-04-13T08:31:36Z</time>
      </trkpt>
      <trkpt lat="45.21253" lon="6.01604">
        <ele>2160.6000977</ele>
        <time>2013-04-13T08:31:39Z</time>
      </trkpt>
      <trkpt lat="45.21251" lon="6.01602">
        <ele>2160.6000977</ele>
        <time>2013-04-13T08:31:42Z</time>
      </trkpt>
      <trkpt lat="45.21249" lon="6.016">
        <ele>2161.1999512</ele>
        <time>2013-04-13T08:31:45Z</time>
      </trkpt>
      <trkpt lat="45.21248" lon="6.01599">
        <ele>2162.1999512</ele>
        <time>2013-04-13T08:31:48Z</time>
      </trkpt>
      <trkpt lat="45.21246" lon="6.01597">
        <ele>2163</ele>
        <time>2013-04-13T08:31:51Z</time>
      </trkpt>
      <trkpt lat="45.21244" lon="6.01595">
        <ele>2164</ele>
        <time>2013-04-13T08:31:54Z</time>
      </trkpt>
      <trkpt lat="45.21242" lon="6.01593">
        <ele>2164.8000488</ele>
        <time>2013-04-13T08:31:57Z</time>
      </trkpt>
      <trkpt lat="45.21241" lon="6.01592">
        <ele>2164.8000488</ele>
        <time>2013-04-13T08:32:00Z</time>
      </trkpt>
      <trkpt lat="45.21239" lon="6.0159">
        <ele>2165.8000488</ele>
        <time>2013-04-13T08:32:03Z</time>
      </trkpt>
      <trkpt lat="45.21238" lon="6.01589">
        <ele>2166.6000977</ele>
        <time>2013-04-13T08:32:06Z</time>
      </trkpt>
      <trkpt lat="45.21235" lon="6.01587">
        <ele>2166.8000488</ele>
        <time>2013-04-13T08:32:09Z</time>
      </trkpt>
      <trkpt lat="45.21234" lon="6.01587">
        <ele>2167</ele>
        <time>2013-04-13T08:32:12Z</time>
      </trkpt>
      <trkpt lat="45.21232" lon="6.01586">
        <ele>2168.1999512</ele>
        <time>2013-04-13T08:32:15Z</time>
      </trkpt>
      <trkpt lat="45.2123" lon="6.01585">
        <ele>2169</ele>
        <time>2013-04-13T08:32:18Z</time>
      </trkpt>
      <trkpt lat="45.21228" lon="6.01584">
        <ele>2170</ele>
        <time>2013-04-13T08:32:21Z</time>
      </trkpt>
      <trkpt lat="45.21228" lon="6.01585">
        <ele>2171</ele>
        <time>2013-04-13T08:32:24Z</time>
      </trkpt>
      <trkpt lat="45.21228" lon="6.01585">
        <ele>2171</ele>
        <time>2013-04-13T08:32:27Z</time>
      </trkpt>
      <trkpt lat="45.21227" lon="6.01584">
        <ele>2171</ele>
        <time>2013-04-13T08:32:30Z</time>
      </trkpt>
      <trkpt lat="45.21225" lon="6.01583">
        <ele>2171</ele>
        <time>2013-04-13T08:32:33Z</time>
      </trkpt>
      <trkpt lat="45.21223" lon="6.01581">
        <ele>2171</ele>
        <time>2013-04-13T08:32:36Z</time>
      </trkpt>
      <trkpt lat="45.21222" lon="6.01579">
        <ele>2172.1999512</ele>
        <time>2013-04-13T08:32:39Z</time>
      </trkpt>
      <trkpt lat="45.21222" lon="6.01576">
        <ele>2173</ele>
        <time>2013-04-13T08:32:42Z</time>
      </trkpt>
      <trkpt lat="45.21222" lon="6.01573">
        <ele>2173</ele>
        <time>2013-04-13T08:32:45Z</time>
      </trkpt>
      <trkpt lat="45.21222" lon="6.01572">
        <ele>2174</ele>
        <time>2013-04-13T08:32:48Z</time>
      </trkpt>
      <trkpt lat="45.21223" lon="6.01569">
        <ele>2175</ele>
        <time>2013-04-13T08:32:51Z</time>
      </trkpt>
      <trkpt lat="45.21225" lon="6.01567">
        <ele>2175</ele>
        <time>2013-04-13T08:32:54Z</time>
      </trkpt>
      <trkpt lat="45.21227" lon="6.01565">
        <ele>2175.1999512</ele>
        <time>2013-04-13T08:32:57Z</time>
      </trkpt>
      <trkpt lat="45.21229" lon="6.01563">
        <ele>2176.6000977</ele>
        <time>2013-04-13T08:33:00Z</time>
      </trkpt>
      <trkpt lat="45.21231" lon="6.01562">
        <ele>2177</ele>
        <time>2013-04-13T08:33:03Z</time>
      </trkpt>
      <trkpt lat="45.21233" lon="6.0156">
        <ele>2177.8000488</ele>
        <time>2013-04-13T08:33:06Z</time>
      </trkpt>
      <trkpt lat="45.21235" lon="6.01558">
        <ele>2178.8000488</ele>
        <time>2013-04-13T08:33:09Z</time>
      </trkpt>
      <trkpt lat="45.21236" lon="6.01555">
        <ele>2179</ele>
        <time>2013-04-13T08:33:12Z</time>
      </trkpt>
      <trkpt lat="45.21236" lon="6.01554">
        <ele>2179.6000977</ele>
        <time>2013-04-13T08:33:15Z</time>
      </trkpt>
      <trkpt lat="45.21237" lon="6.0155">
        <ele>2180.6000977</ele>
        <time>2013-04-13T08:33:18Z</time>
      </trkpt>
      <trkpt lat="45.21238" lon="6.01547">
        <ele>2181.1999512</ele>
        <time>2013-04-13T08:33:21Z</time>
      </trkpt>
      <trkpt lat="45.21238" lon="6.01545">
        <ele>2182.6000977</ele>
        <time>2013-04-13T08:33:24Z</time>
      </trkpt>
      <trkpt lat="45.21238" lon="6.01545">
        <ele>2183.1999512</ele>
        <time>2013-04-13T08:33:27Z</time>
      </trkpt>
      <trkpt lat="45.21238" lon="6.01545">
        <ele>2183.1999512</ele>
        <time>2013-04-13T08:33:30Z</time>
      </trkpt>
      <trkpt lat="45.21238" lon="6.01545">
        <ele>2183.1999512</ele>
        <time>2013-04-13T08:33:33Z</time>
      </trkpt>
      <trkpt lat="45.21238" lon="6.01545">
        <ele>2183.1999512</ele>
        <time>2013-04-13T08:33:36Z</time>
      </trkpt>
      <trkpt lat="45.21238" lon="6.01542">
        <ele>2183.1999512</ele>
        <time>2013-04-13T08:33:39Z</time>
      </trkpt>
      <trkpt lat="45.21239" lon="6.01538">
        <ele>2183.1999512</ele>
        <time>2013-04-13T08:33:42Z</time>
      </trkpt>
      <trkpt lat="45.21239" lon="6.01535">
        <ele>2184</ele>
        <time>2013-04-13T08:33:45Z</time>
      </trkpt>
      <trkpt lat="45.2124" lon="6.01534">
        <ele>2185</ele>
        <time>2013-04-13T08:33:48Z</time>
      </trkpt>
      <trkpt lat="45.21242" lon="6.01534">
        <ele>2185.6000977</ele>
        <time>2013-04-13T08:33:51Z</time>
      </trkpt>
      <trkpt lat="45.21245" lon="6.01533">
        <ele>2186.1999512</ele>
        <time>2013-04-13T08:33:54Z</time>
      </trkpt>
      <trkpt lat="45.21247" lon="6.01533">
        <ele>2187.6000977</ele>
        <time>2013-04-13T08:33:57Z</time>
      </trkpt>
      <trkpt lat="45.21249" lon="6.01533">
        <ele>2187.6000977</ele>
        <time>2013-04-13T08:34:00Z</time>
      </trkpt>
      <trkpt lat="45.21249" lon="6.0153">
        <ele>2189</ele>
        <time>2013-04-13T08:34:03Z</time>
      </trkpt>
      <trkpt lat="45.21249" lon="6.01527">
        <ele>2189.6000977</ele>
        <time>2013-04-13T08:34:06Z</time>
      </trkpt>
      <trkpt lat="45.21249" lon="6.01524">
        <ele>2190</ele>
        <time>2013-04-13T08:34:09Z</time>
      </trkpt>
      <trkpt lat="45.21249" lon="6.01521">
        <ele>2191</ele>
        <time>2013-04-13T08:34:12Z</time>
      </trkpt>
      <trkpt lat="45.21248" lon="6.01518">
        <ele>2191.8000488</ele>
        <time>2013-04-13T08:34:15Z</time>
      </trkpt>
      <trkpt lat="45.21249" lon="6.01515">
        <ele>2192.6000977</ele>
        <time>2013-04-13T08:34:18Z</time>
      </trkpt>
      <trkpt lat="45.2125" lon="6.01515">
        <ele>2193.8000488</ele>
        <time>2013-04-13T08:34:21Z</time>
      </trkpt>
      <trkpt lat="45.21252" lon="6.01515">
        <ele>2193.8000488</ele>
        <time>2013-04-13T08:34:24Z</time>
      </trkpt>
      <trkpt lat="45.21254" lon="6.01515">
        <ele>2194.1999512</ele>
        <time>2013-04-13T08:34:27Z</time>
      </trkpt>
      <trkpt lat="45.21255" lon="6.01515">
        <ele>2195</ele>
        <time>2013-04-13T08:34:30Z</time>
      </trkpt>
      <trkpt lat="45.21257" lon="6.01515">
        <ele>2195.8000488</ele>
        <time>2013-04-13T08:34:33Z</time>
      </trkpt>
      <trkpt lat="45.21259" lon="6.01516">
        <ele>2196.1999512</ele>
        <time>2013-04-13T08:34:36Z</time>
      </trkpt>
      <trkpt lat="45.2126" lon="6.01516">
        <ele>2197.8000488</ele>
        <time>2013-04-13T08:34:39Z</time>
      </trkpt>
      <trkpt lat="45.21261" lon="6.01515">
        <ele>2197.8000488</ele>
        <time>2013-04-13T08:34:42Z</time>
      </trkpt>
      <trkpt lat="45.21261" lon="6.01512">
        <ele>2199</ele>
        <time>2013-04-13T08:34:45Z</time>
      </trkpt>
      <trkpt lat="45.21261" lon="6.01509">
        <ele>2200</ele>
        <time>2013-04-13T08:34:48Z</time>
      </trkpt>
      <trkpt lat="45.21261" lon="6.01507">
        <ele>2200</ele>
        <time>2013-04-13T08:34:51Z</time>
      </trkpt>
      <trkpt lat="45.21261" lon="6.01505">
        <ele>2200.1999512</ele>
        <time>2013-04-13T08:34:54Z</time>
      </trkpt>
      <trkpt lat="45.2126" lon="6.01503">
        <ele>2201.1999512</ele>
        <time>2013-04-13T08:34:57Z</time>
      </trkpt>
      <trkpt lat="45.21261" lon="6.01501">
        <ele>2202</ele>
        <time>2013-04-13T08:35:00Z</time>
      </trkpt>
      <trkpt lat="45.21263" lon="6.01502">
        <ele>2202.1999512</ele>
        <time>2013-04-13T08:35:03Z</time>
      </trkpt>
      <trkpt lat="45.21265" lon="6.01503">
        <ele>2203.6000977</ele>
        <time>2013-04-13T08:35:06Z</time>
      </trkpt>
      <trkpt lat="45.21267" lon="6.01503">
        <ele>2204</ele>
        <time>2013-04-13T08:35:09Z</time>
      </trkpt>
      <trkpt lat="45.21269" lon="6.01504">
        <ele>2204.1999512</ele>
        <time>2013-04-13T08:35:12Z</time>
      </trkpt>
      <trkpt lat="45.21271" lon="6.01504">
        <ele>2205.1999512</ele>
        <time>2013-04-13T08:35:15Z</time>
      </trkpt>
      <trkpt lat="45.21273" lon="6.01505">
        <ele>2206</ele>
        <time>2013-04-13T08:35:18Z</time>
      </trkpt>
      <trkpt lat="45.21275" lon="6.01506">
        <ele>2206</ele>
        <time>2013-04-13T08:35:21Z</time>
      </trkpt>
      <trkpt lat="45.21276" lon="6.01505">
        <ele>2207</ele>
        <time>2013-04-13T08:35:24Z</time>
      </trkpt>
      <trkpt lat="45.21277" lon="6.01502">
        <ele>2208</ele>
        <time>2013-04-13T08:35:27Z</time>
      </trkpt>
      <trkpt lat="45.21277" lon="6.01499">
        <ele>2208.8000488</ele>
        <time>2013-04-13T08:35:30Z</time>
      </trkpt>
      <trkpt lat="45.21277" lon="6.01496">
        <ele>2209.8000488</ele>
        <time>2013-04-13T08:35:33Z</time>
      </trkpt>
      <trkpt lat="45.21276" lon="6.01493">
        <ele>2210</ele>
        <time>2013-04-13T08:35:36Z</time>
      </trkpt>
      <trkpt lat="45.21277" lon="6.01493">
        <ele>2210</ele>
        <time>2013-04-13T08:35:39Z</time>
      </trkpt>
      <trkpt lat="45.21278" lon="6.01494">
        <ele>2211</ele>
        <time>2013-04-13T08:35:42Z</time>
      </trkpt>
      <trkpt lat="45.2128" lon="6.01495">
        <ele>2212</ele>
        <time>2013-04-13T08:35:45Z</time>
      </trkpt>
      <trkpt lat="45.21282" lon="6.01497">
        <ele>2212.1999512</ele>
        <time>2013-04-13T08:35:48Z</time>
      </trkpt>
      <trkpt lat="45.21283" lon="6.01499">
        <ele>2212.1999512</ele>
        <time>2013-04-13T08:35:51Z</time>
      </trkpt>
      <trkpt lat="45.21285" lon="6.01501">
        <ele>2212.8000488</ele>
        <time>2013-04-13T08:35:54Z</time>
      </trkpt>
      <trkpt lat="45.21287" lon="6.01503">
        <ele>2214</ele>
        <time>2013-04-13T08:35:57Z</time>
      </trkpt>
      <trkpt lat="45.2129" lon="6.01506">
        <ele>2214.1999512</ele>
        <time>2013-04-13T08:36:00Z</time>
      </trkpt>
      <trkpt lat="45.21292" lon="6.01508">
        <ele>2214.1999512</ele>
        <time>2013-04-13T08:36:03Z</time>
      </trkpt>
      <trkpt lat="45.21295" lon="6.0151">
        <ele>2214.6000977</ele>
        <time>2013-04-13T08:36:06Z</time>
      </trkpt>
      <trkpt lat="45.21296" lon="6.01511">
        <ele>2215.8000488</ele>
        <time>2013-04-13T08:36:09Z</time>
      </trkpt>
      <trkpt lat="45.21299" lon="6.01512">
        <ele>2216.1999512</ele>
        <time>2013-04-13T08:36:12Z</time>
      </trkpt>
      <trkpt lat="45.21301" lon="6.01513">
        <ele>2216.1999512</ele>
        <time>2013-04-13T08:36:15Z</time>
      </trkpt>
      <trkpt lat="45.21303" lon="6.01513">
        <ele>2216.1999512</ele>
        <time>2013-04-13T08:36:18Z</time>
      </trkpt>
      <trkpt lat="45.21305" lon="6.01513">
        <ele>2216.8000488</ele>
        <time>2013-04-13T08:36:21Z</time>
      </trkpt>
      <trkpt lat="45.21307" lon="6.01512">
        <ele>2218</ele>
        <time>2013-04-13T08:36:24Z</time>
      </trkpt>
      <trkpt lat="45.21309" lon="6.01511">
        <ele>2218.6000977</ele>
        <time>2013-04-13T08:36:27Z</time>
      </trkpt>
      <trkpt lat="45.2131" lon="6.0151">
        <ele>2218.6000977</ele>
        <time>2013-04-13T08:36:30Z</time>
      </trkpt>
      <trkpt lat="45.21309" lon="6.01507">
        <ele>2219</ele>
        <time>2013-04-13T08:36:33Z</time>
      </trkpt>
      <trkpt lat="45.21308" lon="6.01504">
        <ele>2220</ele>
        <time>2013-04-13T08:36:36Z</time>
      </trkpt>
      <trkpt lat="45.21307" lon="6.01501">
        <ele>2220.6000977</ele>
        <time>2013-04-13T08:36:39Z</time>
      </trkpt>
      <trkpt lat="45.21305" lon="6.01497">
        <ele>2220.6000977</ele>
        <time>2013-04-13T08:36:42Z</time>
      </trkpt>
      <trkpt lat="45.21305" lon="6.01493">
        <ele>2220.6000977</ele>
        <time>2013-04-13T08:36:45Z</time>
      </trkpt>
      <trkpt lat="45.21305" lon="6.0149">
        <ele>2220.6000977</ele>
        <time>2013-04-13T08:36:48Z</time>
      </trkpt>
      <trkpt lat="45.21303" lon="6.0149">
        <ele>2220.6000977</ele>
        <time>2013-04-13T08:36:51Z</time>
      </trkpt>
      <trkpt lat="45.21303" lon="6.0149">
        <ele>2220.6000977</ele>
        <time>2013-04-13T08:36:54Z</time>
      </trkpt>
      <trkpt lat="45.21304" lon="6.0149">
        <ele>2220.6000977</ele>
        <time>2013-04-13T08:36:57Z</time>
      </trkpt>
      <trkpt lat="45.21305" lon="6.01489">
        <ele>2220.6000977</ele>
        <time>2013-04-13T08:37:00Z</time>
      </trkpt>
      <trkpt lat="45.21304" lon="6.0149">
        <ele>2220.6000977</ele>
        <time>2013-04-13T08:37:03Z</time>
      </trkpt>
      <trkpt lat="45.21304" lon="6.0149">
        <ele>2220.6000977</ele>
        <time>2013-04-13T08:37:06Z</time>
      </trkpt>
      <trkpt lat="45.21304" lon="6.0149">
        <ele>2220.6000977</ele>
        <time>2013-04-13T08:37:09Z</time>
      </trkpt>
      <trkpt lat="45.21304" lon="6.0149">
        <ele>2220.6000977</ele>
        <time>2013-04-13T08:37:12Z</time>
      </trkpt>
      <trkpt lat="45.21304" lon="6.0149">
        <ele>2220.6000977</ele>
        <time>2013-04-13T08:37:15Z</time>
      </trkpt>
      <trkpt lat="45.21304" lon="6.0149">
        <ele>2220.6000977</ele>
        <time>2013-04-13T08:37:18Z</time>
      </trkpt>
      <trkpt lat="45.21304" lon="6.01491">
        <ele>2220.6000977</ele>
        <time>2013-04-13T08:37:21Z</time>
      </trkpt>
      <trkpt lat="45.21304" lon="6.01492">
        <ele>2220.6000977</ele>
        <time>2013-04-13T08:37:24Z</time>
      </trkpt>
      <trkpt lat="45.21304" lon="6.01492">
        <ele>2220.6000977</ele>
        <time>2013-04-13T08:37:27Z</time>
      </trkpt>
      <trkpt lat="45.21304" lon="6.01492">
        <ele>2220.6000977</ele>
        <time>2013-04-13T08:37:30Z</time>
      </trkpt>
      <trkpt lat="45.21304" lon="6.01492">
        <ele>2220.6000977</ele>
        <time>2013-04-13T08:37:33Z</time>
      </trkpt>
      <trkpt lat="45.21303" lon="6.01493">
        <ele>2220.6000977</ele>
        <time>2013-04-13T08:37:36Z</time>
      </trkpt>
      <trkpt lat="45.21303" lon="6.01494">
        <ele>2220.6000977</ele>
        <time>2013-04-13T08:37:39Z</time>
      </trkpt>
      <trkpt lat="45.21303" lon="6.01494">
        <ele>2220.6000977</ele>
        <time>2013-04-13T08:37:42Z</time>
      </trkpt>
      <trkpt lat="45.21303" lon="6.01494">
        <ele>2220.6000977</ele>
        <time>2013-04-13T08:37:45Z</time>
      </trkpt>
      <trkpt lat="45.21303" lon="6.01492">
        <ele>2220.6000977</ele>
        <time>2013-04-13T08:37:48Z</time>
      </trkpt>
      <trkpt lat="45.21303" lon="6.01492">
        <ele>2220.6000977</ele>
        <time>2013-04-13T08:37:51Z</time>
      </trkpt>
      <trkpt lat="45.21303" lon="6.01492">
        <ele>2220.6000977</ele>
        <time>2013-04-13T08:37:54Z</time>
      </trkpt>
      <trkpt lat="45.21303" lon="6.01492">
        <ele>2220.6000977</ele>
        <time>2013-04-13T08:37:57Z</time>
      </trkpt>
      <trkpt lat="45.21303" lon="6.01492">
        <ele>2220.6000977</ele>
        <time>2013-04-13T08:38:00Z</time>
      </trkpt>
      <trkpt lat="45.21303" lon="6.01492">
        <ele>2220.6000977</ele>
        <time>2013-04-13T08:38:03Z</time>
      </trkpt>
      <trkpt lat="45.21303" lon="6.01492">
        <ele>2220.6000977</ele>
        <time>2013-04-13T08:38:06Z</time>
      </trkpt>
      <trkpt lat="45.21302" lon="6.01492">
        <ele>2220.6000977</ele>
        <time>2013-04-13T08:38:09Z</time>
      </trkpt>
      <trkpt lat="45.21302" lon="6.01493">
        <ele>2220.6000977</ele>
        <time>2013-04-13T08:38:12Z</time>
      </trkpt>
      <trkpt lat="45.21302" lon="6.01493">
        <ele>2220.6000977</ele>
        <time>2013-04-13T08:38:15Z</time>
      </trkpt>
      <trkpt lat="45.21302" lon="6.01493">
        <ele>2220.6000977</ele>
        <time>2013-04-13T08:38:18Z</time>
      </trkpt>
      <trkpt lat="45.21302" lon="6.01493">
        <ele>2220.6000977</ele>
        <time>2013-04-13T08:38:21Z</time>
      </trkpt>
      <trkpt lat="45.21302" lon="6.01493">
        <ele>2220.6000977</ele>
        <time>2013-04-13T08:38:24Z</time>
      </trkpt>
      <trkpt lat="45.21303" lon="6.01493">
        <ele>2220.6000977</ele>
        <time>2013-04-13T08:38:27Z</time>
      </trkpt>
      <trkpt lat="45.21302" lon="6.01494">
        <ele>2220.6000977</ele>
        <time>2013-04-13T08:38:30Z</time>
      </trkpt>
      <trkpt lat="45.21303" lon="6.01493">
        <ele>2220.6000977</ele>
        <time>2013-04-13T08:38:33Z</time>
      </trkpt>
      <trkpt lat="45.21303" lon="6.01494">
        <ele>2220.6000977</ele>
        <time>2013-04-13T08:38:36Z</time>
      </trkpt>
      <trkpt lat="45.21302" lon="6.01493">
        <ele>2220.6000977</ele>
        <time>2013-04-13T08:38:39Z</time>
      </trkpt>
      <trkpt lat="45.21303" lon="6.01492">
        <ele>2220.6000977</ele>
        <time>2013-04-13T08:38:42Z</time>
      </trkpt>
      <trkpt lat="45.21303" lon="6.01492">
        <ele>2220.6000977</ele>
        <time>2013-04-13T08:38:45Z</time>
      </trkpt>
      <trkpt lat="45.21303" lon="6.01492">
        <ele>2220.6000977</ele>
        <time>2013-04-13T08:38:48Z</time>
      </trkpt>
      <trkpt lat="45.21303" lon="6.01492">
        <ele>2220.6000977</ele>
        <time>2013-04-13T08:38:51Z</time>
      </trkpt>
      <trkpt lat="45.21303" lon="6.01492">
        <ele>2220.6000977</ele>
        <time>2013-04-13T08:38:54Z</time>
      </trkpt>
      <trkpt lat="45.21303" lon="6.01492">
        <ele>2220.6000977</ele>
        <time>2013-04-13T08:38:57Z</time>
      </trkpt>
      <trkpt lat="45.21303" lon="6.01491">
        <ele>2220.6000977</ele>
        <time>2013-04-13T08:39:00Z</time>
      </trkpt>
      <trkpt lat="45.21303" lon="6.01491">
        <ele>2220.6000977</ele>
        <time>2013-04-13T08:39:03Z</time>
      </trkpt>
      <trkpt lat="45.21303" lon="6.01491">
        <ele>2220.6000977</ele>
        <time>2013-04-13T08:39:06Z</time>
      </trkpt>
      <trkpt lat="45.21303" lon="6.01491">
        <ele>2220.6000977</ele>
        <time>2013-04-13T08:39:09Z</time>
      </trkpt>
      <trkpt lat="45.21302" lon="6.01491">
        <ele>2220.6000977</ele>
        <time>2013-04-13T08:39:12Z</time>
      </trkpt>
      <trkpt lat="45.21302" lon="6.01491">
        <ele>2220.6000977</ele>
        <time>2013-04-13T08:39:15Z</time>
      </trkpt>
      <trkpt lat="45.21302" lon="6.01491">
        <ele>2220.6000977</ele>
        <time>2013-04-13T08:39:18Z</time>
      </trkpt>
      <trkpt lat="45.21302" lon="6.01491">
        <ele>2220.6000977</ele>
        <time>2013-04-13T08:39:21Z</time>
      </trkpt>
      <trkpt lat="45.21302" lon="6.01491">
        <ele>2220.6000977</ele>
        <time>2013-04-13T08:39:24Z</time>
      </trkpt>
      <trkpt lat="45.21302" lon="6.01491">
        <ele>2220.6000977</ele>
        <time>2013-04-13T08:39:27Z</time>
      </trkpt>
      <trkpt lat="45.21302" lon="6.01491">
        <ele>2220.6000977</ele>
        <time>2013-04-13T08:39:30Z</time>
      </trkpt>
      <trkpt lat="45.21302" lon="6.01491">
        <ele>2220.6000977</ele>
        <time>2013-04-13T08:39:33Z</time>
      </trkpt>
      <trkpt lat="45.21302" lon="6.01491">
        <ele>2220.6000977</ele>
        <time>2013-04-13T08:39:36Z</time>
      </trkpt>
      <trkpt lat="45.21302" lon="6.01491">
        <ele>2220.6000977</ele>
        <time>2013-04-13T08:39:39Z</time>
      </trkpt>
      <trkpt lat="45.21303" lon="6.01491">
        <ele>2220.6000977</ele>
        <time>2013-04-13T08:39:42Z</time>
      </trkpt>
      <trkpt lat="45.21303" lon="6.01491">
        <ele>2220.6000977</ele>
        <time>2013-04-13T08:39:45Z</time>
      </trkpt>
      <trkpt lat="45.21303" lon="6.01491">
        <ele>2220.6000977</ele>
        <time>2013-04-13T08:39:48Z</time>
      </trkpt>
      <trkpt lat="45.21302" lon="6.01491">
        <ele>2220.6000977</ele>
        <time>2013-04-13T08:39:51Z</time>
      </trkpt>
      <trkpt lat="45.21302" lon="6.01491">
        <ele>2220.6000977</ele>
        <time>2013-04-13T08:39:54Z</time>
      </trkpt>
      <trkpt lat="45.21302" lon="6.01491">
        <ele>2220.6000977</ele>
        <time>2013-04-13T08:39:57Z</time>
      </trkpt>
      <trkpt lat="45.21302" lon="6.01491">
        <ele>2220.6000977</ele>
        <time>2013-04-13T08:40:00Z</time>
      </trkpt>
      <trkpt lat="45.21302" lon="6.0149">
        <ele>2220.6000977</ele>
        <time>2013-04-13T08:40:03Z</time>
      </trkpt>
      <trkpt lat="45.21302" lon="6.0149">
        <ele>2220.6000977</ele>
        <time>2013-04-13T08:40:06Z</time>
      </trkpt>
      <trkpt lat="45.21302" lon="6.01492">
        <ele>2220.6000977</ele>
        <time>2013-04-13T08:40:09Z</time>
      </trkpt>
      <trkpt lat="45.21303" lon="6.01491">
        <ele>2220.6000977</ele>
        <time>2013-04-13T08:40:12Z</time>
      </trkpt>
      <trkpt lat="45.21303" lon="6.01491">
        <ele>2220.6000977</ele>
        <time>2013-04-13T08:40:15Z</time>
      </trkpt>
      <trkpt lat="45.21303" lon="6.01491">
        <ele>2220.6000977</ele>
        <time>2013-04-13T08:40:18Z</time>
      </trkpt>
      <trkpt lat="45.21303" lon="6.01491">
        <ele>2220.6000977</ele>
        <time>2013-04-13T08:40:21Z</time>
      </trkpt>
      <trkpt lat="45.21303" lon="6.01491">
        <ele>2220.6000977</ele>
        <time>2013-04-13T08:40:24Z</time>
      </trkpt>
      <trkpt lat="45.21303" lon="6.01491">
        <ele>2220.6000977</ele>
        <time>2013-04-13T08:40:27Z</time>
      </trkpt>
      <trkpt lat="45.21303" lon="6.01491">
        <ele>2220.6000977</ele>
        <time>2013-04-13T08:40:30Z</time>
      </trkpt>
      <trkpt lat="45.21303" lon="6.01491">
        <ele>2220.6000977</ele>
        <time>2013-04-13T08:40:33Z</time>
      </trkpt>
      <trkpt lat="45.21303" lon="6.01491">
        <ele>2220.6000977</ele>
        <time>2013-04-13T08:40:36Z</time>
      </trkpt>
      <trkpt lat="45.21303" lon="6.01491">
        <ele>2220.6000977</ele>
        <time>2013-04-13T08:40:39Z</time>
      </trkpt>
      <trkpt lat="45.21303" lon="6.01491">
        <ele>2220.6000977</ele>
        <time>2013-04-13T08:40:42Z</time>
      </trkpt>
      <trkpt lat="45.21303" lon="6.01491">
        <ele>2220.6000977</ele>
        <time>2013-04-13T08:40:45Z</time>
      </trkpt>
      <trkpt lat="45.21303" lon="6.01491">
        <ele>2220.6000977</ele>
        <time>2013-04-13T08:40:48Z</time>
      </trkpt>
      <trkpt lat="45.21303" lon="6.01491">
        <ele>2220.6000977</ele>
        <time>2013-04-13T08:40:51Z</time>
      </trkpt>
      <trkpt lat="45.21303" lon="6.01491">
        <ele>2220.6000977</ele>
        <time>2013-04-13T08:40:54Z</time>
      </trkpt>
      <trkpt lat="45.21303" lon="6.01491">
        <ele>2220.6000977</ele>
        <time>2013-04-13T08:40:57Z</time>
      </trkpt>
      <trkpt lat="45.21303" lon="6.01491">
        <ele>2220.6000977</ele>
        <time>2013-04-13T08:41:00Z</time>
      </trkpt>
      <trkpt lat="45.21303" lon="6.01491">
        <ele>2220.6000977</ele>
        <time>2013-04-13T08:41:03Z</time>
      </trkpt>
      <trkpt lat="45.21303" lon="6.01491">
        <ele>2220.6000977</ele>
        <time>2013-04-13T08:41:06Z</time>
      </trkpt>
      <trkpt lat="45.21303" lon="6.01491">
        <ele>2220.6000977</ele>
        <time>2013-04-13T08:41:09Z</time>
      </trkpt>
      <trkpt lat="45.21303" lon="6.01491">
        <ele>2220.6000977</ele>
        <time>2013-04-13T08:41:12Z</time>
      </trkpt>
      <trkpt lat="45.21303" lon="6.01491">
        <ele>2220.6000977</ele>
        <time>2013-04-13T08:41:15Z</time>
      </trkpt>
      <trkpt lat="45.21303" lon="6.01491">
        <ele>2220.6000977</ele>
        <time>2013-04-13T08:41:18Z</time>
      </trkpt>
      <trkpt lat="45.21303" lon="6.01491">
        <ele>2220.6000977</ele>
        <time>2013-04-13T08:41:21Z</time>
      </trkpt>
      <trkpt lat="45.21303" lon="6.01491">
        <ele>2220.6000977</ele>
        <time>2013-04-13T08:41:24Z</time>
      </trkpt>
      <trkpt lat="45.21303" lon="6.01491">
        <ele>2220.6000977</ele>
        <time>2013-04-13T08:41:27Z</time>
      </trkpt>
      <trkpt lat="45.21303" lon="6.01491">
        <ele>2220.6000977</ele>
        <time>2013-04-13T08:41:30Z</time>
      </trkpt>
      <trkpt lat="45.21303" lon="6.01491">
        <ele>2220.6000977</ele>
        <time>2013-04-13T08:41:33Z</time>
      </trkpt>
      <trkpt lat="45.21302" lon="6.01491">
        <ele>2220.6000977</ele>
        <time>2013-04-13T08:41:36Z</time>
      </trkpt>
      <trkpt lat="45.21301" lon="6.01492">
        <ele>2220.6000977</ele>
        <time>2013-04-13T08:41:39Z</time>
      </trkpt>
      <trkpt lat="45.21299" lon="6.01491">
        <ele>2220.6000977</ele>
        <time>2013-04-13T08:41:42Z</time>
      </trkpt>
      <trkpt lat="45.21298" lon="6.0149">
        <ele>2220.6000977</ele>
        <time>2013-04-13T08:41:45Z</time>
      </trkpt>
      <trkpt lat="45.21297" lon="6.01487">
        <ele>2220.6000977</ele>
        <time>2013-04-13T08:41:48Z</time>
      </trkpt>
      <trkpt lat="45.21296" lon="6.01484">
        <ele>2221.6000977</ele>
        <time>2013-04-13T08:41:51Z</time>
      </trkpt>
      <trkpt lat="45.21295" lon="6.01483">
        <ele>2222.6000977</ele>
        <time>2013-04-13T08:41:54Z</time>
      </trkpt>
      <trkpt lat="45.21295" lon="6.01482">
        <ele>2222.6000977</ele>
        <time>2013-04-13T08:41:57Z</time>
      </trkpt>
      <trkpt lat="45.21295" lon="6.01482">
        <ele>2222.6000977</ele>
        <time>2013-04-13T08:42:00Z</time>
      </trkpt>
      <trkpt lat="45.21293" lon="6.0148">
        <ele>2222.6000977</ele>
        <time>2013-04-13T08:42:03Z</time>
      </trkpt>
      <trkpt lat="45.21292" lon="6.01479">
        <ele>2222.6000977</ele>
        <time>2013-04-13T08:42:06Z</time>
      </trkpt>
      <trkpt lat="45.21291" lon="6.01478">
        <ele>2222.8000488</ele>
        <time>2013-04-13T08:42:09Z</time>
      </trkpt>
      <trkpt lat="45.2129" lon="6.01477">
        <ele>2223.8000488</ele>
        <time>2013-04-13T08:42:12Z</time>
      </trkpt>
      <trkpt lat="45.2129" lon="6.01475">
        <ele>2224.6000977</ele>
        <time>2013-04-13T08:42:15Z</time>
      </trkpt>
      <trkpt lat="45.2129" lon="6.01473">
        <ele>2225.1999512</ele>
        <time>2013-04-13T08:42:18Z</time>
      </trkpt>
      <trkpt lat="45.2129" lon="6.01472">
        <ele>2226.6000977</ele>
        <time>2013-04-13T08:42:21Z</time>
      </trkpt>
      <trkpt lat="45.2129" lon="6.01471">
        <ele>2226.6000977</ele>
        <time>2013-04-13T08:42:24Z</time>
      </trkpt>
      <trkpt lat="45.2129" lon="6.01471">
        <ele>2226.6000977</ele>
        <time>2013-04-13T08:42:27Z</time>
      </trkpt>
      <trkpt lat="45.2129" lon="6.01471">
        <ele>2226.6000977</ele>
        <time>2013-04-13T08:42:30Z</time>
      </trkpt>
      <trkpt lat="45.2129" lon="6.01471">
        <ele>2226.6000977</ele>
        <time>2013-04-13T08:42:33Z</time>
      </trkpt>
      <trkpt lat="45.2129" lon="6.01471">
        <ele>2226.6000977</ele>
        <time>2013-04-13T08:42:36Z</time>
      </trkpt>
      <trkpt lat="45.2129" lon="6.01471">
        <ele>2226.6000977</ele>
        <time>2013-04-13T08:42:39Z</time>
      </trkpt>
      <trkpt lat="45.2129" lon="6.01471">
        <ele>2226.6000977</ele>
        <time>2013-04-13T08:42:42Z</time>
      </trkpt>
      <trkpt lat="45.2129" lon="6.01471">
        <ele>2226.6000977</ele>
        <time>2013-04-13T08:42:45Z</time>
      </trkpt>
      <trkpt lat="45.2129" lon="6.01471">
        <ele>2226.6000977</ele>
        <time>2013-04-13T08:42:48Z</time>
      </trkpt>
      <trkpt lat="45.2129" lon="6.01471">
        <ele>2226.6000977</ele>
        <time>2013-04-13T08:42:51Z</time>
      </trkpt>
      <trkpt lat="45.2129" lon="6.01471">
        <ele>2226.6000977</ele>
        <time>2013-04-13T08:42:54Z</time>
      </trkpt>
      <trkpt lat="45.2129" lon="6.01471">
        <ele>2226.6000977</ele>
        <time>2013-04-13T08:42:57Z</time>
      </trkpt>
      <trkpt lat="45.2129" lon="6.01471">
        <ele>2226.6000977</ele>
        <time>2013-04-13T08:43:00Z</time>
      </trkpt>
      <trkpt lat="45.2129" lon="6.01472">
        <ele>2226.6000977</ele>
        <time>2013-04-13T08:43:03Z</time>
      </trkpt>
      <trkpt lat="45.2129" lon="6.01471">
        <ele>2226.6000977</ele>
        <time>2013-04-13T08:43:06Z</time>
      </trkpt>
      <trkpt lat="45.2129" lon="6.01471">
        <ele>2226.6000977</ele>
        <time>2013-04-13T08:43:09Z</time>
      </trkpt>
      <trkpt lat="45.2129" lon="6.01471">
        <ele>2226.6000977</ele>
        <time>2013-04-13T08:43:12Z</time>
      </trkpt>
      <trkpt lat="45.2129" lon="6.01471">
        <ele>2226.6000977</ele>
        <time>2013-04-13T08:43:15Z</time>
      </trkpt>
      <trkpt lat="45.21289" lon="6.01472">
        <ele>2226.6000977</ele>
        <time>2013-04-13T08:43:18Z</time>
      </trkpt>
      <trkpt lat="45.2129" lon="6.01472">
        <ele>2226.6000977</ele>
        <time>2013-04-13T08:43:21Z</time>
      </trkpt>
      <trkpt lat="45.2129" lon="6.01472">
        <ele>2226.6000977</ele>
        <time>2013-04-13T08:43:24Z</time>
      </trkpt>
      <trkpt lat="45.2129" lon="6.01472">
        <ele>2226.6000977</ele>
        <time>2013-04-13T08:43:27Z</time>
      </trkpt>
      <trkpt lat="45.2129" lon="6.01471">
        <ele>2226.6000977</ele>
        <time>2013-04-13T08:43:30Z</time>
      </trkpt>
      <trkpt lat="45.2129" lon="6.01471">
        <ele>2226.6000977</ele>
        <time>2013-04-13T08:43:33Z</time>
      </trkpt>
      <trkpt lat="45.2129" lon="6.0147">
        <ele>2226.6000977</ele>
        <time>2013-04-13T08:43:36Z</time>
      </trkpt>
      <trkpt lat="45.2129" lon="6.01467">
        <ele>2226.6000977</ele>
        <time>2013-04-13T08:43:39Z</time>
      </trkpt>
      <trkpt lat="45.2129" lon="6.01463">
        <ele>2226.6000977</ele>
        <time>2013-04-13T08:43:42Z</time>
      </trkpt>
      <trkpt lat="45.21289" lon="6.01461">
        <ele>2227.8000488</ele>
        <time>2013-04-13T08:43:45Z</time>
      </trkpt>
      <trkpt lat="45.21289" lon="6.01461">
        <ele>2228.8000488</ele>
        <time>2013-04-13T08:43:48Z</time>
      </trkpt>
      <trkpt lat="45.21289" lon="6.0146">
        <ele>2228.8000488</ele>
        <time>2013-04-13T08:43:51Z</time>
      </trkpt>
      <trkpt lat="45.21289" lon="6.01457">
        <ele>2228.8000488</ele>
        <time>2013-04-13T08:43:54Z</time>
      </trkpt>
      <trkpt lat="45.2129" lon="6.01455">
        <ele>2229.1999512</ele>
        <time>2013-04-13T08:43:57Z</time>
      </trkpt>
      <trkpt lat="45.2129" lon="6.01453">
        <ele>2230</ele>
        <time>2013-04-13T08:44:00Z</time>
      </trkpt>
      <trkpt lat="45.21289" lon="6.01452">
        <ele>2231</ele>
        <time>2013-04-13T08:44:03Z</time>
      </trkpt>
      <trkpt lat="45.21287" lon="6.01451">
        <ele>2231</ele>
        <time>2013-04-13T08:44:06Z</time>
      </trkpt>
      <trkpt lat="45.21285" lon="6.01451">
        <ele>2232.1999512</ele>
        <time>2013-04-13T08:44:09Z</time>
      </trkpt>
      <trkpt lat="45.21284" lon="6.01448">
        <ele>2233</ele>
        <time>2013-04-13T08:44:12Z</time>
      </trkpt>
      <trkpt lat="45.21283" lon="6.01445">
        <ele>2233</ele>
        <time>2013-04-13T08:44:15Z</time>
      </trkpt>
      <trkpt lat="45.21282" lon="6.01443">
        <ele>2233.1999512</ele>
        <time>2013-04-13T08:44:18Z</time>
      </trkpt>
      <trkpt lat="45.21281" lon="6.0144">
        <ele>2234.1999512</ele>
        <time>2013-04-13T08:44:21Z</time>
      </trkpt>
      <trkpt lat="45.2128" lon="6.01437">
        <ele>2235.1999512</ele>
        <time>2013-04-13T08:44:24Z</time>
      </trkpt>
      <trkpt lat="45.21279" lon="6.01435">
        <ele>2236.6000977</ele>
        <time>2013-04-13T08:44:27Z</time>
      </trkpt>
      <trkpt lat="45.21278" lon="6.01433">
        <ele>2237</ele>
        <time>2013-04-13T08:44:30Z</time>
      </trkpt>
      <trkpt lat="45.21277" lon="6.01431">
        <ele>2237.6000977</ele>
        <time>2013-04-13T08:44:33Z</time>
      </trkpt>
      <trkpt lat="45.21277" lon="6.01429">
        <ele>2238.6000977</ele>
        <time>2013-04-13T08:44:36Z</time>
      </trkpt>
      <trkpt lat="45.21277" lon="6.01428">
        <ele>2239.1999512</ele>
        <time>2013-04-13T08:44:39Z</time>
      </trkpt>
      <trkpt lat="45.21277" lon="6.01428">
        <ele>2239.1999512</ele>
        <time>2013-04-13T08:44:42Z</time>
      </trkpt>
      <trkpt lat="45.21277" lon="6.01428">
        <ele>2240.1999512</ele>
        <time>2013-04-13T08:44:45Z</time>
      </trkpt>
      <trkpt lat="45.21277" lon="6.01428">
        <ele>2241.1999512</ele>
        <time>2013-04-13T08:44:48Z</time>
      </trkpt>
      <trkpt lat="45.21277" lon="6.01427">
        <ele>2241.1999512</ele>
        <time>2013-04-13T08:44:51Z</time>
      </trkpt>
      <trkpt lat="45.21277" lon="6.01428">
        <ele>2241.1999512</ele>
        <time>2013-04-13T08:44:54Z</time>
      </trkpt>
      <trkpt lat="45.21277" lon="6.01428">
        <ele>2241.1999512</ele>
        <time>2013-04-13T08:44:57Z</time>
      </trkpt>
      <trkpt lat="45.21277" lon="6.01428">
        <ele>2241.1999512</ele>
        <time>2013-04-13T08:45:00Z</time>
      </trkpt>
      <trkpt lat="45.21277" lon="6.01428">
        <ele>2241.1999512</ele>
        <time>2013-04-13T08:45:03Z</time>
      </trkpt>
      <trkpt lat="45.21278" lon="6.01427">
        <ele>2241.1999512</ele>
        <time>2013-04-13T08:45:06Z</time>
      </trkpt>
      <trkpt lat="45.21278" lon="6.01424">
        <ele>2241.1999512</ele>
        <time>2013-04-13T08:45:09Z</time>
      </trkpt>
      <trkpt lat="45.21276" lon="6.01424">
        <ele>2241.1999512</ele>
        <time>2013-04-13T08:45:12Z</time>
      </trkpt>
      <trkpt lat="45.21275" lon="6.01423">
        <ele>2241.1999512</ele>
        <time>2013-04-13T08:45:15Z</time>
      </trkpt>
      <trkpt lat="45.21273" lon="6.01421">
        <ele>2242.6000977</ele>
        <time>2013-04-13T08:45:18Z</time>
      </trkpt>
      <trkpt lat="45.21272" lon="6.01418">
        <ele>2243.1999512</ele>
        <time>2013-04-13T08:45:21Z</time>
      </trkpt>
      <trkpt lat="45.21271" lon="6.01416">
        <ele>2243.1999512</ele>
        <time>2013-04-13T08:45:24Z</time>
      </trkpt>
      <trkpt lat="45.2127" lon="6.01415">
        <ele>2244</ele>
        <time>2013-04-13T08:45:27Z</time>
      </trkpt>
      <trkpt lat="45.2127" lon="6.01415">
        <ele>2245.1999512</ele>
        <time>2013-04-13T08:45:30Z</time>
      </trkpt>
      <trkpt lat="45.21269" lon="6.01413">
        <ele>2245.6000977</ele>
        <time>2013-04-13T08:45:33Z</time>
      </trkpt>
      <trkpt lat="45.21268" lon="6.01409">
        <ele>2245.6000977</ele>
        <time>2013-04-13T08:45:36Z</time>
      </trkpt>
      <trkpt lat="45.21267" lon="6.01406">
        <ele>2245.6000977</ele>
        <time>2013-04-13T08:45:39Z</time>
      </trkpt>
      <trkpt lat="45.21266" lon="6.01403">
        <ele>2245.6000977</ele>
        <time>2013-04-13T08:45:42Z</time>
      </trkpt>
      <trkpt lat="45.21264" lon="6.01402">
        <ele>2246.1999512</ele>
        <time>2013-04-13T08:45:45Z</time>
      </trkpt>
      <trkpt lat="45.21262" lon="6.01402">
        <ele>2247.1999512</ele>
        <time>2013-04-13T08:45:48Z</time>
      </trkpt>
      <trkpt lat="45.2126" lon="6.01401">
        <ele>2248.6000977</ele>
        <time>2013-04-13T08:45:51Z</time>
      </trkpt>
      <trkpt lat="45.21258" lon="6.014">
        <ele>2249.6000977</ele>
        <time>2013-04-13T08:45:54Z</time>
      </trkpt>
      <trkpt lat="45.21256" lon="6.014">
        <ele>2249.6000977</ele>
        <time>2013-04-13T08:45:57Z</time>
      </trkpt>
      <trkpt lat="45.21254" lon="6.01399">
        <ele>2250</ele>
        <time>2013-04-13T08:46:00Z</time>
      </trkpt>
      <trkpt lat="45.21252" lon="6.01398">
        <ele>2251</ele>
        <time>2013-04-13T08:46:03Z</time>
      </trkpt>
      <trkpt lat="45.2125" lon="6.01397">
        <ele>2251.8000488</ele>
        <time>2013-04-13T08:46:06Z</time>
      </trkpt>
      <trkpt lat="45.21248" lon="6.01396">
        <ele>2253</ele>
        <time>2013-04-13T08:46:09Z</time>
      </trkpt>
      <trkpt lat="45.21248" lon="6.01395">
        <ele>2253.8000488</ele>
        <time>2013-04-13T08:46:12Z</time>
      </trkpt>
      <trkpt lat="45.21248" lon="6.01395">
        <ele>2253.8000488</ele>
        <time>2013-04-13T08:46:15Z</time>
      </trkpt>
      <trkpt lat="45.21249" lon="6.01393">
        <ele>2254.6000977</ele>
        <time>2013-04-13T08:46:18Z</time>
      </trkpt>
      <trkpt lat="45.21249" lon="6.01391">
        <ele>2255.1999512</ele>
        <time>2013-04-13T08:46:21Z</time>
      </trkpt>
      <trkpt lat="45.2125" lon="6.01389">
        <ele>2255.8000488</ele>
        <time>2013-04-13T08:46:24Z</time>
      </trkpt>
      <trkpt lat="45.2125" lon="6.01388">
        <ele>2255.8000488</ele>
        <time>2013-04-13T08:46:27Z</time>
      </trkpt>
      <trkpt lat="45.21248" lon="6.01387">
        <ele>2256.1999512</ele>
        <time>2013-04-13T08:46:30Z</time>
      </trkpt>
      <trkpt lat="45.21246" lon="6.01386">
        <ele>2257.8000488</ele>
        <time>2013-04-13T08:46:33Z</time>
      </trkpt>
      <trkpt lat="45.21244" lon="6.01385">
        <ele>2258.1999512</ele>
        <time>2013-04-13T08:46:36Z</time>
      </trkpt>
      <trkpt lat="45.21245" lon="6.01385">
        <ele>2259.1999512</ele>
        <time>2013-04-13T08:46:39Z</time>
      </trkpt>
      <trkpt lat="45.21244" lon="6.01385">
        <ele>2260</ele>
        <time>2013-04-13T08:46:42Z</time>
      </trkpt>
      <trkpt lat="45.21244" lon="6.01385">
        <ele>2260</ele>
        <time>2013-04-13T08:46:45Z</time>
      </trkpt>
      <trkpt lat="45.21244" lon="6.01385">
        <ele>2260</ele>
        <time>2013-04-13T08:46:48Z</time>
      </trkpt>
      <trkpt lat="45.21244" lon="6.01385">
        <ele>2260</ele>
        <time>2013-04-13T08:46:51Z</time>
      </trkpt>
      <trkpt lat="45.21244" lon="6.01385">
        <ele>2260</ele>
        <time>2013-04-13T08:46:54Z</time>
      </trkpt>
      <trkpt lat="45.21244" lon="6.01385">
        <ele>2260</ele>
        <time>2013-04-13T08:46:57Z</time>
      </trkpt>
      <trkpt lat="45.21244" lon="6.01384">
        <ele>2260</ele>
        <time>2013-04-13T08:47:00Z</time>
      </trkpt>
      <trkpt lat="45.21245" lon="6.01383">
        <ele>2260</ele>
        <time>2013-04-13T08:47:03Z</time>
      </trkpt>
      <trkpt lat="45.21246" lon="6.0138">
        <ele>2260</ele>
        <time>2013-04-13T08:47:06Z</time>
      </trkpt>
      <trkpt lat="45.21247" lon="6.01378">
        <ele>2261</ele>
        <time>2013-04-13T08:47:09Z</time>
      </trkpt>
      <trkpt lat="45.21247" lon="6.01375">
        <ele>2262</ele>
        <time>2013-04-13T08:47:12Z</time>
      </trkpt>
      <trkpt lat="45.21247" lon="6.01372">
        <ele>2262</ele>
        <time>2013-04-13T08:47:15Z</time>
      </trkpt>
      <trkpt lat="45.21245" lon="6.0137">
        <ele>2263.1999512</ele>
        <time>2013-04-13T08:47:18Z</time>
      </trkpt>
      <trkpt lat="45.21243" lon="6.01369">
        <ele>2264.8000488</ele>
        <time>2013-04-13T08:47:21Z</time>
      </trkpt>
      <trkpt lat="45.21241" lon="6.01369">
        <ele>2266</ele>
        <time>2013-04-13T08:47:24Z</time>
      </trkpt>
      <trkpt lat="45.21239" lon="6.01369">
        <ele>2266</ele>
        <time>2013-04-13T08:47:27Z</time>
      </trkpt>
      <trkpt lat="45.21237" lon="6.01368">
        <ele>2267</ele>
        <time>2013-04-13T08:47:30Z</time>
      </trkpt>
      <trkpt lat="45.21235" lon="6.01368">
        <ele>2268</ele>
        <time>2013-04-13T08:47:33Z</time>
      </trkpt>
      <trkpt lat="45.21235" lon="6.01367">
        <ele>2268.1999512</ele>
        <time>2013-04-13T08:47:36Z</time>
      </trkpt>
      <trkpt lat="45.21235" lon="6.01364">
        <ele>2268.1999512</ele>
        <time>2013-04-13T08:47:39Z</time>
      </trkpt>
      <trkpt lat="45.21236" lon="6.01361">
        <ele>2269.1999512</ele>
        <time>2013-04-13T08:47:42Z</time>
      </trkpt>
      <trkpt lat="45.21237" lon="6.01359">
        <ele>2270.1999512</ele>
        <time>2013-04-13T08:47:45Z</time>
      </trkpt>
      <trkpt lat="45.21237" lon="6.01357">
        <ele>2270.1999512</ele>
        <time>2013-04-13T08:47:48Z</time>
      </trkpt>
      <trkpt lat="45.21237" lon="6.01355">
        <ele>2271.1999512</ele>
        <time>2013-04-13T08:47:51Z</time>
      </trkpt>
      <trkpt lat="45.21237" lon="6.01355">
        <ele>2272</ele>
        <time>2013-04-13T08:47:54Z</time>
      </trkpt>
      <trkpt lat="45.21237" lon="6.01355">
        <ele>2272.1999512</ele>
        <time>2013-04-13T08:47:57Z</time>
      </trkpt>
      <trkpt lat="45.21237" lon="6.01354">
        <ele>2272.1999512</ele>
        <time>2013-04-13T08:48:00Z</time>
      </trkpt>
      <trkpt lat="45.21236" lon="6.01352">
        <ele>2272.1999512</ele>
        <time>2013-04-13T08:48:03Z</time>
      </trkpt>
      <trkpt lat="45.21234" lon="6.0135">
        <ele>2272.8000488</ele>
        <time>2013-04-13T08:48:06Z</time>
      </trkpt>
      <trkpt lat="45.21231" lon="6.0135">
        <ele>2274</ele>
        <time>2013-04-13T08:48:09Z</time>
      </trkpt>
      <trkpt lat="45.21229" lon="6.0135">
        <ele>2275</ele>
        <time>2013-04-13T08:48:12Z</time>
      </trkpt>
      <trkpt lat="45.21227" lon="6.01351">
        <ele>2275</ele>
        <time>2013-04-13T08:48:15Z</time>
      </trkpt>
      <trkpt lat="45.21225" lon="6.01351">
        <ele>2276.1999512</ele>
        <time>2013-04-13T08:48:18Z</time>
      </trkpt>
      <trkpt lat="45.21223" lon="6.01351">
        <ele>2277</ele>
        <time>2013-04-13T08:48:21Z</time>
      </trkpt>
      <trkpt lat="45.21221" lon="6.0135">
        <ele>2277.6000977</ele>
        <time>2013-04-13T08:48:24Z</time>
      </trkpt>
      <trkpt lat="45.21219" lon="6.0135">
        <ele>2279</ele>
        <time>2013-04-13T08:48:27Z</time>
      </trkpt>
      <trkpt lat="45.21219" lon="6.01349">
        <ele>2279</ele>
        <time>2013-04-13T08:48:30Z</time>
      </trkpt>
      <trkpt lat="45.21219" lon="6.01348">
        <ele>2279</ele>
        <time>2013-04-13T08:48:33Z</time>
      </trkpt>
      <trkpt lat="45.2122" lon="6.01345">
        <ele>2280</ele>
        <time>2013-04-13T08:48:36Z</time>
      </trkpt>
      <trkpt lat="45.2122" lon="6.01344">
        <ele>2281</ele>
        <time>2013-04-13T08:48:39Z</time>
      </trkpt>
      <trkpt lat="45.21219" lon="6.01343">
        <ele>2281.1999512</ele>
        <time>2013-04-13T08:48:42Z</time>
      </trkpt>
      <trkpt lat="45.21217" lon="6.01341">
        <ele>2281.1999512</ele>
        <time>2013-04-13T08:48:45Z</time>
      </trkpt>
      <trkpt lat="45.21215" lon="6.01339">
        <ele>2282.6000977</ele>
        <time>2013-04-13T08:48:48Z</time>
      </trkpt>
      <trkpt lat="45.21214" lon="6.01337">
        <ele>2283.1999512</ele>
        <time>2013-04-13T08:48:51Z</time>
      </trkpt>
      <trkpt lat="45.21213" lon="6.01334">
        <ele>2283.6000977</ele>
        <time>2013-04-13T08:48:54Z</time>
      </trkpt>
      <trkpt lat="45.21212" lon="6.01329">
        <ele>2284.1999512</ele>
        <time>2013-04-13T08:48:57Z</time>
      </trkpt>
      <trkpt lat="45.21213" lon="6.01322">
        <ele>2285</ele>
        <time>2013-04-13T08:49:00Z</time>
      </trkpt>
      <trkpt lat="45.21215" lon="6.01314">
        <ele>2285.1999512</ele>
        <time>2013-04-13T08:49:03Z</time>
      </trkpt>
      <trkpt lat="45.21218" lon="6.01307">
        <ele>2285.1999512</ele>
        <time>2013-04-13T08:49:06Z</time>
      </trkpt>
      <trkpt lat="45.2122" lon="6.01304">
        <ele>2284</ele>
        <time>2013-04-13T08:49:09Z</time>
      </trkpt>
      <trkpt lat="45.21221" lon="6.01303">
        <ele>2283.1999512</ele>
        <time>2013-04-13T08:49:12Z</time>
      </trkpt>
      <trkpt lat="45.21221" lon="6.01304">
        <ele>2282</ele>
        <time>2013-04-13T08:49:15Z</time>
      </trkpt>
      <trkpt lat="45.21221" lon="6.01304">
        <ele>2281</ele>
        <time>2013-04-13T08:49:18Z</time>
      </trkpt>
      <trkpt lat="45.21221" lon="6.01304">
        <ele>2281</ele>
        <time>2013-04-13T08:49:21Z</time>
      </trkpt>
      <trkpt lat="45.21222" lon="6.01303">
        <ele>2281</ele>
        <time>2013-04-13T08:49:24Z</time>
      </trkpt>
      <trkpt lat="45.21222" lon="6.01303">
        <ele>2281</ele>
        <time>2013-04-13T08:49:27Z</time>
      </trkpt>
      <trkpt lat="45.21222" lon="6.01302">
        <ele>2281</ele>
        <time>2013-04-13T08:49:30Z</time>
      </trkpt>
      <trkpt lat="45.21222" lon="6.01302">
        <ele>2281</ele>
        <time>2013-04-13T08:49:33Z</time>
      </trkpt>
      <trkpt lat="45.21222" lon="6.01302">
        <ele>2281</ele>
        <time>2013-04-13T08:49:36Z</time>
      </trkpt>
      <trkpt lat="45.21222" lon="6.01303">
        <ele>2281</ele>
        <time>2013-04-13T08:49:39Z</time>
      </trkpt>
      <trkpt lat="45.21222" lon="6.01303">
        <ele>2281</ele>
        <time>2013-04-13T08:49:42Z</time>
      </trkpt>
      <trkpt lat="45.21222" lon="6.01303">
        <ele>2281</ele>
        <time>2013-04-13T08:49:45Z</time>
      </trkpt>
      <trkpt lat="45.21222" lon="6.01303">
        <ele>2281</ele>
        <time>2013-04-13T08:49:48Z</time>
      </trkpt>
      <trkpt lat="45.21222" lon="6.01303">
        <ele>2281</ele>
        <time>2013-04-13T08:49:51Z</time>
      </trkpt>
      <trkpt lat="45.21222" lon="6.01303">
        <ele>2281</ele>
        <time>2013-04-13T08:49:54Z</time>
      </trkpt>
      <trkpt lat="45.21222" lon="6.01303">
        <ele>2281</ele>
        <time>2013-04-13T08:49:57Z</time>
      </trkpt>
      <trkpt lat="45.21222" lon="6.01303">
        <ele>2281</ele>
        <time>2013-04-13T08:50:00Z</time>
      </trkpt>
      <trkpt lat="45.21222" lon="6.01303">
        <ele>2281</ele>
        <time>2013-04-13T08:50:03Z</time>
      </trkpt>
      <trkpt lat="45.21222" lon="6.01299">
        <ele>2281</ele>
        <time>2013-04-13T08:50:06Z</time>
      </trkpt>
      <trkpt lat="45.21222" lon="6.01297">
        <ele>2281</ele>
        <time>2013-04-13T08:50:09Z</time>
      </trkpt>
      <trkpt lat="45.21222" lon="6.01297">
        <ele>2281</ele>
        <time>2013-04-13T08:50:12Z</time>
      </trkpt>
      <trkpt lat="45.21222" lon="6.01297">
        <ele>2281</ele>
        <time>2013-04-13T08:50:15Z</time>
      </trkpt>
      <trkpt lat="45.21222" lon="6.01295">
        <ele>2281</ele>
        <time>2013-04-13T08:50:18Z</time>
      </trkpt>
      <trkpt lat="45.21223" lon="6.01293">
        <ele>2281</ele>
        <time>2013-04-13T08:50:21Z</time>
      </trkpt>
      <trkpt lat="45.21222" lon="6.01291">
        <ele>2281</ele>
        <time>2013-04-13T08:50:24Z</time>
      </trkpt>
      <trkpt lat="45.21221" lon="6.01291">
        <ele>2281</ele>
        <time>2013-04-13T08:50:27Z</time>
      </trkpt>
      <trkpt lat="45.21221" lon="6.01291">
        <ele>2281</ele>
        <time>2013-04-13T08:50:30Z</time>
      </trkpt>
      <trkpt lat="45.2122" lon="6.01291">
        <ele>2281</ele>
        <time>2013-04-13T08:50:33Z</time>
      </trkpt>
      <trkpt lat="45.21217" lon="6.0129">
        <ele>2281</ele>
        <time>2013-04-13T08:50:36Z</time>
      </trkpt>
      <trkpt lat="45.21214" lon="6.01289">
        <ele>2281</ele>
        <time>2013-04-13T08:50:39Z</time>
      </trkpt>
      <trkpt lat="45.2121" lon="6.01287">
        <ele>2281</ele>
        <time>2013-04-13T08:50:42Z</time>
      </trkpt>
      <trkpt lat="45.21207" lon="6.01286">
        <ele>2281</ele>
        <time>2013-04-13T08:50:45Z</time>
      </trkpt>
      <trkpt lat="45.21205" lon="6.01286">
        <ele>2281</ele>
        <time>2013-04-13T08:50:48Z</time>
      </trkpt>
      <trkpt lat="45.21204" lon="6.01286">
        <ele>2281</ele>
        <time>2013-04-13T08:50:51Z</time>
      </trkpt>
      <trkpt lat="45.21203" lon="6.01287">
        <ele>2281</ele>
        <time>2013-04-13T08:50:54Z</time>
      </trkpt>
      <trkpt lat="45.21204" lon="6.01286">
        <ele>2281</ele>
        <time>2013-04-13T08:50:57Z</time>
      </trkpt>
      <trkpt lat="45.21207" lon="6.01281">
        <ele>2281</ele>
        <time>2013-04-13T08:51:00Z</time>
      </trkpt>
      <trkpt lat="45.21209" lon="6.01276">
        <ele>2281</ele>
        <time>2013-04-13T08:51:03Z</time>
      </trkpt>
      <trkpt lat="45.21211" lon="6.0127">
        <ele>2281</ele>
        <time>2013-04-13T08:51:06Z</time>
      </trkpt>
      <trkpt lat="45.21211" lon="6.01265">
        <ele>2281</ele>
        <time>2013-04-13T08:51:09Z</time>
      </trkpt>
      <trkpt lat="45.21212" lon="6.0126">
        <ele>2281</ele>
        <time>2013-04-13T08:51:12Z</time>
      </trkpt>
      <trkpt lat="45.21212" lon="6.01256">
        <ele>2281</ele>
        <time>2013-04-13T08:51:15Z</time>
      </trkpt>
      <trkpt lat="45.21212" lon="6.01252">
        <ele>2281</ele>
        <time>2013-04-13T08:51:18Z</time>
      </trkpt>
      <trkpt lat="45.21209" lon="6.01245">
        <ele>2281</ele>
        <time>2013-04-13T08:51:21Z</time>
      </trkpt>
      <trkpt lat="45.21208" lon="6.01234">
        <ele>2282</ele>
        <time>2013-04-13T08:51:24Z</time>
      </trkpt>
      <trkpt lat="45.21208" lon="6.0123">
        <ele>2281</ele>
        <time>2013-04-13T08:51:27Z</time>
      </trkpt>
      <trkpt lat="45.2121" lon="6.01226">
        <ele>2280</ele>
        <time>2013-04-13T08:51:30Z</time>
      </trkpt>
      <trkpt lat="45.2121" lon="6.01226">
        <ele>2279</ele>
        <time>2013-04-13T08:51:33Z</time>
      </trkpt>
      <trkpt lat="45.21211" lon="6.01225">
        <ele>2279</ele>
        <time>2013-04-13T08:51:36Z</time>
      </trkpt>
      <trkpt lat="45.21209" lon="6.01224">
        <ele>2279</ele>
        <time>2013-04-13T08:51:39Z</time>
      </trkpt>
      <trkpt lat="45.21206" lon="6.01227">
        <ele>2279</ele>
        <time>2013-04-13T08:51:42Z</time>
      </trkpt>
      <trkpt lat="45.21206" lon="6.01228">
        <ele>2279</ele>
        <time>2013-04-13T08:51:45Z</time>
      </trkpt>
      <trkpt lat="45.21206" lon="6.01228">
        <ele>2279</ele>
        <time>2013-04-13T08:51:48Z</time>
      </trkpt>
      <trkpt lat="45.21206" lon="6.01228">
        <ele>2279</ele>
        <time>2013-04-13T08:51:51Z</time>
      </trkpt>
      <trkpt lat="45.21206" lon="6.01229">
        <ele>2279</ele>
        <time>2013-04-13T08:51:54Z</time>
      </trkpt>
      <trkpt lat="45.21206" lon="6.01229">
        <ele>2279</ele>
        <time>2013-04-13T08:51:57Z</time>
      </trkpt>
      <trkpt lat="45.21206" lon="6.01229">
        <ele>2279</ele>
        <time>2013-04-13T08:52:00Z</time>
      </trkpt>
      <trkpt lat="45.21206" lon="6.01229">
        <ele>2279</ele>
        <time>2013-04-13T08:52:03Z</time>
      </trkpt>
      <trkpt lat="45.21206" lon="6.01229">
        <ele>2279</ele>
        <time>2013-04-13T08:52:06Z</time>
      </trkpt>
      <trkpt lat="45.21206" lon="6.01229">
        <ele>2279</ele>
        <time>2013-04-13T08:52:09Z</time>
      </trkpt>
      <trkpt lat="45.21206" lon="6.01229">
        <ele>2279</ele>
        <time>2013-04-13T08:52:12Z</time>
      </trkpt>
      <trkpt lat="45.21205" lon="6.0123">
        <ele>2279</ele>
        <time>2013-04-13T08:52:15Z</time>
      </trkpt>
      <trkpt lat="45.21204" lon="6.01231">
        <ele>2279</ele>
        <time>2013-04-13T08:52:18Z</time>
      </trkpt>
      <trkpt lat="45.21205" lon="6.01232">
        <ele>2279</ele>
        <time>2013-04-13T08:52:21Z</time>
      </trkpt>
      <trkpt lat="45.21206" lon="6.0123">
        <ele>2279</ele>
        <time>2013-04-13T08:52:24Z</time>
      </trkpt>
      <trkpt lat="45.21205" lon="6.0123">
        <ele>2279</ele>
        <time>2013-04-13T08:52:27Z</time>
      </trkpt>
      <trkpt lat="45.21205" lon="6.01231">
        <ele>2278</ele>
        <time>2013-04-13T08:52:30Z</time>
      </trkpt>
      <trkpt lat="45.21205" lon="6.01231">
        <ele>2277</ele>
        <time>2013-04-13T08:52:33Z</time>
      </trkpt>
      <trkpt lat="45.21205" lon="6.01231">
        <ele>2277</ele>
        <time>2013-04-13T08:52:36Z</time>
      </trkpt>
      <trkpt lat="45.21205" lon="6.01231">
        <ele>2277</ele>
        <time>2013-04-13T08:52:39Z</time>
      </trkpt>
      <trkpt lat="45.21205" lon="6.01231">
        <ele>2277</ele>
        <time>2013-04-13T08:52:42Z</time>
      </trkpt>
      <trkpt lat="45.21205" lon="6.01231">
        <ele>2278</ele>
        <time>2013-04-13T08:52:45Z</time>
      </trkpt>
      <trkpt lat="45.21205" lon="6.01231">
        <ele>2279</ele>
        <time>2013-04-13T08:52:48Z</time>
      </trkpt>
      <trkpt lat="45.21205" lon="6.01231">
        <ele>2279</ele>
        <time>2013-04-13T08:52:51Z</time>
      </trkpt>
      <trkpt lat="45.21205" lon="6.01231">
        <ele>2279</ele>
        <time>2013-04-13T08:52:54Z</time>
      </trkpt>
      <trkpt lat="45.21205" lon="6.01231">
        <ele>2279</ele>
        <time>2013-04-13T08:52:57Z</time>
      </trkpt>
      <trkpt lat="45.21205" lon="6.01231">
        <ele>2279</ele>
        <time>2013-04-13T08:53:00Z</time>
      </trkpt>
      <trkpt lat="45.21205" lon="6.01231">
        <ele>2279</ele>
        <time>2013-04-13T08:53:03Z</time>
      </trkpt>
      <trkpt lat="45.21205" lon="6.01231">
        <ele>2279</ele>
        <time>2013-04-13T08:53:06Z</time>
      </trkpt>
      <trkpt lat="45.21205" lon="6.01231">
        <ele>2279</ele>
        <time>2013-04-13T08:53:09Z</time>
      </trkpt>
      <trkpt lat="45.21205" lon="6.01231">
        <ele>2279</ele>
        <time>2013-04-13T08:53:12Z</time>
      </trkpt>
      <trkpt lat="45.21205" lon="6.01231">
        <ele>2279</ele>
        <time>2013-04-13T08:53:15Z</time>
      </trkpt>
      <trkpt lat="45.21206" lon="6.01231">
        <ele>2279</ele>
        <time>2013-04-13T08:53:18Z</time>
      </trkpt>
      <trkpt lat="45.21205" lon="6.01231">
        <ele>2279</ele>
        <time>2013-04-13T08:53:21Z</time>
      </trkpt>
      <trkpt lat="45.21205" lon="6.01232">
        <ele>2279</ele>
        <time>2013-04-13T08:53:24Z</time>
      </trkpt>
      <trkpt lat="45.21205" lon="6.01232">
        <ele>2279</ele>
        <time>2013-04-13T08:53:27Z</time>
      </trkpt>
      <trkpt lat="45.21205" lon="6.01232">
        <ele>2279</ele>
        <time>2013-04-13T08:53:30Z</time>
      </trkpt>
      <trkpt lat="45.21205" lon="6.01232">
        <ele>2279</ele>
        <time>2013-04-13T08:53:33Z</time>
      </trkpt>
      <trkpt lat="45.21205" lon="6.01232">
        <ele>2279</ele>
        <time>2013-04-13T08:53:36Z</time>
      </trkpt>
      <trkpt lat="45.21205" lon="6.01233">
        <ele>2279</ele>
        <time>2013-04-13T08:53:39Z</time>
      </trkpt>
      <trkpt lat="45.21205" lon="6.01232">
        <ele>2279</ele>
        <time>2013-04-13T08:53:42Z</time>
      </trkpt>
      <trkpt lat="45.21205" lon="6.01232">
        <ele>2279</ele>
        <time>2013-04-13T08:53:45Z</time>
      </trkpt>
      <trkpt lat="45.21205" lon="6.01232">
        <ele>2279</ele>
        <time>2013-04-13T08:53:48Z</time>
      </trkpt>
      <trkpt lat="45.21205" lon="6.01232">
        <ele>2279</ele>
        <time>2013-04-13T08:53:51Z</time>
      </trkpt>
      <trkpt lat="45.21205" lon="6.01232">
        <ele>2279</ele>
        <time>2013-04-13T08:53:54Z</time>
      </trkpt>
      <trkpt lat="45.21205" lon="6.01232">
        <ele>2279</ele>
        <time>2013-04-13T08:53:57Z</time>
      </trkpt>
      <trkpt lat="45.21205" lon="6.01232">
        <ele>2279</ele>
        <time>2013-04-13T08:54:00Z</time>
      </trkpt>
      <trkpt lat="45.21205" lon="6.01232">
        <ele>2279</ele>
        <time>2013-04-13T08:54:03Z</time>
      </trkpt>
      <trkpt lat="45.21205" lon="6.01232">
        <ele>2279</ele>
        <time>2013-04-13T08:54:06Z</time>
      </trkpt>
      <trkpt lat="45.21205" lon="6.01232">
        <ele>2279</ele>
        <time>2013-04-13T08:54:09Z</time>
      </trkpt>
      <trkpt lat="45.21205" lon="6.01232">
        <ele>2279</ele>
        <time>2013-04-13T08:54:12Z</time>
      </trkpt>
      <trkpt lat="45.21205" lon="6.01232">
        <ele>2279</ele>
        <time>2013-04-13T08:54:15Z</time>
      </trkpt>
      <trkpt lat="45.21205" lon="6.01232">
        <ele>2279</ele>
        <time>2013-04-13T08:54:18Z</time>
      </trkpt>
      <trkpt lat="45.21205" lon="6.01232">
        <ele>2279</ele>
        <time>2013-04-13T08:54:21Z</time>
      </trkpt>
      <trkpt lat="45.21204" lon="6.01233">
        <ele>2279</ele>
        <time>2013-04-13T08:54:24Z</time>
      </trkpt>
      <trkpt lat="45.21203" lon="6.01234">
        <ele>2279</ele>
        <time>2013-04-13T08:54:27Z</time>
      </trkpt>
      <trkpt lat="45.21199" lon="6.01242">
        <ele>2279</ele>
        <time>2013-04-13T08:54:30Z</time>
      </trkpt>
      <trkpt lat="45.21186" lon="6.01252">
        <ele>2278.6000977</ele>
        <time>2013-04-13T08:54:33Z</time>
      </trkpt>
      <trkpt lat="45.21161" lon="6.01261">
        <ele>2276.8000488</ele>
        <time>2013-04-13T08:54:36Z</time>
      </trkpt>
      <trkpt lat="45.21144" lon="6.01278">
        <ele>2270.6000977</ele>
        <time>2013-04-13T08:54:39Z</time>
      </trkpt>
      <trkpt lat="45.21128" lon="6.01286">
        <ele>2262.6000977</ele>
        <time>2013-04-13T08:54:42Z</time>
      </trkpt>
      <trkpt lat="45.21104" lon="6.01285">
        <ele>2254.8000488</ele>
        <time>2013-04-13T08:54:45Z</time>
      </trkpt>
      <trkpt lat="45.21075" lon="6.01271">
        <ele>2243</ele>
        <time>2013-04-13T08:54:48Z</time>
      </trkpt>
      <trkpt lat="45.21059" lon="6.0124">
        <ele>2236.8000488</ele>
        <time>2013-04-13T08:54:51Z</time>
      </trkpt>
      <trkpt lat="45.21031" lon="6.0124">
        <ele>2230.6000977</ele>
        <time>2013-04-13T08:54:54Z</time>
      </trkpt>
      <trkpt lat="45.21016" lon="6.01257">
        <ele>2218.6000977</ele>
        <time>2013-04-13T08:54:57Z</time>
      </trkpt>
      <trkpt lat="45.20986" lon="6.01262">
        <ele>2208.1999512</ele>
        <time>2013-04-13T08:55:00Z</time>
      </trkpt>
      <trkpt lat="45.2096" lon="6.01249">
        <ele>2194</ele>
        <time>2013-04-13T08:55:03Z</time>
      </trkpt>
      <trkpt lat="45.20951" lon="6.01253">
        <ele>2179</ele>
        <time>2013-04-13T08:55:06Z</time>
      </trkpt>
      <trkpt lat="45.20951" lon="6.01253">
        <ele>2168</ele>
        <time>2013-04-13T08:55:09Z</time>
      </trkpt>
      <trkpt lat="45.20951" lon="6.01253">
        <ele>2160.8000488</ele>
        <time>2013-04-13T08:55:12Z</time>
      </trkpt>
      <trkpt lat="45.20951" lon="6.01253">
        <ele>2158.6000977</ele>
        <time>2013-04-13T08:55:15Z</time>
      </trkpt>
      <trkpt lat="45.2095" lon="6.01253">
        <ele>2158.6000977</ele>
        <time>2013-04-13T08:55:18Z</time>
      </trkpt>
      <trkpt lat="45.20938" lon="6.01254">
        <ele>2158.6000977</ele>
        <time>2013-04-13T08:55:21Z</time>
      </trkpt>
      <trkpt lat="45.20914" lon="6.01267">
        <ele>2157</ele>
        <time>2013-04-13T08:55:24Z</time>
      </trkpt>
      <trkpt lat="45.20889" lon="6.01287">
        <ele>2152</ele>
        <time>2013-04-13T08:55:27Z</time>
      </trkpt>
      <trkpt lat="45.20865" lon="6.01305">
        <ele>2144</ele>
        <time>2013-04-13T08:55:30Z</time>
      </trkpt>
      <trkpt lat="45.20844" lon="6.01316">
        <ele>2138.1999512</ele>
        <time>2013-04-13T08:55:33Z</time>
      </trkpt>
      <trkpt lat="45.2082" lon="6.01339">
        <ele>2132.8000488</ele>
        <time>2013-04-13T08:55:36Z</time>
      </trkpt>
      <trkpt lat="45.20797" lon="6.01364">
        <ele>2126</ele>
        <time>2013-04-13T08:55:39Z</time>
      </trkpt>
      <trkpt lat="45.20772" lon="6.01398">
        <ele>2118.6000977</ele>
        <time>2013-04-13T08:55:42Z</time>
      </trkpt>
      <trkpt lat="45.20754" lon="6.01433">
        <ele>2106.1999512</ele>
        <time>2013-04-13T08:55:45Z</time>
      </trkpt>
      <trkpt lat="45.20736" lon="6.01469">
        <ele>2096</ele>
        <time>2013-04-13T08:55:48Z</time>
      </trkpt>
      <trkpt lat="45.20718" lon="6.0149">
        <ele>2088</ele>
        <time>2013-04-13T08:55:51Z</time>
      </trkpt>
      <trkpt lat="45.20701" lon="6.01498">
        <ele>2082.1999512</ele>
        <time>2013-04-13T08:55:54Z</time>
      </trkpt>
      <trkpt lat="45.20691" lon="6.01503">
        <ele>2077.8000488</ele>
        <time>2013-04-13T08:55:57Z</time>
      </trkpt>
      <trkpt lat="45.20682" lon="6.01509">
        <ele>2076.1999512</ele>
        <time>2013-04-13T08:56:00Z</time>
      </trkpt>
      <trkpt lat="45.20681" lon="6.0151">
        <ele>2075.1999512</ele>
        <time>2013-04-13T08:56:03Z</time>
      </trkpt>
      <trkpt lat="45.2068" lon="6.01511">
        <ele>2074</ele>
        <time>2013-04-13T08:56:06Z</time>
      </trkpt>
      <trkpt lat="45.2068" lon="6.01511">
        <ele>2074</ele>
        <time>2013-04-13T08:56:09Z</time>
      </trkpt>
      <trkpt lat="45.2068" lon="6.01511">
        <ele>2074</ele>
        <time>2013-04-13T08:56:12Z</time>
      </trkpt>
      <trkpt lat="45.2068" lon="6.01511">
        <ele>2074</ele>
        <time>2013-04-13T08:56:15Z</time>
      </trkpt>
      <trkpt lat="45.20681" lon="6.01511">
        <ele>2074</ele>
        <time>2013-04-13T08:56:18Z</time>
      </trkpt>
      <trkpt lat="45.20681" lon="6.01511">
        <ele>2073</ele>
        <time>2013-04-13T08:56:21Z</time>
      </trkpt>
      <trkpt lat="45.20681" lon="6.01511">
        <ele>2073</ele>
        <time>2013-04-13T08:56:24Z</time>
      </trkpt>
      <trkpt lat="45.20678" lon="6.01512">
        <ele>2073</ele>
        <time>2013-04-13T08:56:27Z</time>
      </trkpt>
      <trkpt lat="45.20665" lon="6.01519">
        <ele>2072.6000977</ele>
        <time>2013-04-13T08:56:30Z</time>
      </trkpt>
      <trkpt lat="45.20649" lon="6.0152">
        <ele>2070.1999512</ele>
        <time>2013-04-13T08:56:33Z</time>
      </trkpt>
      <trkpt lat="45.20629" lon="6.01529">
        <ele>2067.8000488</ele>
        <time>2013-04-13T08:56:36Z</time>
      </trkpt>
      <trkpt lat="45.20608" lon="6.01543">
        <ele>2063.1999512</ele>
        <time>2013-04-13T08:56:39Z</time>
      </trkpt>
      <trkpt lat="45.20582" lon="6.01559">
        <ele>2057</ele>
        <time>2013-04-13T08:56:42Z</time>
      </trkpt>
      <trkpt lat="45.20558" lon="6.01574">
        <ele>2051.1999512</ele>
        <time>2013-04-13T08:56:45Z</time>
      </trkpt>
      <trkpt lat="45.20531" lon="6.01589">
        <ele>2044.4000244</ele>
        <time>2013-04-13T08:56:48Z</time>
      </trkpt>
      <trkpt lat="45.20522" lon="6.01594">
        <ele>2033.4000244</ele>
        <time>2013-04-13T08:56:51Z</time>
      </trkpt>
      <trkpt lat="45.20522" lon="6.01594">
        <ele>2026.4000244</ele>
        <time>2013-04-13T08:56:54Z</time>
      </trkpt>
      <trkpt lat="45.20522" lon="6.01594">
        <ele>2020.8000488</ele>
        <time>2013-04-13T08:56:57Z</time>
      </trkpt>
      <trkpt lat="45.20522" lon="6.01594">
        <ele>2020</ele>
        <time>2013-04-13T08:57:00Z</time>
      </trkpt>
      <trkpt lat="45.20522" lon="6.01594">
        <ele>2019</ele>
        <time>2013-04-13T08:57:03Z</time>
      </trkpt>
      <trkpt lat="45.20522" lon="6.01594">
        <ele>2018.8000488</ele>
        <time>2013-04-13T08:57:06Z</time>
      </trkpt>
      <trkpt lat="45.20522" lon="6.01593">
        <ele>2018.8000488</ele>
        <time>2013-04-13T08:57:09Z</time>
      </trkpt>
      <trkpt lat="45.20522" lon="6.01593">
        <ele>2018.8000488</ele>
        <time>2013-04-13T08:57:12Z</time>
      </trkpt>
      <trkpt lat="45.20522" lon="6.01593">
        <ele>2018.8000488</ele>
        <time>2013-04-13T08:57:15Z</time>
      </trkpt>
      <trkpt lat="45.20522" lon="6.01593">
        <ele>2018.8000488</ele>
        <time>2013-04-13T08:57:18Z</time>
      </trkpt>
      <trkpt lat="45.20521" lon="6.0159">
        <ele>2018.8000488</ele>
        <time>2013-04-13T08:57:21Z</time>
      </trkpt>
      <trkpt lat="45.20516" lon="6.01585">
        <ele>2018.8000488</ele>
        <time>2013-04-13T08:57:24Z</time>
      </trkpt>
      <trkpt lat="45.20503" lon="6.01576">
        <ele>2018.4000244</ele>
        <time>2013-04-13T08:57:27Z</time>
      </trkpt>
      <trkpt lat="45.20481" lon="6.01585">
        <ele>2016.8000488</ele>
        <time>2013-04-13T08:57:30Z</time>
      </trkpt>
      <trkpt lat="45.20463" lon="6.0161">
        <ele>2010</ele>
        <time>2013-04-13T08:57:33Z</time>
      </trkpt>
      <trkpt lat="45.20452" lon="6.01622">
        <ele>2002.8000488</ele>
        <time>2013-04-13T08:57:36Z</time>
      </trkpt>
      <trkpt lat="45.20449" lon="6.01633">
        <ele>1994.4000244</ele>
        <time>2013-04-13T08:57:39Z</time>
      </trkpt>
      <trkpt lat="45.2045" lon="6.01646">
        <ele>1993.4000244</ele>
        <time>2013-04-13T08:57:42Z</time>
      </trkpt>
      <trkpt lat="45.20457" lon="6.01642">
        <ele>1991.8000488</ele>
        <time>2013-04-13T08:57:45Z</time>
      </trkpt>
      <trkpt lat="45.20461" lon="6.01646">
        <ele>1989.4000244</ele>
        <time>2013-04-13T08:57:48Z</time>
      </trkpt>
      <trkpt lat="45.20459" lon="6.01662">
        <ele>1987</ele>
        <time>2013-04-13T08:57:51Z</time>
      </trkpt>
      <trkpt lat="45.2046" lon="6.01667">
        <ele>1985</ele>
        <time>2013-04-13T08:57:54Z</time>
      </trkpt>
      <trkpt lat="45.2046" lon="6.01667">
        <ele>1982</ele>
        <time>2013-04-13T08:57:57Z</time>
      </trkpt>
      <trkpt lat="45.2046" lon="6.01667">
        <ele>1981</ele>
        <time>2013-04-13T08:58:00Z</time>
      </trkpt>
      <trkpt lat="45.20461" lon="6.01666">
        <ele>1981</ele>
        <time>2013-04-13T08:58:03Z</time>
      </trkpt>
      <trkpt lat="45.2046" lon="6.01666">
        <ele>1981</ele>
        <time>2013-04-13T08:58:06Z</time>
      </trkpt>
      <trkpt lat="45.20461" lon="6.01666">
        <ele>1981</ele>
        <time>2013-04-13T08:58:09Z</time>
      </trkpt>
      <trkpt lat="45.20461" lon="6.01665">
        <ele>1981</ele>
        <time>2013-04-13T08:58:12Z</time>
      </trkpt>
      <trkpt lat="45.20461" lon="6.01665">
        <ele>1979.8000488</ele>
        <time>2013-04-13T08:58:15Z</time>
      </trkpt>
      <trkpt lat="45.20461" lon="6.01665">
        <ele>1979.8000488</ele>
        <time>2013-04-13T08:58:18Z</time>
      </trkpt>
      <trkpt lat="45.20461" lon="6.01664">
        <ele>1979.8000488</ele>
        <time>2013-04-13T08:58:21Z</time>
      </trkpt>
      <trkpt lat="45.20461" lon="6.01664">
        <ele>1979.8000488</ele>
        <time>2013-04-13T08:58:24Z</time>
      </trkpt>
      <trkpt lat="45.20461" lon="6.01663">
        <ele>1979.4000244</ele>
        <time>2013-04-13T08:58:27Z</time>
      </trkpt>
      <trkpt lat="45.20461" lon="6.01663">
        <ele>1978.4000244</ele>
        <time>2013-04-13T08:58:30Z</time>
      </trkpt>
      <trkpt lat="45.20461" lon="6.01663">
        <ele>1977.8000488</ele>
        <time>2013-04-13T08:58:33Z</time>
      </trkpt>
      <trkpt lat="45.20461" lon="6.01663">
        <ele>1977.8000488</ele>
        <time>2013-04-13T08:58:36Z</time>
      </trkpt>
      <trkpt lat="45.20461" lon="6.01664">
        <ele>1977.8000488</ele>
        <time>2013-04-13T08:58:39Z</time>
      </trkpt>
      <trkpt lat="45.20461" lon="6.01664">
        <ele>1977.8000488</ele>
        <time>2013-04-13T08:58:42Z</time>
      </trkpt>
      <trkpt lat="45.20462" lon="6.01664">
        <ele>1977</ele>
        <time>2013-04-13T08:58:45Z</time>
      </trkpt>
      <trkpt lat="45.20462" lon="6.01664">
        <ele>1975.4000244</ele>
        <time>2013-04-13T08:58:48Z</time>
      </trkpt>
      <trkpt lat="45.20462" lon="6.01664">
        <ele>1975.4000244</ele>
        <time>2013-04-13T08:58:51Z</time>
      </trkpt>
      <trkpt lat="45.20462" lon="6.01664">
        <ele>1975.4000244</ele>
        <time>2013-04-13T08:58:54Z</time>
      </trkpt>
      <trkpt lat="45.20462" lon="6.01663">
        <ele>1975.4000244</ele>
        <time>2013-04-13T08:58:57Z</time>
      </trkpt>
      <trkpt lat="45.20462" lon="6.01663">
        <ele>1974.4000244</ele>
        <time>2013-04-13T08:59:00Z</time>
      </trkpt>
      <trkpt lat="45.20462" lon="6.01663">
        <ele>1973.4000244</ele>
        <time>2013-04-13T08:59:03Z</time>
      </trkpt>
      <trkpt lat="45.20462" lon="6.01663">
        <ele>1973.4000244</ele>
        <time>2013-04-13T08:59:06Z</time>
      </trkpt>
      <trkpt lat="45.20462" lon="6.01663">
        <ele>1973.4000244</ele>
        <time>2013-04-13T08:59:09Z</time>
      </trkpt>
      <trkpt lat="45.20462" lon="6.01663">
        <ele>1972.4000244</ele>
        <time>2013-04-13T08:59:12Z</time>
      </trkpt>
      <trkpt lat="45.20462" lon="6.01663">
        <ele>1971.4000244</ele>
        <time>2013-04-13T08:59:15Z</time>
      </trkpt>
      <trkpt lat="45.20462" lon="6.01663">
        <ele>1971.4000244</ele>
        <time>2013-04-13T08:59:18Z</time>
      </trkpt>
      <trkpt lat="45.20462" lon="6.01663">
        <ele>1971.4000244</ele>
        <time>2013-04-13T08:59:21Z</time>
      </trkpt>
      <trkpt lat="45.20462" lon="6.01662">
        <ele>1971.4000244</ele>
        <time>2013-04-13T08:59:24Z</time>
      </trkpt>
      <trkpt lat="45.20462" lon="6.01662">
        <ele>1971.4000244</ele>
        <time>2013-04-13T08:59:27Z</time>
      </trkpt>
      <trkpt lat="45.20462" lon="6.01662">
        <ele>1970.8000488</ele>
        <time>2013-04-13T08:59:30Z</time>
      </trkpt>
      <trkpt lat="45.20462" lon="6.01662">
        <ele>1969.8000488</ele>
        <time>2013-04-13T08:59:33Z</time>
      </trkpt>
      <trkpt lat="45.20462" lon="6.01663">
        <ele>1969.4000244</ele>
        <time>2013-04-13T08:59:36Z</time>
      </trkpt>
      <trkpt lat="45.20462" lon="6.01663">
        <ele>1969.4000244</ele>
        <time>2013-04-13T08:59:39Z</time>
      </trkpt>
      <trkpt lat="45.20462" lon="6.01663">
        <ele>1969.4000244</ele>
        <time>2013-04-13T08:59:42Z</time>
      </trkpt>
      <trkpt lat="45.20462" lon="6.01663">
        <ele>1969.4000244</ele>
        <time>2013-04-13T08:59:45Z</time>
      </trkpt>
      <trkpt lat="45.20462" lon="6.01663">
        <ele>1968.4000244</ele>
        <time>2013-04-13T08:59:48Z</time>
      </trkpt>
      <trkpt lat="45.20462" lon="6.01663">
        <ele>1967.4000244</ele>
        <time>2013-04-13T08:59:51Z</time>
      </trkpt>
      <trkpt lat="45.20462" lon="6.01663">
        <ele>1967.4000244</ele>
        <time>2013-04-13T08:59:54Z</time>
      </trkpt>
      <trkpt lat="45.20462" lon="6.01663">
        <ele>1967.4000244</ele>
        <time>2013-04-13T08:59:57Z</time>
      </trkpt>
      <trkpt lat="45.20462" lon="6.01663">
        <ele>1967.4000244</ele>
        <time>2013-04-13T09:00:00Z</time>
      </trkpt>
      <trkpt lat="45.20462" lon="6.01663">
        <ele>1967.4000244</ele>
        <time>2013-04-13T09:00:03Z</time>
      </trkpt>
      <trkpt lat="45.20462" lon="6.01663">
        <ele>1967.4000244</ele>
        <time>2013-04-13T09:00:06Z</time>
      </trkpt>
      <trkpt lat="45.20462" lon="6.01663">
        <ele>1967.4000244</ele>
        <time>2013-04-13T09:00:09Z</time>
      </trkpt>
      <trkpt lat="45.20462" lon="6.01663">
        <ele>1967.4000244</ele>
        <time>2013-04-13T09:00:12Z</time>
      </trkpt>
      <trkpt lat="45.20462" lon="6.01663">
        <ele>1967.4000244</ele>
        <time>2013-04-13T09:00:15Z</time>
      </trkpt>
      <trkpt lat="45.20462" lon="6.01662">
        <ele>1967.4000244</ele>
        <time>2013-04-13T09:00:18Z</time>
      </trkpt>
      <trkpt lat="45.20462" lon="6.01662">
        <ele>1967.4000244</ele>
        <time>2013-04-13T09:00:21Z</time>
      </trkpt>
      <trkpt lat="45.20462" lon="6.01662">
        <ele>1967.4000244</ele>
        <time>2013-04-13T09:00:24Z</time>
      </trkpt>
      <trkpt lat="45.20462" lon="6.01662">
        <ele>1967.4000244</ele>
        <time>2013-04-13T09:00:27Z</time>
      </trkpt>
      <trkpt lat="45.20462" lon="6.01663">
        <ele>1967.4000244</ele>
        <time>2013-04-13T09:00:30Z</time>
      </trkpt>
      <trkpt lat="45.20462" lon="6.01663">
        <ele>1967.4000244</ele>
        <time>2013-04-13T09:00:33Z</time>
      </trkpt>
      <trkpt lat="45.20462" lon="6.01663">
        <ele>1967.4000244</ele>
        <time>2013-04-13T09:00:36Z</time>
      </trkpt>
      <trkpt lat="45.20462" lon="6.01663">
        <ele>1967.4000244</ele>
        <time>2013-04-13T09:00:39Z</time>
      </trkpt>
      <trkpt lat="45.20462" lon="6.01663">
        <ele>1967.4000244</ele>
        <time>2013-04-13T09:00:42Z</time>
      </trkpt>
      <trkpt lat="45.20462" lon="6.01662">
        <ele>1967.4000244</ele>
        <time>2013-04-13T09:00:45Z</time>
      </trkpt>
      <trkpt lat="45.20462" lon="6.01662">
        <ele>1967.4000244</ele>
        <time>2013-04-13T09:00:48Z</time>
      </trkpt>
      <trkpt lat="45.20462" lon="6.01663">
        <ele>1967.4000244</ele>
        <time>2013-04-13T09:00:51Z</time>
      </trkpt>
      <trkpt lat="45.20462" lon="6.01662">
        <ele>1967.4000244</ele>
        <time>2013-04-13T09:00:54Z</time>
      </trkpt>
      <trkpt lat="45.20463" lon="6.01662">
        <ele>1967.4000244</ele>
        <time>2013-04-13T09:00:57Z</time>
      </trkpt>
      <trkpt lat="45.20463" lon="6.01663">
        <ele>1967.4000244</ele>
        <time>2013-04-13T09:01:00Z</time>
      </trkpt>
      <trkpt lat="45.20463" lon="6.01662">
        <ele>1967.4000244</ele>
        <time>2013-04-13T09:01:03Z</time>
      </trkpt>
      <trkpt lat="45.20463" lon="6.01662">
        <ele>1967.4000244</ele>
        <time>2013-04-13T09:01:06Z</time>
      </trkpt>
      <trkpt lat="45.20463" lon="6.01662">
        <ele>1967.4000244</ele>
        <time>2013-04-13T09:01:09Z</time>
      </trkpt>
      <trkpt lat="45.20462" lon="6.01662">
        <ele>1967.4000244</ele>
        <time>2013-04-13T09:01:12Z</time>
      </trkpt>
      <trkpt lat="45.20463" lon="6.01663">
        <ele>1967.4000244</ele>
        <time>2013-04-13T09:01:15Z</time>
      </trkpt>
      <trkpt lat="45.20463" lon="6.01662">
        <ele>1967.4000244</ele>
        <time>2013-04-13T09:01:18Z</time>
      </trkpt>
      <trkpt lat="45.20463" lon="6.01662">
        <ele>1967.4000244</ele>
        <time>2013-04-13T09:01:21Z</time>
      </trkpt>
      <trkpt lat="45.20463" lon="6.01662">
        <ele>1967.4000244</ele>
        <time>2013-04-13T09:01:24Z</time>
      </trkpt>
      <trkpt lat="45.20463" lon="6.01662">
        <ele>1967.4000244</ele>
        <time>2013-04-13T09:01:27Z</time>
      </trkpt>
      <trkpt lat="45.20463" lon="6.01662">
        <ele>1967.4000244</ele>
        <time>2013-04-13T09:01:30Z</time>
      </trkpt>
      <trkpt lat="45.20463" lon="6.01659">
        <ele>1967.4000244</ele>
        <time>2013-04-13T09:01:33Z</time>
      </trkpt>
      <trkpt lat="45.20463" lon="6.01656">
        <ele>1967.4000244</ele>
        <time>2013-04-13T09:01:36Z</time>
      </trkpt>
      <trkpt lat="45.20463" lon="6.01653">
        <ele>1967.4000244</ele>
        <time>2013-04-13T09:01:39Z</time>
      </trkpt>
      <trkpt lat="45.20463" lon="6.01651">
        <ele>1967.4000244</ele>
        <time>2013-04-13T09:01:42Z</time>
      </trkpt>
      <trkpt lat="45.20463" lon="6.01652">
        <ele>1967.4000244</ele>
        <time>2013-04-13T09:01:45Z</time>
      </trkpt>
      <trkpt lat="45.20463" lon="6.01651">
        <ele>1967.4000244</ele>
        <time>2013-04-13T09:01:48Z</time>
      </trkpt>
      <trkpt lat="45.20463" lon="6.01651">
        <ele>1968.4000244</ele>
        <time>2013-04-13T09:01:51Z</time>
      </trkpt>
      <trkpt lat="45.20463" lon="6.01651">
        <ele>1969.4000244</ele>
        <time>2013-04-13T09:01:54Z</time>
      </trkpt>
      <trkpt lat="45.20462" lon="6.01652">
        <ele>1969.8000488</ele>
        <time>2013-04-13T09:01:57Z</time>
      </trkpt>
      <trkpt lat="45.20463" lon="6.01652">
        <ele>1969.8000488</ele>
        <time>2013-04-13T09:02:00Z</time>
      </trkpt>
      <trkpt lat="45.20462" lon="6.01652">
        <ele>1969.8000488</ele>
        <time>2013-04-13T09:02:03Z</time>
      </trkpt>
      <trkpt lat="45.20462" lon="6.01652">
        <ele>1969.8000488</ele>
        <time>2013-04-13T09:02:06Z</time>
      </trkpt>
      <trkpt lat="45.20462" lon="6.01652">
        <ele>1969.8000488</ele>
        <time>2013-04-13T09:02:09Z</time>
      </trkpt>
      <trkpt lat="45.20462" lon="6.01652">
        <ele>1969.8000488</ele>
        <time>2013-04-13T09:02:12Z</time>
      </trkpt>
      <trkpt lat="45.20462" lon="6.01651">
        <ele>1969.8000488</ele>
        <time>2013-04-13T09:02:15Z</time>
      </trkpt>
      <trkpt lat="45.20462" lon="6.01652">
        <ele>1969.8000488</ele>
        <time>2013-04-13T09:02:18Z</time>
      </trkpt>
      <trkpt lat="45.20461" lon="6.01651">
        <ele>1969.8000488</ele>
        <time>2013-04-13T09:02:21Z</time>
      </trkpt>
      <trkpt lat="45.20461" lon="6.01651">
        <ele>1969.8000488</ele>
        <time>2013-04-13T09:02:24Z</time>
      </trkpt>
      <trkpt lat="45.20461" lon="6.0165">
        <ele>1969.8000488</ele>
        <time>2013-04-13T09:02:27Z</time>
      </trkpt>
      <trkpt lat="45.20461" lon="6.0165">
        <ele>1969.8000488</ele>
        <time>2013-04-13T09:02:30Z</time>
      </trkpt>
      <trkpt lat="45.20461" lon="6.0165">
        <ele>1969.8000488</ele>
        <time>2013-04-13T09:02:33Z</time>
      </trkpt>
      <trkpt lat="45.20461" lon="6.0165">
        <ele>1969.8000488</ele>
        <time>2013-04-13T09:02:36Z</time>
      </trkpt>
      <trkpt lat="45.20461" lon="6.0165">
        <ele>1969.8000488</ele>
        <time>2013-04-13T09:02:39Z</time>
      </trkpt>
      <trkpt lat="45.20461" lon="6.0165">
        <ele>1969.8000488</ele>
        <time>2013-04-13T09:02:42Z</time>
      </trkpt>
      <trkpt lat="45.20461" lon="6.0165">
        <ele>1969.8000488</ele>
        <time>2013-04-13T09:02:45Z</time>
      </trkpt>
      <trkpt lat="45.2046" lon="6.0165">
        <ele>1969.8000488</ele>
        <time>2013-04-13T09:02:48Z</time>
      </trkpt>
      <trkpt lat="45.2046" lon="6.0165">
        <ele>1969.8000488</ele>
        <time>2013-04-13T09:02:51Z</time>
      </trkpt>
      <trkpt lat="45.2046" lon="6.0165">
        <ele>1969.8000488</ele>
        <time>2013-04-13T09:02:54Z</time>
      </trkpt>
      <trkpt lat="45.2046" lon="6.0165">
        <ele>1969.8000488</ele>
        <time>2013-04-13T09:02:57Z</time>
      </trkpt>
      <trkpt lat="45.2046" lon="6.0165">
        <ele>1969.8000488</ele>
        <time>2013-04-13T09:03:00Z</time>
      </trkpt>
      <trkpt lat="45.2046" lon="6.0165">
        <ele>1969.8000488</ele>
        <time>2013-04-13T09:03:03Z</time>
      </trkpt>
      <trkpt lat="45.2046" lon="6.0165">
        <ele>1969.8000488</ele>
        <time>2013-04-13T09:03:06Z</time>
      </trkpt>
      <trkpt lat="45.2046" lon="6.0165">
        <ele>1969.8000488</ele>
        <time>2013-04-13T09:03:09Z</time>
      </trkpt>
      <trkpt lat="45.2046" lon="6.0165">
        <ele>1969.8000488</ele>
        <time>2013-04-13T09:03:12Z</time>
      </trkpt>
      <trkpt lat="45.20461" lon="6.0165">
        <ele>1969.8000488</ele>
        <time>2013-04-13T09:03:15Z</time>
      </trkpt>
      <trkpt lat="45.2046" lon="6.0165">
        <ele>1969.8000488</ele>
        <time>2013-04-13T09:03:18Z</time>
      </trkpt>
      <trkpt lat="45.20461" lon="6.0165">
        <ele>1969.8000488</ele>
        <time>2013-04-13T09:03:21Z</time>
      </trkpt>
      <trkpt lat="45.20461" lon="6.0165">
        <ele>1969.8000488</ele>
        <time>2013-04-13T09:03:24Z</time>
      </trkpt>
      <trkpt lat="45.20461" lon="6.01649">
        <ele>1969.8000488</ele>
        <time>2013-04-13T09:03:27Z</time>
      </trkpt>
      <trkpt lat="45.20461" lon="6.01646">
        <ele>1969.8000488</ele>
        <time>2013-04-13T09:03:30Z</time>
      </trkpt>
      <trkpt lat="45.20461" lon="6.01643">
        <ele>1969.8000488</ele>
        <time>2013-04-13T09:03:33Z</time>
      </trkpt>
      <trkpt lat="45.20461" lon="6.0164">
        <ele>1969.8000488</ele>
        <time>2013-04-13T09:03:36Z</time>
      </trkpt>
      <trkpt lat="45.20462" lon="6.01637">
        <ele>1969.8000488</ele>
        <time>2013-04-13T09:03:39Z</time>
      </trkpt>
      <trkpt lat="45.20462" lon="6.01634">
        <ele>1970</ele>
        <time>2013-04-13T09:03:42Z</time>
      </trkpt>
      <trkpt lat="45.20462" lon="6.01632">
        <ele>1971.4000244</ele>
        <time>2013-04-13T09:03:45Z</time>
      </trkpt>
      <trkpt lat="45.20463" lon="6.0163">
        <ele>1971.8000488</ele>
        <time>2013-04-13T09:03:48Z</time>
      </trkpt>
      <trkpt lat="45.20465" lon="6.01627">
        <ele>1972.8000488</ele>
        <time>2013-04-13T09:03:51Z</time>
      </trkpt>
      <trkpt lat="45.20466" lon="6.01624">
        <ele>1973.8000488</ele>
        <time>2013-04-13T09:03:54Z</time>
      </trkpt>
      <trkpt lat="45.20467" lon="6.01621">
        <ele>1973.8000488</ele>
        <time>2013-04-13T09:03:57Z</time>
      </trkpt>
      <trkpt lat="45.20469" lon="6.01618">
        <ele>1973.8000488</ele>
        <time>2013-04-13T09:04:00Z</time>
      </trkpt>
      <trkpt lat="45.2047" lon="6.01615">
        <ele>1973.8000488</ele>
        <time>2013-04-13T09:04:03Z</time>
      </trkpt>
      <trkpt lat="45.20472" lon="6.01612">
        <ele>1973.8000488</ele>
        <time>2013-04-13T09:04:06Z</time>
      </trkpt>
      <trkpt lat="45.20472" lon="6.01612">
        <ele>1975</ele>
        <time>2013-04-13T09:04:09Z</time>
      </trkpt>
      <trkpt lat="45.20473" lon="6.0161">
        <ele>1976</ele>
        <time>2013-04-13T09:04:12Z</time>
      </trkpt>
      <trkpt lat="45.20474" lon="6.01609">
        <ele>1976</ele>
        <time>2013-04-13T09:04:15Z</time>
      </trkpt>
      <trkpt lat="45.20475" lon="6.01608">
        <ele>1976</ele>
        <time>2013-04-13T09:04:18Z</time>
      </trkpt>
      <trkpt lat="45.20476" lon="6.01607">
        <ele>1976</ele>
        <time>2013-04-13T09:04:21Z</time>
      </trkpt>
      <trkpt lat="45.20475" lon="6.01603">
        <ele>1976</ele>
        <time>2013-04-13T09:04:24Z</time>
      </trkpt>
      <trkpt lat="45.20476" lon="6.01603">
        <ele>1977</ele>
        <time>2013-04-13T09:04:27Z</time>
      </trkpt>
      <trkpt lat="45.20476" lon="6.01601">
        <ele>1977.8000488</ele>
        <time>2013-04-13T09:04:30Z</time>
      </trkpt>
      <trkpt lat="45.20476" lon="6.01599">
        <ele>1978</ele>
        <time>2013-04-13T09:04:33Z</time>
      </trkpt>
      <trkpt lat="45.20476" lon="6.01595">
        <ele>1978</ele>
        <time>2013-04-13T09:04:36Z</time>
      </trkpt>
      <trkpt lat="45.20475" lon="6.01593">
        <ele>1979.4000244</ele>
        <time>2013-04-13T09:04:39Z</time>
      </trkpt>
      <trkpt lat="45.20474" lon="6.0159">
        <ele>1980</ele>
        <time>2013-04-13T09:04:42Z</time>
      </trkpt>
      <trkpt lat="45.20474" lon="6.01587">
        <ele>1980.4000244</ele>
        <time>2013-04-13T09:04:45Z</time>
      </trkpt>
      <trkpt lat="45.20473" lon="6.01585">
        <ele>1981</ele>
        <time>2013-04-13T09:04:48Z</time>
      </trkpt>
      <trkpt lat="45.20473" lon="6.01582">
        <ele>1982</ele>
        <time>2013-04-13T09:04:51Z</time>
      </trkpt>
      <trkpt lat="45.20472" lon="6.01579">
        <ele>1982.4000244</ele>
        <time>2013-04-13T09:04:54Z</time>
      </trkpt>
      <trkpt lat="45.2047" lon="6.01576">
        <ele>1983.8000488</ele>
        <time>2013-04-13T09:04:57Z</time>
      </trkpt>
      <trkpt lat="45.20469" lon="6.01574">
        <ele>1984.4000244</ele>
        <time>2013-04-13T09:05:00Z</time>
      </trkpt>
      <trkpt lat="45.20468" lon="6.01572">
        <ele>1984.8000488</ele>
        <time>2013-04-13T09:05:03Z</time>
      </trkpt>
      <trkpt lat="45.20468" lon="6.01569">
        <ele>1985.8000488</ele>
        <time>2013-04-13T09:05:06Z</time>
      </trkpt>
      <trkpt lat="45.20467" lon="6.01567">
        <ele>1986.4000244</ele>
        <time>2013-04-13T09:05:09Z</time>
      </trkpt>
      <trkpt lat="45.20466" lon="6.01564">
        <ele>1987</ele>
        <time>2013-04-13T09:05:12Z</time>
      </trkpt>
      <trkpt lat="45.20465" lon="6.01562">
        <ele>1988.4000244</ele>
        <time>2013-04-13T09:05:15Z</time>
      </trkpt>
      <trkpt lat="45.20464" lon="6.01559">
        <ele>1988.4000244</ele>
        <time>2013-04-13T09:05:18Z</time>
      </trkpt>
      <trkpt lat="45.20464" lon="6.01558">
        <ele>1988.4000244</ele>
        <time>2013-04-13T09:05:21Z</time>
      </trkpt>
      <trkpt lat="45.20464" lon="6.01555">
        <ele>1989.4000244</ele>
        <time>2013-04-13T09:05:24Z</time>
      </trkpt>
      <trkpt lat="45.20463" lon="6.01553">
        <ele>1990.4000244</ele>
        <time>2013-04-13T09:05:27Z</time>
      </trkpt>
      <trkpt lat="45.20463" lon="6.01552">
        <ele>1991</ele>
        <time>2013-04-13T09:05:30Z</time>
      </trkpt>
      <trkpt lat="45.20462" lon="6.01549">
        <ele>1992</ele>
        <time>2013-04-13T09:05:33Z</time>
      </trkpt>
      <trkpt lat="45.20462" lon="6.01546">
        <ele>1992.4000244</ele>
        <time>2013-04-13T09:05:36Z</time>
      </trkpt>
      <trkpt lat="45.20461" lon="6.01543">
        <ele>1992.8000488</ele>
        <time>2013-04-13T09:05:39Z</time>
      </trkpt>
      <trkpt lat="45.2046" lon="6.0154">
        <ele>1994</ele>
        <time>2013-04-13T09:05:42Z</time>
      </trkpt>
      <trkpt lat="45.2046" lon="6.01538">
        <ele>1994.8000488</ele>
        <time>2013-04-13T09:05:45Z</time>
      </trkpt>
      <trkpt lat="45.20459" lon="6.01535">
        <ele>1994.8000488</ele>
        <time>2013-04-13T09:05:48Z</time>
      </trkpt>
      <trkpt lat="45.20458" lon="6.01533">
        <ele>1995.8000488</ele>
        <time>2013-04-13T09:05:51Z</time>
      </trkpt>
      <trkpt lat="45.20458" lon="6.01529">
        <ele>1996.4000244</ele>
        <time>2013-04-13T09:05:54Z</time>
      </trkpt>
      <trkpt lat="45.20458" lon="6.01527">
        <ele>1997</ele>
        <time>2013-04-13T09:05:57Z</time>
      </trkpt>
      <trkpt lat="45.20457" lon="6.01525">
        <ele>1998</ele>
        <time>2013-04-13T09:06:00Z</time>
      </trkpt>
      <trkpt lat="45.20456" lon="6.01522">
        <ele>1998.8000488</ele>
        <time>2013-04-13T09:06:03Z</time>
      </trkpt>
      <trkpt lat="45.20456" lon="6.0152">
        <ele>1999.4000244</ele>
        <time>2013-04-13T09:06:06Z</time>
      </trkpt>
      <trkpt lat="45.20457" lon="6.01517">
        <ele>2000.4000244</ele>
        <time>2013-04-13T09:06:09Z</time>
      </trkpt>
      <trkpt lat="45.20458" lon="6.01515">
        <ele>2001</ele>
        <time>2013-04-13T09:06:12Z</time>
      </trkpt>
      <trkpt lat="45.20459" lon="6.01512">
        <ele>2001</ele>
        <time>2013-04-13T09:06:15Z</time>
      </trkpt>
      <trkpt lat="45.2046" lon="6.0151">
        <ele>2001.8000488</ele>
        <time>2013-04-13T09:06:18Z</time>
      </trkpt>
      <trkpt lat="45.20461" lon="6.01507">
        <ele>2003</ele>
        <time>2013-04-13T09:06:21Z</time>
      </trkpt>
      <trkpt lat="45.20463" lon="6.01505">
        <ele>2003</ele>
        <time>2013-04-13T09:06:24Z</time>
      </trkpt>
      <trkpt lat="45.20465" lon="6.01502">
        <ele>2003.4000244</ele>
        <time>2013-04-13T09:06:27Z</time>
      </trkpt>
      <trkpt lat="45.20466" lon="6.015">
        <ele>2005</ele>
        <time>2013-04-13T09:06:30Z</time>
      </trkpt>
      <trkpt lat="45.20468" lon="6.01498">
        <ele>2005.4000244</ele>
        <time>2013-04-13T09:06:33Z</time>
      </trkpt>
      <trkpt lat="45.20469" lon="6.01497">
        <ele>2005.4000244</ele>
        <time>2013-04-13T09:06:36Z</time>
      </trkpt>
      <trkpt lat="45.20467" lon="6.01495">
        <ele>2005.8000488</ele>
        <time>2013-04-13T09:06:39Z</time>
      </trkpt>
      <trkpt lat="45.20464" lon="6.01494">
        <ele>2006.8000488</ele>
        <time>2013-04-13T09:06:42Z</time>
      </trkpt>
      <trkpt lat="45.20462" lon="6.01494">
        <ele>2007.4000244</ele>
        <time>2013-04-13T09:06:45Z</time>
      </trkpt>
      <trkpt lat="45.20459" lon="6.01494">
        <ele>2007.4000244</ele>
        <time>2013-04-13T09:06:48Z</time>
      </trkpt>
      <trkpt lat="45.20457" lon="6.01494">
        <ele>2008.4000244</ele>
        <time>2013-04-13T09:06:51Z</time>
      </trkpt>
      <trkpt lat="45.20455" lon="6.01495">
        <ele>2009.4000244</ele>
        <time>2013-04-13T09:06:54Z</time>
      </trkpt>
      <trkpt lat="45.20452" lon="6.01496">
        <ele>2009.4000244</ele>
        <time>2013-04-13T09:06:57Z</time>
      </trkpt>
      <trkpt lat="45.20449" lon="6.01496">
        <ele>2010</ele>
        <time>2013-04-13T09:07:00Z</time>
      </trkpt>
      <trkpt lat="45.20447" lon="6.01496">
        <ele>2011.4000244</ele>
        <time>2013-04-13T09:07:03Z</time>
      </trkpt>
      <trkpt lat="45.20444" lon="6.01497">
        <ele>2011.8000488</ele>
        <time>2013-04-13T09:07:06Z</time>
      </trkpt>
      <trkpt lat="45.20443" lon="6.01497">
        <ele>2011.8000488</ele>
        <time>2013-04-13T09:07:09Z</time>
      </trkpt>
      <trkpt lat="45.20442" lon="6.01497">
        <ele>2013</ele>
        <time>2013-04-13T09:07:12Z</time>
      </trkpt>
      <trkpt lat="45.20443" lon="6.01495">
        <ele>2014</ele>
        <time>2013-04-13T09:07:15Z</time>
      </trkpt>
      <trkpt lat="45.20445" lon="6.01492">
        <ele>2014</ele>
        <time>2013-04-13T09:07:18Z</time>
      </trkpt>
      <trkpt lat="45.20446" lon="6.0149">
        <ele>2014</ele>
        <time>2013-04-13T09:07:21Z</time>
      </trkpt>
      <trkpt lat="45.20448" lon="6.01487">
        <ele>2014</ele>
        <time>2013-04-13T09:07:24Z</time>
      </trkpt>
      <trkpt lat="45.2045" lon="6.01485">
        <ele>2014.4000244</ele>
        <time>2013-04-13T09:07:27Z</time>
      </trkpt>
      <trkpt lat="45.20451" lon="6.01483">
        <ele>2015.8000488</ele>
        <time>2013-04-13T09:07:30Z</time>
      </trkpt>
      <trkpt lat="45.20451" lon="6.01482">
        <ele>2016</ele>
        <time>2013-04-13T09:07:33Z</time>
      </trkpt>
      <trkpt lat="45.20449" lon="6.01482">
        <ele>2017</ele>
        <time>2013-04-13T09:07:36Z</time>
      </trkpt>
      <trkpt lat="45.20447" lon="6.01482">
        <ele>2018</ele>
        <time>2013-04-13T09:07:39Z</time>
      </trkpt>
      <trkpt lat="45.20444" lon="6.01483">
        <ele>2018</ele>
        <time>2013-04-13T09:07:42Z</time>
      </trkpt>
      <trkpt lat="45.20443" lon="6.01484">
        <ele>2018.4000244</ele>
        <time>2013-04-13T09:07:45Z</time>
      </trkpt>
      <trkpt lat="45.2044" lon="6.01484">
        <ele>2019.4000244</ele>
        <time>2013-04-13T09:07:48Z</time>
      </trkpt>
      <trkpt lat="45.20438" lon="6.01485">
        <ele>2020</ele>
        <time>2013-04-13T09:07:51Z</time>
      </trkpt>
      <trkpt lat="45.20436" lon="6.01486">
        <ele>2020</ele>
        <time>2013-04-13T09:07:54Z</time>
      </trkpt>
      <trkpt lat="45.20434" lon="6.01486">
        <ele>2021</ele>
        <time>2013-04-13T09:07:57Z</time>
      </trkpt>
      <trkpt lat="45.20431" lon="6.01487">
        <ele>2022.4000244</ele>
        <time>2013-04-13T09:08:00Z</time>
      </trkpt>
      <trkpt lat="45.20429" lon="6.01487">
        <ele>2022.4000244</ele>
        <time>2013-04-13T09:08:03Z</time>
      </trkpt>
      <trkpt lat="45.20427" lon="6.01487">
        <ele>2022.8000488</ele>
        <time>2013-04-13T09:08:06Z</time>
      </trkpt>
      <trkpt lat="45.20426" lon="6.01487">
        <ele>2023.8000488</ele>
        <time>2013-04-13T09:08:09Z</time>
      </trkpt>
      <trkpt lat="45.20425" lon="6.01486">
        <ele>2024.4000244</ele>
        <time>2013-04-13T09:08:12Z</time>
      </trkpt>
      <trkpt lat="45.20424" lon="6.01485">
        <ele>2024.4000244</ele>
        <time>2013-04-13T09:08:15Z</time>
      </trkpt>
      <trkpt lat="45.20424" lon="6.01485">
        <ele>2025.4000244</ele>
        <time>2013-04-13T09:08:18Z</time>
      </trkpt>
      <trkpt lat="45.20424" lon="6.01485">
        <ele>2026.4000244</ele>
        <time>2013-04-13T09:08:21Z</time>
      </trkpt>
      <trkpt lat="45.20424" lon="6.01485">
        <ele>2026.4000244</ele>
        <time>2013-04-13T09:08:24Z</time>
      </trkpt>
      <trkpt lat="45.20424" lon="6.01485">
        <ele>2026.4000244</ele>
        <time>2013-04-13T09:08:27Z</time>
      </trkpt>
      <trkpt lat="45.20424" lon="6.01486">
        <ele>2026.4000244</ele>
        <time>2013-04-13T09:08:30Z</time>
      </trkpt>
      <trkpt lat="45.20425" lon="6.01485">
        <ele>2026.4000244</ele>
        <time>2013-04-13T09:08:33Z</time>
      </trkpt>
      <trkpt lat="45.20425" lon="6.01485">
        <ele>2026.4000244</ele>
        <time>2013-04-13T09:08:36Z</time>
      </trkpt>
      <trkpt lat="45.20425" lon="6.01485">
        <ele>2026.4000244</ele>
        <time>2013-04-13T09:08:39Z</time>
      </trkpt>
      <trkpt lat="45.20425" lon="6.01483">
        <ele>2026.4000244</ele>
        <time>2013-04-13T09:08:42Z</time>
      </trkpt>
      <trkpt lat="45.20425" lon="6.01483">
        <ele>2026.4000244</ele>
        <time>2013-04-13T09:08:45Z</time>
      </trkpt>
      <trkpt lat="45.20425" lon="6.01484">
        <ele>2026.4000244</ele>
        <time>2013-04-13T09:08:48Z</time>
      </trkpt>
      <trkpt lat="45.20425" lon="6.01484">
        <ele>2026.4000244</ele>
        <time>2013-04-13T09:08:51Z</time>
      </trkpt>
      <trkpt lat="45.20425" lon="6.01485">
        <ele>2026.4000244</ele>
        <time>2013-04-13T09:08:54Z</time>
      </trkpt>
      <trkpt lat="45.20425" lon="6.01485">
        <ele>2026.4000244</ele>
        <time>2013-04-13T09:08:57Z</time>
      </trkpt>
      <trkpt lat="45.20425" lon="6.01485">
        <ele>2026.4000244</ele>
        <time>2013-04-13T09:09:00Z</time>
      </trkpt>
      <trkpt lat="45.20425" lon="6.01485">
        <ele>2026.4000244</ele>
        <time>2013-04-13T09:09:03Z</time>
      </trkpt>
      <trkpt lat="45.20425" lon="6.01485">
        <ele>2026.4000244</ele>
        <time>2013-04-13T09:09:06Z</time>
      </trkpt>
      <trkpt lat="45.20425" lon="6.01485">
        <ele>2026.4000244</ele>
        <time>2013-04-13T09:09:09Z</time>
      </trkpt>
      <trkpt lat="45.20425" lon="6.01485">
        <ele>2026.4000244</ele>
        <time>2013-04-13T09:09:12Z</time>
      </trkpt>
      <trkpt lat="45.20425" lon="6.01485">
        <ele>2026.4000244</ele>
        <time>2013-04-13T09:09:15Z</time>
      </trkpt>
      <trkpt lat="45.20425" lon="6.01485">
        <ele>2026.4000244</ele>
        <time>2013-04-13T09:09:18Z</time>
      </trkpt>
      <trkpt lat="45.20425" lon="6.01484">
        <ele>2026.4000244</ele>
        <time>2013-04-13T09:09:21Z</time>
      </trkpt>
      <trkpt lat="45.20425" lon="6.01481">
        <ele>2026.4000244</ele>
        <time>2013-04-13T09:09:24Z</time>
      </trkpt>
      <trkpt lat="45.20425" lon="6.01479">
        <ele>2026.4000244</ele>
        <time>2013-04-13T09:09:27Z</time>
      </trkpt>
      <trkpt lat="45.20425" lon="6.01478">
        <ele>2026.4000244</ele>
        <time>2013-04-13T09:09:30Z</time>
      </trkpt>
      <trkpt lat="45.20426" lon="6.01475">
        <ele>2026.4000244</ele>
        <time>2013-04-13T09:09:33Z</time>
      </trkpt>
      <trkpt lat="45.20426" lon="6.01471">
        <ele>2026.8000488</ele>
        <time>2013-04-13T09:09:36Z</time>
      </trkpt>
      <trkpt lat="45.20427" lon="6.01469">
        <ele>2028</ele>
        <time>2013-04-13T09:09:39Z</time>
      </trkpt>
      <trkpt lat="45.20427" lon="6.01466">
        <ele>2028.8000488</ele>
        <time>2013-04-13T09:09:42Z</time>
      </trkpt>
      <trkpt lat="45.20427" lon="6.01462">
        <ele>2030</ele>
        <time>2013-04-13T09:09:45Z</time>
      </trkpt>
      <trkpt lat="45.20428" lon="6.01459">
        <ele>2030.8000488</ele>
        <time>2013-04-13T09:09:48Z</time>
      </trkpt>
      <trkpt lat="45.20428" lon="6.01455">
        <ele>2030.8000488</ele>
        <time>2013-04-13T09:09:51Z</time>
      </trkpt>
      <trkpt lat="45.20428" lon="6.01451">
        <ele>2031</ele>
        <time>2013-04-13T09:09:54Z</time>
      </trkpt>
      <trkpt lat="45.20428" lon="6.01448">
        <ele>2032</ele>
        <time>2013-04-13T09:09:57Z</time>
      </trkpt>
      <trkpt lat="45.20427" lon="6.01443">
        <ele>2032.8000488</ele>
        <time>2013-04-13T09:10:00Z</time>
      </trkpt>
      <trkpt lat="45.20426" lon="6.01439">
        <ele>2033.4000244</ele>
        <time>2013-04-13T09:10:03Z</time>
      </trkpt>
      <trkpt lat="45.20425" lon="6.01435">
        <ele>2034.4000244</ele>
        <time>2013-04-13T09:10:06Z</time>
      </trkpt>
      <trkpt lat="45.20425" lon="6.01431">
        <ele>2034.8000488</ele>
        <time>2013-04-13T09:10:09Z</time>
      </trkpt>
      <trkpt lat="45.20424" lon="6.01426">
        <ele>2034.8000488</ele>
        <time>2013-04-13T09:10:12Z</time>
      </trkpt>
      <trkpt lat="45.20423" lon="6.01422">
        <ele>2035.4000244</ele>
        <time>2013-04-13T09:10:15Z</time>
      </trkpt>
      <trkpt lat="45.20422" lon="6.01418">
        <ele>2036</ele>
        <time>2013-04-13T09:10:18Z</time>
      </trkpt>
      <trkpt lat="45.20421" lon="6.01414">
        <ele>2036.8000488</ele>
        <time>2013-04-13T09:10:21Z</time>
      </trkpt>
      <trkpt lat="45.20421" lon="6.01409">
        <ele>2036.8000488</ele>
        <time>2013-04-13T09:10:24Z</time>
      </trkpt>
      <trkpt lat="45.2042" lon="6.01405">
        <ele>2037</ele>
        <time>2013-04-13T09:10:27Z</time>
      </trkpt>
      <trkpt lat="45.20419" lon="6.01401">
        <ele>2038.4000244</ele>
        <time>2013-04-13T09:10:30Z</time>
      </trkpt>
      <trkpt lat="45.20418" lon="6.01397">
        <ele>2039</ele>
        <time>2013-04-13T09:10:33Z</time>
      </trkpt>
      <trkpt lat="45.20418" lon="6.01393">
        <ele>2039</ele>
        <time>2013-04-13T09:10:36Z</time>
      </trkpt>
      <trkpt lat="45.20417" lon="6.01389">
        <ele>2039</ele>
        <time>2013-04-13T09:10:39Z</time>
      </trkpt>
      <trkpt lat="45.20417" lon="6.01385">
        <ele>2039.4000244</ele>
        <time>2013-04-13T09:10:42Z</time>
      </trkpt>
      <trkpt lat="45.20417" lon="6.0138">
        <ele>2040.4000244</ele>
        <time>2013-04-13T09:10:45Z</time>
      </trkpt>
      <trkpt lat="45.20417" lon="6.01373">
        <ele>2041</ele>
        <time>2013-04-13T09:10:48Z</time>
      </trkpt>
      <trkpt lat="45.20418" lon="6.01369">
        <ele>2041</ele>
        <time>2013-04-13T09:10:51Z</time>
      </trkpt>
      <trkpt lat="45.20418" lon="6.01364">
        <ele>2041</ele>
        <time>2013-04-13T09:10:54Z</time>
      </trkpt>
      <trkpt lat="45.20418" lon="6.0136">
        <ele>2041</ele>
        <time>2013-04-13T09:10:57Z</time>
      </trkpt>
      <trkpt lat="45.20418" lon="6.01357">
        <ele>2042</ele>
        <time>2013-04-13T09:11:00Z</time>
      </trkpt>
      <trkpt lat="45.20418" lon="6.01353">
        <ele>2043</ele>
        <time>2013-04-13T09:11:03Z</time>
      </trkpt>
      <trkpt lat="45.20417" lon="6.01349">
        <ele>2043.4000244</ele>
        <time>2013-04-13T09:11:06Z</time>
      </trkpt>
      <trkpt lat="45.20416" lon="6.01344">
        <ele>2045</ele>
        <time>2013-04-13T09:11:09Z</time>
      </trkpt>
      <trkpt lat="45.20414" lon="6.01338">
        <ele>2045</ele>
        <time>2013-04-13T09:11:12Z</time>
      </trkpt>
      <trkpt lat="45.20412" lon="6.01333">
        <ele>2045</ele>
        <time>2013-04-13T09:11:15Z</time>
      </trkpt>
      <trkpt lat="45.2041" lon="6.01329">
        <ele>2045</ele>
        <time>2013-04-13T09:11:18Z</time>
      </trkpt>
      <trkpt lat="45.20408" lon="6.01325">
        <ele>2045</ele>
        <time>2013-04-13T09:11:21Z</time>
      </trkpt>
      <trkpt lat="45.20406" lon="6.01321">
        <ele>2045</ele>
        <time>2013-04-13T09:11:24Z</time>
      </trkpt>
      <trkpt lat="45.20405" lon="6.01318">
        <ele>2046</ele>
        <time>2013-04-13T09:11:27Z</time>
      </trkpt>
      <trkpt lat="45.20404" lon="6.01315">
        <ele>2047</ele>
        <time>2013-04-13T09:11:30Z</time>
      </trkpt>
      <trkpt lat="45.20404" lon="6.01311">
        <ele>2047.8000488</ele>
        <time>2013-04-13T09:11:33Z</time>
      </trkpt>
      <trkpt lat="45.20403" lon="6.01308">
        <ele>2049</ele>
        <time>2013-04-13T09:11:36Z</time>
      </trkpt>
      <trkpt lat="45.20403" lon="6.01306">
        <ele>2049.1999512</ele>
        <time>2013-04-13T09:11:39Z</time>
      </trkpt>
      <trkpt lat="45.20402" lon="6.01303">
        <ele>2049.8000488</ele>
        <time>2013-04-13T09:11:42Z</time>
      </trkpt>
      <trkpt lat="45.20401" lon="6.013">
        <ele>2051</ele>
        <time>2013-04-13T09:11:45Z</time>
      </trkpt>
      <trkpt lat="45.204" lon="6.01297">
        <ele>2051.6000977</ele>
        <time>2013-04-13T09:11:48Z</time>
      </trkpt>
      <trkpt lat="45.20399" lon="6.01295">
        <ele>2052</ele>
        <time>2013-04-13T09:11:51Z</time>
      </trkpt>
      <trkpt lat="45.20399" lon="6.01292">
        <ele>2053</ele>
        <time>2013-04-13T09:11:54Z</time>
      </trkpt>
      <trkpt lat="45.20398" lon="6.01289">
        <ele>2053.6000977</ele>
        <time>2013-04-13T09:11:57Z</time>
      </trkpt>
      <trkpt lat="45.20397" lon="6.01286">
        <ele>2054.1999512</ele>
        <time>2013-04-13T09:12:00Z</time>
      </trkpt>
      <trkpt lat="45.20396" lon="6.01283">
        <ele>2055.1999512</ele>
        <time>2013-04-13T09:12:03Z</time>
      </trkpt>
      <trkpt lat="45.20395" lon="6.01279">
        <ele>2055.6000977</ele>
        <time>2013-04-13T09:12:06Z</time>
      </trkpt>
      <trkpt lat="45.20394" lon="6.01275">
        <ele>2056</ele>
        <time>2013-04-13T09:12:09Z</time>
      </trkpt>
      <trkpt lat="45.20393" lon="6.01271">
        <ele>2057</ele>
        <time>2013-04-13T09:12:12Z</time>
      </trkpt>
      <trkpt lat="45.20392" lon="6.01267">
        <ele>2057.8000488</ele>
        <time>2013-04-13T09:12:15Z</time>
      </trkpt>
      <trkpt lat="45.20392" lon="6.01264">
        <ele>2057.8000488</ele>
        <time>2013-04-13T09:12:18Z</time>
      </trkpt>
      <trkpt lat="45.20391" lon="6.0126">
        <ele>2057.8000488</ele>
        <time>2013-04-13T09:12:21Z</time>
      </trkpt>
      <trkpt lat="45.2039" lon="6.01256">
        <ele>2059</ele>
        <time>2013-04-13T09:12:24Z</time>
      </trkpt>
      <trkpt lat="45.20389" lon="6.01252">
        <ele>2059.8000488</ele>
        <time>2013-04-13T09:12:27Z</time>
      </trkpt>
      <trkpt lat="45.20388" lon="6.01248">
        <ele>2059.8000488</ele>
        <time>2013-04-13T09:12:30Z</time>
      </trkpt>
      <trkpt lat="45.20388" lon="6.01244">
        <ele>2059.8000488</ele>
        <time>2013-04-13T09:12:33Z</time>
      </trkpt>
      <trkpt lat="45.20388" lon="6.01241">
        <ele>2060.8000488</ele>
        <time>2013-04-13T09:12:36Z</time>
      </trkpt>
      <trkpt lat="45.20388" lon="6.01238">
        <ele>2062</ele>
        <time>2013-04-13T09:12:39Z</time>
      </trkpt>
      <trkpt lat="45.20388" lon="6.01235">
        <ele>2063</ele>
        <time>2013-04-13T09:12:42Z</time>
      </trkpt>
      <trkpt lat="45.20388" lon="6.01232">
        <ele>2063.8000488</ele>
        <time>2013-04-13T09:12:45Z</time>
      </trkpt>
      <trkpt lat="45.20388" lon="6.01229">
        <ele>2064</ele>
        <time>2013-04-13T09:12:48Z</time>
      </trkpt>
      <trkpt lat="45.20388" lon="6.01226">
        <ele>2065</ele>
        <time>2013-04-13T09:12:51Z</time>
      </trkpt>
      <trkpt lat="45.20388" lon="6.01223">
        <ele>2065.8000488</ele>
        <time>2013-04-13T09:12:54Z</time>
      </trkpt>
      <trkpt lat="45.20386" lon="6.01221">
        <ele>2066.1999512</ele>
        <time>2013-04-13T09:12:57Z</time>
      </trkpt>
      <trkpt lat="45.20384" lon="6.01222">
        <ele>2067.6000977</ele>
        <time>2013-04-13T09:13:00Z</time>
      </trkpt>
      <trkpt lat="45.20382" lon="6.01222">
        <ele>2068</ele>
        <time>2013-04-13T09:13:03Z</time>
      </trkpt>
      <trkpt lat="45.2038" lon="6.01222">
        <ele>2069</ele>
        <time>2013-04-13T09:13:06Z</time>
      </trkpt>
      <trkpt lat="45.20379" lon="6.0122">
        <ele>2070</ele>
        <time>2013-04-13T09:13:09Z</time>
      </trkpt>
      <trkpt lat="45.20379" lon="6.01217">
        <ele>2070</ele>
        <time>2013-04-13T09:13:12Z</time>
      </trkpt>
      <trkpt lat="45.2038" lon="6.01214">
        <ele>2070.1999512</ele>
        <time>2013-04-13T09:13:15Z</time>
      </trkpt>
      <trkpt lat="45.2038" lon="6.01211">
        <ele>2071.1999512</ele>
        <time>2013-04-13T09:13:18Z</time>
      </trkpt>
      <trkpt lat="45.20381" lon="6.01208">
        <ele>2072</ele>
        <time>2013-04-13T09:13:21Z</time>
      </trkpt>
      <trkpt lat="45.20382" lon="6.01204">
        <ele>2072.6000977</ele>
        <time>2013-04-13T09:13:24Z</time>
      </trkpt>
      <trkpt lat="45.20383" lon="6.01202">
        <ele>2073.8000488</ele>
        <time>2013-04-13T09:13:27Z</time>
      </trkpt>
      <trkpt lat="45.20384" lon="6.01199">
        <ele>2074</ele>
        <time>2013-04-13T09:13:30Z</time>
      </trkpt>
      <trkpt lat="45.20385" lon="6.01197">
        <ele>2074.1999512</ele>
        <time>2013-04-13T09:13:33Z</time>
      </trkpt>
      <trkpt lat="45.20386" lon="6.01196">
        <ele>2075.1999512</ele>
        <time>2013-04-13T09:13:36Z</time>
      </trkpt>
      <trkpt lat="45.20387" lon="6.01194">
        <ele>2076</ele>
        <time>2013-04-13T09:13:39Z</time>
      </trkpt>
      <trkpt lat="45.20388" lon="6.01191">
        <ele>2076.6000977</ele>
        <time>2013-04-13T09:13:42Z</time>
      </trkpt>
      <trkpt lat="45.20389" lon="6.01188">
        <ele>2077.6000977</ele>
        <time>2013-04-13T09:13:45Z</time>
      </trkpt>
      <trkpt lat="45.20389" lon="6.01186">
        <ele>2078.1999512</ele>
        <time>2013-04-13T09:13:48Z</time>
      </trkpt>
      <trkpt lat="45.20388" lon="6.01184">
        <ele>2079.1999512</ele>
        <time>2013-04-13T09:13:51Z</time>
      </trkpt>
      <trkpt lat="45.20388" lon="6.01183">
        <ele>2080</ele>
        <time>2013-04-13T09:13:54Z</time>
      </trkpt>
      <trkpt lat="45.20389" lon="6.01179">
        <ele>2080.6000977</ele>
        <time>2013-04-13T09:13:57Z</time>
      </trkpt>
      <trkpt lat="45.20389" lon="6.01177">
        <ele>2081.6000977</ele>
        <time>2013-04-13T09:14:00Z</time>
      </trkpt>
      <trkpt lat="45.20389" lon="6.01174">
        <ele>2082</ele>
        <time>2013-04-13T09:14:03Z</time>
      </trkpt>
      <trkpt lat="45.20389" lon="6.01171">
        <ele>2082.8000488</ele>
        <time>2013-04-13T09:14:06Z</time>
      </trkpt>
      <trkpt lat="45.20391" lon="6.01169">
        <ele>2084</ele>
        <time>2013-04-13T09:14:09Z</time>
      </trkpt>
      <trkpt lat="45.20393" lon="6.01166">
        <ele>2084</ele>
        <time>2013-04-13T09:14:12Z</time>
      </trkpt>
      <trkpt lat="45.20393" lon="6.01163">
        <ele>2084</ele>
        <time>2013-04-13T09:14:15Z</time>
      </trkpt>
      <trkpt lat="45.20393" lon="6.01159">
        <ele>2085.6000977</ele>
        <time>2013-04-13T09:14:18Z</time>
      </trkpt>
      <trkpt lat="45.20393" lon="6.01155">
        <ele>2086.6000977</ele>
        <time>2013-04-13T09:14:21Z</time>
      </trkpt>
      <trkpt lat="45.20392" lon="6.01152">
        <ele>2086.6000977</ele>
        <time>2013-04-13T09:14:24Z</time>
      </trkpt>
      <trkpt lat="45.20392" lon="6.01149">
        <ele>2087.1999512</ele>
        <time>2013-04-13T09:14:27Z</time>
      </trkpt>
      <trkpt lat="45.20391" lon="6.01146">
        <ele>2088.6000977</ele>
        <time>2013-04-13T09:14:30Z</time>
      </trkpt>
      <trkpt lat="45.20389" lon="6.01144">
        <ele>2089</ele>
        <time>2013-04-13T09:14:33Z</time>
      </trkpt>
      <trkpt lat="45.20388" lon="6.01141">
        <ele>2090</ele>
        <time>2013-04-13T09:14:36Z</time>
      </trkpt>
      <trkpt lat="45.20387" lon="6.01139">
        <ele>2090.6000977</ele>
        <time>2013-04-13T09:14:39Z</time>
      </trkpt>
      <trkpt lat="45.20386" lon="6.01136">
        <ele>2090.6000977</ele>
        <time>2013-04-13T09:14:42Z</time>
      </trkpt>
      <trkpt lat="45.20385" lon="6.01135">
        <ele>2091.8000488</ele>
        <time>2013-04-13T09:14:45Z</time>
      </trkpt>
      <trkpt lat="45.20385" lon="6.01133">
        <ele>2093</ele>
        <time>2013-04-13T09:14:48Z</time>
      </trkpt>
      <trkpt lat="45.20385" lon="6.01133">
        <ele>2093</ele>
        <time>2013-04-13T09:14:51Z</time>
      </trkpt>
      <trkpt lat="45.20385" lon="6.01133">
        <ele>2094</ele>
        <time>2013-04-13T09:14:54Z</time>
      </trkpt>
      <trkpt lat="45.20384" lon="6.01133">
        <ele>2095</ele>
        <time>2013-04-13T09:14:57Z</time>
      </trkpt>
      <trkpt lat="45.20384" lon="6.01133">
        <ele>2095</ele>
        <time>2013-04-13T09:15:00Z</time>
      </trkpt>
      <trkpt lat="45.20385" lon="6.01132">
        <ele>2095</ele>
        <time>2013-04-13T09:15:03Z</time>
      </trkpt>
      <trkpt lat="45.20384" lon="6.01132">
        <ele>2095</ele>
        <time>2013-04-13T09:15:06Z</time>
      </trkpt>
      <trkpt lat="45.20384" lon="6.01132">
        <ele>2095</ele>
        <time>2013-04-13T09:15:09Z</time>
      </trkpt>
      <trkpt lat="45.20385" lon="6.0113">
        <ele>2095</ele>
        <time>2013-04-13T09:15:12Z</time>
      </trkpt>
      <trkpt lat="45.20386" lon="6.01129">
        <ele>2095</ele>
        <time>2013-04-13T09:15:15Z</time>
      </trkpt>
      <trkpt lat="45.20388" lon="6.01126">
        <ele>2095</ele>
        <time>2013-04-13T09:15:18Z</time>
      </trkpt>
      <trkpt lat="45.20389" lon="6.01123">
        <ele>2095.6000977</ele>
        <time>2013-04-13T09:15:21Z</time>
      </trkpt>
      <trkpt lat="45.20389" lon="6.01122">
        <ele>2096.8000488</ele>
        <time>2013-04-13T09:15:24Z</time>
      </trkpt>
      <trkpt lat="45.20389" lon="6.01122">
        <ele>2097</ele>
        <time>2013-04-13T09:15:27Z</time>
      </trkpt>
      <trkpt lat="45.20389" lon="6.01122">
        <ele>2097</ele>
        <time>2013-04-13T09:15:30Z</time>
      </trkpt>
      <trkpt lat="45.20389" lon="6.01122">
        <ele>2097</ele>
        <time>2013-04-13T09:15:33Z</time>
      </trkpt>
      <trkpt lat="45.20389" lon="6.01122">
        <ele>2097</ele>
        <time>2013-04-13T09:15:36Z</time>
      </trkpt>
      <trkpt lat="45.2039" lon="6.01122">
        <ele>2097</ele>
        <time>2013-04-13T09:15:39Z</time>
      </trkpt>
      <trkpt lat="45.20391" lon="6.01119">
        <ele>2097</ele>
        <time>2013-04-13T09:15:42Z</time>
      </trkpt>
      <trkpt lat="45.20392" lon="6.01116">
        <ele>2098</ele>
        <time>2013-04-13T09:15:45Z</time>
      </trkpt>
      <trkpt lat="45.20393" lon="6.01112">
        <ele>2098.8000488</ele>
        <time>2013-04-13T09:15:48Z</time>
      </trkpt>
      <trkpt lat="45.20392" lon="6.01109">
        <ele>2099.8000488</ele>
        <time>2013-04-13T09:15:51Z</time>
      </trkpt>
      <trkpt lat="45.20391" lon="6.01107">
        <ele>2101</ele>
        <time>2013-04-13T09:15:54Z</time>
      </trkpt>
      <trkpt lat="45.20389" lon="6.01105">
        <ele>2102.1999512</ele>
        <time>2013-04-13T09:15:57Z</time>
      </trkpt>
      <trkpt lat="45.20389" lon="6.01102">
        <ele>2103.1999512</ele>
        <time>2013-04-13T09:16:00Z</time>
      </trkpt>
      <trkpt lat="45.20389" lon="6.01099">
        <ele>2103.8000488</ele>
        <time>2013-04-13T09:16:03Z</time>
      </trkpt>
      <trkpt lat="45.20389" lon="6.01096">
        <ele>2104.8000488</ele>
        <time>2013-04-13T09:16:06Z</time>
      </trkpt>
      <trkpt lat="45.20389" lon="6.01094">
        <ele>2105.6000977</ele>
        <time>2013-04-13T09:16:09Z</time>
      </trkpt>
      <trkpt lat="45.20389" lon="6.01091">
        <ele>2105.6000977</ele>
        <time>2013-04-13T09:16:12Z</time>
      </trkpt>
      <trkpt lat="45.20389" lon="6.01089">
        <ele>2106.6000977</ele>
        <time>2013-04-13T09:16:15Z</time>
      </trkpt>
      <trkpt lat="45.20388" lon="6.01086">
        <ele>2107.6000977</ele>
        <time>2013-04-13T09:16:18Z</time>
      </trkpt>
      <trkpt lat="45.20387" lon="6.01083">
        <ele>2109</ele>
        <time>2013-04-13T09:16:21Z</time>
      </trkpt>
      <trkpt lat="45.20386" lon="6.0108">
        <ele>2109.6000977</ele>
        <time>2013-04-13T09:16:24Z</time>
      </trkpt>
      <trkpt lat="45.20386" lon="6.01078">
        <ele>2110</ele>
        <time>2013-04-13T09:16:27Z</time>
      </trkpt>
      <trkpt lat="45.20385" lon="6.01075">
        <ele>2111.1999512</ele>
        <time>2013-04-13T09:16:30Z</time>
      </trkpt>
      <trkpt lat="45.20385" lon="6.01073">
        <ele>2112</ele>
        <time>2013-04-13T09:16:33Z</time>
      </trkpt>
      <trkpt lat="45.20385" lon="6.01072">
        <ele>2113.1999512</ele>
        <time>2013-04-13T09:16:36Z</time>
      </trkpt>
      <trkpt lat="45.20385" lon="6.01071">
        <ele>2113.8000488</ele>
        <time>2013-04-13T09:16:39Z</time>
      </trkpt>
      <trkpt lat="45.20386" lon="6.01068">
        <ele>2113.8000488</ele>
        <time>2013-04-13T09:16:42Z</time>
      </trkpt>
      <trkpt lat="45.20386" lon="6.01065">
        <ele>2113.8000488</ele>
        <time>2013-04-13T09:16:45Z</time>
      </trkpt>
      <trkpt lat="45.20387" lon="6.01062">
        <ele>2114.1999512</ele>
        <time>2013-04-13T09:16:48Z</time>
      </trkpt>
      <trkpt lat="45.20388" lon="6.01058">
        <ele>2115.8000488</ele>
        <time>2013-04-13T09:16:51Z</time>
      </trkpt>
      <trkpt lat="45.20388" lon="6.01054">
        <ele>2115.8000488</ele>
        <time>2013-04-13T09:16:54Z</time>
      </trkpt>
      <trkpt lat="45.20389" lon="6.0105">
        <ele>2116</ele>
        <time>2013-04-13T09:16:57Z</time>
      </trkpt>
      <trkpt lat="45.20389" lon="6.01045">
        <ele>2116.8000488</ele>
        <time>2013-04-13T09:17:00Z</time>
      </trkpt>
      <trkpt lat="45.20389" lon="6.01041">
        <ele>2117.8000488</ele>
        <time>2013-04-13T09:17:03Z</time>
      </trkpt>
      <trkpt lat="45.20389" lon="6.01036">
        <ele>2117.8000488</ele>
        <time>2013-04-13T09:17:06Z</time>
      </trkpt>
      <trkpt lat="45.20388" lon="6.01032">
        <ele>2117.8000488</ele>
        <time>2013-04-13T09:17:09Z</time>
      </trkpt>
      <trkpt lat="45.20388" lon="6.01027">
        <ele>2119</ele>
        <time>2013-04-13T09:17:12Z</time>
      </trkpt>
      <trkpt lat="45.20388" lon="6.01023">
        <ele>2119.8000488</ele>
        <time>2013-04-13T09:17:15Z</time>
      </trkpt>
      <trkpt lat="45.20388" lon="6.01019">
        <ele>2119.8000488</ele>
        <time>2013-04-13T09:17:18Z</time>
      </trkpt>
      <trkpt lat="45.20388" lon="6.01015">
        <ele>2120</ele>
        <time>2013-04-13T09:17:21Z</time>
      </trkpt>
      <trkpt lat="45.20387" lon="6.0101">
        <ele>2121</ele>
        <time>2013-04-13T09:17:24Z</time>
      </trkpt>
      <trkpt lat="45.20386" lon="6.01007">
        <ele>2121.8000488</ele>
        <time>2013-04-13T09:17:27Z</time>
      </trkpt>
      <trkpt lat="45.20384" lon="6.01004">
        <ele>2121.8000488</ele>
        <time>2013-04-13T09:17:30Z</time>
      </trkpt>
      <trkpt lat="45.20382" lon="6.01001">
        <ele>2123</ele>
        <time>2013-04-13T09:17:33Z</time>
      </trkpt>
      <trkpt lat="45.20381" lon="6.00998">
        <ele>2124</ele>
        <time>2013-04-13T09:17:36Z</time>
      </trkpt>
      <trkpt lat="45.20379" lon="6.00995">
        <ele>2124</ele>
        <time>2013-04-13T09:17:39Z</time>
      </trkpt>
      <trkpt lat="45.20378" lon="6.00992">
        <ele>2124.1999512</ele>
        <time>2013-04-13T09:17:42Z</time>
      </trkpt>
      <trkpt lat="45.20377" lon="6.0099">
        <ele>2125.6000977</ele>
        <time>2013-04-13T09:17:45Z</time>
      </trkpt>
      <trkpt lat="45.20375" lon="6.00987">
        <ele>2126</ele>
        <time>2013-04-13T09:17:48Z</time>
      </trkpt>
      <trkpt lat="45.20374" lon="6.00984">
        <ele>2126.8000488</ele>
        <time>2013-04-13T09:17:51Z</time>
      </trkpt>
      <trkpt lat="45.20373" lon="6.00981">
        <ele>2127.8000488</ele>
        <time>2013-04-13T09:17:54Z</time>
      </trkpt>
      <trkpt lat="45.20371" lon="6.00978">
        <ele>2128</ele>
        <time>2013-04-13T09:17:57Z</time>
      </trkpt>
      <trkpt lat="45.2037" lon="6.00975">
        <ele>2128.6000977</ele>
        <time>2013-04-13T09:18:00Z</time>
      </trkpt>
      <trkpt lat="45.20369" lon="6.00972">
        <ele>2129.6000977</ele>
        <time>2013-04-13T09:18:03Z</time>
      </trkpt>
      <trkpt lat="45.20368" lon="6.00969">
        <ele>2130</ele>
        <time>2013-04-13T09:18:06Z</time>
      </trkpt>
      <trkpt lat="45.20367" lon="6.00966">
        <ele>2130.6000977</ele>
        <time>2013-04-13T09:18:09Z</time>
      </trkpt>
      <trkpt lat="45.20366" lon="6.00963">
        <ele>2131.6000977</ele>
        <time>2013-04-13T09:18:12Z</time>
      </trkpt>
      <trkpt lat="45.20365" lon="6.0096">
        <ele>2132</ele>
        <time>2013-04-13T09:18:15Z</time>
      </trkpt>
      <trkpt lat="45.20364" lon="6.00958">
        <ele>2132.8000488</ele>
        <time>2013-04-13T09:18:18Z</time>
      </trkpt>
      <trkpt lat="45.20363" lon="6.00955">
        <ele>2133.8000488</ele>
        <time>2013-04-13T09:18:21Z</time>
      </trkpt>
      <trkpt lat="45.20362" lon="6.00952">
        <ele>2134</ele>
        <time>2013-04-13T09:18:24Z</time>
      </trkpt>
      <trkpt lat="45.20361" lon="6.0095">
        <ele>2134.8000488</ele>
        <time>2013-04-13T09:18:27Z</time>
      </trkpt>
      <trkpt lat="45.2036" lon="6.00947">
        <ele>2135.6000977</ele>
        <time>2013-04-13T09:18:30Z</time>
      </trkpt>
      <trkpt lat="45.2036" lon="6.00947">
        <ele>2136</ele>
        <time>2013-04-13T09:18:33Z</time>
      </trkpt>
      <trkpt lat="45.20359" lon="6.00945">
        <ele>2136</ele>
        <time>2013-04-13T09:18:36Z</time>
      </trkpt>
      <trkpt lat="45.20359" lon="6.00943">
        <ele>2136.6000977</ele>
        <time>2013-04-13T09:18:39Z</time>
      </trkpt>
      <trkpt lat="45.20358" lon="6.0094">
        <ele>2137.8000488</ele>
        <time>2013-04-13T09:18:42Z</time>
      </trkpt>
      <trkpt lat="45.20357" lon="6.00937">
        <ele>2138.1999512</ele>
        <time>2013-04-13T09:18:45Z</time>
      </trkpt>
      <trkpt lat="45.20356" lon="6.00935">
        <ele>2138.8000488</ele>
        <time>2013-04-13T09:18:48Z</time>
      </trkpt>
      <trkpt lat="45.20355" lon="6.00933">
        <ele>2139.8000488</ele>
        <time>2013-04-13T09:18:51Z</time>
      </trkpt>
      <trkpt lat="45.20354" lon="6.0093">
        <ele>2140.1999512</ele>
        <time>2013-04-13T09:18:54Z</time>
      </trkpt>
      <trkpt lat="45.20353" lon="6.00927">
        <ele>2141.1999512</ele>
        <time>2013-04-13T09:18:57Z</time>
      </trkpt>
      <trkpt lat="45.20352" lon="6.00924">
        <ele>2142.6000977</ele>
        <time>2013-04-13T09:19:00Z</time>
      </trkpt>
      <trkpt lat="45.20351" lon="6.00921">
        <ele>2142.6000977</ele>
        <time>2013-04-13T09:19:03Z</time>
      </trkpt>
      <trkpt lat="45.2035" lon="6.00918">
        <ele>2143</ele>
        <time>2013-04-13T09:19:06Z</time>
      </trkpt>
      <trkpt lat="45.20349" lon="6.00915">
        <ele>2144</ele>
        <time>2013-04-13T09:19:09Z</time>
      </trkpt>
      <trkpt lat="45.20348" lon="6.00912">
        <ele>2144.6000977</ele>
        <time>2013-04-13T09:19:12Z</time>
      </trkpt>
      <trkpt lat="45.20347" lon="6.00909">
        <ele>2145</ele>
        <time>2013-04-13T09:19:15Z</time>
      </trkpt>
      <trkpt lat="45.20346" lon="6.00906">
        <ele>2146</ele>
        <time>2013-04-13T09:19:18Z</time>
      </trkpt>
      <trkpt lat="45.20345" lon="6.00903">
        <ele>2146.8000488</ele>
        <time>2013-04-13T09:19:21Z</time>
      </trkpt>
      <trkpt lat="45.20343" lon="6.009">
        <ele>2147</ele>
        <time>2013-04-13T09:19:24Z</time>
      </trkpt>
      <trkpt lat="45.20342" lon="6.00897">
        <ele>2148</ele>
        <time>2013-04-13T09:19:27Z</time>
      </trkpt>
      <trkpt lat="45.2034" lon="6.00894">
        <ele>2148.8000488</ele>
        <time>2013-04-13T09:19:30Z</time>
      </trkpt>
      <trkpt lat="45.20339" lon="6.00891">
        <ele>2148.8000488</ele>
        <time>2013-04-13T09:19:33Z</time>
      </trkpt>
      <trkpt lat="45.20338" lon="6.00888">
        <ele>2149</ele>
        <time>2013-04-13T09:19:36Z</time>
      </trkpt>
      <trkpt lat="45.20336" lon="6.00885">
        <ele>2150.1999512</ele>
        <time>2013-04-13T09:19:39Z</time>
      </trkpt>
      <trkpt lat="45.20335" lon="6.00882">
        <ele>2150.8000488</ele>
        <time>2013-04-13T09:19:42Z</time>
      </trkpt>
      <trkpt lat="45.20334" lon="6.00879">
        <ele>2151.1999512</ele>
        <time>2013-04-13T09:19:45Z</time>
      </trkpt>
      <trkpt lat="45.20333" lon="6.00876">
        <ele>2152.8000488</ele>
        <time>2013-04-13T09:19:48Z</time>
      </trkpt>
      <trkpt lat="45.20332" lon="6.00874">
        <ele>2152.8000488</ele>
        <time>2013-04-13T09:19:51Z</time>
      </trkpt>
      <trkpt lat="45.20332" lon="6.00871">
        <ele>2153.6000977</ele>
        <time>2013-04-13T09:19:54Z</time>
      </trkpt>
      <trkpt lat="45.20332" lon="6.00868">
        <ele>2154.1999512</ele>
        <time>2013-04-13T09:19:57Z</time>
      </trkpt>
      <trkpt lat="45.20331" lon="6.00864">
        <ele>2155</ele>
        <time>2013-04-13T09:20:00Z</time>
      </trkpt>
      <trkpt lat="45.20331" lon="6.00861">
        <ele>2156.1999512</ele>
        <time>2013-04-13T09:20:03Z</time>
      </trkpt>
      <trkpt lat="45.20331" lon="6.00857">
        <ele>2157</ele>
        <time>2013-04-13T09:20:06Z</time>
      </trkpt>
      <trkpt lat="45.2033" lon="6.00854">
        <ele>2157</ele>
        <time>2013-04-13T09:20:09Z</time>
      </trkpt>
      <trkpt lat="45.2033" lon="6.0085">
        <ele>2157.8000488</ele>
        <time>2013-04-13T09:20:12Z</time>
      </trkpt>
      <trkpt lat="45.20329" lon="6.00846">
        <ele>2158.8000488</ele>
        <time>2013-04-13T09:20:15Z</time>
      </trkpt>
      <trkpt lat="45.20327" lon="6.00841">
        <ele>2159</ele>
        <time>2013-04-13T09:20:18Z</time>
      </trkpt>
      <trkpt lat="45.20325" lon="6.00838">
        <ele>2159</ele>
        <time>2013-04-13T09:20:21Z</time>
      </trkpt>
      <trkpt lat="45.20323" lon="6.00834">
        <ele>2159.8000488</ele>
        <time>2013-04-13T09:20:24Z</time>
      </trkpt>
      <trkpt lat="45.20322" lon="6.00831">
        <ele>2161</ele>
        <time>2013-04-13T09:20:27Z</time>
      </trkpt>
      <trkpt lat="45.2032" lon="6.00828">
        <ele>2161</ele>
        <time>2013-04-13T09:20:30Z</time>
      </trkpt>
      <trkpt lat="45.20319" lon="6.00826">
        <ele>2161.8000488</ele>
        <time>2013-04-13T09:20:33Z</time>
      </trkpt>
      <trkpt lat="45.20317" lon="6.00823">
        <ele>2163</ele>
        <time>2013-04-13T09:20:36Z</time>
      </trkpt>
      <trkpt lat="45.20316" lon="6.0082">
        <ele>2163</ele>
        <time>2013-04-13T09:20:39Z</time>
      </trkpt>
      <trkpt lat="45.20315" lon="6.00817">
        <ele>2163.8000488</ele>
        <time>2013-04-13T09:20:42Z</time>
      </trkpt>
      <trkpt lat="45.20314" lon="6.00814">
        <ele>2165</ele>
        <time>2013-04-13T09:20:45Z</time>
      </trkpt>
      <trkpt lat="45.20313" lon="6.00813">
        <ele>2165</ele>
        <time>2013-04-13T09:20:48Z</time>
      </trkpt>
      <trkpt lat="45.20313" lon="6.00812">
        <ele>2166</ele>
        <time>2013-04-13T09:20:51Z</time>
      </trkpt>
      <trkpt lat="45.20313" lon="6.00812">
        <ele>2167.1999512</ele>
        <time>2013-04-13T09:20:54Z</time>
      </trkpt>
      <trkpt lat="45.20313" lon="6.00813">
        <ele>2167.1999512</ele>
        <time>2013-04-13T09:20:57Z</time>
      </trkpt>
      <trkpt lat="45.20313" lon="6.00813">
        <ele>2167.1999512</ele>
        <time>2013-04-13T09:21:00Z</time>
      </trkpt>
      <trkpt lat="45.20313" lon="6.00812">
        <ele>2167.1999512</ele>
        <time>2013-04-13T09:21:03Z</time>
      </trkpt>
      <trkpt lat="45.20311" lon="6.00809">
        <ele>2167.1999512</ele>
        <time>2013-04-13T09:21:06Z</time>
      </trkpt>
      <trkpt lat="45.2031" lon="6.00806">
        <ele>2167.1999512</ele>
        <time>2013-04-13T09:21:09Z</time>
      </trkpt>
      <trkpt lat="45.20309" lon="6.00804">
        <ele>2167.1999512</ele>
        <time>2013-04-13T09:21:12Z</time>
      </trkpt>
      <trkpt lat="45.20309" lon="6.00804">
        <ele>2167.1999512</ele>
        <time>2013-04-13T09:21:15Z</time>
      </trkpt>
      <trkpt lat="45.20309" lon="6.00804">
        <ele>2168.6000977</ele>
        <time>2013-04-13T09:21:18Z</time>
      </trkpt>
      <trkpt lat="45.20309" lon="6.00804">
        <ele>2169.1999512</ele>
        <time>2013-04-13T09:21:21Z</time>
      </trkpt>
      <trkpt lat="45.20309" lon="6.00804">
        <ele>2169.1999512</ele>
        <time>2013-04-13T09:21:24Z</time>
      </trkpt>
      <trkpt lat="45.20309" lon="6.00804">
        <ele>2169.1999512</ele>
        <time>2013-04-13T09:21:27Z</time>
      </trkpt>
      <trkpt lat="45.20309" lon="6.00804">
        <ele>2169.1999512</ele>
        <time>2013-04-13T09:21:30Z</time>
      </trkpt>
      <trkpt lat="45.20309" lon="6.00804">
        <ele>2169.1999512</ele>
        <time>2013-04-13T09:21:33Z</time>
      </trkpt>
      <trkpt lat="45.20309" lon="6.00804">
        <ele>2169.1999512</ele>
        <time>2013-04-13T09:21:36Z</time>
      </trkpt>
      <trkpt lat="45.20309" lon="6.00804">
        <ele>2169.1999512</ele>
        <time>2013-04-13T09:21:39Z</time>
      </trkpt>
      <trkpt lat="45.20308" lon="6.00803">
        <ele>2169.1999512</ele>
        <time>2013-04-13T09:21:42Z</time>
      </trkpt>
      <trkpt lat="45.20309" lon="6.00803">
        <ele>2169.1999512</ele>
        <time>2013-04-13T09:21:45Z</time>
      </trkpt>
      <trkpt lat="45.20307" lon="6.008">
        <ele>2169.1999512</ele>
        <time>2013-04-13T09:21:48Z</time>
      </trkpt>
      <trkpt lat="45.20306" lon="6.00796">
        <ele>2169.1999512</ele>
        <time>2013-04-13T09:21:51Z</time>
      </trkpt>
      <trkpt lat="45.20304" lon="6.00793">
        <ele>2169.1999512</ele>
        <time>2013-04-13T09:21:54Z</time>
      </trkpt>
      <trkpt lat="45.20303" lon="6.00789">
        <ele>2169.1999512</ele>
        <time>2013-04-13T09:21:57Z</time>
      </trkpt>
      <trkpt lat="45.20302" lon="6.00786">
        <ele>2170.1999512</ele>
        <time>2013-04-13T09:22:00Z</time>
      </trkpt>
      <trkpt lat="45.203" lon="6.00783">
        <ele>2171.1999512</ele>
        <time>2013-04-13T09:22:03Z</time>
      </trkpt>
      <trkpt lat="45.20299" lon="6.00779">
        <ele>2171.1999512</ele>
        <time>2013-04-13T09:22:06Z</time>
      </trkpt>
      <trkpt lat="45.20298" lon="6.00776">
        <ele>2172.1999512</ele>
        <time>2013-04-13T09:22:09Z</time>
      </trkpt>
      <trkpt lat="45.20297" lon="6.00773">
        <ele>2173.1999512</ele>
        <time>2013-04-13T09:22:12Z</time>
      </trkpt>
      <trkpt lat="45.20296" lon="6.0077">
        <ele>2174</ele>
        <time>2013-04-13T09:22:15Z</time>
      </trkpt>
      <trkpt lat="45.20295" lon="6.00767">
        <ele>2175</ele>
        <time>2013-04-13T09:22:18Z</time>
      </trkpt>
      <trkpt lat="45.20295" lon="6.00764">
        <ele>2175.1999512</ele>
        <time>2013-04-13T09:22:21Z</time>
      </trkpt>
      <trkpt lat="45.20294" lon="6.00764">
        <ele>2176.1999512</ele>
        <time>2013-04-13T09:22:24Z</time>
      </trkpt>
      <trkpt lat="45.20294" lon="6.00763">
        <ele>2177.1999512</ele>
        <time>2013-04-13T09:22:27Z</time>
      </trkpt>
      <trkpt lat="45.20293" lon="6.0076">
        <ele>2177.6000977</ele>
        <time>2013-04-13T09:22:30Z</time>
      </trkpt>
      <trkpt lat="45.20292" lon="6.00757">
        <ele>2177.6000977</ele>
        <time>2013-04-13T09:22:33Z</time>
      </trkpt>
      <trkpt lat="45.20291" lon="6.00754">
        <ele>2177.6000977</ele>
        <time>2013-04-13T09:22:36Z</time>
      </trkpt>
      <trkpt lat="45.20291" lon="6.00752">
        <ele>2179</ele>
        <time>2013-04-13T09:22:39Z</time>
      </trkpt>
      <trkpt lat="45.2029" lon="6.00748">
        <ele>2179.6000977</ele>
        <time>2013-04-13T09:22:42Z</time>
      </trkpt>
      <trkpt lat="45.20289" lon="6.00746">
        <ele>2179.8000488</ele>
        <time>2013-04-13T09:22:45Z</time>
      </trkpt>
      <trkpt lat="45.20288" lon="6.00742">
        <ele>2181</ele>
        <time>2013-04-13T09:22:48Z</time>
      </trkpt>
      <trkpt lat="45.20287" lon="6.00739">
        <ele>2181.6000977</ele>
        <time>2013-04-13T09:22:51Z</time>
      </trkpt>
      <trkpt lat="45.20287" lon="6.00737">
        <ele>2182.6000977</ele>
        <time>2013-04-13T09:22:54Z</time>
      </trkpt>
      <trkpt lat="45.20286" lon="6.00734">
        <ele>2183.1999512</ele>
        <time>2013-04-13T09:22:57Z</time>
      </trkpt>
      <trkpt lat="45.20285" lon="6.00731">
        <ele>2183.6000977</ele>
        <time>2013-04-13T09:23:00Z</time>
      </trkpt>
      <trkpt lat="45.20284" lon="6.00728">
        <ele>2184</ele>
        <time>2013-04-13T09:23:03Z</time>
      </trkpt>
      <trkpt lat="45.20283" lon="6.00725">
        <ele>2185.1999512</ele>
        <time>2013-04-13T09:23:06Z</time>
      </trkpt>
      <trkpt lat="45.20282" lon="6.00722">
        <ele>2185.6000977</ele>
        <time>2013-04-13T09:23:09Z</time>
      </trkpt>
      <trkpt lat="45.20282" lon="6.00719">
        <ele>2186</ele>
        <time>2013-04-13T09:23:12Z</time>
      </trkpt>
      <trkpt lat="45.20281" lon="6.00716">
        <ele>2187</ele>
        <time>2013-04-13T09:23:15Z</time>
      </trkpt>
      <trkpt lat="45.2028" lon="6.00713">
        <ele>2187.8000488</ele>
        <time>2013-04-13T09:23:18Z</time>
      </trkpt>
      <trkpt lat="45.20279" lon="6.0071">
        <ele>2187.8000488</ele>
        <time>2013-04-13T09:23:21Z</time>
      </trkpt>
      <trkpt lat="45.20279" lon="6.00708">
        <ele>2189</ele>
        <time>2013-04-13T09:23:24Z</time>
      </trkpt>
      <trkpt lat="45.20278" lon="6.00705">
        <ele>2189.8000488</ele>
        <time>2013-04-13T09:23:27Z</time>
      </trkpt>
      <trkpt lat="45.20277" lon="6.00703">
        <ele>2190.1999512</ele>
        <time>2013-04-13T09:23:30Z</time>
      </trkpt>
      <trkpt lat="45.20276" lon="6.007">
        <ele>2191.1999512</ele>
        <time>2013-04-13T09:23:33Z</time>
      </trkpt>
      <trkpt lat="45.20275" lon="6.00698">
        <ele>2192</ele>
        <time>2013-04-13T09:23:36Z</time>
      </trkpt>
      <trkpt lat="45.20275" lon="6.00695">
        <ele>2192</ele>
        <time>2013-04-13T09:23:39Z</time>
      </trkpt>
      <trkpt lat="45.20274" lon="6.00692">
        <ele>2193</ele>
        <time>2013-04-13T09:23:42Z</time>
      </trkpt>
      <trkpt lat="45.20273" lon="6.00691">
        <ele>2194</ele>
        <time>2013-04-13T09:23:45Z</time>
      </trkpt>
      <trkpt lat="45.20274" lon="6.00687">
        <ele>2194.6000977</ele>
        <time>2013-04-13T09:23:48Z</time>
      </trkpt>
      <trkpt lat="45.20274" lon="6.00685">
        <ele>2195.6000977</ele>
        <time>2013-04-13T09:23:51Z</time>
      </trkpt>
      <trkpt lat="45.20274" lon="6.00681">
        <ele>2196</ele>
        <time>2013-04-13T09:23:54Z</time>
      </trkpt>
      <trkpt lat="45.20274" lon="6.00678">
        <ele>2196.1999512</ele>
        <time>2013-04-13T09:23:57Z</time>
      </trkpt>
      <trkpt lat="45.20275" lon="6.00677">
        <ele>2197</ele>
        <time>2013-04-13T09:24:00Z</time>
      </trkpt>
      <trkpt lat="45.20275" lon="6.00673">
        <ele>2198</ele>
        <time>2013-04-13T09:24:03Z</time>
      </trkpt>
      <trkpt lat="45.20275" lon="6.00671">
        <ele>2198.6000977</ele>
        <time>2013-04-13T09:24:06Z</time>
      </trkpt>
      <trkpt lat="45.20276" lon="6.00668">
        <ele>2199.1999512</ele>
        <time>2013-04-13T09:24:09Z</time>
      </trkpt>
      <trkpt lat="45.20276" lon="6.00664">
        <ele>2200</ele>
        <time>2013-04-13T09:24:12Z</time>
      </trkpt>
      <trkpt lat="45.20276" lon="6.0066">
        <ele>2201</ele>
        <time>2013-04-13T09:24:15Z</time>
      </trkpt>
      <trkpt lat="45.20276" lon="6.00658">
        <ele>2202</ele>
        <time>2013-04-13T09:24:18Z</time>
      </trkpt>
      <trkpt lat="45.20276" lon="6.00655">
        <ele>2202</ele>
        <time>2013-04-13T09:24:21Z</time>
      </trkpt>
      <trkpt lat="45.20276" lon="6.00652">
        <ele>2202.8000488</ele>
        <time>2013-04-13T09:24:24Z</time>
      </trkpt>
      <trkpt lat="45.20276" lon="6.00649">
        <ele>2203.6000977</ele>
        <time>2013-04-13T09:24:27Z</time>
      </trkpt>
      <trkpt lat="45.20275" lon="6.00645">
        <ele>2204.1999512</ele>
        <time>2013-04-13T09:24:30Z</time>
      </trkpt>
      <trkpt lat="45.20275" lon="6.00642">
        <ele>2204.8000488</ele>
        <time>2013-04-13T09:24:33Z</time>
      </trkpt>
      <trkpt lat="45.20275" lon="6.00639">
        <ele>2206</ele>
        <time>2013-04-13T09:24:36Z</time>
      </trkpt>
      <trkpt lat="45.20275" lon="6.00636">
        <ele>2206.1999512</ele>
        <time>2013-04-13T09:24:39Z</time>
      </trkpt>
      <trkpt lat="45.20276" lon="6.00633">
        <ele>2207</ele>
        <time>2013-04-13T09:24:42Z</time>
      </trkpt>
      <trkpt lat="45.20277" lon="6.00629">
        <ele>2207.8000488</ele>
        <time>2013-04-13T09:24:45Z</time>
      </trkpt>
      <trkpt lat="45.20278" lon="6.00626">
        <ele>2208.1999512</ele>
        <time>2013-04-13T09:24:48Z</time>
      </trkpt>
      <trkpt lat="45.20279" lon="6.00623">
        <ele>2208.1999512</ele>
        <time>2013-04-13T09:24:51Z</time>
      </trkpt>
      <trkpt lat="45.20279" lon="6.00619">
        <ele>2209.8000488</ele>
        <time>2013-04-13T09:24:54Z</time>
      </trkpt>
      <trkpt lat="45.2028" lon="6.00616">
        <ele>2210.1999512</ele>
        <time>2013-04-13T09:24:57Z</time>
      </trkpt>
      <trkpt lat="45.2028" lon="6.00614">
        <ele>2211</ele>
        <time>2013-04-13T09:25:00Z</time>
      </trkpt>
      <trkpt lat="45.20281" lon="6.0061">
        <ele>2212</ele>
        <time>2013-04-13T09:25:03Z</time>
      </trkpt>
      <trkpt lat="45.20281" lon="6.00607">
        <ele>2212.6000977</ele>
        <time>2013-04-13T09:25:06Z</time>
      </trkpt>
      <trkpt lat="45.20282" lon="6.00604">
        <ele>2213</ele>
        <time>2013-04-13T09:25:09Z</time>
      </trkpt>
      <trkpt lat="45.20282" lon="6.00602">
        <ele>2214</ele>
        <time>2013-04-13T09:25:12Z</time>
      </trkpt>
      <trkpt lat="45.20283" lon="6.00598">
        <ele>2214.6000977</ele>
        <time>2013-04-13T09:25:15Z</time>
      </trkpt>
      <trkpt lat="45.20283" lon="6.00596">
        <ele>2215</ele>
        <time>2013-04-13T09:25:18Z</time>
      </trkpt>
      <trkpt lat="45.20284" lon="6.00593">
        <ele>2216</ele>
        <time>2013-04-13T09:25:21Z</time>
      </trkpt>
      <trkpt lat="45.20284" lon="6.0059">
        <ele>2216.6000977</ele>
        <time>2013-04-13T09:25:24Z</time>
      </trkpt>
      <trkpt lat="45.20285" lon="6.00587">
        <ele>2216.6000977</ele>
        <time>2013-04-13T09:25:27Z</time>
      </trkpt>
      <trkpt lat="45.20285" lon="6.00585">
        <ele>2217.8000488</ele>
        <time>2013-04-13T09:25:30Z</time>
      </trkpt>
      <trkpt lat="45.20286" lon="6.00581">
        <ele>2218.6000977</ele>
        <time>2013-04-13T09:25:33Z</time>
      </trkpt>
      <trkpt lat="45.20287" lon="6.00579">
        <ele>2218.6000977</ele>
        <time>2013-04-13T09:25:36Z</time>
      </trkpt>
      <trkpt lat="45.20287" lon="6.00575">
        <ele>2219</ele>
        <time>2013-04-13T09:25:39Z</time>
      </trkpt>
      <trkpt lat="45.20288" lon="6.00571">
        <ele>2220</ele>
        <time>2013-04-13T09:25:42Z</time>
      </trkpt>
      <trkpt lat="45.20288" lon="6.00569">
        <ele>2221.6000977</ele>
        <time>2013-04-13T09:25:45Z</time>
      </trkpt>
      <trkpt lat="45.20289" lon="6.00566">
        <ele>2222.6000977</ele>
        <time>2013-04-13T09:25:48Z</time>
      </trkpt>
      <trkpt lat="45.20289" lon="6.00566">
        <ele>2223</ele>
        <time>2013-04-13T09:25:51Z</time>
      </trkpt>
      <trkpt lat="45.20289" lon="6.00565">
        <ele>2223</ele>
        <time>2013-04-13T09:25:54Z</time>
      </trkpt>
      <trkpt lat="45.20289" lon="6.00565">
        <ele>2223</ele>
        <time>2013-04-13T09:25:57Z</time>
      </trkpt>
      <trkpt lat="45.20289" lon="6.00565">
        <ele>2223</ele>
        <time>2013-04-13T09:26:00Z</time>
      </trkpt>
      <trkpt lat="45.20289" lon="6.00565">
        <ele>2223.8000488</ele>
        <time>2013-04-13T09:26:03Z</time>
      </trkpt>
      <trkpt lat="45.20289" lon="6.00565">
        <ele>2224.1999512</ele>
        <time>2013-04-13T09:26:06Z</time>
      </trkpt>
      <trkpt lat="45.20289" lon="6.00565">
        <ele>2225</ele>
        <time>2013-04-13T09:26:09Z</time>
      </trkpt>
      <trkpt lat="45.20289" lon="6.00563">
        <ele>2225</ele>
        <time>2013-04-13T09:26:12Z</time>
      </trkpt>
      <trkpt lat="45.2029" lon="6.0056">
        <ele>2225</ele>
        <time>2013-04-13T09:26:15Z</time>
      </trkpt>
      <trkpt lat="45.20291" lon="6.00556">
        <ele>2225</ele>
        <time>2013-04-13T09:26:18Z</time>
      </trkpt>
      <trkpt lat="45.20291" lon="6.00553">
        <ele>2225</ele>
        <time>2013-04-13T09:26:21Z</time>
      </trkpt>
      <trkpt lat="45.20292" lon="6.0055">
        <ele>2225.8000488</ele>
        <time>2013-04-13T09:26:24Z</time>
      </trkpt>
      <trkpt lat="45.20292" lon="6.00548">
        <ele>2226.1999512</ele>
        <time>2013-04-13T09:26:27Z</time>
      </trkpt>
      <trkpt lat="45.20292" lon="6.00544">
        <ele>2227.1999512</ele>
        <time>2013-04-13T09:26:30Z</time>
      </trkpt>
      <trkpt lat="45.20292" lon="6.00543">
        <ele>2228.1999512</ele>
        <time>2013-04-13T09:26:33Z</time>
      </trkpt>
      <trkpt lat="45.20292" lon="6.00543">
        <ele>2229</ele>
        <time>2013-04-13T09:26:36Z</time>
      </trkpt>
      <trkpt lat="45.20292" lon="6.00543">
        <ele>2229</ele>
        <time>2013-04-13T09:26:39Z</time>
      </trkpt>
      <trkpt lat="45.20292" lon="6.00543">
        <ele>2229</ele>
        <time>2013-04-13T09:26:42Z</time>
      </trkpt>
      <trkpt lat="45.20292" lon="6.00542">
        <ele>2229</ele>
        <time>2013-04-13T09:26:45Z</time>
      </trkpt>
      <trkpt lat="45.20291" lon="6.00538">
        <ele>2229</ele>
        <time>2013-04-13T09:26:48Z</time>
      </trkpt>
      <trkpt lat="45.20291" lon="6.00536">
        <ele>2229.6000977</ele>
        <time>2013-04-13T09:26:51Z</time>
      </trkpt>
      <trkpt lat="45.20291" lon="6.00534">
        <ele>2230.6000977</ele>
        <time>2013-04-13T09:26:54Z</time>
      </trkpt>
      <trkpt lat="45.20291" lon="6.00532">
        <ele>2231</ele>
        <time>2013-04-13T09:26:57Z</time>
      </trkpt>
      <trkpt lat="45.20293" lon="6.0053">
        <ele>2232</ele>
        <time>2013-04-13T09:27:00Z</time>
      </trkpt>
      <trkpt lat="45.20295" lon="6.00529">
        <ele>2233</ele>
        <time>2013-04-13T09:27:03Z</time>
      </trkpt>
      <trkpt lat="45.20297" lon="6.00529">
        <ele>2233</ele>
        <time>2013-04-13T09:27:06Z</time>
      </trkpt>
      <trkpt lat="45.20298" lon="6.00527">
        <ele>2234</ele>
        <time>2013-04-13T09:27:09Z</time>
      </trkpt>
      <trkpt lat="45.20297" lon="6.00524">
        <ele>2234.6000977</ele>
        <time>2013-04-13T09:27:12Z</time>
      </trkpt>
      <trkpt lat="45.20296" lon="6.00521">
        <ele>2235</ele>
        <time>2013-04-13T09:27:15Z</time>
      </trkpt>
      <trkpt lat="45.20296" lon="6.00518">
        <ele>2236.1999512</ele>
        <time>2013-04-13T09:27:18Z</time>
      </trkpt>
      <trkpt lat="45.20295" lon="6.00516">
        <ele>2237.1999512</ele>
        <time>2013-04-13T09:27:21Z</time>
      </trkpt>
      <trkpt lat="45.20295" lon="6.00514">
        <ele>2238</ele>
        <time>2013-04-13T09:27:24Z</time>
      </trkpt>
      <trkpt lat="45.20296" lon="6.00513">
        <ele>2239</ele>
        <time>2013-04-13T09:27:27Z</time>
      </trkpt>
      <trkpt lat="45.20297" lon="6.00511">
        <ele>2239.1999512</ele>
        <time>2013-04-13T09:27:30Z</time>
      </trkpt>
      <trkpt lat="45.20299" lon="6.00509">
        <ele>2239.1999512</ele>
        <time>2013-04-13T09:27:33Z</time>
      </trkpt>
      <trkpt lat="45.20299" lon="6.00506">
        <ele>2240</ele>
        <time>2013-04-13T09:27:36Z</time>
      </trkpt>
      <trkpt lat="45.20299" lon="6.00504">
        <ele>2241</ele>
        <time>2013-04-13T09:27:39Z</time>
      </trkpt>
      <trkpt lat="45.20298" lon="6.00501">
        <ele>2242</ele>
        <time>2013-04-13T09:27:42Z</time>
      </trkpt>
      <trkpt lat="45.20298" lon="6.00499">
        <ele>2243.1999512</ele>
        <time>2013-04-13T09:27:45Z</time>
      </trkpt>
      <trkpt lat="45.20298" lon="6.00497">
        <ele>2243.6000977</ele>
        <time>2013-04-13T09:27:48Z</time>
      </trkpt>
      <trkpt lat="45.20299" lon="6.00494">
        <ele>2244</ele>
        <time>2013-04-13T09:27:51Z</time>
      </trkpt>
      <trkpt lat="45.203" lon="6.00492">
        <ele>2244.8000488</ele>
        <time>2013-04-13T09:27:54Z</time>
      </trkpt>
      <trkpt lat="45.20301" lon="6.0049">
        <ele>2245.1999512</ele>
        <time>2013-04-13T09:27:57Z</time>
      </trkpt>
      <trkpt lat="45.20302" lon="6.00487">
        <ele>2245.6000977</ele>
        <time>2013-04-13T09:28:00Z</time>
      </trkpt>
      <trkpt lat="45.20302" lon="6.00485">
        <ele>2246.8000488</ele>
        <time>2013-04-13T09:28:03Z</time>
      </trkpt>
      <trkpt lat="45.20304" lon="6.00482">
        <ele>2247.6000977</ele>
        <time>2013-04-13T09:28:06Z</time>
      </trkpt>
      <trkpt lat="45.20304" lon="6.0048">
        <ele>2248.6000977</ele>
        <time>2013-04-13T09:28:09Z</time>
      </trkpt>
      <trkpt lat="45.20305" lon="6.00477">
        <ele>2249.6000977</ele>
        <time>2013-04-13T09:28:12Z</time>
      </trkpt>
      <trkpt lat="45.20305" lon="6.00474">
        <ele>2249.6000977</ele>
        <time>2013-04-13T09:28:15Z</time>
      </trkpt>
      <trkpt lat="45.20306" lon="6.00471">
        <ele>2249.8000488</ele>
        <time>2013-04-13T09:28:18Z</time>
      </trkpt>
      <trkpt lat="45.20306" lon="6.00468">
        <ele>2250.6000977</ele>
        <time>2013-04-13T09:28:21Z</time>
      </trkpt>
      <trkpt lat="45.20307" lon="6.00465">
        <ele>2251.6000977</ele>
        <time>2013-04-13T09:28:24Z</time>
      </trkpt>
      <trkpt lat="45.20307" lon="6.00463">
        <ele>2252</ele>
        <time>2013-04-13T09:28:27Z</time>
      </trkpt>
      <trkpt lat="45.20307" lon="6.00459">
        <ele>2253</ele>
        <time>2013-04-13T09:28:30Z</time>
      </trkpt>
      <trkpt lat="45.20307" lon="6.00456">
        <ele>2253.8000488</ele>
        <time>2013-04-13T09:28:33Z</time>
      </trkpt>
      <trkpt lat="45.20306" lon="6.00453">
        <ele>2254</ele>
        <time>2013-04-13T09:28:36Z</time>
      </trkpt>
      <trkpt lat="45.20305" lon="6.0045">
        <ele>2254.6000977</ele>
        <time>2013-04-13T09:28:39Z</time>
      </trkpt>
      <trkpt lat="45.20305" lon="6.00446">
        <ele>2255.8000488</ele>
        <time>2013-04-13T09:28:42Z</time>
      </trkpt>
      <trkpt lat="45.20305" lon="6.00444">
        <ele>2256</ele>
        <time>2013-04-13T09:28:45Z</time>
      </trkpt>
      <trkpt lat="45.20305" lon="6.00439">
        <ele>2256.8000488</ele>
        <time>2013-04-13T09:28:48Z</time>
      </trkpt>
      <trkpt lat="45.20304" lon="6.00436">
        <ele>2257.8000488</ele>
        <time>2013-04-13T09:28:51Z</time>
      </trkpt>
      <trkpt lat="45.20304" lon="6.00432">
        <ele>2258</ele>
        <time>2013-04-13T09:28:54Z</time>
      </trkpt>
      <trkpt lat="45.20303" lon="6.00429">
        <ele>2259</ele>
        <time>2013-04-13T09:28:57Z</time>
      </trkpt>
      <trkpt lat="45.20303" lon="6.00426">
        <ele>2259.6000977</ele>
        <time>2013-04-13T09:29:00Z</time>
      </trkpt>
      <trkpt lat="45.20302" lon="6.00423">
        <ele>2260</ele>
        <time>2013-04-13T09:29:03Z</time>
      </trkpt>
      <trkpt lat="45.20302" lon="6.00419">
        <ele>2260.8000488</ele>
        <time>2013-04-13T09:29:06Z</time>
      </trkpt>
      <trkpt lat="45.20301" lon="6.00416">
        <ele>2261.8000488</ele>
        <time>2013-04-13T09:29:09Z</time>
      </trkpt>
      <trkpt lat="45.203" lon="6.00413">
        <ele>2262.1999512</ele>
        <time>2013-04-13T09:29:12Z</time>
      </trkpt>
      <trkpt lat="45.20299" lon="6.00411">
        <ele>2263.1999512</ele>
        <time>2013-04-13T09:29:15Z</time>
      </trkpt>
      <trkpt lat="45.20299" lon="6.00408">
        <ele>2264</ele>
        <time>2013-04-13T09:29:18Z</time>
      </trkpt>
      <trkpt lat="45.20298" lon="6.00406">
        <ele>2264</ele>
        <time>2013-04-13T09:29:21Z</time>
      </trkpt>
      <trkpt lat="45.20298" lon="6.00404">
        <ele>2264.8000488</ele>
        <time>2013-04-13T09:29:24Z</time>
      </trkpt>
      <trkpt lat="45.20297" lon="6.00401">
        <ele>2265.1999512</ele>
        <time>2013-04-13T09:29:27Z</time>
      </trkpt>
      <trkpt lat="45.20297" lon="6.00397">
        <ele>2266.1999512</ele>
        <time>2013-04-13T09:29:30Z</time>
      </trkpt>
      <trkpt lat="45.20297" lon="6.00395">
        <ele>2267</ele>
        <time>2013-04-13T09:29:33Z</time>
      </trkpt>
      <trkpt lat="45.20297" lon="6.00391">
        <ele>2267.8000488</ele>
        <time>2013-04-13T09:29:36Z</time>
      </trkpt>
      <trkpt lat="45.20297" lon="6.00389">
        <ele>2268.1999512</ele>
        <time>2013-04-13T09:29:39Z</time>
      </trkpt>
      <trkpt lat="45.20297" lon="6.00386">
        <ele>2268.8000488</ele>
        <time>2013-04-13T09:29:42Z</time>
      </trkpt>
      <trkpt lat="45.20297" lon="6.00384">
        <ele>2269.6000977</ele>
        <time>2013-04-13T09:29:45Z</time>
      </trkpt>
      <trkpt lat="45.20297" lon="6.0038">
        <ele>2270.6000977</ele>
        <time>2013-04-13T09:29:48Z</time>
      </trkpt>
      <trkpt lat="45.20297" lon="6.0038">
        <ele>2270.6000977</ele>
        <time>2013-04-13T09:29:51Z</time>
      </trkpt>
      <trkpt lat="45.20298" lon="6.00378">
        <ele>2271.8000488</ele>
        <time>2013-04-13T09:29:54Z</time>
      </trkpt>
      <trkpt lat="45.20298" lon="6.00375">
        <ele>2272.6000977</ele>
        <time>2013-04-13T09:29:57Z</time>
      </trkpt>
      <trkpt lat="45.20298" lon="6.00373">
        <ele>2272.6000977</ele>
        <time>2013-04-13T09:30:00Z</time>
      </trkpt>
      <trkpt lat="45.20296" lon="6.00373">
        <ele>2272.6000977</ele>
        <time>2013-04-13T09:30:03Z</time>
      </trkpt>
      <trkpt lat="45.20294" lon="6.00375">
        <ele>2273</ele>
        <time>2013-04-13T09:30:06Z</time>
      </trkpt>
      <trkpt lat="45.20292" lon="6.00377">
        <ele>2273.8000488</ele>
        <time>2013-04-13T09:30:09Z</time>
      </trkpt>
      <trkpt lat="45.2029" lon="6.00379">
        <ele>2274.6000977</ele>
        <time>2013-04-13T09:30:12Z</time>
      </trkpt>
      <trkpt lat="45.20288" lon="6.0038">
        <ele>2274.6000977</ele>
        <time>2013-04-13T09:30:15Z</time>
      </trkpt>
      <trkpt lat="45.20285" lon="6.00382">
        <ele>2275.6000977</ele>
        <time>2013-04-13T09:30:18Z</time>
      </trkpt>
      <trkpt lat="45.20282" lon="6.00383">
        <ele>2276.6000977</ele>
        <time>2013-04-13T09:30:21Z</time>
      </trkpt>
      <trkpt lat="45.20278" lon="6.00383">
        <ele>2276.6000977</ele>
        <time>2013-04-13T09:30:24Z</time>
      </trkpt>
      <trkpt lat="45.20276" lon="6.00383">
        <ele>2277.1999512</ele>
        <time>2013-04-13T09:30:27Z</time>
      </trkpt>
      <trkpt lat="45.20274" lon="6.00383">
        <ele>2278</ele>
        <time>2013-04-13T09:30:30Z</time>
      </trkpt>
      <trkpt lat="45.20273" lon="6.00383">
        <ele>2278.8000488</ele>
        <time>2013-04-13T09:30:33Z</time>
      </trkpt>
      <trkpt lat="45.20272" lon="6.00383">
        <ele>2279.6000977</ele>
        <time>2013-04-13T09:30:36Z</time>
      </trkpt>
      <trkpt lat="45.20272" lon="6.00383">
        <ele>2280.6000977</ele>
        <time>2013-04-13T09:30:39Z</time>
      </trkpt>
      <trkpt lat="45.2027" lon="6.00383">
        <ele>2280.8000488</ele>
        <time>2013-04-13T09:30:42Z</time>
      </trkpt>
      <trkpt lat="45.20267" lon="6.00383">
        <ele>2280.8000488</ele>
        <time>2013-04-13T09:30:45Z</time>
      </trkpt>
      <trkpt lat="45.20264" lon="6.00383">
        <ele>2281</ele>
        <time>2013-04-13T09:30:48Z</time>
      </trkpt>
      <trkpt lat="45.20262" lon="6.00383">
        <ele>2282</ele>
        <time>2013-04-13T09:30:51Z</time>
      </trkpt>
      <trkpt lat="45.20261" lon="6.00382">
        <ele>2282.8000488</ele>
        <time>2013-04-13T09:30:54Z</time>
      </trkpt>
      <trkpt lat="45.20261" lon="6.00379">
        <ele>2283.8000488</ele>
        <time>2013-04-13T09:30:57Z</time>
      </trkpt>
      <trkpt lat="45.20262" lon="6.00375">
        <ele>2285</ele>
        <time>2013-04-13T09:31:00Z</time>
      </trkpt>
      <trkpt lat="45.20262" lon="6.00373">
        <ele>2285.1999512</ele>
        <time>2013-04-13T09:31:03Z</time>
      </trkpt>
      <trkpt lat="45.20263" lon="6.00369">
        <ele>2286</ele>
        <time>2013-04-13T09:31:06Z</time>
      </trkpt>
      <trkpt lat="45.20264" lon="6.00365">
        <ele>2287</ele>
        <time>2013-04-13T09:31:09Z</time>
      </trkpt>
      <trkpt lat="45.20264" lon="6.00364">
        <ele>2287.8000488</ele>
        <time>2013-04-13T09:31:12Z</time>
      </trkpt>
      <trkpt lat="45.20265" lon="6.00361">
        <ele>2288.1999512</ele>
        <time>2013-04-13T09:31:15Z</time>
      </trkpt>
      <trkpt lat="45.20265" lon="6.0036">
        <ele>2289</ele>
        <time>2013-04-13T09:31:18Z</time>
      </trkpt>
      <trkpt lat="45.20266" lon="6.0036">
        <ele>2289.6000977</ele>
        <time>2013-04-13T09:31:21Z</time>
      </trkpt>
      <trkpt lat="45.20266" lon="6.0036">
        <ele>2290.6000977</ele>
        <time>2013-04-13T09:31:24Z</time>
      </trkpt>
      <trkpt lat="45.20266" lon="6.0036">
        <ele>2291</ele>
        <time>2013-04-13T09:31:27Z</time>
      </trkpt>
      <trkpt lat="45.20266" lon="6.0036">
        <ele>2291</ele>
        <time>2013-04-13T09:31:30Z</time>
      </trkpt>
      <trkpt lat="45.20266" lon="6.00361">
        <ele>2291</ele>
        <time>2013-04-13T09:31:33Z</time>
      </trkpt>
      <trkpt lat="45.20266" lon="6.0036">
        <ele>2291</ele>
        <time>2013-04-13T09:31:36Z</time>
      </trkpt>
      <trkpt lat="45.20266" lon="6.00361">
        <ele>2291</ele>
        <time>2013-04-13T09:31:39Z</time>
      </trkpt>
      <trkpt lat="45.20266" lon="6.00361">
        <ele>2291</ele>
        <time>2013-04-13T09:31:42Z</time>
      </trkpt>
      <trkpt lat="45.20266" lon="6.0036">
        <ele>2291</ele>
        <time>2013-04-13T09:31:45Z</time>
      </trkpt>
      <trkpt lat="45.20264" lon="6.00358">
        <ele>2291</ele>
        <time>2013-04-13T09:31:48Z</time>
      </trkpt>
      <trkpt lat="45.20264" lon="6.00358">
        <ele>2291</ele>
        <time>2013-04-13T09:31:51Z</time>
      </trkpt>
      <trkpt lat="45.20263" lon="6.00358">
        <ele>2291</ele>
        <time>2013-04-13T09:31:54Z</time>
      </trkpt>
      <trkpt lat="45.20263" lon="6.00358">
        <ele>2291</ele>
        <time>2013-04-13T09:31:57Z</time>
      </trkpt>
      <trkpt lat="45.20261" lon="6.00358">
        <ele>2291</ele>
        <time>2013-04-13T09:32:00Z</time>
      </trkpt>
      <trkpt lat="45.20259" lon="6.00357">
        <ele>2291</ele>
        <time>2013-04-13T09:32:03Z</time>
      </trkpt>
      <trkpt lat="45.20257" lon="6.00356">
        <ele>2291.8000488</ele>
        <time>2013-04-13T09:32:06Z</time>
      </trkpt>
      <trkpt lat="45.20255" lon="6.00355">
        <ele>2292.8000488</ele>
        <time>2013-04-13T09:32:09Z</time>
      </trkpt>
      <trkpt lat="45.20252" lon="6.00355">
        <ele>2293</ele>
        <time>2013-04-13T09:32:12Z</time>
      </trkpt>
      <trkpt lat="45.2025" lon="6.00354">
        <ele>2294</ele>
        <time>2013-04-13T09:32:15Z</time>
      </trkpt>
      <trkpt lat="45.20248" lon="6.00352">
        <ele>2295</ele>
        <time>2013-04-13T09:32:18Z</time>
      </trkpt>
      <trkpt lat="45.20246" lon="6.00351">
        <ele>2295</ele>
        <time>2013-04-13T09:32:21Z</time>
      </trkpt>
      <trkpt lat="45.20244" lon="6.00349">
        <ele>2296.1999512</ele>
        <time>2013-04-13T09:32:24Z</time>
      </trkpt>
      <trkpt lat="45.20245" lon="6.00346">
        <ele>2297.1999512</ele>
        <time>2013-04-13T09:32:27Z</time>
      </trkpt>
      <trkpt lat="45.20246" lon="6.00343">
        <ele>2297.8000488</ele>
        <time>2013-04-13T09:32:30Z</time>
      </trkpt>
      <trkpt lat="45.20247" lon="6.00341">
        <ele>2298.8000488</ele>
        <time>2013-04-13T09:32:33Z</time>
      </trkpt>
      <trkpt lat="45.20249" lon="6.00337">
        <ele>2299.1999512</ele>
        <time>2013-04-13T09:32:36Z</time>
      </trkpt>
      <trkpt lat="45.2025" lon="6.00335">
        <ele>2299.6000977</ele>
        <time>2013-04-13T09:32:39Z</time>
      </trkpt>
      <trkpt lat="45.20251" lon="6.00332">
        <ele>2300</ele>
        <time>2013-04-13T09:32:42Z</time>
      </trkpt>
      <trkpt lat="45.20252" lon="6.0033">
        <ele>2300.8000488</ele>
        <time>2013-04-13T09:32:45Z</time>
      </trkpt>
      <trkpt lat="45.20254" lon="6.00328">
        <ele>2302</ele>
        <time>2013-04-13T09:32:48Z</time>
      </trkpt>
      <trkpt lat="45.20254" lon="6.00326">
        <ele>2303</ele>
        <time>2013-04-13T09:32:51Z</time>
      </trkpt>
      <trkpt lat="45.20254" lon="6.00326">
        <ele>2303.1999512</ele>
        <time>2013-04-13T09:32:54Z</time>
      </trkpt>
      <trkpt lat="45.20254" lon="6.00326">
        <ele>2303.1999512</ele>
        <time>2013-04-13T09:32:57Z</time>
      </trkpt>
      <trkpt lat="45.20254" lon="6.00326">
        <ele>2303.1999512</ele>
        <time>2013-04-13T09:33:00Z</time>
      </trkpt>
      <trkpt lat="45.20254" lon="6.00326">
        <ele>2303.1999512</ele>
        <time>2013-04-13T09:33:03Z</time>
      </trkpt>
      <trkpt lat="45.20254" lon="6.00326">
        <ele>2303.1999512</ele>
        <time>2013-04-13T09:33:06Z</time>
      </trkpt>
      <trkpt lat="45.20255" lon="6.00326">
        <ele>2303.1999512</ele>
        <time>2013-04-13T09:33:09Z</time>
      </trkpt>
      <trkpt lat="45.20255" lon="6.00326">
        <ele>2303.1999512</ele>
        <time>2013-04-13T09:33:12Z</time>
      </trkpt>
      <trkpt lat="45.20256" lon="6.00324">
        <ele>2303.1999512</ele>
        <time>2013-04-13T09:33:15Z</time>
      </trkpt>
      <trkpt lat="45.20257" lon="6.00321">
        <ele>2304</ele>
        <time>2013-04-13T09:33:18Z</time>
      </trkpt>
      <trkpt lat="45.20258" lon="6.00318">
        <ele>2305</ele>
        <time>2013-04-13T09:33:21Z</time>
      </trkpt>
      <trkpt lat="45.20259" lon="6.00314">
        <ele>2305.6000977</ele>
        <time>2013-04-13T09:33:24Z</time>
      </trkpt>
      <trkpt lat="45.2026" lon="6.00311">
        <ele>2305.6000977</ele>
        <time>2013-04-13T09:33:27Z</time>
      </trkpt>
      <trkpt lat="45.2026" lon="6.00308">
        <ele>2306</ele>
        <time>2013-04-13T09:33:30Z</time>
      </trkpt>
      <trkpt lat="45.2026" lon="6.00305">
        <ele>2307.1999512</ele>
        <time>2013-04-13T09:33:33Z</time>
      </trkpt>
      <trkpt lat="45.20261" lon="6.00302">
        <ele>2308</ele>
        <time>2013-04-13T09:33:36Z</time>
      </trkpt>
      <trkpt lat="45.20261" lon="6.00298">
        <ele>2309</ele>
        <time>2013-04-13T09:33:39Z</time>
      </trkpt>
      <trkpt lat="45.20261" lon="6.00295">
        <ele>2309.6000977</ele>
        <time>2013-04-13T09:33:42Z</time>
      </trkpt>
      <trkpt lat="45.20261" lon="6.00292">
        <ele>2310</ele>
        <time>2013-04-13T09:33:45Z</time>
      </trkpt>
      <trkpt lat="45.2026" lon="6.00288">
        <ele>2310.8000488</ele>
        <time>2013-04-13T09:33:48Z</time>
      </trkpt>
      <trkpt lat="45.20259" lon="6.00286">
        <ele>2311.1999512</ele>
        <time>2013-04-13T09:33:51Z</time>
      </trkpt>
      <trkpt lat="45.20258" lon="6.00284">
        <ele>2312</ele>
        <time>2013-04-13T09:33:54Z</time>
      </trkpt>
      <trkpt lat="45.20255" lon="6.00283">
        <ele>2313</ele>
        <time>2013-04-13T09:33:57Z</time>
      </trkpt>
      <trkpt lat="45.20253" lon="6.00283">
        <ele>2314</ele>
        <time>2013-04-13T09:34:00Z</time>
      </trkpt>
      <trkpt lat="45.20251" lon="6.00283">
        <ele>2315</ele>
        <time>2013-04-13T09:34:03Z</time>
      </trkpt>
      <trkpt lat="45.20249" lon="6.00283">
        <ele>2316</ele>
        <time>2013-04-13T09:34:06Z</time>
      </trkpt>
      <trkpt lat="45.20247" lon="6.00283">
        <ele>2316</ele>
        <time>2013-04-13T09:34:09Z</time>
      </trkpt>
      <trkpt lat="45.20244" lon="6.00283">
        <ele>2316.6000977</ele>
        <time>2013-04-13T09:34:12Z</time>
      </trkpt>
      <trkpt lat="45.20242" lon="6.00283">
        <ele>2317.6000977</ele>
        <time>2013-04-13T09:34:15Z</time>
      </trkpt>
      <trkpt lat="45.2024" lon="6.00283">
        <ele>2318.8000488</ele>
        <time>2013-04-13T09:34:18Z</time>
      </trkpt>
      <trkpt lat="45.20238" lon="6.00283">
        <ele>2319.8000488</ele>
        <time>2013-04-13T09:34:21Z</time>
      </trkpt>
      <trkpt lat="45.20236" lon="6.00282">
        <ele>2320</ele>
        <time>2013-04-13T09:34:24Z</time>
      </trkpt>
      <trkpt lat="45.20234" lon="6.00283">
        <ele>2320.8000488</ele>
        <time>2013-04-13T09:34:27Z</time>
      </trkpt>
      <trkpt lat="45.20233" lon="6.00284">
        <ele>2321.6000977</ele>
        <time>2013-04-13T09:34:30Z</time>
      </trkpt>
      <trkpt lat="45.20232" lon="6.00282">
        <ele>2322</ele>
        <time>2013-04-13T09:34:33Z</time>
      </trkpt>
      <trkpt lat="45.20233" lon="6.00278">
        <ele>2322</ele>
        <time>2013-04-13T09:34:36Z</time>
      </trkpt>
      <trkpt lat="45.20234" lon="6.00275">
        <ele>2322.8000488</ele>
        <time>2013-04-13T09:34:39Z</time>
      </trkpt>
      <trkpt lat="45.20234" lon="6.00271">
        <ele>2324</ele>
        <time>2013-04-13T09:34:42Z</time>
      </trkpt>
      <trkpt lat="45.20235" lon="6.00268">
        <ele>2324.1999512</ele>
        <time>2013-04-13T09:34:45Z</time>
      </trkpt>
      <trkpt lat="45.20235" lon="6.00265">
        <ele>2324.8000488</ele>
        <time>2013-04-13T09:34:48Z</time>
      </trkpt>
      <trkpt lat="45.20235" lon="6.00262">
        <ele>2325.6000977</ele>
        <time>2013-04-13T09:34:51Z</time>
      </trkpt>
      <trkpt lat="45.20235" lon="6.00259">
        <ele>2326</ele>
        <time>2013-04-13T09:34:54Z</time>
      </trkpt>
      <trkpt lat="45.20234" lon="6.00256">
        <ele>2326.1999512</ele>
        <time>2013-04-13T09:34:57Z</time>
      </trkpt>
      <trkpt lat="45.20232" lon="6.00258">
        <ele>2327</ele>
        <time>2013-04-13T09:35:00Z</time>
      </trkpt>
      <trkpt lat="45.2023" lon="6.00259">
        <ele>2328</ele>
        <time>2013-04-13T09:35:03Z</time>
      </trkpt>
      <trkpt lat="45.20228" lon="6.00261">
        <ele>2328.1999512</ele>
        <time>2013-04-13T09:35:06Z</time>
      </trkpt>
      <trkpt lat="45.20227" lon="6.00261">
        <ele>2329</ele>
        <time>2013-04-13T09:35:09Z</time>
      </trkpt>
      <trkpt lat="45.20224" lon="6.00263">
        <ele>2330</ele>
        <time>2013-04-13T09:35:12Z</time>
      </trkpt>
      <trkpt lat="45.20222" lon="6.00264">
        <ele>2330.6000977</ele>
        <time>2013-04-13T09:35:15Z</time>
      </trkpt>
      <trkpt lat="45.2022" lon="6.00266">
        <ele>2330.6000977</ele>
        <time>2013-04-13T09:35:18Z</time>
      </trkpt>
      <trkpt lat="45.20218" lon="6.00266">
        <ele>2331</ele>
        <time>2013-04-13T09:35:21Z</time>
      </trkpt>
      <trkpt lat="45.20216" lon="6.00267">
        <ele>2332.1999512</ele>
        <time>2013-04-13T09:35:24Z</time>
      </trkpt>
      <trkpt lat="45.20214" lon="6.00268">
        <ele>2332.8000488</ele>
        <time>2013-04-13T09:35:27Z</time>
      </trkpt>
      <trkpt lat="45.20212" lon="6.0027">
        <ele>2333.8000488</ele>
        <time>2013-04-13T09:35:30Z</time>
      </trkpt>
      <trkpt lat="45.2021" lon="6.0027">
        <ele>2334.6000977</ele>
        <time>2013-04-13T09:35:33Z</time>
      </trkpt>
      <trkpt lat="45.20208" lon="6.00271">
        <ele>2334.6000977</ele>
        <time>2013-04-13T09:35:36Z</time>
      </trkpt>
      <trkpt lat="45.20206" lon="6.00272">
        <ele>2335</ele>
        <time>2013-04-13T09:35:39Z</time>
      </trkpt>
      <trkpt lat="45.20204" lon="6.00272">
        <ele>2335.8000488</ele>
        <time>2013-04-13T09:35:42Z</time>
      </trkpt>
      <trkpt lat="45.20201" lon="6.00273">
        <ele>2336.8000488</ele>
        <time>2013-04-13T09:35:45Z</time>
      </trkpt>
      <trkpt lat="45.20199" lon="6.00274">
        <ele>2337</ele>
        <time>2013-04-13T09:35:48Z</time>
      </trkpt>
      <trkpt lat="45.20199" lon="6.00274">
        <ele>2338</ele>
        <time>2013-04-13T09:35:51Z</time>
      </trkpt>
      <trkpt lat="45.20199" lon="6.00274">
        <ele>2338.8000488</ele>
        <time>2013-04-13T09:35:54Z</time>
      </trkpt>
      <trkpt lat="45.202" lon="6.00271">
        <ele>2338.8000488</ele>
        <time>2013-04-13T09:35:57Z</time>
      </trkpt>
      <trkpt lat="45.20201" lon="6.00268">
        <ele>2338.8000488</ele>
        <time>2013-04-13T09:36:00Z</time>
      </trkpt>
      <trkpt lat="45.20201" lon="6.00266">
        <ele>2339</ele>
        <time>2013-04-13T09:36:03Z</time>
      </trkpt>
      <trkpt lat="45.20202" lon="6.00263">
        <ele>2339.8000488</ele>
        <time>2013-04-13T09:36:06Z</time>
      </trkpt>
      <trkpt lat="45.20203" lon="6.0026">
        <ele>2340.8000488</ele>
        <time>2013-04-13T09:36:09Z</time>
      </trkpt>
      <trkpt lat="45.20204" lon="6.00257">
        <ele>2341</ele>
        <time>2013-04-13T09:36:12Z</time>
      </trkpt>
      <trkpt lat="45.20205" lon="6.00254">
        <ele>2342</ele>
        <time>2013-04-13T09:36:15Z</time>
      </trkpt>
      <trkpt lat="45.20206" lon="6.00251">
        <ele>2343</ele>
        <time>2013-04-13T09:36:18Z</time>
      </trkpt>
      <trkpt lat="45.20205" lon="6.0025">
        <ele>2343</ele>
        <time>2013-04-13T09:36:21Z</time>
      </trkpt>
      <trkpt lat="45.20203" lon="6.00251">
        <ele>2343.8000488</ele>
        <time>2013-04-13T09:36:24Z</time>
      </trkpt>
      <trkpt lat="45.20201" lon="6.00252">
        <ele>2344.1999512</ele>
        <time>2013-04-13T09:36:27Z</time>
      </trkpt>
      <trkpt lat="45.20199" lon="6.00254">
        <ele>2345</ele>
        <time>2013-04-13T09:36:30Z</time>
      </trkpt>
      <trkpt lat="45.20197" lon="6.00255">
        <ele>2345.8000488</ele>
        <time>2013-04-13T09:36:33Z</time>
      </trkpt>
      <trkpt lat="45.20194" lon="6.00256">
        <ele>2346.8000488</ele>
        <time>2013-04-13T09:36:36Z</time>
      </trkpt>
      <trkpt lat="45.20192" lon="6.00258">
        <ele>2347</ele>
        <time>2013-04-13T09:36:39Z</time>
      </trkpt>
      <trkpt lat="45.20189" lon="6.00259">
        <ele>2347</ele>
        <time>2013-04-13T09:36:42Z</time>
      </trkpt>
      <trkpt lat="45.20187" lon="6.0026">
        <ele>2347</ele>
        <time>2013-04-13T09:36:45Z</time>
      </trkpt>
      <trkpt lat="45.20185" lon="6.00261">
        <ele>2348.6000977</ele>
        <time>2013-04-13T09:36:48Z</time>
      </trkpt>
      <trkpt lat="45.20185" lon="6.00261">
        <ele>2349</ele>
        <time>2013-04-13T09:36:51Z</time>
      </trkpt>
      <trkpt lat="45.20185" lon="6.00259">
        <ele>2350</ele>
        <time>2013-04-13T09:36:54Z</time>
      </trkpt>
      <trkpt lat="45.20186" lon="6.00256">
        <ele>2351</ele>
        <time>2013-04-13T09:36:57Z</time>
      </trkpt>
      <trkpt lat="45.20187" lon="6.00254">
        <ele>2351</ele>
        <time>2013-04-13T09:37:00Z</time>
      </trkpt>
      <trkpt lat="45.20188" lon="6.00251">
        <ele>2351</ele>
        <time>2013-04-13T09:37:03Z</time>
      </trkpt>
      <trkpt lat="45.20189" lon="6.00248">
        <ele>2351.8000488</ele>
        <time>2013-04-13T09:37:06Z</time>
      </trkpt>
      <trkpt lat="45.2019" lon="6.00245">
        <ele>2352.6000977</ele>
        <time>2013-04-13T09:37:09Z</time>
      </trkpt>
      <trkpt lat="45.20191" lon="6.00242">
        <ele>2353</ele>
        <time>2013-04-13T09:37:12Z</time>
      </trkpt>
      <trkpt lat="45.20192" lon="6.0024">
        <ele>2353</ele>
        <time>2013-04-13T09:37:15Z</time>
      </trkpt>
      <trkpt lat="45.20191" lon="6.0024">
        <ele>2354.1999512</ele>
        <time>2013-04-13T09:37:18Z</time>
      </trkpt>
      <trkpt lat="45.20189" lon="6.0024">
        <ele>2355.1999512</ele>
        <time>2013-04-13T09:37:21Z</time>
      </trkpt>
      <trkpt lat="45.20186" lon="6.00241">
        <ele>2355.1999512</ele>
        <time>2013-04-13T09:37:24Z</time>
      </trkpt>
      <trkpt lat="45.20184" lon="6.00241">
        <ele>2356</ele>
        <time>2013-04-13T09:37:27Z</time>
      </trkpt>
      <trkpt lat="45.20182" lon="6.00242">
        <ele>2356.8000488</ele>
        <time>2013-04-13T09:37:30Z</time>
      </trkpt>
      <trkpt lat="45.2018" lon="6.00242">
        <ele>2357.1999512</ele>
        <time>2013-04-13T09:37:33Z</time>
      </trkpt>
      <trkpt lat="45.20177" lon="6.00242">
        <ele>2358</ele>
        <time>2013-04-13T09:37:36Z</time>
      </trkpt>
      <trkpt lat="45.20175" lon="6.00242">
        <ele>2359</ele>
        <time>2013-04-13T09:37:39Z</time>
      </trkpt>
      <trkpt lat="45.20174" lon="6.00242">
        <ele>2359.6000977</ele>
        <time>2013-04-13T09:37:42Z</time>
      </trkpt>
      <trkpt lat="45.20172" lon="6.00241">
        <ele>2359.6000977</ele>
        <time>2013-04-13T09:37:45Z</time>
      </trkpt>
      <trkpt lat="45.20172" lon="6.00241">
        <ele>2360.6000977</ele>
        <time>2013-04-13T09:37:48Z</time>
      </trkpt>
      <trkpt lat="45.20172" lon="6.00241">
        <ele>2361.1999512</ele>
        <time>2013-04-13T09:37:51Z</time>
      </trkpt>
      <trkpt lat="45.20172" lon="6.00241">
        <ele>2361.6000977</ele>
        <time>2013-04-13T09:37:54Z</time>
      </trkpt>
      <trkpt lat="45.20172" lon="6.0024">
        <ele>2361.6000977</ele>
        <time>2013-04-13T09:37:57Z</time>
      </trkpt>
      <trkpt lat="45.20171" lon="6.00237">
        <ele>2361.6000977</ele>
        <time>2013-04-13T09:38:00Z</time>
      </trkpt>
      <trkpt lat="45.2017" lon="6.00234">
        <ele>2361.6000977</ele>
        <time>2013-04-13T09:38:03Z</time>
      </trkpt>
      <trkpt lat="45.2017" lon="6.00231">
        <ele>2362.1999512</ele>
        <time>2013-04-13T09:38:06Z</time>
      </trkpt>
      <trkpt lat="45.2017" lon="6.00228">
        <ele>2363</ele>
        <time>2013-04-13T09:38:09Z</time>
      </trkpt>
      <trkpt lat="45.2017" lon="6.00225">
        <ele>2363.6000977</ele>
        <time>2013-04-13T09:38:12Z</time>
      </trkpt>
      <trkpt lat="45.2017" lon="6.00222">
        <ele>2363.6000977</ele>
        <time>2013-04-13T09:38:15Z</time>
      </trkpt>
      <trkpt lat="45.20171" lon="6.0022">
        <ele>2365</ele>
        <time>2013-04-13T09:38:18Z</time>
      </trkpt>
      <trkpt lat="45.20172" lon="6.00218">
        <ele>2365.8000488</ele>
        <time>2013-04-13T09:38:21Z</time>
      </trkpt>
      <trkpt lat="45.20174" lon="6.00217">
        <ele>2366.8000488</ele>
        <time>2013-04-13T09:38:24Z</time>
      </trkpt>
      <trkpt lat="45.20175" lon="6.00214">
        <ele>2367.6000977</ele>
        <time>2013-04-13T09:38:27Z</time>
      </trkpt>
      <trkpt lat="45.20177" lon="6.00212">
        <ele>2368</ele>
        <time>2013-04-13T09:38:30Z</time>
      </trkpt>
      <trkpt lat="45.20178" lon="6.0021">
        <ele>2369</ele>
        <time>2013-04-13T09:38:33Z</time>
      </trkpt>
      <trkpt lat="45.2018" lon="6.00208">
        <ele>2369.8000488</ele>
        <time>2013-04-13T09:38:36Z</time>
      </trkpt>
      <trkpt lat="45.20181" lon="6.00206">
        <ele>2370</ele>
        <time>2013-04-13T09:38:39Z</time>
      </trkpt>
      <trkpt lat="45.20182" lon="6.00204">
        <ele>2371</ele>
        <time>2013-04-13T09:38:42Z</time>
      </trkpt>
      <trkpt lat="45.20182" lon="6.00203">
        <ele>2371.8000488</ele>
        <time>2013-04-13T09:38:45Z</time>
      </trkpt>
      <trkpt lat="45.2018" lon="6.00202">
        <ele>2372</ele>
        <time>2013-04-13T09:38:48Z</time>
      </trkpt>
      <trkpt lat="45.20178" lon="6.00201">
        <ele>2372.8000488</ele>
        <time>2013-04-13T09:38:51Z</time>
      </trkpt>
      <trkpt lat="45.20176" lon="6.002">
        <ele>2373.1999512</ele>
        <time>2013-04-13T09:38:54Z</time>
      </trkpt>
      <trkpt lat="45.20175" lon="6.00199">
        <ele>2373.8000488</ele>
        <time>2013-04-13T09:38:57Z</time>
      </trkpt>
      <trkpt lat="45.20173" lon="6.00197">
        <ele>2374</ele>
        <time>2013-04-13T09:39:00Z</time>
      </trkpt>
      <trkpt lat="45.20172" lon="6.00195">
        <ele>2375</ele>
        <time>2013-04-13T09:39:03Z</time>
      </trkpt>
      <trkpt lat="45.20171" lon="6.00193">
        <ele>2376</ele>
        <time>2013-04-13T09:39:06Z</time>
      </trkpt>
      <trkpt lat="45.2017" lon="6.00191">
        <ele>2376.1999512</ele>
        <time>2013-04-13T09:39:09Z</time>
      </trkpt>
      <trkpt lat="45.20169" lon="6.00189">
        <ele>2377.1999512</ele>
        <time>2013-04-13T09:39:12Z</time>
      </trkpt>
      <trkpt lat="45.20168" lon="6.00187">
        <ele>2378</ele>
        <time>2013-04-13T09:39:15Z</time>
      </trkpt>
      <trkpt lat="45.20167" lon="6.00184">
        <ele>2378.6000977</ele>
        <time>2013-04-13T09:39:18Z</time>
      </trkpt>
      <trkpt lat="45.20167" lon="6.00182">
        <ele>2379.1999512</ele>
        <time>2013-04-13T09:39:21Z</time>
      </trkpt>
      <trkpt lat="45.20167" lon="6.00179">
        <ele>2380</ele>
        <time>2013-04-13T09:39:24Z</time>
      </trkpt>
      <trkpt lat="45.20167" lon="6.00177">
        <ele>2381</ele>
        <time>2013-04-13T09:39:27Z</time>
      </trkpt>
      <trkpt lat="45.20167" lon="6.00174">
        <ele>2382</ele>
        <time>2013-04-13T09:39:30Z</time>
      </trkpt>
      <trkpt lat="45.20168" lon="6.00171">
        <ele>2382</ele>
        <time>2013-04-13T09:39:33Z</time>
      </trkpt>
      <trkpt lat="45.20168" lon="6.00169">
        <ele>2383</ele>
        <time>2013-04-13T09:39:36Z</time>
      </trkpt>
      <trkpt lat="45.20169" lon="6.00166">
        <ele>2384</ele>
        <time>2013-04-13T09:39:39Z</time>
      </trkpt>
      <trkpt lat="45.2017" lon="6.00162">
        <ele>2384</ele>
        <time>2013-04-13T09:39:42Z</time>
      </trkpt>
      <trkpt lat="45.2017" lon="6.00159">
        <ele>2384.1999512</ele>
        <time>2013-04-13T09:39:45Z</time>
      </trkpt>
      <trkpt lat="45.20171" lon="6.00154">
        <ele>2385.8000488</ele>
        <time>2013-04-13T09:39:48Z</time>
      </trkpt>
      <trkpt lat="45.20171" lon="6.00151">
        <ele>2386</ele>
        <time>2013-04-13T09:39:51Z</time>
      </trkpt>
      <trkpt lat="45.20171" lon="6.00147">
        <ele>2386</ele>
        <time>2013-04-13T09:39:54Z</time>
      </trkpt>
      <trkpt lat="45.2017" lon="6.00144">
        <ele>2386.6000977</ele>
        <time>2013-04-13T09:39:57Z</time>
      </trkpt>
      <trkpt lat="45.20169" lon="6.0014">
        <ele>2387.1999512</ele>
        <time>2013-04-13T09:40:00Z</time>
      </trkpt>
      <trkpt lat="45.20169" lon="6.00138">
        <ele>2388</ele>
        <time>2013-04-13T09:40:03Z</time>
      </trkpt>
      <trkpt lat="45.20168" lon="6.00134">
        <ele>2388</ele>
        <time>2013-04-13T09:40:06Z</time>
      </trkpt>
      <trkpt lat="45.20168" lon="6.00132">
        <ele>2389</ele>
        <time>2013-04-13T09:40:09Z</time>
      </trkpt>
      <trkpt lat="45.20168" lon="6.00128">
        <ele>2390.1999512</ele>
        <time>2013-04-13T09:40:12Z</time>
      </trkpt>
      <trkpt lat="45.20167" lon="6.00125">
        <ele>2390.8000488</ele>
        <time>2013-04-13T09:40:15Z</time>
      </trkpt>
      <trkpt lat="45.20167" lon="6.00122">
        <ele>2392</ele>
        <time>2013-04-13T09:40:18Z</time>
      </trkpt>
      <trkpt lat="45.20167" lon="6.00119">
        <ele>2392.6000977</ele>
        <time>2013-04-13T09:40:21Z</time>
      </trkpt>
      <trkpt lat="45.20167" lon="6.00115">
        <ele>2392.6000977</ele>
        <time>2013-04-13T09:40:24Z</time>
      </trkpt>
      <trkpt lat="45.20167" lon="6.00112">
        <ele>2392.8000488</ele>
        <time>2013-04-13T09:40:27Z</time>
      </trkpt>
      <trkpt lat="45.20167" lon="6.00109">
        <ele>2393.8000488</ele>
        <time>2013-04-13T09:40:30Z</time>
      </trkpt>
      <trkpt lat="45.20167" lon="6.00106">
        <ele>2394.1999512</ele>
        <time>2013-04-13T09:40:33Z</time>
      </trkpt>
      <trkpt lat="45.20167" lon="6.00103">
        <ele>2394.6000977</ele>
        <time>2013-04-13T09:40:36Z</time>
      </trkpt>
      <trkpt lat="45.20167" lon="6.001">
        <ele>2395.1999512</ele>
        <time>2013-04-13T09:40:39Z</time>
      </trkpt>
      <trkpt lat="45.20168" lon="6.00097">
        <ele>2396.1999512</ele>
        <time>2013-04-13T09:40:42Z</time>
      </trkpt>
      <trkpt lat="45.20168" lon="6.00094">
        <ele>2396.8000488</ele>
        <time>2013-04-13T09:40:45Z</time>
      </trkpt>
      <trkpt lat="45.20169" lon="6.00091">
        <ele>2397.6000977</ele>
        <time>2013-04-13T09:40:48Z</time>
      </trkpt>
      <trkpt lat="45.20169" lon="6.00088">
        <ele>2398.1999512</ele>
        <time>2013-04-13T09:40:51Z</time>
      </trkpt>
      <trkpt lat="45.2017" lon="6.00085">
        <ele>2398.8000488</ele>
        <time>2013-04-13T09:40:54Z</time>
      </trkpt>
      <trkpt lat="45.20171" lon="6.00084">
        <ele>2399</ele>
        <time>2013-04-13T09:40:57Z</time>
      </trkpt>
      <trkpt lat="45.20173" lon="6.00082">
        <ele>2400</ele>
        <time>2013-04-13T09:41:00Z</time>
      </trkpt>
      <trkpt lat="45.20175" lon="6.0008">
        <ele>2400.8000488</ele>
        <time>2013-04-13T09:41:03Z</time>
      </trkpt>
      <trkpt lat="45.20176" lon="6.00078">
        <ele>2400.8000488</ele>
        <time>2013-04-13T09:41:06Z</time>
      </trkpt>
      <trkpt lat="45.20177" lon="6.00076">
        <ele>2401.6000977</ele>
        <time>2013-04-13T09:41:09Z</time>
      </trkpt>
      <trkpt lat="45.20179" lon="6.00073">
        <ele>2402.1999512</ele>
        <time>2013-04-13T09:41:12Z</time>
      </trkpt>
      <trkpt lat="45.2018" lon="6.00071">
        <ele>2402.8000488</ele>
        <time>2013-04-13T09:41:15Z</time>
      </trkpt>
      <trkpt lat="45.20181" lon="6.00069">
        <ele>2403.1999512</ele>
        <time>2013-04-13T09:41:18Z</time>
      </trkpt>
      <trkpt lat="45.20182" lon="6.00067">
        <ele>2404.1999512</ele>
        <time>2013-04-13T09:41:21Z</time>
      </trkpt>
      <trkpt lat="45.20183" lon="6.00065">
        <ele>2405</ele>
        <time>2013-04-13T09:41:24Z</time>
      </trkpt>
      <trkpt lat="45.20183" lon="6.00065">
        <ele>2406</ele>
        <time>2013-04-13T09:41:27Z</time>
      </trkpt>
      <trkpt lat="45.20183" lon="6.00064">
        <ele>2407</ele>
        <time>2013-04-13T09:41:30Z</time>
      </trkpt>
      <trkpt lat="45.20183" lon="6.00064">
        <ele>2407</ele>
        <time>2013-04-13T09:41:33Z</time>
      </trkpt>
      <trkpt lat="45.20183" lon="6.00064">
        <ele>2407</ele>
        <time>2013-04-13T09:41:36Z</time>
      </trkpt>
      <trkpt lat="45.20183" lon="6.00064">
        <ele>2407</ele>
        <time>2013-04-13T09:41:39Z</time>
      </trkpt>
      <trkpt lat="45.20183" lon="6.00064">
        <ele>2407</ele>
        <time>2013-04-13T09:41:42Z</time>
      </trkpt>
      <trkpt lat="45.20181" lon="6.00064">
        <ele>2407</ele>
        <time>2013-04-13T09:41:45Z</time>
      </trkpt>
      <trkpt lat="45.20179" lon="6.00062">
        <ele>2407</ele>
        <time>2013-04-13T09:41:48Z</time>
      </trkpt>
      <trkpt lat="45.20177" lon="6.00061">
        <ele>2407</ele>
        <time>2013-04-13T09:41:51Z</time>
      </trkpt>
      <trkpt lat="45.20175" lon="6.0006">
        <ele>2408.1999512</ele>
        <time>2013-04-13T09:41:54Z</time>
      </trkpt>
      <trkpt lat="45.20173" lon="6.00059">
        <ele>2409</ele>
        <time>2013-04-13T09:41:57Z</time>
      </trkpt>
      <trkpt lat="45.20171" lon="6.00058">
        <ele>2409.1999512</ele>
        <time>2013-04-13T09:42:00Z</time>
      </trkpt>
      <trkpt lat="45.20169" lon="6.00057">
        <ele>2410</ele>
        <time>2013-04-13T09:42:03Z</time>
      </trkpt>
      <trkpt lat="45.20167" lon="6.00056">
        <ele>2411</ele>
        <time>2013-04-13T09:42:06Z</time>
      </trkpt>
      <trkpt lat="45.20165" lon="6.00055">
        <ele>2411.6000977</ele>
        <time>2013-04-13T09:42:09Z</time>
      </trkpt>
      <trkpt lat="45.20163" lon="6.00054">
        <ele>2412.8000488</ele>
        <time>2013-04-13T09:42:12Z</time>
      </trkpt>
      <trkpt lat="45.20161" lon="6.00053">
        <ele>2413</ele>
        <time>2013-04-13T09:42:15Z</time>
      </trkpt>
      <trkpt lat="45.20159" lon="6.00053">
        <ele>2413.1999512</ele>
        <time>2013-04-13T09:42:18Z</time>
      </trkpt>
      <trkpt lat="45.20159" lon="6.00053">
        <ele>2414</ele>
        <time>2013-04-13T09:42:21Z</time>
      </trkpt>
      <trkpt lat="45.20159" lon="6.00053">
        <ele>2415.1999512</ele>
        <time>2013-04-13T09:42:24Z</time>
      </trkpt>
      <trkpt lat="45.20159" lon="6.00053">
        <ele>2415.1999512</ele>
        <time>2013-04-13T09:42:27Z</time>
      </trkpt>
      <trkpt lat="45.20159" lon="6.00053">
        <ele>2415.1999512</ele>
        <time>2013-04-13T09:42:30Z</time>
      </trkpt>
      <trkpt lat="45.20159" lon="6.00053">
        <ele>2415.1999512</ele>
        <time>2013-04-13T09:42:33Z</time>
      </trkpt>
      <trkpt lat="45.2016" lon="6.00054">
        <ele>2415.1999512</ele>
        <time>2013-04-13T09:42:36Z</time>
      </trkpt>
      <trkpt lat="45.2016" lon="6.00052">
        <ele>2415.1999512</ele>
        <time>2013-04-13T09:42:39Z</time>
      </trkpt>
      <trkpt lat="45.20158" lon="6.00052">
        <ele>2415.1999512</ele>
        <time>2013-04-13T09:42:42Z</time>
      </trkpt>
      <trkpt lat="45.20158" lon="6.00052">
        <ele>2415.1999512</ele>
        <time>2013-04-13T09:42:45Z</time>
      </trkpt>
      <trkpt lat="45.20159" lon="6.0005">
        <ele>2415.1999512</ele>
        <time>2013-04-13T09:42:48Z</time>
      </trkpt>
      <trkpt lat="45.2016" lon="6.00048">
        <ele>2415.1999512</ele>
        <time>2013-04-13T09:42:51Z</time>
      </trkpt>
      <trkpt lat="45.20162" lon="6.00046">
        <ele>2416.6000977</ele>
        <time>2013-04-13T09:42:54Z</time>
      </trkpt>
      <trkpt lat="45.20163" lon="6.00044">
        <ele>2417.1999512</ele>
        <time>2013-04-13T09:42:57Z</time>
      </trkpt>
      <trkpt lat="45.20165" lon="6.00041">
        <ele>2417.1999512</ele>
        <time>2013-04-13T09:43:00Z</time>
      </trkpt>
      <trkpt lat="45.20166" lon="6.00039">
        <ele>2417.8000488</ele>
        <time>2013-04-13T09:43:03Z</time>
      </trkpt>
      <trkpt lat="45.20168" lon="6.00036">
        <ele>2418.6000977</ele>
        <time>2013-04-13T09:43:06Z</time>
      </trkpt>
      <trkpt lat="45.2017" lon="6.00034">
        <ele>2419.1999512</ele>
        <time>2013-04-13T09:43:09Z</time>
      </trkpt>
      <trkpt lat="45.20172" lon="6.00032">
        <ele>2420.1999512</ele>
        <time>2013-04-13T09:43:12Z</time>
      </trkpt>
      <trkpt lat="45.20174" lon="6.0003">
        <ele>2421</ele>
        <time>2013-04-13T09:43:15Z</time>
      </trkpt>
      <trkpt lat="45.20176" lon="6.00028">
        <ele>2421.1999512</ele>
        <time>2013-04-13T09:43:18Z</time>
      </trkpt>
      <trkpt lat="45.20176" lon="6.00027">
        <ele>2421.1999512</ele>
        <time>2013-04-13T09:43:21Z</time>
      </trkpt>
      <trkpt lat="45.20174" lon="6.00025">
        <ele>2421.8000488</ele>
        <time>2013-04-13T09:43:24Z</time>
      </trkpt>
      <trkpt lat="45.20171" lon="6.00024">
        <ele>2422.1999512</ele>
        <time>2013-04-13T09:43:27Z</time>
      </trkpt>
      <trkpt lat="45.20169" lon="6.00023">
        <ele>2423.1999512</ele>
        <time>2013-04-13T09:43:30Z</time>
      </trkpt>
      <trkpt lat="45.20167" lon="6.00023">
        <ele>2423.8000488</ele>
        <time>2013-04-13T09:43:33Z</time>
      </trkpt>
      <trkpt lat="45.20167" lon="6.00023">
        <ele>2424.6000977</ele>
        <time>2013-04-13T09:43:36Z</time>
      </trkpt>
      <trkpt lat="45.20167" lon="6.00023">
        <ele>2425.6000977</ele>
        <time>2013-04-13T09:43:39Z</time>
      </trkpt>
      <trkpt lat="45.20167" lon="6.00022">
        <ele>2425.6000977</ele>
        <time>2013-04-13T09:43:42Z</time>
      </trkpt>
      <trkpt lat="45.20165" lon="6.00022">
        <ele>2425.6000977</ele>
        <time>2013-04-13T09:43:45Z</time>
      </trkpt>
      <trkpt lat="45.20163" lon="6.00021">
        <ele>2425.6000977</ele>
        <time>2013-04-13T09:43:48Z</time>
      </trkpt>
      <trkpt lat="45.20161" lon="6.0002">
        <ele>2425.6000977</ele>
        <time>2013-04-13T09:43:51Z</time>
      </trkpt>
      <trkpt lat="45.20158" lon="6.0002">
        <ele>2426</ele>
        <time>2013-04-13T09:43:54Z</time>
      </trkpt>
      <trkpt lat="45.20156" lon="6.0002">
        <ele>2427</ele>
        <time>2013-04-13T09:43:57Z</time>
      </trkpt>
      <trkpt lat="45.20155" lon="6.00019">
        <ele>2427.6000977</ele>
        <time>2013-04-13T09:44:00Z</time>
      </trkpt>
      <trkpt lat="45.20153" lon="6.00019">
        <ele>2427.6000977</ele>
        <time>2013-04-13T09:44:03Z</time>
      </trkpt>
      <trkpt lat="45.20152" lon="6.00019">
        <ele>2428.8000488</ele>
        <time>2013-04-13T09:44:06Z</time>
      </trkpt>
      <trkpt lat="45.20153" lon="6.00018">
        <ele>2429.8000488</ele>
        <time>2013-04-13T09:44:09Z</time>
      </trkpt>
      <trkpt lat="45.20154" lon="6.00015">
        <ele>2429.8000488</ele>
        <time>2013-04-13T09:44:12Z</time>
      </trkpt>
      <trkpt lat="45.20155" lon="6.00012">
        <ele>2429.8000488</ele>
        <time>2013-04-13T09:44:15Z</time>
      </trkpt>
      <trkpt lat="45.20156" lon="6.0001">
        <ele>2430</ele>
        <time>2013-04-13T09:44:18Z</time>
      </trkpt>
      <trkpt lat="45.20157" lon="6.00007">
        <ele>2431</ele>
        <time>2013-04-13T09:44:21Z</time>
      </trkpt>
      <trkpt lat="45.20158" lon="6.00004">
        <ele>2431.8000488</ele>
        <time>2013-04-13T09:44:24Z</time>
      </trkpt>
      <trkpt lat="45.20158" lon="6.00002">
        <ele>2431.8000488</ele>
        <time>2013-04-13T09:44:27Z</time>
      </trkpt>
      <trkpt lat="45.20162" lon="5.99999">
        <ele>2432.8000488</ele>
        <time>2013-04-13T09:44:30Z</time>
      </trkpt>
      <trkpt lat="45.20163" lon="5.99996">
        <ele>2433.6000977</ele>
        <time>2013-04-13T09:44:33Z</time>
      </trkpt>
      <trkpt lat="45.20162" lon="5.99993">
        <ele>2434</ele>
        <time>2013-04-13T09:44:36Z</time>
      </trkpt>
      <trkpt lat="45.2016" lon="5.99991">
        <ele>2435.1999512</ele>
        <time>2013-04-13T09:44:39Z</time>
      </trkpt>
      <trkpt lat="45.20159" lon="5.99991">
        <ele>2436</ele>
        <time>2013-04-13T09:44:42Z</time>
      </trkpt>
      <trkpt lat="45.20159" lon="5.99991">
        <ele>2436</ele>
        <time>2013-04-13T09:44:45Z</time>
      </trkpt>
      <trkpt lat="45.20159" lon="5.99991">
        <ele>2436</ele>
        <time>2013-04-13T09:44:48Z</time>
      </trkpt>
      <trkpt lat="45.20158" lon="5.99991">
        <ele>2436</ele>
        <time>2013-04-13T09:44:51Z</time>
      </trkpt>
      <trkpt lat="45.20158" lon="5.99991">
        <ele>2436</ele>
        <time>2013-04-13T09:44:54Z</time>
      </trkpt>
      <trkpt lat="45.20157" lon="5.99991">
        <ele>2436</ele>
        <time>2013-04-13T09:44:57Z</time>
      </trkpt>
      <trkpt lat="45.20157" lon="5.99991">
        <ele>2436</ele>
        <time>2013-04-13T09:45:00Z</time>
      </trkpt>
      <trkpt lat="45.20155" lon="5.99991">
        <ele>2436</ele>
        <time>2013-04-13T09:45:03Z</time>
      </trkpt>
      <trkpt lat="45.20155" lon="5.99991">
        <ele>2436</ele>
        <time>2013-04-13T09:45:06Z</time>
      </trkpt>
      <trkpt lat="45.20153" lon="5.99989">
        <ele>2436</ele>
        <time>2013-04-13T09:45:09Z</time>
      </trkpt>
      <trkpt lat="45.20151" lon="5.99987">
        <ele>2436</ele>
        <time>2013-04-13T09:45:12Z</time>
      </trkpt>
      <trkpt lat="45.20149" lon="5.99986">
        <ele>2437</ele>
        <time>2013-04-13T09:45:15Z</time>
      </trkpt>
      <trkpt lat="45.20147" lon="5.99985">
        <ele>2437.8000488</ele>
        <time>2013-04-13T09:45:18Z</time>
      </trkpt>
      <trkpt lat="45.20146" lon="5.99983">
        <ele>2438.6000977</ele>
        <time>2013-04-13T09:45:21Z</time>
      </trkpt>
      <trkpt lat="45.20146" lon="5.9998">
        <ele>2439.8000488</ele>
        <time>2013-04-13T09:45:24Z</time>
      </trkpt>
      <trkpt lat="45.20145" lon="5.99977">
        <ele>2440</ele>
        <time>2013-04-13T09:45:27Z</time>
      </trkpt>
      <trkpt lat="45.20144" lon="5.99975">
        <ele>2440.6000977</ele>
        <time>2013-04-13T09:45:30Z</time>
      </trkpt>
      <trkpt lat="45.20143" lon="5.99973">
        <ele>2441.1999512</ele>
        <time>2013-04-13T09:45:33Z</time>
      </trkpt>
      <trkpt lat="45.20143" lon="5.9997">
        <ele>2442</ele>
        <time>2013-04-13T09:45:36Z</time>
      </trkpt>
      <trkpt lat="45.20143" lon="5.99969">
        <ele>2442</ele>
        <time>2013-04-13T09:45:39Z</time>
      </trkpt>
      <trkpt lat="45.20143" lon="5.99967">
        <ele>2443</ele>
        <time>2013-04-13T09:45:42Z</time>
      </trkpt>
      <trkpt lat="45.20143" lon="5.99965">
        <ele>2444</ele>
        <time>2013-04-13T09:45:45Z</time>
      </trkpt>
      <trkpt lat="45.20143" lon="5.99962">
        <ele>2444</ele>
        <time>2013-04-13T09:45:48Z</time>
      </trkpt>
      <trkpt lat="45.20143" lon="5.99959">
        <ele>2444</ele>
        <time>2013-04-13T09:45:51Z</time>
      </trkpt>
      <trkpt lat="45.20144" lon="5.99955">
        <ele>2444</ele>
        <time>2013-04-13T09:45:54Z</time>
      </trkpt>
      <trkpt lat="45.20145" lon="5.99951">
        <ele>2444</ele>
        <time>2013-04-13T09:45:57Z</time>
      </trkpt>
      <trkpt lat="45.20146" lon="5.99946">
        <ele>2444</ele>
        <time>2013-04-13T09:46:00Z</time>
      </trkpt>
      <trkpt lat="45.20145" lon="5.99943">
        <ele>2444</ele>
        <time>2013-04-13T09:46:03Z</time>
      </trkpt>
      <trkpt lat="45.20144" lon="5.9994">
        <ele>2444</ele>
        <time>2013-04-13T09:46:06Z</time>
      </trkpt>
      <trkpt lat="45.20143" lon="5.99937">
        <ele>2444</ele>
        <time>2013-04-13T09:46:09Z</time>
      </trkpt>
      <trkpt lat="45.20143" lon="5.99937">
        <ele>2444</ele>
        <time>2013-04-13T09:46:12Z</time>
      </trkpt>
      <trkpt lat="45.20143" lon="5.99937">
        <ele>2444</ele>
        <time>2013-04-13T09:46:15Z</time>
      </trkpt>
      <trkpt lat="45.20143" lon="5.99937">
        <ele>2444</ele>
        <time>2013-04-13T09:46:18Z</time>
      </trkpt>
      <trkpt lat="45.20143" lon="5.99937">
        <ele>2444</ele>
        <time>2013-04-13T09:46:21Z</time>
      </trkpt>
      <trkpt lat="45.20143" lon="5.99937">
        <ele>2444</ele>
        <time>2013-04-13T09:46:24Z</time>
      </trkpt>
      <trkpt lat="45.20143" lon="5.99937">
        <ele>2444</ele>
        <time>2013-04-13T09:46:27Z</time>
      </trkpt>
      <trkpt lat="45.20143" lon="5.99937">
        <ele>2444</ele>
        <time>2013-04-13T09:46:30Z</time>
      </trkpt>
      <trkpt lat="45.20143" lon="5.99937">
        <ele>2444</ele>
        <time>2013-04-13T09:46:33Z</time>
      </trkpt>
      <trkpt lat="45.20143" lon="5.99938">
        <ele>2444</ele>
        <time>2013-04-13T09:46:36Z</time>
      </trkpt>
      <trkpt lat="45.20143" lon="5.99938">
        <ele>2444</ele>
        <time>2013-04-13T09:46:39Z</time>
      </trkpt>
      <trkpt lat="45.20143" lon="5.99938">
        <ele>2444</ele>
        <time>2013-04-13T09:46:42Z</time>
      </trkpt>
      <trkpt lat="45.20143" lon="5.99938">
        <ele>2444</ele>
        <time>2013-04-13T09:46:45Z</time>
      </trkpt>
      <trkpt lat="45.20143" lon="5.99938">
        <ele>2444</ele>
        <time>2013-04-13T09:46:48Z</time>
      </trkpt>
      <trkpt lat="45.20143" lon="5.99938">
        <ele>2444</ele>
        <time>2013-04-13T09:46:51Z</time>
      </trkpt>
      <trkpt lat="45.20143" lon="5.99938">
        <ele>2444</ele>
        <time>2013-04-13T09:46:54Z</time>
      </trkpt>
      <trkpt lat="45.20143" lon="5.99938">
        <ele>2444</ele>
        <time>2013-04-13T09:46:57Z</time>
      </trkpt>
      <trkpt lat="45.20142" lon="5.99938">
        <ele>2444</ele>
        <time>2013-04-13T09:47:00Z</time>
      </trkpt>
      <trkpt lat="45.20143" lon="5.99938">
        <ele>2444</ele>
        <time>2013-04-13T09:47:03Z</time>
      </trkpt>
      <trkpt lat="45.20142" lon="5.99938">
        <ele>2444</ele>
        <time>2013-04-13T09:47:06Z</time>
      </trkpt>
      <trkpt lat="45.20142" lon="5.99938">
        <ele>2444</ele>
        <time>2013-04-13T09:47:09Z</time>
      </trkpt>
      <trkpt lat="45.20142" lon="5.99938">
        <ele>2444</ele>
        <time>2013-04-13T09:47:12Z</time>
      </trkpt>
      <trkpt lat="45.20142" lon="5.99938">
        <ele>2444</ele>
        <time>2013-04-13T09:47:15Z</time>
      </trkpt>
      <trkpt lat="45.20142" lon="5.99938">
        <ele>2444</ele>
        <time>2013-04-13T09:47:18Z</time>
      </trkpt>
      <trkpt lat="45.20142" lon="5.99938">
        <ele>2444</ele>
        <time>2013-04-13T09:47:21Z</time>
      </trkpt>
      <trkpt lat="45.20142" lon="5.99938">
        <ele>2444</ele>
        <time>2013-04-13T09:47:24Z</time>
      </trkpt>
      <trkpt lat="45.20142" lon="5.99938">
        <ele>2444</ele>
        <time>2013-04-13T09:47:27Z</time>
      </trkpt>
      <trkpt lat="45.20142" lon="5.99938">
        <ele>2444</ele>
        <time>2013-04-13T09:47:30Z</time>
      </trkpt>
      <trkpt lat="45.20142" lon="5.99938">
        <ele>2444</ele>
        <time>2013-04-13T09:47:33Z</time>
      </trkpt>
      <trkpt lat="45.20142" lon="5.99938">
        <ele>2444</ele>
        <time>2013-04-13T09:47:36Z</time>
      </trkpt>
      <trkpt lat="45.20142" lon="5.99938">
        <ele>2444</ele>
        <time>2013-04-13T09:47:39Z</time>
      </trkpt>
      <trkpt lat="45.20142" lon="5.99938">
        <ele>2444</ele>
        <time>2013-04-13T09:47:42Z</time>
      </trkpt>
      <trkpt lat="45.20142" lon="5.99938">
        <ele>2444</ele>
        <time>2013-04-13T09:47:45Z</time>
      </trkpt>
      <trkpt lat="45.20142" lon="5.99938">
        <ele>2444</ele>
        <time>2013-04-13T09:47:48Z</time>
      </trkpt>
      <trkpt lat="45.20142" lon="5.99937">
        <ele>2444</ele>
        <time>2013-04-13T09:47:51Z</time>
      </trkpt>
      <trkpt lat="45.20142" lon="5.99937">
        <ele>2444</ele>
        <time>2013-04-13T09:47:54Z</time>
      </trkpt>
      <trkpt lat="45.20142" lon="5.99937">
        <ele>2444</ele>
        <time>2013-04-13T09:47:57Z</time>
      </trkpt>
      <trkpt lat="45.20142" lon="5.99938">
        <ele>2444</ele>
        <time>2013-04-13T09:48:00Z</time>
      </trkpt>
      <trkpt lat="45.20142" lon="5.99938">
        <ele>2444</ele>
        <time>2013-04-13T09:48:03Z</time>
      </trkpt>
      <trkpt lat="45.20141" lon="5.99938">
        <ele>2444</ele>
        <time>2013-04-13T09:48:06Z</time>
      </trkpt>
      <trkpt lat="45.20141" lon="5.99938">
        <ele>2444</ele>
        <time>2013-04-13T09:48:09Z</time>
      </trkpt>
      <trkpt lat="45.20141" lon="5.99938">
        <ele>2444</ele>
        <time>2013-04-13T09:48:12Z</time>
      </trkpt>
      <trkpt lat="45.20141" lon="5.99938">
        <ele>2444</ele>
        <time>2013-04-13T09:48:15Z</time>
      </trkpt>
      <trkpt lat="45.20141" lon="5.99938">
        <ele>2444</ele>
        <time>2013-04-13T09:48:18Z</time>
      </trkpt>
      <trkpt lat="45.20142" lon="5.99938">
        <ele>2444</ele>
        <time>2013-04-13T09:48:21Z</time>
      </trkpt>
      <trkpt lat="45.20141" lon="5.99938">
        <ele>2444</ele>
        <time>2013-04-13T09:48:24Z</time>
      </trkpt>
      <trkpt lat="45.20142" lon="5.99938">
        <ele>2444</ele>
        <time>2013-04-13T09:48:27Z</time>
      </trkpt>
      <trkpt lat="45.20141" lon="5.99938">
        <ele>2444</ele>
        <time>2013-04-13T09:48:30Z</time>
      </trkpt>
      <trkpt lat="45.20141" lon="5.99938">
        <ele>2444</ele>
        <time>2013-04-13T09:48:33Z</time>
      </trkpt>
      <trkpt lat="45.20141" lon="5.99938">
        <ele>2444</ele>
        <time>2013-04-13T09:48:36Z</time>
      </trkpt>
      <trkpt lat="45.20141" lon="5.99938">
        <ele>2444</ele>
        <time>2013-04-13T09:48:39Z</time>
      </trkpt>
      <trkpt lat="45.20141" lon="5.99938">
        <ele>2444</ele>
        <time>2013-04-13T09:48:42Z</time>
      </trkpt>
      <trkpt lat="45.20141" lon="5.99938">
        <ele>2444</ele>
        <time>2013-04-13T09:48:45Z</time>
      </trkpt>
      <trkpt lat="45.20141" lon="5.99938">
        <ele>2444</ele>
        <time>2013-04-13T09:48:48Z</time>
      </trkpt>
      <trkpt lat="45.20141" lon="5.99938">
        <ele>2444</ele>
        <time>2013-04-13T09:48:51Z</time>
      </trkpt>
      <trkpt lat="45.20141" lon="5.99938">
        <ele>2444</ele>
        <time>2013-04-13T09:48:54Z</time>
      </trkpt>
      <trkpt lat="45.20141" lon="5.99938">
        <ele>2444</ele>
        <time>2013-04-13T09:48:57Z</time>
      </trkpt>
      <trkpt lat="45.20141" lon="5.99938">
        <ele>2444</ele>
        <time>2013-04-13T09:49:00Z</time>
      </trkpt>
      <trkpt lat="45.20141" lon="5.99938">
        <ele>2444</ele>
        <time>2013-04-13T09:49:03Z</time>
      </trkpt>
      <trkpt lat="45.2014" lon="5.99937">
        <ele>2444</ele>
        <time>2013-04-13T09:49:06Z</time>
      </trkpt>
      <trkpt lat="45.20141" lon="5.99938">
        <ele>2444</ele>
        <time>2013-04-13T09:49:09Z</time>
      </trkpt>
      <trkpt lat="45.2014" lon="5.99938">
        <ele>2444</ele>
        <time>2013-04-13T09:49:12Z</time>
      </trkpt>
      <trkpt lat="45.2014" lon="5.99938">
        <ele>2444</ele>
        <time>2013-04-13T09:49:15Z</time>
      </trkpt>
      <trkpt lat="45.2014" lon="5.99938">
        <ele>2444</ele>
        <time>2013-04-13T09:49:18Z</time>
      </trkpt>
      <trkpt lat="45.2014" lon="5.99938">
        <ele>2444</ele>
        <time>2013-04-13T09:49:21Z</time>
      </trkpt>
      <trkpt lat="45.2014" lon="5.99938">
        <ele>2444</ele>
        <time>2013-04-13T09:49:24Z</time>
      </trkpt>
      <trkpt lat="45.2014" lon="5.99938">
        <ele>2444</ele>
        <time>2013-04-13T09:49:27Z</time>
      </trkpt>
      <trkpt lat="45.2014" lon="5.99938">
        <ele>2444</ele>
        <time>2013-04-13T09:49:30Z</time>
      </trkpt>
      <trkpt lat="45.2014" lon="5.99937">
        <ele>2444</ele>
        <time>2013-04-13T09:49:33Z</time>
      </trkpt>
      <trkpt lat="45.2014" lon="5.99938">
        <ele>2444</ele>
        <time>2013-04-13T09:49:36Z</time>
      </trkpt>
      <trkpt lat="45.2014" lon="5.99938">
        <ele>2444</ele>
        <time>2013-04-13T09:49:39Z</time>
      </trkpt>
      <trkpt lat="45.2014" lon="5.99938">
        <ele>2444</ele>
        <time>2013-04-13T09:49:42Z</time>
      </trkpt>
      <trkpt lat="45.20141" lon="5.99938">
        <ele>2444</ele>
        <time>2013-04-13T09:49:45Z</time>
      </trkpt>
      <trkpt lat="45.2014" lon="5.99938">
        <ele>2444</ele>
        <time>2013-04-13T09:49:48Z</time>
      </trkpt>
      <trkpt lat="45.20141" lon="5.99938">
        <ele>2444</ele>
        <time>2013-04-13T09:49:51Z</time>
      </trkpt>
      <trkpt lat="45.20141" lon="5.99938">
        <ele>2444</ele>
        <time>2013-04-13T09:49:54Z</time>
      </trkpt>
      <trkpt lat="45.20141" lon="5.99939">
        <ele>2444</ele>
        <time>2013-04-13T09:49:57Z</time>
      </trkpt>
      <trkpt lat="45.20141" lon="5.99939">
        <ele>2444</ele>
        <time>2013-04-13T09:50:00Z</time>
      </trkpt>
      <trkpt lat="45.20141" lon="5.99938">
        <ele>2444</ele>
        <time>2013-04-13T09:50:03Z</time>
      </trkpt>
      <trkpt lat="45.20141" lon="5.99938">
        <ele>2444</ele>
        <time>2013-04-13T09:50:06Z</time>
      </trkpt>
      <trkpt lat="45.20141" lon="5.99938">
        <ele>2444</ele>
        <time>2013-04-13T09:50:09Z</time>
      </trkpt>
      <trkpt lat="45.20141" lon="5.99938">
        <ele>2444</ele>
        <time>2013-04-13T09:50:12Z</time>
      </trkpt>
      <trkpt lat="45.20141" lon="5.99938">
        <ele>2444</ele>
        <time>2013-04-13T09:50:15Z</time>
      </trkpt>
      <trkpt lat="45.20141" lon="5.99938">
        <ele>2444</ele>
        <time>2013-04-13T09:50:18Z</time>
      </trkpt>
      <trkpt lat="45.20141" lon="5.99938">
        <ele>2444</ele>
        <time>2013-04-13T09:50:21Z</time>
      </trkpt>
      <trkpt lat="45.20141" lon="5.99939">
        <ele>2444</ele>
        <time>2013-04-13T09:50:24Z</time>
      </trkpt>
      <trkpt lat="45.20141" lon="5.99938">
        <ele>2444</ele>
        <time>2013-04-13T09:50:27Z</time>
      </trkpt>
      <trkpt lat="45.20141" lon="5.99938">
        <ele>2444</ele>
        <time>2013-04-13T09:50:30Z</time>
      </trkpt>
      <trkpt lat="45.20141" lon="5.99938">
        <ele>2444</ele>
        <time>2013-04-13T09:50:33Z</time>
      </trkpt>
      <trkpt lat="45.20141" lon="5.99938">
        <ele>2444</ele>
        <time>2013-04-13T09:50:36Z</time>
      </trkpt>
      <trkpt lat="45.20141" lon="5.99938">
        <ele>2444</ele>
        <time>2013-04-13T09:50:39Z</time>
      </trkpt>
      <trkpt lat="45.20141" lon="5.99938">
        <ele>2444</ele>
        <time>2013-04-13T09:50:42Z</time>
      </trkpt>
      <trkpt lat="45.2014" lon="5.99936">
        <ele>2444</ele>
        <time>2013-04-13T09:50:45Z</time>
      </trkpt>
      <trkpt lat="45.20137" lon="5.9993">
        <ele>2444</ele>
        <time>2013-04-13T09:50:48Z</time>
      </trkpt>
      <trkpt lat="45.20136" lon="5.99927">
        <ele>2444</ele>
        <time>2013-04-13T09:50:51Z</time>
      </trkpt>
      <trkpt lat="45.20129" lon="5.9992">
        <ele>2444</ele>
        <time>2013-04-13T09:50:54Z</time>
      </trkpt>
      <trkpt lat="45.20125" lon="5.9991">
        <ele>2444</ele>
        <time>2013-04-13T09:50:57Z</time>
      </trkpt>
      <trkpt lat="45.20125" lon="5.99885">
        <ele>2443</ele>
        <time>2013-04-13T09:51:00Z</time>
      </trkpt>
      <trkpt lat="45.20118" lon="5.99861">
        <ele>2441</ele>
        <time>2013-04-13T09:51:03Z</time>
      </trkpt>
      <trkpt lat="45.20106" lon="5.99837">
        <ele>2440</ele>
        <time>2013-04-13T09:51:06Z</time>
      </trkpt>
      <trkpt lat="45.20098" lon="5.99811">
        <ele>2437.1999512</ele>
        <time>2013-04-13T09:51:09Z</time>
      </trkpt>
      <trkpt lat="45.20084" lon="5.99782">
        <ele>2433.1999512</ele>
        <time>2013-04-13T09:51:12Z</time>
      </trkpt>
      <trkpt lat="45.20074" lon="5.99758">
        <ele>2427.1999512</ele>
        <time>2013-04-13T09:51:15Z</time>
      </trkpt>
      <trkpt lat="45.20061" lon="5.99725">
        <ele>2421</ele>
        <time>2013-04-13T09:51:18Z</time>
      </trkpt>
      <trkpt lat="45.20046" lon="5.99698">
        <ele>2415</ele>
        <time>2013-04-13T09:51:21Z</time>
      </trkpt>
      <trkpt lat="45.20035" lon="5.99691">
        <ele>2408</ele>
        <time>2013-04-13T09:51:24Z</time>
      </trkpt>
      <trkpt lat="45.20035" lon="5.9969">
        <ele>2403</ele>
        <time>2013-04-13T09:51:27Z</time>
      </trkpt>
      <trkpt lat="45.20036" lon="5.9969">
        <ele>2398.1999512</ele>
        <time>2013-04-13T09:51:30Z</time>
      </trkpt>
      <trkpt lat="45.20036" lon="5.9969">
        <ele>2396.8000488</ele>
        <time>2013-04-13T09:51:33Z</time>
      </trkpt>
      <trkpt lat="45.20036" lon="5.9969">
        <ele>2396.8000488</ele>
        <time>2013-04-13T09:51:36Z</time>
      </trkpt>
      <trkpt lat="45.20035" lon="5.9969">
        <ele>2396.8000488</ele>
        <time>2013-04-13T09:51:39Z</time>
      </trkpt>
      <trkpt lat="45.20035" lon="5.99689">
        <ele>2396.8000488</ele>
        <time>2013-04-13T09:51:42Z</time>
      </trkpt>
      <trkpt lat="45.20034" lon="5.99684">
        <ele>2396.8000488</ele>
        <time>2013-04-13T09:51:45Z</time>
      </trkpt>
      <trkpt lat="45.20025" lon="5.99672">
        <ele>2396.8000488</ele>
        <time>2013-04-13T09:51:48Z</time>
      </trkpt>
      <trkpt lat="45.20012" lon="5.99654">
        <ele>2395.8000488</ele>
        <time>2013-04-13T09:51:51Z</time>
      </trkpt>
      <trkpt lat="45.19991" lon="5.99623">
        <ele>2394</ele>
        <time>2013-04-13T09:51:54Z</time>
      </trkpt>
      <trkpt lat="45.19972" lon="5.99592">
        <ele>2388.8000488</ele>
        <time>2013-04-13T09:51:57Z</time>
      </trkpt>
      <trkpt lat="45.19956" lon="5.99563">
        <ele>2376.6000977</ele>
        <time>2013-04-13T09:52:00Z</time>
      </trkpt>
      <trkpt lat="45.19943" lon="5.99542">
        <ele>2366.8000488</ele>
        <time>2013-04-13T09:52:03Z</time>
      </trkpt>
      <trkpt lat="45.19921" lon="5.99513">
        <ele>2358.8000488</ele>
        <time>2013-04-13T09:52:06Z</time>
      </trkpt>
      <trkpt lat="45.199" lon="5.99493">
        <ele>2351</ele>
        <time>2013-04-13T09:52:09Z</time>
      </trkpt>
      <trkpt lat="45.1988" lon="5.99471">
        <ele>2343</ele>
        <time>2013-04-13T09:52:12Z</time>
      </trkpt>
      <trkpt lat="45.19873" lon="5.99448">
        <ele>2336.8000488</ele>
        <time>2013-04-13T09:52:15Z</time>
      </trkpt>
      <trkpt lat="45.19874" lon="5.99415">
        <ele>2331</ele>
        <time>2013-04-13T09:52:18Z</time>
      </trkpt>
      <trkpt lat="45.19874" lon="5.99403">
        <ele>2325.1999512</ele>
        <time>2013-04-13T09:52:21Z</time>
      </trkpt>
      <trkpt lat="45.19874" lon="5.99403">
        <ele>2318.1999512</ele>
        <time>2013-04-13T09:52:24Z</time>
      </trkpt>
      <trkpt lat="45.19874" lon="5.99403">
        <ele>2318.1999512</ele>
        <time>2013-04-13T09:52:27Z</time>
      </trkpt>
      <trkpt lat="45.19874" lon="5.99404">
        <ele>2318.1999512</ele>
        <time>2013-04-13T09:52:30Z</time>
      </trkpt>
      <trkpt lat="45.19874" lon="5.99404">
        <ele>2317.8000488</ele>
        <time>2013-04-13T09:52:33Z</time>
      </trkpt>
      <trkpt lat="45.19874" lon="5.99404">
        <ele>2317</ele>
        <time>2013-04-13T09:52:36Z</time>
      </trkpt>
      <trkpt lat="45.19874" lon="5.99404">
        <ele>2316</ele>
        <time>2013-04-13T09:52:39Z</time>
      </trkpt>
      <trkpt lat="45.19873" lon="5.99405">
        <ele>2316</ele>
        <time>2013-04-13T09:52:42Z</time>
      </trkpt>
      <trkpt lat="45.19872" lon="5.99405">
        <ele>2314</ele>
        <time>2013-04-13T09:52:45Z</time>
      </trkpt>
      <trkpt lat="45.19872" lon="5.99406">
        <ele>2310</ele>
        <time>2013-04-13T09:52:48Z</time>
      </trkpt>
      <trkpt lat="45.19872" lon="5.99406">
        <ele>2310</ele>
        <time>2013-04-13T09:52:51Z</time>
      </trkpt>
      <trkpt lat="45.19872" lon="5.99406">
        <ele>2310</ele>
        <time>2013-04-13T09:52:54Z</time>
      </trkpt>
      <trkpt lat="45.19873" lon="5.99406">
        <ele>2310</ele>
        <time>2013-04-13T09:52:57Z</time>
      </trkpt>
      <trkpt lat="45.19874" lon="5.99406">
        <ele>2310</ele>
        <time>2013-04-13T09:53:00Z</time>
      </trkpt>
      <trkpt lat="45.19874" lon="5.99406">
        <ele>2309</ele>
        <time>2013-04-13T09:53:03Z</time>
      </trkpt>
      <trkpt lat="45.19874" lon="5.99406">
        <ele>2308</ele>
        <time>2013-04-13T09:53:06Z</time>
      </trkpt>
      <trkpt lat="45.19874" lon="5.99406">
        <ele>2307.8000488</ele>
        <time>2013-04-13T09:53:09Z</time>
      </trkpt>
      <trkpt lat="45.19874" lon="5.99406">
        <ele>2307.8000488</ele>
        <time>2013-04-13T09:53:12Z</time>
      </trkpt>
      <trkpt lat="45.19874" lon="5.99406">
        <ele>2307</ele>
        <time>2013-04-13T09:53:15Z</time>
      </trkpt>
      <trkpt lat="45.19874" lon="5.99406">
        <ele>2306</ele>
        <time>2013-04-13T09:53:18Z</time>
      </trkpt>
      <trkpt lat="45.19875" lon="5.99406">
        <ele>2305.8000488</ele>
        <time>2013-04-13T09:53:21Z</time>
      </trkpt>
      <trkpt lat="45.19875" lon="5.99406">
        <ele>2305.8000488</ele>
        <time>2013-04-13T09:53:24Z</time>
      </trkpt>
      <trkpt lat="45.19875" lon="5.99406">
        <ele>2305.8000488</ele>
        <time>2013-04-13T09:53:27Z</time>
      </trkpt>
      <trkpt lat="45.19875" lon="5.99405">
        <ele>2305.8000488</ele>
        <time>2013-04-13T09:53:30Z</time>
      </trkpt>
      <trkpt lat="45.19875" lon="5.99406">
        <ele>2305.8000488</ele>
        <time>2013-04-13T09:53:33Z</time>
      </trkpt>
      <trkpt lat="45.19883" lon="5.99409">
        <ele>2305.8000488</ele>
        <time>2013-04-13T09:53:36Z</time>
      </trkpt>
      <trkpt lat="45.19897" lon="5.99409">
        <ele>2305</ele>
        <time>2013-04-13T09:53:39Z</time>
      </trkpt>
      <trkpt lat="45.1991" lon="5.99392">
        <ele>2302.1999512</ele>
        <time>2013-04-13T09:53:42Z</time>
      </trkpt>
      <trkpt lat="45.19918" lon="5.99368">
        <ele>2298.6000977</ele>
        <time>2013-04-13T09:53:45Z</time>
      </trkpt>
      <trkpt lat="45.19934" lon="5.99342">
        <ele>2291.1999512</ele>
        <time>2013-04-13T09:53:48Z</time>
      </trkpt>
      <trkpt lat="45.19951" lon="5.99322">
        <ele>2283</ele>
        <time>2013-04-13T09:53:51Z</time>
      </trkpt>
      <trkpt lat="45.19973" lon="5.99294">
        <ele>2275</ele>
        <time>2013-04-13T09:53:54Z</time>
      </trkpt>
      <trkpt lat="45.19994" lon="5.99258">
        <ele>2265.6000977</ele>
        <time>2013-04-13T09:53:57Z</time>
      </trkpt>
      <trkpt lat="45.20028" lon="5.99259">
        <ele>2252</ele>
        <time>2013-04-13T09:54:00Z</time>
      </trkpt>
      <trkpt lat="45.20052" lon="5.99272">
        <ele>2240.1999512</ele>
        <time>2013-04-13T09:54:03Z</time>
      </trkpt>
      <trkpt lat="45.20054" lon="5.99267">
        <ele>2232.8000488</ele>
        <time>2013-04-13T09:54:06Z</time>
      </trkpt>
      <trkpt lat="45.20054" lon="5.99268">
        <ele>2222.6000977</ele>
        <time>2013-04-13T09:54:09Z</time>
      </trkpt>
      <trkpt lat="45.20054" lon="5.99269">
        <ele>2213.8000488</ele>
        <time>2013-04-13T09:54:12Z</time>
      </trkpt>
      <trkpt lat="45.20054" lon="5.99268">
        <ele>2211.6000977</ele>
        <time>2013-04-13T09:54:15Z</time>
      </trkpt>
      <trkpt lat="45.20054" lon="5.99271">
        <ele>2209</ele>
        <time>2013-04-13T09:54:18Z</time>
      </trkpt>
      <trkpt lat="45.20053" lon="5.99271">
        <ele>2208</ele>
        <time>2013-04-13T09:54:21Z</time>
      </trkpt>
      <trkpt lat="45.20053" lon="5.99272">
        <ele>2207</ele>
        <time>2013-04-13T09:54:24Z</time>
      </trkpt>
      <trkpt lat="45.20053" lon="5.99272">
        <ele>2206.1999512</ele>
        <time>2013-04-13T09:54:27Z</time>
      </trkpt>
      <trkpt lat="45.20053" lon="5.99273">
        <ele>2205</ele>
        <time>2013-04-13T09:54:30Z</time>
      </trkpt>
      <trkpt lat="45.20053" lon="5.99273">
        <ele>2204.8000488</ele>
        <time>2013-04-13T09:54:33Z</time>
      </trkpt>
      <trkpt lat="45.20053" lon="5.99273">
        <ele>2204</ele>
        <time>2013-04-13T09:54:36Z</time>
      </trkpt>
      <trkpt lat="45.20053" lon="5.99273">
        <ele>2202.1999512</ele>
        <time>2013-04-13T09:54:39Z</time>
      </trkpt>
      <trkpt lat="45.20053" lon="5.99273">
        <ele>2202.1999512</ele>
        <time>2013-04-13T09:54:42Z</time>
      </trkpt>
      <trkpt lat="45.20053" lon="5.99273">
        <ele>2202.1999512</ele>
        <time>2013-04-13T09:54:45Z</time>
      </trkpt>
      <trkpt lat="45.20053" lon="5.99273">
        <ele>2202.1999512</ele>
        <time>2013-04-13T09:54:48Z</time>
      </trkpt>
      <trkpt lat="45.20053" lon="5.99273">
        <ele>2202.1999512</ele>
        <time>2013-04-13T09:54:51Z</time>
      </trkpt>
      <trkpt lat="45.20053" lon="5.99273">
        <ele>2202</ele>
        <time>2013-04-13T09:54:54Z</time>
      </trkpt>
      <trkpt lat="45.20053" lon="5.99273">
        <ele>2200.6000977</ele>
        <time>2013-04-13T09:54:57Z</time>
      </trkpt>
      <trkpt lat="45.20053" lon="5.99273">
        <ele>2200</ele>
        <time>2013-04-13T09:55:00Z</time>
      </trkpt>
      <trkpt lat="45.20057" lon="5.99273">
        <ele>2200</ele>
        <time>2013-04-13T09:55:03Z</time>
      </trkpt>
      <trkpt lat="45.20057" lon="5.99274">
        <ele>2199.1999512</ele>
        <time>2013-04-13T09:55:06Z</time>
      </trkpt>
      <trkpt lat="45.20059" lon="5.9927">
        <ele>2198.1999512</ele>
        <time>2013-04-13T09:55:09Z</time>
      </trkpt>
      <trkpt lat="45.20057" lon="5.99262">
        <ele>2198</ele>
        <time>2013-04-13T09:55:12Z</time>
      </trkpt>
      <trkpt lat="45.20056" lon="5.99256">
        <ele>2197</ele>
        <time>2013-04-13T09:55:15Z</time>
      </trkpt>
      <trkpt lat="45.20055" lon="5.99256">
        <ele>2194.8000488</ele>
        <time>2013-04-13T09:55:18Z</time>
      </trkpt>
      <trkpt lat="45.20055" lon="5.99255">
        <ele>2192.8000488</ele>
        <time>2013-04-13T09:55:21Z</time>
      </trkpt>
      <trkpt lat="45.20055" lon="5.99251">
        <ele>2191.1999512</ele>
        <time>2013-04-13T09:55:24Z</time>
      </trkpt>
      <trkpt lat="45.20055" lon="5.99246">
        <ele>2190.8000488</ele>
        <time>2013-04-13T09:55:27Z</time>
      </trkpt>
      <trkpt lat="45.20055" lon="5.99248">
        <ele>2189.6000977</ele>
        <time>2013-04-13T09:55:30Z</time>
      </trkpt>
      <trkpt lat="45.20055" lon="5.99248">
        <ele>2188</ele>
        <time>2013-04-13T09:55:33Z</time>
      </trkpt>
      <trkpt lat="45.20055" lon="5.99248">
        <ele>2187.1999512</ele>
        <time>2013-04-13T09:55:36Z</time>
      </trkpt>
      <trkpt lat="45.20054" lon="5.99249">
        <ele>2187.1999512</ele>
        <time>2013-04-13T09:55:39Z</time>
      </trkpt>
      <trkpt lat="45.20054" lon="5.9925">
        <ele>2186.8000488</ele>
        <time>2013-04-13T09:55:42Z</time>
      </trkpt>
      <trkpt lat="45.20054" lon="5.9925">
        <ele>2185.8000488</ele>
        <time>2013-04-13T09:55:45Z</time>
      </trkpt>
      <trkpt lat="45.20054" lon="5.9925">
        <ele>2185.1999512</ele>
        <time>2013-04-13T09:55:48Z</time>
      </trkpt>
      <trkpt lat="45.20055" lon="5.99251">
        <ele>2185.1999512</ele>
        <time>2013-04-13T09:55:51Z</time>
      </trkpt>
      <trkpt lat="45.20055" lon="5.99252">
        <ele>2185.1999512</ele>
        <time>2013-04-13T09:55:54Z</time>
      </trkpt>
      <trkpt lat="45.20055" lon="5.99254">
        <ele>2185.1999512</ele>
        <time>2013-04-13T09:55:57Z</time>
      </trkpt>
      <trkpt lat="45.20055" lon="5.99255">
        <ele>2185.1999512</ele>
        <time>2013-04-13T09:56:00Z</time>
      </trkpt>
      <trkpt lat="45.20055" lon="5.99256">
        <ele>2185.1999512</ele>
        <time>2013-04-13T09:56:03Z</time>
      </trkpt>
      <trkpt lat="45.20055" lon="5.99258">
        <ele>2185.1999512</ele>
        <time>2013-04-13T09:56:06Z</time>
      </trkpt>
      <trkpt lat="45.20055" lon="5.9926">
        <ele>2185.1999512</ele>
        <time>2013-04-13T09:56:09Z</time>
      </trkpt>
      <trkpt lat="45.20055" lon="5.9926">
        <ele>2185.1999512</ele>
        <time>2013-04-13T09:56:12Z</time>
      </trkpt>
      <trkpt lat="45.20055" lon="5.99262">
        <ele>2185.1999512</ele>
        <time>2013-04-13T09:56:15Z</time>
      </trkpt>
      <trkpt lat="45.20055" lon="5.99264">
        <ele>2185.1999512</ele>
        <time>2013-04-13T09:56:18Z</time>
      </trkpt>
      <trkpt lat="45.20056" lon="5.99266">
        <ele>2185.1999512</ele>
        <time>2013-04-13T09:56:21Z</time>
      </trkpt>
      <trkpt lat="45.20057" lon="5.99269">
        <ele>2185.1999512</ele>
        <time>2013-04-13T09:56:24Z</time>
      </trkpt>
      <trkpt lat="45.20059" lon="5.9927">
        <ele>2185.1999512</ele>
        <time>2013-04-13T09:56:27Z</time>
      </trkpt>
      <trkpt lat="45.20061" lon="5.99272">
        <ele>2185.1999512</ele>
        <time>2013-04-13T09:56:30Z</time>
      </trkpt>
      <trkpt lat="45.20063" lon="5.99274">
        <ele>2185.1999512</ele>
        <time>2013-04-13T09:56:33Z</time>
      </trkpt>
      <trkpt lat="45.20065" lon="5.99275">
        <ele>2184</ele>
        <time>2013-04-13T09:56:36Z</time>
      </trkpt>
      <trkpt lat="45.20067" lon="5.99276">
        <ele>2183.1999512</ele>
        <time>2013-04-13T09:56:39Z</time>
      </trkpt>
      <trkpt lat="45.20071" lon="5.99278">
        <ele>2183</ele>
        <time>2013-04-13T09:56:42Z</time>
      </trkpt>
      <trkpt lat="45.20073" lon="5.9928">
        <ele>2182.8000488</ele>
        <time>2013-04-13T09:56:45Z</time>
      </trkpt>
      <trkpt lat="45.20075" lon="5.99281">
        <ele>2181.6000977</ele>
        <time>2013-04-13T09:56:48Z</time>
      </trkpt>
      <trkpt lat="45.20077" lon="5.99282">
        <ele>2181</ele>
        <time>2013-04-13T09:56:51Z</time>
      </trkpt>
      <trkpt lat="45.20078" lon="5.99283">
        <ele>2181</ele>
        <time>2013-04-13T09:56:54Z</time>
      </trkpt>
      <trkpt lat="45.2008" lon="5.99283">
        <ele>2180.8000488</ele>
        <time>2013-04-13T09:56:57Z</time>
      </trkpt>
      <trkpt lat="45.2008" lon="5.99283">
        <ele>2180</ele>
        <time>2013-04-13T09:57:00Z</time>
      </trkpt>
      <trkpt lat="45.20081" lon="5.99284">
        <ele>2179</ele>
        <time>2013-04-13T09:57:03Z</time>
      </trkpt>
      <trkpt lat="45.20082" lon="5.99285">
        <ele>2179</ele>
        <time>2013-04-13T09:57:06Z</time>
      </trkpt>
      <trkpt lat="45.20082" lon="5.99285">
        <ele>2179</ele>
        <time>2013-04-13T09:57:09Z</time>
      </trkpt>
      <trkpt lat="45.20083" lon="5.99286">
        <ele>2179</ele>
        <time>2013-04-13T09:57:12Z</time>
      </trkpt>
      <trkpt lat="45.20083" lon="5.99285">
        <ele>2179</ele>
        <time>2013-04-13T09:57:15Z</time>
      </trkpt>
      <trkpt lat="45.20083" lon="5.99285">
        <ele>2179</ele>
        <time>2013-04-13T09:57:18Z</time>
      </trkpt>
      <trkpt lat="45.20083" lon="5.99285">
        <ele>2179</ele>
        <time>2013-04-13T09:57:21Z</time>
      </trkpt>
      <trkpt lat="45.20083" lon="5.99286">
        <ele>2179</ele>
        <time>2013-04-13T09:57:24Z</time>
      </trkpt>
      <trkpt lat="45.20083" lon="5.99285">
        <ele>2179</ele>
        <time>2013-04-13T09:57:27Z</time>
      </trkpt>
      <trkpt lat="45.20085" lon="5.99287">
        <ele>2179</ele>
        <time>2013-04-13T09:57:30Z</time>
      </trkpt>
      <trkpt lat="45.20086" lon="5.99286">
        <ele>2179</ele>
        <time>2013-04-13T09:57:33Z</time>
      </trkpt>
      <trkpt lat="45.20086" lon="5.99287">
        <ele>2179</ele>
        <time>2013-04-13T09:57:36Z</time>
      </trkpt>
      <trkpt lat="45.20086" lon="5.99287">
        <ele>2179</ele>
        <time>2013-04-13T09:57:39Z</time>
      </trkpt>
      <trkpt lat="45.20086" lon="5.99287">
        <ele>2179</ele>
        <time>2013-04-13T09:57:42Z</time>
      </trkpt>
      <trkpt lat="45.20087" lon="5.99286">
        <ele>2179</ele>
        <time>2013-04-13T09:57:45Z</time>
      </trkpt>
      <trkpt lat="45.20086" lon="5.99286">
        <ele>2179</ele>
        <time>2013-04-13T09:57:48Z</time>
      </trkpt>
      <trkpt lat="45.20086" lon="5.99286">
        <ele>2179</ele>
        <time>2013-04-13T09:57:51Z</time>
      </trkpt>
      <trkpt lat="45.20086" lon="5.99286">
        <ele>2179</ele>
        <time>2013-04-13T09:57:54Z</time>
      </trkpt>
      <trkpt lat="45.20086" lon="5.99286">
        <ele>2179</ele>
        <time>2013-04-13T09:57:57Z</time>
      </trkpt>
      <trkpt lat="45.20092" lon="5.99289">
        <ele>2179</ele>
        <time>2013-04-13T09:58:00Z</time>
      </trkpt>
      <trkpt lat="45.20104" lon="5.99293">
        <ele>2178</ele>
        <time>2013-04-13T09:58:03Z</time>
      </trkpt>
      <trkpt lat="45.20107" lon="5.99294">
        <ele>2175.6000977</ele>
        <time>2013-04-13T09:58:06Z</time>
      </trkpt>
      <trkpt lat="45.20107" lon="5.99294">
        <ele>2173</ele>
        <time>2013-04-13T09:58:09Z</time>
      </trkpt>
      <trkpt lat="45.20107" lon="5.99294">
        <ele>2172</ele>
        <time>2013-04-13T09:58:12Z</time>
      </trkpt>
      <trkpt lat="45.20107" lon="5.99294">
        <ele>2172</ele>
        <time>2013-04-13T09:58:15Z</time>
      </trkpt>
      <trkpt lat="45.20107" lon="5.99294">
        <ele>2172</ele>
        <time>2013-04-13T09:58:18Z</time>
      </trkpt>
      <trkpt lat="45.20106" lon="5.99294">
        <ele>2172</ele>
        <time>2013-04-13T09:58:21Z</time>
      </trkpt>
      <trkpt lat="45.20106" lon="5.99294">
        <ele>2171.6000977</ele>
        <time>2013-04-13T09:58:24Z</time>
      </trkpt>
      <trkpt lat="45.20106" lon="5.99293">
        <ele>2170.6000977</ele>
        <time>2013-04-13T09:58:27Z</time>
      </trkpt>
      <trkpt lat="45.20106" lon="5.99293">
        <ele>2170</ele>
        <time>2013-04-13T09:58:30Z</time>
      </trkpt>
      <trkpt lat="45.20106" lon="5.99293">
        <ele>2170</ele>
        <time>2013-04-13T09:58:33Z</time>
      </trkpt>
      <trkpt lat="45.20106" lon="5.99293">
        <ele>2170</ele>
        <time>2013-04-13T09:58:36Z</time>
      </trkpt>
      <trkpt lat="45.20106" lon="5.99293">
        <ele>2170</ele>
        <time>2013-04-13T09:58:39Z</time>
      </trkpt>
      <trkpt lat="45.20105" lon="5.99288">
        <ele>2170</ele>
        <time>2013-04-13T09:58:42Z</time>
      </trkpt>
      <trkpt lat="45.20105" lon="5.99287">
        <ele>2170</ele>
        <time>2013-04-13T09:58:45Z</time>
      </trkpt>
      <trkpt lat="45.20105" lon="5.99286">
        <ele>2168.8000488</ele>
        <time>2013-04-13T09:58:48Z</time>
      </trkpt>
      <trkpt lat="45.20104" lon="5.99286">
        <ele>2167.8000488</ele>
        <time>2013-04-13T09:58:51Z</time>
      </trkpt>
      <trkpt lat="45.20105" lon="5.99285">
        <ele>2166.8000488</ele>
        <time>2013-04-13T09:58:54Z</time>
      </trkpt>
      <trkpt lat="45.20105" lon="5.99284">
        <ele>2166</ele>
        <time>2013-04-13T09:58:57Z</time>
      </trkpt>
      <trkpt lat="45.20104" lon="5.99285">
        <ele>2166</ele>
        <time>2013-04-13T09:59:00Z</time>
      </trkpt>
      <trkpt lat="45.20104" lon="5.99285">
        <ele>2166</ele>
        <time>2013-04-13T09:59:03Z</time>
      </trkpt>
      <trkpt lat="45.20105" lon="5.99284">
        <ele>2166</ele>
        <time>2013-04-13T09:59:06Z</time>
      </trkpt>
      <trkpt lat="45.20104" lon="5.99278">
        <ele>2166</ele>
        <time>2013-04-13T09:59:09Z</time>
      </trkpt>
      <trkpt lat="45.20106" lon="5.99276">
        <ele>2165</ele>
        <time>2013-04-13T09:59:12Z</time>
      </trkpt>
      <trkpt lat="45.20106" lon="5.99273">
        <ele>2163.1999512</ele>
        <time>2013-04-13T09:59:15Z</time>
      </trkpt>
      <trkpt lat="45.20103" lon="5.99268">
        <ele>2161.1999512</ele>
        <time>2013-04-13T09:59:18Z</time>
      </trkpt>
      <trkpt lat="45.20103" lon="5.99267">
        <ele>2158.1999512</ele>
        <time>2013-04-13T09:59:21Z</time>
      </trkpt>
      <trkpt lat="45.20104" lon="5.99265">
        <ele>2155.6000977</ele>
        <time>2013-04-13T09:59:24Z</time>
      </trkpt>
      <trkpt lat="45.20099" lon="5.99256">
        <ele>2154</ele>
        <time>2013-04-13T09:59:27Z</time>
      </trkpt>
      <trkpt lat="45.20099" lon="5.99256">
        <ele>2152</ele>
        <time>2013-04-13T09:59:30Z</time>
      </trkpt>
      <trkpt lat="45.20099" lon="5.99255">
        <ele>2149.6000977</ele>
        <time>2013-04-13T09:59:33Z</time>
      </trkpt>
      <trkpt lat="45.20099" lon="5.99256">
        <ele>2148</ele>
        <time>2013-04-13T09:59:36Z</time>
      </trkpt>
      <trkpt lat="45.20099" lon="5.99255">
        <ele>2146.1999512</ele>
        <time>2013-04-13T09:59:39Z</time>
      </trkpt>
      <trkpt lat="45.201" lon="5.99244">
        <ele>2145.6000977</ele>
        <time>2013-04-13T09:59:42Z</time>
      </trkpt>
      <trkpt lat="45.20091" lon="5.99224">
        <ele>2144.8000488</ele>
        <time>2013-04-13T09:59:45Z</time>
      </trkpt>
      <trkpt lat="45.20089" lon="5.99215">
        <ele>2139.6000977</ele>
        <time>2013-04-13T09:59:48Z</time>
      </trkpt>
      <trkpt lat="45.20092" lon="5.99214">
        <ele>2133.8000488</ele>
        <time>2013-04-13T09:59:51Z</time>
      </trkpt>
      <trkpt lat="45.20093" lon="5.99214">
        <ele>2127</ele>
        <time>2013-04-13T09:59:54Z</time>
      </trkpt>
      <trkpt lat="45.20093" lon="5.99214">
        <ele>2126</ele>
        <time>2013-04-13T09:59:57Z</time>
      </trkpt>
      <trkpt lat="45.20093" lon="5.99214">
        <ele>2125</ele>
        <time>2013-04-13T10:00:00Z</time>
      </trkpt>
      <trkpt lat="45.20093" lon="5.99215">
        <ele>2125</ele>
        <time>2013-04-13T10:00:03Z</time>
      </trkpt>
      <trkpt lat="45.20094" lon="5.99216">
        <ele>2124</ele>
        <time>2013-04-13T10:00:06Z</time>
      </trkpt>
      <trkpt lat="45.20093" lon="5.99215">
        <ele>2123</ele>
        <time>2013-04-13T10:00:09Z</time>
      </trkpt>
      <trkpt lat="45.20094" lon="5.99216">
        <ele>2123</ele>
        <time>2013-04-13T10:00:12Z</time>
      </trkpt>
      <trkpt lat="45.20094" lon="5.99216">
        <ele>2123</ele>
        <time>2013-04-13T10:00:15Z</time>
      </trkpt>
      <trkpt lat="45.20094" lon="5.99216">
        <ele>2123</ele>
        <time>2013-04-13T10:00:18Z</time>
      </trkpt>
      <trkpt lat="45.20094" lon="5.99216">
        <ele>2122.6000977</ele>
        <time>2013-04-13T10:00:21Z</time>
      </trkpt>
      <trkpt lat="45.20094" lon="5.99217">
        <ele>2121.1999512</ele>
        <time>2013-04-13T10:00:24Z</time>
      </trkpt>
      <trkpt lat="45.20094" lon="5.99217">
        <ele>2121</ele>
        <time>2013-04-13T10:00:27Z</time>
      </trkpt>
      <trkpt lat="45.20094" lon="5.99217">
        <ele>2121</ele>
        <time>2013-04-13T10:00:30Z</time>
      </trkpt>
      <trkpt lat="45.20097" lon="5.99219">
        <ele>2121</ele>
        <time>2013-04-13T10:00:33Z</time>
      </trkpt>
      <trkpt lat="45.20105" lon="5.99223">
        <ele>2120.6000977</ele>
        <time>2013-04-13T10:00:36Z</time>
      </trkpt>
      <trkpt lat="45.20106" lon="5.99223">
        <ele>2117.8000488</ele>
        <time>2013-04-13T10:00:39Z</time>
      </trkpt>
      <trkpt lat="45.20107" lon="5.99224">
        <ele>2117.8000488</ele>
        <time>2013-04-13T10:00:42Z</time>
      </trkpt>
      <trkpt lat="45.20107" lon="5.99224">
        <ele>2117.8000488</ele>
        <time>2013-04-13T10:00:45Z</time>
      </trkpt>
      <trkpt lat="45.20107" lon="5.99224">
        <ele>2117.8000488</ele>
        <time>2013-04-13T10:00:48Z</time>
      </trkpt>
      <trkpt lat="45.20107" lon="5.99224">
        <ele>2117.8000488</ele>
        <time>2013-04-13T10:00:51Z</time>
      </trkpt>
      <trkpt lat="45.20107" lon="5.99224">
        <ele>2117.8000488</ele>
        <time>2013-04-13T10:00:54Z</time>
      </trkpt>
      <trkpt lat="45.20107" lon="5.99224">
        <ele>2117.8000488</ele>
        <time>2013-04-13T10:00:57Z</time>
      </trkpt>
      <trkpt lat="45.20107" lon="5.99224">
        <ele>2117.8000488</ele>
        <time>2013-04-13T10:01:00Z</time>
      </trkpt>
      <trkpt lat="45.20107" lon="5.99224">
        <ele>2117.8000488</ele>
        <time>2013-04-13T10:01:03Z</time>
      </trkpt>
      <trkpt lat="45.20107" lon="5.99224">
        <ele>2117.8000488</ele>
        <time>2013-04-13T10:01:06Z</time>
      </trkpt>
      <trkpt lat="45.20107" lon="5.99224">
        <ele>2117.8000488</ele>
        <time>2013-04-13T10:01:09Z</time>
      </trkpt>
      <trkpt lat="45.20107" lon="5.99224">
        <ele>2117.8000488</ele>
        <time>2013-04-13T10:01:12Z</time>
      </trkpt>
      <trkpt lat="45.20107" lon="5.99225">
        <ele>2117.8000488</ele>
        <time>2013-04-13T10:01:15Z</time>
      </trkpt>
      <trkpt lat="45.20107" lon="5.99225">
        <ele>2117.8000488</ele>
        <time>2013-04-13T10:01:18Z</time>
      </trkpt>
      <trkpt lat="45.20107" lon="5.99225">
        <ele>2117.8000488</ele>
        <time>2013-04-13T10:01:21Z</time>
      </trkpt>
      <trkpt lat="45.20107" lon="5.99225">
        <ele>2117.8000488</ele>
        <time>2013-04-13T10:01:24Z</time>
      </trkpt>
      <trkpt lat="45.20107" lon="5.99225">
        <ele>2117.8000488</ele>
        <time>2013-04-13T10:01:27Z</time>
      </trkpt>
      <trkpt lat="45.20107" lon="5.99225">
        <ele>2117.8000488</ele>
        <time>2013-04-13T10:01:30Z</time>
      </trkpt>
      <trkpt lat="45.20108" lon="5.99226">
        <ele>2117.8000488</ele>
        <time>2013-04-13T10:01:33Z</time>
      </trkpt>
      <trkpt lat="45.20107" lon="5.99226">
        <ele>2117.8000488</ele>
        <time>2013-04-13T10:01:36Z</time>
      </trkpt>
      <trkpt lat="45.20108" lon="5.99226">
        <ele>2117.8000488</ele>
        <time>2013-04-13T10:01:39Z</time>
      </trkpt>
      <trkpt lat="45.20108" lon="5.99226">
        <ele>2117.8000488</ele>
        <time>2013-04-13T10:01:42Z</time>
      </trkpt>
      <trkpt lat="45.20108" lon="5.99226">
        <ele>2117.8000488</ele>
        <time>2013-04-13T10:01:45Z</time>
      </trkpt>
      <trkpt lat="45.20107" lon="5.99225">
        <ele>2117.8000488</ele>
        <time>2013-04-13T10:01:50Z</time>
      </trkpt>
      <trkpt lat="45.20107" lon="5.99225">
        <ele>2117.8000488</ele>
        <time>2013-04-13T10:01:53Z</time>
      </trkpt>
      <trkpt lat="45.20107" lon="5.99224">
        <ele>2117.8000488</ele>
        <time>2013-04-13T10:01:56Z</time>
      </trkpt>
      <trkpt lat="45.20107" lon="5.99225">
        <ele>2117.8000488</ele>
        <time>2013-04-13T10:01:59Z</time>
      </trkpt>
      <trkpt lat="45.20107" lon="5.99225">
        <ele>2117.8000488</ele>
        <time>2013-04-13T10:02:02Z</time>
      </trkpt>
      <trkpt lat="45.20107" lon="5.99226">
        <ele>2117</ele>
        <time>2013-04-13T10:02:05Z</time>
      </trkpt>
      <trkpt lat="45.20107" lon="5.99226">
        <ele>2116</ele>
        <time>2013-04-13T10:02:08Z</time>
      </trkpt>
      <trkpt lat="45.20107" lon="5.99226">
        <ele>2115.8000488</ele>
        <time>2013-04-13T10:02:11Z</time>
      </trkpt>
      <trkpt lat="45.20107" lon="5.99226">
        <ele>2115.8000488</ele>
        <time>2013-04-13T10:02:14Z</time>
      </trkpt>
      <trkpt lat="45.20107" lon="5.99226">
        <ele>2115.8000488</ele>
        <time>2013-04-13T10:02:17Z</time>
      </trkpt>
      <trkpt lat="45.20106" lon="5.99226">
        <ele>2115.8000488</ele>
        <time>2013-04-13T10:02:20Z</time>
      </trkpt>
      <trkpt lat="45.20106" lon="5.99226">
        <ele>2115.8000488</ele>
        <time>2013-04-13T10:02:23Z</time>
      </trkpt>
      <trkpt lat="45.20106" lon="5.99226">
        <ele>2115.8000488</ele>
        <time>2013-04-13T10:02:26Z</time>
      </trkpt>
      <trkpt lat="45.20106" lon="5.99226">
        <ele>2115.8000488</ele>
        <time>2013-04-13T10:02:29Z</time>
      </trkpt>
      <trkpt lat="45.20106" lon="5.99226">
        <ele>2115.8000488</ele>
        <time>2013-04-13T10:02:32Z</time>
      </trkpt>
      <trkpt lat="45.20107" lon="5.99226">
        <ele>2115.8000488</ele>
        <time>2013-04-13T10:02:35Z</time>
      </trkpt>
      <trkpt lat="45.20107" lon="5.99225">
        <ele>2115.8000488</ele>
        <time>2013-04-13T10:02:38Z</time>
      </trkpt>
      <trkpt lat="45.20107" lon="5.99225">
        <ele>2115.8000488</ele>
        <time>2013-04-13T10:02:41Z</time>
      </trkpt>
      <trkpt lat="45.20106" lon="5.99227">
        <ele>2115.8000488</ele>
        <time>2013-04-13T10:02:44Z</time>
      </trkpt>
      <trkpt lat="45.20106" lon="5.99226">
        <ele>2115.8000488</ele>
        <time>2013-04-13T10:02:47Z</time>
      </trkpt>
      <trkpt lat="45.20106" lon="5.99226">
        <ele>2115.8000488</ele>
        <time>2013-04-13T10:02:50Z</time>
      </trkpt>
      <trkpt lat="45.20105" lon="5.99227">
        <ele>2115.8000488</ele>
        <time>2013-04-13T10:02:53Z</time>
      </trkpt>
      <trkpt lat="45.20105" lon="5.99228">
        <ele>2115.8000488</ele>
        <time>2013-04-13T10:02:56Z</time>
      </trkpt>
      <trkpt lat="45.20105" lon="5.9923">
        <ele>2115.8000488</ele>
        <time>2013-04-13T10:02:59Z</time>
      </trkpt>
      <trkpt lat="45.20105" lon="5.9923">
        <ele>2115.8000488</ele>
        <time>2013-04-13T10:03:02Z</time>
      </trkpt>
      <trkpt lat="45.20105" lon="5.99229">
        <ele>2117</ele>
        <time>2013-04-13T10:03:05Z</time>
      </trkpt>
      <trkpt lat="45.20104" lon="5.99232">
        <ele>2117.8000488</ele>
        <time>2013-04-13T10:03:08Z</time>
      </trkpt>
      <trkpt lat="45.20104" lon="5.99232">
        <ele>2117.8000488</ele>
        <time>2013-04-13T10:03:11Z</time>
      </trkpt>
      <trkpt lat="45.20104" lon="5.99232">
        <ele>2117.8000488</ele>
        <time>2013-04-13T10:03:14Z</time>
      </trkpt>
      <trkpt lat="45.20104" lon="5.99233">
        <ele>2117.8000488</ele>
        <time>2013-04-13T10:03:17Z</time>
      </trkpt>
      <trkpt lat="45.20103" lon="5.99235">
        <ele>2117.8000488</ele>
        <time>2013-04-13T10:03:20Z</time>
      </trkpt>
      <trkpt lat="45.20102" lon="5.99236">
        <ele>2117.8000488</ele>
        <time>2013-04-13T10:03:23Z</time>
      </trkpt>
      <trkpt lat="45.20102" lon="5.99238">
        <ele>2118.1999512</ele>
        <time>2013-04-13T10:03:26Z</time>
      </trkpt>
      <trkpt lat="45.20102" lon="5.99238">
        <ele>2119.6000977</ele>
        <time>2013-04-13T10:03:29Z</time>
      </trkpt>
      <trkpt lat="45.20102" lon="5.99238">
        <ele>2120</ele>
        <time>2013-04-13T10:03:32Z</time>
      </trkpt>
      <trkpt lat="45.20102" lon="5.99238">
        <ele>2120</ele>
        <time>2013-04-13T10:03:35Z</time>
      </trkpt>
      <trkpt lat="45.20102" lon="5.99239">
        <ele>2120</ele>
        <time>2013-04-13T10:03:38Z</time>
      </trkpt>
      <trkpt lat="45.20102" lon="5.99239">
        <ele>2120</ele>
        <time>2013-04-13T10:03:41Z</time>
      </trkpt>
      <trkpt lat="45.20101" lon="5.9924">
        <ele>2120</ele>
        <time>2013-04-13T10:03:44Z</time>
      </trkpt>
      <trkpt lat="45.20101" lon="5.99241">
        <ele>2120</ele>
        <time>2013-04-13T10:03:47Z</time>
      </trkpt>
      <trkpt lat="45.20101" lon="5.99241">
        <ele>2120.8000488</ele>
        <time>2013-04-13T10:03:50Z</time>
      </trkpt>
      <trkpt lat="45.20101" lon="5.99242">
        <ele>2121.8000488</ele>
        <time>2013-04-13T10:03:53Z</time>
      </trkpt>
      <trkpt lat="45.20101" lon="5.99242">
        <ele>2122</ele>
        <time>2013-04-13T10:03:56Z</time>
      </trkpt>
      <trkpt lat="45.20102" lon="5.99242">
        <ele>2122</ele>
        <time>2013-04-13T10:03:59Z</time>
      </trkpt>
      <trkpt lat="45.20101" lon="5.99243">
        <ele>2122</ele>
        <time>2013-04-13T10:04:02Z</time>
      </trkpt>
      <trkpt lat="45.20101" lon="5.99244">
        <ele>2122.6000977</ele>
        <time>2013-04-13T10:04:05Z</time>
      </trkpt>
      <trkpt lat="45.20101" lon="5.99245">
        <ele>2123.6000977</ele>
        <time>2013-04-13T10:04:08Z</time>
      </trkpt>
      <trkpt lat="45.20101" lon="5.99245">
        <ele>2124</ele>
        <time>2013-04-13T10:04:11Z</time>
      </trkpt>
      <trkpt lat="45.20101" lon="5.99245">
        <ele>2124</ele>
        <time>2013-04-13T10:04:14Z</time>
      </trkpt>
      <trkpt lat="45.20101" lon="5.99245">
        <ele>2124</ele>
        <time>2013-04-13T10:04:17Z</time>
      </trkpt>
      <trkpt lat="45.201" lon="5.99246">
        <ele>2124</ele>
        <time>2013-04-13T10:04:20Z</time>
      </trkpt>
      <trkpt lat="45.201" lon="5.99246">
        <ele>2124</ele>
        <time>2013-04-13T10:04:23Z</time>
      </trkpt>
      <trkpt lat="45.201" lon="5.99247">
        <ele>2124</ele>
        <time>2013-04-13T10:04:26Z</time>
      </trkpt>
      <trkpt lat="45.20099" lon="5.99248">
        <ele>2124</ele>
        <time>2013-04-13T10:04:29Z</time>
      </trkpt>
      <trkpt lat="45.20099" lon="5.99249">
        <ele>2124</ele>
        <time>2013-04-13T10:04:32Z</time>
      </trkpt>
      <trkpt lat="45.20098" lon="5.99251">
        <ele>2125</ele>
        <time>2013-04-13T10:04:35Z</time>
      </trkpt>
      <trkpt lat="45.20098" lon="5.99251">
        <ele>2126</ele>
        <time>2013-04-13T10:04:38Z</time>
      </trkpt>
      <trkpt lat="45.20098" lon="5.99252">
        <ele>2126</ele>
        <time>2013-04-13T10:04:41Z</time>
      </trkpt>
      <trkpt lat="45.20099" lon="5.99253">
        <ele>2126</ele>
        <time>2013-04-13T10:04:44Z</time>
      </trkpt>
      <trkpt lat="45.201" lon="5.99253">
        <ele>2127</ele>
        <time>2013-04-13T10:04:47Z</time>
      </trkpt>
      <trkpt lat="45.201" lon="5.99253">
        <ele>2127.8000488</ele>
        <time>2013-04-13T10:04:50Z</time>
      </trkpt>
      <trkpt lat="45.201" lon="5.99253">
        <ele>2128</ele>
        <time>2013-04-13T10:04:53Z</time>
      </trkpt>
      <trkpt lat="45.20101" lon="5.99253">
        <ele>2128</ele>
        <time>2013-04-13T10:04:56Z</time>
      </trkpt>
      <trkpt lat="45.20101" lon="5.99253">
        <ele>2128</ele>
        <time>2013-04-13T10:04:59Z</time>
      </trkpt>
      <trkpt lat="45.20101" lon="5.99254">
        <ele>2128</ele>
        <time>2013-04-13T10:05:02Z</time>
      </trkpt>
      <trkpt lat="45.20101" lon="5.99256">
        <ele>2128</ele>
        <time>2013-04-13T10:05:05Z</time>
      </trkpt>
      <trkpt lat="45.20102" lon="5.99255">
        <ele>2128</ele>
        <time>2013-04-13T10:05:08Z</time>
      </trkpt>
      <trkpt lat="45.20102" lon="5.99256">
        <ele>2128</ele>
        <time>2013-04-13T10:05:11Z</time>
      </trkpt>
      <trkpt lat="45.20103" lon="5.99257">
        <ele>2128.8000488</ele>
        <time>2013-04-13T10:05:14Z</time>
      </trkpt>
      <trkpt lat="45.20103" lon="5.99258">
        <ele>2129.8000488</ele>
        <time>2013-04-13T10:05:17Z</time>
      </trkpt>
      <trkpt lat="45.20102" lon="5.99258">
        <ele>2130</ele>
        <time>2013-04-13T10:05:20Z</time>
      </trkpt>
      <trkpt lat="45.20102" lon="5.99258">
        <ele>2130</ele>
        <time>2013-04-13T10:05:23Z</time>
      </trkpt>
      <trkpt lat="45.20101" lon="5.99258">
        <ele>2130</ele>
        <time>2013-04-13T10:05:26Z</time>
      </trkpt>
      <trkpt lat="45.20101" lon="5.99258">
        <ele>2130</ele>
        <time>2013-04-13T10:05:29Z</time>
      </trkpt>
      <trkpt lat="45.20101" lon="5.99259">
        <ele>2130</ele>
        <time>2013-04-13T10:05:32Z</time>
      </trkpt>
      <trkpt lat="45.20101" lon="5.99258">
        <ele>2130</ele>
        <time>2013-04-13T10:05:35Z</time>
      </trkpt>
      <trkpt lat="45.20101" lon="5.99259">
        <ele>2130</ele>
        <time>2013-04-13T10:05:38Z</time>
      </trkpt>
      <trkpt lat="45.20102" lon="5.99259">
        <ele>2130</ele>
        <time>2013-04-13T10:05:41Z</time>
      </trkpt>
      <trkpt lat="45.20101" lon="5.99261">
        <ele>2131</ele>
        <time>2013-04-13T10:05:44Z</time>
      </trkpt>
      <trkpt lat="45.20101" lon="5.99262">
        <ele>2132</ele>
        <time>2013-04-13T10:05:47Z</time>
      </trkpt>
      <trkpt lat="45.20101" lon="5.99265">
        <ele>2132.1999512</ele>
        <time>2013-04-13T10:05:50Z</time>
      </trkpt>
      <trkpt lat="45.201" lon="5.99264">
        <ele>2132.8000488</ele>
        <time>2013-04-13T10:05:53Z</time>
      </trkpt>
      <trkpt lat="45.20101" lon="5.99264">
        <ele>2134</ele>
        <time>2013-04-13T10:05:56Z</time>
      </trkpt>
      <trkpt lat="45.20101" lon="5.99264">
        <ele>2134.1999512</ele>
        <time>2013-04-13T10:05:59Z</time>
      </trkpt>
      <trkpt lat="45.20102" lon="5.99265">
        <ele>2134.1999512</ele>
        <time>2013-04-13T10:06:02Z</time>
      </trkpt>
      <trkpt lat="45.20102" lon="5.99264">
        <ele>2134.1999512</ele>
        <time>2013-04-13T10:06:05Z</time>
      </trkpt>
      <trkpt lat="45.20102" lon="5.99264">
        <ele>2134.1999512</ele>
        <time>2013-04-13T10:06:08Z</time>
      </trkpt>
      <trkpt lat="45.20101" lon="5.99264">
        <ele>2134.1999512</ele>
        <time>2013-04-13T10:06:11Z</time>
      </trkpt>
      <trkpt lat="45.20102" lon="5.99265">
        <ele>2134.1999512</ele>
        <time>2013-04-13T10:06:14Z</time>
      </trkpt>
      <trkpt lat="45.20101" lon="5.99266">
        <ele>2134.1999512</ele>
        <time>2013-04-13T10:06:17Z</time>
      </trkpt>
      <trkpt lat="45.20101" lon="5.99267">
        <ele>2134.1999512</ele>
        <time>2013-04-13T10:06:20Z</time>
      </trkpt>
      <trkpt lat="45.20101" lon="5.99266">
        <ele>2135.1999512</ele>
        <time>2013-04-13T10:06:23Z</time>
      </trkpt>
      <trkpt lat="45.20101" lon="5.99266">
        <ele>2136.6000977</ele>
        <time>2013-04-13T10:06:26Z</time>
      </trkpt>
      <trkpt lat="45.20101" lon="5.99267">
        <ele>2136.6000977</ele>
        <time>2013-04-13T10:06:29Z</time>
      </trkpt>
      <trkpt lat="45.20101" lon="5.99267">
        <ele>2136.6000977</ele>
        <time>2013-04-13T10:06:32Z</time>
      </trkpt>
      <trkpt lat="45.20101" lon="5.99266">
        <ele>2136.6000977</ele>
        <time>2013-04-13T10:06:35Z</time>
      </trkpt>
      <trkpt lat="45.20101" lon="5.99267">
        <ele>2136.6000977</ele>
        <time>2013-04-13T10:06:38Z</time>
      </trkpt>
      <trkpt lat="45.20101" lon="5.99268">
        <ele>2136.6000977</ele>
        <time>2013-04-13T10:06:41Z</time>
      </trkpt>
      <trkpt lat="45.20101" lon="5.99268">
        <ele>2136.6000977</ele>
        <time>2013-04-13T10:06:44Z</time>
      </trkpt>
      <trkpt lat="45.20101" lon="5.99269">
        <ele>2136.6000977</ele>
        <time>2013-04-13T10:06:47Z</time>
      </trkpt>
      <trkpt lat="45.20101" lon="5.99271">
        <ele>2137.6000977</ele>
        <time>2013-04-13T10:06:50Z</time>
      </trkpt>
      <trkpt lat="45.20101" lon="5.99271">
        <ele>2138.6000977</ele>
        <time>2013-04-13T10:06:53Z</time>
      </trkpt>
      <trkpt lat="45.20101" lon="5.99271">
        <ele>2139</ele>
        <time>2013-04-13T10:06:56Z</time>
      </trkpt>
      <trkpt lat="45.20099" lon="5.99271">
        <ele>2140</ele>
        <time>2013-04-13T10:06:59Z</time>
      </trkpt>
      <trkpt lat="45.20099" lon="5.9927">
        <ele>2140.6000977</ele>
        <time>2013-04-13T10:07:02Z</time>
      </trkpt>
      <trkpt lat="45.20099" lon="5.9927">
        <ele>2140.6000977</ele>
        <time>2013-04-13T10:07:05Z</time>
      </trkpt>
      <trkpt lat="45.20099" lon="5.9927">
        <ele>2140.6000977</ele>
        <time>2013-04-13T10:07:08Z</time>
      </trkpt>
      <trkpt lat="45.201" lon="5.99268">
        <ele>2140.6000977</ele>
        <time>2013-04-13T10:07:11Z</time>
      </trkpt>
      <trkpt lat="45.201" lon="5.9927">
        <ele>2140.6000977</ele>
        <time>2013-04-13T10:07:14Z</time>
      </trkpt>
      <trkpt lat="45.20101" lon="5.9927">
        <ele>2140.6000977</ele>
        <time>2013-04-13T10:07:17Z</time>
      </trkpt>
      <trkpt lat="45.20101" lon="5.9927">
        <ele>2140.6000977</ele>
        <time>2013-04-13T10:07:20Z</time>
      </trkpt>
      <trkpt lat="45.20101" lon="5.99271">
        <ele>2140.6000977</ele>
        <time>2013-04-13T10:07:23Z</time>
      </trkpt>
      <trkpt lat="45.20102" lon="5.99273">
        <ele>2140.6000977</ele>
        <time>2013-04-13T10:07:26Z</time>
      </trkpt>
      <trkpt lat="45.20101" lon="5.99273">
        <ele>2141</ele>
        <time>2013-04-13T10:07:29Z</time>
      </trkpt>
      <trkpt lat="45.20102" lon="5.99273">
        <ele>2142.1999512</ele>
        <time>2013-04-13T10:07:32Z</time>
      </trkpt>
      <trkpt lat="45.20102" lon="5.99273">
        <ele>2142.6000977</ele>
        <time>2013-04-13T10:07:35Z</time>
      </trkpt>
      <trkpt lat="45.20102" lon="5.99274">
        <ele>2142.6000977</ele>
        <time>2013-04-13T10:07:38Z</time>
      </trkpt>
      <trkpt lat="45.20101" lon="5.99274">
        <ele>2142.6000977</ele>
        <time>2013-04-13T10:07:41Z</time>
      </trkpt>
      <trkpt lat="45.20101" lon="5.99273">
        <ele>2142.6000977</ele>
        <time>2013-04-13T10:07:44Z</time>
      </trkpt>
      <trkpt lat="45.20101" lon="5.99273">
        <ele>2142.6000977</ele>
        <time>2013-04-13T10:07:47Z</time>
      </trkpt>
      <trkpt lat="45.201" lon="5.99274">
        <ele>2142.6000977</ele>
        <time>2013-04-13T10:07:50Z</time>
      </trkpt>
      <trkpt lat="45.201" lon="5.99274">
        <ele>2142.6000977</ele>
        <time>2013-04-13T10:07:53Z</time>
      </trkpt>
      <trkpt lat="45.201" lon="5.99275">
        <ele>2142.6000977</ele>
        <time>2013-04-13T10:07:56Z</time>
      </trkpt>
      <trkpt lat="45.201" lon="5.99275">
        <ele>2142.6000977</ele>
        <time>2013-04-13T10:07:59Z</time>
      </trkpt>
      <trkpt lat="45.20101" lon="5.99276">
        <ele>2142.6000977</ele>
        <time>2013-04-13T10:08:02Z</time>
      </trkpt>
      <trkpt lat="45.201" lon="5.99277">
        <ele>2142.8000488</ele>
        <time>2013-04-13T10:08:05Z</time>
      </trkpt>
      <trkpt lat="45.201" lon="5.99278">
        <ele>2143.6000977</ele>
        <time>2013-04-13T10:08:08Z</time>
      </trkpt>
      <trkpt lat="45.201" lon="5.9928">
        <ele>2144.1999512</ele>
        <time>2013-04-13T10:08:11Z</time>
      </trkpt>
      <trkpt lat="45.201" lon="5.99279">
        <ele>2145.8000488</ele>
        <time>2013-04-13T10:08:16Z</time>
      </trkpt>
      <trkpt lat="45.201" lon="5.99279">
        <ele>2146.6000977</ele>
        <time>2013-04-13T10:08:19Z</time>
      </trkpt>
      <trkpt lat="45.201" lon="5.99279">
        <ele>2146.8000488</ele>
        <time>2013-04-13T10:08:22Z</time>
      </trkpt>
      <trkpt lat="45.201" lon="5.99279">
        <ele>2146.8000488</ele>
        <time>2013-04-13T10:08:25Z</time>
      </trkpt>
      <trkpt lat="45.201" lon="5.9928">
        <ele>2146.8000488</ele>
        <time>2013-04-13T10:08:28Z</time>
      </trkpt>
      <trkpt lat="45.201" lon="5.9928">
        <ele>2146.8000488</ele>
        <time>2013-04-13T10:08:31Z</time>
      </trkpt>
      <trkpt lat="45.201" lon="5.99281">
        <ele>2147</ele>
        <time>2013-04-13T10:08:34Z</time>
      </trkpt>
      <trkpt lat="45.201" lon="5.9928">
        <ele>2148.6000977</ele>
        <time>2013-04-13T10:08:37Z</time>
      </trkpt>
      <trkpt lat="45.201" lon="5.99279">
        <ele>2150</ele>
        <time>2013-04-13T10:08:40Z</time>
      </trkpt>
      <trkpt lat="45.201" lon="5.99282">
        <ele>2150.8000488</ele>
        <time>2013-04-13T10:08:43Z</time>
      </trkpt>
      <trkpt lat="45.201" lon="5.9928">
        <ele>2150.8000488</ele>
        <time>2013-04-13T10:08:46Z</time>
      </trkpt>
      <trkpt lat="45.201" lon="5.99279">
        <ele>2150.8000488</ele>
        <time>2013-04-13T10:08:49Z</time>
      </trkpt>
      <trkpt lat="45.20099" lon="5.9928">
        <ele>2150.8000488</ele>
        <time>2013-04-13T10:08:52Z</time>
      </trkpt>
      <trkpt lat="45.201" lon="5.9928">
        <ele>2150.8000488</ele>
        <time>2013-04-13T10:08:55Z</time>
      </trkpt>
      <trkpt lat="45.20099" lon="5.99279">
        <ele>2150.8000488</ele>
        <time>2013-04-13T10:08:58Z</time>
      </trkpt>
      <trkpt lat="45.201" lon="5.9928">
        <ele>2150.8000488</ele>
        <time>2013-04-13T10:09:01Z</time>
      </trkpt>
      <trkpt lat="45.201" lon="5.99282">
        <ele>2150.8000488</ele>
        <time>2013-04-13T10:09:04Z</time>
      </trkpt>
      <trkpt lat="45.201" lon="5.99283">
        <ele>2150.8000488</ele>
        <time>2013-04-13T10:09:07Z</time>
      </trkpt>
      <trkpt lat="45.201" lon="5.99283">
        <ele>2150.8000488</ele>
        <time>2013-04-13T10:09:10Z</time>
      </trkpt>
      <trkpt lat="45.20101" lon="5.99284">
        <ele>2150.8000488</ele>
        <time>2013-04-13T10:09:13Z</time>
      </trkpt>
      <trkpt lat="45.20101" lon="5.99285">
        <ele>2150.8000488</ele>
        <time>2013-04-13T10:09:16Z</time>
      </trkpt>
      <trkpt lat="45.20102" lon="5.99287">
        <ele>2151.1999512</ele>
        <time>2013-04-13T10:09:19Z</time>
      </trkpt>
      <trkpt lat="45.20102" lon="5.99291">
        <ele>2152</ele>
        <time>2013-04-13T10:09:22Z</time>
      </trkpt>
      <trkpt lat="45.20102" lon="5.99288">
        <ele>2152.8000488</ele>
        <time>2013-04-13T10:09:25Z</time>
      </trkpt>
      <trkpt lat="45.20102" lon="5.99289">
        <ele>2153</ele>
        <time>2013-04-13T10:09:28Z</time>
      </trkpt>
      <trkpt lat="45.20102" lon="5.99289">
        <ele>2153</ele>
        <time>2013-04-13T10:09:31Z</time>
      </trkpt>
      <trkpt lat="45.20102" lon="5.99289">
        <ele>2153</ele>
        <time>2013-04-13T10:09:34Z</time>
      </trkpt>
      <trkpt lat="45.20102" lon="5.9929">
        <ele>2153</ele>
        <time>2013-04-13T10:09:37Z</time>
      </trkpt>
      <trkpt lat="45.20102" lon="5.99291">
        <ele>2153</ele>
        <time>2013-04-13T10:09:40Z</time>
      </trkpt>
      <trkpt lat="45.20102" lon="5.99292">
        <ele>2154</ele>
        <time>2013-04-13T10:09:43Z</time>
      </trkpt>
      <trkpt lat="45.20102" lon="5.9929">
        <ele>2155</ele>
        <time>2013-04-13T10:09:46Z</time>
      </trkpt>
      <trkpt lat="45.20102" lon="5.99293">
        <ele>2155</ele>
        <time>2013-04-13T10:09:49Z</time>
      </trkpt>
      <trkpt lat="45.20102" lon="5.99292">
        <ele>2155</ele>
        <time>2013-04-13T10:09:52Z</time>
      </trkpt>
      <trkpt lat="45.201" lon="5.99293">
        <ele>2156</ele>
        <time>2013-04-13T10:09:55Z</time>
      </trkpt>
      <trkpt lat="45.201" lon="5.99293">
        <ele>2157</ele>
        <time>2013-04-13T10:09:58Z</time>
      </trkpt>
      <trkpt lat="45.201" lon="5.99294">
        <ele>2157</ele>
        <time>2013-04-13T10:10:01Z</time>
      </trkpt>
      <trkpt lat="45.201" lon="5.99294">
        <ele>2157</ele>
        <time>2013-04-13T10:10:04Z</time>
      </trkpt>
      <trkpt lat="45.201" lon="5.99295">
        <ele>2158</ele>
        <time>2013-04-13T10:10:07Z</time>
      </trkpt>
      <trkpt lat="45.201" lon="5.99295">
        <ele>2158</ele>
        <time>2013-04-13T10:10:10Z</time>
      </trkpt>
      <trkpt lat="45.201" lon="5.99294">
        <ele>2158</ele>
        <time>2013-04-13T10:10:13Z</time>
      </trkpt>
      <trkpt lat="45.201" lon="5.99294">
        <ele>2158.8000488</ele>
        <time>2013-04-13T10:10:16Z</time>
      </trkpt>
      <trkpt lat="45.201" lon="5.99295">
        <ele>2160</ele>
        <time>2013-04-13T10:10:19Z</time>
      </trkpt>
      <trkpt lat="45.201" lon="5.99295">
        <ele>2160</ele>
        <time>2013-04-13T10:10:22Z</time>
      </trkpt>
      <trkpt lat="45.20101" lon="5.99297">
        <ele>2160</ele>
        <time>2013-04-13T10:10:25Z</time>
      </trkpt>
      <trkpt lat="45.20101" lon="5.99297">
        <ele>2160</ele>
        <time>2013-04-13T10:10:28Z</time>
      </trkpt>
      <trkpt lat="45.20101" lon="5.99297">
        <ele>2160</ele>
        <time>2013-04-13T10:10:31Z</time>
      </trkpt>
      <trkpt lat="45.20102" lon="5.99297">
        <ele>2160</ele>
        <time>2013-04-13T10:10:34Z</time>
      </trkpt>
      <trkpt lat="45.20101" lon="5.99299">
        <ele>2160</ele>
        <time>2013-04-13T10:10:37Z</time>
      </trkpt>
      <trkpt lat="45.20102" lon="5.993">
        <ele>2160</ele>
        <time>2013-04-13T10:10:40Z</time>
      </trkpt>
      <trkpt lat="45.20102" lon="5.99301">
        <ele>2160</ele>
        <time>2013-04-13T10:10:43Z</time>
      </trkpt>
      <trkpt lat="45.20098" lon="5.99301">
        <ele>2160</ele>
        <time>2013-04-13T10:10:46Z</time>
      </trkpt>
      <trkpt lat="45.20098" lon="5.993">
        <ele>2160</ele>
        <time>2013-04-13T10:10:49Z</time>
      </trkpt>
      <trkpt lat="45.20098" lon="5.993">
        <ele>2160</ele>
        <time>2013-04-13T10:10:52Z</time>
      </trkpt>
      <trkpt lat="45.20098" lon="5.993">
        <ele>2161.8000488</ele>
        <time>2013-04-13T10:10:55Z</time>
      </trkpt>
      <trkpt lat="45.20099" lon="5.99299">
        <ele>2161.8000488</ele>
        <time>2013-04-13T10:10:58Z</time>
      </trkpt>
      <trkpt lat="45.20099" lon="5.99299">
        <ele>2161.8000488</ele>
        <time>2013-04-13T10:11:01Z</time>
      </trkpt>
      <trkpt lat="45.20099" lon="5.99301">
        <ele>2161.8000488</ele>
        <time>2013-04-13T10:11:04Z</time>
      </trkpt>
      <trkpt lat="45.201" lon="5.99303">
        <ele>2161.8000488</ele>
        <time>2013-04-13T10:11:07Z</time>
      </trkpt>
      <trkpt lat="45.201" lon="5.99303">
        <ele>2161.8000488</ele>
        <time>2013-04-13T10:11:10Z</time>
      </trkpt>
      <trkpt lat="45.201" lon="5.99303">
        <ele>2161.8000488</ele>
        <time>2013-04-13T10:11:13Z</time>
      </trkpt>
      <trkpt lat="45.20101" lon="5.99304">
        <ele>2161.8000488</ele>
        <time>2013-04-13T10:11:16Z</time>
      </trkpt>
      <trkpt lat="45.201" lon="5.99305">
        <ele>2161.8000488</ele>
        <time>2013-04-13T10:11:19Z</time>
      </trkpt>
      <trkpt lat="45.20101" lon="5.99306">
        <ele>2161.8000488</ele>
        <time>2013-04-13T10:11:22Z</time>
      </trkpt>
      <trkpt lat="45.20101" lon="5.99306">
        <ele>2161.8000488</ele>
        <time>2013-04-13T10:11:25Z</time>
      </trkpt>
      <trkpt lat="45.20101" lon="5.99306">
        <ele>2161.8000488</ele>
        <time>2013-04-13T10:11:28Z</time>
      </trkpt>
      <trkpt lat="45.20101" lon="5.99306">
        <ele>2161.8000488</ele>
        <time>2013-04-13T10:11:31Z</time>
      </trkpt>
      <trkpt lat="45.20101" lon="5.99308">
        <ele>2161.8000488</ele>
        <time>2013-04-13T10:11:34Z</time>
      </trkpt>
      <trkpt lat="45.20101" lon="5.99309">
        <ele>2161.8000488</ele>
        <time>2013-04-13T10:11:37Z</time>
      </trkpt>
      <trkpt lat="45.20101" lon="5.99309">
        <ele>2161.8000488</ele>
        <time>2013-04-13T10:11:40Z</time>
      </trkpt>
      <trkpt lat="45.20101" lon="5.9931">
        <ele>2161.8000488</ele>
        <time>2013-04-13T10:11:43Z</time>
      </trkpt>
      <trkpt lat="45.20101" lon="5.99312">
        <ele>2162.1999512</ele>
        <time>2013-04-13T10:11:46Z</time>
      </trkpt>
      <trkpt lat="45.20102" lon="5.99313">
        <ele>2164</ele>
        <time>2013-04-13T10:11:49Z</time>
      </trkpt>
      <trkpt lat="45.20102" lon="5.99314">
        <ele>2164.6000977</ele>
        <time>2013-04-13T10:11:52Z</time>
      </trkpt>
      <trkpt lat="45.20102" lon="5.99314">
        <ele>2166</ele>
        <time>2013-04-13T10:11:55Z</time>
      </trkpt>
      <trkpt lat="45.20102" lon="5.99315">
        <ele>2166.1999512</ele>
        <time>2013-04-13T10:11:58Z</time>
      </trkpt>
      <trkpt lat="45.20102" lon="5.99316">
        <ele>2167.1999512</ele>
        <time>2013-04-13T10:12:01Z</time>
      </trkpt>
      <trkpt lat="45.20102" lon="5.99316">
        <ele>2168</ele>
        <time>2013-04-13T10:12:04Z</time>
      </trkpt>
      <trkpt lat="45.20102" lon="5.99315">
        <ele>2168.8000488</ele>
        <time>2013-04-13T10:12:07Z</time>
      </trkpt>
      <trkpt lat="45.20102" lon="5.99314">
        <ele>2169.6000977</ele>
        <time>2013-04-13T10:12:10Z</time>
      </trkpt>
      <trkpt lat="45.20102" lon="5.99315">
        <ele>2170.1999512</ele>
        <time>2013-04-13T10:12:13Z</time>
      </trkpt>
      <trkpt lat="45.20102" lon="5.99316">
        <ele>2170.1999512</ele>
        <time>2013-04-13T10:12:16Z</time>
      </trkpt>
      <trkpt lat="45.20103" lon="5.99318">
        <ele>2171</ele>
        <time>2013-04-13T10:12:19Z</time>
      </trkpt>
      <trkpt lat="45.20103" lon="5.99319">
        <ele>2172</ele>
        <time>2013-04-13T10:12:22Z</time>
      </trkpt>
      <trkpt lat="45.20103" lon="5.99319">
        <ele>2172.6000977</ele>
        <time>2013-04-13T10:12:25Z</time>
      </trkpt>
      <trkpt lat="45.20102" lon="5.9932">
        <ele>2173.1999512</ele>
        <time>2013-04-13T10:12:28Z</time>
      </trkpt>
      <trkpt lat="45.20102" lon="5.9932">
        <ele>2174.6000977</ele>
        <time>2013-04-13T10:12:31Z</time>
      </trkpt>
      <trkpt lat="45.20102" lon="5.9932">
        <ele>2175.8000488</ele>
        <time>2013-04-13T10:12:34Z</time>
      </trkpt>
      <trkpt lat="45.20102" lon="5.9932">
        <ele>2176.8000488</ele>
        <time>2013-04-13T10:12:37Z</time>
      </trkpt>
      <trkpt lat="45.20103" lon="5.9932">
        <ele>2176.8000488</ele>
        <time>2013-04-13T10:12:40Z</time>
      </trkpt>
      <trkpt lat="45.20103" lon="5.99321">
        <ele>2176.8000488</ele>
        <time>2013-04-13T10:12:43Z</time>
      </trkpt>
      <trkpt lat="45.20103" lon="5.99322">
        <ele>2176.8000488</ele>
        <time>2013-04-13T10:12:46Z</time>
      </trkpt>
      <trkpt lat="45.20103" lon="5.99322">
        <ele>2177</ele>
        <time>2013-04-13T10:12:49Z</time>
      </trkpt>
      <trkpt lat="45.20103" lon="5.99321">
        <ele>2178</ele>
        <time>2013-04-13T10:12:52Z</time>
      </trkpt>
      <trkpt lat="45.20103" lon="5.99322">
        <ele>2179</ele>
        <time>2013-04-13T10:12:55Z</time>
      </trkpt>
      <trkpt lat="45.20103" lon="5.99324">
        <ele>2179</ele>
        <time>2013-04-13T10:12:58Z</time>
      </trkpt>
      <trkpt lat="45.20102" lon="5.99325">
        <ele>2179</ele>
        <time>2013-04-13T10:13:01Z</time>
      </trkpt>
      <trkpt lat="45.20102" lon="5.99327">
        <ele>2179</ele>
        <time>2013-04-13T10:13:04Z</time>
      </trkpt>
      <trkpt lat="45.20102" lon="5.99327">
        <ele>2179</ele>
        <time>2013-04-13T10:13:07Z</time>
      </trkpt>
      <trkpt lat="45.20102" lon="5.99327">
        <ele>2180</ele>
        <time>2013-04-13T10:13:10Z</time>
      </trkpt>
      <trkpt lat="45.20102" lon="5.99328">
        <ele>2181</ele>
        <time>2013-04-13T10:13:13Z</time>
      </trkpt>
      <trkpt lat="45.20102" lon="5.99326">
        <ele>2181</ele>
        <time>2013-04-13T10:13:16Z</time>
      </trkpt>
      <trkpt lat="45.20101" lon="5.99327">
        <ele>2181</ele>
        <time>2013-04-13T10:13:19Z</time>
      </trkpt>
      <trkpt lat="45.201" lon="5.99328">
        <ele>2181</ele>
        <time>2013-04-13T10:13:22Z</time>
      </trkpt>
      <trkpt lat="45.20099" lon="5.99329">
        <ele>2181.1999512</ele>
        <time>2013-04-13T10:13:25Z</time>
      </trkpt>
      <trkpt lat="45.20099" lon="5.99331">
        <ele>2182.1999512</ele>
        <time>2013-04-13T10:13:28Z</time>
      </trkpt>
      <trkpt lat="45.20098" lon="5.99332">
        <ele>2183.1999512</ele>
        <time>2013-04-13T10:13:31Z</time>
      </trkpt>
      <trkpt lat="45.20097" lon="5.99332">
        <ele>2183.1999512</ele>
        <time>2013-04-13T10:13:34Z</time>
      </trkpt>
      <trkpt lat="45.20098" lon="5.99332">
        <ele>2184.1999512</ele>
        <time>2013-04-13T10:13:37Z</time>
      </trkpt>
      <trkpt lat="45.20098" lon="5.99332">
        <ele>2185.1999512</ele>
        <time>2013-04-13T10:13:40Z</time>
      </trkpt>
      <trkpt lat="45.20098" lon="5.99332">
        <ele>2185.1999512</ele>
        <time>2013-04-13T10:13:43Z</time>
      </trkpt>
      <trkpt lat="45.20098" lon="5.99333">
        <ele>2185.1999512</ele>
        <time>2013-04-13T10:13:46Z</time>
      </trkpt>
      <trkpt lat="45.20098" lon="5.99333">
        <ele>2185.1999512</ele>
        <time>2013-04-13T10:13:49Z</time>
      </trkpt>
      <trkpt lat="45.20098" lon="5.99333">
        <ele>2185.1999512</ele>
        <time>2013-04-13T10:13:52Z</time>
      </trkpt>
      <trkpt lat="45.20098" lon="5.99332">
        <ele>2185.1999512</ele>
        <time>2013-04-13T10:13:55Z</time>
      </trkpt>
      <trkpt lat="45.20098" lon="5.99333">
        <ele>2185.1999512</ele>
        <time>2013-04-13T10:13:58Z</time>
      </trkpt>
      <trkpt lat="45.20098" lon="5.99334">
        <ele>2185.1999512</ele>
        <time>2013-04-13T10:14:01Z</time>
      </trkpt>
      <trkpt lat="45.20099" lon="5.99334">
        <ele>2186</ele>
        <time>2013-04-13T10:14:04Z</time>
      </trkpt>
      <trkpt lat="45.20099" lon="5.99335">
        <ele>2187.1999512</ele>
        <time>2013-04-13T10:14:07Z</time>
      </trkpt>
      <trkpt lat="45.20099" lon="5.99335">
        <ele>2187.1999512</ele>
        <time>2013-04-13T10:14:10Z</time>
      </trkpt>
      <trkpt lat="45.20099" lon="5.99335">
        <ele>2187.1999512</ele>
        <time>2013-04-13T10:14:13Z</time>
      </trkpt>
      <trkpt lat="45.20099" lon="5.99336">
        <ele>2187.1999512</ele>
        <time>2013-04-13T10:14:16Z</time>
      </trkpt>
      <trkpt lat="45.20098" lon="5.99337">
        <ele>2188</ele>
        <time>2013-04-13T10:14:19Z</time>
      </trkpt>
      <trkpt lat="45.20098" lon="5.99336">
        <ele>2189.1999512</ele>
        <time>2013-04-13T10:14:22Z</time>
      </trkpt>
      <trkpt lat="45.20098" lon="5.99338">
        <ele>2189.6000977</ele>
        <time>2013-04-13T10:14:25Z</time>
      </trkpt>
      <trkpt lat="45.20097" lon="5.99336">
        <ele>2189.6000977</ele>
        <time>2013-04-13T10:14:28Z</time>
      </trkpt>
      <trkpt lat="45.20097" lon="5.99337">
        <ele>2189.6000977</ele>
        <time>2013-04-13T10:14:31Z</time>
      </trkpt>
      <trkpt lat="45.20096" lon="5.99337">
        <ele>2189.6000977</ele>
        <time>2013-04-13T10:14:34Z</time>
      </trkpt>
      <trkpt lat="45.20095" lon="5.99337">
        <ele>2190</ele>
        <time>2013-04-13T10:14:37Z</time>
      </trkpt>
      <trkpt lat="45.20094" lon="5.99337">
        <ele>2191</ele>
        <time>2013-04-13T10:14:40Z</time>
      </trkpt>
      <trkpt lat="45.20092" lon="5.99337">
        <ele>2191.8000488</ele>
        <time>2013-04-13T10:14:43Z</time>
      </trkpt>
      <trkpt lat="45.20092" lon="5.99337">
        <ele>2191.8000488</ele>
        <time>2013-04-13T10:14:46Z</time>
      </trkpt>
      <trkpt lat="45.20092" lon="5.99337">
        <ele>2191.8000488</ele>
        <time>2013-04-13T10:14:49Z</time>
      </trkpt>
      <trkpt lat="45.20091" lon="5.99338">
        <ele>2191.8000488</ele>
        <time>2013-04-13T10:14:52Z</time>
      </trkpt>
      <trkpt lat="45.2009" lon="5.99338">
        <ele>2192</ele>
        <time>2013-04-13T10:14:55Z</time>
      </trkpt>
      <trkpt lat="45.20089" lon="5.99338">
        <ele>2193</ele>
        <time>2013-04-13T10:14:58Z</time>
      </trkpt>
      <trkpt lat="45.20087" lon="5.99339">
        <ele>2194</ele>
        <time>2013-04-13T10:15:01Z</time>
      </trkpt>
      <trkpt lat="45.20087" lon="5.99339">
        <ele>2194</ele>
        <time>2013-04-13T10:15:04Z</time>
      </trkpt>
      <trkpt lat="45.20087" lon="5.9934">
        <ele>2194</ele>
        <time>2013-04-13T10:15:07Z</time>
      </trkpt>
      <trkpt lat="45.20088" lon="5.9934">
        <ele>2194</ele>
        <time>2013-04-13T10:15:10Z</time>
      </trkpt>
      <trkpt lat="45.20087" lon="5.99339">
        <ele>2194</ele>
        <time>2013-04-13T10:15:13Z</time>
      </trkpt>
      <trkpt lat="45.20088" lon="5.99339">
        <ele>2194</ele>
        <time>2013-04-13T10:15:16Z</time>
      </trkpt>
      <trkpt lat="45.20088" lon="5.99339">
        <ele>2194</ele>
        <time>2013-04-13T10:15:19Z</time>
      </trkpt>
      <trkpt lat="45.20088" lon="5.99338">
        <ele>2194</ele>
        <time>2013-04-13T10:15:22Z</time>
      </trkpt>
      <trkpt lat="45.20088" lon="5.99338">
        <ele>2194</ele>
        <time>2013-04-13T10:15:25Z</time>
      </trkpt>
      <trkpt lat="45.20088" lon="5.99338">
        <ele>2194</ele>
        <time>2013-04-13T10:15:28Z</time>
      </trkpt>
      <trkpt lat="45.20088" lon="5.99337">
        <ele>2194</ele>
        <time>2013-04-13T10:15:31Z</time>
      </trkpt>
      <trkpt lat="45.20088" lon="5.99337">
        <ele>2194</ele>
        <time>2013-04-13T10:15:34Z</time>
      </trkpt>
      <trkpt lat="45.20088" lon="5.99338">
        <ele>2194</ele>
        <time>2013-04-13T10:15:37Z</time>
      </trkpt>
      <trkpt lat="45.20088" lon="5.99339">
        <ele>2194</ele>
        <time>2013-04-13T10:15:40Z</time>
      </trkpt>
      <trkpt lat="45.20088" lon="5.99341">
        <ele>2194</ele>
        <time>2013-04-13T10:15:43Z</time>
      </trkpt>
      <trkpt lat="45.20087" lon="5.9934">
        <ele>2194</ele>
        <time>2013-04-13T10:15:46Z</time>
      </trkpt>
      <trkpt lat="45.20086" lon="5.99341">
        <ele>2194</ele>
        <time>2013-04-13T10:15:49Z</time>
      </trkpt>
      <trkpt lat="45.20085" lon="5.99341">
        <ele>2194</ele>
        <time>2013-04-13T10:15:52Z</time>
      </trkpt>
      <trkpt lat="45.20086" lon="5.99342">
        <ele>2194</ele>
        <time>2013-04-13T10:15:55Z</time>
      </trkpt>
      <trkpt lat="45.20086" lon="5.99345">
        <ele>2194</ele>
        <time>2013-04-13T10:15:58Z</time>
      </trkpt>
      <trkpt lat="45.20086" lon="5.99345">
        <ele>2194</ele>
        <time>2013-04-13T10:16:01Z</time>
      </trkpt>
      <trkpt lat="45.20087" lon="5.99346">
        <ele>2194</ele>
        <time>2013-04-13T10:16:04Z</time>
      </trkpt>
      <trkpt lat="45.20086" lon="5.99346">
        <ele>2194</ele>
        <time>2013-04-13T10:16:07Z</time>
      </trkpt>
      <trkpt lat="45.20086" lon="5.99346">
        <ele>2194</ele>
        <time>2013-04-13T10:16:10Z</time>
      </trkpt>
      <trkpt lat="45.20086" lon="5.99346">
        <ele>2194</ele>
        <time>2013-04-13T10:16:13Z</time>
      </trkpt>
      <trkpt lat="45.20086" lon="5.99346">
        <ele>2194</ele>
        <time>2013-04-13T10:16:16Z</time>
      </trkpt>
      <trkpt lat="45.20088" lon="5.99345">
        <ele>2194</ele>
        <time>2013-04-13T10:16:19Z</time>
      </trkpt>
      <trkpt lat="45.20092" lon="5.99345">
        <ele>2194</ele>
        <time>2013-04-13T10:16:22Z</time>
      </trkpt>
      <trkpt lat="45.20096" lon="5.99345">
        <ele>2194</ele>
        <time>2013-04-13T10:16:25Z</time>
      </trkpt>
      <trkpt lat="45.20098" lon="5.99342">
        <ele>2194</ele>
        <time>2013-04-13T10:16:28Z</time>
      </trkpt>
      <trkpt lat="45.20098" lon="5.9934">
        <ele>2193</ele>
        <time>2013-04-13T10:16:31Z</time>
      </trkpt>
      <trkpt lat="45.20098" lon="5.99339">
        <ele>2191.8000488</ele>
        <time>2013-04-13T10:16:34Z</time>
      </trkpt>
      <trkpt lat="45.201" lon="5.99337">
        <ele>2191.1999512</ele>
        <time>2013-04-13T10:16:37Z</time>
      </trkpt>
      <trkpt lat="45.201" lon="5.99337">
        <ele>2190.6000977</ele>
        <time>2013-04-13T10:16:40Z</time>
      </trkpt>
      <trkpt lat="45.201" lon="5.99331">
        <ele>2189.1999512</ele>
        <time>2013-04-13T10:16:43Z</time>
      </trkpt>
      <trkpt lat="45.20101" lon="5.99329">
        <ele>2189</ele>
        <time>2013-04-13T10:16:46Z</time>
      </trkpt>
      <trkpt lat="45.20102" lon="5.99328">
        <ele>2187.8000488</ele>
        <time>2013-04-13T10:16:49Z</time>
      </trkpt>
      <trkpt lat="45.20103" lon="5.99324">
        <ele>2186.8000488</ele>
        <time>2013-04-13T10:16:52Z</time>
      </trkpt>
      <trkpt lat="45.20102" lon="5.99323">
        <ele>2185.6000977</ele>
        <time>2013-04-13T10:16:55Z</time>
      </trkpt>
      <trkpt lat="45.20105" lon="5.99321">
        <ele>2184.1999512</ele>
        <time>2013-04-13T10:16:58Z</time>
      </trkpt>
      <trkpt lat="45.20106" lon="5.99321">
        <ele>2183</ele>
        <time>2013-04-13T10:17:01Z</time>
      </trkpt>
      <trkpt lat="45.20106" lon="5.99317">
        <ele>2182.8000488</ele>
        <time>2013-04-13T10:17:04Z</time>
      </trkpt>
      <trkpt lat="45.20104" lon="5.99316">
        <ele>2182.1999512</ele>
        <time>2013-04-13T10:17:07Z</time>
      </trkpt>
      <trkpt lat="45.20102" lon="5.99314">
        <ele>2181.1999512</ele>
        <time>2013-04-13T10:17:10Z</time>
      </trkpt>
      <trkpt lat="45.20102" lon="5.99312">
        <ele>2180.1999512</ele>
        <time>2013-04-13T10:17:13Z</time>
      </trkpt>
      <trkpt lat="45.20103" lon="5.99307">
        <ele>2179.1999512</ele>
        <time>2013-04-13T10:17:16Z</time>
      </trkpt>
      <trkpt lat="45.20101" lon="5.99307">
        <ele>2178.6000977</ele>
        <time>2013-04-13T10:17:19Z</time>
      </trkpt>
      <trkpt lat="45.20101" lon="5.99304">
        <ele>2177</ele>
        <time>2013-04-13T10:17:22Z</time>
      </trkpt>
      <trkpt lat="45.20101" lon="5.99302">
        <ele>2175.8000488</ele>
        <time>2013-04-13T10:17:25Z</time>
      </trkpt>
      <trkpt lat="45.201" lon="5.99302">
        <ele>2174.6000977</ele>
        <time>2013-04-13T10:17:28Z</time>
      </trkpt>
      <trkpt lat="45.20101" lon="5.99302">
        <ele>2174.1999512</ele>
        <time>2013-04-13T10:17:31Z</time>
      </trkpt>
      <trkpt lat="45.20101" lon="5.99302">
        <ele>2174.1999512</ele>
        <time>2013-04-13T10:17:34Z</time>
      </trkpt>
      <trkpt lat="45.20101" lon="5.99302">
        <ele>2174.1999512</ele>
        <time>2013-04-13T10:17:37Z</time>
      </trkpt>
      <trkpt lat="45.20101" lon="5.99302">
        <ele>2174.1999512</ele>
        <time>2013-04-13T10:17:40Z</time>
      </trkpt>
      <trkpt lat="45.20101" lon="5.99302">
        <ele>2174.1999512</ele>
        <time>2013-04-13T10:17:43Z</time>
      </trkpt>
      <trkpt lat="45.20101" lon="5.99303">
        <ele>2174.1999512</ele>
        <time>2013-04-13T10:17:46Z</time>
      </trkpt>
      <trkpt lat="45.20101" lon="5.99303">
        <ele>2174.1999512</ele>
        <time>2013-04-13T10:17:49Z</time>
      </trkpt>
      <trkpt lat="45.20101" lon="5.99303">
        <ele>2174.1999512</ele>
        <time>2013-04-13T10:17:52Z</time>
      </trkpt>
      <trkpt lat="45.20101" lon="5.99303">
        <ele>2174.1999512</ele>
        <time>2013-04-13T10:17:55Z</time>
      </trkpt>
      <trkpt lat="45.20101" lon="5.99302">
        <ele>2174.1999512</ele>
        <time>2013-04-13T10:17:58Z</time>
      </trkpt>
      <trkpt lat="45.20103" lon="5.99297">
        <ele>2174</ele>
        <time>2013-04-13T10:18:01Z</time>
      </trkpt>
      <trkpt lat="45.20101" lon="5.99296">
        <ele>2172.8000488</ele>
        <time>2013-04-13T10:18:04Z</time>
      </trkpt>
      <trkpt lat="45.20103" lon="5.99294">
        <ele>2170.8000488</ele>
        <time>2013-04-13T10:18:07Z</time>
      </trkpt>
      <trkpt lat="45.20103" lon="5.9929">
        <ele>2169</ele>
        <time>2013-04-13T10:18:10Z</time>
      </trkpt>
      <trkpt lat="45.20103" lon="5.9929">
        <ele>2167.1999512</ele>
        <time>2013-04-13T10:18:13Z</time>
      </trkpt>
      <trkpt lat="45.20103" lon="5.9929">
        <ele>2166</ele>
        <time>2013-04-13T10:18:16Z</time>
      </trkpt>
      <trkpt lat="45.20104" lon="5.9929">
        <ele>2165.8000488</ele>
        <time>2013-04-13T10:18:19Z</time>
      </trkpt>
      <trkpt lat="45.20104" lon="5.9929">
        <ele>2165.8000488</ele>
        <time>2013-04-13T10:18:22Z</time>
      </trkpt>
      <trkpt lat="45.20104" lon="5.9929">
        <ele>2165.8000488</ele>
        <time>2013-04-13T10:18:25Z</time>
      </trkpt>
      <trkpt lat="45.20104" lon="5.9929">
        <ele>2165.8000488</ele>
        <time>2013-04-13T10:18:28Z</time>
      </trkpt>
      <trkpt lat="45.20104" lon="5.9929">
        <ele>2165.8000488</ele>
        <time>2013-04-13T10:18:31Z</time>
      </trkpt>
      <trkpt lat="45.20104" lon="5.99289">
        <ele>2165.8000488</ele>
        <time>2013-04-13T10:18:34Z</time>
      </trkpt>
      <trkpt lat="45.20104" lon="5.9929">
        <ele>2165.8000488</ele>
        <time>2013-04-13T10:18:37Z</time>
      </trkpt>
      <trkpt lat="45.20104" lon="5.99289">
        <ele>2165.8000488</ele>
        <time>2013-04-13T10:18:40Z</time>
      </trkpt>
      <trkpt lat="45.20104" lon="5.99289">
        <ele>2165.8000488</ele>
        <time>2013-04-13T10:18:43Z</time>
      </trkpt>
      <trkpt lat="45.20104" lon="5.99289">
        <ele>2165.8000488</ele>
        <time>2013-04-13T10:18:46Z</time>
      </trkpt>
      <trkpt lat="45.20104" lon="5.99281">
        <ele>2165.8000488</ele>
        <time>2013-04-13T10:18:49Z</time>
      </trkpt>
      <trkpt lat="45.20103" lon="5.99278">
        <ele>2164.8000488</ele>
        <time>2013-04-13T10:18:52Z</time>
      </trkpt>
      <trkpt lat="45.20101" lon="5.99276">
        <ele>2162.1999512</ele>
        <time>2013-04-13T10:18:55Z</time>
      </trkpt>
      <trkpt lat="45.20102" lon="5.99271">
        <ele>2160.6000977</ele>
        <time>2013-04-13T10:18:58Z</time>
      </trkpt>
      <trkpt lat="45.20103" lon="5.99268">
        <ele>2159</ele>
        <time>2013-04-13T10:19:01Z</time>
      </trkpt>
      <trkpt lat="45.20105" lon="5.9926">
        <ele>2156.1999512</ele>
        <time>2013-04-13T10:19:04Z</time>
      </trkpt>
      <trkpt lat="45.20104" lon="5.9926">
        <ele>2154</ele>
        <time>2013-04-13T10:19:07Z</time>
      </trkpt>
      <trkpt lat="45.20103" lon="5.99256">
        <ele>2151</ele>
        <time>2013-04-13T10:19:10Z</time>
      </trkpt>
      <trkpt lat="45.20103" lon="5.99254">
        <ele>2148.1999512</ele>
        <time>2013-04-13T10:19:13Z</time>
      </trkpt>
      <trkpt lat="45.20099" lon="5.99241">
        <ele>2146</ele>
        <time>2013-04-13T10:19:16Z</time>
      </trkpt>
      <trkpt lat="45.20099" lon="5.99241">
        <ele>2143.1999512</ele>
        <time>2013-04-13T10:19:19Z</time>
      </trkpt>
      <trkpt lat="45.20099" lon="5.9924">
        <ele>2140</ele>
        <time>2013-04-13T10:19:22Z</time>
      </trkpt>
      <trkpt lat="45.20099" lon="5.9924">
        <ele>2137</ele>
        <time>2013-04-13T10:19:25Z</time>
      </trkpt>
      <trkpt lat="45.20099" lon="5.9924">
        <ele>2137</ele>
        <time>2013-04-13T10:19:28Z</time>
      </trkpt>
      <trkpt lat="45.20099" lon="5.9924">
        <ele>2137</ele>
        <time>2013-04-13T10:19:31Z</time>
      </trkpt>
      <trkpt lat="45.20099" lon="5.9924">
        <ele>2137</ele>
        <time>2013-04-13T10:19:34Z</time>
      </trkpt>
      <trkpt lat="45.20099" lon="5.99241">
        <ele>2137</ele>
        <time>2013-04-13T10:19:37Z</time>
      </trkpt>
      <trkpt lat="45.20102" lon="5.99233">
        <ele>2137</ele>
        <time>2013-04-13T10:19:40Z</time>
      </trkpt>
      <trkpt lat="45.20103" lon="5.99218">
        <ele>2136</ele>
        <time>2013-04-13T10:19:43Z</time>
      </trkpt>
      <trkpt lat="45.20094" lon="5.99202">
        <ele>2132</ele>
        <time>2013-04-13T10:19:46Z</time>
      </trkpt>
      <trkpt lat="45.2009" lon="5.99179">
        <ele>2127.1999512</ele>
        <time>2013-04-13T10:19:49Z</time>
      </trkpt>
      <trkpt lat="45.20088" lon="5.99146">
        <ele>2122.8000488</ele>
        <time>2013-04-13T10:19:52Z</time>
      </trkpt>
      <trkpt lat="45.20088" lon="5.99119">
        <ele>2114.8000488</ele>
        <time>2013-04-13T10:19:55Z</time>
      </trkpt>
      <trkpt lat="45.20091" lon="5.99103">
        <ele>2108</ele>
        <time>2013-04-13T10:19:58Z</time>
      </trkpt>
      <trkpt lat="45.20093" lon="5.99098">
        <ele>2105.1999512</ele>
        <time>2013-04-13T10:20:01Z</time>
      </trkpt>
      <trkpt lat="45.20094" lon="5.99099">
        <ele>2105.1999512</ele>
        <time>2013-04-13T10:20:04Z</time>
      </trkpt>
      <trkpt lat="45.20094" lon="5.99099">
        <ele>2104</ele>
        <time>2013-04-13T10:20:07Z</time>
      </trkpt>
      <trkpt lat="45.20096" lon="5.99101">
        <ele>2103.1999512</ele>
        <time>2013-04-13T10:20:10Z</time>
      </trkpt>
      <trkpt lat="45.20095" lon="5.99103">
        <ele>2103.1999512</ele>
        <time>2013-04-13T10:20:13Z</time>
      </trkpt>
      <trkpt lat="45.20095" lon="5.99094">
        <ele>2103.1999512</ele>
        <time>2013-04-13T10:20:16Z</time>
      </trkpt>
      <trkpt lat="45.20095" lon="5.99082">
        <ele>2102.8000488</ele>
        <time>2013-04-13T10:20:19Z</time>
      </trkpt>
      <trkpt lat="45.20094" lon="5.99073">
        <ele>2101.1999512</ele>
        <time>2013-04-13T10:20:22Z</time>
      </trkpt>
      <trkpt lat="45.20095" lon="5.99073">
        <ele>2099.6000977</ele>
        <time>2013-04-13T10:20:25Z</time>
      </trkpt>
      <trkpt lat="45.20095" lon="5.99073">
        <ele>2098</ele>
        <time>2013-04-13T10:20:28Z</time>
      </trkpt>
      <trkpt lat="45.20094" lon="5.99075">
        <ele>2097</ele>
        <time>2013-04-13T10:20:31Z</time>
      </trkpt>
      <trkpt lat="45.20095" lon="5.99075">
        <ele>2097</ele>
        <time>2013-04-13T10:20:34Z</time>
      </trkpt>
      <trkpt lat="45.20095" lon="5.99076">
        <ele>2097</ele>
        <time>2013-04-13T10:20:37Z</time>
      </trkpt>
      <trkpt lat="45.20095" lon="5.99077">
        <ele>2097</ele>
        <time>2013-04-13T10:20:40Z</time>
      </trkpt>
      <trkpt lat="45.20094" lon="5.99077">
        <ele>2097</ele>
        <time>2013-04-13T10:20:43Z</time>
      </trkpt>
      <trkpt lat="45.20094" lon="5.99078">
        <ele>2097</ele>
        <time>2013-04-13T10:20:46Z</time>
      </trkpt>
      <trkpt lat="45.20093" lon="5.99078">
        <ele>2097</ele>
        <time>2013-04-13T10:20:49Z</time>
      </trkpt>
      <trkpt lat="45.20092" lon="5.99078">
        <ele>2097</ele>
        <time>2013-04-13T10:20:52Z</time>
      </trkpt>
      <trkpt lat="45.2009" lon="5.9908">
        <ele>2097</ele>
        <time>2013-04-13T10:20:55Z</time>
      </trkpt>
      <trkpt lat="45.2009" lon="5.9908">
        <ele>2097</ele>
        <time>2013-04-13T10:20:58Z</time>
      </trkpt>
      <trkpt lat="45.20091" lon="5.99081">
        <ele>2097</ele>
        <time>2013-04-13T10:21:01Z</time>
      </trkpt>
      <trkpt lat="45.20091" lon="5.99081">
        <ele>2097</ele>
        <time>2013-04-13T10:21:04Z</time>
      </trkpt>
      <trkpt lat="45.20091" lon="5.99081">
        <ele>2097</ele>
        <time>2013-04-13T10:21:07Z</time>
      </trkpt>
      <trkpt lat="45.20092" lon="5.9908">
        <ele>2097</ele>
        <time>2013-04-13T10:21:10Z</time>
      </trkpt>
      <trkpt lat="45.20093" lon="5.9908">
        <ele>2097</ele>
        <time>2013-04-13T10:21:13Z</time>
      </trkpt>
      <trkpt lat="45.20093" lon="5.9908">
        <ele>2097</ele>
        <time>2013-04-13T10:21:16Z</time>
      </trkpt>
      <trkpt lat="45.20092" lon="5.9908">
        <ele>2097</ele>
        <time>2013-04-13T10:21:19Z</time>
      </trkpt>
      <trkpt lat="45.20092" lon="5.99081">
        <ele>2097</ele>
        <time>2013-04-13T10:21:22Z</time>
      </trkpt>
      <trkpt lat="45.20092" lon="5.99081">
        <ele>2097</ele>
        <time>2013-04-13T10:21:25Z</time>
      </trkpt>
      <trkpt lat="45.20099" lon="5.99086">
        <ele>2097</ele>
        <time>2013-04-13T10:21:28Z</time>
      </trkpt>
      <trkpt lat="45.20115" lon="5.99068">
        <ele>2096</ele>
        <time>2013-04-13T10:21:31Z</time>
      </trkpt>
      <trkpt lat="45.20129" lon="5.9903">
        <ele>2091</ele>
        <time>2013-04-13T10:21:34Z</time>
      </trkpt>
      <trkpt lat="45.20161" lon="5.99007">
        <ele>2081</ele>
        <time>2013-04-13T10:21:37Z</time>
      </trkpt>
      <trkpt lat="45.20198" lon="5.99013">
        <ele>2069.8000488</ele>
        <time>2013-04-13T10:21:40Z</time>
      </trkpt>
      <trkpt lat="45.20232" lon="5.99006">
        <ele>2056</ele>
        <time>2013-04-13T10:21:43Z</time>
      </trkpt>
      <trkpt lat="45.20258" lon="5.98991">
        <ele>2044.4000244</ele>
        <time>2013-04-13T10:21:46Z</time>
      </trkpt>
      <trkpt lat="45.20283" lon="5.98972">
        <ele>2037</ele>
        <time>2013-04-13T10:21:49Z</time>
      </trkpt>
      <trkpt lat="45.20307" lon="5.98958">
        <ele>2033</ele>
        <time>2013-04-13T10:21:52Z</time>
      </trkpt>
      <trkpt lat="45.20328" lon="5.98934">
        <ele>2029.4000244</ele>
        <time>2013-04-13T10:21:55Z</time>
      </trkpt>
      <trkpt lat="45.20346" lon="5.98908">
        <ele>2025</ele>
        <time>2013-04-13T10:21:58Z</time>
      </trkpt>
      <trkpt lat="45.20359" lon="5.98885">
        <ele>2021</ele>
        <time>2013-04-13T10:22:01Z</time>
      </trkpt>
      <trkpt lat="45.20372" lon="5.98866">
        <ele>2017.8000488</ele>
        <time>2013-04-13T10:22:04Z</time>
      </trkpt>
      <trkpt lat="45.20381" lon="5.98862">
        <ele>2016</ele>
        <time>2013-04-13T10:22:07Z</time>
      </trkpt>
      <trkpt lat="45.20382" lon="5.98861">
        <ele>2016</ele>
        <time>2013-04-13T10:22:10Z</time>
      </trkpt>
      <trkpt lat="45.20382" lon="5.98861">
        <ele>2016</ele>
        <time>2013-04-13T10:22:13Z</time>
      </trkpt>
      <trkpt lat="45.20382" lon="5.98862">
        <ele>2016</ele>
        <time>2013-04-13T10:22:16Z</time>
      </trkpt>
      <trkpt lat="45.20382" lon="5.98862">
        <ele>2016</ele>
        <time>2013-04-13T10:22:19Z</time>
      </trkpt>
      <trkpt lat="45.20381" lon="5.98861">
        <ele>2016</ele>
        <time>2013-04-13T10:22:22Z</time>
      </trkpt>
      <trkpt lat="45.20381" lon="5.98865">
        <ele>2016</ele>
        <time>2013-04-13T10:22:25Z</time>
      </trkpt>
      <trkpt lat="45.20381" lon="5.98865">
        <ele>2016</ele>
        <time>2013-04-13T10:22:28Z</time>
      </trkpt>
      <trkpt lat="45.2038" lon="5.98865">
        <ele>2016</ele>
        <time>2013-04-13T10:22:31Z</time>
      </trkpt>
      <trkpt lat="45.2038" lon="5.98864">
        <ele>2016</ele>
        <time>2013-04-13T10:22:34Z</time>
      </trkpt>
      <trkpt lat="45.2038" lon="5.98865">
        <ele>2016</ele>
        <time>2013-04-13T10:22:37Z</time>
      </trkpt>
      <trkpt lat="45.2038" lon="5.98866">
        <ele>2016</ele>
        <time>2013-04-13T10:22:40Z</time>
      </trkpt>
      <trkpt lat="45.2038" lon="5.98865">
        <ele>2016</ele>
        <time>2013-04-13T10:22:43Z</time>
      </trkpt>
      <trkpt lat="45.20379" lon="5.98865">
        <ele>2016</ele>
        <time>2013-04-13T10:22:46Z</time>
      </trkpt>
      <trkpt lat="45.20379" lon="5.98865">
        <ele>2016</ele>
        <time>2013-04-13T10:22:49Z</time>
      </trkpt>
      <trkpt lat="45.2038" lon="5.98866">
        <ele>2016</ele>
        <time>2013-04-13T10:22:52Z</time>
      </trkpt>
      <trkpt lat="45.2038" lon="5.98866">
        <ele>2016</ele>
        <time>2013-04-13T10:22:55Z</time>
      </trkpt>
      <trkpt lat="45.2038" lon="5.98866">
        <ele>2016</ele>
        <time>2013-04-13T10:22:58Z</time>
      </trkpt>
      <trkpt lat="45.2038" lon="5.98867">
        <ele>2016</ele>
        <time>2013-04-13T10:23:01Z</time>
      </trkpt>
      <trkpt lat="45.2038" lon="5.98867">
        <ele>2016</ele>
        <time>2013-04-13T10:23:04Z</time>
      </trkpt>
      <trkpt lat="45.2038" lon="5.98867">
        <ele>2016</ele>
        <time>2013-04-13T10:23:07Z</time>
      </trkpt>
      <trkpt lat="45.2038" lon="5.98866">
        <ele>2016</ele>
        <time>2013-04-13T10:23:10Z</time>
      </trkpt>
      <trkpt lat="45.2038" lon="5.98865">
        <ele>2015</ele>
        <time>2013-04-13T10:23:13Z</time>
      </trkpt>
      <trkpt lat="45.2038" lon="5.98864">
        <ele>2014</ele>
        <time>2013-04-13T10:23:16Z</time>
      </trkpt>
      <trkpt lat="45.20379" lon="5.98863">
        <ele>2014</ele>
        <time>2013-04-13T10:23:19Z</time>
      </trkpt>
      <trkpt lat="45.20379" lon="5.98863">
        <ele>2014</ele>
        <time>2013-04-13T10:23:22Z</time>
      </trkpt>
      <trkpt lat="45.20378" lon="5.98864">
        <ele>2014</ele>
        <time>2013-04-13T10:23:25Z</time>
      </trkpt>
      <trkpt lat="45.20379" lon="5.98864">
        <ele>2014</ele>
        <time>2013-04-13T10:23:28Z</time>
      </trkpt>
      <trkpt lat="45.20378" lon="5.98864">
        <ele>2014</ele>
        <time>2013-04-13T10:23:31Z</time>
      </trkpt>
      <trkpt lat="45.20378" lon="5.98864">
        <ele>2014</ele>
        <time>2013-04-13T10:23:34Z</time>
      </trkpt>
      <trkpt lat="45.20378" lon="5.98863">
        <ele>2014</ele>
        <time>2013-04-13T10:23:37Z</time>
      </trkpt>
      <trkpt lat="45.20378" lon="5.98863">
        <ele>2014</ele>
        <time>2013-04-13T10:23:40Z</time>
      </trkpt>
      <trkpt lat="45.20378" lon="5.98864">
        <ele>2014</ele>
        <time>2013-04-13T10:23:43Z</time>
      </trkpt>
      <trkpt lat="45.20377" lon="5.98863">
        <ele>2014</ele>
        <time>2013-04-13T10:23:46Z</time>
      </trkpt>
      <trkpt lat="45.20377" lon="5.98863">
        <ele>2014</ele>
        <time>2013-04-13T10:23:49Z</time>
      </trkpt>
      <trkpt lat="45.20377" lon="5.98864">
        <ele>2014</ele>
        <time>2013-04-13T10:23:52Z</time>
      </trkpt>
      <trkpt lat="45.20377" lon="5.98858">
        <ele>2014</ele>
        <time>2013-04-13T10:23:55Z</time>
      </trkpt>
      <trkpt lat="45.20385" lon="5.98849">
        <ele>2014</ele>
        <time>2013-04-13T10:23:58Z</time>
      </trkpt>
      <trkpt lat="45.20395" lon="5.98849">
        <ele>2013</ele>
        <time>2013-04-13T10:24:01Z</time>
      </trkpt>
      <trkpt lat="45.20396" lon="5.9885">
        <ele>2012</ele>
        <time>2013-04-13T10:24:04Z</time>
      </trkpt>
      <trkpt lat="45.20395" lon="5.9885">
        <ele>2011.8000488</ele>
        <time>2013-04-13T10:24:07Z</time>
      </trkpt>
      <trkpt lat="45.20395" lon="5.9885">
        <ele>2011.8000488</ele>
        <time>2013-04-13T10:24:10Z</time>
      </trkpt>
      <trkpt lat="45.20396" lon="5.98851">
        <ele>2011.8000488</ele>
        <time>2013-04-13T10:24:13Z</time>
      </trkpt>
      <trkpt lat="45.20396" lon="5.9885">
        <ele>2011.8000488</ele>
        <time>2013-04-13T10:24:16Z</time>
      </trkpt>
      <trkpt lat="45.20393" lon="5.98852">
        <ele>2011.8000488</ele>
        <time>2013-04-13T10:24:19Z</time>
      </trkpt>
      <trkpt lat="45.20395" lon="5.9886">
        <ele>2011.8000488</ele>
        <time>2013-04-13T10:24:22Z</time>
      </trkpt>
      <trkpt lat="45.20404" lon="5.98861">
        <ele>2011.8000488</ele>
        <time>2013-04-13T10:24:25Z</time>
      </trkpt>
      <trkpt lat="45.20412" lon="5.98849">
        <ele>2011</ele>
        <time>2013-04-13T10:24:28Z</time>
      </trkpt>
      <trkpt lat="45.2042" lon="5.98841">
        <ele>2009</ele>
        <time>2013-04-13T10:24:31Z</time>
      </trkpt>
      <trkpt lat="45.2043" lon="5.98832">
        <ele>2005.4000244</ele>
        <time>2013-04-13T10:24:34Z</time>
      </trkpt>
      <trkpt lat="45.20436" lon="5.98821">
        <ele>2000</ele>
        <time>2013-04-13T10:24:37Z</time>
      </trkpt>
      <trkpt lat="45.20439" lon="5.98808">
        <ele>1993</ele>
        <time>2013-04-13T10:24:40Z</time>
      </trkpt>
      <trkpt lat="45.2044" lon="5.98811">
        <ele>1986</ele>
        <time>2013-04-13T10:24:43Z</time>
      </trkpt>
      <trkpt lat="45.20443" lon="5.98809">
        <ele>1980</ele>
        <time>2013-04-13T10:24:46Z</time>
      </trkpt>
      <trkpt lat="45.20442" lon="5.98808">
        <ele>1976.4000244</ele>
        <time>2013-04-13T10:24:49Z</time>
      </trkpt>
      <trkpt lat="45.20444" lon="5.98807">
        <ele>1976.4000244</ele>
        <time>2013-04-13T10:24:52Z</time>
      </trkpt>
      <trkpt lat="45.20445" lon="5.98793">
        <ele>1976.4000244</ele>
        <time>2013-04-13T10:24:55Z</time>
      </trkpt>
      <trkpt lat="45.20448" lon="5.98768">
        <ele>1974.8000488</ele>
        <time>2013-04-13T10:24:58Z</time>
      </trkpt>
      <trkpt lat="45.20469" lon="5.98767">
        <ele>1971</ele>
        <time>2013-04-13T10:25:01Z</time>
      </trkpt>
      <trkpt lat="45.20493" lon="5.98769">
        <ele>1968</ele>
        <time>2013-04-13T10:25:04Z</time>
      </trkpt>
      <trkpt lat="45.20502" lon="5.98766">
        <ele>1960</ele>
        <time>2013-04-13T10:25:07Z</time>
      </trkpt>
      <trkpt lat="45.20502" lon="5.98767">
        <ele>1952.4000244</ele>
        <time>2013-04-13T10:25:10Z</time>
      </trkpt>
      <trkpt lat="45.20501" lon="5.98768">
        <ele>1945</ele>
        <time>2013-04-13T10:25:13Z</time>
      </trkpt>
      <trkpt lat="45.20509" lon="5.98781">
        <ele>1940.4000244</ele>
        <time>2013-04-13T10:25:16Z</time>
      </trkpt>
      <trkpt lat="45.20516" lon="5.98806">
        <ele>1936.4000244</ele>
        <time>2013-04-13T10:25:19Z</time>
      </trkpt>
      <trkpt lat="45.20534" lon="5.98839">
        <ele>1932.4000244</ele>
        <time>2013-04-13T10:25:22Z</time>
      </trkpt>
      <trkpt lat="45.20561" lon="5.98861">
        <ele>1922.4000244</ele>
        <time>2013-04-13T10:25:25Z</time>
      </trkpt>
      <trkpt lat="45.20582" lon="5.98873">
        <ele>1913.4000244</ele>
        <time>2013-04-13T10:25:28Z</time>
      </trkpt>
      <trkpt lat="45.20591" lon="5.98877">
        <ele>1905</ele>
        <time>2013-04-13T10:25:31Z</time>
      </trkpt>
      <trkpt lat="45.206" lon="5.98882">
        <ele>1901.4000244</ele>
        <time>2013-04-13T10:25:34Z</time>
      </trkpt>
      <trkpt lat="45.20611" lon="5.98889">
        <ele>1898.4000244</ele>
        <time>2013-04-13T10:25:37Z</time>
      </trkpt>
      <trkpt lat="45.20624" lon="5.98899">
        <ele>1896</ele>
        <time>2013-04-13T10:25:40Z</time>
      </trkpt>
      <trkpt lat="45.20641" lon="5.98912">
        <ele>1893</ele>
        <time>2013-04-13T10:25:43Z</time>
      </trkpt>
      <trkpt lat="45.20659" lon="5.98923">
        <ele>1889.4000244</ele>
        <time>2013-04-13T10:25:46Z</time>
      </trkpt>
      <trkpt lat="45.20672" lon="5.98929">
        <ele>1882</ele>
        <time>2013-04-13T10:25:49Z</time>
      </trkpt>
      <trkpt lat="45.20684" lon="5.98934">
        <ele>1881</ele>
        <time>2013-04-13T10:25:52Z</time>
      </trkpt>
      <trkpt lat="45.20693" lon="5.98933">
        <ele>1879.4000244</ele>
        <time>2013-04-13T10:25:55Z</time>
      </trkpt>
      <trkpt lat="45.20709" lon="5.98928">
        <ele>1878.4000244</ele>
        <time>2013-04-13T10:25:58Z</time>
      </trkpt>
      <trkpt lat="45.20721" lon="5.98924">
        <ele>1877.4000244</ele>
        <time>2013-04-13T10:26:01Z</time>
      </trkpt>
      <trkpt lat="45.20728" lon="5.98923">
        <ele>1876.4000244</ele>
        <time>2013-04-13T10:26:04Z</time>
      </trkpt>
      <trkpt lat="45.20729" lon="5.98922">
        <ele>1876.4000244</ele>
        <time>2013-04-13T10:26:07Z</time>
      </trkpt>
      <trkpt lat="45.20728" lon="5.98923">
        <ele>1876.4000244</ele>
        <time>2013-04-13T10:26:10Z</time>
      </trkpt>
      <trkpt lat="45.20729" lon="5.98921">
        <ele>1877</ele>
        <time>2013-04-13T10:26:13Z</time>
      </trkpt>
      <trkpt lat="45.20728" lon="5.98922">
        <ele>1878</ele>
        <time>2013-04-13T10:26:16Z</time>
      </trkpt>
      <trkpt lat="45.20733" lon="5.98921">
        <ele>1878.4000244</ele>
        <time>2013-04-13T10:26:19Z</time>
      </trkpt>
      <trkpt lat="45.20739" lon="5.98921">
        <ele>1878.4000244</ele>
        <time>2013-04-13T10:26:22Z</time>
      </trkpt>
      <trkpt lat="45.20746" lon="5.98921">
        <ele>1879</ele>
        <time>2013-04-13T10:26:25Z</time>
      </trkpt>
      <trkpt lat="45.20757" lon="5.9892">
        <ele>1880</ele>
        <time>2013-04-13T10:26:28Z</time>
      </trkpt>
      <trkpt lat="45.20766" lon="5.9892">
        <ele>1880.4000244</ele>
        <time>2013-04-13T10:26:31Z</time>
      </trkpt>
      <trkpt lat="45.20774" lon="5.9892">
        <ele>1880.4000244</ele>
        <time>2013-04-13T10:26:34Z</time>
      </trkpt>
      <trkpt lat="45.20783" lon="5.98921">
        <ele>1880.4000244</ele>
        <time>2013-04-13T10:26:37Z</time>
      </trkpt>
      <trkpt lat="45.20793" lon="5.98922">
        <ele>1880.4000244</ele>
        <time>2013-04-13T10:26:40Z</time>
      </trkpt>
      <trkpt lat="45.20805" lon="5.98923">
        <ele>1880.4000244</ele>
        <time>2013-04-13T10:26:43Z</time>
      </trkpt>
      <trkpt lat="45.20818" lon="5.98925">
        <ele>1879.8000488</ele>
        <time>2013-04-13T10:26:46Z</time>
      </trkpt>
      <trkpt lat="45.20831" lon="5.98927">
        <ele>1878.4000244</ele>
        <time>2013-04-13T10:26:49Z</time>
      </trkpt>
      <trkpt lat="45.20843" lon="5.98928">
        <ele>1878.4000244</ele>
        <time>2013-04-13T10:26:52Z</time>
      </trkpt>
      <trkpt lat="45.20853" lon="5.98929">
        <ele>1878.4000244</ele>
        <time>2013-04-13T10:26:55Z</time>
      </trkpt>
      <trkpt lat="45.20862" lon="5.9893">
        <ele>1878.4000244</ele>
        <time>2013-04-13T10:26:58Z</time>
      </trkpt>
      <trkpt lat="45.20874" lon="5.98934">
        <ele>1878.4000244</ele>
        <time>2013-04-13T10:27:01Z</time>
      </trkpt>
      <trkpt lat="45.20888" lon="5.98939">
        <ele>1878.4000244</ele>
        <time>2013-04-13T10:27:04Z</time>
      </trkpt>
      <trkpt lat="45.20907" lon="5.98945">
        <ele>1878.4000244</ele>
        <time>2013-04-13T10:27:07Z</time>
      </trkpt>
      <trkpt lat="45.20927" lon="5.98955">
        <ele>1877.4000244</ele>
        <time>2013-04-13T10:27:10Z</time>
      </trkpt>
      <trkpt lat="45.20951" lon="5.98962">
        <ele>1874</ele>
        <time>2013-04-13T10:27:13Z</time>
      </trkpt>
      <trkpt lat="45.20966" lon="5.98961">
        <ele>1870.8000488</ele>
        <time>2013-04-13T10:27:16Z</time>
      </trkpt>
      <trkpt lat="45.20969" lon="5.98957">
        <ele>1871.4000244</ele>
        <time>2013-04-13T10:27:19Z</time>
      </trkpt>
      <trkpt lat="45.20969" lon="5.98955">
        <ele>1873</ele>
        <time>2013-04-13T10:27:22Z</time>
      </trkpt>
      <trkpt lat="45.20971" lon="5.98952">
        <ele>1874.4000244</ele>
        <time>2013-04-13T10:27:25Z</time>
      </trkpt>
      <trkpt lat="45.20971" lon="5.9895">
        <ele>1876</ele>
        <time>2013-04-13T10:27:28Z</time>
      </trkpt>
      <trkpt lat="45.20972" lon="5.98947">
        <ele>1876.4000244</ele>
        <time>2013-04-13T10:27:31Z</time>
      </trkpt>
      <trkpt lat="45.20972" lon="5.98945">
        <ele>1877.4000244</ele>
        <time>2013-04-13T10:27:34Z</time>
      </trkpt>
      <trkpt lat="45.20972" lon="5.98943">
        <ele>1878.8000488</ele>
        <time>2013-04-13T10:27:37Z</time>
      </trkpt>
      <trkpt lat="45.20972" lon="5.98941">
        <ele>1879.8000488</ele>
        <time>2013-04-13T10:27:40Z</time>
      </trkpt>
      <trkpt lat="45.20972" lon="5.98939">
        <ele>1881</ele>
        <time>2013-04-13T10:27:43Z</time>
      </trkpt>
      <trkpt lat="45.20973" lon="5.98936">
        <ele>1882</ele>
        <time>2013-04-13T10:27:46Z</time>
      </trkpt>
      <trkpt lat="45.20973" lon="5.98933">
        <ele>1882.8000488</ele>
        <time>2013-04-13T10:27:49Z</time>
      </trkpt>
      <trkpt lat="45.20974" lon="5.98931">
        <ele>1883.4000244</ele>
        <time>2013-04-13T10:27:52Z</time>
      </trkpt>
      <trkpt lat="45.20975" lon="5.98929">
        <ele>1884</ele>
        <time>2013-04-13T10:27:55Z</time>
      </trkpt>
      <trkpt lat="45.20977" lon="5.98928">
        <ele>1885.4000244</ele>
        <time>2013-04-13T10:27:58Z</time>
      </trkpt>
      <trkpt lat="45.20977" lon="5.98928">
        <ele>1887</ele>
        <time>2013-04-13T10:28:01Z</time>
      </trkpt>
      <trkpt lat="45.20976" lon="5.98927">
        <ele>1888</ele>
        <time>2013-04-13T10:28:04Z</time>
      </trkpt>
      <trkpt lat="45.20976" lon="5.98927">
        <ele>1889</ele>
        <time>2013-04-13T10:28:07Z</time>
      </trkpt>
      <trkpt lat="45.20976" lon="5.98927">
        <ele>1889</ele>
        <time>2013-04-13T10:28:10Z</time>
      </trkpt>
      <trkpt lat="45.20976" lon="5.98927">
        <ele>1889</ele>
        <time>2013-04-13T10:28:13Z</time>
      </trkpt>
      <trkpt lat="45.20977" lon="5.98926">
        <ele>1889</ele>
        <time>2013-04-13T10:28:16Z</time>
      </trkpt>
      <trkpt lat="45.20978" lon="5.98925">
        <ele>1889</ele>
        <time>2013-04-13T10:28:19Z</time>
      </trkpt>
      <trkpt lat="45.2098" lon="5.98923">
        <ele>1889</ele>
        <time>2013-04-13T10:28:22Z</time>
      </trkpt>
      <trkpt lat="45.20981" lon="5.98922">
        <ele>1889.4000244</ele>
        <time>2013-04-13T10:28:25Z</time>
      </trkpt>
      <trkpt lat="45.20982" lon="5.9892">
        <ele>1890</ele>
        <time>2013-04-13T10:28:28Z</time>
      </trkpt>
      <trkpt lat="45.20984" lon="5.98918">
        <ele>1890.8000488</ele>
        <time>2013-04-13T10:28:31Z</time>
      </trkpt>
      <trkpt lat="45.20985" lon="5.98916">
        <ele>1891</ele>
        <time>2013-04-13T10:28:34Z</time>
      </trkpt>
      <trkpt lat="45.20985" lon="5.98915">
        <ele>1891</ele>
        <time>2013-04-13T10:28:37Z</time>
      </trkpt>
      <trkpt lat="45.20986" lon="5.98914">
        <ele>1891</ele>
        <time>2013-04-13T10:28:40Z</time>
      </trkpt>
      <trkpt lat="45.20986" lon="5.98914">
        <ele>1892.4000244</ele>
        <time>2013-04-13T10:28:43Z</time>
      </trkpt>
      <trkpt lat="45.20986" lon="5.98913">
        <ele>1893.4000244</ele>
        <time>2013-04-13T10:28:46Z</time>
      </trkpt>
      <trkpt lat="45.20986" lon="5.98913">
        <ele>1893.4000244</ele>
        <time>2013-04-13T10:28:49Z</time>
      </trkpt>
      <trkpt lat="45.20987" lon="5.98913">
        <ele>1893.4000244</ele>
        <time>2013-04-13T10:28:52Z</time>
      </trkpt>
      <trkpt lat="45.20987" lon="5.98912">
        <ele>1893.4000244</ele>
        <time>2013-04-13T10:28:55Z</time>
      </trkpt>
      <trkpt lat="45.20987" lon="5.98912">
        <ele>1893.4000244</ele>
        <time>2013-04-13T10:28:58Z</time>
      </trkpt>
      <trkpt lat="45.20987" lon="5.98912">
        <ele>1893.4000244</ele>
        <time>2013-04-13T10:29:01Z</time>
      </trkpt>
      <trkpt lat="45.20987" lon="5.98912">
        <ele>1893.4000244</ele>
        <time>2013-04-13T10:29:04Z</time>
      </trkpt>
      <trkpt lat="45.20987" lon="5.98912">
        <ele>1893.4000244</ele>
        <time>2013-04-13T10:29:07Z</time>
      </trkpt>
      <trkpt lat="45.20987" lon="5.98912">
        <ele>1893.4000244</ele>
        <time>2013-04-13T10:29:10Z</time>
      </trkpt>
      <trkpt lat="45.20987" lon="5.98912">
        <ele>1893.4000244</ele>
        <time>2013-04-13T10:29:13Z</time>
      </trkpt>
      <trkpt lat="45.20987" lon="5.98912">
        <ele>1893.4000244</ele>
        <time>2013-04-13T10:29:16Z</time>
      </trkpt>
      <trkpt lat="45.20987" lon="5.98912">
        <ele>1893.4000244</ele>
        <time>2013-04-13T10:29:19Z</time>
      </trkpt>
      <trkpt lat="45.20987" lon="5.98912">
        <ele>1893.4000244</ele>
        <time>2013-04-13T10:29:22Z</time>
      </trkpt>
      <trkpt lat="45.20987" lon="5.98912">
        <ele>1893.4000244</ele>
        <time>2013-04-13T10:29:25Z</time>
      </trkpt>
      <trkpt lat="45.20987" lon="5.98912">
        <ele>1893.4000244</ele>
        <time>2013-04-13T10:29:28Z</time>
      </trkpt>
      <trkpt lat="45.20987" lon="5.98912">
        <ele>1893.4000244</ele>
        <time>2013-04-13T10:29:31Z</time>
      </trkpt>
      <trkpt lat="45.20987" lon="5.98912">
        <ele>1893.4000244</ele>
        <time>2013-04-13T10:29:34Z</time>
      </trkpt>
      <trkpt lat="45.20987" lon="5.98912">
        <ele>1893.4000244</ele>
        <time>2013-04-13T10:29:37Z</time>
      </trkpt>
      <trkpt lat="45.20987" lon="5.98912">
        <ele>1893.4000244</ele>
        <time>2013-04-13T10:29:40Z</time>
      </trkpt>
      <trkpt lat="45.20987" lon="5.98913">
        <ele>1893.4000244</ele>
        <time>2013-04-13T10:29:43Z</time>
      </trkpt>
      <trkpt lat="45.20987" lon="5.98912">
        <ele>1893.4000244</ele>
        <time>2013-04-13T10:29:46Z</time>
      </trkpt>
      <trkpt lat="45.20987" lon="5.98912">
        <ele>1893.4000244</ele>
        <time>2013-04-13T10:29:49Z</time>
      </trkpt>
      <trkpt lat="45.20987" lon="5.98912">
        <ele>1893.4000244</ele>
        <time>2013-04-13T10:29:52Z</time>
      </trkpt>
      <trkpt lat="45.20987" lon="5.98912">
        <ele>1893.4000244</ele>
        <time>2013-04-13T10:29:55Z</time>
      </trkpt>
      <trkpt lat="45.20987" lon="5.98912">
        <ele>1893.4000244</ele>
        <time>2013-04-13T10:29:58Z</time>
      </trkpt>
      <trkpt lat="45.20987" lon="5.98912">
        <ele>1893.4000244</ele>
        <time>2013-04-13T10:30:01Z</time>
      </trkpt>
      <trkpt lat="45.20987" lon="5.98912">
        <ele>1893.4000244</ele>
        <time>2013-04-13T10:30:04Z</time>
      </trkpt>
      <trkpt lat="45.20987" lon="5.98913">
        <ele>1893.4000244</ele>
        <time>2013-04-13T10:30:07Z</time>
      </trkpt>
      <trkpt lat="45.20987" lon="5.98913">
        <ele>1893.4000244</ele>
        <time>2013-04-13T10:30:10Z</time>
      </trkpt>
      <trkpt lat="45.20987" lon="5.98913">
        <ele>1893.4000244</ele>
        <time>2013-04-13T10:30:13Z</time>
      </trkpt>
      <trkpt lat="45.20987" lon="5.98913">
        <ele>1893.4000244</ele>
        <time>2013-04-13T10:30:16Z</time>
      </trkpt>
      <trkpt lat="45.20987" lon="5.98913">
        <ele>1893.4000244</ele>
        <time>2013-04-13T10:30:19Z</time>
      </trkpt>
      <trkpt lat="45.20987" lon="5.98913">
        <ele>1893.4000244</ele>
        <time>2013-04-13T10:30:22Z</time>
      </trkpt>
      <trkpt lat="45.20988" lon="5.98912">
        <ele>1893.4000244</ele>
        <time>2013-04-13T10:30:25Z</time>
      </trkpt>
      <trkpt lat="45.20988" lon="5.98912">
        <ele>1893.4000244</ele>
        <time>2013-04-13T10:30:28Z</time>
      </trkpt>
      <trkpt lat="45.20988" lon="5.98912">
        <ele>1893.4000244</ele>
        <time>2013-04-13T10:30:31Z</time>
      </trkpt>
      <trkpt lat="45.20988" lon="5.98912">
        <ele>1893.4000244</ele>
        <time>2013-04-13T10:30:34Z</time>
      </trkpt>
      <trkpt lat="45.20988" lon="5.98912">
        <ele>1893.4000244</ele>
        <time>2013-04-13T10:30:37Z</time>
      </trkpt>
      <trkpt lat="45.20988" lon="5.98913">
        <ele>1893.4000244</ele>
        <time>2013-04-13T10:30:40Z</time>
      </trkpt>
      <trkpt lat="45.20988" lon="5.98913">
        <ele>1893.4000244</ele>
        <time>2013-04-13T10:30:43Z</time>
      </trkpt>
      <trkpt lat="45.20987" lon="5.98912">
        <ele>1893.4000244</ele>
        <time>2013-04-13T10:30:46Z</time>
      </trkpt>
      <trkpt lat="45.20988" lon="5.98913">
        <ele>1893.4000244</ele>
        <time>2013-04-13T10:30:49Z</time>
      </trkpt>
      <trkpt lat="45.20988" lon="5.98913">
        <ele>1893.4000244</ele>
        <time>2013-04-13T10:30:52Z</time>
      </trkpt>
      <trkpt lat="45.20987" lon="5.98912">
        <ele>1893.4000244</ele>
        <time>2013-04-13T10:30:55Z</time>
      </trkpt>
      <trkpt lat="45.20987" lon="5.98912">
        <ele>1893.4000244</ele>
        <time>2013-04-13T10:30:58Z</time>
      </trkpt>
      <trkpt lat="45.20988" lon="5.98912">
        <ele>1893.4000244</ele>
        <time>2013-04-13T10:31:01Z</time>
      </trkpt>
      <trkpt lat="45.20988" lon="5.98913">
        <ele>1893.4000244</ele>
        <time>2013-04-13T10:31:04Z</time>
      </trkpt>
      <trkpt lat="45.20987" lon="5.98913">
        <ele>1893.4000244</ele>
        <time>2013-04-13T10:31:07Z</time>
      </trkpt>
      <trkpt lat="45.20987" lon="5.98913">
        <ele>1893.4000244</ele>
        <time>2013-04-13T10:31:10Z</time>
      </trkpt>
      <trkpt lat="45.20987" lon="5.98912">
        <ele>1893.4000244</ele>
        <time>2013-04-13T10:31:13Z</time>
      </trkpt>
      <trkpt lat="45.20987" lon="5.98912">
        <ele>1893.4000244</ele>
        <time>2013-04-13T10:31:16Z</time>
      </trkpt>
      <trkpt lat="45.20987" lon="5.98912">
        <ele>1893.4000244</ele>
        <time>2013-04-13T10:31:19Z</time>
      </trkpt>
      <trkpt lat="45.20987" lon="5.98912">
        <ele>1893.4000244</ele>
        <time>2013-04-13T10:31:22Z</time>
      </trkpt>
      <trkpt lat="45.20987" lon="5.98912">
        <ele>1893.4000244</ele>
        <time>2013-04-13T10:31:25Z</time>
      </trkpt>
      <trkpt lat="45.20987" lon="5.98912">
        <ele>1893.4000244</ele>
        <time>2013-04-13T10:31:28Z</time>
      </trkpt>
      <trkpt lat="45.20987" lon="5.98912">
        <ele>1893.4000244</ele>
        <time>2013-04-13T10:31:31Z</time>
      </trkpt>
      <trkpt lat="45.20987" lon="5.98912">
        <ele>1893.4000244</ele>
        <time>2013-04-13T10:31:34Z</time>
      </trkpt>
      <trkpt lat="45.20987" lon="5.98912">
        <ele>1893.4000244</ele>
        <time>2013-04-13T10:31:37Z</time>
      </trkpt>
      <trkpt lat="45.20987" lon="5.98912">
        <ele>1893.4000244</ele>
        <time>2013-04-13T10:31:40Z</time>
      </trkpt>
      <trkpt lat="45.20987" lon="5.98912">
        <ele>1893.4000244</ele>
        <time>2013-04-13T10:31:43Z</time>
      </trkpt>
      <trkpt lat="45.20987" lon="5.98912">
        <ele>1893.4000244</ele>
        <time>2013-04-13T10:31:46Z</time>
      </trkpt>
      <trkpt lat="45.20987" lon="5.98912">
        <ele>1893.4000244</ele>
        <time>2013-04-13T10:31:49Z</time>
      </trkpt>
      <trkpt lat="45.20987" lon="5.98912">
        <ele>1893.4000244</ele>
        <time>2013-04-13T10:31:52Z</time>
      </trkpt>
      <trkpt lat="45.20987" lon="5.98912">
        <ele>1893.4000244</ele>
        <time>2013-04-13T10:31:55Z</time>
      </trkpt>
      <trkpt lat="45.20987" lon="5.98912">
        <ele>1893.4000244</ele>
        <time>2013-04-13T10:31:58Z</time>
      </trkpt>
      <trkpt lat="45.20987" lon="5.98912">
        <ele>1893.4000244</ele>
        <time>2013-04-13T10:32:01Z</time>
      </trkpt>
      <trkpt lat="45.20987" lon="5.98912">
        <ele>1893.4000244</ele>
        <time>2013-04-13T10:32:04Z</time>
      </trkpt>
      <trkpt lat="45.20987" lon="5.98912">
        <ele>1893.4000244</ele>
        <time>2013-04-13T10:32:07Z</time>
      </trkpt>
      <trkpt lat="45.20987" lon="5.98912">
        <ele>1893.4000244</ele>
        <time>2013-04-13T10:32:10Z</time>
      </trkpt>
      <trkpt lat="45.20987" lon="5.98912">
        <ele>1893.4000244</ele>
        <time>2013-04-13T10:32:13Z</time>
      </trkpt>
      <trkpt lat="45.20987" lon="5.98912">
        <ele>1893.4000244</ele>
        <time>2013-04-13T10:32:16Z</time>
      </trkpt>
      <trkpt lat="45.20987" lon="5.98912">
        <ele>1893.4000244</ele>
        <time>2013-04-13T10:32:19Z</time>
      </trkpt>
      <trkpt lat="45.20987" lon="5.98912">
        <ele>1893.4000244</ele>
        <time>2013-04-13T10:32:22Z</time>
      </trkpt>
      <trkpt lat="45.20987" lon="5.98912">
        <ele>1893.4000244</ele>
        <time>2013-04-13T10:32:25Z</time>
      </trkpt>
      <trkpt lat="45.20987" lon="5.98912">
        <ele>1893.4000244</ele>
        <time>2013-04-13T10:32:28Z</time>
      </trkpt>
      <trkpt lat="45.20986" lon="5.98912">
        <ele>1893.4000244</ele>
        <time>2013-04-13T10:32:31Z</time>
      </trkpt>
      <trkpt lat="45.20986" lon="5.98913">
        <ele>1893.4000244</ele>
        <time>2013-04-13T10:32:34Z</time>
      </trkpt>
      <trkpt lat="45.20986" lon="5.98913">
        <ele>1893.4000244</ele>
        <time>2013-04-13T10:32:37Z</time>
      </trkpt>
      <trkpt lat="45.20986" lon="5.98912">
        <ele>1893.4000244</ele>
        <time>2013-04-13T10:32:40Z</time>
      </trkpt>
      <trkpt lat="45.20987" lon="5.98912">
        <ele>1893.4000244</ele>
        <time>2013-04-13T10:32:43Z</time>
      </trkpt>
      <trkpt lat="45.20987" lon="5.98912">
        <ele>1893.4000244</ele>
        <time>2013-04-13T10:32:46Z</time>
      </trkpt>
      <trkpt lat="45.20987" lon="5.98912">
        <ele>1893.4000244</ele>
        <time>2013-04-13T10:32:49Z</time>
      </trkpt>
      <trkpt lat="45.20987" lon="5.98912">
        <ele>1893.4000244</ele>
        <time>2013-04-13T10:32:52Z</time>
      </trkpt>
      <trkpt lat="45.20987" lon="5.98912">
        <ele>1893.4000244</ele>
        <time>2013-04-13T10:32:55Z</time>
      </trkpt>
      <trkpt lat="45.20987" lon="5.98912">
        <ele>1893.4000244</ele>
        <time>2013-04-13T10:32:58Z</time>
      </trkpt>
      <trkpt lat="45.20987" lon="5.98912">
        <ele>1893.4000244</ele>
        <time>2013-04-13T10:33:01Z</time>
      </trkpt>
      <trkpt lat="45.20987" lon="5.98912">
        <ele>1893.4000244</ele>
        <time>2013-04-13T10:33:04Z</time>
      </trkpt>
      <trkpt lat="45.20987" lon="5.98912">
        <ele>1893.4000244</ele>
        <time>2013-04-13T10:33:07Z</time>
      </trkpt>
      <trkpt lat="45.20987" lon="5.98912">
        <ele>1893.4000244</ele>
        <time>2013-04-13T10:33:10Z</time>
      </trkpt>
      <trkpt lat="45.20987" lon="5.98912">
        <ele>1893.4000244</ele>
        <time>2013-04-13T10:33:13Z</time>
      </trkpt>
      <trkpt lat="45.20987" lon="5.98912">
        <ele>1893.4000244</ele>
        <time>2013-04-13T10:33:16Z</time>
      </trkpt>
      <trkpt lat="45.20987" lon="5.98912">
        <ele>1893.4000244</ele>
        <time>2013-04-13T10:33:19Z</time>
      </trkpt>
      <trkpt lat="45.20987" lon="5.98912">
        <ele>1893.4000244</ele>
        <time>2013-04-13T10:33:22Z</time>
      </trkpt>
      <trkpt lat="45.20987" lon="5.98912">
        <ele>1893.4000244</ele>
        <time>2013-04-13T10:33:25Z</time>
      </trkpt>
      <trkpt lat="45.20987" lon="5.98912">
        <ele>1893.4000244</ele>
        <time>2013-04-13T10:33:28Z</time>
      </trkpt>
      <trkpt lat="45.20987" lon="5.98912">
        <ele>1893.4000244</ele>
        <time>2013-04-13T10:33:31Z</time>
      </trkpt>
      <trkpt lat="45.20987" lon="5.98912">
        <ele>1893.4000244</ele>
        <time>2013-04-13T10:33:34Z</time>
      </trkpt>
      <trkpt lat="45.20987" lon="5.98912">
        <ele>1893.4000244</ele>
        <time>2013-04-13T10:33:37Z</time>
      </trkpt>
      <trkpt lat="45.20987" lon="5.98912">
        <ele>1893.4000244</ele>
        <time>2013-04-13T10:33:40Z</time>
      </trkpt>
      <trkpt lat="45.20987" lon="5.98912">
        <ele>1893.4000244</ele>
        <time>2013-04-13T10:33:43Z</time>
      </trkpt>
      <trkpt lat="45.20987" lon="5.98912">
        <ele>1893.4000244</ele>
        <time>2013-04-13T10:33:46Z</time>
      </trkpt>
      <trkpt lat="45.20987" lon="5.98912">
        <ele>1893.4000244</ele>
        <time>2013-04-13T10:33:49Z</time>
      </trkpt>
      <trkpt lat="45.20987" lon="5.98911">
        <ele>1893.4000244</ele>
        <time>2013-04-13T10:33:52Z</time>
      </trkpt>
      <trkpt lat="45.20987" lon="5.98911">
        <ele>1893.4000244</ele>
        <time>2013-04-13T10:33:55Z</time>
      </trkpt>
      <trkpt lat="45.20987" lon="5.98911">
        <ele>1893.4000244</ele>
        <time>2013-04-13T10:33:58Z</time>
      </trkpt>
      <trkpt lat="45.20987" lon="5.98911">
        <ele>1893.4000244</ele>
        <time>2013-04-13T10:34:01Z</time>
      </trkpt>
      <trkpt lat="45.20987" lon="5.98911">
        <ele>1893.4000244</ele>
        <time>2013-04-13T10:34:04Z</time>
      </trkpt>
      <trkpt lat="45.20987" lon="5.98911">
        <ele>1893.4000244</ele>
        <time>2013-04-13T10:34:07Z</time>
      </trkpt>
      <trkpt lat="45.20987" lon="5.98911">
        <ele>1893.4000244</ele>
        <time>2013-04-13T10:34:10Z</time>
      </trkpt>
      <trkpt lat="45.20987" lon="5.98911">
        <ele>1893.4000244</ele>
        <time>2013-04-13T10:34:13Z</time>
      </trkpt>
      <trkpt lat="45.20987" lon="5.98911">
        <ele>1893.4000244</ele>
        <time>2013-04-13T10:34:16Z</time>
      </trkpt>
      <trkpt lat="45.20987" lon="5.98911">
        <ele>1893.4000244</ele>
        <time>2013-04-13T10:34:19Z</time>
      </trkpt>
      <trkpt lat="45.20987" lon="5.98911">
        <ele>1893.4000244</ele>
        <time>2013-04-13T10:34:22Z</time>
      </trkpt>
      <trkpt lat="45.20987" lon="5.98911">
        <ele>1893.4000244</ele>
        <time>2013-04-13T10:34:25Z</time>
      </trkpt>
      <trkpt lat="45.20987" lon="5.98911">
        <ele>1893.4000244</ele>
        <time>2013-04-13T10:34:28Z</time>
      </trkpt>
      <trkpt lat="45.20987" lon="5.98911">
        <ele>1893.4000244</ele>
        <time>2013-04-13T10:34:31Z</time>
      </trkpt>
      <trkpt lat="45.20986" lon="5.98911">
        <ele>1893.4000244</ele>
        <time>2013-04-13T10:34:34Z</time>
      </trkpt>
      <trkpt lat="45.20987" lon="5.9891">
        <ele>1893.4000244</ele>
        <time>2013-04-13T10:34:37Z</time>
      </trkpt>
      <trkpt lat="45.20987" lon="5.9891">
        <ele>1893.4000244</ele>
        <time>2013-04-13T10:34:40Z</time>
      </trkpt>
      <trkpt lat="45.20987" lon="5.9891">
        <ele>1893.4000244</ele>
        <time>2013-04-13T10:34:43Z</time>
      </trkpt>
      <trkpt lat="45.20987" lon="5.9891">
        <ele>1893.4000244</ele>
        <time>2013-04-13T10:34:46Z</time>
      </trkpt>
      <trkpt lat="45.20987" lon="5.9891">
        <ele>1893.4000244</ele>
        <time>2013-04-13T10:34:49Z</time>
      </trkpt>
      <trkpt lat="45.20987" lon="5.9891">
        <ele>1893.4000244</ele>
        <time>2013-04-13T10:34:52Z</time>
      </trkpt>
      <trkpt lat="45.20987" lon="5.9891">
        <ele>1893.4000244</ele>
        <time>2013-04-13T10:34:55Z</time>
      </trkpt>
      <trkpt lat="45.20987" lon="5.9891">
        <ele>1893.4000244</ele>
        <time>2013-04-13T10:34:58Z</time>
      </trkpt>
      <trkpt lat="45.20987" lon="5.9891">
        <ele>1893.4000244</ele>
        <time>2013-04-13T10:35:01Z</time>
      </trkpt>
      <trkpt lat="45.20987" lon="5.9891">
        <ele>1893.4000244</ele>
        <time>2013-04-13T10:35:04Z</time>
      </trkpt>
      <trkpt lat="45.20987" lon="5.9891">
        <ele>1893.4000244</ele>
        <time>2013-04-13T10:35:07Z</time>
      </trkpt>
      <trkpt lat="45.20987" lon="5.9891">
        <ele>1893.4000244</ele>
        <time>2013-04-13T10:35:10Z</time>
      </trkpt>
      <trkpt lat="45.20987" lon="5.9891">
        <ele>1893.4000244</ele>
        <time>2013-04-13T10:35:13Z</time>
      </trkpt>
      <trkpt lat="45.20987" lon="5.9891">
        <ele>1893.4000244</ele>
        <time>2013-04-13T10:35:16Z</time>
      </trkpt>
      <trkpt lat="45.20987" lon="5.9891">
        <ele>1893.4000244</ele>
        <time>2013-04-13T10:35:19Z</time>
      </trkpt>
      <trkpt lat="45.20987" lon="5.9891">
        <ele>1893.4000244</ele>
        <time>2013-04-13T10:35:22Z</time>
      </trkpt>
      <trkpt lat="45.20987" lon="5.98909">
        <ele>1893.4000244</ele>
        <time>2013-04-13T10:35:25Z</time>
      </trkpt>
      <trkpt lat="45.20989" lon="5.98898">
        <ele>1893.4000244</ele>
        <time>2013-04-13T10:35:28Z</time>
      </trkpt>
      <trkpt lat="45.20995" lon="5.98877">
        <ele>1893</ele>
        <time>2013-04-13T10:35:31Z</time>
      </trkpt>
      <trkpt lat="45.21002" lon="5.98849">
        <ele>1891.4000244</ele>
        <time>2013-04-13T10:35:34Z</time>
      </trkpt>
      <trkpt lat="45.21014" lon="5.98827">
        <ele>1888.8000488</ele>
        <time>2013-04-13T10:35:37Z</time>
      </trkpt>
      <trkpt lat="45.21018" lon="5.98808">
        <ele>1885.8000488</ele>
        <time>2013-04-13T10:35:40Z</time>
      </trkpt>
      <trkpt lat="45.2102" lon="5.9879">
        <ele>1882</ele>
        <time>2013-04-13T10:35:43Z</time>
      </trkpt>
      <trkpt lat="45.21024" lon="5.98766">
        <ele>1878.4000244</ele>
        <time>2013-04-13T10:35:46Z</time>
      </trkpt>
      <trkpt lat="45.21027" lon="5.98745">
        <ele>1875</ele>
        <time>2013-04-13T10:35:49Z</time>
      </trkpt>
      <trkpt lat="45.21037" lon="5.98735">
        <ele>1872.4000244</ele>
        <time>2013-04-13T10:35:52Z</time>
      </trkpt>
      <trkpt lat="45.21057" lon="5.98726">
        <ele>1870.4000244</ele>
        <time>2013-04-13T10:35:55Z</time>
      </trkpt>
      <trkpt lat="45.2106" lon="5.98706">
        <ele>1868</ele>
        <time>2013-04-13T10:35:58Z</time>
      </trkpt>
      <trkpt lat="45.2106" lon="5.98706">
        <ele>1865</ele>
        <time>2013-04-13T10:36:01Z</time>
      </trkpt>
      <trkpt lat="45.2106" lon="5.98706">
        <ele>1861.4000244</ele>
        <time>2013-04-13T10:36:04Z</time>
      </trkpt>
      <trkpt lat="45.2106" lon="5.98706">
        <ele>1858.4000244</ele>
        <time>2013-04-13T10:36:07Z</time>
      </trkpt>
      <trkpt lat="45.2106" lon="5.98706">
        <ele>1856</ele>
        <time>2013-04-13T10:36:10Z</time>
      </trkpt>
      <trkpt lat="45.2106" lon="5.98706">
        <ele>1855</ele>
        <time>2013-04-13T10:36:13Z</time>
      </trkpt>
      <trkpt lat="45.2106" lon="5.98706">
        <ele>1854</ele>
        <time>2013-04-13T10:36:16Z</time>
      </trkpt>
      <trkpt lat="45.2106" lon="5.98706">
        <ele>1854</ele>
        <time>2013-04-13T10:36:19Z</time>
      </trkpt>
      <trkpt lat="45.2106" lon="5.98707">
        <ele>1854</ele>
        <time>2013-04-13T10:36:22Z</time>
      </trkpt>
      <trkpt lat="45.2106" lon="5.98707">
        <ele>1853</ele>
        <time>2013-04-13T10:36:25Z</time>
      </trkpt>
      <trkpt lat="45.2106" lon="5.98707">
        <ele>1852.4000244</ele>
        <time>2013-04-13T10:36:28Z</time>
      </trkpt>
      <trkpt lat="45.21059" lon="5.98707">
        <ele>1851.8000488</ele>
        <time>2013-04-13T10:36:31Z</time>
      </trkpt>
      <trkpt lat="45.21059" lon="5.98707">
        <ele>1851.8000488</ele>
        <time>2013-04-13T10:36:34Z</time>
      </trkpt>
      <trkpt lat="45.21059" lon="5.98707">
        <ele>1851.8000488</ele>
        <time>2013-04-13T10:36:37Z</time>
      </trkpt>
      <trkpt lat="45.21059" lon="5.98707">
        <ele>1851</ele>
        <time>2013-04-13T10:36:40Z</time>
      </trkpt>
      <trkpt lat="45.21059" lon="5.98707">
        <ele>1850</ele>
        <time>2013-04-13T10:36:43Z</time>
      </trkpt>
      <trkpt lat="45.21059" lon="5.98707">
        <ele>1849</ele>
        <time>2013-04-13T10:36:46Z</time>
      </trkpt>
      <trkpt lat="45.21059" lon="5.98707">
        <ele>1849</ele>
        <time>2013-04-13T10:36:49Z</time>
      </trkpt>
      <trkpt lat="45.21059" lon="5.98708">
        <ele>1849</ele>
        <time>2013-04-13T10:36:52Z</time>
      </trkpt>
      <trkpt lat="45.21059" lon="5.98708">
        <ele>1849</ele>
        <time>2013-04-13T10:36:55Z</time>
      </trkpt>
      <trkpt lat="45.21058" lon="5.98708">
        <ele>1849</ele>
        <time>2013-04-13T10:36:58Z</time>
      </trkpt>
      <trkpt lat="45.21058" lon="5.98708">
        <ele>1848.4000244</ele>
        <time>2013-04-13T10:37:01Z</time>
      </trkpt>
      <trkpt lat="45.21058" lon="5.98708">
        <ele>1847.4000244</ele>
        <time>2013-04-13T10:37:04Z</time>
      </trkpt>
      <trkpt lat="45.21058" lon="5.98708">
        <ele>1847</ele>
        <time>2013-04-13T10:37:07Z</time>
      </trkpt>
      <trkpt lat="45.21058" lon="5.98708">
        <ele>1847</ele>
        <time>2013-04-13T10:37:10Z</time>
      </trkpt>
      <trkpt lat="45.2106" lon="5.98707">
        <ele>1847</ele>
        <time>2013-04-13T10:37:13Z</time>
      </trkpt>
      <trkpt lat="45.21071" lon="5.98704">
        <ele>1846.8000488</ele>
        <time>2013-04-13T10:37:16Z</time>
      </trkpt>
      <trkpt lat="45.2108" lon="5.98683">
        <ele>1844</ele>
        <time>2013-04-13T10:37:19Z</time>
      </trkpt>
      <trkpt lat="45.21087" lon="5.98663">
        <ele>1837</ele>
        <time>2013-04-13T10:37:22Z</time>
      </trkpt>
      <trkpt lat="45.21093" lon="5.98655">
        <ele>1828</ele>
        <time>2013-04-13T10:37:25Z</time>
      </trkpt>
      <trkpt lat="45.21096" lon="5.98653">
        <ele>1819.4000244</ele>
        <time>2013-04-13T10:37:28Z</time>
      </trkpt>
      <trkpt lat="45.21102" lon="5.98642">
        <ele>1813.4000244</ele>
        <time>2013-04-13T10:37:31Z</time>
      </trkpt>
      <trkpt lat="45.21104" lon="5.98633">
        <ele>1811</ele>
        <time>2013-04-13T10:37:34Z</time>
      </trkpt>
      <trkpt lat="45.21104" lon="5.9863">
        <ele>1809</ele>
        <time>2013-04-13T10:37:37Z</time>
      </trkpt>
      <trkpt lat="45.21105" lon="5.9863">
        <ele>1807.4000244</ele>
        <time>2013-04-13T10:37:40Z</time>
      </trkpt>
      <trkpt lat="45.21105" lon="5.98631">
        <ele>1806</ele>
        <time>2013-04-13T10:37:43Z</time>
      </trkpt>
      <trkpt lat="45.21105" lon="5.98631">
        <ele>1806</ele>
        <time>2013-04-13T10:37:46Z</time>
      </trkpt>
      <trkpt lat="45.21105" lon="5.98631">
        <ele>1806</ele>
        <time>2013-04-13T10:37:49Z</time>
      </trkpt>
      <trkpt lat="45.21105" lon="5.98631">
        <ele>1806</ele>
        <time>2013-04-13T10:37:52Z</time>
      </trkpt>
      <trkpt lat="45.21105" lon="5.9863">
        <ele>1806</ele>
        <time>2013-04-13T10:37:55Z</time>
      </trkpt>
      <trkpt lat="45.21105" lon="5.98628">
        <ele>1806</ele>
        <time>2013-04-13T10:37:58Z</time>
      </trkpt>
      <trkpt lat="45.21104" lon="5.98626">
        <ele>1806</ele>
        <time>2013-04-13T10:38:01Z</time>
      </trkpt>
      <trkpt lat="45.21105" lon="5.98623">
        <ele>1806</ele>
        <time>2013-04-13T10:38:04Z</time>
      </trkpt>
      <trkpt lat="45.21104" lon="5.98617">
        <ele>1805.8000488</ele>
        <time>2013-04-13T10:38:07Z</time>
      </trkpt>
      <trkpt lat="45.21105" lon="5.98606">
        <ele>1804.8000488</ele>
        <time>2013-04-13T10:38:10Z</time>
      </trkpt>
      <trkpt lat="45.21107" lon="5.98584">
        <ele>1803.8000488</ele>
        <time>2013-04-13T10:38:13Z</time>
      </trkpt>
      <trkpt lat="45.21108" lon="5.9858">
        <ele>1802.4000244</ele>
        <time>2013-04-13T10:38:16Z</time>
      </trkpt>
      <trkpt lat="45.21109" lon="5.98582">
        <ele>1800</ele>
        <time>2013-04-13T10:38:19Z</time>
      </trkpt>
      <trkpt lat="45.21109" lon="5.98583">
        <ele>1798.4000244</ele>
        <time>2013-04-13T10:38:22Z</time>
      </trkpt>
      <trkpt lat="45.21109" lon="5.98583">
        <ele>1797</ele>
        <time>2013-04-13T10:38:25Z</time>
      </trkpt>
      <trkpt lat="45.2111" lon="5.98583">
        <ele>1797</ele>
        <time>2013-04-13T10:38:28Z</time>
      </trkpt>
      <trkpt lat="45.21109" lon="5.98584">
        <ele>1797</ele>
        <time>2013-04-13T10:38:31Z</time>
      </trkpt>
      <trkpt lat="45.21109" lon="5.98584">
        <ele>1797</ele>
        <time>2013-04-13T10:38:34Z</time>
      </trkpt>
      <trkpt lat="45.21109" lon="5.98584">
        <ele>1797</ele>
        <time>2013-04-13T10:38:37Z</time>
      </trkpt>
      <trkpt lat="45.21109" lon="5.98585">
        <ele>1797</ele>
        <time>2013-04-13T10:38:40Z</time>
      </trkpt>
      <trkpt lat="45.21112" lon="5.98593">
        <ele>1797</ele>
        <time>2013-04-13T10:38:43Z</time>
      </trkpt>
      <trkpt lat="45.21119" lon="5.98599">
        <ele>1796.4000244</ele>
        <time>2013-04-13T10:38:46Z</time>
      </trkpt>
      <trkpt lat="45.21126" lon="5.98607">
        <ele>1793.4000244</ele>
        <time>2013-04-13T10:38:49Z</time>
      </trkpt>
      <trkpt lat="45.21127" lon="5.98608">
        <ele>1788</ele>
        <time>2013-04-13T10:38:52Z</time>
      </trkpt>
      <trkpt lat="45.21128" lon="5.9861">
        <ele>1784</ele>
        <time>2013-04-13T10:38:55Z</time>
      </trkpt>
      <trkpt lat="45.21134" lon="5.98617">
        <ele>1781.8000488</ele>
        <time>2013-04-13T10:38:58Z</time>
      </trkpt>
      <trkpt lat="45.21142" lon="5.98608">
        <ele>1781.4000244</ele>
        <time>2013-04-13T10:39:01Z</time>
      </trkpt>
      <trkpt lat="45.21147" lon="5.98611">
        <ele>1778.8000488</ele>
        <time>2013-04-13T10:39:04Z</time>
      </trkpt>
      <trkpt lat="45.21147" lon="5.98614">
        <ele>1775.8000488</ele>
        <time>2013-04-13T10:39:07Z</time>
      </trkpt>
      <trkpt lat="45.2115" lon="5.98628">
        <ele>1772</ele>
        <time>2013-04-13T10:39:10Z</time>
      </trkpt>
      <trkpt lat="45.2116" lon="5.98618">
        <ele>1769</ele>
        <time>2013-04-13T10:39:13Z</time>
      </trkpt>
      <trkpt lat="45.21173" lon="5.98605">
        <ele>1764.4000244</ele>
        <time>2013-04-13T10:39:16Z</time>
      </trkpt>
      <trkpt lat="45.21175" lon="5.9862">
        <ele>1759.8000488</ele>
        <time>2013-04-13T10:39:19Z</time>
      </trkpt>
      <trkpt lat="45.21187" lon="5.98619">
        <ele>1755</ele>
        <time>2013-04-13T10:39:22Z</time>
      </trkpt>
      <trkpt lat="45.21195" lon="5.98621">
        <ele>1752.8000488</ele>
        <time>2013-04-13T10:39:25Z</time>
      </trkpt>
      <trkpt lat="45.21196" lon="5.98621">
        <ele>1749</ele>
        <time>2013-04-13T10:39:28Z</time>
      </trkpt>
      <trkpt lat="45.21199" lon="5.98618">
        <ele>1745.8000488</ele>
        <time>2013-04-13T10:39:31Z</time>
      </trkpt>
      <trkpt lat="45.21204" lon="5.98614">
        <ele>1744</ele>
        <time>2013-04-13T10:39:34Z</time>
      </trkpt>
      <trkpt lat="45.21211" lon="5.98614">
        <ele>1743</ele>
        <time>2013-04-13T10:39:37Z</time>
      </trkpt>
      <trkpt lat="45.21218" lon="5.98611">
        <ele>1742</ele>
        <time>2013-04-13T10:39:40Z</time>
      </trkpt>
      <trkpt lat="45.2122" lon="5.98603">
        <ele>1741</ele>
        <time>2013-04-13T10:39:43Z</time>
      </trkpt>
      <trkpt lat="45.21221" lon="5.98595">
        <ele>1738</ele>
        <time>2013-04-13T10:39:46Z</time>
      </trkpt>
      <trkpt lat="45.21221" lon="5.98594">
        <ele>1735</ele>
        <time>2013-04-13T10:39:49Z</time>
      </trkpt>
      <trkpt lat="45.21221" lon="5.98595">
        <ele>1731</ele>
        <time>2013-04-13T10:39:52Z</time>
      </trkpt>
      <trkpt lat="45.21221" lon="5.98597">
        <ele>1728</ele>
        <time>2013-04-13T10:39:55Z</time>
      </trkpt>
      <trkpt lat="45.21222" lon="5.98595">
        <ele>1724.8000488</ele>
        <time>2013-04-13T10:39:58Z</time>
      </trkpt>
      <trkpt lat="45.21217" lon="5.98592">
        <ele>1723.4000244</ele>
        <time>2013-04-13T10:40:01Z</time>
      </trkpt>
      <trkpt lat="45.21216" lon="5.98592">
        <ele>1722</ele>
        <time>2013-04-13T10:40:04Z</time>
      </trkpt>
      <trkpt lat="45.21216" lon="5.98591">
        <ele>1720.8000488</ele>
        <time>2013-04-13T10:40:07Z</time>
      </trkpt>
      <trkpt lat="45.21219" lon="5.98581">
        <ele>1720.8000488</ele>
        <time>2013-04-13T10:40:10Z</time>
      </trkpt>
      <trkpt lat="45.21222" lon="5.98564">
        <ele>1720.8000488</ele>
        <time>2013-04-13T10:40:13Z</time>
      </trkpt>
      <trkpt lat="45.21223" lon="5.98542">
        <ele>1720</ele>
        <time>2013-04-13T10:40:16Z</time>
      </trkpt>
      <trkpt lat="45.21224" lon="5.98525">
        <ele>1717.4000244</ele>
        <time>2013-04-13T10:40:19Z</time>
      </trkpt>
      <trkpt lat="45.21222" lon="5.98513">
        <ele>1714.4000244</ele>
        <time>2013-04-13T10:40:22Z</time>
      </trkpt>
      <trkpt lat="45.21219" lon="5.98505">
        <ele>1712.8000488</ele>
        <time>2013-04-13T10:40:25Z</time>
      </trkpt>
      <trkpt lat="45.21217" lon="5.9849">
        <ele>1711</ele>
        <time>2013-04-13T10:40:28Z</time>
      </trkpt>
      <trkpt lat="45.21216" lon="5.98486">
        <ele>1709.4000244</ele>
        <time>2013-04-13T10:40:31Z</time>
      </trkpt>
      <trkpt lat="45.21216" lon="5.98476">
        <ele>1707.4000244</ele>
        <time>2013-04-13T10:40:34Z</time>
      </trkpt>
      <trkpt lat="45.21215" lon="5.9847">
        <ele>1705</ele>
        <time>2013-04-13T10:40:37Z</time>
      </trkpt>
      <trkpt lat="45.21215" lon="5.98471">
        <ele>1703</ele>
        <time>2013-04-13T10:40:40Z</time>
      </trkpt>
      <trkpt lat="45.21215" lon="5.98471">
        <ele>1701.4000244</ele>
        <time>2013-04-13T10:40:43Z</time>
      </trkpt>
      <trkpt lat="45.21215" lon="5.9847">
        <ele>1701.4000244</ele>
        <time>2013-04-13T10:40:46Z</time>
      </trkpt>
      <trkpt lat="45.21214" lon="5.98457">
        <ele>1701.4000244</ele>
        <time>2013-04-13T10:40:49Z</time>
      </trkpt>
      <trkpt lat="45.21219" lon="5.98445">
        <ele>1701.4000244</ele>
        <time>2013-04-13T10:40:52Z</time>
      </trkpt>
      <trkpt lat="45.21225" lon="5.98435">
        <ele>1701.4000244</ele>
        <time>2013-04-13T10:40:55Z</time>
      </trkpt>
      <trkpt lat="45.21232" lon="5.98431">
        <ele>1700</ele>
        <time>2013-04-13T10:40:58Z</time>
      </trkpt>
      <trkpt lat="45.21232" lon="5.98441">
        <ele>1698</ele>
        <time>2013-04-13T10:41:01Z</time>
      </trkpt>
      <trkpt lat="45.21239" lon="5.9844">
        <ele>1696</ele>
        <time>2013-04-13T10:41:04Z</time>
      </trkpt>
      <trkpt lat="45.21249" lon="5.98441">
        <ele>1693.4000244</ele>
        <time>2013-04-13T10:41:07Z</time>
      </trkpt>
      <trkpt lat="45.21255" lon="5.9844">
        <ele>1689</ele>
        <time>2013-04-13T10:41:10Z</time>
      </trkpt>
      <trkpt lat="45.21256" lon="5.98438">
        <ele>1685.4000244</ele>
        <time>2013-04-13T10:41:13Z</time>
      </trkpt>
      <trkpt lat="45.21258" lon="5.98444">
        <ele>1681.4000244</ele>
        <time>2013-04-13T10:41:16Z</time>
      </trkpt>
      <trkpt lat="45.21271" lon="5.98445">
        <ele>1678.8000488</ele>
        <time>2013-04-13T10:41:19Z</time>
      </trkpt>
      <trkpt lat="45.21276" lon="5.98463">
        <ele>1675</ele>
        <time>2013-04-13T10:41:22Z</time>
      </trkpt>
      <trkpt lat="45.21283" lon="5.98461">
        <ele>1673</ele>
        <time>2013-04-13T10:41:25Z</time>
      </trkpt>
      <trkpt lat="45.21295" lon="5.98444">
        <ele>1667.8000488</ele>
        <time>2013-04-13T10:41:28Z</time>
      </trkpt>
      <trkpt lat="45.21299" lon="5.9845">
        <ele>1663.4000244</ele>
        <time>2013-04-13T10:41:31Z</time>
      </trkpt>
      <trkpt lat="45.21307" lon="5.98458">
        <ele>1658.4000244</ele>
        <time>2013-04-13T10:41:34Z</time>
      </trkpt>
      <trkpt lat="45.2132" lon="5.98458">
        <ele>1653.8000488</ele>
        <time>2013-04-13T10:41:37Z</time>
      </trkpt>
      <trkpt lat="45.21332" lon="5.98453">
        <ele>1648.4000244</ele>
        <time>2013-04-13T10:41:40Z</time>
      </trkpt>
      <trkpt lat="45.21331" lon="5.98467">
        <ele>1643</ele>
        <time>2013-04-13T10:41:43Z</time>
      </trkpt>
      <trkpt lat="45.2133" lon="5.98467">
        <ele>1634</ele>
        <time>2013-04-13T10:41:46Z</time>
      </trkpt>
      <trkpt lat="45.21331" lon="5.98467">
        <ele>1627.4000244</ele>
        <time>2013-04-13T10:41:49Z</time>
      </trkpt>
      <trkpt lat="45.2133" lon="5.98469">
        <ele>1623</ele>
        <time>2013-04-13T10:41:52Z</time>
      </trkpt>
      <trkpt lat="45.2133" lon="5.9848">
        <ele>1621</ele>
        <time>2013-04-13T10:41:55Z</time>
      </trkpt>
      <trkpt lat="45.21338" lon="5.98488">
        <ele>1619.4000244</ele>
        <time>2013-04-13T10:41:58Z</time>
      </trkpt>
      <trkpt lat="45.21345" lon="5.985">
        <ele>1617.4000244</ele>
        <time>2013-04-13T10:42:01Z</time>
      </trkpt>
      <trkpt lat="45.21356" lon="5.98503">
        <ele>1613</ele>
        <time>2013-04-13T10:42:04Z</time>
      </trkpt>
      <trkpt lat="45.21366" lon="5.98513">
        <ele>1605.4000244</ele>
        <time>2013-04-13T10:42:07Z</time>
      </trkpt>
      <trkpt lat="45.21372" lon="5.98523">
        <ele>1597</ele>
        <time>2013-04-13T10:42:10Z</time>
      </trkpt>
      <trkpt lat="45.21381" lon="5.98527">
        <ele>1590.8000488</ele>
        <time>2013-04-13T10:42:13Z</time>
      </trkpt>
      <trkpt lat="45.21397" lon="5.98521">
        <ele>1585.4000244</ele>
        <time>2013-04-13T10:42:16Z</time>
      </trkpt>
      <trkpt lat="45.214" lon="5.98515">
        <ele>1581.4000244</ele>
        <time>2013-04-13T10:42:19Z</time>
      </trkpt>
      <trkpt lat="45.21407" lon="5.98525">
        <ele>1577</ele>
        <time>2013-04-13T10:42:22Z</time>
      </trkpt>
      <trkpt lat="45.21414" lon="5.98519">
        <ele>1573</ele>
        <time>2013-04-13T10:42:25Z</time>
      </trkpt>
      <trkpt lat="45.21414" lon="5.98518">
        <ele>1568.4000244</ele>
        <time>2013-04-13T10:42:28Z</time>
      </trkpt>
      <trkpt lat="45.21413" lon="5.98519">
        <ele>1563</ele>
        <time>2013-04-13T10:42:31Z</time>
      </trkpt>
      <trkpt lat="45.21413" lon="5.98519">
        <ele>1560</ele>
        <time>2013-04-13T10:42:34Z</time>
      </trkpt>
      <trkpt lat="45.21414" lon="5.98519">
        <ele>1558.8000488</ele>
        <time>2013-04-13T10:42:37Z</time>
      </trkpt>
      <trkpt lat="45.21414" lon="5.9852">
        <ele>1558.4000244</ele>
        <time>2013-04-13T10:42:40Z</time>
      </trkpt>
      <trkpt lat="45.21415" lon="5.9852">
        <ele>1558.4000244</ele>
        <time>2013-04-13T10:42:43Z</time>
      </trkpt>
      <trkpt lat="45.21415" lon="5.9852">
        <ele>1558.4000244</ele>
        <time>2013-04-13T10:42:46Z</time>
      </trkpt>
      <trkpt lat="45.21415" lon="5.98521">
        <ele>1557.4000244</ele>
        <time>2013-04-13T10:42:49Z</time>
      </trkpt>
      <trkpt lat="45.21416" lon="5.98521">
        <ele>1556.4000244</ele>
        <time>2013-04-13T10:42:52Z</time>
      </trkpt>
      <trkpt lat="45.21416" lon="5.98521">
        <ele>1556.4000244</ele>
        <time>2013-04-13T10:42:55Z</time>
      </trkpt>
      <trkpt lat="45.21416" lon="5.98521">
        <ele>1556.4000244</ele>
        <time>2013-04-13T10:42:58Z</time>
      </trkpt>
      <trkpt lat="45.21416" lon="5.98522">
        <ele>1556.4000244</ele>
        <time>2013-04-13T10:43:01Z</time>
      </trkpt>
      <trkpt lat="45.2142" lon="5.98518">
        <ele>1556.4000244</ele>
        <time>2013-04-13T10:43:04Z</time>
      </trkpt>
      <trkpt lat="45.21425" lon="5.98532">
        <ele>1556.4000244</ele>
        <time>2013-04-13T10:43:07Z</time>
      </trkpt>
      <trkpt lat="45.21436" lon="5.98547">
        <ele>1554.4000244</ele>
        <time>2013-04-13T10:43:10Z</time>
      </trkpt>
      <trkpt lat="45.2145" lon="5.98557">
        <ele>1551.4000244</ele>
        <time>2013-04-13T10:43:13Z</time>
      </trkpt>
      <trkpt lat="45.21468" lon="5.98555">
        <ele>1545</ele>
        <time>2013-04-13T10:43:16Z</time>
      </trkpt>
      <trkpt lat="45.21484" lon="5.98558">
        <ele>1536.4000244</ele>
        <time>2013-04-13T10:43:19Z</time>
      </trkpt>
      <trkpt lat="45.21482" lon="5.98558">
        <ele>1527.4000244</ele>
        <time>2013-04-13T10:43:22Z</time>
      </trkpt>
      <trkpt lat="45.21482" lon="5.98559">
        <ele>1522.4000244</ele>
        <time>2013-04-13T10:43:25Z</time>
      </trkpt>
      <trkpt lat="45.21479" lon="5.98562">
        <ele>1517.4000244</ele>
        <time>2013-04-13T10:43:28Z</time>
      </trkpt>
      <trkpt lat="45.21478" lon="5.98577">
        <ele>1517.4000244</ele>
        <time>2013-04-13T10:43:31Z</time>
      </trkpt>
      <trkpt lat="45.21489" lon="5.98593">
        <ele>1516</ele>
        <time>2013-04-13T10:43:34Z</time>
      </trkpt>
      <trkpt lat="45.21489" lon="5.98607">
        <ele>1513</ele>
        <time>2013-04-13T10:43:37Z</time>
      </trkpt>
      <trkpt lat="45.21499" lon="5.98621">
        <ele>1507.8000488</ele>
        <time>2013-04-13T10:43:40Z</time>
      </trkpt>
      <trkpt lat="45.21506" lon="5.98618">
        <ele>1501.4000244</ele>
        <time>2013-04-13T10:43:43Z</time>
      </trkpt>
      <trkpt lat="45.21505" lon="5.98618">
        <ele>1494.8000488</ele>
        <time>2013-04-13T10:43:46Z</time>
      </trkpt>
      <trkpt lat="45.21505" lon="5.98618">
        <ele>1491.4000244</ele>
        <time>2013-04-13T10:43:49Z</time>
      </trkpt>
      <trkpt lat="45.21504" lon="5.98618">
        <ele>1489.8000488</ele>
        <time>2013-04-13T10:43:52Z</time>
      </trkpt>
      <trkpt lat="45.21503" lon="5.98618">
        <ele>1489.8000488</ele>
        <time>2013-04-13T10:43:55Z</time>
      </trkpt>
      <trkpt lat="45.21503" lon="5.98618">
        <ele>1489.8000488</ele>
        <time>2013-04-13T10:43:58Z</time>
      </trkpt>
      <trkpt lat="45.21503" lon="5.98618">
        <ele>1487.4000244</ele>
        <time>2013-04-13T10:44:01Z</time>
      </trkpt>
      <trkpt lat="45.21503" lon="5.98619">
        <ele>1487.4000244</ele>
        <time>2013-04-13T10:44:04Z</time>
      </trkpt>
      <trkpt lat="45.21502" lon="5.98619">
        <ele>1487.4000244</ele>
        <time>2013-04-13T10:44:07Z</time>
      </trkpt>
      <trkpt lat="45.21502" lon="5.98619">
        <ele>1487.4000244</ele>
        <time>2013-04-13T10:44:10Z</time>
      </trkpt>
      <trkpt lat="45.21502" lon="5.98619">
        <ele>1487.4000244</ele>
        <time>2013-04-13T10:44:13Z</time>
      </trkpt>
      <trkpt lat="45.21501" lon="5.98621">
        <ele>1487.4000244</ele>
        <time>2013-04-13T10:44:16Z</time>
      </trkpt>
      <trkpt lat="45.21501" lon="5.98621">
        <ele>1487.4000244</ele>
        <time>2013-04-13T10:44:19Z</time>
      </trkpt>
      <trkpt lat="45.215" lon="5.98621">
        <ele>1487.4000244</ele>
        <time>2013-04-13T10:44:22Z</time>
      </trkpt>
      <trkpt lat="45.215" lon="5.98621">
        <ele>1487.4000244</ele>
        <time>2013-04-13T10:44:25Z</time>
      </trkpt>
      <trkpt lat="45.215" lon="5.98621">
        <ele>1487.4000244</ele>
        <time>2013-04-13T10:44:28Z</time>
      </trkpt>
      <trkpt lat="45.215" lon="5.98621">
        <ele>1487.4000244</ele>
        <time>2013-04-13T10:44:31Z</time>
      </trkpt>
      <trkpt lat="45.215" lon="5.98622">
        <ele>1487.4000244</ele>
        <time>2013-04-13T10:44:34Z</time>
      </trkpt>
      <trkpt lat="45.215" lon="5.98622">
        <ele>1487.4000244</ele>
        <time>2013-04-13T10:44:37Z</time>
      </trkpt>
      <trkpt lat="45.215" lon="5.98622">
        <ele>1487.4000244</ele>
        <time>2013-04-13T10:44:40Z</time>
      </trkpt>
      <trkpt lat="45.215" lon="5.98622">
        <ele>1487.4000244</ele>
        <time>2013-04-13T10:44:43Z</time>
      </trkpt>
      <trkpt lat="45.21499" lon="5.98622">
        <ele>1487.4000244</ele>
        <time>2013-04-13T10:44:46Z</time>
      </trkpt>
      <trkpt lat="45.21499" lon="5.98622">
        <ele>1487.4000244</ele>
        <time>2013-04-13T10:44:49Z</time>
      </trkpt>
      <trkpt lat="45.21499" lon="5.98622">
        <ele>1487.4000244</ele>
        <time>2013-04-13T10:44:52Z</time>
      </trkpt>
      <trkpt lat="45.21499" lon="5.98622">
        <ele>1487.4000244</ele>
        <time>2013-04-13T10:44:55Z</time>
      </trkpt>
      <trkpt lat="45.21495" lon="5.9863">
        <ele>1487.4000244</ele>
        <time>2013-04-13T10:44:58Z</time>
      </trkpt>
      <trkpt lat="45.21495" lon="5.98649">
        <ele>1487.4000244</ele>
        <time>2013-04-13T10:45:01Z</time>
      </trkpt>
      <trkpt lat="45.21507" lon="5.98657">
        <ele>1486.8000488</ele>
        <time>2013-04-13T10:45:04Z</time>
      </trkpt>
      <trkpt lat="45.21517" lon="5.98675">
        <ele>1483.4000244</ele>
        <time>2013-04-13T10:45:07Z</time>
      </trkpt>
      <trkpt lat="45.21531" lon="5.98684">
        <ele>1478.8000488</ele>
        <time>2013-04-13T10:45:10Z</time>
      </trkpt>
      <trkpt lat="45.21538" lon="5.98705">
        <ele>1473.4000244</ele>
        <time>2013-04-13T10:45:13Z</time>
      </trkpt>
      <trkpt lat="45.2155" lon="5.9872">
        <ele>1467</ele>
        <time>2013-04-13T10:45:16Z</time>
      </trkpt>
      <trkpt lat="45.2156" lon="5.98736">
        <ele>1458.8000488</ele>
        <time>2013-04-13T10:45:19Z</time>
      </trkpt>
      <trkpt lat="45.21574" lon="5.98747">
        <ele>1455.8000488</ele>
        <time>2013-04-13T10:45:22Z</time>
      </trkpt>
      <trkpt lat="45.21573" lon="5.98759">
        <ele>1452.8000488</ele>
        <time>2013-04-13T10:45:25Z</time>
      </trkpt>
      <trkpt lat="45.21572" lon="5.98759">
        <ele>1448</ele>
        <time>2013-04-13T10:45:28Z</time>
      </trkpt>
      <trkpt lat="45.21573" lon="5.98758">
        <ele>1444.4000244</ele>
        <time>2013-04-13T10:45:31Z</time>
      </trkpt>
      <trkpt lat="45.21572" lon="5.98761">
        <ele>1440.8000488</ele>
        <time>2013-04-13T10:45:34Z</time>
      </trkpt>
      <trkpt lat="45.21571" lon="5.98761">
        <ele>1440.8000488</ele>
        <time>2013-04-13T10:45:37Z</time>
      </trkpt>
      <trkpt lat="45.2157" lon="5.98761">
        <ele>1440.8000488</ele>
        <time>2013-04-13T10:45:40Z</time>
      </trkpt>
      <trkpt lat="45.2157" lon="5.98761">
        <ele>1440.4000244</ele>
        <time>2013-04-13T10:45:43Z</time>
      </trkpt>
      <trkpt lat="45.2157" lon="5.98761">
        <ele>1439.4000244</ele>
        <time>2013-04-13T10:45:46Z</time>
      </trkpt>
      <trkpt lat="45.2157" lon="5.98761">
        <ele>1438.8000488</ele>
        <time>2013-04-13T10:45:49Z</time>
      </trkpt>
      <trkpt lat="45.2157" lon="5.98761">
        <ele>1438.8000488</ele>
        <time>2013-04-13T10:45:52Z</time>
      </trkpt>
      <trkpt lat="45.21571" lon="5.98763">
        <ele>1438.8000488</ele>
        <time>2013-04-13T10:45:55Z</time>
      </trkpt>
      <trkpt lat="45.21577" lon="5.98779">
        <ele>1438</ele>
        <time>2013-04-13T10:45:58Z</time>
      </trkpt>
      <trkpt lat="45.21586" lon="5.98796">
        <ele>1436.4000244</ele>
        <time>2013-04-13T10:46:01Z</time>
      </trkpt>
      <trkpt lat="45.21594" lon="5.98813">
        <ele>1433.4000244</ele>
        <time>2013-04-13T10:46:04Z</time>
      </trkpt>
      <trkpt lat="45.21602" lon="5.9883">
        <ele>1430.4000244</ele>
        <time>2013-04-13T10:46:07Z</time>
      </trkpt>
      <trkpt lat="45.21611" lon="5.9885">
        <ele>1426.8000488</ele>
        <time>2013-04-13T10:46:10Z</time>
      </trkpt>
      <trkpt lat="45.2162" lon="5.98875">
        <ele>1422.4000244</ele>
        <time>2013-04-13T10:46:13Z</time>
      </trkpt>
      <trkpt lat="45.21632" lon="5.98897">
        <ele>1418</ele>
        <time>2013-04-13T10:46:16Z</time>
      </trkpt>
      <trkpt lat="45.21647" lon="5.98925">
        <ele>1414</ele>
        <time>2013-04-13T10:46:19Z</time>
      </trkpt>
      <trkpt lat="45.2166" lon="5.98939">
        <ele>1409</ele>
        <time>2013-04-13T10:46:22Z</time>
      </trkpt>
      <trkpt lat="45.21666" lon="5.98937">
        <ele>1405.4000244</ele>
        <time>2013-04-13T10:46:25Z</time>
      </trkpt>
      <trkpt lat="45.21679" lon="5.98951">
        <ele>1400.8000488</ele>
        <time>2013-04-13T10:46:28Z</time>
      </trkpt>
      <trkpt lat="45.2169" lon="5.98966">
        <ele>1397.4000244</ele>
        <time>2013-04-13T10:46:31Z</time>
      </trkpt>
      <trkpt lat="45.21699" lon="5.98981">
        <ele>1394</ele>
        <time>2013-04-13T10:46:34Z</time>
      </trkpt>
      <trkpt lat="45.21707" lon="5.99001">
        <ele>1390.4000244</ele>
        <time>2013-04-13T10:46:37Z</time>
      </trkpt>
      <trkpt lat="45.21718" lon="5.99023">
        <ele>1389.4000244</ele>
        <time>2013-04-13T10:46:40Z</time>
      </trkpt>
      <trkpt lat="45.21729" lon="5.99039">
        <ele>1389.4000244</ele>
        <time>2013-04-13T10:46:43Z</time>
      </trkpt>
      <trkpt lat="45.21741" lon="5.99061">
        <ele>1388.4000244</ele>
        <time>2013-04-13T10:46:46Z</time>
      </trkpt>
      <trkpt lat="45.21753" lon="5.99076">
        <ele>1387.4000244</ele>
        <time>2013-04-13T10:46:49Z</time>
      </trkpt>
      <trkpt lat="45.21755" lon="5.99082">
        <ele>1386.4000244</ele>
        <time>2013-04-13T10:46:52Z</time>
      </trkpt>
      <trkpt lat="45.21754" lon="5.99081">
        <ele>1385.4000244</ele>
        <time>2013-04-13T10:46:55Z</time>
      </trkpt>
      <trkpt lat="45.21754" lon="5.99081">
        <ele>1383.4000244</ele>
        <time>2013-04-13T10:46:58Z</time>
      </trkpt>
      <trkpt lat="45.21753" lon="5.99084">
        <ele>1381</ele>
        <time>2013-04-13T10:47:01Z</time>
      </trkpt>
      <trkpt lat="45.21757" lon="5.9908">
        <ele>1377.4000244</ele>
        <time>2013-04-13T10:47:04Z</time>
      </trkpt>
      <trkpt lat="45.21755" lon="5.99075">
        <ele>1377.4000244</ele>
        <time>2013-04-13T10:47:07Z</time>
      </trkpt>
      <trkpt lat="45.21755" lon="5.99074">
        <ele>1377.4000244</ele>
        <time>2013-04-13T10:47:10Z</time>
      </trkpt>
      <trkpt lat="45.21756" lon="5.99074">
        <ele>1377.4000244</ele>
        <time>2013-04-13T10:47:13Z</time>
      </trkpt>
      <trkpt lat="45.21755" lon="5.99074">
        <ele>1377.4000244</ele>
        <time>2013-04-13T10:47:16Z</time>
      </trkpt>
      <trkpt lat="45.21756" lon="5.99073">
        <ele>1377</ele>
        <time>2013-04-13T10:47:19Z</time>
      </trkpt>
      <trkpt lat="45.21756" lon="5.99075">
        <ele>1375.8000488</ele>
        <time>2013-04-13T10:47:22Z</time>
      </trkpt>
      <trkpt lat="45.21762" lon="5.99078">
        <ele>1375.4000244</ele>
        <time>2013-04-13T10:47:25Z</time>
      </trkpt>
      <trkpt lat="45.21767" lon="5.99084">
        <ele>1375</ele>
        <time>2013-04-13T10:47:28Z</time>
      </trkpt>
      <trkpt lat="45.21771" lon="5.99092">
        <ele>1373.8000488</ele>
        <time>2013-04-13T10:47:31Z</time>
      </trkpt>
      <trkpt lat="45.21772" lon="5.99095">
        <ele>1373.4000244</ele>
        <time>2013-04-13T10:47:34Z</time>
      </trkpt>
      <trkpt lat="45.21775" lon="5.99097">
        <ele>1372.8000488</ele>
        <time>2013-04-13T10:47:37Z</time>
      </trkpt>
      <trkpt lat="45.21776" lon="5.99101">
        <ele>1372</ele>
        <time>2013-04-13T10:47:40Z</time>
      </trkpt>
      <trkpt lat="45.21778" lon="5.99103">
        <ele>1371.4000244</ele>
        <time>2013-04-13T10:47:43Z</time>
      </trkpt>
      <trkpt lat="45.21778" lon="5.99106">
        <ele>1371.4000244</ele>
        <time>2013-04-13T10:47:46Z</time>
      </trkpt>
      <trkpt lat="45.21778" lon="5.99106">
        <ele>1371.4000244</ele>
        <time>2013-04-13T10:47:49Z</time>
      </trkpt>
      <trkpt lat="45.21778" lon="5.99107">
        <ele>1371.4000244</ele>
        <time>2013-04-13T10:47:52Z</time>
      </trkpt>
      <trkpt lat="45.21778" lon="5.99107">
        <ele>1371.4000244</ele>
        <time>2013-04-13T10:47:55Z</time>
      </trkpt>
      <trkpt lat="45.21777" lon="5.99108">
        <ele>1371.4000244</ele>
        <time>2013-04-13T10:47:58Z</time>
      </trkpt>
      <trkpt lat="45.21776" lon="5.99107">
        <ele>1370.8000488</ele>
        <time>2013-04-13T10:48:01Z</time>
      </trkpt>
      <trkpt lat="45.21775" lon="5.99107">
        <ele>1369.8000488</ele>
        <time>2013-04-13T10:48:04Z</time>
      </trkpt>
      <trkpt lat="45.21776" lon="5.99108">
        <ele>1369.4000244</ele>
        <time>2013-04-13T10:48:07Z</time>
      </trkpt>
      <trkpt lat="45.21773" lon="5.99105">
        <ele>1369.4000244</ele>
        <time>2013-04-13T10:48:10Z</time>
      </trkpt>
      <trkpt lat="45.21771" lon="5.9911">
        <ele>1369.4000244</ele>
        <time>2013-04-13T10:48:13Z</time>
      </trkpt>
      <trkpt lat="45.21769" lon="5.99111">
        <ele>1369.4000244</ele>
        <time>2013-04-13T10:48:16Z</time>
      </trkpt>
      <trkpt lat="45.21767" lon="5.99113">
        <ele>1369.4000244</ele>
        <time>2013-04-13T10:48:19Z</time>
      </trkpt>
      <trkpt lat="45.21765" lon="5.99117">
        <ele>1369.4000244</ele>
        <time>2013-04-13T10:48:22Z</time>
      </trkpt>
      <trkpt lat="45.21764" lon="5.99119">
        <ele>1369.4000244</ele>
        <time>2013-04-13T10:48:25Z</time>
      </trkpt>
      <trkpt lat="45.21764" lon="5.9912">
        <ele>1369.4000244</ele>
        <time>2013-04-13T10:48:28Z</time>
      </trkpt>
      <trkpt lat="45.21764" lon="5.99122">
        <ele>1369.4000244</ele>
        <time>2013-04-13T10:48:31Z</time>
      </trkpt>
      <trkpt lat="45.21764" lon="5.99123">
        <ele>1369.4000244</ele>
        <time>2013-04-13T10:48:34Z</time>
      </trkpt>
      <trkpt lat="45.21763" lon="5.99125">
        <ele>1370</ele>
        <time>2013-04-13T10:48:37Z</time>
      </trkpt>
      <trkpt lat="45.21763" lon="5.99125">
        <ele>1371</ele>
        <time>2013-04-13T10:48:40Z</time>
      </trkpt>
      <trkpt lat="45.21763" lon="5.99125">
        <ele>1371.4000244</ele>
        <time>2013-04-13T10:48:43Z</time>
      </trkpt>
      <trkpt lat="45.21762" lon="5.99127">
        <ele>1371.4000244</ele>
        <time>2013-04-13T10:48:46Z</time>
      </trkpt>
      <trkpt lat="45.21762" lon="5.99128">
        <ele>1371.4000244</ele>
        <time>2013-04-13T10:48:49Z</time>
      </trkpt>
      <trkpt lat="45.21762" lon="5.99127">
        <ele>1371.4000244</ele>
        <time>2013-04-13T10:48:52Z</time>
      </trkpt>
      <trkpt lat="45.21762" lon="5.99128">
        <ele>1371.4000244</ele>
        <time>2013-04-13T10:48:55Z</time>
      </trkpt>
      <trkpt lat="45.21762" lon="5.99128">
        <ele>1371.4000244</ele>
        <time>2013-04-13T10:48:58Z</time>
      </trkpt>
      <trkpt lat="45.21762" lon="5.9913">
        <ele>1371.4000244</ele>
        <time>2013-04-13T10:49:01Z</time>
      </trkpt>
      <trkpt lat="45.21764" lon="5.99133">
        <ele>1371.4000244</ele>
        <time>2013-04-13T10:49:04Z</time>
      </trkpt>
      <trkpt lat="45.21768" lon="5.99136">
        <ele>1371.4000244</ele>
        <time>2013-04-13T10:49:07Z</time>
      </trkpt>
      <trkpt lat="45.21767" lon="5.99136">
        <ele>1371.4000244</ele>
        <time>2013-04-13T10:49:10Z</time>
      </trkpt>
      <trkpt lat="45.21768" lon="5.99138">
        <ele>1371.4000244</ele>
        <time>2013-04-13T10:49:13Z</time>
      </trkpt>
      <trkpt lat="45.21768" lon="5.9914">
        <ele>1371.4000244</ele>
        <time>2013-04-13T10:49:16Z</time>
      </trkpt>
      <trkpt lat="45.2177" lon="5.99142">
        <ele>1371.4000244</ele>
        <time>2013-04-13T10:49:19Z</time>
      </trkpt>
      <trkpt lat="45.21774" lon="5.99147">
        <ele>1371.4000244</ele>
        <time>2013-04-13T10:49:22Z</time>
      </trkpt>
      <trkpt lat="45.21778" lon="5.99152">
        <ele>1371.4000244</ele>
        <time>2013-04-13T10:49:25Z</time>
      </trkpt>
      <trkpt lat="45.21784" lon="5.99158">
        <ele>1371.4000244</ele>
        <time>2013-04-13T10:49:28Z</time>
      </trkpt>
      <trkpt lat="45.21792" lon="5.99169">
        <ele>1371</ele>
        <time>2013-04-13T10:49:31Z</time>
      </trkpt>
      <trkpt lat="45.21798" lon="5.99181">
        <ele>1370</ele>
        <time>2013-04-13T10:49:34Z</time>
      </trkpt>
      <trkpt lat="45.21801" lon="5.99184">
        <ele>1368.4000244</ele>
        <time>2013-04-13T10:49:37Z</time>
      </trkpt>
      <trkpt lat="45.21803" lon="5.99185">
        <ele>1367.4000244</ele>
        <time>2013-04-13T10:49:40Z</time>
      </trkpt>
      <trkpt lat="45.21805" lon="5.9919">
        <ele>1367.4000244</ele>
        <time>2013-04-13T10:49:43Z</time>
      </trkpt>
      <trkpt lat="45.21808" lon="5.99203">
        <ele>1367.4000244</ele>
        <time>2013-04-13T10:49:46Z</time>
      </trkpt>
      <trkpt lat="45.21812" lon="5.99214">
        <ele>1367</ele>
        <time>2013-04-13T10:49:49Z</time>
      </trkpt>
      <trkpt lat="45.21816" lon="5.99223">
        <ele>1365.8000488</ele>
        <time>2013-04-13T10:49:52Z</time>
      </trkpt>
      <trkpt lat="45.2182" lon="5.99232">
        <ele>1365.4000244</ele>
        <time>2013-04-13T10:49:55Z</time>
      </trkpt>
      <trkpt lat="45.21827" lon="5.99244">
        <ele>1365.4000244</ele>
        <time>2013-04-13T10:49:58Z</time>
      </trkpt>
      <trkpt lat="45.21833" lon="5.9926">
        <ele>1364</ele>
        <time>2013-04-13T10:50:01Z</time>
      </trkpt>
      <trkpt lat="45.21838" lon="5.99273">
        <ele>1362.8000488</ele>
        <time>2013-04-13T10:50:04Z</time>
      </trkpt>
      <trkpt lat="45.21841" lon="5.99279">
        <ele>1361.8000488</ele>
        <time>2013-04-13T10:50:07Z</time>
      </trkpt>
      <trkpt lat="45.21844" lon="5.99282">
        <ele>1361</ele>
        <time>2013-04-13T10:50:10Z</time>
      </trkpt>
      <trkpt lat="45.21845" lon="5.99287">
        <ele>1361</ele>
        <time>2013-04-13T10:50:13Z</time>
      </trkpt>
      <trkpt lat="45.21846" lon="5.99291">
        <ele>1361</ele>
        <time>2013-04-13T10:50:16Z</time>
      </trkpt>
      <trkpt lat="45.21847" lon="5.99295">
        <ele>1361</ele>
        <time>2013-04-13T10:50:19Z</time>
      </trkpt>
      <trkpt lat="45.21849" lon="5.99299">
        <ele>1361</ele>
        <time>2013-04-13T10:50:22Z</time>
      </trkpt>
      <trkpt lat="45.2185" lon="5.99304">
        <ele>1361</ele>
        <time>2013-04-13T10:50:25Z</time>
      </trkpt>
      <trkpt lat="45.21852" lon="5.9931">
        <ele>1361</ele>
        <time>2013-04-13T10:50:28Z</time>
      </trkpt>
      <trkpt lat="45.21855" lon="5.99314">
        <ele>1361</ele>
        <time>2013-04-13T10:50:31Z</time>
      </trkpt>
      <trkpt lat="45.21856" lon="5.99319">
        <ele>1361</ele>
        <time>2013-04-13T10:50:34Z</time>
      </trkpt>
      <trkpt lat="45.21857" lon="5.99322">
        <ele>1361</ele>
        <time>2013-04-13T10:50:37Z</time>
      </trkpt>
      <trkpt lat="45.21857" lon="5.99328">
        <ele>1361</ele>
        <time>2013-04-13T10:50:40Z</time>
      </trkpt>
      <trkpt lat="45.21859" lon="5.99341">
        <ele>1361</ele>
        <time>2013-04-13T10:50:43Z</time>
      </trkpt>
      <trkpt lat="45.21863" lon="5.99359">
        <ele>1361</ele>
        <time>2013-04-13T10:50:46Z</time>
      </trkpt>
      <trkpt lat="45.2187" lon="5.99377">
        <ele>1360.4000244</ele>
        <time>2013-04-13T10:50:49Z</time>
      </trkpt>
      <trkpt lat="45.21879" lon="5.99386">
        <ele>1358.4000244</ele>
        <time>2013-04-13T10:50:52Z</time>
      </trkpt>
      <trkpt lat="45.21886" lon="5.99402">
        <ele>1357</ele>
        <time>2013-04-13T10:50:55Z</time>
      </trkpt>
      <trkpt lat="45.21893" lon="5.99428">
        <ele>1355.8000488</ele>
        <time>2013-04-13T10:50:58Z</time>
      </trkpt>
      <trkpt lat="45.21899" lon="5.99446">
        <ele>1354.4000244</ele>
        <time>2013-04-13T10:51:01Z</time>
      </trkpt>
      <trkpt lat="45.21905" lon="5.99456">
        <ele>1352</ele>
        <time>2013-04-13T10:51:04Z</time>
      </trkpt>
      <trkpt lat="45.21908" lon="5.99459">
        <ele>1349.4000244</ele>
        <time>2013-04-13T10:51:07Z</time>
      </trkpt>
      <trkpt lat="45.21909" lon="5.99463">
        <ele>1348</ele>
        <time>2013-04-13T10:51:10Z</time>
      </trkpt>
      <trkpt lat="45.21913" lon="5.99467">
        <ele>1348</ele>
        <time>2013-04-13T10:51:13Z</time>
      </trkpt>
      <trkpt lat="45.21918" lon="5.99473">
        <ele>1348</ele>
        <time>2013-04-13T10:51:16Z</time>
      </trkpt>
      <trkpt lat="45.21923" lon="5.99479">
        <ele>1348</ele>
        <time>2013-04-13T10:51:19Z</time>
      </trkpt>
      <trkpt lat="45.21928" lon="5.99483">
        <ele>1348</ele>
        <time>2013-04-13T10:51:22Z</time>
      </trkpt>
      <trkpt lat="45.21932" lon="5.99487">
        <ele>1348</ele>
        <time>2013-04-13T10:51:25Z</time>
      </trkpt>
      <trkpt lat="45.21937" lon="5.99491">
        <ele>1348</ele>
        <time>2013-04-13T10:51:28Z</time>
      </trkpt>
      <trkpt lat="45.21942" lon="5.99497">
        <ele>1348</ele>
        <time>2013-04-13T10:51:31Z</time>
      </trkpt>
      <trkpt lat="45.21946" lon="5.99502">
        <ele>1348</ele>
        <time>2013-04-13T10:51:34Z</time>
      </trkpt>
      <trkpt lat="45.21948" lon="5.99506">
        <ele>1348</ele>
        <time>2013-04-13T10:51:37Z</time>
      </trkpt>
      <trkpt lat="45.21951" lon="5.99512">
        <ele>1348</ele>
        <time>2013-04-13T10:51:40Z</time>
      </trkpt>
      <trkpt lat="45.21953" lon="5.99516">
        <ele>1348</ele>
        <time>2013-04-13T10:51:43Z</time>
      </trkpt>
      <trkpt lat="45.21957" lon="5.9952">
        <ele>1348</ele>
        <time>2013-04-13T10:51:46Z</time>
      </trkpt>
      <trkpt lat="45.21962" lon="5.99525">
        <ele>1348</ele>
        <time>2013-04-13T10:51:49Z</time>
      </trkpt>
      <trkpt lat="45.21966" lon="5.99531">
        <ele>1348</ele>
        <time>2013-04-13T10:51:52Z</time>
      </trkpt>
      <trkpt lat="45.21971" lon="5.99536">
        <ele>1348</ele>
        <time>2013-04-13T10:51:55Z</time>
      </trkpt>
      <trkpt lat="45.21978" lon="5.99541">
        <ele>1348</ele>
        <time>2013-04-13T10:51:58Z</time>
      </trkpt>
      <trkpt lat="45.21984" lon="5.99545">
        <ele>1348</ele>
        <time>2013-04-13T10:52:01Z</time>
      </trkpt>
      <trkpt lat="45.21994" lon="5.9955">
        <ele>1348</ele>
        <time>2013-04-13T10:52:04Z</time>
      </trkpt>
      <trkpt lat="45.22007" lon="5.99555">
        <ele>1348</ele>
        <time>2013-04-13T10:52:07Z</time>
      </trkpt>
      <trkpt lat="45.22027" lon="5.99562">
        <ele>1347.4000244</ele>
        <time>2013-04-13T10:52:10Z</time>
      </trkpt>
      <trkpt lat="45.22051" lon="5.99567">
        <ele>1345</ele>
        <time>2013-04-13T10:52:13Z</time>
      </trkpt>
      <trkpt lat="45.2207" lon="5.99576">
        <ele>1341.4000244</ele>
        <time>2013-04-13T10:52:16Z</time>
      </trkpt>
      <trkpt lat="45.22086" lon="5.99586">
        <ele>1339</ele>
        <time>2013-04-13T10:52:19Z</time>
      </trkpt>
      <trkpt lat="45.22091" lon="5.99597">
        <ele>1337.4000244</ele>
        <time>2013-04-13T10:52:22Z</time>
      </trkpt>
      <trkpt lat="45.22094" lon="5.99608">
        <ele>1336.8000488</ele>
        <time>2013-04-13T10:52:25Z</time>
      </trkpt>
      <trkpt lat="45.221" lon="5.9962">
        <ele>1336.4000244</ele>
        <time>2013-04-13T10:52:28Z</time>
      </trkpt>
      <trkpt lat="45.22106" lon="5.9963">
        <ele>1335.4000244</ele>
        <time>2013-04-13T10:52:31Z</time>
      </trkpt>
      <trkpt lat="45.22106" lon="5.99631">
        <ele>1334.4000244</ele>
        <time>2013-04-13T10:52:34Z</time>
      </trkpt>
      <trkpt lat="45.22106" lon="5.99631">
        <ele>1334.4000244</ele>
        <time>2013-04-13T10:52:37Z</time>
      </trkpt>
      <trkpt lat="45.22108" lon="5.99636">
        <ele>1334.4000244</ele>
        <time>2013-04-13T10:52:40Z</time>
      </trkpt>
      <trkpt lat="45.22112" lon="5.99644">
        <ele>1334.4000244</ele>
        <time>2013-04-13T10:52:43Z</time>
      </trkpt>
      <trkpt lat="45.22112" lon="5.99644">
        <ele>1334.4000244</ele>
        <time>2013-04-13T10:52:46Z</time>
      </trkpt>
      <trkpt lat="45.22113" lon="5.99646">
        <ele>1334.4000244</ele>
        <time>2013-04-13T10:52:49Z</time>
      </trkpt>
      <trkpt lat="45.22112" lon="5.99645">
        <ele>1334.4000244</ele>
        <time>2013-04-13T10:52:52Z</time>
      </trkpt>
      <trkpt lat="45.22112" lon="5.99645">
        <ele>1334.4000244</ele>
        <time>2013-04-13T10:52:55Z</time>
      </trkpt>
      <trkpt lat="45.22111" lon="5.99646">
        <ele>1333.8000488</ele>
        <time>2013-04-13T10:52:58Z</time>
      </trkpt>
      <trkpt lat="45.22112" lon="5.99646">
        <ele>1332.4000244</ele>
        <time>2013-04-13T10:53:01Z</time>
      </trkpt>
      <trkpt lat="45.22112" lon="5.99647">
        <ele>1332.4000244</ele>
        <time>2013-04-13T10:53:04Z</time>
      </trkpt>
      <trkpt lat="45.22114" lon="5.99648">
        <ele>1332.4000244</ele>
        <time>2013-04-13T10:53:07Z</time>
      </trkpt>
      <trkpt lat="45.22122" lon="5.99646">
        <ele>1332.4000244</ele>
        <time>2013-04-13T10:53:10Z</time>
      </trkpt>
      <trkpt lat="45.22126" lon="5.99645">
        <ele>1332.4000244</ele>
        <time>2013-04-13T10:53:13Z</time>
      </trkpt>
      <trkpt lat="45.22126" lon="5.99646">
        <ele>1331.4000244</ele>
        <time>2013-04-13T10:53:16Z</time>
      </trkpt>
      <trkpt lat="45.22126" lon="5.99645">
        <ele>1330.4000244</ele>
        <time>2013-04-13T10:53:19Z</time>
      </trkpt>
      <trkpt lat="45.22126" lon="5.99646">
        <ele>1330.4000244</ele>
        <time>2013-04-13T10:53:22Z</time>
      </trkpt>
      <trkpt lat="45.2213" lon="5.99645">
        <ele>1330.4000244</ele>
        <time>2013-04-13T10:53:25Z</time>
      </trkpt>
      <trkpt lat="45.2214" lon="5.99651">
        <ele>1330</ele>
        <time>2013-04-13T10:53:28Z</time>
      </trkpt>
      <trkpt lat="45.22151" lon="5.99653">
        <ele>1328.4000244</ele>
        <time>2013-04-13T10:53:31Z</time>
      </trkpt>
      <trkpt lat="45.22163" lon="5.99644">
        <ele>1326</ele>
        <time>2013-04-13T10:53:34Z</time>
      </trkpt>
      <trkpt lat="45.22172" lon="5.99637">
        <ele>1322.8000488</ele>
        <time>2013-04-13T10:53:37Z</time>
      </trkpt>
      <trkpt lat="45.22186" lon="5.99626">
        <ele>1319</ele>
        <time>2013-04-13T10:53:40Z</time>
      </trkpt>
      <trkpt lat="45.22203" lon="5.99625">
        <ele>1314</ele>
        <time>2013-04-13T10:53:43Z</time>
      </trkpt>
      <trkpt lat="45.22218" lon="5.99631">
        <ele>1308.4000244</ele>
        <time>2013-04-13T10:53:46Z</time>
      </trkpt>
      <trkpt lat="45.22239" lon="5.99637">
        <ele>1303</ele>
        <time>2013-04-13T10:53:49Z</time>
      </trkpt>
      <trkpt lat="45.22257" lon="5.99647">
        <ele>1298</ele>
        <time>2013-04-13T10:53:52Z</time>
      </trkpt>
      <trkpt lat="45.22259" lon="5.9965">
        <ele>1294</ele>
        <time>2013-04-13T10:53:55Z</time>
      </trkpt>
      <trkpt lat="45.22258" lon="5.9965">
        <ele>1289.8000488</ele>
        <time>2013-04-13T10:53:58Z</time>
      </trkpt>
      <trkpt lat="45.22258" lon="5.9965">
        <ele>1288.8000488</ele>
        <time>2013-04-13T10:54:01Z</time>
      </trkpt>
      <trkpt lat="45.22257" lon="5.9965">
        <ele>1288.8000488</ele>
        <time>2013-04-13T10:54:04Z</time>
      </trkpt>
      <trkpt lat="45.22257" lon="5.9965">
        <ele>1288.8000488</ele>
        <time>2013-04-13T10:54:07Z</time>
      </trkpt>
      <trkpt lat="45.22257" lon="5.9965">
        <ele>1288.8000488</ele>
        <time>2013-04-13T10:54:10Z</time>
      </trkpt>
      <trkpt lat="45.22257" lon="5.99651">
        <ele>1288.8000488</ele>
        <time>2013-04-13T10:54:13Z</time>
      </trkpt>
      <trkpt lat="45.22256" lon="5.99644">
        <ele>1288.8000488</ele>
        <time>2013-04-13T10:54:16Z</time>
      </trkpt>
      <trkpt lat="45.22254" lon="5.9963">
        <ele>1288.8000488</ele>
        <time>2013-04-13T10:54:19Z</time>
      </trkpt>
      <trkpt lat="45.22261" lon="5.99618">
        <ele>1287.4000244</ele>
        <time>2013-04-13T10:54:22Z</time>
      </trkpt>
      <trkpt lat="45.22268" lon="5.99604">
        <ele>1286.4000244</ele>
        <time>2013-04-13T10:54:25Z</time>
      </trkpt>
      <trkpt lat="45.22274" lon="5.99584">
        <ele>1283.8000488</ele>
        <time>2013-04-13T10:54:28Z</time>
      </trkpt>
      <trkpt lat="45.22284" lon="5.99572">
        <ele>1280.4000244</ele>
        <time>2013-04-13T10:54:31Z</time>
      </trkpt>
      <trkpt lat="45.22297" lon="5.99562">
        <ele>1276</ele>
        <time>2013-04-13T10:54:34Z</time>
      </trkpt>
      <trkpt lat="45.22314" lon="5.99566">
        <ele>1272.8000488</ele>
        <time>2013-04-13T10:54:37Z</time>
      </trkpt>
      <trkpt lat="45.2233" lon="5.99572">
        <ele>1268.4000244</ele>
        <time>2013-04-13T10:54:40Z</time>
      </trkpt>
      <trkpt lat="45.22346" lon="5.99587">
        <ele>1265</ele>
        <time>2013-04-13T10:54:43Z</time>
      </trkpt>
      <trkpt lat="45.22361" lon="5.99603">
        <ele>1261</ele>
        <time>2013-04-13T10:54:46Z</time>
      </trkpt>
      <trkpt lat="45.2237" lon="5.99616">
        <ele>1257.8000488</ele>
        <time>2013-04-13T10:54:49Z</time>
      </trkpt>
      <trkpt lat="45.22375" lon="5.99623">
        <ele>1255</ele>
        <time>2013-04-13T10:54:52Z</time>
      </trkpt>
      <trkpt lat="45.22377" lon="5.99626">
        <ele>1252.8000488</ele>
        <time>2013-04-13T10:54:55Z</time>
      </trkpt>
      <trkpt lat="45.22378" lon="5.99626">
        <ele>1252.8000488</ele>
        <time>2013-04-13T10:54:58Z</time>
      </trkpt>
      <trkpt lat="45.22377" lon="5.99629">
        <ele>1252.8000488</ele>
        <time>2013-04-13T10:55:01Z</time>
      </trkpt>
      <trkpt lat="45.22379" lon="5.99633">
        <ele>1252.8000488</ele>
        <time>2013-04-13T10:55:04Z</time>
      </trkpt>
      <trkpt lat="45.22382" lon="5.99636">
        <ele>1252.8000488</ele>
        <time>2013-04-13T10:55:07Z</time>
      </trkpt>
      <trkpt lat="45.22385" lon="5.99639">
        <ele>1252.8000488</ele>
        <time>2013-04-13T10:55:10Z</time>
      </trkpt>
      <trkpt lat="45.22388" lon="5.99643">
        <ele>1252.8000488</ele>
        <time>2013-04-13T10:55:13Z</time>
      </trkpt>
      <trkpt lat="45.22394" lon="5.99647">
        <ele>1252.8000488</ele>
        <time>2013-04-13T10:55:16Z</time>
      </trkpt>
      <trkpt lat="45.22404" lon="5.99647">
        <ele>1252.8000488</ele>
        <time>2013-04-13T10:55:19Z</time>
      </trkpt>
      <trkpt lat="45.22416" lon="5.99644">
        <ele>1252</ele>
        <time>2013-04-13T10:55:22Z</time>
      </trkpt>
      <trkpt lat="45.22424" lon="5.99639">
        <ele>1251</ele>
        <time>2013-04-13T10:55:25Z</time>
      </trkpt>
      <trkpt lat="45.22431" lon="5.99636">
        <ele>1250.8000488</ele>
        <time>2013-04-13T10:55:28Z</time>
      </trkpt>
      <trkpt lat="45.22435" lon="5.9963">
        <ele>1250.8000488</ele>
        <time>2013-04-13T10:55:31Z</time>
      </trkpt>
      <trkpt lat="45.22438" lon="5.99625">
        <ele>1250.8000488</ele>
        <time>2013-04-13T10:55:34Z</time>
      </trkpt>
      <trkpt lat="45.22443" lon="5.99618">
        <ele>1250.8000488</ele>
        <time>2013-04-13T10:55:37Z</time>
      </trkpt>
      <trkpt lat="45.22447" lon="5.99612">
        <ele>1250.8000488</ele>
        <time>2013-04-13T10:55:40Z</time>
      </trkpt>
      <trkpt lat="45.22451" lon="5.99606">
        <ele>1250.8000488</ele>
        <time>2013-04-13T10:55:43Z</time>
      </trkpt>
      <trkpt lat="45.22456" lon="5.99597">
        <ele>1250.8000488</ele>
        <time>2013-04-13T10:55:46Z</time>
      </trkpt>
      <trkpt lat="45.2246" lon="5.99589">
        <ele>1250.8000488</ele>
        <time>2013-04-13T10:55:49Z</time>
      </trkpt>
      <trkpt lat="45.22463" lon="5.99583">
        <ele>1250.8000488</ele>
        <time>2013-04-13T10:55:52Z</time>
      </trkpt>
      <trkpt lat="45.22465" lon="5.9958">
        <ele>1250.8000488</ele>
        <time>2013-04-13T10:55:55Z</time>
      </trkpt>
      <trkpt lat="45.22466" lon="5.99578">
        <ele>1250.8000488</ele>
        <time>2013-04-13T10:55:58Z</time>
      </trkpt>
      <trkpt lat="45.22466" lon="5.99577">
        <ele>1250.8000488</ele>
        <time>2013-04-13T10:56:01Z</time>
      </trkpt>
      <trkpt lat="45.22465" lon="5.99576">
        <ele>1250.8000488</ele>
        <time>2013-04-13T10:56:04Z</time>
      </trkpt>
      <trkpt lat="45.22466" lon="5.99576">
        <ele>1250.8000488</ele>
        <time>2013-04-13T10:56:07Z</time>
      </trkpt>
      <trkpt lat="45.22466" lon="5.99575">
        <ele>1250.8000488</ele>
        <time>2013-04-13T10:56:10Z</time>
      </trkpt>
      <trkpt lat="45.22465" lon="5.99575">
        <ele>1250.8000488</ele>
        <time>2013-04-13T10:56:13Z</time>
      </trkpt>
      <trkpt lat="45.22465" lon="5.99575">
        <ele>1250.8000488</ele>
        <time>2013-04-13T10:56:16Z</time>
      </trkpt>
      <trkpt lat="45.22465" lon="5.99575">
        <ele>1250.8000488</ele>
        <time>2013-04-13T10:56:19Z</time>
      </trkpt>
      <trkpt lat="45.22465" lon="5.99575">
        <ele>1250.8000488</ele>
        <time>2013-04-13T10:56:22Z</time>
      </trkpt>
      <trkpt lat="45.22465" lon="5.99575">
        <ele>1250.8000488</ele>
        <time>2013-04-13T10:56:25Z</time>
      </trkpt>
      <trkpt lat="45.22465" lon="5.99575">
        <ele>1250.8000488</ele>
        <time>2013-04-13T10:56:28Z</time>
      </trkpt>
      <trkpt lat="45.22465" lon="5.99576">
        <ele>1250.8000488</ele>
        <time>2013-04-13T10:56:31Z</time>
      </trkpt>
      <trkpt lat="45.22467" lon="5.99574">
        <ele>1250.8000488</ele>
        <time>2013-04-13T10:56:34Z</time>
      </trkpt>
      <trkpt lat="45.22469" lon="5.99571">
        <ele>1250.8000488</ele>
        <time>2013-04-13T10:56:37Z</time>
      </trkpt>
      <trkpt lat="45.22471" lon="5.99566">
        <ele>1250.8000488</ele>
        <time>2013-04-13T10:56:40Z</time>
      </trkpt>
      <trkpt lat="45.22473" lon="5.99563">
        <ele>1250.8000488</ele>
        <time>2013-04-13T10:56:43Z</time>
      </trkpt>
      <trkpt lat="45.22474" lon="5.99561">
        <ele>1250.8000488</ele>
        <time>2013-04-13T10:56:46Z</time>
      </trkpt>
      <trkpt lat="45.22475" lon="5.99558">
        <ele>1250.8000488</ele>
        <time>2013-04-13T10:56:49Z</time>
      </trkpt>
      <trkpt lat="45.22477" lon="5.99555">
        <ele>1250.8000488</ele>
        <time>2013-04-13T10:56:52Z</time>
      </trkpt>
      <trkpt lat="45.22479" lon="5.99553">
        <ele>1250.8000488</ele>
        <time>2013-04-13T10:56:55Z</time>
      </trkpt>
      <trkpt lat="45.22481" lon="5.99549">
        <ele>1250.8000488</ele>
        <time>2013-04-13T10:56:58Z</time>
      </trkpt>
      <trkpt lat="45.22482" lon="5.99546">
        <ele>1250.8000488</ele>
        <time>2013-04-13T10:57:01Z</time>
      </trkpt>
      <trkpt lat="45.22484" lon="5.99543">
        <ele>1250.8000488</ele>
        <time>2013-04-13T10:57:04Z</time>
      </trkpt>
      <trkpt lat="45.22485" lon="5.9954">
        <ele>1250.8000488</ele>
        <time>2013-04-13T10:57:07Z</time>
      </trkpt>
      <trkpt lat="45.22486" lon="5.99538">
        <ele>1250.8000488</ele>
        <time>2013-04-13T10:57:10Z</time>
      </trkpt>
      <trkpt lat="45.22488" lon="5.99535">
        <ele>1250.8000488</ele>
        <time>2013-04-13T10:57:13Z</time>
      </trkpt>
      <trkpt lat="45.22489" lon="5.99531">
        <ele>1250.8000488</ele>
        <time>2013-04-13T10:57:16Z</time>
      </trkpt>
      <trkpt lat="45.2249" lon="5.99528">
        <ele>1250.8000488</ele>
        <time>2013-04-13T10:57:19Z</time>
      </trkpt>
      <trkpt lat="45.2249" lon="5.99523">
        <ele>1250.8000488</ele>
        <time>2013-04-13T10:57:22Z</time>
      </trkpt>
      <trkpt lat="45.22491" lon="5.9952">
        <ele>1250.8000488</ele>
        <time>2013-04-13T10:57:25Z</time>
      </trkpt>
      <trkpt lat="45.22493" lon="5.99516">
        <ele>1250.8000488</ele>
        <time>2013-04-13T10:57:28Z</time>
      </trkpt>
      <trkpt lat="45.22494" lon="5.99511">
        <ele>1250.8000488</ele>
        <time>2013-04-13T10:57:31Z</time>
      </trkpt>
      <trkpt lat="45.22496" lon="5.99507">
        <ele>1250.8000488</ele>
        <time>2013-04-13T10:57:34Z</time>
      </trkpt>
      <trkpt lat="45.22498" lon="5.99503">
        <ele>1250.8000488</ele>
        <time>2013-04-13T10:57:37Z</time>
      </trkpt>
      <trkpt lat="45.225" lon="5.99499">
        <ele>1250.8000488</ele>
        <time>2013-04-13T10:57:40Z</time>
      </trkpt>
      <trkpt lat="45.22502" lon="5.99497">
        <ele>1250.8000488</ele>
        <time>2013-04-13T10:57:43Z</time>
      </trkpt>
      <trkpt lat="45.22504" lon="5.99492">
        <ele>1250.8000488</ele>
        <time>2013-04-13T10:57:46Z</time>
      </trkpt>
      <trkpt lat="45.22507" lon="5.99489">
        <ele>1250.8000488</ele>
        <time>2013-04-13T10:57:49Z</time>
      </trkpt>
      <trkpt lat="45.22509" lon="5.99485">
        <ele>1250.8000488</ele>
        <time>2013-04-13T10:57:52Z</time>
      </trkpt>
      <trkpt lat="45.22511" lon="5.99483">
        <ele>1250.8000488</ele>
        <time>2013-04-13T10:57:55Z</time>
      </trkpt>
      <trkpt lat="45.22514" lon="5.99479">
        <ele>1250.8000488</ele>
        <time>2013-04-13T10:57:58Z</time>
      </trkpt>
      <trkpt lat="45.22515" lon="5.99475">
        <ele>1250.8000488</ele>
        <time>2013-04-13T10:58:01Z</time>
      </trkpt>
      <trkpt lat="45.22515" lon="5.99473">
        <ele>1250.8000488</ele>
        <time>2013-04-13T10:58:04Z</time>
      </trkpt>
      <trkpt lat="45.22516" lon="5.99472">
        <ele>1250.8000488</ele>
        <time>2013-04-13T10:58:07Z</time>
      </trkpt>
      <trkpt lat="45.22516" lon="5.99472">
        <ele>1250.8000488</ele>
        <time>2013-04-13T10:58:10Z</time>
      </trkpt>
      <trkpt lat="45.22517" lon="5.99471">
        <ele>1250.8000488</ele>
        <time>2013-04-13T10:58:13Z</time>
      </trkpt>
      <trkpt lat="45.22517" lon="5.99471">
        <ele>1250.8000488</ele>
        <time>2013-04-13T10:58:16Z</time>
      </trkpt>
      <trkpt lat="45.22518" lon="5.99471">
        <ele>1250.8000488</ele>
        <time>2013-04-13T10:58:19Z</time>
      </trkpt>
      <trkpt lat="45.22518" lon="5.99471">
        <ele>1250.8000488</ele>
        <time>2013-04-13T10:58:22Z</time>
      </trkpt>
      <trkpt lat="45.22517" lon="5.9947">
        <ele>1250.8000488</ele>
        <time>2013-04-13T10:58:25Z</time>
      </trkpt>
      <trkpt lat="45.22517" lon="5.99467">
        <ele>1251.8000488</ele>
        <time>2013-04-13T10:58:28Z</time>
      </trkpt>
      <trkpt lat="45.22516" lon="5.9946">
        <ele>1252.4000244</ele>
        <time>2013-04-13T10:58:31Z</time>
      </trkpt>
      <trkpt lat="45.22515" lon="5.99454">
        <ele>1252.8000488</ele>
        <time>2013-04-13T10:58:34Z</time>
      </trkpt>
      <trkpt lat="45.22514" lon="5.99445">
        <ele>1252.8000488</ele>
        <time>2013-04-13T10:58:37Z</time>
      </trkpt>
      <trkpt lat="45.22514" lon="5.99437">
        <ele>1252.8000488</ele>
        <time>2013-04-13T10:58:40Z</time>
      </trkpt>
      <trkpt lat="45.22516" lon="5.9943">
        <ele>1252.8000488</ele>
        <time>2013-04-13T10:58:43Z</time>
      </trkpt>
      <trkpt lat="45.22516" lon="5.99426">
        <ele>1252.8000488</ele>
        <time>2013-04-13T10:58:46Z</time>
      </trkpt>
      <trkpt lat="45.22516" lon="5.99426">
        <ele>1252.8000488</ele>
        <time>2013-04-13T10:58:49Z</time>
      </trkpt>
      <trkpt lat="45.22515" lon="5.99427">
        <ele>1252.8000488</ele>
        <time>2013-04-13T10:58:52Z</time>
      </trkpt>
      <trkpt lat="45.22514" lon="5.99426">
        <ele>1252.8000488</ele>
        <time>2013-04-13T10:58:55Z</time>
      </trkpt>
      <trkpt lat="45.22514" lon="5.99425">
        <ele>1252.8000488</ele>
        <time>2013-04-13T10:58:58Z</time>
      </trkpt>
      <trkpt lat="45.22513" lon="5.99424">
        <ele>1252.8000488</ele>
        <time>2013-04-13T10:59:01Z</time>
      </trkpt>
      <trkpt lat="45.22513" lon="5.99423">
        <ele>1252.8000488</ele>
        <time>2013-04-13T10:59:04Z</time>
      </trkpt>
      <trkpt lat="45.22514" lon="5.99423">
        <ele>1252.8000488</ele>
        <time>2013-04-13T10:59:07Z</time>
      </trkpt>
      <trkpt lat="45.22514" lon="5.99421">
        <ele>1252.8000488</ele>
        <time>2013-04-13T10:59:10Z</time>
      </trkpt>
      <trkpt lat="45.22518" lon="5.99419">
        <ele>1252.8000488</ele>
        <time>2013-04-13T10:59:13Z</time>
      </trkpt>
      <trkpt lat="45.22522" lon="5.99416">
        <ele>1252.8000488</ele>
        <time>2013-04-13T10:59:16Z</time>
      </trkpt>
      <trkpt lat="45.22524" lon="5.99413">
        <ele>1252.8000488</ele>
        <time>2013-04-13T10:59:19Z</time>
      </trkpt>
      <trkpt lat="45.22526" lon="5.99409">
        <ele>1252.8000488</ele>
        <time>2013-04-13T10:59:22Z</time>
      </trkpt>
      <trkpt lat="45.22528" lon="5.99407">
        <ele>1252.8000488</ele>
        <time>2013-04-13T10:59:25Z</time>
      </trkpt>
      <trkpt lat="45.2253" lon="5.99403">
        <ele>1252.8000488</ele>
        <time>2013-04-13T10:59:28Z</time>
      </trkpt>
      <trkpt lat="45.22533" lon="5.994">
        <ele>1252.8000488</ele>
        <time>2013-04-13T10:59:31Z</time>
      </trkpt>
      <trkpt lat="45.22536" lon="5.99397">
        <ele>1252.8000488</ele>
        <time>2013-04-13T10:59:34Z</time>
      </trkpt>
      <trkpt lat="45.22538" lon="5.99395">
        <ele>1252.8000488</ele>
        <time>2013-04-13T10:59:37Z</time>
      </trkpt>
      <trkpt lat="45.2254" lon="5.99393">
        <ele>1252.8000488</ele>
        <time>2013-04-13T10:59:40Z</time>
      </trkpt>
      <trkpt lat="45.22544" lon="5.99391">
        <ele>1252.8000488</ele>
        <time>2013-04-13T10:59:43Z</time>
      </trkpt>
      <trkpt lat="45.22548" lon="5.9939">
        <ele>1252.4000244</ele>
        <time>2013-04-13T10:59:46Z</time>
      </trkpt>
      <trkpt lat="45.22553" lon="5.99388">
        <ele>1251.4000244</ele>
        <time>2013-04-13T10:59:49Z</time>
      </trkpt>
      <trkpt lat="45.22556" lon="5.99389">
        <ele>1250.8000488</ele>
        <time>2013-04-13T10:59:52Z</time>
      </trkpt>
      <trkpt lat="45.2256" lon="5.9939">
        <ele>1250.8000488</ele>
        <time>2013-04-13T10:59:55Z</time>
      </trkpt>
      <trkpt lat="45.22564" lon="5.99389">
        <ele>1250.8000488</ele>
        <time>2013-04-13T10:59:58Z</time>
      </trkpt>
      <trkpt lat="45.22568" lon="5.9939">
        <ele>1250.8000488</ele>
        <time>2013-04-13T11:00:01Z</time>
      </trkpt>
      <trkpt lat="45.2257" lon="5.99392">
        <ele>1250.8000488</ele>
        <time>2013-04-13T11:00:04Z</time>
      </trkpt>
      <trkpt lat="45.22572" lon="5.99391">
        <ele>1250.8000488</ele>
        <time>2013-04-13T11:00:07Z</time>
      </trkpt>
      <trkpt lat="45.22574" lon="5.99392">
        <ele>1250.8000488</ele>
        <time>2013-04-13T11:00:10Z</time>
      </trkpt>
      <trkpt lat="45.22578" lon="5.99394">
        <ele>1250.8000488</ele>
        <time>2013-04-13T11:00:13Z</time>
      </trkpt>
      <trkpt lat="45.22583" lon="5.99394">
        <ele>1250.8000488</ele>
        <time>2013-04-13T11:00:16Z</time>
      </trkpt>
      <trkpt lat="45.22586" lon="5.99394">
        <ele>1250.8000488</ele>
        <time>2013-04-13T11:00:19Z</time>
      </trkpt>
      <trkpt lat="45.2259" lon="5.99395">
        <ele>1250.8000488</ele>
        <time>2013-04-13T11:00:22Z</time>
      </trkpt>
      <trkpt lat="45.22592" lon="5.99396">
        <ele>1250.8000488</ele>
        <time>2013-04-13T11:00:25Z</time>
      </trkpt>
      <trkpt lat="45.22596" lon="5.99397">
        <ele>1250.8000488</ele>
        <time>2013-04-13T11:00:28Z</time>
      </trkpt>
      <trkpt lat="45.22599" lon="5.99401">
        <ele>1250.8000488</ele>
        <time>2013-04-13T11:00:31Z</time>
      </trkpt>
      <trkpt lat="45.22604" lon="5.99401">
        <ele>1250.8000488</ele>
        <time>2013-04-13T11:00:34Z</time>
      </trkpt>
      <trkpt lat="45.22607" lon="5.99403">
        <ele>1250.8000488</ele>
        <time>2013-04-13T11:00:37Z</time>
      </trkpt>
      <trkpt lat="45.2261" lon="5.99403">
        <ele>1250.8000488</ele>
        <time>2013-04-13T11:00:40Z</time>
      </trkpt>
      <trkpt lat="45.22612" lon="5.99405">
        <ele>1250.8000488</ele>
        <time>2013-04-13T11:00:43Z</time>
      </trkpt>
      <trkpt lat="45.22617" lon="5.99405">
        <ele>1250.8000488</ele>
        <time>2013-04-13T11:00:46Z</time>
      </trkpt>
      <trkpt lat="45.2262" lon="5.99405">
        <ele>1250.8000488</ele>
        <time>2013-04-13T11:00:49Z</time>
      </trkpt>
      <trkpt lat="45.22622" lon="5.99405">
        <ele>1250.8000488</ele>
        <time>2013-04-13T11:00:52Z</time>
      </trkpt>
      <trkpt lat="45.22628" lon="5.99407">
        <ele>1250.8000488</ele>
        <time>2013-04-13T11:00:55Z</time>
      </trkpt>
      <trkpt lat="45.22632" lon="5.99407">
        <ele>1250.8000488</ele>
        <time>2013-04-13T11:00:58Z</time>
      </trkpt>
      <trkpt lat="45.22637" lon="5.99408">
        <ele>1250.8000488</ele>
        <time>2013-04-13T11:01:01Z</time>
      </trkpt>
      <trkpt lat="45.22638" lon="5.99409">
        <ele>1250.8000488</ele>
        <time>2013-04-13T11:01:04Z</time>
      </trkpt>
      <trkpt lat="45.22643" lon="5.9941">
        <ele>1250.8000488</ele>
        <time>2013-04-13T11:01:07Z</time>
      </trkpt>
      <trkpt lat="45.22647" lon="5.9941">
        <ele>1250.8000488</ele>
        <time>2013-04-13T11:01:10Z</time>
      </trkpt>
      <trkpt lat="45.22651" lon="5.99411">
        <ele>1250.8000488</ele>
        <time>2013-04-13T11:01:13Z</time>
      </trkpt>
      <trkpt lat="45.22654" lon="5.99411">
        <ele>1250.8000488</ele>
        <time>2013-04-13T11:01:16Z</time>
      </trkpt>
      <trkpt lat="45.22659" lon="5.9941">
        <ele>1250.8000488</ele>
        <time>2013-04-13T11:01:19Z</time>
      </trkpt>
      <trkpt lat="45.22662" lon="5.99409">
        <ele>1250.8000488</ele>
        <time>2013-04-13T11:01:22Z</time>
      </trkpt>
      <trkpt lat="45.22666" lon="5.99408">
        <ele>1250.8000488</ele>
        <time>2013-04-13T11:01:25Z</time>
      </trkpt>
      <trkpt lat="45.22671" lon="5.99407">
        <ele>1250.8000488</ele>
        <time>2013-04-13T11:01:28Z</time>
      </trkpt>
      <trkpt lat="45.22675" lon="5.99406">
        <ele>1250.8000488</ele>
        <time>2013-04-13T11:01:31Z</time>
      </trkpt>
      <trkpt lat="45.22678" lon="5.99405">
        <ele>1250.8000488</ele>
        <time>2013-04-13T11:01:34Z</time>
      </trkpt>
      <trkpt lat="45.22682" lon="5.99403">
        <ele>1250.8000488</ele>
        <time>2013-04-13T11:01:37Z</time>
      </trkpt>
      <trkpt lat="45.22686" lon="5.99402">
        <ele>1250.8000488</ele>
        <time>2013-04-13T11:01:40Z</time>
      </trkpt>
      <trkpt lat="45.22689" lon="5.99399">
        <ele>1250.8000488</ele>
        <time>2013-04-13T11:01:43Z</time>
      </trkpt>
      <trkpt lat="45.22692" lon="5.99396">
        <ele>1250.8000488</ele>
        <time>2013-04-13T11:01:46Z</time>
      </trkpt>
      <trkpt lat="45.22695" lon="5.99394">
        <ele>1250.8000488</ele>
        <time>2013-04-13T11:01:49Z</time>
      </trkpt>
      <trkpt lat="45.22697" lon="5.9939">
        <ele>1250.8000488</ele>
        <time>2013-04-13T11:01:52Z</time>
      </trkpt>
      <trkpt lat="45.22701" lon="5.99389">
        <ele>1250.8000488</ele>
        <time>2013-04-13T11:01:55Z</time>
      </trkpt>
      <trkpt lat="45.22704" lon="5.99386">
        <ele>1250.8000488</ele>
        <time>2013-04-13T11:01:58Z</time>
      </trkpt>
      <trkpt lat="45.22708" lon="5.99384">
        <ele>1250.8000488</ele>
        <time>2013-04-13T11:02:01Z</time>
      </trkpt>
      <trkpt lat="45.22712" lon="5.99381">
        <ele>1250.8000488</ele>
        <time>2013-04-13T11:02:04Z</time>
      </trkpt>
      <trkpt lat="45.22714" lon="5.99376">
        <ele>1249.8000488</ele>
        <time>2013-04-13T11:02:07Z</time>
      </trkpt>
      <trkpt lat="45.22716" lon="5.99372">
        <ele>1248.8000488</ele>
        <time>2013-04-13T11:02:10Z</time>
      </trkpt>
      <trkpt lat="45.22717" lon="5.9937">
        <ele>1248.8000488</ele>
        <time>2013-04-13T11:02:13Z</time>
      </trkpt>
      <trkpt lat="45.22717" lon="5.99369">
        <ele>1248.8000488</ele>
        <time>2013-04-13T11:02:16Z</time>
      </trkpt>
      <trkpt lat="45.22717" lon="5.99369">
        <ele>1248.8000488</ele>
        <time>2013-04-13T11:02:19Z</time>
      </trkpt>
      <trkpt lat="45.22717" lon="5.9937">
        <ele>1248.8000488</ele>
        <time>2013-04-13T11:02:22Z</time>
      </trkpt>
      <trkpt lat="45.22719" lon="5.99371">
        <ele>1248.8000488</ele>
        <time>2013-04-13T11:02:25Z</time>
      </trkpt>
      <trkpt lat="45.22719" lon="5.99371">
        <ele>1248.8000488</ele>
        <time>2013-04-13T11:02:28Z</time>
      </trkpt>
      <trkpt lat="45.22722" lon="5.99371">
        <ele>1248.8000488</ele>
        <time>2013-04-13T11:02:31Z</time>
      </trkpt>
      <trkpt lat="45.22723" lon="5.99371">
        <ele>1248.8000488</ele>
        <time>2013-04-13T11:02:34Z</time>
      </trkpt>
      <trkpt lat="45.22723" lon="5.99371">
        <ele>1248.8000488</ele>
        <time>2013-04-13T11:02:37Z</time>
      </trkpt>
      <trkpt lat="45.22724" lon="5.99371">
        <ele>1248.8000488</ele>
        <time>2013-04-13T11:02:40Z</time>
      </trkpt>
      <trkpt lat="45.22724" lon="5.99371">
        <ele>1248.8000488</ele>
        <time>2013-04-13T11:02:43Z</time>
      </trkpt>
      <trkpt lat="45.22725" lon="5.99371">
        <ele>1248.8000488</ele>
        <time>2013-04-13T11:02:46Z</time>
      </trkpt>
      <trkpt lat="45.22725" lon="5.99371">
        <ele>1248.8000488</ele>
        <time>2013-04-13T11:02:49Z</time>
      </trkpt>
      <trkpt lat="45.22726" lon="5.99371">
        <ele>1248.8000488</ele>
        <time>2013-04-13T11:02:52Z</time>
      </trkpt>
      <trkpt lat="45.22726" lon="5.99371">
        <ele>1248.8000488</ele>
        <time>2013-04-13T11:02:55Z</time>
      </trkpt>
      <trkpt lat="45.22726" lon="5.9937">
        <ele>1248.8000488</ele>
        <time>2013-04-13T11:02:58Z</time>
      </trkpt>
      <trkpt lat="45.22726" lon="5.9937">
        <ele>1248.8000488</ele>
        <time>2013-04-13T11:03:01Z</time>
      </trkpt>
      <trkpt lat="45.22726" lon="5.9937">
        <ele>1248.8000488</ele>
        <time>2013-04-13T11:03:04Z</time>
      </trkpt>
      <trkpt lat="45.22726" lon="5.99369">
        <ele>1248.8000488</ele>
        <time>2013-04-13T11:03:07Z</time>
      </trkpt>
      <trkpt lat="45.22727" lon="5.99369">
        <ele>1248.8000488</ele>
        <time>2013-04-13T11:03:10Z</time>
      </trkpt>
      <trkpt lat="45.22727" lon="5.99369">
        <ele>1248.8000488</ele>
        <time>2013-04-13T11:03:13Z</time>
      </trkpt>
      <trkpt lat="45.22728" lon="5.99369">
        <ele>1248.8000488</ele>
        <time>2013-04-13T11:03:16Z</time>
      </trkpt>
      <trkpt lat="45.22729" lon="5.99369">
        <ele>1248.8000488</ele>
        <time>2013-04-13T11:03:19Z</time>
      </trkpt>
      <trkpt lat="45.22729" lon="5.99369">
        <ele>1248.8000488</ele>
        <time>2013-04-13T11:03:22Z</time>
      </trkpt>
      <trkpt lat="45.22729" lon="5.99369">
        <ele>1248.8000488</ele>
        <time>2013-04-13T11:03:25Z</time>
      </trkpt>
      <trkpt lat="45.22729" lon="5.99369">
        <ele>1248.8000488</ele>
        <time>2013-04-13T11:03:28Z</time>
      </trkpt>
      <trkpt lat="45.22729" lon="5.99369">
        <ele>1248.8000488</ele>
        <time>2013-04-13T11:03:31Z</time>
      </trkpt>
      <trkpt lat="45.22729" lon="5.99369">
        <ele>1248.8000488</ele>
        <time>2013-04-13T11:03:34Z</time>
      </trkpt>
      <trkpt lat="45.2273" lon="5.99369">
        <ele>1248.8000488</ele>
        <time>2013-04-13T11:03:37Z</time>
      </trkpt>
      <trkpt lat="45.2273" lon="5.99369">
        <ele>1248.8000488</ele>
        <time>2013-04-13T11:03:40Z</time>
      </trkpt>
      <trkpt lat="45.2273" lon="5.99369">
        <ele>1248.8000488</ele>
        <time>2013-04-13T11:03:43Z</time>
      </trkpt>
      <trkpt lat="45.22729" lon="5.99368">
        <ele>1248.8000488</ele>
        <time>2013-04-13T11:03:46Z</time>
      </trkpt>
      <trkpt lat="45.22729" lon="5.99369">
        <ele>1248.8000488</ele>
        <time>2013-04-13T11:03:49Z</time>
      </trkpt>
      <trkpt lat="45.2273" lon="5.99369">
        <ele>1248.8000488</ele>
        <time>2013-04-13T11:03:52Z</time>
      </trkpt>
      <trkpt lat="45.2273" lon="5.99369">
        <ele>1248.8000488</ele>
        <time>2013-04-13T11:03:55Z</time>
      </trkpt>
      <trkpt lat="45.2273" lon="5.99368">
        <ele>1248.8000488</ele>
        <time>2013-04-13T11:03:58Z</time>
      </trkpt>
      <trkpt lat="45.22731" lon="5.99368">
        <ele>1248.8000488</ele>
        <time>2013-04-13T11:04:01Z</time>
      </trkpt>
      <trkpt lat="45.22731" lon="5.99368">
        <ele>1248.8000488</ele>
        <time>2013-04-13T11:04:04Z</time>
      </trkpt>
      <trkpt lat="45.22731" lon="5.99368">
        <ele>1248.8000488</ele>
        <time>2013-04-13T11:04:07Z</time>
      </trkpt>
      <trkpt lat="45.22731" lon="5.99368">
        <ele>1248.8000488</ele>
        <time>2013-04-13T11:04:10Z</time>
      </trkpt>
      <trkpt lat="45.22731" lon="5.99368">
        <ele>1248.8000488</ele>
        <time>2013-04-13T11:04:13Z</time>
      </trkpt>
      <trkpt lat="45.2273" lon="5.99368">
        <ele>1248.8000488</ele>
        <time>2013-04-13T11:04:16Z</time>
      </trkpt>
      <trkpt lat="45.2273" lon="5.99368">
        <ele>1248.8000488</ele>
        <time>2013-04-13T11:04:19Z</time>
      </trkpt>
      <trkpt lat="45.2273" lon="5.99368">
        <ele>1248.8000488</ele>
        <time>2013-04-13T11:04:22Z</time>
      </trkpt>
      <trkpt lat="45.22731" lon="5.99368">
        <ele>1248.8000488</ele>
        <time>2013-04-13T11:04:25Z</time>
      </trkpt>
      <trkpt lat="45.22731" lon="5.99368">
        <ele>1248.8000488</ele>
        <time>2013-04-13T11:04:28Z</time>
      </trkpt>
      <trkpt lat="45.2273" lon="5.99368">
        <ele>1248.8000488</ele>
        <time>2013-04-13T11:04:31Z</time>
      </trkpt>
      <trkpt lat="45.2273" lon="5.99368">
        <ele>1248.8000488</ele>
        <time>2013-04-13T11:04:34Z</time>
      </trkpt>
      <trkpt lat="45.2273" lon="5.99368">
        <ele>1248.8000488</ele>
        <time>2013-04-13T11:04:36Z</time>
      </trkpt>
    </trkseg>
  </trk>
</gpx>